<?xml version='1.0' encoding='UTF-8'?><gpx version="1.1" creator="JPX - https://github.com/jenetics/jpx" xmlns="http://www.topografix.com/GPX/1/1"><trk><trkseg><trkpt lat="45.8962416865447" lon="13.38135221287804"><ele>25.999999999999996</ele><time>2026-04-08T13:58:07.796Z</time></trkpt><trkpt lat="45.896208585699306" lon="13.38127324328792"><ele>26.0</ele><time>2026-04-08T13:58:34Z</time></trkpt><trkpt lat="45.89614619694489" lon="13.381226921482178"><ele>26.0</ele><time>2026-04-08T14:01:45.999Z</time></trkpt><trkpt lat="45.896074548972926" lon="13.381243280131095"><ele>26.0</ele><time>2026-04-08T14:01:48.999Z</time></trkpt><trkpt lat="45.89596967097061" lon="13.381294351060598"><ele>25.999999999999996</ele><time>2026-04-08T14:01:50.999Z</time></trkpt><trkpt lat="45.8959054176328" lon="13.381334974061726"><ele>26.0</ele><time>2026-04-08T14:01:52.999Z</time></trkpt><trkpt lat="45.895874526139586" lon="13.381423980185906"><ele>26.166666666666664</ele><time>2026-04-08T14:01:54.999Z</time></trkpt><trkpt lat="45.895859920223074" lon="13.38153337849266"><ele>26.333333333333332</ele><time>2026-04-08T14:01:56.999Z</time></trkpt><trkpt lat="45.895840543719785" lon="13.381634648413895"><ele>26.5</ele><time>2026-04-08T14:01:58.999Z</time></trkpt><trkpt lat="45.89581994179831" lon="13.381744208837988"><ele>26.666666666666664</ele><time>2026-04-08T14:02:00.999Z</time></trkpt><trkpt lat="45.895794552978245" lon="13.381844721365848"><ele>26.833333333333332</ele><time>2026-04-08T14:02:02.999Z</time></trkpt><trkpt lat="45.89577409254186" lon="13.381944596432373"><ele>27.0</ele><time>2026-04-08T14:02:04.999Z</time></trkpt><trkpt lat="45.895785767964895" lon="13.382060079993899"><ele>27.0</ele><time>2026-04-08T14:02:08.999Z</time></trkpt><trkpt lat="45.895873547778706" lon="13.382068662801434"><ele>27.0</ele><time>2026-04-08T14:02:10.999Z</time></trkpt><trkpt lat="45.89593482934623" lon="13.38203115328994"><ele>27.0</ele><time>2026-04-08T14:02:11.999Z</time></trkpt><trkpt lat="45.89600560626078" lon="13.38199192143611"><ele>27.0</ele><time>2026-04-08T14:02:12.999Z</time></trkpt><trkpt lat="45.89609513896861" lon="13.38195366315905"><ele>27.0</ele><time>2026-04-08T14:02:13.999Z</time></trkpt><trkpt lat="45.896201366434596" lon="13.381902259055176"><ele>27.0</ele><time>2026-04-08T14:02:14.999Z</time></trkpt><trkpt lat="45.89632404498829" lon="13.3818457767856"><ele>26.75</ele><time>2026-04-08T14:02:15.999Z</time></trkpt><trkpt lat="45.896459550481595" lon="13.381791511841651"><ele>26.5</ele><time>2026-04-08T14:02:16.999Z</time></trkpt><trkpt lat="45.896602981022326" lon="13.381728713319552"><ele>26.25</ele><time>2026-04-08T14:02:17.999Z</time></trkpt><trkpt lat="45.89675244035825" lon="13.381659025023653"><ele>26.0</ele><time>2026-04-08T14:02:18.999Z</time></trkpt><trkpt lat="45.89690451285299" lon="13.381587020196624"><ele>26.0</ele><time>2026-04-08T14:02:19.999Z</time></trkpt><trkpt lat="45.89705646380045" lon="13.381519662886141"><ele>26.0</ele><time>2026-04-08T14:02:21Z</time></trkpt><trkpt lat="45.8972179018714" lon="13.381441797627867"><ele>26.0</ele><time>2026-04-08T14:02:22Z</time></trkpt><trkpt lat="45.89739335350562" lon="13.381363238799212"><ele>26.0</ele><time>2026-04-08T14:02:23Z</time></trkpt><trkpt lat="45.89757870097136" lon="13.381286245349102"><ele>26.0</ele><time>2026-04-08T14:02:24Z</time></trkpt><trkpt lat="45.897772768956486" lon="13.381212700573439"><ele>26.0</ele><time>2026-04-08T14:02:25Z</time></trkpt><trkpt lat="45.897974381870775" lon="13.38113103464693"><ele>26.0</ele><time>2026-04-08T14:02:26Z</time></trkpt><trkpt lat="45.89818312524633" lon="13.381045704842226"><ele>26.0</ele><time>2026-04-08T14:02:27Z</time></trkpt><trkpt lat="45.89839341004297" lon="13.380964039907443"><ele>26.0</ele><time>2026-04-08T14:02:28Z</time></trkpt><trkpt lat="45.89860569942131" lon="13.38087583823186"><ele>25.333333333333332</ele><time>2026-04-08T14:02:29Z</time></trkpt><trkpt lat="45.89881768972723" lon="13.38079591023642"><ele>24.666666666666664</ele><time>2026-04-08T14:02:30Z</time></trkpt><trkpt lat="45.8990307417657" lon="13.38072028490554"><ele>24.0</ele><time>2026-04-08T14:02:31Z</time></trkpt><trkpt lat="45.89924929391246" lon="13.380648522715374"><ele>24.666666666666664</ele><time>2026-04-08T14:02:32Z</time></trkpt><trkpt lat="45.89947000645753" lon="13.380587649425593"><ele>25.333333333333332</ele><time>2026-04-08T14:02:33Z</time></trkpt><trkpt lat="45.899690811576704" lon="13.380543286672834"><ele>26.0</ele><time>2026-04-08T14:02:34Z</time></trkpt><trkpt lat="45.89991224570435" lon="13.380505505564885"><ele>26.0</ele><time>2026-04-08T14:02:35Z</time></trkpt><trkpt lat="45.90012937335151" lon="13.380466780890647"><ele>26.0</ele><time>2026-04-08T14:02:36Z</time></trkpt><trkpt lat="45.90034552609507" lon="13.380430928069162"><ele>26.0</ele><time>2026-04-08T14:02:37Z</time></trkpt><trkpt lat="45.90055825473444" lon="13.380406334546455"><ele>26.0</ele><time>2026-04-08T14:02:38Z</time></trkpt><trkpt lat="45.900768795150654" lon="13.380377051898808"><ele>26.0</ele><time>2026-04-08T14:02:39Z</time></trkpt><trkpt lat="45.90097778501349" lon="13.380349705693785"><ele>26.0</ele><time>2026-04-08T14:02:40Z</time></trkpt><trkpt lat="45.90118665707034" lon="13.380322554150139"><ele>26.0</ele><time>2026-04-08T14:02:41Z</time></trkpt><trkpt lat="45.90139357341014" lon="13.380293792469411"><ele>26.0</ele><time>2026-04-08T14:02:42Z</time></trkpt><trkpt lat="45.90159802797891" lon="13.380267435344509"><ele>26.0</ele><time>2026-04-08T14:02:42.999Z</time></trkpt><trkpt lat="45.9017998054837" lon="13.380236041976843"><ele>26.0</ele><time>2026-04-08T14:02:43.999Z</time></trkpt><trkpt lat="45.90200285285067" lon="13.380196292744792"><ele>26.0</ele><time>2026-04-08T14:02:44.999Z</time></trkpt><trkpt lat="45.90220565504708" lon="13.380150747769388"><ele>26.0</ele><time>2026-04-08T14:02:45.999Z</time></trkpt><trkpt lat="45.902409225586155" lon="13.380108420447135"><ele>26.333333333333332</ele><time>2026-04-08T14:02:46.999Z</time></trkpt><trkpt lat="45.90261252339243" lon="13.380065958902534"><ele>26.666666666666664</ele><time>2026-04-08T14:02:47.999Z</time></trkpt><trkpt lat="45.902813127508" lon="13.380021453681586"><ele>27.0</ele><time>2026-04-08T14:02:48.999Z</time></trkpt><trkpt lat="45.90300506282891" lon="13.379979475947959"><ele>27.0</ele><time>2026-04-08T14:02:49.999Z</time></trkpt><trkpt lat="45.90318584806231" lon="13.379939025417464"><ele>27.0</ele><time>2026-04-08T14:02:50.999Z</time></trkpt><trkpt lat="45.9033492282842" lon="13.379904124968375"><ele>27.0</ele><time>2026-04-08T14:02:51.999Z</time></trkpt><trkpt lat="45.903501761622486" lon="13.379870361405553"><ele>27.0</ele><time>2026-04-08T14:02:52.999Z</time></trkpt><trkpt lat="45.90364373089415" lon="13.37983935298401"><ele>27.0</ele><time>2026-04-08T14:02:53.999Z</time></trkpt><trkpt lat="45.90377718046042" lon="13.379807579600211"><ele>27.0</ele><time>2026-04-08T14:02:54.999Z</time></trkpt><trkpt lat="45.903904244810334" lon="13.379780775665187"><ele>27.0</ele><time>2026-04-08T14:02:55.999Z</time></trkpt><trkpt lat="45.90404252107024" lon="13.379747529065755"><ele>27.0</ele><time>2026-04-08T14:02:56.999Z</time></trkpt><trkpt lat="45.904188425188224" lon="13.379713491676398"><ele>27.0</ele><time>2026-04-08T14:02:57.999Z</time></trkpt><trkpt lat="45.90434129505854" lon="13.37968143006938"><ele>27.0</ele><time>2026-04-08T14:02:58.999Z</time></trkpt><trkpt lat="45.90450000447379" lon="13.379650371903557"><ele>26.666666666666664</ele><time>2026-04-08T14:02:59.999Z</time></trkpt><trkpt lat="45.90466710556791" lon="13.379622772983078"><ele>26.333333333333332</ele><time>2026-04-08T14:03:00.999Z</time></trkpt><trkpt lat="45.90483891885543" lon="13.379602658697603"><ele>26.0</ele><time>2026-04-08T14:03:01.999Z</time></trkpt><trkpt lat="45.90501725936847" lon="13.379583277937702"><ele>26.666666666666664</ele><time>2026-04-08T14:03:02.999Z</time></trkpt><trkpt lat="45.905210718445005" lon="13.379562035924854"><ele>27.333333333333336</ele><time>2026-04-08T14:03:03.999Z</time></trkpt><trkpt lat="45.90542049123103" lon="13.379537276167516"><ele>28.0</ele><time>2026-04-08T14:03:04.999Z</time></trkpt><trkpt lat="45.90564115837801" lon="13.379511748155036"><ele>28.0</ele><time>2026-04-08T14:03:05.999Z</time></trkpt><trkpt lat="45.90587544705969" lon="13.379483496979365"><ele>28.0</ele><time>2026-04-08T14:03:06.999Z</time></trkpt><trkpt lat="45.90611960867143" lon="13.379451149005117"><ele>28.5</ele><time>2026-04-08T14:03:07.999Z</time></trkpt><trkpt lat="45.90636887576279" lon="13.379417169785038"><ele>29.0</ele><time>2026-04-08T14:03:08.999Z</time></trkpt><trkpt lat="45.906620069855805" lon="13.379380917077881"><ele>29.0</ele><time>2026-04-08T14:03:09.999Z</time></trkpt><trkpt lat="45.906875885808276" lon="13.379326805126023"><ele>29.0</ele><time>2026-04-08T14:03:10.999Z</time></trkpt><trkpt lat="45.9071301076319" lon="13.379241392147058"><ele>29.0</ele><time>2026-04-08T14:03:11.999Z</time></trkpt><trkpt lat="45.90738502077968" lon="13.379136337501226"><ele>29.0</ele><time>2026-04-08T14:03:12.999Z</time></trkpt><trkpt lat="45.90763979062713" lon="13.379034034256073"><ele>29.0</ele><time>2026-04-08T14:03:13.999Z</time></trkpt><trkpt lat="45.907890995529236" lon="13.378946040867667"><ele>29.0</ele><time>2026-04-08T14:03:14.999Z</time></trkpt><trkpt lat="45.90813825502071" lon="13.37886879819343"><ele>29.0</ele><time>2026-04-08T14:03:15.999Z</time></trkpt><trkpt lat="45.90838646684606" lon="13.37880561664265"><ele>29.0</ele><time>2026-04-08T14:03:16.999Z</time></trkpt><trkpt lat="45.908633782364554" lon="13.378757926735025"><ele>29.0</ele><time>2026-04-08T14:03:17.999Z</time></trkpt><trkpt lat="45.90888351910039" lon="13.37872453912786"><ele>29.0</ele><time>2026-04-08T14:03:18.999Z</time></trkpt><trkpt lat="45.909135817798216" lon="13.378697340864"><ele>28.5</ele><time>2026-04-08T14:03:19.999Z</time></trkpt><trkpt lat="45.909389069290675" lon="13.378673280989167"><ele>28.0</ele><time>2026-04-08T14:03:20.999Z</time></trkpt><trkpt lat="45.90964037828787" lon="13.378662377978715"><ele>28.0</ele><time>2026-04-08T14:03:21.999Z</time></trkpt><trkpt lat="45.90989109375734" lon="13.378666749824298"><ele>28.0</ele><time>2026-04-08T14:03:22.999Z</time></trkpt><trkpt lat="45.91014138493173" lon="13.37867949500223"><ele>29.0</ele><time>2026-04-08T14:03:23.999Z</time></trkpt><trkpt lat="45.91039069871145" lon="13.378700472616815"><ele>30.0</ele><time>2026-04-08T14:03:24.999Z</time></trkpt><trkpt lat="45.91063309739686" lon="13.378713220906242"><ele>30.0</ele><time>2026-04-08T14:03:25.999Z</time></trkpt><trkpt lat="45.91086916066017" lon="13.378704213734263"><ele>30.0</ele><time>2026-04-08T14:03:26.999Z</time></trkpt><trkpt lat="45.911097019634" lon="13.378652152498722"><ele>30.333333333333336</ele><time>2026-04-08T14:03:27.999Z</time></trkpt><trkpt lat="45.91131339179739" lon="13.378560775279995"><ele>30.666666666666668</ele><time>2026-04-08T14:03:28.999Z</time></trkpt><trkpt lat="45.91151950399111" lon="13.378439538934241"><ele>31.0</ele><time>2026-04-08T14:03:29.999Z</time></trkpt><trkpt lat="45.91171454141116" lon="13.378287305070877"><ele>31.0</ele><time>2026-04-08T14:03:30.999Z</time></trkpt><trkpt lat="45.91189784752459" lon="13.378111296317579"><ele>31.0</ele><time>2026-04-08T14:03:31.999Z</time></trkpt><trkpt lat="45.9120752510009" lon="13.377921890403696"><ele>31.0</ele><time>2026-04-08T14:03:32.999Z</time></trkpt><trkpt lat="45.912251397936146" lon="13.37773306262894"><ele>31.333333333333336</ele><time>2026-04-08T14:03:33.999Z</time></trkpt><trkpt lat="45.912436923395866" lon="13.377571560997248"><ele>31.666666666666664</ele><time>2026-04-08T14:03:34.999Z</time></trkpt><trkpt lat="45.912606909561774" lon="13.377398520251417"><ele>32.0</ele><time>2026-04-08T14:03:35.999Z</time></trkpt><trkpt lat="45.91275888545507" lon="13.377208688506979"><ele>32.666666666666664</ele><time>2026-04-08T14:03:36.999Z</time></trkpt><trkpt lat="45.912914314196954" lon="13.377053199227323"><ele>33.333333333333336</ele><time>2026-04-08T14:03:37.999Z</time></trkpt><trkpt lat="45.91306323966425" lon="13.376932697116368"><ele>34.0</ele><time>2026-04-08T14:03:38.999Z</time></trkpt><trkpt lat="45.913218838488895" lon="13.376853480707137"><ele>34.0</ele><time>2026-04-08T14:03:39.999Z</time></trkpt><trkpt lat="45.91338955364037" lon="13.376795917433187"><ele>34.0</ele><time>2026-04-08T14:03:40.999Z</time></trkpt><trkpt lat="45.913572201977956" lon="13.376727323399868"><ele>34.0</ele><time>2026-04-08T14:03:41.999Z</time></trkpt><trkpt lat="45.91376078977268" lon="13.376646925199948"><ele>33.66666666666667</ele><time>2026-04-08T14:03:42.999Z</time></trkpt><trkpt lat="45.913956794854684" lon="13.376567595434452"><ele>33.333333333333336</ele><time>2026-04-08T14:03:43.999Z</time></trkpt><trkpt lat="45.91415606535915" lon="13.376492572809452"><ele>33.0</ele><time>2026-04-08T14:03:44.999Z</time></trkpt><trkpt lat="45.91435742273404" lon="13.376429811965064"><ele>33.0</ele><time>2026-04-08T14:03:45.999Z</time></trkpt><trkpt lat="45.91456866148848" lon="13.376380216482278"><ele>33.0</ele><time>2026-04-08T14:03:46.999Z</time></trkpt><trkpt lat="45.914786068669876" lon="13.376342612632206"><ele>33.0</ele><time>2026-04-08T14:03:47.999Z</time></trkpt><trkpt lat="45.91500504374687" lon="13.376304186821915"><ele>33.5</ele><time>2026-04-08T14:03:48.999Z</time></trkpt><trkpt lat="45.915227367130235" lon="13.376266438805038"><ele>34.0</ele><time>2026-04-08T14:03:49.999Z</time></trkpt><trkpt lat="45.915455152971454" lon="13.376228073061112"><ele>34.0</ele><time>2026-04-08T14:03:50.999Z</time></trkpt><trkpt lat="45.915684956095156" lon="13.376197294469698"><ele>34.0</ele><time>2026-04-08T14:03:51.999Z</time></trkpt><trkpt lat="45.91591453726627" lon="13.376182756730701"><ele>33.5</ele><time>2026-04-08T14:03:52.999Z</time></trkpt><trkpt lat="45.916144605465846" lon="13.376182889491734"><ele>33.0</ele><time>2026-04-08T14:03:53.999Z</time></trkpt><trkpt lat="45.916374460554614" lon="13.376181765346747"><ele>33.0</ele><time>2026-04-08T14:03:54.999Z</time></trkpt><trkpt lat="45.916603080282606" lon="13.376165268292871"><ele>33.0</ele><time>2026-04-08T14:03:55.999Z</time></trkpt><trkpt lat="45.916834527965534" lon="13.37613679760878"><ele>31.5</ele><time>2026-04-08T14:03:56.999Z</time></trkpt><trkpt lat="45.91706560869245" lon="13.376101809969235"><ele>30.0</ele><time>2026-04-08T14:03:57.999Z</time></trkpt><trkpt lat="45.9172995175356" lon="13.376060754292636"><ele>30.0</ele><time>2026-04-08T14:03:58.999Z</time></trkpt><trkpt lat="45.91753544048372" lon="13.376019169316617"><ele>30.0</ele><time>2026-04-08T14:03:59.999Z</time></trkpt><trkpt lat="45.91777010619479" lon="13.375972195052002"><ele>31.0</ele><time>2026-04-08T14:04:00.999Z</time></trkpt><trkpt lat="45.918006395129126" lon="13.37593243304041"><ele>32.0</ele><time>2026-04-08T14:04:01.999Z</time></trkpt><trkpt lat="45.91824152661135" lon="13.375890966440737"><ele>32.0</ele><time>2026-04-08T14:04:02.999Z</time></trkpt><trkpt lat="45.91847389515989" lon="13.375837096064696"><ele>32.0</ele><time>2026-04-08T14:04:03.999Z</time></trkpt><trkpt lat="45.91870077155181" lon="13.375757646032122"><ele>32.0</ele><time>2026-04-08T14:04:04.999Z</time></trkpt><trkpt lat="45.91891609982157" lon="13.375633690452235"><ele>32.0</ele><time>2026-04-08T14:04:05.999Z</time></trkpt><trkpt lat="45.919124853399815" lon="13.37548251897533"><ele>31.5</ele><time>2026-04-08T14:04:06.999Z</time></trkpt><trkpt lat="45.91932305935963" lon="13.375298540972807"><ele>31.0</ele><time>2026-04-08T14:04:07.999Z</time></trkpt><trkpt lat="45.91951374766619" lon="13.375086875939122"><ele>31.0</ele><time>2026-04-08T14:04:08.999Z</time></trkpt><trkpt lat="45.919707705449575" lon="13.374872116862885"><ele>31.0</ele><time>2026-04-08T14:04:09.999Z</time></trkpt><trkpt lat="45.91991171813416" lon="13.374668308219556"><ele>31.5</ele><time>2026-04-08T14:04:10.999Z</time></trkpt><trkpt lat="45.92011528751585" lon="13.374460348946272"><ele>32.0</ele><time>2026-04-08T14:04:11.999Z</time></trkpt><trkpt lat="45.920318689041096" lon="13.374259530935504"><ele>32.0</ele><time>2026-04-08T14:04:12.999Z</time></trkpt><trkpt lat="45.9205135665867" lon="13.374084118857265"><ele>32.0</ele><time>2026-04-08T14:04:13.999Z</time></trkpt><trkpt lat="45.92069485558846" lon="13.3739318085142"><ele>32.0</ele><time>2026-04-08T14:04:14.999Z</time></trkpt><trkpt lat="45.92085420324752" lon="13.373798831171639"><ele>32.0</ele><time>2026-04-08T14:04:15.999Z</time></trkpt><trkpt lat="45.92099089310942" lon="13.373681579734544"><ele>32.0</ele><time>2026-04-08T14:04:16.999Z</time></trkpt><trkpt lat="45.92110229040626" lon="13.373584383707739"><ele>32.0</ele><time>2026-04-08T14:04:17.999Z</time></trkpt><trkpt lat="45.92119340184073" lon="13.37351103256369"><ele>32.0</ele><time>2026-04-08T14:04:18.999Z</time></trkpt><trkpt lat="45.92128643563481" lon="13.373465209245516"><ele>31.999999999999996</ele><time>2026-04-08T14:04:20.999Z</time></trkpt><trkpt lat="45.92136912753952" lon="13.373455676761862"><ele>32.0</ele><time>2026-04-08T14:04:23.999Z</time></trkpt><trkpt lat="45.92146375746218" lon="13.373478771279906"><ele>32.0</ele><time>2026-04-08T14:04:25.999Z</time></trkpt><trkpt lat="45.92152734130692" lon="13.373482072423057"><ele>32.0</ele><time>2026-04-08T14:04:27Z</time></trkpt><trkpt lat="45.92160062581811" lon="13.373454377563375"><ele>31.999999999999996</ele><time>2026-04-08T14:04:28Z</time></trkpt><trkpt lat="45.921672164903434" lon="13.373371200102447"><ele>32.0</ele><time>2026-04-08T14:04:29Z</time></trkpt><trkpt lat="45.92173007291379" lon="13.373233804199897"><ele>32.25</ele><time>2026-04-08T14:04:30Z</time></trkpt><trkpt lat="45.92179251476547" lon="13.373062967736123"><ele>32.5</ele><time>2026-04-08T14:04:31Z</time></trkpt><trkpt lat="45.9218913348364" lon="13.372901016053051"><ele>32.75</ele><time>2026-04-08T14:04:32Z</time></trkpt><trkpt lat="45.922024969677246" lon="13.372766897053022"><ele>33.0</ele><time>2026-04-08T14:04:33Z</time></trkpt><trkpt lat="45.92218401582694" lon="13.372637063423653"><ele>33.0</ele><time>2026-04-08T14:04:34Z</time></trkpt><trkpt lat="45.92235554974196" lon="13.372492716234326"><ele>33.0</ele><time>2026-04-08T14:04:35Z</time></trkpt><trkpt lat="45.92253872713004" lon="13.372327073653642"><ele>33.0</ele><time>2026-04-08T14:04:36Z</time></trkpt><trkpt lat="45.92273540577249" lon="13.372158333456483"><ele>33.0</ele><time>2026-04-08T14:04:37Z</time></trkpt><trkpt lat="45.92293900928535" lon="13.37198091563288"><ele>33.0</ele><time>2026-04-08T14:04:38Z</time></trkpt><trkpt lat="45.92315285674934" lon="13.371789071773645"><ele>33.0</ele><time>2026-04-08T14:04:39Z</time></trkpt><trkpt lat="45.92337476248584" lon="13.371588169196507"><ele>33.0</ele><time>2026-04-08T14:04:40Z</time></trkpt><trkpt lat="45.9236036527141" lon="13.371386891001093"><ele>33.0</ele><time>2026-04-08T14:04:41Z</time></trkpt><trkpt lat="45.92384155249519" lon="13.371183332281063"><ele>33.0</ele><time>2026-04-08T14:04:42Z</time></trkpt><trkpt lat="45.92408339366154" lon="13.37097449851191"><ele>33.0</ele><time>2026-04-08T14:04:43Z</time></trkpt><trkpt lat="45.92432903847237" lon="13.37075869339431"><ele>33.0</ele><time>2026-04-08T14:04:44Z</time></trkpt><trkpt lat="45.92457669114498" lon="13.37054004726598"><ele>33.0</ele><time>2026-04-08T14:04:45Z</time></trkpt><trkpt lat="45.924828892881685" lon="13.370317503643568"><ele>33.0</ele><time>2026-04-08T14:04:46Z</time></trkpt><trkpt lat="45.92508343129404" lon="13.37009559495682"><ele>33.0</ele><time>2026-04-08T14:04:47Z</time></trkpt><trkpt lat="45.92533839938389" lon="13.369869564559032"><ele>33.0</ele><time>2026-04-08T14:04:48Z</time></trkpt><trkpt lat="45.925593883900056" lon="13.369642997078419"><ele>33.0</ele><time>2026-04-08T14:04:49Z</time></trkpt><trkpt lat="45.92584918959718" lon="13.36941414658936"><ele>33.0</ele><time>2026-04-08T14:04:50Z</time></trkpt><trkpt lat="45.92610362435066" lon="13.369189960328336"><ele>33.5</ele><time>2026-04-08T14:04:51Z</time></trkpt><trkpt lat="45.92635662651827" lon="13.36896625759476"><ele>34.0</ele><time>2026-04-08T14:04:52Z</time></trkpt><trkpt lat="45.92660572064573" lon="13.368737097389849"><ele>34.0</ele><time>2026-04-08T14:04:52.999Z</time></trkpt><trkpt lat="45.92685285131788" lon="13.368501101004652"><ele>34.0</ele><time>2026-04-08T14:04:53.999Z</time></trkpt><trkpt lat="45.92709823119685" lon="13.368263086573423"><ele>34.0</ele><time>2026-04-08T14:04:54.999Z</time></trkpt><trkpt lat="45.92734609048799" lon="13.368029245594354"><ele>34.0</ele><time>2026-04-08T14:04:55.999Z</time></trkpt><trkpt lat="45.92759501328982" lon="13.367803583216178"><ele>34.0</ele><time>2026-04-08T14:04:56.999Z</time></trkpt><trkpt lat="45.92784650979291" lon="13.367592179143784"><ele>34.0</ele><time>2026-04-08T14:04:57.999Z</time></trkpt><trkpt lat="45.928106830104255" lon="13.367414804177072"><ele>34.0</ele><time>2026-04-08T14:04:58.999Z</time></trkpt><trkpt lat="45.928375977684134" lon="13.3672785662973"><ele>34.0</ele><time>2026-04-08T14:04:59.999Z</time></trkpt><trkpt lat="45.92864674826314" lon="13.367152808228534"><ele>34.0</ele><time>2026-04-08T14:05:00.999Z</time></trkpt><trkpt lat="45.928917658242426" lon="13.367032442507728"><ele>34.0</ele><time>2026-04-08T14:05:01.999Z</time></trkpt><trkpt lat="45.9291875294678" lon="13.366914432978676"><ele>34.5</ele><time>2026-04-08T14:05:02.999Z</time></trkpt><trkpt lat="45.92945562889002" lon="13.366800224400045"><ele>35.0</ele><time>2026-04-08T14:05:03.999Z</time></trkpt><trkpt lat="45.92972293031804" lon="13.36668546975254"><ele>35.0</ele><time>2026-04-08T14:05:04.999Z</time></trkpt><trkpt lat="45.9299858038068" lon="13.366570049045901"><ele>35.0</ele><time>2026-04-08T14:05:05.999Z</time></trkpt><trkpt lat="45.93024445300506" lon="13.366453868310742"><ele>35.0</ele><time>2026-04-08T14:05:06.999Z</time></trkpt><trkpt lat="45.930501915601624" lon="13.366339828561348"><ele>35.0</ele><time>2026-04-08T14:05:07.999Z</time></trkpt><trkpt lat="45.93075471088688" lon="13.366228761912259"><ele>35.0</ele><time>2026-04-08T14:05:08.999Z</time></trkpt><trkpt lat="45.93099513824648" lon="13.366121295840212"><ele>35.0</ele><time>2026-04-08T14:05:09.999Z</time></trkpt><trkpt lat="45.931223743380805" lon="13.366019787613626"><ele>35.0</ele><time>2026-04-08T14:05:10.999Z</time></trkpt><trkpt lat="45.9314419970406" lon="13.36591992641109"><ele>35.0</ele><time>2026-04-08T14:05:11.999Z</time></trkpt><trkpt lat="45.931654271750006" lon="13.365821331198433"><ele>35.666666666666664</ele><time>2026-04-08T14:05:12.999Z</time></trkpt><trkpt lat="45.931863186359735" lon="13.365724964736994"><ele>36.333333333333336</ele><time>2026-04-08T14:05:13.999Z</time></trkpt><trkpt lat="45.93206587854151" lon="13.365638689779232"><ele>37.0</ele><time>2026-04-08T14:05:14.999Z</time></trkpt><trkpt lat="45.93227116419545" lon="13.365566350157943"><ele>36.5</ele><time>2026-04-08T14:05:15.999Z</time></trkpt><trkpt lat="45.93246362429958" lon="13.365519704551007"><ele>36.0</ele><time>2026-04-08T14:05:16.999Z</time></trkpt><trkpt lat="45.93260538198794" lon="13.365495430294725"><ele>35.5</ele><time>2026-04-08T14:05:17.999Z</time></trkpt><trkpt lat="45.932714162325354" lon="13.365480066171708"><ele>35.0</ele><time>2026-04-08T14:05:18.999Z</time></trkpt><trkpt lat="45.932807115281385" lon="13.36546672845042"><ele>35.0</ele><time>2026-04-08T14:05:19.999Z</time></trkpt><trkpt lat="45.932896709255076" lon="13.365452048084553"><ele>35.0</ele><time>2026-04-08T14:05:20.999Z</time></trkpt><trkpt lat="45.93298113573599" lon="13.3654338650299"><ele>35.0</ele><time>2026-04-08T14:05:21.999Z</time></trkpt><trkpt lat="45.93308056360245" lon="13.365409245163125"><ele>35.0</ele><time>2026-04-08T14:05:22.999Z</time></trkpt><trkpt lat="45.93322665750039" lon="13.365401800682859"><ele>35.0</ele><time>2026-04-08T14:05:23.999Z</time></trkpt><trkpt lat="45.93340451046722" lon="13.365370773321462"><ele>35.666666666666664</ele><time>2026-04-08T14:05:24.999Z</time></trkpt><trkpt lat="45.93361395639795" lon="13.365326364178213"><ele>36.333333333333336</ele><time>2026-04-08T14:05:25.999Z</time></trkpt><trkpt lat="45.93384727766419" lon="13.365287008585724"><ele>37.0</ele><time>2026-04-08T14:05:26.999Z</time></trkpt><trkpt lat="45.93409868317518" lon="13.365239069194292"><ele>37.0</ele><time>2026-04-08T14:05:27.999Z</time></trkpt><trkpt lat="45.934364101059685" lon="13.365193139616215"><ele>37.0</ele><time>2026-04-08T14:05:28.999Z</time></trkpt><trkpt lat="45.93464208421491" lon="13.365146690979811"><ele>37.0</ele><time>2026-04-08T14:05:29.999Z</time></trkpt><trkpt lat="45.93492213136638" lon="13.365097817794492"><ele>37.0</ele><time>2026-04-08T14:05:30.999Z</time></trkpt><trkpt lat="45.93520170454835" lon="13.365048895310746"><ele>36.5</ele><time>2026-04-08T14:05:31.999Z</time></trkpt><trkpt lat="45.9354799895447" lon="13.364999795863918"><ele>36.0</ele><time>2026-04-08T14:05:32.999Z</time></trkpt><trkpt lat="45.93574133662886" lon="13.364954080735362"><ele>37.0</ele><time>2026-04-08T14:05:33.999Z</time></trkpt><trkpt lat="45.93597675463528" lon="13.36491178171139"><ele>38.0</ele><time>2026-04-08T14:05:34.999Z</time></trkpt><trkpt lat="45.93620555317459" lon="13.364872254090217"><ele>38.0</ele><time>2026-04-08T14:05:35.999Z</time></trkpt><trkpt lat="45.9364254396044" lon="13.364833597616744"><ele>38.0</ele><time>2026-04-08T14:05:36.999Z</time></trkpt><trkpt lat="45.93663620207879" lon="13.364759343431556"><ele>38.0</ele><time>2026-04-08T14:05:37.999Z</time></trkpt><trkpt lat="45.936835262019756" lon="13.364627442072333"><ele>39.0</ele><time>2026-04-08T14:05:38.999Z</time></trkpt><trkpt lat="45.937011193197364" lon="13.364428531243407"><ele>40.0</ele><time>2026-04-08T14:05:39.999Z</time></trkpt><trkpt lat="45.93715457449201" lon="13.364181188899234"><ele>41.0</ele><time>2026-04-08T14:05:40.999Z</time></trkpt><trkpt lat="45.93726326173184" lon="13.363895551789502"><ele>39.5</ele><time>2026-04-08T14:05:41.999Z</time></trkpt><trkpt lat="45.93733771014884" lon="13.363577591979759"><ele>38.0</ele><time>2026-04-08T14:05:42.999Z</time></trkpt><trkpt lat="45.937395875746674" lon="13.363229724753886"><ele>38.0</ele><time>2026-04-08T14:05:43.999Z</time></trkpt><trkpt lat="45.93746248208153" lon="13.362872569545132"><ele>38.0</ele><time>2026-04-08T14:05:44.999Z</time></trkpt><trkpt lat="45.937535997302966" lon="13.362499508554833"><ele>38.0</ele><time>2026-04-08T14:05:45.999Z</time></trkpt><trkpt lat="45.93761052862425" lon="13.362115899180688"><ele>38.0</ele><time>2026-04-08T14:05:46.999Z</time></trkpt><trkpt lat="45.93768464564818" lon="13.361724381082874"><ele>38.0</ele><time>2026-04-08T14:05:47.999Z</time></trkpt><trkpt lat="45.937758709243695" lon="13.361329886444143"><ele>38.0</ele><time>2026-04-08T14:05:48.999Z</time></trkpt><trkpt lat="45.93784015720045" lon="13.360937845122287"><ele>38.0</ele><time>2026-04-08T14:05:49.999Z</time></trkpt><trkpt lat="45.93793609211706" lon="13.360551177073734"><ele>38.0</ele><time>2026-04-08T14:05:50.999Z</time></trkpt><trkpt lat="45.93804577871248" lon="13.36017142320909"><ele>38.0</ele><time>2026-04-08T14:05:51.999Z</time></trkpt><trkpt lat="45.938168490098995" lon="13.359798824643793"><ele>38.0</ele><time>2026-04-08T14:05:52.999Z</time></trkpt><trkpt lat="45.93829359521708" lon="13.359429924622876"><ele>38.5</ele><time>2026-04-08T14:05:53.999Z</time></trkpt><trkpt lat="45.93841315839198" lon="13.359060914380954"><ele>39.0</ele><time>2026-04-08T14:05:54.999Z</time></trkpt><trkpt lat="45.93852992480546" lon="13.358689801665374"><ele>39.0</ele><time>2026-04-08T14:05:55.999Z</time></trkpt><trkpt lat="45.938642786687254" lon="13.358337029921383"><ele>39.0</ele><time>2026-04-08T14:05:56.999Z</time></trkpt><trkpt lat="45.938746852928006" lon="13.358018576479095"><ele>38.5</ele><time>2026-04-08T14:05:57.999Z</time></trkpt><trkpt lat="45.93885021898407" lon="13.357719688056541"><ele>38.0</ele><time>2026-04-08T14:05:58.999Z</time></trkpt><trkpt lat="45.93897430976277" lon="13.357438164001374"><ele>38.5</ele><time>2026-04-08T14:05:59.999Z</time></trkpt><trkpt lat="45.939126206389275" lon="13.357169508511314"><ele>39.0</ele><time>2026-04-08T14:06:00.999Z</time></trkpt><trkpt lat="45.93930104430247" lon="13.356918933160822"><ele>39.0</ele><time>2026-04-08T14:06:01.999Z</time></trkpt><trkpt lat="45.93949861318425" lon="13.356691476136813"><ele>39.0</ele><time>2026-04-08T14:06:02.999Z</time></trkpt><trkpt lat="45.93970963600858" lon="13.356479651959845"><ele>39.0</ele><time>2026-04-08T14:06:03.999Z</time></trkpt><trkpt lat="45.93991413526587" lon="13.356269036605825"><ele>39.0</ele><time>2026-04-08T14:06:04.999Z</time></trkpt><trkpt lat="45.94009949524839" lon="13.356035034104522"><ele>39.0</ele><time>2026-04-08T14:06:05.999Z</time></trkpt><trkpt lat="45.94025978500521" lon="13.355764490205367"><ele>39.0</ele><time>2026-04-08T14:06:06.999Z</time></trkpt><trkpt lat="45.940395748085976" lon="13.35545896502854"><ele>38.5</ele><time>2026-04-08T14:06:07.999Z</time></trkpt><trkpt lat="45.940531018096124" lon="13.355136930552279"><ele>38.0</ele><time>2026-04-08T14:06:08.999Z</time></trkpt><trkpt lat="45.940666415547206" lon="13.354815796523983"><ele>38.0</ele><time>2026-04-08T14:06:09.999Z</time></trkpt><trkpt lat="45.940799883201464" lon="13.354499067917358"><ele>38.0</ele><time>2026-04-08T14:06:10.999Z</time></trkpt><trkpt lat="45.94092212384384" lon="13.354179658882599"><ele>38.5</ele><time>2026-04-08T14:06:11.999Z</time></trkpt><trkpt lat="45.94102215517229" lon="13.353847189704686"><ele>39.0</ele><time>2026-04-08T14:06:12.999Z</time></trkpt><trkpt lat="45.94109828823304" lon="13.353503125784284"><ele>39.0</ele><time>2026-04-08T14:06:13.999Z</time></trkpt><trkpt lat="45.941162226737816" lon="13.35315774411117"><ele>39.0</ele><time>2026-04-08T14:06:14.999Z</time></trkpt><trkpt lat="45.94121865628791" lon="13.352815060116725"><ele>39.5</ele><time>2026-04-08T14:06:15.999Z</time></trkpt><trkpt lat="45.94127388087257" lon="13.352474764165962"><ele>40.0</ele><time>2026-04-08T14:06:16.999Z</time></trkpt><trkpt lat="45.94133016799535" lon="13.352140890061053"><ele>40.5</ele><time>2026-04-08T14:06:17.999Z</time></trkpt><trkpt lat="45.94138337261925" lon="13.351811039684508"><ele>41.0</ele><time>2026-04-08T14:06:18.999Z</time></trkpt><trkpt lat="45.941437579881644" lon="13.351486199503316"><ele>40.5</ele><time>2026-04-08T14:06:19.999Z</time></trkpt><trkpt lat="45.941498546969264" lon="13.351167590699083"><ele>40.0</ele><time>2026-04-08T14:06:20.999Z</time></trkpt><trkpt lat="45.941553803622725" lon="13.350851361430795"><ele>40.0</ele><time>2026-04-08T14:06:21.999Z</time></trkpt><trkpt lat="45.94160448540423" lon="13.350542893823784"><ele>40.0</ele><time>2026-04-08T14:06:22.999Z</time></trkpt><trkpt lat="45.94165195542766" lon="13.350246927124306"><ele>40.0</ele><time>2026-04-08T14:06:23.999Z</time></trkpt><trkpt lat="45.94169950997485" lon="13.349962801531305"><ele>39.66666666666667</ele><time>2026-04-08T14:06:24.999Z</time></trkpt><trkpt lat="45.94176395143506" lon="13.34968781602246"><ele>39.333333333333336</ele><time>2026-04-08T14:06:25.999Z</time></trkpt><trkpt lat="45.94185673289891" lon="13.349427699143638"><ele>39.0</ele><time>2026-04-08T14:06:26.999Z</time></trkpt><trkpt lat="45.941981759494354" lon="13.34918873305949"><ele>39.0</ele><time>2026-04-08T14:06:27.999Z</time></trkpt><trkpt lat="45.94213083511071" lon="13.348979068640409"><ele>39.0</ele><time>2026-04-08T14:06:28.999Z</time></trkpt><trkpt lat="45.94230161788714" lon="13.348795195641731"><ele>39.0</ele><time>2026-04-08T14:06:29.999Z</time></trkpt><trkpt lat="45.942490205458334" lon="13.348642865622468"><ele>40.0</ele><time>2026-04-08T14:06:30.999Z</time></trkpt><trkpt lat="45.94269695361011" lon="13.348517005414637"><ele>41.0</ele><time>2026-04-08T14:06:32Z</time></trkpt><trkpt lat="45.94291547903585" lon="13.348411215146491"><ele>41.0</ele><time>2026-04-08T14:06:33Z</time></trkpt><trkpt lat="45.943140590318926" lon="13.34830245729857"><ele>41.0</ele><time>2026-04-08T14:06:34Z</time></trkpt><trkpt lat="45.94337141968861" lon="13.348191919212068"><ele>41.5</ele><time>2026-04-08T14:06:35Z</time></trkpt><trkpt lat="45.94360735786956" lon="13.348077096047094"><ele>42.0</ele><time>2026-04-08T14:06:36Z</time></trkpt><trkpt lat="45.94384865629099" lon="13.347959909114635"><ele>42.0</ele><time>2026-04-08T14:06:37Z</time></trkpt><trkpt lat="45.94409530585752" lon="13.347840065987548"><ele>42.0</ele><time>2026-04-08T14:06:38Z</time></trkpt><trkpt lat="45.94434547591665" lon="13.34771632315714"><ele>42.0</ele><time>2026-04-08T14:06:39Z</time></trkpt><trkpt lat="45.944599878367576" lon="13.347592199692418"><ele>42.0</ele><time>2026-04-08T14:06:40Z</time></trkpt><trkpt lat="45.94485569185021" lon="13.347466551666217"><ele>42.0</ele><time>2026-04-08T14:06:41Z</time></trkpt><trkpt lat="45.94511379395458" lon="13.347339845116352"><ele>42.0</ele><time>2026-04-08T14:06:42Z</time></trkpt><trkpt lat="45.94537595238052" lon="13.34721235421311"><ele>42.0</ele><time>2026-04-08T14:06:43Z</time></trkpt><trkpt lat="45.9456394312434" lon="13.347085913866637"><ele>42.0</ele><time>2026-04-08T14:06:44Z</time></trkpt><trkpt lat="45.94590370478021" lon="13.346958880640567"><ele>42.0</ele><time>2026-04-08T14:06:45Z</time></trkpt><trkpt lat="45.946167764017474" lon="13.34683064116308"><ele>42.0</ele><time>2026-04-08T14:06:46Z</time></trkpt><trkpt lat="45.94641980976042" lon="13.346711274506527"><ele>42.0</ele><time>2026-04-08T14:06:47Z</time></trkpt><trkpt lat="45.94665137814895" lon="13.346603904302391"><ele>42.0</ele><time>2026-04-08T14:06:48Z</time></trkpt><trkpt lat="45.94687570686763" lon="13.346491993594126"><ele>41.5</ele><time>2026-04-08T14:06:49Z</time></trkpt><trkpt lat="45.94708805494424" lon="13.346357770316402"><ele>41.0</ele><time>2026-04-08T14:06:50Z</time></trkpt><trkpt lat="45.94728626679455" lon="13.346191077231389"><ele>41.0</ele><time>2026-04-08T14:06:51Z</time></trkpt><trkpt lat="45.947466870380566" lon="13.345993032578845"><ele>41.0</ele><time>2026-04-08T14:06:52Z</time></trkpt><trkpt lat="45.947626729968654" lon="13.345763458536048"><ele>41.5</ele><time>2026-04-08T14:06:53Z</time></trkpt><trkpt lat="45.94776497024281" lon="13.345499652804708"><ele>42.0</ele><time>2026-04-08T14:06:54Z</time></trkpt><trkpt lat="45.94790004674483" lon="13.345220410051732"><ele>42.0</ele><time>2026-04-08T14:06:55Z</time></trkpt><trkpt lat="45.94804747566117" lon="13.344943968831924"><ele>42.0</ele><time>2026-04-08T14:06:56Z</time></trkpt><trkpt lat="45.94819548121429" lon="13.34466317948163"><ele>43.0</ele><time>2026-04-08T14:06:57Z</time></trkpt><trkpt lat="45.948344625116285" lon="13.344374799791064"><ele>44.0</ele><time>2026-04-08T14:06:58Z</time></trkpt><trkpt lat="45.94849492845025" lon="13.344084196389689"><ele>43.5</ele><time>2026-04-08T14:06:59Z</time></trkpt><trkpt lat="45.94864387444614" lon="13.343800620761794"><ele>43.0</ele><time>2026-04-08T14:07:00Z</time></trkpt><trkpt lat="45.9487905277621" lon="13.343526947089295"><ele>43.0</ele><time>2026-04-08T14:07:01Z</time></trkpt><trkpt lat="45.94892635170493" lon="13.343267258011897"><ele>43.0</ele><time>2026-04-08T14:07:02Z</time></trkpt><trkpt lat="45.94904929062426" lon="13.343020671453797"><ele>43.0</ele><time>2026-04-08T14:07:03Z</time></trkpt><trkpt lat="45.94917087920289" lon="13.342787053224182"><ele>43.66666666666667</ele><time>2026-04-08T14:07:04Z</time></trkpt><trkpt lat="45.949301856074484" lon="13.342568937159331"><ele>44.333333333333336</ele><time>2026-04-08T14:07:04.999Z</time></trkpt><trkpt lat="45.94944353632621" lon="13.342366480536462"><ele>45.0</ele><time>2026-04-08T14:07:05.999Z</time></trkpt><trkpt lat="45.949598143871775" lon="13.34218150029164"><ele>45.0</ele><time>2026-04-08T14:07:06.999Z</time></trkpt><trkpt lat="45.949759377766995" lon="13.34199906143417"><ele>45.0</ele><time>2026-04-08T14:07:07.999Z</time></trkpt><trkpt lat="45.94992521675988" lon="13.341817191250845"><ele>45.0</ele><time>2026-04-08T14:07:08.999Z</time></trkpt><trkpt lat="45.95009395000895" lon="13.34163864671143"><ele>45.333333333333336</ele><time>2026-04-08T14:07:09.999Z</time></trkpt><trkpt lat="45.950264211553076" lon="13.341459749161167"><ele>45.66666666666667</ele><time>2026-04-08T14:07:10.999Z</time></trkpt><trkpt lat="45.95043468086794" lon="13.341277517849669"><ele>46.0</ele><time>2026-04-08T14:07:11.999Z</time></trkpt><trkpt lat="45.95060307178524" lon="13.341098278662011"><ele>46.0</ele><time>2026-04-08T14:07:12.999Z</time></trkpt><trkpt lat="45.95077441725807" lon="13.340930976958784"><ele>46.0</ele><time>2026-04-08T14:07:13.999Z</time></trkpt><trkpt lat="45.95094264050575" lon="13.340776934799118"><ele>46.0</ele><time>2026-04-08T14:07:14.999Z</time></trkpt><trkpt lat="45.951109942854806" lon="13.340633375425158"><ele>46.0</ele><time>2026-04-08T14:07:15.999Z</time></trkpt><trkpt lat="45.951276729244746" lon="13.340500270123007"><ele>46.0</ele><time>2026-04-08T14:07:16.999Z</time></trkpt><trkpt lat="45.95144092421305" lon="13.340376588531685"><ele>46.0</ele><time>2026-04-08T14:07:17.999Z</time></trkpt><trkpt lat="45.951601937826496" lon="13.340258179243015"><ele>46.0</ele><time>2026-04-08T14:07:18.999Z</time></trkpt><trkpt lat="45.95176112022618" lon="13.340143735894546"><ele>46.0</ele><time>2026-04-08T14:07:19.999Z</time></trkpt><trkpt lat="45.951919239042965" lon="13.340034722794098"><ele>46.0</ele><time>2026-04-08T14:07:20.999Z</time></trkpt><trkpt lat="45.95207716794676" lon="13.339927437039165"><ele>46.0</ele><time>2026-04-08T14:07:21.999Z</time></trkpt><trkpt lat="45.95223375769532" lon="13.339818912500505"><ele>46.0</ele><time>2026-04-08T14:07:22.999Z</time></trkpt><trkpt lat="45.952388703640665" lon="13.339710053871492"><ele>46.0</ele><time>2026-04-08T14:07:23.999Z</time></trkpt><trkpt lat="45.952543736131126" lon="13.339599053456228"><ele>46.333333333333336</ele><time>2026-04-08T14:07:24.999Z</time></trkpt><trkpt lat="45.95269793000594" lon="13.339492910461999"><ele>46.666666666666664</ele><time>2026-04-08T14:07:25.999Z</time></trkpt><trkpt lat="45.952853073052644" lon="13.339388300494834"><ele>47.0</ele><time>2026-04-08T14:07:26.999Z</time></trkpt><trkpt lat="45.95300738295964" lon="13.339284514346026"><ele>47.0</ele><time>2026-04-08T14:07:27.999Z</time></trkpt><trkpt lat="45.953162092411866" lon="13.33917676548854"><ele>47.0</ele><time>2026-04-08T14:07:28.999Z</time></trkpt><trkpt lat="45.95331766684163" lon="13.339066335706287"><ele>47.0</ele><time>2026-04-08T14:07:29.999Z</time></trkpt><trkpt lat="45.95347472109593" lon="13.338958996276325"><ele>47.0</ele><time>2026-04-08T14:07:30.999Z</time></trkpt><trkpt lat="45.95363093468888" lon="13.338851161894501"><ele>47.0</ele><time>2026-04-08T14:07:31.999Z</time></trkpt><trkpt lat="45.95378863003956" lon="13.33873871141794"><ele>47.0</ele><time>2026-04-08T14:07:32.999Z</time></trkpt><trkpt lat="45.95394882173775" lon="13.338626035607346"><ele>47.0</ele><time>2026-04-08T14:07:33.999Z</time></trkpt><trkpt lat="45.95411093162311" lon="13.338514904157144"><ele>47.0</ele><time>2026-04-08T14:07:34.999Z</time></trkpt><trkpt lat="45.95427582772223" lon="13.338402656981485"><ele>47.0</ele><time>2026-04-08T14:07:35.999Z</time></trkpt><trkpt lat="45.95444204473003" lon="13.338285441620684"><ele>46.666666666666664</ele><time>2026-04-08T14:07:36.999Z</time></trkpt><trkpt lat="45.95461125070444" lon="13.33816393212507"><ele>46.333333333333336</ele><time>2026-04-08T14:07:37.999Z</time></trkpt><trkpt lat="45.954782993324955" lon="13.338044316287485"><ele>46.0</ele><time>2026-04-08T14:07:38.999Z</time></trkpt><trkpt lat="45.95495718114751" lon="13.337925512879277"><ele>46.333333333333336</ele><time>2026-04-08T14:07:39.999Z</time></trkpt><trkpt lat="45.95513098656291" lon="13.337806234938965"><ele>46.666666666666664</ele><time>2026-04-08T14:07:40.999Z</time></trkpt><trkpt lat="45.95530386635456" lon="13.337686841117714"><ele>47.0</ele><time>2026-04-08T14:07:41.999Z</time></trkpt><trkpt lat="45.95547555620919" lon="13.33756661195749"><ele>47.0</ele><time>2026-04-08T14:07:42.999Z</time></trkpt><trkpt lat="45.95564615323503" lon="13.337448314177125"><ele>47.0</ele><time>2026-04-08T14:07:43.999Z</time></trkpt><trkpt lat="45.95581546794273" lon="13.337329655402076"><ele>47.0</ele><time>2026-04-08T14:07:44.999Z</time></trkpt><trkpt lat="45.95598309407361" lon="13.337207686553244"><ele>47.0</ele><time>2026-04-08T14:07:45.999Z</time></trkpt><trkpt lat="45.95615178288493" lon="13.337092650692096"><ele>47.0</ele><time>2026-04-08T14:07:46.999Z</time></trkpt><trkpt lat="45.95631979473055" lon="13.336972477905109"><ele>47.0</ele><time>2026-04-08T14:07:47.999Z</time></trkpt><trkpt lat="45.956485428615274" lon="13.336855539798053"><ele>47.0</ele><time>2026-04-08T14:07:48.999Z</time></trkpt><trkpt lat="45.956639368804986" lon="13.33674648094422"><ele>47.0</ele><time>2026-04-08T14:07:49.999Z</time></trkpt><trkpt lat="45.95677652414022" lon="13.33664205676256"><ele>47.0</ele><time>2026-04-08T14:07:50.999Z</time></trkpt><trkpt lat="45.95690372672938" lon="13.336540573100422"><ele>47.2</ele><time>2026-04-08T14:07:51.999Z</time></trkpt><trkpt lat="45.95702053377308" lon="13.3364498941073"><ele>47.400000000000006</ele><time>2026-04-08T14:07:52.999Z</time></trkpt><trkpt lat="45.957118557754775" lon="13.336378947905201"><ele>47.599999999999994</ele><time>2026-04-08T14:07:53.999Z</time></trkpt><trkpt lat="45.957190838655215" lon="13.336321381989375"><ele>47.8</ele><time>2026-04-08T14:07:54.999Z</time></trkpt><trkpt lat="45.95726277925048" lon="13.336211345309412"><ele>48.0</ele><time>2026-04-08T14:07:55.999Z</time></trkpt><trkpt lat="45.95722170840341" lon="13.336068368233144"><ele>48.0</ele><time>2026-04-08T14:07:57.999Z</time></trkpt><trkpt lat="45.957145920657666" lon="13.335925096156341"><ele>48.0</ele><time>2026-04-08T14:07:58.999Z</time></trkpt><trkpt lat="45.95705924425625" lon="13.335731017433915"><ele>48.0</ele><time>2026-04-08T14:07:59.999Z</time></trkpt><trkpt lat="45.956955343173725" lon="13.335469960271135"><ele>47.5</ele><time>2026-04-08T14:08:00.999Z</time></trkpt><trkpt lat="45.956823573698614" lon="13.335155576604716"><ele>47.0</ele><time>2026-04-08T14:08:01.999Z</time></trkpt><trkpt lat="45.95668494561012" lon="13.334805000427625"><ele>47.0</ele><time>2026-04-08T14:08:02.999Z</time></trkpt><trkpt lat="45.95654974416007" lon="13.334451230996654"><ele>47.0</ele><time>2026-04-08T14:08:03.999Z</time></trkpt><trkpt lat="45.956419237705624" lon="13.334143384785481"><ele>47.33333333333333</ele><time>2026-04-08T14:08:04.999Z</time></trkpt><trkpt lat="45.95629384980524" lon="13.333868132612034"><ele>47.666666666666664</ele><time>2026-04-08T14:08:05.999Z</time></trkpt><trkpt lat="45.95618781321126" lon="13.333592817219179"><ele>48.0</ele><time>2026-04-08T14:08:06.999Z</time></trkpt><trkpt lat="45.956109788347646" lon="13.33331304524633"><ele>48.0</ele><time>2026-04-08T14:08:07.999Z</time></trkpt><trkpt lat="45.95606225078491" lon="13.333013391738735"><ele>48.0</ele><time>2026-04-08T14:08:08.999Z</time></trkpt><trkpt lat="45.95605106218826" lon="13.332693699351564"><ele>48.0</ele><time>2026-04-08T14:08:09.999Z</time></trkpt><trkpt lat="45.9560732155601" lon="13.332351062255508"><ele>47.5</ele><time>2026-04-08T14:08:10.999Z</time></trkpt><trkpt lat="45.95612369095534" lon="13.3319780069163"><ele>47.0</ele><time>2026-04-08T14:08:11.999Z</time></trkpt><trkpt lat="45.95617201657494" lon="13.331569646383716"><ele>47.0</ele><time>2026-04-08T14:08:12.999Z</time></trkpt><trkpt lat="45.95621138320128" lon="13.331160178079074"><ele>47.0</ele><time>2026-04-08T14:08:13.999Z</time></trkpt><trkpt lat="45.95625230102055" lon="13.330772475006587"><ele>46.5</ele><time>2026-04-08T14:08:14.999Z</time></trkpt><trkpt lat="45.9562904772443" lon="13.330398552516703"><ele>46.0</ele><time>2026-04-08T14:08:15.999Z</time></trkpt><trkpt lat="45.956301304113566" lon="13.330029003133756"><ele>46.0</ele><time>2026-04-08T14:08:16.999Z</time></trkpt><trkpt lat="45.95628200579493" lon="13.32963447413393"><ele>46.0</ele><time>2026-04-08T14:08:17.999Z</time></trkpt><trkpt lat="45.95624435906639" lon="13.329206904396187"><ele>46.5</ele><time>2026-04-08T14:08:18.999Z</time></trkpt><trkpt lat="45.95620453641107" lon="13.328773935417404"><ele>47.0</ele><time>2026-04-08T14:08:19.999Z</time></trkpt><trkpt lat="45.95616412073836" lon="13.328335190377771"><ele>47.0</ele><time>2026-04-08T14:08:20.999Z</time></trkpt><trkpt lat="45.956121164912936" lon="13.327897125872177"><ele>47.0</ele><time>2026-04-08T14:08:21.999Z</time></trkpt><trkpt lat="45.956080813643545" lon="13.327461927191807"><ele>47.5</ele><time>2026-04-08T14:08:22.999Z</time></trkpt><trkpt lat="45.95604115203527" lon="13.327031115302804"><ele>48.0</ele><time>2026-04-08T14:08:23.999Z</time></trkpt><trkpt lat="45.95600429736773" lon="13.326623613250403"><ele>47.5</ele><time>2026-04-08T14:08:24.999Z</time></trkpt><trkpt lat="45.95597333774595" lon="13.326246855141521"><ele>47.0</ele><time>2026-04-08T14:08:25.999Z</time></trkpt><trkpt lat="45.9559426417007" lon="13.325886368118047"><ele>47.5</ele><time>2026-04-08T14:08:26.999Z</time></trkpt><trkpt lat="45.955909998108446" lon="13.32554403214493"><ele>48.0</ele><time>2026-04-08T14:08:27.999Z</time></trkpt><trkpt lat="45.955880138433756" lon="13.325223901958495"><ele>48.0</ele><time>2026-04-08T14:08:28.999Z</time></trkpt><trkpt lat="45.955848513394464" lon="13.324920847259015"><ele>48.0</ele><time>2026-04-08T14:08:29.999Z</time></trkpt><trkpt lat="45.95579843009903" lon="13.324629145953509"><ele>48.0</ele><time>2026-04-08T14:08:30.999Z</time></trkpt><trkpt lat="45.95571944023083" lon="13.324349458465564"><ele>48.0</ele><time>2026-04-08T14:08:31.999Z</time></trkpt><trkpt lat="45.95561292938618" lon="13.324087323710485"><ele>48.0</ele><time>2026-04-08T14:08:32.999Z</time></trkpt><trkpt lat="45.95548394696195" lon="13.323838600555007"><ele>48.0</ele><time>2026-04-08T14:08:33.999Z</time></trkpt><trkpt lat="45.95535238989527" lon="13.32359605113727"><ele>48.33333333333333</ele><time>2026-04-08T14:08:34.999Z</time></trkpt><trkpt lat="45.95522923243413" lon="13.32336484639477"><ele>48.666666666666664</ele><time>2026-04-08T14:08:35.999Z</time></trkpt><trkpt lat="45.955115371860984" lon="13.323150444566808"><ele>49.0</ele><time>2026-04-08T14:08:36.999Z</time></trkpt><trkpt lat="45.955006684744134" lon="13.322952108228526"><ele>49.33333333333333</ele><time>2026-04-08T14:08:38Z</time></trkpt><trkpt lat="45.954902047755354" lon="13.32276321013764"><ele>49.66666666666667</ele><time>2026-04-08T14:08:39Z</time></trkpt><trkpt lat="45.95481324056293" lon="13.322588304324576"><ele>50.0</ele><time>2026-04-08T14:08:40Z</time></trkpt><trkpt lat="45.95473366352612" lon="13.322425767876046"><ele>50.0</ele><time>2026-04-08T14:08:41Z</time></trkpt><trkpt lat="45.95465257862275" lon="13.322271421053653"><ele>50.0</ele><time>2026-04-08T14:08:42Z</time></trkpt><trkpt lat="45.95457698035105" lon="13.322127755852952"><ele>50.0</ele><time>2026-04-08T14:08:43Z</time></trkpt><trkpt lat="45.954508410456725" lon="13.32199771829091"><ele>50.0</ele><time>2026-04-08T14:08:44Z</time></trkpt><trkpt lat="45.95442369878365" lon="13.321882090189472"><ele>50.0</ele><time>2026-04-08T14:08:45Z</time></trkpt><trkpt lat="45.95431618108288" lon="13.321767337438212"><ele>50.0</ele><time>2026-04-08T14:08:46Z</time></trkpt><trkpt lat="45.95419715620214" lon="13.321637811677066"><ele>50.0</ele><time>2026-04-08T14:08:47Z</time></trkpt><trkpt lat="45.954072497264974" lon="13.321478666007813"><ele>49.0</ele><time>2026-04-08T14:08:48Z</time></trkpt><trkpt lat="45.95393898278456" lon="13.321303622169184"><ele>48.0</ele><time>2026-04-08T14:08:49Z</time></trkpt><trkpt lat="45.953797858875596" lon="13.321143067504845"><ele>47.0</ele><time>2026-04-08T14:08:50Z</time></trkpt><trkpt lat="45.953645366569674" lon="13.321012019303557"><ele>47.0</ele><time>2026-04-08T14:08:51Z</time></trkpt><trkpt lat="45.95349055213076" lon="13.32090498262677"><ele>47.0</ele><time>2026-04-08T14:08:52Z</time></trkpt><trkpt lat="45.95335084100151" lon="13.320793361853434"><ele>47.0</ele><time>2026-04-08T14:08:53Z</time></trkpt><trkpt lat="45.95322941906211" lon="13.32065539851438"><ele>47.0</ele><time>2026-04-08T14:08:54Z</time></trkpt><trkpt lat="45.95314097929775" lon="13.320469422584699"><ele>47.0</ele><time>2026-04-08T14:08:55Z</time></trkpt><trkpt lat="45.95307672113484" lon="13.320245243497817"><ele>47.0</ele><time>2026-04-08T14:08:56Z</time></trkpt><trkpt lat="45.953022070897106" lon="13.31998779290314"><ele>47.0</ele><time>2026-04-08T14:08:57Z</time></trkpt><trkpt lat="45.95295512740088" lon="13.319706827931448"><ele>47.0</ele><time>2026-04-08T14:08:58Z</time></trkpt><trkpt lat="45.952883517250804" lon="13.319410948058419"><ele>47.0</ele><time>2026-04-08T14:08:59Z</time></trkpt><trkpt lat="45.95280767003025" lon="13.319105947320038"><ele>46.5</ele><time>2026-04-08T14:09:00Z</time></trkpt><trkpt lat="45.952727983654306" lon="13.318793585732983"><ele>46.0</ele><time>2026-04-08T14:09:01Z</time></trkpt><trkpt lat="45.9526500390253" lon="13.318477460987049"><ele>46.0</ele><time>2026-04-08T14:09:02Z</time></trkpt><trkpt lat="45.95257434746736" lon="13.318170570517228"><ele>46.0</ele><time>2026-04-08T14:09:03Z</time></trkpt><trkpt lat="45.952501104577486" lon="13.317879312438455"><ele>46.0</ele><time>2026-04-08T14:09:04Z</time></trkpt><trkpt lat="45.95243035187965" lon="13.317602190244134"><ele>46.0</ele><time>2026-04-08T14:09:05Z</time></trkpt><trkpt lat="45.95236418742997" lon="13.31733591823752"><ele>46.0</ele><time>2026-04-08T14:09:06Z</time></trkpt><trkpt lat="45.95230736868421" lon="13.317074875287362"><ele>46.0</ele><time>2026-04-08T14:09:07Z</time></trkpt><trkpt lat="45.95226586395268" lon="13.316808890345296"><ele>46.0</ele><time>2026-04-08T14:09:08Z</time></trkpt><trkpt lat="45.952246064026426" lon="13.31653535907035"><ele>46.0</ele><time>2026-04-08T14:09:09Z</time></trkpt><trkpt lat="45.952247301576385" lon="13.316253519701528"><ele>46.0</ele><time>2026-04-08T14:09:10Z</time></trkpt><trkpt lat="45.95226511864698" lon="13.315970338768997"><ele>45.66666666666667</ele><time>2026-04-08T14:09:11Z</time></trkpt><trkpt lat="45.95229173591791" lon="13.315689377868004"><ele>45.333333333333336</ele><time>2026-04-08T14:09:12Z</time></trkpt><trkpt lat="45.95231790041862" lon="13.315415457580345"><ele>45.0</ele><time>2026-04-08T14:09:12.999Z</time></trkpt><trkpt lat="45.95234099180529" lon="13.315150254214439"><ele>45.666666666666664</ele><time>2026-04-08T14:09:13.999Z</time></trkpt><trkpt lat="45.95235983777346" lon="13.314899464754872"><ele>46.33333333333333</ele><time>2026-04-08T14:09:14.999Z</time></trkpt><trkpt lat="45.95236948168687" lon="13.314660920454891"><ele>47.0</ele><time>2026-04-08T14:09:15.999Z</time></trkpt><trkpt lat="45.95235347173661" lon="13.31443119915011"><ele>47.33333333333333</ele><time>2026-04-08T14:09:16.999Z</time></trkpt><trkpt lat="45.952308052420065" lon="13.314203171773288"><ele>47.666666666666664</ele><time>2026-04-08T14:09:17.999Z</time></trkpt><trkpt lat="45.95223678656562" lon="13.31397735063764"><ele>48.0</ele><time>2026-04-08T14:09:18.999Z</time></trkpt><trkpt lat="45.95214210932982" lon="13.313755070529732"><ele>48.0</ele><time>2026-04-08T14:09:19.999Z</time></trkpt><trkpt lat="45.95202860826917" lon="13.313535596604511"><ele>48.0</ele><time>2026-04-08T14:09:20.999Z</time></trkpt><trkpt lat="45.95190888246419" lon="13.31330440796954"><ele>48.0</ele><time>2026-04-08T14:09:21.999Z</time></trkpt><trkpt lat="45.951788435503445" lon="13.31306279330171"><ele>47.666666666666664</ele><time>2026-04-08T14:09:22.999Z</time></trkpt><trkpt lat="45.95166572130757" lon="13.312814717054184"><ele>47.33333333333333</ele><time>2026-04-08T14:09:23.999Z</time></trkpt><trkpt lat="45.951542632659205" lon="13.312572642338807"><ele>47.0</ele><time>2026-04-08T14:09:24.999Z</time></trkpt><trkpt lat="45.951422621214064" lon="13.312338674736774"><ele>47.0</ele><time>2026-04-08T14:09:25.999Z</time></trkpt><trkpt lat="45.95130581471341" lon="13.312108712802251"><ele>47.0</ele><time>2026-04-08T14:09:26.999Z</time></trkpt><trkpt lat="45.95118968142666" lon="13.311887466431843"><ele>47.0</ele><time>2026-04-08T14:09:27.999Z</time></trkpt><trkpt lat="45.95106827041942" lon="13.31167371618934"><ele>47.0</ele><time>2026-04-08T14:09:28.999Z</time></trkpt><trkpt lat="45.950941036356966" lon="13.311472172875842"><ele>47.0</ele><time>2026-04-08T14:09:29.999Z</time></trkpt><trkpt lat="45.95080870263451" lon="13.311280147381636"><ele>47.0</ele><time>2026-04-08T14:09:30.999Z</time></trkpt><trkpt lat="45.95067828285777" lon="13.3110952198305"><ele>46.666666666666664</ele><time>2026-04-08T14:09:31.999Z</time></trkpt><trkpt lat="45.9505527368981" lon="13.310909971396649"><ele>46.333333333333336</ele><time>2026-04-08T14:09:32.999Z</time></trkpt><trkpt lat="45.95043326149954" lon="13.310731003540372"><ele>46.0</ele><time>2026-04-08T14:09:33.999Z</time></trkpt><trkpt lat="45.95032611513858" lon="13.310565949487119"><ele>46.0</ele><time>2026-04-08T14:09:34.999Z</time></trkpt><trkpt lat="45.950231904334544" lon="13.310420369206597"><ele>46.0</ele><time>2026-04-08T14:09:35.999Z</time></trkpt><trkpt lat="45.95014453732566" lon="13.310277836214812"><ele>46.0</ele><time>2026-04-08T14:09:36.999Z</time></trkpt><trkpt lat="45.95006413416051" lon="13.310124857965018"><ele>46.0</ele><time>2026-04-08T14:09:37.999Z</time></trkpt><trkpt lat="45.949992654810856" lon="13.309975693500544"><ele>46.0</ele><time>2026-04-08T14:09:38.999Z</time></trkpt><trkpt lat="45.94992287110447" lon="13.309826821965245"><ele>46.0</ele><time>2026-04-08T14:09:39.999Z</time></trkpt><trkpt lat="45.949865022378155" lon="13.309687089084132"><ele>46.0</ele><time>2026-04-08T14:09:40.999Z</time></trkpt><trkpt lat="45.94981584254762" lon="13.309561902961706"><ele>46.0</ele><time>2026-04-08T14:09:41.999Z</time></trkpt><trkpt lat="45.94977887850941" lon="13.309461878460164"><ele>46.0</ele><time>2026-04-08T14:09:42.999Z</time></trkpt><trkpt lat="45.94979107029051" lon="13.309307268728595"><ele>46.0</ele><time>2026-04-08T14:09:44.999Z</time></trkpt><trkpt lat="45.94986953387198" lon="13.309261778006636"><ele>46.0</ele><time>2026-04-08T14:09:45.999Z</time></trkpt><trkpt lat="45.94999810015627" lon="13.309232025962546"><ele>46.0</ele><time>2026-04-08T14:09:46.999Z</time></trkpt><trkpt lat="45.95015028941004" lon="13.309173646582389"><ele>46.0</ele><time>2026-04-08T14:09:47.999Z</time></trkpt><trkpt lat="45.95033122137393" lon="13.309095357245521"><ele>45.5</ele><time>2026-04-08T14:09:48.999Z</time></trkpt><trkpt lat="45.95053984242796" lon="13.309013106361762"><ele>45.0</ele><time>2026-04-08T14:09:49.999Z</time></trkpt><trkpt lat="45.950772522349425" lon="13.308921945505558"><ele>45.5</ele><time>2026-04-08T14:09:50.999Z</time></trkpt><trkpt lat="45.95102204591541" lon="13.308821601377087"><ele>46.0</ele><time>2026-04-08T14:09:51.999Z</time></trkpt><trkpt lat="45.951290557956405" lon="13.308715453636056"><ele>46.0</ele><time>2026-04-08T14:09:52.999Z</time></trkpt><trkpt lat="45.95157207314612" lon="13.308602304433023"><ele>46.0</ele><time>2026-04-08T14:09:53.999Z</time></trkpt><trkpt lat="45.95186266954524" lon="13.308482291033206"><ele>46.0</ele><time>2026-04-08T14:09:54.999Z</time></trkpt><trkpt lat="45.952157376733425" lon="13.308362672679099"><ele>46.0</ele><time>2026-04-08T14:09:55.999Z</time></trkpt><trkpt lat="45.952458294734896" lon="13.308238937686882"><ele>45.5</ele><time>2026-04-08T14:09:56.999Z</time></trkpt><trkpt lat="45.95276277381306" lon="13.308111553847448"><ele>45.0</ele><time>2026-04-08T14:09:57.999Z</time></trkpt><trkpt lat="45.95307137210013" lon="13.307984710160826"><ele>45.0</ele><time>2026-04-08T14:09:58.999Z</time></trkpt><trkpt lat="45.95337974828713" lon="13.307861685480356"><ele>45.0</ele><time>2026-04-08T14:09:59.999Z</time></trkpt><trkpt lat="45.95368596159867" lon="13.307740906913967"><ele>45.0</ele><time>2026-04-08T14:10:00.999Z</time></trkpt><trkpt lat="45.953982631853414" lon="13.307621953265265"><ele>45.0</ele><time>2026-04-08T14:10:01.999Z</time></trkpt><trkpt lat="45.954272405971025" lon="13.307493820553313"><ele>45.5</ele><time>2026-04-08T14:10:02.999Z</time></trkpt><trkpt lat="45.95455273676446" lon="13.307352919779655"><ele>46.0</ele><time>2026-04-08T14:10:03.999Z</time></trkpt><trkpt lat="45.95482411954147" lon="13.307205532387618"><ele>46.0</ele><time>2026-04-08T14:10:04.999Z</time></trkpt><trkpt lat="45.95508772075469" lon="13.307057558445411"><ele>46.0</ele><time>2026-04-08T14:10:05.999Z</time></trkpt><trkpt lat="45.955343415956456" lon="13.306910053639005"><ele>46.0</ele><time>2026-04-08T14:10:06.999Z</time></trkpt><trkpt lat="45.95559614751966" lon="13.306765601484646"><ele>46.0</ele><time>2026-04-08T14:10:07.999Z</time></trkpt><trkpt lat="45.95584259904274" lon="13.306629944119383"><ele>46.5</ele><time>2026-04-08T14:10:08.999Z</time></trkpt><trkpt lat="45.95607955901355" lon="13.30650019034663"><ele>47.0</ele><time>2026-04-08T14:10:09.999Z</time></trkpt><trkpt lat="45.95630960182035" lon="13.306369260229813"><ele>47.5</ele><time>2026-04-08T14:10:10.999Z</time></trkpt><trkpt lat="45.95653046159801" lon="13.306245168290381"><ele>48.0</ele><time>2026-04-08T14:10:11.999Z</time></trkpt><trkpt lat="45.95674688862256" lon="13.30612729310134"><ele>48.0</ele><time>2026-04-08T14:10:12.999Z</time></trkpt><trkpt lat="45.95695474730103" lon="13.306015590154633"><ele>48.0</ele><time>2026-04-08T14:10:13.999Z</time></trkpt><trkpt lat="45.9571466322682" lon="13.30589251361957"><ele>48.0</ele><time>2026-04-08T14:10:14.999Z</time></trkpt><trkpt lat="45.95731905788086" lon="13.305735947232233"><ele>47.666666666666664</ele><time>2026-04-08T14:10:15.999Z</time></trkpt><trkpt lat="45.9574729041136" lon="13.305544536066597"><ele>47.33333333333333</ele><time>2026-04-08T14:10:16.999Z</time></trkpt><trkpt lat="45.957607509634556" lon="13.30531650419866"><ele>47.0</ele><time>2026-04-08T14:10:17.999Z</time></trkpt><trkpt lat="45.95775695524372" lon="13.305104708881998"><ele>47.0</ele><time>2026-04-08T14:10:18.999Z</time></trkpt><trkpt lat="45.95795584445629" lon="13.30493072522814"><ele>47.0</ele><time>2026-04-08T14:10:19.999Z</time></trkpt><trkpt lat="45.95820037987867" lon="13.30478041079361"><ele>47.0</ele><time>2026-04-08T14:10:20.999Z</time></trkpt><trkpt lat="45.95848614211216" lon="13.304618255811814"><ele>47.0</ele><time>2026-04-08T14:10:21.999Z</time></trkpt><trkpt lat="45.958797626956645" lon="13.30443648749076"><ele>47.0</ele><time>2026-04-08T14:10:22.999Z</time></trkpt><trkpt lat="45.9591196761168" lon="13.304243491908194"><ele>47.0</ele><time>2026-04-08T14:10:23.999Z</time></trkpt><trkpt lat="45.95943031420417" lon="13.30405012699898"><ele>48.0</ele><time>2026-04-08T14:10:24.999Z</time></trkpt><trkpt lat="45.959730437355994" lon="13.303860241810659"><ele>49.0</ele><time>2026-04-08T14:10:25.999Z</time></trkpt><trkpt lat="45.960023183905236" lon="13.303674535116668"><ele>49.5</ele><time>2026-04-08T14:10:26.999Z</time></trkpt><trkpt lat="45.960305335625655" lon="13.303497612450743"><ele>50.0</ele><time>2026-04-08T14:10:27.999Z</time></trkpt><trkpt lat="45.96057071738257" lon="13.303328791932456"><ele>50.0</ele><time>2026-04-08T14:10:28.999Z</time></trkpt><trkpt lat="45.96082158652812" lon="13.303156823161851"><ele>50.0</ele><time>2026-04-08T14:10:29.999Z</time></trkpt><trkpt lat="45.96106049681473" lon="13.30297606402658"><ele>50.0</ele><time>2026-04-08T14:10:30.999Z</time></trkpt><trkpt lat="45.961289168747285" lon="13.302791041994501"><ele>50.0</ele><time>2026-04-08T14:10:31.999Z</time></trkpt><trkpt lat="45.961506924623805" lon="13.302612703070468"><ele>51.5</ele><time>2026-04-08T14:10:32.999Z</time></trkpt><trkpt lat="45.961715668332644" lon="13.302446343449619"><ele>53.0</ele><time>2026-04-08T14:10:33.999Z</time></trkpt><trkpt lat="45.96191252099717" lon="13.302294409938186"><ele>52.0</ele><time>2026-04-08T14:10:34.999Z</time></trkpt><trkpt lat="45.96210091640174" lon="13.302151794123139"><ele>51.0</ele><time>2026-04-08T14:10:35.999Z</time></trkpt><trkpt lat="45.96228163136911" lon="13.302008453951979"><ele>50.0</ele><time>2026-04-08T14:10:36.999Z</time></trkpt><trkpt lat="45.96245226616676" lon="13.301863951415848"><ele>50.0</ele><time>2026-04-08T14:10:37.999Z</time></trkpt><trkpt lat="45.96261181209698" lon="13.301704562160774"><ele>50.0</ele><time>2026-04-08T14:10:38.999Z</time></trkpt><trkpt lat="45.96275890738124" lon="13.30152284084313"><ele>50.0</ele><time>2026-04-08T14:10:39.999Z</time></trkpt><trkpt lat="45.96289896348882" lon="13.301328561759254"><ele>50.0</ele><time>2026-04-08T14:10:40.999Z</time></trkpt><trkpt lat="45.96303789383854" lon="13.301128909742854"><ele>50.0</ele><time>2026-04-08T14:10:41.999Z</time></trkpt><trkpt lat="45.96317607211427" lon="13.300931287498688"><ele>50.0</ele><time>2026-04-08T14:10:42.999Z</time></trkpt><trkpt lat="45.96331466747121" lon="13.300735836530729"><ele>50.333333333333336</ele><time>2026-04-08T14:10:44Z</time></trkpt><trkpt lat="45.96345242819655" lon="13.30054359760159"><ele>50.66666666666667</ele><time>2026-04-08T14:10:45Z</time></trkpt><trkpt lat="45.963586360685206" lon="13.300362553813622"><ele>51.0</ele><time>2026-04-08T14:10:46Z</time></trkpt><trkpt lat="45.96371598413276" lon="13.300197650797182"><ele>51.0</ele><time>2026-04-08T14:10:47Z</time></trkpt><trkpt lat="45.96384246717058" lon="13.300054395973303"><ele>51.0</ele><time>2026-04-08T14:10:48Z</time></trkpt><trkpt lat="45.96396220646762" lon="13.299932817884661"><ele>51.0</ele><time>2026-04-08T14:10:49Z</time></trkpt><trkpt lat="45.96406575217041" lon="13.299829678684171"><ele>51.0</ele><time>2026-04-08T14:10:50Z</time></trkpt><trkpt lat="45.964131553624796" lon="13.299762420025482"><ele>51.75</ele><time>2026-04-08T14:10:51Z</time></trkpt><trkpt lat="45.96420162792696" lon="13.299691751575299"><ele>52.5</ele><time>2026-04-08T14:10:52Z</time></trkpt><trkpt lat="45.96429101725176" lon="13.299609575427496"><ele>53.25</ele><time>2026-04-08T14:10:53Z</time></trkpt><trkpt lat="45.964405132991104" lon="13.299521436060962"><ele>54.0</ele><time>2026-04-08T14:10:54Z</time></trkpt><trkpt lat="45.96454746266864" lon="13.299455593025773"><ele>54.0</ele><time>2026-04-08T14:10:55Z</time></trkpt><trkpt lat="45.96471318751024" lon="13.299425548299842"><ele>54.0</ele><time>2026-04-08T14:10:56Z</time></trkpt><trkpt lat="45.96489743685262" lon="13.299451521979742"><ele>54.0</ele><time>2026-04-08T14:10:57Z</time></trkpt><trkpt lat="45.96507966739826" lon="13.299481840413108"><ele>53.5</ele><time>2026-04-08T14:10:58Z</time></trkpt><trkpt lat="45.96520076058051" lon="13.299495533277765"><ele>53.0</ele><time>2026-04-08T14:10:59Z</time></trkpt><trkpt lat="45.96532803932609" lon="13.299508208769986"><ele>52.5</ele><time>2026-04-08T14:11:00Z</time></trkpt><trkpt lat="45.96545318519098" lon="13.299503025958439"><ele>52.0</ele><time>2026-04-08T14:11:01Z</time></trkpt><trkpt lat="45.965564440930706" lon="13.299464986873012"><ele>52.0</ele><time>2026-04-08T14:11:02Z</time></trkpt><trkpt lat="45.96566685385349" lon="13.2993888948537"><ele>52.0</ele><time>2026-04-08T14:11:03Z</time></trkpt><trkpt lat="45.965743480672025" lon="13.299282654511089"><ele>52.0</ele><time>2026-04-08T14:11:04Z</time></trkpt><trkpt lat="45.96579245290598" lon="13.299154257713495"><ele>52.0</ele><time>2026-04-08T14:11:05Z</time></trkpt><trkpt lat="45.96582514072852" lon="13.299012558171663"><ele>52.0</ele><time>2026-04-08T14:11:06Z</time></trkpt><trkpt lat="45.9658425697826" lon="13.298877748560026"><ele>52.25</ele><time>2026-04-08T14:11:07Z</time></trkpt><trkpt lat="45.96584438750093" lon="13.298735719981304"><ele>52.5</ele><time>2026-04-08T14:11:08Z</time></trkpt><trkpt lat="45.96580189906792" lon="13.298592078873817"><ele>52.75</ele><time>2026-04-08T14:11:09Z</time></trkpt><trkpt lat="45.96573571765003" lon="13.298434779205255"><ele>53.0</ele><time>2026-04-08T14:11:10Z</time></trkpt><trkpt lat="45.965668662800645" lon="13.298254364628866"><ele>52.75</ele><time>2026-04-08T14:11:11Z</time></trkpt><trkpt lat="45.96559563142265" lon="13.29807897098913"><ele>52.5</ele><time>2026-04-08T14:11:12Z</time></trkpt><trkpt lat="45.965523532509444" lon="13.297908790921753"><ele>52.25</ele><time>2026-04-08T14:11:13Z</time></trkpt><trkpt lat="45.965451781969925" lon="13.297742528382713"><ele>52.0</ele><time>2026-04-08T14:11:14Z</time></trkpt><trkpt lat="45.96539986202292" lon="13.297561522274451"><ele>52.0</ele><time>2026-04-08T14:11:15Z</time></trkpt><trkpt lat="45.96538175432463" lon="13.297364854463575"><ele>52.0</ele><time>2026-04-08T14:11:16Z</time></trkpt><trkpt lat="45.965370464400856" lon="13.297165858979353"><ele>52.0</ele><time>2026-04-08T14:11:17Z</time></trkpt><trkpt lat="45.965361943865524" lon="13.296984261981134"><ele>52.0</ele><time>2026-04-08T14:11:17.999Z</time></trkpt><trkpt lat="45.96535289634273" lon="13.296825695114478"><ele>52.0</ele><time>2026-04-08T14:11:18.999Z</time></trkpt><trkpt lat="45.96534414196776" lon="13.296690542321382"><ele>52.0</ele><time>2026-04-08T14:11:19.999Z</time></trkpt><trkpt lat="45.965335637961694" lon="13.29658387392654"><ele>52.0</ele><time>2026-04-08T14:11:20.999Z</time></trkpt><trkpt lat="45.965331560298985" lon="13.296490254317199"><ele>52.0</ele><time>2026-04-08T14:11:21.999Z</time></trkpt><trkpt lat="45.9653373968181" lon="13.296328134043172"><ele>52.0</ele><time>2026-04-08T14:11:23.999Z</time></trkpt><trkpt lat="45.96533916827503" lon="13.296154473862149"><ele>52.166666666666664</ele><time>2026-04-08T14:11:25.999Z</time></trkpt><trkpt lat="45.965316252929654" lon="13.296050650518506"><ele>52.33333333333333</ele><time>2026-04-08T14:11:26.999Z</time></trkpt><trkpt lat="45.965290521663476" lon="13.29594258180514"><ele>52.5</ele><time>2026-04-08T14:11:27.999Z</time></trkpt><trkpt lat="45.965266677478084" lon="13.295828799099597"><ele>52.66666666666667</ele><time>2026-04-08T14:11:28.999Z</time></trkpt><trkpt lat="45.96524520372071" lon="13.295707708484779"><ele>52.833333333333336</ele><time>2026-04-08T14:11:29.999Z</time></trkpt><trkpt lat="45.965230969783214" lon="13.295588925942347"><ele>53.0</ele><time>2026-04-08T14:11:30.999Z</time></trkpt><trkpt lat="45.96521916711469" lon="13.295484119405163"><ele>53.0</ele><time>2026-04-08T14:11:31.999Z</time></trkpt><trkpt lat="45.96520781863416" lon="13.295388686841687"><ele>53.0</ele><time>2026-04-08T14:11:32.999Z</time></trkpt><trkpt lat="45.965200681407936" lon="13.295296448913625"><ele>53.0</ele><time>2026-04-08T14:11:33.999Z</time></trkpt><trkpt lat="45.965199640749155" lon="13.295205036455416"><ele>53.0</ele><time>2026-04-08T14:11:34.999Z</time></trkpt><trkpt lat="45.9652092406352" lon="13.295108227537455"><ele>53.0</ele><time>2026-04-08T14:11:35.999Z</time></trkpt><trkpt lat="45.96523010387501" lon="13.29501130743456"><ele>53.0</ele><time>2026-04-08T14:11:36.999Z</time></trkpt><trkpt lat="45.96526009444555" lon="13.294922704827675"><ele>53.0</ele><time>2026-04-08T14:11:37.999Z</time></trkpt><trkpt lat="45.96533259651205" lon="13.294786615439577"><ele>52.599999999999994</ele><time>2026-04-08T14:11:39.999Z</time></trkpt><trkpt lat="45.96541456054855" lon="13.294694824535439"><ele>52.199999999999996</ele><time>2026-04-08T14:11:41.999Z</time></trkpt><trkpt lat="45.96552761425388" lon="13.294598669645444"><ele>51.8</ele><time>2026-04-08T14:11:43.999Z</time></trkpt><trkpt lat="45.965584932247644" lon="13.294512624184131"><ele>51.4</ele><time>2026-04-08T14:11:44.999Z</time></trkpt><trkpt lat="45.96567371022354" lon="13.294448040538494"><ele>51.0</ele><time>2026-04-08T14:11:45.999Z</time></trkpt><trkpt lat="45.965762372499476" lon="13.294327926649784"><ele>51.0</ele><time>2026-04-08T14:11:46.999Z</time></trkpt><trkpt lat="45.96587986560096" lon="13.294209459794947"><ele>51.0</ele><time>2026-04-08T14:11:47.999Z</time></trkpt><trkpt lat="45.96601835792991" lon="13.294092698925773"><ele>51.0</ele><time>2026-04-08T14:11:48.999Z</time></trkpt><trkpt lat="45.96616158880611" lon="13.293945103537283"><ele>51.33333333333333</ele><time>2026-04-08T14:11:49.999Z</time></trkpt><trkpt lat="45.966314773054485" lon="13.293787256835431"><ele>51.666666666666664</ele><time>2026-04-08T14:11:50.999Z</time></trkpt><trkpt lat="45.96647660237522" lon="13.293620393156766"><ele>52.0</ele><time>2026-04-08T14:11:51.999Z</time></trkpt><trkpt lat="45.96663339176556" lon="13.293458346299115"><ele>52.33333333333333</ele><time>2026-04-08T14:11:52.999Z</time></trkpt><trkpt lat="45.96678687843044" lon="13.293299148403921"><ele>52.66666666666667</ele><time>2026-04-08T14:11:53.999Z</time></trkpt><trkpt lat="45.96694267555279" lon="13.293139487798014"><ele>53.0</ele><time>2026-04-08T14:11:54.999Z</time></trkpt><trkpt lat="45.96710466257744" lon="13.292973483793265"><ele>53.0</ele><time>2026-04-08T14:11:55.999Z</time></trkpt><trkpt lat="45.9672616443324" lon="13.292815159011925"><ele>53.0</ele><time>2026-04-08T14:11:56.999Z</time></trkpt><trkpt lat="45.96740597382635" lon="13.29266997997058"><ele>53.0</ele><time>2026-04-08T14:11:57.999Z</time></trkpt><trkpt lat="45.96753264825905" lon="13.292542559905911"><ele>52.75</ele><time>2026-04-08T14:11:58.999Z</time></trkpt><trkpt lat="45.96764023523039" lon="13.29243747273978"><ele>52.5</ele><time>2026-04-08T14:11:59.999Z</time></trkpt><trkpt lat="45.96773472779201" lon="13.29234781046947"><ele>52.25</ele><time>2026-04-08T14:12:00.999Z</time></trkpt><trkpt lat="45.96781724747745" lon="13.292269509042347"><ele>52.0</ele><time>2026-04-08T14:12:01.999Z</time></trkpt><trkpt lat="45.967909687591906" lon="13.292181794301726"><ele>52.0</ele><time>2026-04-08T14:12:02.999Z</time></trkpt><trkpt lat="45.96802038986725" lon="13.29207675092713"><ele>52.0</ele><time>2026-04-08T14:12:03.999Z</time></trkpt><trkpt lat="45.96814784468299" lon="13.291955811374052"><ele>52.0</ele><time>2026-04-08T14:12:04.999Z</time></trkpt><trkpt lat="45.96829763505804" lon="13.291814456089455"><ele>52.0</ele><time>2026-04-08T14:12:05.999Z</time></trkpt><trkpt lat="45.96846009015575" lon="13.291662591243831"><ele>52.0</ele><time>2026-04-08T14:12:06.999Z</time></trkpt><trkpt lat="45.96862079734856" lon="13.291486303365884"><ele>52.0</ele><time>2026-04-08T14:12:07.999Z</time></trkpt><trkpt lat="45.96879658337103" lon="13.291343039999145"><ele>52.0</ele><time>2026-04-08T14:12:08.999Z</time></trkpt><trkpt lat="45.968988370411104" lon="13.291162043807804"><ele>52.0</ele><time>2026-04-08T14:12:09.999Z</time></trkpt><trkpt lat="45.96917656786211" lon="13.290980358533519"><ele>52.33333333333333</ele><time>2026-04-08T14:12:10.999Z</time></trkpt><trkpt lat="45.96935893887239" lon="13.290802894393153"><ele>52.66666666666667</ele><time>2026-04-08T14:12:11.999Z</time></trkpt><trkpt lat="45.969544322420674" lon="13.290620543097052"><ele>53.0</ele><time>2026-04-08T14:12:12.999Z</time></trkpt><trkpt lat="45.969727714707915" lon="13.29043160044142"><ele>53.0</ele><time>2026-04-08T14:12:13.999Z</time></trkpt><trkpt lat="45.96990991734104" lon="13.29023594165151"><ele>53.0</ele><time>2026-04-08T14:12:14.999Z</time></trkpt><trkpt lat="45.97009080486877" lon="13.290043238792608"><ele>53.333333333333336</ele><time>2026-04-08T14:12:15.999Z</time></trkpt><trkpt lat="45.970269141225884" lon="13.289856130420171"><ele>53.66666666666667</ele><time>2026-04-08T14:12:16.999Z</time></trkpt><trkpt lat="45.97044386217693" lon="13.289665307960323"><ele>54.0</ele><time>2026-04-08T14:12:17.999Z</time></trkpt><trkpt lat="45.97061614317432" lon="13.289476522785618"><ele>54.0</ele><time>2026-04-08T14:12:18.999Z</time></trkpt><trkpt lat="45.9707887916514" lon="13.289293186023452"><ele>54.0</ele><time>2026-04-08T14:12:19.999Z</time></trkpt><trkpt lat="45.97096103797661" lon="13.289126172721458"><ele>54.0</ele><time>2026-04-08T14:12:20.999Z</time></trkpt><trkpt lat="45.97113918577507" lon="13.288979909262068"><ele>54.0</ele><time>2026-04-08T14:12:21.999Z</time></trkpt><trkpt lat="45.97132382387915" lon="13.288846008899183"><ele>54.0</ele><time>2026-04-08T14:12:22.999Z</time></trkpt><trkpt lat="45.97151261514493" lon="13.288730536583078"><ele>54.0</ele><time>2026-04-08T14:12:23.999Z</time></trkpt><trkpt lat="45.97169966896407" lon="13.288618880385817"><ele>54.33333333333333</ele><time>2026-04-08T14:12:24.999Z</time></trkpt><trkpt lat="45.971873478501415" lon="13.288511696074238"><ele>54.666666666666664</ele><time>2026-04-08T14:12:25.999Z</time></trkpt><trkpt lat="45.9720318715707" lon="13.288413009035022"><ele>55.0</ele><time>2026-04-08T14:12:26.999Z</time></trkpt><trkpt lat="45.9721771979547" lon="13.288318182614637"><ele>55.0</ele><time>2026-04-08T14:12:27.999Z</time></trkpt><trkpt lat="45.9723148430214" lon="13.288212815016893"><ele>55.0</ele><time>2026-04-08T14:12:28.999Z</time></trkpt><trkpt lat="45.97244291088151" lon="13.288087880617928"><ele>55.0</ele><time>2026-04-08T14:12:29.999Z</time></trkpt><trkpt lat="45.9725670042483" lon="13.287962466394609"><ele>55.5</ele><time>2026-04-08T14:12:30.999Z</time></trkpt><trkpt lat="45.97265047225424" lon="13.287810846475637"><ele>56.0</ele><time>2026-04-08T14:12:31.999Z</time></trkpt><trkpt lat="45.972750958914816" lon="13.287669450740227"><ele>56.5</ele><time>2026-04-08T14:12:32.999Z</time></trkpt><trkpt lat="45.97285696900938" lon="13.287504445538923"><ele>57.0</ele><time>2026-04-08T14:12:33.999Z</time></trkpt><trkpt lat="45.97298153697772" lon="13.287327103706117"><ele>56.66666666666667</ele><time>2026-04-08T14:12:34.999Z</time></trkpt><trkpt lat="45.973126595234504" lon="13.287141962384553"><ele>56.333333333333336</ele><time>2026-04-08T14:12:35.999Z</time></trkpt><trkpt lat="45.97330962629584" lon="13.286988736517783"><ele>56.0</ele><time>2026-04-08T14:12:36.999Z</time></trkpt><trkpt lat="45.97347762783642" lon="13.286764253015088"><ele>56.0</ele><time>2026-04-08T14:12:37.999Z</time></trkpt><trkpt lat="45.97367186072375" lon="13.286507045611584"><ele>56.0</ele><time>2026-04-08T14:12:38.999Z</time></trkpt><trkpt lat="45.97386747093876" lon="13.286238752712059"><ele>56.0</ele><time>2026-04-08T14:12:39.999Z</time></trkpt><trkpt lat="45.97403568255643" lon="13.286016964276364"><ele>56.0</ele><time>2026-04-08T14:12:40.999Z</time></trkpt><trkpt lat="45.97418451142275" lon="13.285824200797025"><ele>56.0</ele><time>2026-04-08T14:12:41.999Z</time></trkpt><trkpt lat="45.974313148821736" lon="13.28565562270781"><ele>56.0</ele><time>2026-04-08T14:12:42.999Z</time></trkpt><trkpt lat="45.97442641456369" lon="13.285507553851085"><ele>56.0</ele><time>2026-04-08T14:12:43.999Z</time></trkpt><trkpt lat="45.974529843719225" lon="13.285374439558746"><ele>56.0</ele><time>2026-04-08T14:12:44.999Z</time></trkpt><trkpt lat="45.97462093725356" lon="13.285255050371882"><ele>56.0</ele><time>2026-04-08T14:12:45.999Z</time></trkpt><trkpt lat="45.97470471934932" lon="13.285149871705052"><ele>56.0</ele><time>2026-04-08T14:12:46.999Z</time></trkpt><trkpt lat="45.97477800431094" lon="13.285057159063136"><ele>56.0</ele><time>2026-04-08T14:12:47.999Z</time></trkpt><trkpt lat="45.97482985452471" lon="13.284996600348942"><ele>56.0</ele><time>2026-04-08T14:12:48.999Z</time></trkpt><trkpt lat="45.974898812327744" lon="13.28496746030157"><ele>56.0</ele><time>2026-04-08T14:12:51Z</time></trkpt><trkpt lat="45.97496506440786" lon="13.284994212744792"><ele>56.0</ele><time>2026-04-08T14:12:53Z</time></trkpt><trkpt lat="45.97498092527446" lon="13.284894971280577"><ele>56.0</ele><time>2026-04-08T14:12:55Z</time></trkpt><trkpt lat="45.97503917338173" lon="13.284930721962132"><ele>56.0</ele><time>2026-04-08T14:12:56Z</time></trkpt><trkpt lat="45.975108155708156" lon="13.284923016328877"><ele>56.14285714285714</ele><time>2026-04-08T14:15:45.999Z</time></trkpt><trkpt lat="45.97504414436095" lon="13.284906826165942"><ele>56.285714285714285</ele><time>2026-04-08T14:18:37.999Z</time></trkpt><trkpt lat="45.97513252043125" lon="13.284923918418365"><ele>56.42857142857143</ele><time>2026-04-08T14:25:03Z</time></trkpt><trkpt lat="45.975070646405364" lon="13.284883651012342"><ele>56.57142857142857</ele><time>2026-04-08T14:27:55Z</time></trkpt><trkpt lat="45.97513974839116" lon="13.284915174060865"><ele>56.71428571428571</ele><time>2026-04-08T14:29:12Z</time></trkpt><trkpt lat="45.97521188647081" lon="13.284898265900589"><ele>56.857142857142854</ele><time>2026-04-08T14:29:14Z</time></trkpt><trkpt lat="45.97526424842595" lon="13.2848308659356"><ele>57.0</ele><time>2026-04-08T14:29:16Z</time></trkpt><trkpt lat="45.97526004849028" lon="13.284730198414216"><ele>57.0</ele><time>2026-04-08T14:29:19Z</time></trkpt><trkpt lat="45.97530784929476" lon="13.284610733568416"><ele>57.0</ele><time>2026-04-08T14:30:56Z</time></trkpt><trkpt lat="45.9754192009026" lon="13.28455038494244"><ele>57.0</ele><time>2026-04-08T14:30:58Z</time></trkpt><trkpt lat="45.975504381636554" lon="13.284510667367078"><ele>57.0</ele><time>2026-04-08T14:30:59Z</time></trkpt><trkpt lat="45.97562152689443" lon="13.28446486658415"><ele>57.0</ele><time>2026-04-08T14:31:00Z</time></trkpt><trkpt lat="45.975762741644644" lon="13.284407389043126"><ele>57.0</ele><time>2026-04-08T14:31:01Z</time></trkpt><trkpt lat="45.97592364218165" lon="13.284332644147163"><ele>57.0</ele><time>2026-04-08T14:31:02Z</time></trkpt><trkpt lat="45.97609421808258" lon="13.284251033842235"><ele>57.0</ele><time>2026-04-08T14:31:03Z</time></trkpt><trkpt lat="45.97626856280107" lon="13.28417413447871"><ele>57.0</ele><time>2026-04-08T14:31:04Z</time></trkpt><trkpt lat="45.97641778399431" lon="13.284113301176019"><ele>57.0</ele><time>2026-04-08T14:31:05Z</time></trkpt><trkpt lat="45.97654365619654" lon="13.28406029122221"><ele>57.0</ele><time>2026-04-08T14:31:06Z</time></trkpt><trkpt lat="45.97665820676995" lon="13.284003733459953"><ele>57.0</ele><time>2026-04-08T14:31:07Z</time></trkpt><trkpt lat="45.97675492670412" lon="13.283949094042699"><ele>57.400000000000006</ele><time>2026-04-08T14:31:08Z</time></trkpt><trkpt lat="45.97684803364665" lon="13.283891004097455"><ele>57.800000000000004</ele><time>2026-04-08T14:31:09Z</time></trkpt><trkpt lat="45.9769466963537" lon="13.283837820522864"><ele>58.2</ele><time>2026-04-08T14:31:10Z</time></trkpt><trkpt lat="45.977032660371805" lon="13.283793549987438"><ele>58.6</ele><time>2026-04-08T14:31:11Z</time></trkpt><trkpt lat="45.97712082014378" lon="13.28374886390403"><ele>59.0</ele><time>2026-04-08T14:31:12Z</time></trkpt><trkpt lat="45.97720627180583" lon="13.283705917150387"><ele>59.00000000000001</ele><time>2026-04-08T14:31:13Z</time></trkpt><trkpt lat="45.977291462913755" lon="13.283663523522645"><ele>59.0</ele><time>2026-04-08T14:31:14Z</time></trkpt><trkpt lat="45.977368590137964" lon="13.283624078749034"><ele>59.0</ele><time>2026-04-08T14:31:15Z</time></trkpt><trkpt lat="45.977435216065864" lon="13.283584333814561"><ele>59.0</ele><time>2026-04-08T14:31:16Z</time></trkpt><trkpt lat="45.977477513117286" lon="13.283509756012766"><ele>59.00000000000001</ele><time>2026-04-08T14:31:17Z</time></trkpt><trkpt lat="45.977482115371146" lon="13.283380168022273"><ele>59.0</ele><time>2026-04-08T14:31:18Z</time></trkpt><trkpt lat="45.9774679966705" lon="13.283251477370408"><ele>59.0</ele><time>2026-04-08T14:31:19Z</time></trkpt><trkpt lat="45.97746527192872" lon="13.283119958661166"><ele>59.00000000000001</ele><time>2026-04-08T14:31:20Z</time></trkpt><trkpt lat="45.97746130585265" lon="13.282973470418792"><ele>59.00000000000001</ele><time>2026-04-08T14:31:21Z</time></trkpt><trkpt lat="45.97746103538619" lon="13.28282244470108"><ele>59.0</ele><time>2026-04-08T14:31:22Z</time></trkpt><trkpt lat="45.977466937269504" lon="13.28266634638016"><ele>59.0</ele><time>2026-04-08T14:31:23Z</time></trkpt><trkpt lat="45.97747369004556" lon="13.282509127907879"><ele>59.0</ele><time>2026-04-08T14:31:23.999Z</time></trkpt><trkpt lat="45.97748661956245" lon="13.282362575349657"><ele>59.00000000000001</ele><time>2026-04-08T14:31:24.999Z</time></trkpt><trkpt lat="45.977504808966245" lon="13.282232034927329"><ele>59.00000000000001</ele><time>2026-04-08T14:31:25.999Z</time></trkpt><trkpt lat="45.9775404196711" lon="13.282107693007102"><ele>59.0</ele><time>2026-04-08T14:31:26.999Z</time></trkpt><trkpt lat="45.977599169094226" lon="13.281988904142194"><ele>59.0</ele><time>2026-04-08T14:31:27.999Z</time></trkpt><trkpt lat="45.977663414189486" lon="13.281887479146254"><ele>58.833333333333336</ele><time>2026-04-08T14:31:28.999Z</time></trkpt><trkpt lat="45.977732071531605" lon="13.281805809297209"><ele>58.66666666666667</ele><time>2026-04-08T14:31:29.999Z</time></trkpt><trkpt lat="45.97779836770458" lon="13.281728441183926"><ele>58.5</ele><time>2026-04-08T14:31:30.999Z</time></trkpt><trkpt lat="45.97786160016563" lon="13.281649848905188"><ele>58.33333333333333</ele><time>2026-04-08T14:31:31.999Z</time></trkpt><trkpt lat="45.97792878040326" lon="13.281568996802806"><ele>58.166666666666664</ele><time>2026-04-08T14:31:32.999Z</time></trkpt><trkpt lat="45.97798638669556" lon="13.281497227376693"><ele>58.0</ele><time>2026-04-08T14:31:33.999Z</time></trkpt><trkpt lat="45.978073371947545" lon="13.281410318581479"><ele>57.99999999999999</ele><time>2026-04-08T14:31:35.999Z</time></trkpt><trkpt lat="45.97813830699653" lon="13.28138467849246"><ele>58.0</ele><time>2026-04-08T14:31:36.999Z</time></trkpt><trkpt lat="45.97821646061863" lon="13.28137326882207"><ele>58.0</ele><time>2026-04-08T14:31:37.999Z</time></trkpt><trkpt lat="45.97829798978042" lon="13.281344367875038"><ele>58.0</ele><time>2026-04-08T14:31:38.999Z</time></trkpt><trkpt lat="45.97838462899377" lon="13.281315137049571"><ele>57.99999999999999</ele><time>2026-04-08T14:31:39.999Z</time></trkpt><trkpt lat="45.97848329038389" lon="13.281273096429457"><ele>58.0</ele><time>2026-04-08T14:31:41Z</time></trkpt><trkpt lat="45.978598616394024" lon="13.28122544884608"><ele>58.25</ele><time>2026-04-08T14:31:42Z</time></trkpt><trkpt lat="45.978724784104806" lon="13.281168095572369"><ele>58.5</ele><time>2026-04-08T14:31:43Z</time></trkpt><trkpt lat="45.97885601387934" lon="13.281105023609314"><ele>58.75</ele><time>2026-04-08T14:31:44Z</time></trkpt><trkpt lat="45.97898458310599" lon="13.281029975121234"><ele>59.0</ele><time>2026-04-08T14:31:45Z</time></trkpt><trkpt lat="45.979113307750616" lon="13.280946307146834"><ele>59.0</ele><time>2026-04-08T14:31:46Z</time></trkpt><trkpt lat="45.9792379286598" lon="13.280868647621325"><ele>59.0</ele><time>2026-04-08T14:31:47Z</time></trkpt><trkpt lat="45.97936220674488" lon="13.28079644968771"><ele>59.0</ele><time>2026-04-08T14:31:48Z</time></trkpt><trkpt lat="45.97948324720172" lon="13.280722503605624"><ele>59.0</ele><time>2026-04-08T14:31:49Z</time></trkpt><trkpt lat="45.97960323546066" lon="13.280648185926937"><ele>59.0</ele><time>2026-04-08T14:31:50Z</time></trkpt><trkpt lat="45.979729675979065" lon="13.280567500818956"><ele>59.0</ele><time>2026-04-08T14:31:51Z</time></trkpt><trkpt lat="45.97986547358145" lon="13.280477369448771"><ele>59.0</ele><time>2026-04-08T14:31:52Z</time></trkpt><trkpt lat="45.98000393056415" lon="13.280391339938454"><ele>59.0</ele><time>2026-04-08T14:31:53Z</time></trkpt><trkpt lat="45.98014033720552" lon="13.280297811370028"><ele>58.75</ele><time>2026-04-08T14:31:54Z</time></trkpt><trkpt lat="45.980277885486714" lon="13.28022137827873"><ele>58.5</ele><time>2026-04-08T14:31:55Z</time></trkpt><trkpt lat="45.98040154973467" lon="13.280109707677722"><ele>58.25</ele><time>2026-04-08T14:31:56Z</time></trkpt><trkpt lat="45.98053276312012" lon="13.280017566616516"><ele>58.0</ele><time>2026-04-08T14:31:57Z</time></trkpt><trkpt lat="45.98066128163272" lon="13.279915114274548"><ele>58.0</ele><time>2026-04-08T14:31:58Z</time></trkpt><trkpt lat="45.980792102603004" lon="13.279819457781322"><ele>58.0</ele><time>2026-04-08T14:31:59Z</time></trkpt><trkpt lat="45.98092579764441" lon="13.279720257742616"><ele>58.0</ele><time>2026-04-08T14:32:00Z</time></trkpt><trkpt lat="45.981060860491944" lon="13.27962211603195"><ele>58.0</ele><time>2026-04-08T14:32:01Z</time></trkpt><trkpt lat="45.98119407367694" lon="13.279525111064288"><ele>58.25</ele><time>2026-04-08T14:32:02Z</time></trkpt><trkpt lat="45.981321671123915" lon="13.279425697948028"><ele>58.5</ele><time>2026-04-08T14:32:03Z</time></trkpt><trkpt lat="45.981444835387535" lon="13.279329552191383"><ele>58.75</ele><time>2026-04-08T14:32:04Z</time></trkpt><trkpt lat="45.981563745490774" lon="13.27924190811313"><ele>59.0</ele><time>2026-04-08T14:32:05Z</time></trkpt><trkpt lat="45.981680143910175" lon="13.279158497187222"><ele>59.0</ele><time>2026-04-08T14:32:06Z</time></trkpt><trkpt lat="45.98179258821212" lon="13.279078166713084"><ele>59.0</ele><time>2026-04-08T14:32:07Z</time></trkpt><trkpt lat="45.981911418603254" lon="13.278996199915856"><ele>59.0</ele><time>2026-04-08T14:32:08Z</time></trkpt><trkpt lat="45.98204833390032" lon="13.278901350881046"><ele>59.0</ele><time>2026-04-08T14:32:09Z</time></trkpt><trkpt lat="45.98219661832011" lon="13.278790276769021"><ele>59.0</ele><time>2026-04-08T14:32:10Z</time></trkpt><trkpt lat="45.98234169473978" lon="13.278681134453887"><ele>59.0</ele><time>2026-04-08T14:32:11Z</time></trkpt><trkpt lat="45.98246233971156" lon="13.278588958818366"><ele>59.0</ele><time>2026-04-08T14:32:12Z</time></trkpt><trkpt lat="45.98257612619594" lon="13.278505579494372"><ele>59.0</ele><time>2026-04-08T14:32:13Z</time></trkpt><trkpt lat="45.98269996764415" lon="13.278417833731478"><ele>59.25</ele><time>2026-04-08T14:32:14Z</time></trkpt><trkpt lat="45.98282818155778" lon="13.278325701064755"><ele>59.5</ele><time>2026-04-08T14:32:15Z</time></trkpt><trkpt lat="45.982945752420854" lon="13.278240285806042"><ele>59.75</ele><time>2026-04-08T14:32:16Z</time></trkpt><trkpt lat="45.983073798120806" lon="13.278151910198646"><ele>60.0</ele><time>2026-04-08T14:32:17Z</time></trkpt><trkpt lat="45.98320738135229" lon="13.27806779625946"><ele>60.25</ele><time>2026-04-08T14:32:18Z</time></trkpt><trkpt lat="45.98334497088476" lon="13.277990277287222"><ele>60.5</ele><time>2026-04-08T14:32:19Z</time></trkpt><trkpt lat="45.983483407745794" lon="13.27791434329412"><ele>60.75</ele><time>2026-04-08T14:32:20Z</time></trkpt><trkpt lat="45.98361987890922" lon="13.277846804925819"><ele>61.0</ele><time>2026-04-08T14:32:21Z</time></trkpt><trkpt lat="45.98375510468563" lon="13.27778909066272"><ele>61.25</ele><time>2026-04-08T14:32:22Z</time></trkpt><trkpt lat="45.98388759794875" lon="13.277739220206776"><ele>61.5</ele><time>2026-04-08T14:32:23Z</time></trkpt><trkpt lat="45.98401292044819" lon="13.277693917362331"><ele>61.75</ele><time>2026-04-08T14:32:24Z</time></trkpt><trkpt lat="45.984131074814485" lon="13.277649477154434"><ele>62.0</ele><time>2026-04-08T14:32:25Z</time></trkpt><trkpt lat="45.98424574023693" lon="13.277603574474895"><ele>62.0</ele><time>2026-04-08T14:32:26Z</time></trkpt><trkpt lat="45.98435972512044" lon="13.277566827285378"><ele>62.0</ele><time>2026-04-08T14:32:27Z</time></trkpt><trkpt lat="45.98447632522357" lon="13.277535186316667"><ele>62.0</ele><time>2026-04-08T14:32:28Z</time></trkpt><trkpt lat="45.9846147892661" lon="13.277481353553576"><ele>62.0</ele><time>2026-04-08T14:32:29Z</time></trkpt><trkpt lat="45.9847729683158" lon="13.277398018924298"><ele>62.0</ele><time>2026-04-08T14:32:30Z</time></trkpt><trkpt lat="45.9849253722229" lon="13.277292791422294"><ele>62.0</ele><time>2026-04-08T14:32:31Z</time></trkpt><trkpt lat="45.9850598844437" lon="13.277180028505208"><ele>62.0</ele><time>2026-04-08T14:32:32Z</time></trkpt><trkpt lat="45.9851827471424" lon="13.277082457221741"><ele>62.0</ele><time>2026-04-08T14:32:33Z</time></trkpt><trkpt lat="45.985295150251815" lon="13.27700719865399"><ele>62.0</ele><time>2026-04-08T14:32:34Z</time></trkpt><trkpt lat="45.98540015669297" lon="13.27694729427404"><ele>62.0</ele><time>2026-04-08T14:32:35Z</time></trkpt><trkpt lat="45.98550645344776" lon="13.27689390614058"><ele>62.0</ele><time>2026-04-08T14:32:36Z</time></trkpt><trkpt lat="45.985620732691864" lon="13.276834066418736"><ele>62.0</ele><time>2026-04-08T14:32:37Z</time></trkpt><trkpt lat="45.9857243396981" lon="13.276760921436521"><ele>62.0</ele><time>2026-04-08T14:32:38Z</time></trkpt><trkpt lat="45.98587374575328" lon="13.276742562769767"><ele>62.0</ele><time>2026-04-08T14:32:39Z</time></trkpt><trkpt lat="45.98603218773118" lon="13.276717225861443"><ele>62.0</ele><time>2026-04-08T14:32:40Z</time></trkpt><trkpt lat="45.98619713716972" lon="13.276693817170852"><ele>62.333333333333336</ele><time>2026-04-08T14:32:41Z</time></trkpt><trkpt lat="45.986354993568874" lon="13.276664676032318"><ele>62.66666666666667</ele><time>2026-04-08T14:32:42Z</time></trkpt><trkpt lat="45.98650856635204" lon="13.276646278813672"><ele>63.0</ele><time>2026-04-08T14:32:43Z</time></trkpt><trkpt lat="45.98666194122527" lon="13.276627908979775"><ele>62.75</ele><time>2026-04-08T14:32:44Z</time></trkpt><trkpt lat="45.986808336798404" lon="13.27660239915939"><ele>62.5</ele><time>2026-04-08T14:32:45Z</time></trkpt><trkpt lat="45.98693464750997" lon="13.27658165963856"><ele>62.25</ele><time>2026-04-08T14:32:46Z</time></trkpt><trkpt lat="45.987055054659656" lon="13.276571219237898"><ele>62.0</ele><time>2026-04-08T14:32:47Z</time></trkpt><trkpt lat="45.98717874571738" lon="13.276560017569652"><ele>62.0</ele><time>2026-04-08T14:32:48Z</time></trkpt><trkpt lat="45.987301048145646" lon="13.276541151981121"><ele>62.0</ele><time>2026-04-08T14:32:49Z</time></trkpt><trkpt lat="45.987421188927314" lon="13.276524876229761"><ele>62.0</ele><time>2026-04-08T14:32:50Z</time></trkpt><trkpt lat="45.987539231706904" lon="13.27652596003202"><ele>62.0</ele><time>2026-04-08T14:32:51Z</time></trkpt><trkpt lat="45.98765459420619" lon="13.27655763336917"><ele>61.75</ele><time>2026-04-08T14:32:52Z</time></trkpt><trkpt lat="45.987762005784816" lon="13.276626111104543"><ele>61.5</ele><time>2026-04-08T14:32:53Z</time></trkpt><trkpt lat="45.98786111809157" lon="13.27670446736333"><ele>61.25</ele><time>2026-04-08T14:32:54Z</time></trkpt><trkpt lat="45.987971442774025" lon="13.276716378205824"><ele>61.0</ele><time>2026-04-08T14:32:55Z</time></trkpt><trkpt lat="45.988080387806065" lon="13.276676549473382"><ele>61.0</ele><time>2026-04-08T14:32:56Z</time></trkpt><trkpt lat="45.988166337561076" lon="13.27658675685587"><ele>61.0</ele><time>2026-04-08T14:32:57Z</time></trkpt><trkpt lat="45.988239293969336" lon="13.276453798895732"><ele>61.0</ele><time>2026-04-08T14:32:58Z</time></trkpt><trkpt lat="45.98832729820811" lon="13.276332942927393"><ele>61.0</ele><time>2026-04-08T14:32:59Z</time></trkpt><trkpt lat="45.98843490596372" lon="13.276246733816965"><ele>61.5</ele><time>2026-04-08T14:33:00Z</time></trkpt><trkpt lat="45.988541728337864" lon="13.276149823690414"><ele>62.0</ele><time>2026-04-08T14:33:01Z</time></trkpt><trkpt lat="45.98869081716402" lon="13.276124441146633"><ele>62.5</ele><time>2026-04-08T14:33:02Z</time></trkpt><trkpt lat="45.988826219555484" lon="13.276071327718736"><ele>63.0</ele><time>2026-04-08T14:33:03Z</time></trkpt><trkpt lat="45.988965806616214" lon="13.27601763784583"><ele>63.0</ele><time>2026-04-08T14:33:04Z</time></trkpt><trkpt lat="45.98911171035352" lon="13.275962822486715"><ele>63.0</ele><time>2026-04-08T14:33:05Z</time></trkpt><trkpt lat="45.98926975398095" lon="13.275903291755858"><ele>63.0</ele><time>2026-04-08T14:33:06Z</time></trkpt><trkpt lat="45.98943001015641" lon="13.275843005280827"><ele>62.66666666666667</ele><time>2026-04-08T14:33:07Z</time></trkpt><trkpt lat="45.9895944150645" lon="13.275782135420798"><ele>62.333333333333336</ele><time>2026-04-08T14:33:08Z</time></trkpt><trkpt lat="45.98976353582088" lon="13.275720522415156"><ele>62.0</ele><time>2026-04-08T14:33:09Z</time></trkpt><trkpt lat="45.98993283442178" lon="13.275660685980421"><ele>62.66666666666667</ele><time>2026-04-08T14:33:10Z</time></trkpt><trkpt lat="45.990098677326834" lon="13.275599031017782"><ele>63.33333333333333</ele><time>2026-04-08T14:33:11Z</time></trkpt><trkpt lat="45.99026475563453" lon="13.275536026456567"><ele>64.0</ele><time>2026-04-08T14:33:12Z</time></trkpt><trkpt lat="45.99043399226578" lon="13.275479700342474"><ele>64.0</ele><time>2026-04-08T14:33:13Z</time></trkpt><trkpt lat="45.99060472733757" lon="13.275427516132444"><ele>64.0</ele><time>2026-04-08T14:33:14Z</time></trkpt><trkpt lat="45.99077676271938" lon="13.275374911349617"><ele>64.0</ele><time>2026-04-08T14:33:15Z</time></trkpt><trkpt lat="45.99094497116996" lon="13.275324683890467"><ele>64.66666666666666</ele><time>2026-04-08T14:33:16Z</time></trkpt><trkpt lat="45.99111234524949" lon="13.275277469348762"><ele>65.33333333333333</ele><time>2026-04-08T14:33:17Z</time></trkpt><trkpt lat="45.99127894083891" lon="13.2752344823837"><ele>66.0</ele><time>2026-04-08T14:33:18Z</time></trkpt><trkpt lat="45.99144570640435" lon="13.27519534029695"><ele>66.0</ele><time>2026-04-08T14:33:19Z</time></trkpt><trkpt lat="45.991611361890136" lon="13.27515915053587"><ele>66.0</ele><time>2026-04-08T14:33:20Z</time></trkpt><trkpt lat="45.991777515554304" lon="13.275123653192981"><ele>66.0</ele><time>2026-04-08T14:33:21Z</time></trkpt><trkpt lat="45.991943048705416" lon="13.275091787515265"><ele>65.66666666666667</ele><time>2026-04-08T14:33:22Z</time></trkpt><trkpt lat="45.99210407455904" lon="13.275065528595853"><ele>65.33333333333334</ele><time>2026-04-08T14:33:23Z</time></trkpt><trkpt lat="45.99226245953267" lon="13.275042880897027"><ele>65.0</ele><time>2026-04-08T14:33:24Z</time></trkpt><trkpt lat="45.99241753710674" lon="13.27502072376166"><ele>65.0</ele><time>2026-04-08T14:33:25Z</time></trkpt><trkpt lat="45.99257151086732" lon="13.274996336994413"><ele>65.0</ele><time>2026-04-08T14:33:26Z</time></trkpt><trkpt lat="45.99272455879697" lon="13.274971490023788"><ele>65.0</ele><time>2026-04-08T14:33:27Z</time></trkpt><trkpt lat="45.99287842418263" lon="13.274946696676134"><ele>65.0</ele><time>2026-04-08T14:33:28Z</time></trkpt><trkpt lat="45.99303659822104" lon="13.27492060944683"><ele>65.0</ele><time>2026-04-08T14:33:29Z</time></trkpt><trkpt lat="45.99319799636906" lon="13.274895181174463"><ele>65.0</ele><time>2026-04-08T14:33:29.999Z</time></trkpt><trkpt lat="45.99336192538844" lon="13.27486662847211"><ele>65.0</ele><time>2026-04-08T14:33:30.999Z</time></trkpt><trkpt lat="45.99352898866549" lon="13.274836444398176"><ele>65.0</ele><time>2026-04-08T14:33:31.999Z</time></trkpt><trkpt lat="45.99369963876884" lon="13.274805963243363"><ele>65.0</ele><time>2026-04-08T14:33:32.999Z</time></trkpt><trkpt lat="45.99387367747803" lon="13.274774058943262"><ele>65.66666666666667</ele><time>2026-04-08T14:33:33.999Z</time></trkpt><trkpt lat="45.99404915567371" lon="13.274745162028537"><ele>66.33333333333333</ele><time>2026-04-08T14:33:34.999Z</time></trkpt><trkpt lat="45.99422594600149" lon="13.274722769783393"><ele>67.0</ele><time>2026-04-08T14:33:35.999Z</time></trkpt><trkpt lat="45.99440306243007" lon="13.27470420735694"><ele>67.0</ele><time>2026-04-08T14:33:36.999Z</time></trkpt><trkpt lat="45.99458235365237" lon="13.274676157437408"><ele>67.0</ele><time>2026-04-08T14:33:37.999Z</time></trkpt><trkpt lat="45.994760603724565" lon="13.274644153038315"><ele>67.0</ele><time>2026-04-08T14:33:38.999Z</time></trkpt><trkpt lat="45.9949366237831" lon="13.27461355173895"><ele>67.0</ele><time>2026-04-08T14:33:39.999Z</time></trkpt><trkpt lat="45.99511144038334" lon="13.274586235380943"><ele>67.0</ele><time>2026-04-08T14:33:40.999Z</time></trkpt><trkpt lat="45.995286249074375" lon="13.274560310795271"><ele>67.0</ele><time>2026-04-08T14:33:41.999Z</time></trkpt><trkpt lat="45.9954621728184" lon="13.274530894778641"><ele>67.0</ele><time>2026-04-08T14:33:42.999Z</time></trkpt><trkpt lat="45.99563566901135" lon="13.274501561910574"><ele>67.0</ele><time>2026-04-08T14:33:43.999Z</time></trkpt><trkpt lat="45.995806019949555" lon="13.274472644168805"><ele>67.0</ele><time>2026-04-08T14:33:44.999Z</time></trkpt><trkpt lat="45.99597509309621" lon="13.274445156399182"><ele>68.0</ele><time>2026-04-08T14:33:46Z</time></trkpt><trkpt lat="45.996142592514104" lon="13.274416902592495"><ele>69.0</ele><time>2026-04-08T14:33:47Z</time></trkpt><trkpt lat="45.996306090839454" lon="13.274390142766146"><ele>70.0</ele><time>2026-04-08T14:33:48Z</time></trkpt><trkpt lat="45.99646822265596" lon="13.274362498010799"><ele>70.0</ele><time>2026-04-08T14:33:49Z</time></trkpt><trkpt lat="45.99662529413607" lon="13.274337839121026"><ele>70.0</ele><time>2026-04-08T14:33:50Z</time></trkpt><trkpt lat="45.996777856621485" lon="13.274316515216086"><ele>70.0</ele><time>2026-04-08T14:33:51Z</time></trkpt><trkpt lat="45.996927968294685" lon="13.274294447202593"><ele>69.75</ele><time>2026-04-08T14:33:52Z</time></trkpt><trkpt lat="45.99707518693442" lon="13.274270334358816"><ele>69.5</ele><time>2026-04-08T14:33:53Z</time></trkpt><trkpt lat="45.99721990017108" lon="13.274249550651945"><ele>69.25</ele><time>2026-04-08T14:33:54Z</time></trkpt><trkpt lat="45.99736207502911" lon="13.27422680611083"><ele>69.0</ele><time>2026-04-08T14:33:55Z</time></trkpt><trkpt lat="45.99750425889056" lon="13.274201187733771"><ele>69.5</ele><time>2026-04-08T14:33:56Z</time></trkpt><trkpt lat="45.99764459599963" lon="13.274177532007567"><ele>70.0</ele><time>2026-04-08T14:33:57Z</time></trkpt><trkpt lat="45.99778238565021" lon="13.274158305231602"><ele>70.5</ele><time>2026-04-08T14:33:58Z</time></trkpt><trkpt lat="45.99792144883564" lon="13.274142577396427"><ele>71.0</ele><time>2026-04-08T14:33:59Z</time></trkpt><trkpt lat="45.998059842957424" lon="13.274124818951503"><ele>71.0</ele><time>2026-04-08T14:34:00Z</time></trkpt><trkpt lat="45.998199584742395" lon="13.274103548562465"><ele>71.0</ele><time>2026-04-08T14:34:01Z</time></trkpt><trkpt lat="45.99834425079311" lon="13.274081140059586"><ele>71.0</ele><time>2026-04-08T14:34:02Z</time></trkpt><trkpt lat="45.998494096492294" lon="13.274052931327192"><ele>71.0</ele><time>2026-04-08T14:34:03Z</time></trkpt><trkpt lat="45.99864892484682" lon="13.27402912402753"><ele>71.66666666666667</ele><time>2026-04-08T14:34:04Z</time></trkpt><trkpt lat="45.998808475611305" lon="13.274005578788298"><ele>72.33333333333333</ele><time>2026-04-08T14:34:05Z</time></trkpt><trkpt lat="45.998966294309746" lon="13.27398104271218"><ele>73.0</ele><time>2026-04-08T14:34:06Z</time></trkpt><trkpt lat="45.99912287754729" lon="13.273952736865338"><ele>72.33333333333333</ele><time>2026-04-08T14:34:07Z</time></trkpt><trkpt lat="45.99927577184807" lon="13.273927000951344"><ele>71.66666666666667</ele><time>2026-04-08T14:34:08Z</time></trkpt><trkpt lat="45.99942611006715" lon="13.273903829920567"><ele>71.0</ele><time>2026-04-08T14:34:09Z</time></trkpt><trkpt lat="45.99957459384312" lon="13.273880729654412"><ele>71.0</ele><time>2026-04-08T14:34:10Z</time></trkpt><trkpt lat="45.99972029125634" lon="13.273858300650208"><ele>71.0</ele><time>2026-04-08T14:34:11Z</time></trkpt><trkpt lat="45.99986587953391" lon="13.273835994865948"><ele>71.0</ele><time>2026-04-08T14:34:12Z</time></trkpt><trkpt lat="46.00001177980124" lon="13.273813567436246"><ele>71.0</ele><time>2026-04-08T14:34:13Z</time></trkpt><trkpt lat="46.00016147023137" lon="13.27379052371624"><ele>71.0</ele><time>2026-04-08T14:34:14Z</time></trkpt><trkpt lat="46.0003146392853" lon="13.273769001299643"><ele>71.0</ele><time>2026-04-08T14:34:15Z</time></trkpt><trkpt lat="46.00046898378258" lon="13.273745665410347"><ele>71.0</ele><time>2026-04-08T14:34:16Z</time></trkpt><trkpt lat="46.00062464165484" lon="13.273718995592445"><ele>71.0</ele><time>2026-04-08T14:34:17Z</time></trkpt><trkpt lat="46.00078204844121" lon="13.273692413939347"><ele>71.0</ele><time>2026-04-08T14:34:18Z</time></trkpt><trkpt lat="46.00093811595689" lon="13.273667756965464"><ele>71.0</ele><time>2026-04-08T14:34:19Z</time></trkpt><trkpt lat="46.00109388711451" lon="13.273644157707382"><ele>72.33333333333334</ele><time>2026-04-08T14:34:20Z</time></trkpt><trkpt lat="46.00124972652468" lon="13.273619919014417"><ele>73.66666666666667</ele><time>2026-04-08T14:34:21Z</time></trkpt><trkpt lat="46.00140755890519" lon="13.273595350491881"><ele>75.0</ele><time>2026-04-08T14:34:22Z</time></trkpt><trkpt lat="46.001564642254216" lon="13.273570332416343"><ele>73.66666666666667</ele><time>2026-04-08T14:34:23Z</time></trkpt><trkpt lat="46.001723312780555" lon="13.273543969679016"><ele>72.33333333333334</ele><time>2026-04-08T14:34:24Z</time></trkpt><trkpt lat="46.00188098431182" lon="13.2735182182291"><ele>71.0</ele><time>2026-04-08T14:34:25Z</time></trkpt><trkpt lat="46.002039381957054" lon="13.273492827704985"><ele>71.0</ele><time>2026-04-08T14:34:26Z</time></trkpt><trkpt lat="46.0021963588239" lon="13.273463383793091"><ele>71.0</ele><time>2026-04-08T14:34:27Z</time></trkpt><trkpt lat="46.002350403923444" lon="13.273434276247174"><ele>71.0</ele><time>2026-04-08T14:34:28Z</time></trkpt><trkpt lat="46.002503923018224" lon="13.27340576917444"><ele>71.33333333333334</ele><time>2026-04-08T14:34:29Z</time></trkpt><trkpt lat="46.00265843158266" lon="13.273375865047374"><ele>71.66666666666667</ele><time>2026-04-08T14:34:30Z</time></trkpt><trkpt lat="46.00281705434867" lon="13.273343147266692"><ele>72.0</ele><time>2026-04-08T14:34:31Z</time></trkpt><trkpt lat="46.002977176906924" lon="13.27331048822115"><ele>72.0</ele><time>2026-04-08T14:34:32Z</time></trkpt><trkpt lat="46.00313838157082" lon="13.27327685713078"><ele>72.0</ele><time>2026-04-08T14:34:33Z</time></trkpt><trkpt lat="46.003302039062845" lon="13.273240323696358"><ele>72.0</ele><time>2026-04-08T14:34:34Z</time></trkpt><trkpt lat="46.00346596440743" lon="13.273203044222306"><ele>71.66666666666667</ele><time>2026-04-08T14:34:35Z</time></trkpt><trkpt lat="46.0036310785554" lon="13.27316445771843"><ele>71.33333333333334</ele><time>2026-04-08T14:34:36Z</time></trkpt><trkpt lat="46.00379475997064" lon="13.273124979599679"><ele>71.0</ele><time>2026-04-08T14:34:37Z</time></trkpt><trkpt lat="46.00395633861736" lon="13.273082508088743"><ele>71.0</ele><time>2026-04-08T14:34:38Z</time></trkpt><trkpt lat="46.00411502388047" lon="13.273039491644841"><ele>71.0</ele><time>2026-04-08T14:34:39Z</time></trkpt><trkpt lat="46.00427032683891" lon="13.272997216294732"><ele>71.0</ele><time>2026-04-08T14:34:40Z</time></trkpt><trkpt lat="46.00442546372757" lon="13.272956095957243"><ele>71.33333333333334</ele><time>2026-04-08T14:34:41Z</time></trkpt><trkpt lat="46.00457787798396" lon="13.272914291273677"><ele>71.66666666666667</ele><time>2026-04-08T14:34:42Z</time></trkpt><trkpt lat="46.004730101822815" lon="13.272872769069084"><ele>72.0</ele><time>2026-04-08T14:34:43Z</time></trkpt><trkpt lat="46.004880095796565" lon="13.272834222588298"><ele>72.0</ele><time>2026-04-08T14:34:44Z</time></trkpt><trkpt lat="46.0050303142906" lon="13.272795586240768"><ele>72.0</ele><time>2026-04-08T14:34:45Z</time></trkpt><trkpt lat="46.00517990154394" lon="13.272755616278848"><ele>72.0</ele><time>2026-04-08T14:34:46Z</time></trkpt><trkpt lat="46.00532692332535" lon="13.272714472235274"><ele>72.0</ele><time>2026-04-08T14:34:47Z</time></trkpt><trkpt lat="46.00546423235599" lon="13.272676528723066"><ele>72.0</ele><time>2026-04-08T14:34:48Z</time></trkpt><trkpt lat="46.00559757048312" lon="13.272638680469592"><ele>72.0</ele><time>2026-04-08T14:34:49Z</time></trkpt><trkpt lat="46.005731572334724" lon="13.272601702859285"><ele>72.0</ele><time>2026-04-08T14:34:50Z</time></trkpt><trkpt lat="46.00586599420615" lon="13.272566218146169"><ele>72.25</ele><time>2026-04-08T14:34:51Z</time></trkpt><trkpt lat="46.00600388248562" lon="13.272531395311907"><ele>72.5</ele><time>2026-04-08T14:34:52Z</time></trkpt><trkpt lat="46.00614513793629" lon="13.272493391809757"><ele>72.75</ele><time>2026-04-08T14:34:53Z</time></trkpt><trkpt lat="46.00628687546845" lon="13.27245153913918"><ele>73.0</ele><time>2026-04-08T14:34:54Z</time></trkpt><trkpt lat="46.00642713796327" lon="13.272420882898293"><ele>73.0</ele><time>2026-04-08T14:34:55Z</time></trkpt><trkpt lat="46.00656818638953" lon="13.272377844937814"><ele>73.0</ele><time>2026-04-08T14:34:56Z</time></trkpt><trkpt lat="46.006714818775954" lon="13.272339001918516"><ele>73.0</ele><time>2026-04-08T14:34:57Z</time></trkpt><trkpt lat="46.0068633333709" lon="13.27229973345374"><ele>73.0</ele><time>2026-04-08T14:34:58Z</time></trkpt><trkpt lat="46.00701602852288" lon="13.272258590692209"><ele>73.33333333333333</ele><time>2026-04-08T14:34:59Z</time></trkpt><trkpt lat="46.00717294985547" lon="13.272216775289408"><ele>73.66666666666667</ele><time>2026-04-08T14:35:00Z</time></trkpt><trkpt lat="46.00733557140614" lon="13.27217404606813"><ele>74.0</ele><time>2026-04-08T14:35:01Z</time></trkpt><trkpt lat="46.00750061002055" lon="13.27213097761566"><ele>74.0</ele><time>2026-04-08T14:35:02Z</time></trkpt><trkpt lat="46.00766456251823" lon="13.272087601428685"><ele>74.0</ele><time>2026-04-08T14:35:03Z</time></trkpt><trkpt lat="46.00782829942778" lon="13.272043411646282"><ele>74.0</ele><time>2026-04-08T14:35:04Z</time></trkpt><trkpt lat="46.007991472562814" lon="13.271999267331669"><ele>74.0</ele><time>2026-04-08T14:35:05Z</time></trkpt><trkpt lat="46.00815001705068" lon="13.27195297152726"><ele>74.0</ele><time>2026-04-08T14:35:06Z</time></trkpt><trkpt lat="46.00830377960255" lon="13.271911313399565"><ele>74.0</ele><time>2026-04-08T14:35:07Z</time></trkpt><trkpt lat="46.00845417244916" lon="13.271871547128981"><ele>74.0</ele><time>2026-04-08T14:35:08Z</time></trkpt><trkpt lat="46.008603097152665" lon="13.271832125608416"><ele>74.0</ele><time>2026-04-08T14:35:09Z</time></trkpt><trkpt lat="46.008747117616984" lon="13.271793794290499"><ele>74.0</ele><time>2026-04-08T14:35:10Z</time></trkpt><trkpt lat="46.008890309435735" lon="13.27175391848128"><ele>74.0</ele><time>2026-04-08T14:35:11Z</time></trkpt><trkpt lat="46.00903354066949" lon="13.27171695740945"><ele>74.0</ele><time>2026-04-08T14:35:12Z</time></trkpt><trkpt lat="46.00917750176901" lon="13.271679466191932"><ele>74.0</ele><time>2026-04-08T14:35:13Z</time></trkpt><trkpt lat="46.00932358363719" lon="13.271639428392886"><ele>74.0</ele><time>2026-04-08T14:35:14Z</time></trkpt><trkpt lat="46.00947112803807" lon="13.27159878956392"><ele>74.0</ele><time>2026-04-08T14:35:15Z</time></trkpt><trkpt lat="46.00961723293359" lon="13.271558535145509"><ele>74.0</ele><time>2026-04-08T14:35:16Z</time></trkpt><trkpt lat="46.009762480105074" lon="13.271521013868952"><ele>74.0</ele><time>2026-04-08T14:35:17Z</time></trkpt><trkpt lat="46.009905000888" lon="13.271483020447809"><ele>74.0</ele><time>2026-04-08T14:35:18Z</time></trkpt><trkpt lat="46.0100442896533" lon="13.271440731549216"><ele>74.0</ele><time>2026-04-08T14:35:19Z</time></trkpt><trkpt lat="46.01018113522514" lon="13.271400212258921"><ele>74.0</ele><time>2026-04-08T14:35:20Z</time></trkpt><trkpt lat="46.01031894651779" lon="13.271363576833323"><ele>74.0</ele><time>2026-04-08T14:35:21Z</time></trkpt><trkpt lat="46.010453720167376" lon="13.27132707754322"><ele>74.0</ele><time>2026-04-08T14:35:22Z</time></trkpt><trkpt lat="46.010581054230556" lon="13.2712885183691"><ele>74.0</ele><time>2026-04-08T14:35:23Z</time></trkpt><trkpt lat="46.01070023738642" lon="13.27125386913747"><ele>74.0</ele><time>2026-04-08T14:35:24Z</time></trkpt><trkpt lat="46.01081916042941" lon="13.27122212580191"><ele>74.0</ele><time>2026-04-08T14:35:25Z</time></trkpt><trkpt lat="46.010936849255124" lon="13.271190891370644"><ele>74.0</ele><time>2026-04-08T14:35:26Z</time></trkpt><trkpt lat="46.01105039035661" lon="13.271160246369298"><ele>74.0</ele><time>2026-04-08T14:35:27Z</time></trkpt><trkpt lat="46.01114953604295" lon="13.271132850094897"><ele>74.0</ele><time>2026-04-08T14:35:28Z</time></trkpt><trkpt lat="46.0112437512596" lon="13.271107405136647"><ele>74.0</ele><time>2026-04-08T14:35:29Z</time></trkpt><trkpt lat="46.01133770940863" lon="13.271084752238764"><ele>74.0</ele><time>2026-04-08T14:35:30Z</time></trkpt><trkpt lat="46.01142305318929" lon="13.271062884812707"><ele>74.0</ele><time>2026-04-08T14:35:31Z</time></trkpt><trkpt lat="46.011497508822295" lon="13.271042464137151"><ele>74.0</ele><time>2026-04-08T14:35:32Z</time></trkpt><trkpt lat="46.01160877124742" lon="13.271009298044255"><ele>74.28571428571429</ele><time>2026-04-08T14:35:33.999Z</time></trkpt><trkpt lat="46.011681230451316" lon="13.270990682275578"><ele>74.57142857142857</ele><time>2026-04-08T14:35:35.999Z</time></trkpt><trkpt lat="46.01175036688017" lon="13.270969816288726"><ele>74.85714285714286</ele><time>2026-04-08T14:35:38.999Z</time></trkpt><trkpt lat="46.01182240872386" lon="13.270946039498659"><ele>75.14285714285714</ele><time>2026-04-08T14:35:42.999Z</time></trkpt><trkpt lat="46.01189651408052" lon="13.270926063296468"><ele>75.42857142857143</ele><time>2026-04-08T14:35:44.999Z</time></trkpt><trkpt lat="46.01195870688274" lon="13.270905440713003"><ele>75.71428571428571</ele><time>2026-04-08T14:35:45.999Z</time></trkpt><trkpt lat="46.01203576253273" lon="13.270876569859361"><ele>76.0</ele><time>2026-04-08T14:35:46.999Z</time></trkpt><trkpt lat="46.012119340969846" lon="13.270855159899536"><ele>76.0</ele><time>2026-04-08T14:35:47.999Z</time></trkpt><trkpt lat="46.012205020654214" lon="13.270864740766818"><ele>76.0</ele><time>2026-04-08T14:35:48.999Z</time></trkpt><trkpt lat="46.01228673365464" lon="13.270903308508553"><ele>76.0</ele><time>2026-04-08T14:35:49.999Z</time></trkpt><trkpt lat="46.01236263595529" lon="13.270970121539019"><ele>76.0</ele><time>2026-04-08T14:35:50.999Z</time></trkpt><trkpt lat="46.0124411600503" lon="13.271039896160076"><ele>76.0</ele><time>2026-04-08T14:35:52Z</time></trkpt><trkpt lat="46.01253034025727" lon="13.271114696564853"><ele>75.75</ele><time>2026-04-08T14:35:53Z</time></trkpt><trkpt lat="46.01262943978148" lon="13.271207193415835"><ele>75.5</ele><time>2026-04-08T14:35:54Z</time></trkpt><trkpt lat="46.01274052980682" lon="13.271271454829467"><ele>75.25</ele><time>2026-04-08T14:35:55Z</time></trkpt><trkpt lat="46.01286454916359" lon="13.271281677084549"><ele>75.0</ele><time>2026-04-08T14:35:56Z</time></trkpt><trkpt lat="46.01298341157127" lon="13.27125459510303"><ele>75.0</ele><time>2026-04-08T14:35:57Z</time></trkpt><trkpt lat="46.01308349849154" lon="13.271182483187498"><ele>75.0</ele><time>2026-04-08T14:35:58Z</time></trkpt><trkpt lat="46.01316048409935" lon="13.271095387123916"><ele>75.0</ele><time>2026-04-08T14:35:59Z</time></trkpt><trkpt lat="46.013227904642875" lon="13.27099581676742"><ele>75.0</ele><time>2026-04-08T14:36:00Z</time></trkpt><trkpt lat="46.013281418424334" lon="13.270880557589713"><ele>75.0</ele><time>2026-04-08T14:36:01Z</time></trkpt><trkpt lat="46.01333134646703" lon="13.270758477737855"><ele>75.16666666666667</ele><time>2026-04-08T14:36:02Z</time></trkpt><trkpt lat="46.01339039375172" lon="13.270655185477828"><ele>75.33333333333333</ele><time>2026-04-08T14:36:03Z</time></trkpt><trkpt lat="46.0134589484155" lon="13.270574940113706"><ele>75.5</ele><time>2026-04-08T14:36:04Z</time></trkpt><trkpt lat="46.013531645984294" lon="13.270517474828292"><ele>75.66666666666666</ele><time>2026-04-08T14:36:05Z</time></trkpt><trkpt lat="46.01359186566616" lon="13.270443028796308"><ele>75.83333333333333</ele><time>2026-04-08T14:36:06Z</time></trkpt><trkpt lat="46.013696508393345" lon="13.270435792377665"><ele>76.0</ele><time>2026-04-08T14:36:07Z</time></trkpt><trkpt lat="46.01378439843219" lon="13.270403868187397"><ele>76.2</ele><time>2026-04-08T14:36:08Z</time></trkpt><trkpt lat="46.013873170688704" lon="13.270378798352588"><ele>76.39999999999999</ele><time>2026-04-08T14:36:09Z</time></trkpt><trkpt lat="46.01396264481661" lon="13.270354195589976"><ele>76.6</ele><time>2026-04-08T14:36:10Z</time></trkpt><trkpt lat="46.014051739892004" lon="13.270329855206477"><ele>76.8</ele><time>2026-04-08T14:36:11Z</time></trkpt><trkpt lat="46.01414306439894" lon="13.270305790960009"><ele>77.0</ele><time>2026-04-08T14:36:12Z</time></trkpt><trkpt lat="46.014235571056716" lon="13.270279094298216"><ele>77.2</ele><time>2026-04-08T14:36:13Z</time></trkpt><trkpt lat="46.014327556091814" lon="13.270254332431628"><ele>77.4</ele><time>2026-04-08T14:36:14Z</time></trkpt><trkpt lat="46.01441899375366" lon="13.27023123311331"><ele>77.6</ele><time>2026-04-08T14:36:15Z</time></trkpt><trkpt lat="46.01450906614324" lon="13.270207167666332"><ele>77.8</ele><time>2026-04-08T14:36:16Z</time></trkpt><trkpt lat="46.0145987461116" lon="13.270183148043234"><ele>78.0</ele><time>2026-04-08T14:36:17Z</time></trkpt><trkpt lat="46.01469013390072" lon="13.270159180701757"><ele>78.0</ele><time>2026-04-08T14:36:18Z</time></trkpt><trkpt lat="46.01478370838424" lon="13.270131414799424"><ele>78.0</ele><time>2026-04-08T14:36:19Z</time></trkpt><trkpt lat="46.01487492040817" lon="13.270107539877486"><ele>78.0</ele><time>2026-04-08T14:36:20Z</time></trkpt><trkpt lat="46.014969455358546" lon="13.27008276694051"><ele>78.0</ele><time>2026-04-08T14:36:21Z</time></trkpt><trkpt lat="46.01506727799865" lon="13.270053991362026"><ele>78.0</ele><time>2026-04-08T14:36:22Z</time></trkpt><trkpt lat="46.01516867164958" lon="13.270026245303601"><ele>78.2</ele><time>2026-04-08T14:36:23Z</time></trkpt><trkpt lat="46.01527299028748" lon="13.2700000217797"><ele>78.4</ele><time>2026-04-08T14:36:24Z</time></trkpt><trkpt lat="46.01538040780909" lon="13.269968766196168"><ele>78.60000000000001</ele><time>2026-04-08T14:36:25Z</time></trkpt><trkpt lat="46.0154926777681" lon="13.26993657507971"><ele>78.8</ele><time>2026-04-08T14:36:26Z</time></trkpt><trkpt lat="46.015606443813134" lon="13.269904089847504"><ele>79.0</ele><time>2026-04-08T14:36:27Z</time></trkpt><trkpt lat="46.015718917943225" lon="13.26987089623161"><ele>79.0</ele><time>2026-04-08T14:36:28Z</time></trkpt><trkpt lat="46.01582976410366" lon="13.269840818051447"><ele>79.0</ele><time>2026-04-08T14:36:29Z</time></trkpt><trkpt lat="46.01593777203425" lon="13.269809737974914"><ele>79.0</ele><time>2026-04-08T14:36:30Z</time></trkpt><trkpt lat="46.016044029134534" lon="13.269781863274893"><ele>79.0</ele><time>2026-04-08T14:36:31Z</time></trkpt><trkpt lat="46.01614811757623" lon="13.26975387259718"><ele>79.0</ele><time>2026-04-08T14:36:32Z</time></trkpt><trkpt lat="46.0162506233186" lon="13.269726126150406"><ele>79.0</ele><time>2026-04-08T14:36:33Z</time></trkpt><trkpt lat="46.01635400032471" lon="13.269697672497827"><ele>79.0</ele><time>2026-04-08T14:36:34Z</time></trkpt><trkpt lat="46.01645860643898" lon="13.269668559359266"><ele>79.0</ele><time>2026-04-08T14:36:35Z</time></trkpt><trkpt lat="46.01656421658417" lon="13.269640018487856"><ele>79.0</ele><time>2026-04-08T14:36:36Z</time></trkpt><trkpt lat="46.0166702121059" lon="13.269611695230406"><ele>79.0</ele><time>2026-04-08T14:36:37Z</time></trkpt><trkpt lat="46.016780097303354" lon="13.269581007148437"><ele>79.25</ele><time>2026-04-08T14:36:38Z</time></trkpt><trkpt lat="46.01689290849345" lon="13.269550573215318"><ele>79.5</ele><time>2026-04-08T14:36:39Z</time></trkpt><trkpt lat="46.01700864423405" lon="13.269520663247249"><ele>79.75</ele><time>2026-04-08T14:36:40Z</time></trkpt><trkpt lat="46.01712641945506" lon="13.26948885869107"><ele>80.0</ele><time>2026-04-08T14:36:41Z</time></trkpt><trkpt lat="46.01724464061238" lon="13.269455035792811"><ele>80.0</ele><time>2026-04-08T14:36:42Z</time></trkpt><trkpt lat="46.01736235881929" lon="13.269420419964794"><ele>80.0</ele><time>2026-04-08T14:36:43Z</time></trkpt><trkpt lat="46.01748067496442" lon="13.26938790173691"><ele>80.0</ele><time>2026-04-08T14:36:44Z</time></trkpt><trkpt lat="46.01759770336074" lon="13.269354757791069"><ele>80.0</ele><time>2026-04-08T14:36:45Z</time></trkpt><trkpt lat="46.01771440654798" lon="13.269321981492583"><ele>79.8</ele><time>2026-04-08T14:36:46Z</time></trkpt><trkpt lat="46.017828697648255" lon="13.269293039226389"><ele>79.6</ele><time>2026-04-08T14:36:47Z</time></trkpt><trkpt lat="46.01793903128625" lon="13.269264394066598"><ele>79.4</ele><time>2026-04-08T14:36:48Z</time></trkpt><trkpt lat="46.01804420356048" lon="13.2692341312737"><ele>79.2</ele><time>2026-04-08T14:36:49Z</time></trkpt><trkpt lat="46.01813744959247" lon="13.269205660550735"><ele>79.0</ele><time>2026-04-08T14:36:50Z</time></trkpt><trkpt lat="46.01822089022322" lon="13.269181553383739"><ele>79.0</ele><time>2026-04-08T14:36:51Z</time></trkpt><trkpt lat="46.018300850724174" lon="13.26915742992229"><ele>79.0</ele><time>2026-04-08T14:36:52Z</time></trkpt><trkpt lat="46.01837321779538" lon="13.269137294085846"><ele>79.0</ele><time>2026-04-08T14:36:53Z</time></trkpt><trkpt lat="46.01843613913661" lon="13.26911839103716"><ele>79.0</ele><time>2026-04-08T14:36:54Z</time></trkpt><trkpt lat="46.01855334573037" lon="13.26908518620871"><ele>79.0</ele><time>2026-04-08T14:36:56Z</time></trkpt><trkpt lat="46.018663030626804" lon="13.269060292052648"><ele>79.4</ele><time>2026-04-08T14:36:58Z</time></trkpt><trkpt lat="46.01877374623216" lon="13.269024457537357"><ele>79.80000000000001</ele><time>2026-04-08T14:37:00Z</time></trkpt><trkpt lat="46.01887429227243" lon="13.269008326210612"><ele>80.19999999999999</ele><time>2026-04-08T14:37:02Z</time></trkpt><trkpt lat="46.018966186864" lon="13.269003790381038"><ele>80.6</ele><time>2026-04-08T14:37:04Z</time></trkpt><trkpt lat="46.01906591484919" lon="13.269017234255033"><ele>81.0</ele><time>2026-04-08T14:37:06Z</time></trkpt><trkpt lat="46.01918795305018" lon="13.269066167584379"><ele>81.19999999999999</ele><time>2026-04-08T14:37:08Z</time></trkpt><trkpt lat="46.01926058335259" lon="13.269111731840841"><ele>81.39999999999999</ele><time>2026-04-08T14:37:09Z</time></trkpt><trkpt lat="46.01934599751742" lon="13.269176637200923"><ele>81.6</ele><time>2026-04-08T14:37:10Z</time></trkpt><trkpt lat="46.019440409266785" lon="13.269257916943854"><ele>81.8</ele><time>2026-04-08T14:37:11Z</time></trkpt><trkpt lat="46.019544059259495" lon="13.269325979470176"><ele>82.0</ele><time>2026-04-08T14:37:12Z</time></trkpt><trkpt lat="46.01965591020777" lon="13.269376001737381"><ele>82.0</ele><time>2026-04-08T14:37:13Z</time></trkpt><trkpt lat="46.01976921927936" lon="13.269404638308906"><ele>82.0</ele><time>2026-04-08T14:37:14Z</time></trkpt><trkpt lat="46.01988163418046" lon="13.26941565657968"><ele>82.0</ele><time>2026-04-08T14:37:15Z</time></trkpt><trkpt lat="46.01999485115523" lon="13.269418417115114"><ele>82.0</ele><time>2026-04-08T14:37:16Z</time></trkpt><trkpt lat="46.02011455237564" lon="13.269415305652599"><ele>81.75</ele><time>2026-04-08T14:37:17Z</time></trkpt><trkpt lat="46.0202424594006" lon="13.269396045597087"><ele>81.5</ele><time>2026-04-08T14:37:18Z</time></trkpt><trkpt lat="46.02037358598847" lon="13.269362950962147"><ele>81.25</ele><time>2026-04-08T14:37:19Z</time></trkpt><trkpt lat="46.0205047634433" lon="13.269319947250695"><ele>81.0</ele><time>2026-04-08T14:37:20Z</time></trkpt><trkpt lat="46.02063625373138" lon="13.26926707459516"><ele>81.0</ele><time>2026-04-08T14:37:21Z</time></trkpt><trkpt lat="46.02076218093566" lon="13.26920151846254"><ele>81.0</ele><time>2026-04-08T14:37:22Z</time></trkpt><trkpt lat="46.0208817647632" lon="13.269125404437645"><ele>81.0</ele><time>2026-04-08T14:37:23Z</time></trkpt><trkpt lat="46.02099904368919" lon="13.269042561645866"><ele>81.0</ele><time>2026-04-08T14:37:24Z</time></trkpt><trkpt lat="46.0211136398127" lon="13.268951673421595"><ele>81.0</ele><time>2026-04-08T14:37:25Z</time></trkpt><trkpt lat="46.02122659703813" lon="13.268851463461589"><ele>81.0</ele><time>2026-04-08T14:37:26Z</time></trkpt><trkpt lat="46.02133888107314" lon="13.268746022353591"><ele>81.0</ele><time>2026-04-08T14:37:27Z</time></trkpt><trkpt lat="46.02142165882157" lon="13.268615223048595"><ele>81.0</ele><time>2026-04-08T14:37:28Z</time></trkpt><trkpt lat="46.021498269577805" lon="13.26850174411526"><ele>81.0</ele><time>2026-04-08T14:37:29Z</time></trkpt><trkpt lat="46.02163728517093" lon="13.268480336780227"><ele>81.0</ele><time>2026-04-08T14:37:30Z</time></trkpt><trkpt lat="46.02174409901368" lon="13.268440320471631"><ele>81.0</ele><time>2026-04-08T14:37:31Z</time></trkpt><trkpt lat="46.021851147509786" lon="13.268449822110412"><ele>81.0</ele><time>2026-04-08T14:37:32Z</time></trkpt><trkpt lat="46.02195221352807" lon="13.268497942936028"><ele>81.0</ele><time>2026-04-08T14:37:33Z</time></trkpt><trkpt lat="46.02203919432245" lon="13.268577869080458"><ele>81.0</ele><time>2026-04-08T14:37:34Z</time></trkpt><trkpt lat="46.02211653325584" lon="13.268674933395323"><ele>81.0</ele><time>2026-04-08T14:37:34.999Z</time></trkpt><trkpt lat="46.02218324183853" lon="13.268786148201457"><ele>81.0</ele><time>2026-04-08T14:37:35.999Z</time></trkpt><trkpt lat="46.022238074280416" lon="13.268912253651596"><ele>81.0</ele><time>2026-04-08T14:37:36.999Z</time></trkpt><trkpt lat="46.022295091708955" lon="13.269037211523331"><ele>81.0</ele><time>2026-04-08T14:37:37.999Z</time></trkpt><trkpt lat="46.02235842343487" lon="13.269164511204806"><ele>81.0</ele><time>2026-04-08T14:37:38.999Z</time></trkpt><trkpt lat="46.02242196314151" lon="13.269295361505332"><ele>81.0</ele><time>2026-04-08T14:37:39.999Z</time></trkpt><trkpt lat="46.022472993792974" lon="13.269447689658323"><ele>81.0</ele><time>2026-04-08T14:37:40.999Z</time></trkpt><trkpt lat="46.02255277631774" lon="13.269565894706812"><ele>82.0</ele><time>2026-04-08T14:37:41.999Z</time></trkpt><trkpt lat="46.02261807768137" lon="13.269713444476647"><ele>83.0</ele><time>2026-04-08T14:37:42.999Z</time></trkpt><trkpt lat="46.022677440130785" lon="13.269867675837633"><ele>84.0</ele><time>2026-04-08T14:37:43.999Z</time></trkpt><trkpt lat="46.02272542473677" lon="13.27004295710073"><ele>85.0</ele><time>2026-04-08T14:37:44.999Z</time></trkpt><trkpt lat="46.02276958656197" lon="13.270229143543578"><ele>85.0</ele><time>2026-04-08T14:37:45.999Z</time></trkpt><trkpt lat="46.022809350525876" lon="13.270416200339255"><ele>85.0</ele><time>2026-04-08T14:37:46.999Z</time></trkpt><trkpt lat="46.02284809750196" lon="13.270598753799893"><ele>85.0</ele><time>2026-04-08T14:37:47.999Z</time></trkpt><trkpt lat="46.02288626282299" lon="13.270774020578429"><ele>85.0</ele><time>2026-04-08T14:37:48.999Z</time></trkpt><trkpt lat="46.02292175075857" lon="13.270944342609813"><ele>85.0</ele><time>2026-04-08T14:37:49.999Z</time></trkpt><trkpt lat="46.02295970515987" lon="13.271114519450446"><ele>85.0</ele><time>2026-04-08T14:37:50.999Z</time></trkpt><trkpt lat="46.02300129072169" lon="13.271281579450449"><ele>85.0</ele><time>2026-04-08T14:37:51.999Z</time></trkpt><trkpt lat="46.023043532839026" lon="13.271434701526328"><ele>85.0</ele><time>2026-04-08T14:37:52.999Z</time></trkpt><trkpt lat="46.02308903474036" lon="13.271586494511157"><ele>84.5</ele><time>2026-04-08T14:37:53.999Z</time></trkpt><trkpt lat="46.02313800941065" lon="13.27173730372046"><ele>84.0</ele><time>2026-04-08T14:37:54.999Z</time></trkpt><trkpt lat="46.023190847083974" lon="13.27188895725613"><ele>83.5</ele><time>2026-04-08T14:37:55.999Z</time></trkpt><trkpt lat="46.02324710078662" lon="13.272043684802018"><ele>83.0</ele><time>2026-04-08T14:37:56.999Z</time></trkpt><trkpt lat="46.023309549990955" lon="13.272202801612242"><ele>83.5</ele><time>2026-04-08T14:37:58Z</time></trkpt><trkpt lat="46.023379003420374" lon="13.272367868106214"><ele>84.0</ele><time>2026-04-08T14:37:59Z</time></trkpt><trkpt lat="46.02345303592007" lon="13.27253659099225"><ele>84.5</ele><time>2026-04-08T14:38:00Z</time></trkpt><trkpt lat="46.02352999525876" lon="13.272707595421823"><ele>85.0</ele><time>2026-04-08T14:38:01Z</time></trkpt><trkpt lat="46.0236012617624" lon="13.272879438781239"><ele>85.0</ele><time>2026-04-08T14:38:02Z</time></trkpt><trkpt lat="46.02366514411506" lon="13.273058402293652"><ele>85.0</ele><time>2026-04-08T14:38:03Z</time></trkpt><trkpt lat="46.02372509652108" lon="13.273251112751497"><ele>85.0</ele><time>2026-04-08T14:38:04Z</time></trkpt><trkpt lat="46.02378074308386" lon="13.273455083730092"><ele>85.0</ele><time>2026-04-08T14:38:05Z</time></trkpt><trkpt lat="46.02383508031213" lon="13.273667476883697"><ele>84.66666666666666</ele><time>2026-04-08T14:38:06Z</time></trkpt><trkpt lat="46.02388741745481" lon="13.273881892661233"><ele>84.33333333333333</ele><time>2026-04-08T14:38:07Z</time></trkpt><trkpt lat="46.02394071248415" lon="13.274099338800763"><ele>84.0</ele><time>2026-04-08T14:38:08Z</time></trkpt><trkpt lat="46.02399580553413" lon="13.274313689885046"><ele>84.0</ele><time>2026-04-08T14:38:09Z</time></trkpt><trkpt lat="46.02405009591423" lon="13.274526944601053"><ele>84.0</ele><time>2026-04-08T14:38:10Z</time></trkpt><trkpt lat="46.02410249135264" lon="13.27473956759396"><ele>84.0</ele><time>2026-04-08T14:38:11Z</time></trkpt><trkpt lat="46.02415411577772" lon="13.27494798534035"><ele>84.33333333333333</ele><time>2026-04-08T14:38:12Z</time></trkpt><trkpt lat="46.02420663055606" lon="13.275152895590018"><ele>84.66666666666666</ele><time>2026-04-08T14:38:13Z</time></trkpt><trkpt lat="46.02425788829329" lon="13.275359670288692"><ele>85.0</ele><time>2026-04-08T14:38:14Z</time></trkpt><trkpt lat="46.02431195392849" lon="13.275575422655992"><ele>85.0</ele><time>2026-04-08T14:38:15Z</time></trkpt><trkpt lat="46.02436335076228" lon="13.27579423506294"><ele>85.0</ele><time>2026-04-08T14:38:16Z</time></trkpt><trkpt lat="46.0244165415396" lon="13.276013498482287"><ele>85.0</ele><time>2026-04-08T14:38:17Z</time></trkpt><trkpt lat="46.02447275261086" lon="13.276230754034062"><ele>85.0</ele><time>2026-04-08T14:38:18Z</time></trkpt><trkpt lat="46.0245295960346" lon="13.276448094680763"><ele>85.0</ele><time>2026-04-08T14:38:19Z</time></trkpt><trkpt lat="46.0245873810369" lon="13.276662970002304"><ele>85.0</ele><time>2026-04-08T14:38:20Z</time></trkpt><trkpt lat="46.02463716796671" lon="13.27688205942794"><ele>85.0</ele><time>2026-04-08T14:38:21Z</time></trkpt><trkpt lat="46.024720605186516" lon="13.277091809811354"><ele>85.0</ele><time>2026-04-08T14:38:22Z</time></trkpt><trkpt lat="46.024782887876356" lon="13.277313800630266"><ele>85.0</ele><time>2026-04-08T14:38:23Z</time></trkpt><trkpt lat="46.02484940435441" lon="13.277535845814688"><ele>85.33333333333333</ele><time>2026-04-08T14:38:24Z</time></trkpt><trkpt lat="46.02491450516999" lon="13.277746737343174"><ele>85.66666666666667</ele><time>2026-04-08T14:38:25Z</time></trkpt><trkpt lat="46.02497782385987" lon="13.277948563894025"><ele>86.0</ele><time>2026-04-08T14:38:26Z</time></trkpt><trkpt lat="46.0250297784991" lon="13.278152984777321"><ele>86.0</ele><time>2026-04-08T14:38:27Z</time></trkpt><trkpt lat="46.02511781759992" lon="13.278334316193792"><ele>86.0</ele><time>2026-04-08T14:38:28Z</time></trkpt><trkpt lat="46.025200503222024" lon="13.278522485882503"><ele>86.0</ele><time>2026-04-08T14:38:29Z</time></trkpt><trkpt lat="46.02529656425066" lon="13.278705517607943"><ele>86.0</ele><time>2026-04-08T14:38:30Z</time></trkpt><trkpt lat="46.02539988990004" lon="13.278888700683906"><ele>86.0</ele><time>2026-04-08T14:38:31Z</time></trkpt><trkpt lat="46.02551405694258" lon="13.27908071818471"><ele>86.0</ele><time>2026-04-08T14:38:32Z</time></trkpt><trkpt lat="46.02564216708216" lon="13.27928269812856"><ele>86.66666666666667</ele><time>2026-04-08T14:38:33Z</time></trkpt><trkpt lat="46.0257794320587" lon="13.279494023006478"><ele>87.33333333333333</ele><time>2026-04-08T14:38:34Z</time></trkpt><trkpt lat="46.02592386625711" lon="13.279707457619276"><ele>88.0</ele><time>2026-04-08T14:38:35Z</time></trkpt><trkpt lat="46.0260639845609" lon="13.279937123070857"><ele>87.0</ele><time>2026-04-08T14:38:36Z</time></trkpt><trkpt lat="46.026201294329354" lon="13.280177482784175"><ele>86.0</ele><time>2026-04-08T14:38:37Z</time></trkpt><trkpt lat="46.026338408769114" lon="13.280413522584917"><ele>85.0</ele><time>2026-04-08T14:38:38Z</time></trkpt><trkpt lat="46.026472478579976" lon="13.28065132471316"><ele>85.0</ele><time>2026-04-08T14:38:39Z</time></trkpt><trkpt lat="46.02660104524002" lon="13.280890827002144"><ele>85.0</ele><time>2026-04-08T14:38:40Z</time></trkpt><trkpt lat="46.02672729403702" lon="13.28112373930464"><ele>85.0</ele><time>2026-04-08T14:38:41Z</time></trkpt><trkpt lat="46.02686348718311" lon="13.281344093866437"><ele>85.33333333333333</ele><time>2026-04-08T14:38:42Z</time></trkpt><trkpt lat="46.02701258676356" lon="13.281547491831663"><ele>85.66666666666667</ele><time>2026-04-08T14:38:43Z</time></trkpt><trkpt lat="46.02717697404027" lon="13.281731277876153"><ele>86.0</ele><time>2026-04-08T14:38:44Z</time></trkpt><trkpt lat="46.0273467613139" lon="13.281887612637481"><ele>86.0</ele><time>2026-04-08T14:38:45Z</time></trkpt><trkpt lat="46.02751668824409" lon="13.282030807610912"><ele>86.0</ele><time>2026-04-08T14:38:46Z</time></trkpt><trkpt lat="46.02768059731786" lon="13.282172415354305"><ele>86.0</ele><time>2026-04-08T14:38:47Z</time></trkpt><trkpt lat="46.02783126487345" lon="13.282303910784737"><ele>86.0</ele><time>2026-04-08T14:38:48Z</time></trkpt><trkpt lat="46.02796840802391" lon="13.282421662605753"><ele>86.0</ele><time>2026-04-08T14:38:49Z</time></trkpt><trkpt lat="46.02808868434854" lon="13.282527267026111"><ele>86.0</ele><time>2026-04-08T14:38:50Z</time></trkpt><trkpt lat="46.02820233228115" lon="13.282631646736563"><ele>86.0</ele><time>2026-04-08T14:38:51Z</time></trkpt><trkpt lat="46.02831466613078" lon="13.282734685961383"><ele>86.25</ele><time>2026-04-08T14:38:52Z</time></trkpt><trkpt lat="46.0284312071356" lon="13.282839099598425"><ele>86.5</ele><time>2026-04-08T14:38:53Z</time></trkpt><trkpt lat="46.02854103542209" lon="13.282936358751677"><ele>86.75</ele><time>2026-04-08T14:38:54Z</time></trkpt><trkpt lat="46.02864053519158" lon="13.283027228981034"><ele>87.0</ele><time>2026-04-08T14:38:55Z</time></trkpt><trkpt lat="46.028735460442356" lon="13.283112050169978"><ele>87.0</ele><time>2026-04-08T14:38:56Z</time></trkpt><trkpt lat="46.028821125166004" lon="13.283187166560015"><ele>87.0</ele><time>2026-04-08T14:38:57Z</time></trkpt><trkpt lat="46.028902963657174" lon="13.28326240406665"><ele>87.0</ele><time>2026-04-08T14:38:58Z</time></trkpt><trkpt lat="46.028988658509064" lon="13.283340330320812"><ele>87.0</ele><time>2026-04-08T14:38:59Z</time></trkpt><trkpt lat="46.02907634282944" lon="13.283419888355061"><ele>87.0</ele><time>2026-04-08T14:39:00Z</time></trkpt><trkpt lat="46.02916440245918" lon="13.28350147181722"><ele>86.75</ele><time>2026-04-08T14:39:01Z</time></trkpt><trkpt lat="46.02925387621162" lon="13.28358405403039"><ele>86.5</ele><time>2026-04-08T14:39:02Z</time></trkpt><trkpt lat="46.029348149046044" lon="13.283668641999437"><ele>86.25</ele><time>2026-04-08T14:39:03Z</time></trkpt><trkpt lat="46.029450503397904" lon="13.283760405823134"><ele>86.0</ele><time>2026-04-08T14:39:04Z</time></trkpt><trkpt lat="46.029553464564316" lon="13.283855760678861"><ele>85.75</ele><time>2026-04-08T14:39:05Z</time></trkpt><trkpt lat="46.02966194781627" lon="13.283954249550463"><ele>85.5</ele><time>2026-04-08T14:39:06Z</time></trkpt><trkpt lat="46.029776530209354" lon="13.284056873724456"><ele>85.25</ele><time>2026-04-08T14:39:07Z</time></trkpt><trkpt lat="46.02989469229282" lon="13.28416624142069"><ele>85.0</ele><time>2026-04-08T14:39:08Z</time></trkpt><trkpt lat="46.03001435124696" lon="13.284276156110597"><ele>86.0</ele><time>2026-04-08T14:39:09Z</time></trkpt><trkpt lat="46.03013356465804" lon="13.28438203013992"><ele>87.0</ele><time>2026-04-08T14:39:10Z</time></trkpt><trkpt lat="46.030250650769176" lon="13.284485253924391"><ele>88.0</ele><time>2026-04-08T14:39:11Z</time></trkpt><trkpt lat="46.03036606140819" lon="13.28458935620141"><ele>89.0</ele><time>2026-04-08T14:39:12Z</time></trkpt><trkpt lat="46.03048026001339" lon="13.284696532352614"><ele>88.75</ele><time>2026-04-08T14:39:13Z</time></trkpt><trkpt lat="46.030596526459036" lon="13.284803200613155"><ele>88.5</ele><time>2026-04-08T14:39:14Z</time></trkpt><trkpt lat="46.030711855616225" lon="13.284904614191557"><ele>88.25</ele><time>2026-04-08T14:39:15Z</time></trkpt><trkpt lat="46.03082545196973" lon="13.285003701892153"><ele>88.0</ele><time>2026-04-08T14:39:16Z</time></trkpt><trkpt lat="46.03093890609869" lon="13.285105484262344"><ele>88.0</ele><time>2026-04-08T14:39:17Z</time></trkpt><trkpt lat="46.031053144792395" lon="13.285210842421106"><ele>88.0</ele><time>2026-04-08T14:39:18Z</time></trkpt><trkpt lat="46.03116916754655" lon="13.285315167945468"><ele>88.0</ele><time>2026-04-08T14:39:19Z</time></trkpt><trkpt lat="46.03128514180654" lon="13.285417464389395"><ele>88.0</ele><time>2026-04-08T14:39:20Z</time></trkpt><trkpt lat="46.031399940647766" lon="13.285517802325385"><ele>88.0</ele><time>2026-04-08T14:39:21Z</time></trkpt><trkpt lat="46.03151283072135" lon="13.28562011839763"><ele>88.0</ele><time>2026-04-08T14:39:22Z</time></trkpt><trkpt lat="46.03162383391366" lon="13.285723137768722"><ele>88.0</ele><time>2026-04-08T14:39:23Z</time></trkpt><trkpt lat="46.0317349505641" lon="13.285824655339955"><ele>88.0</ele><time>2026-04-08T14:39:24Z</time></trkpt><trkpt lat="46.03184534038137" lon="13.285928339194475"><ele>88.0</ele><time>2026-04-08T14:39:25Z</time></trkpt><trkpt lat="46.031954784135195" lon="13.28603573646006"><ele>88.0</ele><time>2026-04-08T14:39:26Z</time></trkpt><trkpt lat="46.03206158777147" lon="13.286150373497053"><ele>88.0</ele><time>2026-04-08T14:39:27Z</time></trkpt><trkpt lat="46.03216105795754" lon="13.286277033885053"><ele>88.0</ele><time>2026-04-08T14:39:28Z</time></trkpt><trkpt lat="46.03226146289485" lon="13.286417608268518"><ele>88.0</ele><time>2026-04-08T14:39:29Z</time></trkpt><trkpt lat="46.03236516740654" lon="13.28656729449208"><ele>88.0</ele><time>2026-04-08T14:39:30Z</time></trkpt><trkpt lat="46.03247051170055" lon="13.286719640804614"><ele>88.0</ele><time>2026-04-08T14:39:31Z</time></trkpt><trkpt lat="46.032579202980585" lon="13.286879473644838"><ele>87.66666666666666</ele><time>2026-04-08T14:39:32Z</time></trkpt><trkpt lat="46.03269142141058" lon="13.28704255780064"><ele>87.33333333333333</ele><time>2026-04-08T14:39:33Z</time></trkpt><trkpt lat="46.03280787564261" lon="13.287209662481397"><ele>87.0</ele><time>2026-04-08T14:39:34Z</time></trkpt><trkpt lat="46.03292971178531" lon="13.287385086071069"><ele>86.66666666666667</ele><time>2026-04-08T14:39:35Z</time></trkpt><trkpt lat="46.03305382801625" lon="13.287566075084543"><ele>86.33333333333334</ele><time>2026-04-08T14:39:36Z</time></trkpt><trkpt lat="46.03318155554453" lon="13.287752895236173"><ele>86.0</ele><time>2026-04-08T14:39:37Z</time></trkpt><trkpt lat="46.03331221022455" lon="13.287942432837356"><ele>86.66666666666667</ele><time>2026-04-08T14:39:38Z</time></trkpt><trkpt lat="46.03344386089854" lon="13.288127238740495"><ele>87.33333333333333</ele><time>2026-04-08T14:39:39Z</time></trkpt><trkpt lat="46.03357188638376" lon="13.288309138186486"><ele>88.0</ele><time>2026-04-08T14:39:40Z</time></trkpt><trkpt lat="46.03369436251122" lon="13.288486538188165"><ele>88.0</ele><time>2026-04-08T14:39:40.999Z</time></trkpt><trkpt lat="46.03382099617182" lon="13.28866916024565"><ele>88.0</ele><time>2026-04-08T14:39:41.999Z</time></trkpt><trkpt lat="46.03396055191742" lon="13.28886532559477"><ele>88.0</ele><time>2026-04-08T14:39:42.999Z</time></trkpt><trkpt lat="46.03411874580529" lon="13.289123956038445"><ele>88.0</ele><time>2026-04-08T14:39:43.999Z</time></trkpt><trkpt lat="46.0343316150984" lon="13.289438788041284"><ele>88.0</ele><time>2026-04-08T14:39:44.999Z</time></trkpt><trkpt lat="46.03455616798864" lon="13.289768968375379"><ele>88.0</ele><time>2026-04-08T14:39:45.999Z</time></trkpt><trkpt lat="46.03475852675315" lon="13.290064302237628"><ele>88.0</ele><time>2026-04-08T14:39:46.999Z</time></trkpt><trkpt lat="46.034955848569716" lon="13.290321742804188"><ele>88.0</ele><time>2026-04-08T14:39:47.999Z</time></trkpt><trkpt lat="46.035134629127924" lon="13.290589065087564"><ele>88.0</ele><time>2026-04-08T14:39:48.999Z</time></trkpt><trkpt lat="46.03529990129554" lon="13.290830834621906"><ele>88.0</ele><time>2026-04-08T14:39:49.999Z</time></trkpt><trkpt lat="46.03545643443984" lon="13.291058473938376"><ele>88.0</ele><time>2026-04-08T14:39:50.999Z</time></trkpt><trkpt lat="46.035601346109935" lon="13.291272500655344"><ele>88.0</ele><time>2026-04-08T14:39:51.999Z</time></trkpt><trkpt lat="46.03573662940967" lon="13.291472933650896"><ele>88.66666666666666</ele><time>2026-04-08T14:39:52.999Z</time></trkpt><trkpt lat="46.03586217215539" lon="13.291656035345605"><ele>89.33333333333333</ele><time>2026-04-08T14:39:53.999Z</time></trkpt><trkpt lat="46.03598504298657" lon="13.291833608378306"><ele>90.0</ele><time>2026-04-08T14:39:54.999Z</time></trkpt><trkpt lat="46.0361015823057" lon="13.292001823971898"><ele>90.0</ele><time>2026-04-08T14:39:55.999Z</time></trkpt><trkpt lat="46.036209599559136" lon="13.292163726428097"><ele>90.0</ele><time>2026-04-08T14:39:56.999Z</time></trkpt><trkpt lat="46.03630893235488" lon="13.292310833018341"><ele>90.0</ele><time>2026-04-08T14:39:57.999Z</time></trkpt><trkpt lat="46.03640217464821" lon="13.292445216877434"><ele>90.0</ele><time>2026-04-08T14:39:58.999Z</time></trkpt><trkpt lat="46.03648820316472" lon="13.2925676098441"><ele>90.0</ele><time>2026-04-08T14:39:59.999Z</time></trkpt><trkpt lat="46.03656855925611" lon="13.292687820100141"><ele>90.0</ele><time>2026-04-08T14:40:00.999Z</time></trkpt><trkpt lat="46.036635058649516" lon="13.292816179652137"><ele>90.0</ele><time>2026-04-08T14:40:01.999Z</time></trkpt><trkpt lat="46.03668826866518" lon="13.292950316622957"><ele>90.0</ele><time>2026-04-08T14:40:02.999Z</time></trkpt><trkpt lat="46.036643073853405" lon="13.293147411535063"><ele>89.8</ele><time>2026-04-08T14:40:04Z</time></trkpt><trkpt lat="46.036640833173664" lon="13.293297621347786"><ele>89.6</ele><time>2026-04-08T14:40:05Z</time></trkpt><trkpt lat="46.03665945418287" lon="13.293441716557865"><ele>89.4</ele><time>2026-04-08T14:40:06Z</time></trkpt><trkpt lat="46.03671186736894" lon="13.29358227601854"><ele>89.2</ele><time>2026-04-08T14:40:07Z</time></trkpt><trkpt lat="46.03680442968016" lon="13.293679297635306"><ele>89.0</ele><time>2026-04-08T14:40:08Z</time></trkpt><trkpt lat="46.03689973846316" lon="13.29374346903404"><ele>89.0</ele><time>2026-04-08T14:40:09Z</time></trkpt><trkpt lat="46.037003608755185" lon="13.293765546641977"><ele>89.0</ele><time>2026-04-08T14:40:10Z</time></trkpt><trkpt lat="46.03710815071991" lon="13.293774763181577"><ele>89.0</ele><time>2026-04-08T14:40:11Z</time></trkpt><trkpt lat="46.03720388939046" lon="13.293747150348704"><ele>89.0</ele><time>2026-04-08T14:40:12Z</time></trkpt><trkpt lat="46.03731111853954" lon="13.293885759786615"><ele>89.0</ele><time>2026-04-08T14:40:13Z</time></trkpt><trkpt lat="46.0374041257293" lon="13.294008829724323"><ele>89.0</ele><time>2026-04-08T14:40:14Z</time></trkpt><trkpt lat="46.03748480392774" lon="13.294158149575345"><ele>89.0</ele><time>2026-04-08T14:40:15Z</time></trkpt><trkpt lat="46.03756633185334" lon="13.294316549639321"><ele>89.0</ele><time>2026-04-08T14:40:16Z</time></trkpt><trkpt lat="46.037653988416444" lon="13.29448852541188"><ele>88.66666666666667</ele><time>2026-04-08T14:40:17Z</time></trkpt><trkpt lat="46.03774507821285" lon="13.294675344945784"><ele>88.33333333333333</ele><time>2026-04-08T14:40:18Z</time></trkpt><trkpt lat="46.03784235457651" lon="13.29487380818847"><ele>88.0</ele><time>2026-04-08T14:40:19Z</time></trkpt><trkpt lat="46.03794123581906" lon="13.29508658203463"><ele>88.0</ele><time>2026-04-08T14:40:20Z</time></trkpt><trkpt lat="46.038036197445756" lon="13.29530151174123"><ele>88.0</ele><time>2026-04-08T14:40:21Z</time></trkpt><trkpt lat="46.038127365654105" lon="13.295514526753552"><ele>88.0</ele><time>2026-04-08T14:40:22Z</time></trkpt><trkpt lat="46.03821443960182" lon="13.295717038229848"><ele>88.0</ele><time>2026-04-08T14:40:23Z</time></trkpt><trkpt lat="46.038300531909805" lon="13.295919019853791"><ele>88.0</ele><time>2026-04-08T14:40:24Z</time></trkpt><trkpt lat="46.03838756692117" lon="13.296123612648161"><ele>88.0</ele><time>2026-04-08T14:40:25Z</time></trkpt><trkpt lat="46.03847836688428" lon="13.296335897241422"><ele>89.33333333333333</ele><time>2026-04-08T14:40:26Z</time></trkpt><trkpt lat="46.03857775243272" lon="13.296561974535788"><ele>90.66666666666667</ele><time>2026-04-08T14:40:27Z</time></trkpt><trkpt lat="46.038675702056736" lon="13.296790403458479"><ele>92.0</ele><time>2026-04-08T14:40:28Z</time></trkpt><trkpt lat="46.038769251686816" lon="13.297012960147233"><ele>92.0</ele><time>2026-04-08T14:40:29Z</time></trkpt><trkpt lat="46.038857632743714" lon="13.297222427860651"><ele>92.0</ele><time>2026-04-08T14:40:30Z</time></trkpt><trkpt lat="46.03894262218009" lon="13.297424883502444"><ele>92.0</ele><time>2026-04-08T14:40:31Z</time></trkpt><trkpt lat="46.03902276703139" lon="13.297625178391616"><ele>91.66666666666667</ele><time>2026-04-08T14:40:32Z</time></trkpt><trkpt lat="46.039102837253886" lon="13.29782873204413"><ele>91.33333333333333</ele><time>2026-04-08T14:40:33Z</time></trkpt><trkpt lat="46.039179382379" lon="13.298043474570829"><ele>91.0</ele><time>2026-04-08T14:40:34Z</time></trkpt><trkpt lat="46.0392539502207" lon="13.298269035922456"><ele>90.33333333333333</ele><time>2026-04-08T14:40:35Z</time></trkpt><trkpt lat="46.039325782472666" lon="13.298490638444827"><ele>89.66666666666667</ele><time>2026-04-08T14:40:36Z</time></trkpt><trkpt lat="46.039393064434705" lon="13.298698565774579"><ele>89.0</ele><time>2026-04-08T14:40:37Z</time></trkpt><trkpt lat="46.03945788228826" lon="13.298899003330533"><ele>88.33333333333334</ele><time>2026-04-08T14:40:38Z</time></trkpt><trkpt lat="46.0395169521124" lon="13.29909368091447"><ele>87.66666666666667</ele><time>2026-04-08T14:40:39Z</time></trkpt><trkpt lat="46.03956977172803" lon="13.299289780418093"><ele>87.0</ele><time>2026-04-08T14:40:40Z</time></trkpt><trkpt lat="46.039619055076585" lon="13.299519004683113"><ele>87.0</ele><time>2026-04-08T14:40:41Z</time></trkpt><trkpt lat="46.0396602373238" lon="13.299762476466988"><ele>87.0</ele><time>2026-04-08T14:40:42Z</time></trkpt><trkpt lat="46.039677779867866" lon="13.300000662312227"><ele>87.0</ele><time>2026-04-08T14:40:43Z</time></trkpt><trkpt lat="46.03972625373136" lon="13.300220341229814"><ele>87.0</ele><time>2026-04-08T14:40:44Z</time></trkpt><trkpt lat="46.03975697409782" lon="13.30043855380669"><ele>87.0</ele><time>2026-04-08T14:40:45Z</time></trkpt><trkpt lat="46.03978860382126" lon="13.300651524978507"><ele>87.0</ele><time>2026-04-08T14:40:46Z</time></trkpt><trkpt lat="46.039821421729584" lon="13.3008678183714"><ele>87.33333333333333</ele><time>2026-04-08T14:40:47Z</time></trkpt><trkpt lat="46.03983891100257" lon="13.301098528712336"><ele>87.66666666666666</ele><time>2026-04-08T14:40:48Z</time></trkpt><trkpt lat="46.039872876764015" lon="13.301330459883681"><ele>88.0</ele><time>2026-04-08T14:40:49Z</time></trkpt><trkpt lat="46.03990704047163" lon="13.301564319301225"><ele>88.0</ele><time>2026-04-08T14:40:50Z</time></trkpt><trkpt lat="46.03994105446222" lon="13.301797230511887"><ele>88.0</ele><time>2026-04-08T14:40:51Z</time></trkpt><trkpt lat="46.03997485678254" lon="13.30202869238843"><ele>88.0</ele><time>2026-04-08T14:40:52Z</time></trkpt><trkpt lat="46.04000799805729" lon="13.302255627702023"><ele>87.66666666666666</ele><time>2026-04-08T14:40:53Z</time></trkpt><trkpt lat="46.040040345696944" lon="13.302477128670644"><ele>87.33333333333333</ele><time>2026-04-08T14:40:54Z</time></trkpt><trkpt lat="46.040072414715794" lon="13.302696721784882"><ele>87.0</ele><time>2026-04-08T14:40:55Z</time></trkpt><trkpt lat="46.04010455583779" lon="13.302916808571714"><ele>87.0</ele><time>2026-04-08T14:40:56Z</time></trkpt><trkpt lat="46.040138026027186" lon="13.303140082121642"><ele>87.0</ele><time>2026-04-08T14:40:57Z</time></trkpt><trkpt lat="46.0401875715519" lon="13.30336067020412"><ele>87.0</ele><time>2026-04-08T14:40:58Z</time></trkpt><trkpt lat="46.04021680048856" lon="13.30358947820934"><ele>87.0</ele><time>2026-04-08T14:40:59Z</time></trkpt><trkpt lat="46.04024352086296" lon="13.303816991750876"><ele>87.0</ele><time>2026-04-08T14:41:00Z</time></trkpt><trkpt lat="46.040267503516304" lon="13.30403584675918"><ele>87.0</ele><time>2026-04-08T14:41:01Z</time></trkpt><trkpt lat="46.04028891371659" lon="13.304246521806055"><ele>87.0</ele><time>2026-04-08T14:41:02Z</time></trkpt><trkpt lat="46.04030694295755" lon="13.304449879492848"><ele>87.0</ele><time>2026-04-08T14:41:03Z</time></trkpt><trkpt lat="46.040324449426734" lon="13.304648128088218"><ele>87.0</ele><time>2026-04-08T14:41:04Z</time></trkpt><trkpt lat="46.0403423702017" lon="13.30484624466454"><ele>87.0</ele><time>2026-04-08T14:41:05Z</time></trkpt><trkpt lat="46.040358278169144" lon="13.305028848106335"><ele>87.0</ele><time>2026-04-08T14:41:06Z</time></trkpt><trkpt lat="46.040373605992386" lon="13.305190821049035"><ele>87.0</ele><time>2026-04-08T14:41:07Z</time></trkpt><trkpt lat="46.040387862224826" lon="13.305343585530151"><ele>87.0</ele><time>2026-04-08T14:41:08Z</time></trkpt><trkpt lat="46.040399617057666" lon="13.305472811648231"><ele>87.0</ele><time>2026-04-08T14:41:09Z</time></trkpt><trkpt lat="46.040409128195066" lon="13.305586881988148"><ele>87.0</ele><time>2026-04-08T14:41:10Z</time></trkpt><trkpt lat="46.040418191404804" lon="13.305688746711033"><ele>87.0</ele><time>2026-04-08T14:41:11Z</time></trkpt><trkpt lat="46.0404266921948" lon="13.305781566248399"><ele>87.0</ele><time>2026-04-08T14:41:12Z</time></trkpt><trkpt lat="46.04043834285448" lon="13.305932770889601"><ele>87.0</ele><time>2026-04-08T14:41:14Z</time></trkpt><trkpt lat="46.04043923673084" lon="13.306090054757007"><ele>87.0</ele><time>2026-04-08T14:41:16Z</time></trkpt><trkpt lat="46.0404339466221" lon="13.306182224189037"><ele>87.0</ele><time>2026-04-08T14:41:17Z</time></trkpt><trkpt lat="46.040424641761646" lon="13.306286196563512"><ele>87.0</ele><time>2026-04-08T14:41:18Z</time></trkpt><trkpt lat="46.040434174727224" lon="13.306393010736484"><ele>87.39999999999999</ele><time>2026-04-08T14:41:19Z</time></trkpt><trkpt lat="46.04046890755926" lon="13.30649712616687"><ele>87.8</ele><time>2026-04-08T14:41:20Z</time></trkpt><trkpt lat="46.04051619523778" lon="13.306611964230983"><ele>88.2</ele><time>2026-04-08T14:41:21Z</time></trkpt><trkpt lat="46.04055727758594" lon="13.306747815793441"><ele>88.6</ele><time>2026-04-08T14:41:22Z</time></trkpt><trkpt lat="46.040597198881514" lon="13.306894158394396"><ele>89.0</ele><time>2026-04-08T14:41:23Z</time></trkpt><trkpt lat="46.040639165714836" lon="13.307057940360195"><ele>89.0</ele><time>2026-04-08T14:41:24Z</time></trkpt><trkpt lat="46.040682632028904" lon="13.307224312070234"><ele>89.0</ele><time>2026-04-08T14:41:25Z</time></trkpt><trkpt lat="46.04072559329075" lon="13.307389439640513"><ele>89.0</ele><time>2026-04-08T14:41:26Z</time></trkpt><trkpt lat="46.04077029349202" lon="13.307560618613069"><ele>89.0</ele><time>2026-04-08T14:41:27Z</time></trkpt><trkpt lat="46.040816773682245" lon="13.307737814516063"><ele>89.0</ele><time>2026-04-08T14:41:28Z</time></trkpt><trkpt lat="46.040861010830795" lon="13.307917543595257"><ele>89.0</ele><time>2026-04-08T14:41:29Z</time></trkpt><trkpt lat="46.0409041711544" lon="13.308094721821089"><ele>89.0</ele><time>2026-04-08T14:41:30Z</time></trkpt><trkpt lat="46.040948128387996" lon="13.308266205347065"><ele>89.0</ele><time>2026-04-08T14:41:31Z</time></trkpt><trkpt lat="46.040989030099716" lon="13.30844296878335"><ele>89.0</ele><time>2026-04-08T14:41:32Z</time></trkpt><trkpt lat="46.041031171603876" lon="13.308622775687082"><ele>89.0</ele><time>2026-04-08T14:41:33Z</time></trkpt><trkpt lat="46.04108106115138" lon="13.308800002525494"><ele>89.0</ele><time>2026-04-08T14:41:34Z</time></trkpt><trkpt lat="46.04114199643216" lon="13.308978993400471"><ele>89.0</ele><time>2026-04-08T14:41:35Z</time></trkpt><trkpt lat="46.04121586172699" lon="13.30916035986529"><ele>88.66666666666667</ele><time>2026-04-08T14:41:36Z</time></trkpt><trkpt lat="46.04130257958835" lon="13.30934057497117"><ele>88.33333333333333</ele><time>2026-04-08T14:41:37Z</time></trkpt><trkpt lat="46.04140337578166" lon="13.30951611227062"><ele>88.0</ele><time>2026-04-08T14:41:38Z</time></trkpt><trkpt lat="46.04151582883113" lon="13.309685838907019"><ele>87.66666666666666</ele><time>2026-04-08T14:41:39Z</time></trkpt><trkpt lat="46.041637891398864" lon="13.309841754647405"><ele>87.33333333333333</ele><time>2026-04-08T14:41:40Z</time></trkpt><trkpt lat="46.04176993045002" lon="13.309981978834594"><ele>87.0</ele><time>2026-04-08T14:41:41Z</time></trkpt><trkpt lat="46.04190872927121" lon="13.310107254592552"><ele>87.0</ele><time>2026-04-08T14:41:42Z</time></trkpt><trkpt lat="46.04205486747731" lon="13.310213510481875"><ele>87.0</ele><time>2026-04-08T14:41:43Z</time></trkpt><trkpt lat="46.04220645355558" lon="13.310303691021621"><ele>87.0</ele><time>2026-04-08T14:41:43.999Z</time></trkpt><trkpt lat="46.042359884649336" lon="13.310391062830895"><ele>86.0</ele><time>2026-04-08T14:41:44.999Z</time></trkpt><trkpt lat="46.04251298892187" lon="13.310477058620553"><ele>85.0</ele><time>2026-04-08T14:41:45.999Z</time></trkpt><trkpt lat="46.04266653318701" lon="13.310564817628354"><ele>84.0</ele><time>2026-04-08T14:41:46.999Z</time></trkpt><trkpt lat="46.04281849311907" lon="13.310655551704343"><ele>84.0</ele><time>2026-04-08T14:41:47.999Z</time></trkpt><trkpt lat="46.042972684024626" lon="13.310745652515239"><ele>84.0</ele><time>2026-04-08T14:41:48.999Z</time></trkpt><trkpt lat="46.04313004527667" lon="13.310834147215557"><ele>84.0</ele><time>2026-04-08T14:41:49.999Z</time></trkpt><trkpt lat="46.043279995815695" lon="13.310919273038888"><ele>84.5</ele><time>2026-04-08T14:41:50.999Z</time></trkpt><trkpt lat="46.043414445769514" lon="13.310994488274776"><ele>85.0</ele><time>2026-04-08T14:41:51.999Z</time></trkpt><trkpt lat="46.04354186072049" lon="13.311066838797226"><ele>85.5</ele><time>2026-04-08T14:41:52.999Z</time></trkpt><trkpt lat="46.043671900744066" lon="13.311141924491851"><ele>86.0</ele><time>2026-04-08T14:41:53.999Z</time></trkpt><trkpt lat="46.04379796833667" lon="13.311212923929643"><ele>86.0</ele><time>2026-04-08T14:41:54.999Z</time></trkpt><trkpt lat="46.043921373415294" lon="13.311283847689314"><ele>86.0</ele><time>2026-04-08T14:41:55.999Z</time></trkpt><trkpt lat="46.04404858405403" lon="13.311361373558944"><ele>86.0</ele><time>2026-04-08T14:41:56.999Z</time></trkpt><trkpt lat="46.044180989708366" lon="13.311436876263125"><ele>86.0</ele><time>2026-04-08T14:41:57.999Z</time></trkpt><trkpt lat="46.04431424495393" lon="13.311515072521003"><ele>86.66666666666667</ele><time>2026-04-08T14:41:58.999Z</time></trkpt><trkpt lat="46.04445059737367" lon="13.311595417131128"><ele>87.33333333333333</ele><time>2026-04-08T14:41:59.999Z</time></trkpt><trkpt lat="46.044592625860176" lon="13.311677496404311"><ele>88.0</ele><time>2026-04-08T14:42:00.999Z</time></trkpt><trkpt lat="46.04473560998372" lon="13.311761504228608"><ele>88.0</ele><time>2026-04-08T14:42:01.999Z</time></trkpt><trkpt lat="46.044878805910024" lon="13.311845113975584"><ele>88.0</ele><time>2026-04-08T14:42:02.999Z</time></trkpt><trkpt lat="46.04502785947955" lon="13.311929976961135"><ele>88.0</ele><time>2026-04-08T14:42:03.999Z</time></trkpt><trkpt lat="46.045180435864054" lon="13.312019856858415"><ele>88.0</ele><time>2026-04-08T14:42:04.999Z</time></trkpt><trkpt lat="46.045338042960715" lon="13.312113782787987"><ele>88.0</ele><time>2026-04-08T14:42:05.999Z</time></trkpt><trkpt lat="46.04550150139521" lon="13.31220974705778"><ele>88.0</ele><time>2026-04-08T14:42:06.999Z</time></trkpt><trkpt lat="46.04567719706894" lon="13.312305713901464"><ele>88.0</ele><time>2026-04-08T14:42:07.999Z</time></trkpt><trkpt lat="46.04586371343497" lon="13.312396484269286"><ele>88.0</ele><time>2026-04-08T14:42:08.999Z</time></trkpt><trkpt lat="46.04605853302995" lon="13.312482633821903"><ele>88.0</ele><time>2026-04-08T14:42:10Z</time></trkpt><trkpt lat="46.04625960627386" lon="13.312559356007641"><ele>88.0</ele><time>2026-04-08T14:42:11Z</time></trkpt><trkpt lat="46.04646213742424" lon="13.312629101805975"><ele>88.0</ele><time>2026-04-08T14:42:12Z</time></trkpt><trkpt lat="46.04666423432139" lon="13.312696209170083"><ele>88.0</ele><time>2026-04-08T14:42:13Z</time></trkpt><trkpt lat="46.04686435712037" lon="13.31276251480502"><ele>88.0</ele><time>2026-04-08T14:42:14Z</time></trkpt><trkpt lat="46.047068871692765" lon="13.31283121884531"><ele>88.0</ele><time>2026-04-08T14:42:15Z</time></trkpt><trkpt lat="46.04728424845786" lon="13.312905960748818"><ele>88.0</ele><time>2026-04-08T14:42:16Z</time></trkpt><trkpt lat="46.04751079749775" lon="13.312982922330622"><ele>88.0</ele><time>2026-04-08T14:42:17Z</time></trkpt><trkpt lat="46.047744066148624" lon="13.313062774063988"><ele>88.0</ele><time>2026-04-08T14:42:18Z</time></trkpt><trkpt lat="46.04798180215626" lon="13.313143715352489"><ele>87.5</ele><time>2026-04-08T14:42:19Z</time></trkpt><trkpt lat="46.04821923228552" lon="13.313223768851827"><ele>87.0</ele><time>2026-04-08T14:42:20Z</time></trkpt><trkpt lat="46.048454860416484" lon="13.313303762491643"><ele>86.5</ele><time>2026-04-08T14:42:21Z</time></trkpt><trkpt lat="46.04868693457062" lon="13.313382105934148"><ele>86.0</ele><time>2026-04-08T14:42:22Z</time></trkpt><trkpt lat="46.04891072430836" lon="13.313457178832422"><ele>86.33333333333334</ele><time>2026-04-08T14:42:23Z</time></trkpt><trkpt lat="46.0491260008952" lon="13.313530803732162"><ele>86.66666666666667</ele><time>2026-04-08T14:42:24Z</time></trkpt><trkpt lat="46.049331573703135" lon="13.313600603845924"><ele>87.0</ele><time>2026-04-08T14:42:25Z</time></trkpt><trkpt lat="46.04953261749856" lon="13.313668866605337"><ele>87.0</ele><time>2026-04-08T14:42:26Z</time></trkpt><trkpt lat="46.04972920810164" lon="13.313734302717727"><ele>87.0</ele><time>2026-04-08T14:42:27Z</time></trkpt><trkpt lat="46.04992571094675" lon="13.313792719269587"><ele>87.0</ele><time>2026-04-08T14:42:28Z</time></trkpt><trkpt lat="46.050123727510396" lon="13.313838051969906"><ele>87.0</ele><time>2026-04-08T14:42:29Z</time></trkpt><trkpt lat="46.05032409478541" lon="13.313872869728543"><ele>87.0</ele><time>2026-04-08T14:42:30Z</time></trkpt><trkpt lat="46.050525240495034" lon="13.313897527195182"><ele>87.0</ele><time>2026-04-08T14:42:31Z</time></trkpt><trkpt lat="46.050724276473865" lon="13.31391173829897"><ele>88.0</ele><time>2026-04-08T14:42:32Z</time></trkpt><trkpt lat="46.05091958789469" lon="13.313920030168536"><ele>89.0</ele><time>2026-04-08T14:42:33Z</time></trkpt><trkpt lat="46.05110961106341" lon="13.313929919991406"><ele>90.0</ele><time>2026-04-08T14:42:34Z</time></trkpt><trkpt lat="46.05129373123511" lon="13.313938512832562"><ele>90.0</ele><time>2026-04-08T14:42:35Z</time></trkpt><trkpt lat="46.05147467385303" lon="13.313947673089713"><ele>90.0</ele><time>2026-04-08T14:42:36Z</time></trkpt><trkpt lat="46.05165240208061" lon="13.313955543691739"><ele>90.0</ele><time>2026-04-08T14:42:37Z</time></trkpt><trkpt lat="46.05182758021581" lon="13.313963695105027"><ele>89.66666666666667</ele><time>2026-04-08T14:42:38Z</time></trkpt><trkpt lat="46.05200045313535" lon="13.313971929011451"><ele>89.33333333333334</ele><time>2026-04-08T14:42:39Z</time></trkpt><trkpt lat="46.05216876550898" lon="13.313977434691013"><ele>89.0</ele><time>2026-04-08T14:42:40Z</time></trkpt><trkpt lat="46.05233102961271" lon="13.31398206431366"><ele>89.0</ele><time>2026-04-08T14:42:41Z</time></trkpt><trkpt lat="46.05247987701762" lon="13.313986023836955"><ele>89.0</ele><time>2026-04-08T14:42:42Z</time></trkpt><trkpt lat="46.05262106440924" lon="13.31399308946079"><ele>89.0</ele><time>2026-04-08T14:42:43Z</time></trkpt><trkpt lat="46.05275264557958" lon="13.314005136785525"><ele>89.0</ele><time>2026-04-08T14:42:44Z</time></trkpt><trkpt lat="46.05287304041047" lon="13.314028373874882"><ele>89.0</ele><time>2026-04-08T14:42:45Z</time></trkpt><trkpt lat="46.05299678975506" lon="13.314047338414376"><ele>89.0</ele><time>2026-04-08T14:42:46Z</time></trkpt><trkpt lat="46.05310759490355" lon="13.31410834221884"><ele>89.0</ele><time>2026-04-08T14:42:47Z</time></trkpt><trkpt lat="46.053215882958135" lon="13.314167959270415"><ele>89.0</ele><time>2026-04-08T14:42:48Z</time></trkpt><trkpt lat="46.05331238614386" lon="13.314215139376566"><ele>89.2</ele><time>2026-04-08T14:42:49Z</time></trkpt><trkpt lat="46.05341248425115" lon="13.31417089502387"><ele>89.4</ele><time>2026-04-08T14:42:50Z</time></trkpt><trkpt lat="46.05350473758651" lon="13.314104903144724"><ele>89.6</ele><time>2026-04-08T14:42:51Z</time></trkpt><trkpt lat="46.053617958122075" lon="13.314058853191032"><ele>89.8</ele><time>2026-04-08T14:42:52Z</time></trkpt><trkpt lat="46.053737762849934" lon="13.31404151212887"><ele>90.0</ele><time>2026-04-08T14:42:53Z</time></trkpt><trkpt lat="46.053858019611106" lon="13.314041126322396"><ele>90.0</ele><time>2026-04-08T14:42:54Z</time></trkpt><trkpt lat="46.05398430254566" lon="13.314051158503485"><ele>90.0</ele><time>2026-04-08T14:42:55Z</time></trkpt><trkpt lat="46.054120982383566" lon="13.314055940341566"><ele>90.0</ele><time>2026-04-08T14:42:56Z</time></trkpt><trkpt lat="46.05426556605502" lon="13.314057906439993"><ele>90.0</ele><time>2026-04-08T14:42:57Z</time></trkpt><trkpt lat="46.05441368783126" lon="13.314061318342585"><ele>90.0</ele><time>2026-04-08T14:42:58Z</time></trkpt><trkpt lat="46.05456111499339" lon="13.31406738988675"><ele>90.0</ele><time>2026-04-08T14:42:59Z</time></trkpt><trkpt lat="46.0547139802076" lon="13.314074551457242"><ele>90.0</ele><time>2026-04-08T14:43:00Z</time></trkpt><trkpt lat="46.054872404060546" lon="13.314076550911906"><ele>91.0</ele><time>2026-04-08T14:43:01Z</time></trkpt><trkpt lat="46.055034828098044" lon="13.314076792876707"><ele>92.0</ele><time>2026-04-08T14:43:02Z</time></trkpt><trkpt lat="46.05519816572133" lon="13.314075000762864"><ele>93.0</ele><time>2026-04-08T14:43:03Z</time></trkpt><trkpt lat="46.05536074415564" lon="13.314067004573147"><ele>93.0</ele><time>2026-04-08T14:43:04Z</time></trkpt><trkpt lat="46.05552260221261" lon="13.314053023787482"><ele>93.0</ele><time>2026-04-08T14:43:05Z</time></trkpt><trkpt lat="46.0556825544572" lon="13.314033202614716"><ele>93.0</ele><time>2026-04-08T14:43:06Z</time></trkpt><trkpt lat="46.055843841725014" lon="13.314009474598137"><ele>93.0</ele><time>2026-04-08T14:43:07Z</time></trkpt><trkpt lat="46.05600842980087" lon="13.313983997239587"><ele>93.0</ele><time>2026-04-08T14:43:08Z</time></trkpt><trkpt lat="46.056176001242164" lon="13.313953818541151"><ele>93.0</ele><time>2026-04-08T14:43:09Z</time></trkpt><trkpt lat="46.056346613218736" lon="13.313919065889609"><ele>93.0</ele><time>2026-04-08T14:43:10Z</time></trkpt><trkpt lat="46.056518655992754" lon="13.31388085876359"><ele>93.0</ele><time>2026-04-08T14:43:11Z</time></trkpt><trkpt lat="46.05668798565785" lon="13.31383917684795"><ele>93.0</ele><time>2026-04-08T14:43:12Z</time></trkpt><trkpt lat="46.05685335325325" lon="13.313790102439933"><ele>93.0</ele><time>2026-04-08T14:43:13Z</time></trkpt><trkpt lat="46.05701834790259" lon="13.313740055292275"><ele>93.0</ele><time>2026-04-08T14:43:14Z</time></trkpt><trkpt lat="46.057182037933174" lon="13.313689333663204"><ele>93.0</ele><time>2026-04-08T14:43:15Z</time></trkpt><trkpt lat="46.05734645685118" lon="13.313635136304477"><ele>93.0</ele><time>2026-04-08T14:43:16Z</time></trkpt><trkpt lat="46.0575107737826" lon="13.313573792578408"><ele>93.0</ele><time>2026-04-08T14:43:17Z</time></trkpt><trkpt lat="46.05767278477655" lon="13.313503274438311"><ele>93.0</ele><time>2026-04-08T14:43:18Z</time></trkpt><trkpt lat="46.05783188988512" lon="13.313432081928829"><ele>93.0</ele><time>2026-04-08T14:43:19Z</time></trkpt><trkpt lat="46.05799305174167" lon="13.313359997945783"><ele>93.0</ele><time>2026-04-08T14:43:20Z</time></trkpt><trkpt lat="46.05815680109759" lon="13.313282427023307"><ele>93.0</ele><time>2026-04-08T14:43:21Z</time></trkpt><trkpt lat="46.05832776913681" lon="13.313193249520397"><ele>93.33333333333333</ele><time>2026-04-08T14:43:22Z</time></trkpt><trkpt lat="46.058501508291386" lon="13.313097554425152"><ele>93.66666666666666</ele><time>2026-04-08T14:43:23Z</time></trkpt><trkpt lat="46.05867870804862" lon="13.312994872040415"><ele>94.0</ele><time>2026-04-08T14:43:24Z</time></trkpt><trkpt lat="46.058857388494104" lon="13.312885945278675"><ele>94.0</ele><time>2026-04-08T14:43:25Z</time></trkpt><trkpt lat="46.059034937592315" lon="13.31277117559116"><ele>94.0</ele><time>2026-04-08T14:43:26Z</time></trkpt><trkpt lat="46.059210562256936" lon="13.31264937653961"><ele>94.0</ele><time>2026-04-08T14:43:27Z</time></trkpt><trkpt lat="46.059385022926556" lon="13.312525497607073"><ele>94.0</ele><time>2026-04-08T14:43:28Z</time></trkpt><trkpt lat="46.05955688028414" lon="13.31240104473865"><ele>94.0</ele><time>2026-04-08T14:43:29Z</time></trkpt><trkpt lat="46.05972858974075" lon="13.312274823222612"><ele>94.0</ele><time>2026-04-08T14:43:30Z</time></trkpt><trkpt lat="46.05989960659686" lon="13.312150151095869"><ele>94.33333333333333</ele><time>2026-04-08T14:43:31Z</time></trkpt><trkpt lat="46.06007121027542" lon="13.312025848738546"><ele>94.66666666666667</ele><time>2026-04-08T14:43:32Z</time></trkpt><trkpt lat="46.06024203874669" lon="13.311903529251614"><ele>95.0</ele><time>2026-04-08T14:43:33Z</time></trkpt><trkpt lat="46.06040914457461" lon="13.311784007343284"><ele>95.0</ele><time>2026-04-08T14:43:34Z</time></trkpt><trkpt lat="46.06057184818526" lon="13.311666748273398"><ele>95.0</ele><time>2026-04-08T14:43:35Z</time></trkpt><trkpt lat="46.06073021119987" lon="13.311549665547037"><ele>95.0</ele><time>2026-04-08T14:43:36Z</time></trkpt><trkpt lat="46.060885217483886" lon="13.31143340871822"><ele>95.66666666666667</ele><time>2026-04-08T14:43:37Z</time></trkpt><trkpt lat="46.06103774752385" lon="13.311321540217836"><ele>96.33333333333334</ele><time>2026-04-08T14:43:38Z</time></trkpt><trkpt lat="46.0611890997012" lon="13.31121313095234"><ele>97.0</ele><time>2026-04-08T14:43:39Z</time></trkpt><trkpt lat="46.06133956362332" lon="13.311107460018377"><ele>97.0</ele><time>2026-04-08T14:43:40Z</time></trkpt><trkpt lat="46.06148707842323" lon="13.311000402155905"><ele>97.0</ele><time>2026-04-08T14:43:41Z</time></trkpt><trkpt lat="46.06163613163728" lon="13.310890797430375"><ele>97.0</ele><time>2026-04-08T14:43:42Z</time></trkpt><trkpt lat="46.06178672057065" lon="13.310781039564526"><ele>96.66666666666667</ele><time>2026-04-08T14:43:43Z</time></trkpt><trkpt lat="46.061938363648146" lon="13.310672208975785"><ele>96.33333333333334</ele><time>2026-04-08T14:43:44Z</time></trkpt><trkpt lat="46.06208973981221" lon="13.310562573870131"><ele>96.0</ele><time>2026-04-08T14:43:45Z</time></trkpt><trkpt lat="46.062242864185535" lon="13.310451847074162"><ele>97.0</ele><time>2026-04-08T14:43:46Z</time></trkpt><trkpt lat="46.06239685325542" lon="13.31033968586285"><ele>98.0</ele><time>2026-04-08T14:43:47Z</time></trkpt><trkpt lat="46.06255459023742" lon="13.310224426565345"><ele>99.0</ele><time>2026-04-08T14:43:48Z</time></trkpt><trkpt lat="46.06271234363898" lon="13.310109651090798"><ele>99.0</ele><time>2026-04-08T14:43:49Z</time></trkpt><trkpt lat="46.06286721757859" lon="13.309997963253988"><ele>99.0</ele><time>2026-04-08T14:43:50Z</time></trkpt><trkpt lat="46.06302101706681" lon="13.309885633573181"><ele>99.0</ele><time>2026-04-08T14:43:51Z</time></trkpt><trkpt lat="46.0631747421797" lon="13.309773468354768"><ele>99.33333333333334</ele><time>2026-04-08T14:43:51.999Z</time></trkpt><trkpt lat="46.06332861062868" lon="13.309663833369648"><ele>99.66666666666667</ele><time>2026-04-08T14:43:52.999Z</time></trkpt><trkpt lat="46.06348137957814" lon="13.309553331053836"><ele>100.0</ele><time>2026-04-08T14:43:53.999Z</time></trkpt><trkpt lat="46.06363585335555" lon="13.309439619451416"><ele>100.0</ele><time>2026-04-08T14:43:54.999Z</time></trkpt><trkpt lat="46.063787417558295" lon="13.309328605086284"><ele>100.0</ele><time>2026-04-08T14:43:55.999Z</time></trkpt><trkpt lat="46.063933634599145" lon="13.309221088012057"><ele>100.0</ele><time>2026-04-08T14:43:56.999Z</time></trkpt><trkpt lat="46.06407650146021" lon="13.309116042916294"><ele>100.0</ele><time>2026-04-08T14:43:57.999Z</time></trkpt><trkpt lat="46.0642171331527" lon="13.30901443592563"><ele>100.0</ele><time>2026-04-08T14:43:58.999Z</time></trkpt><trkpt lat="46.06435720815241" lon="13.308913300622715"><ele>100.0</ele><time>2026-04-08T14:43:59.999Z</time></trkpt><trkpt lat="46.06449909708956" lon="13.30881056407905"><ele>100.33333333333334</ele><time>2026-04-08T14:44:00.999Z</time></trkpt><trkpt lat="46.06464259516753" lon="13.308705689911111"><ele>100.66666666666666</ele><time>2026-04-08T14:44:01.999Z</time></trkpt><trkpt lat="46.06478723660736" lon="13.308602227262664"><ele>101.0</ele><time>2026-04-08T14:44:02.999Z</time></trkpt><trkpt lat="46.064932940541816" lon="13.308505675428743"><ele>100.66666666666666</ele><time>2026-04-08T14:44:03.999Z</time></trkpt><trkpt lat="46.06508003841264" lon="13.308416687776932"><ele>100.33333333333334</ele><time>2026-04-08T14:44:04.999Z</time></trkpt><trkpt lat="46.06523285060736" lon="13.30833993212401"><ele>100.0</ele><time>2026-04-08T14:44:05.999Z</time></trkpt><trkpt lat="46.06539050500704" lon="13.308274437417717"><ele>100.0</ele><time>2026-04-08T14:44:06.999Z</time></trkpt><trkpt lat="46.06555017631641" lon="13.308214555894905"><ele>100.0</ele><time>2026-04-08T14:44:07.999Z</time></trkpt><trkpt lat="46.065710803189496" lon="13.308162057328225"><ele>100.0</ele><time>2026-04-08T14:44:08.999Z</time></trkpt><trkpt lat="46.0658740280174" lon="13.308121132792257"><ele>100.33333333333334</ele><time>2026-04-08T14:44:09.999Z</time></trkpt><trkpt lat="46.06603702660026" lon="13.308092784784492"><ele>100.66666666666666</ele><time>2026-04-08T14:44:10.999Z</time></trkpt><trkpt lat="46.066200479137116" lon="13.308074674057567"><ele>101.0</ele><time>2026-04-08T14:44:11.999Z</time></trkpt><trkpt lat="46.06636225232042" lon="13.308071236073829"><ele>101.0</ele><time>2026-04-08T14:44:12.999Z</time></trkpt><trkpt lat="46.06652236525381" lon="13.308079215842438"><ele>101.0</ele><time>2026-04-08T14:44:13.999Z</time></trkpt><trkpt lat="46.06668119706301" lon="13.308092173503947"><ele>101.0</ele><time>2026-04-08T14:44:14.999Z</time></trkpt><trkpt lat="46.06683532840796" lon="13.30811176314812"><ele>101.66666666666666</ele><time>2026-04-08T14:44:16Z</time></trkpt><trkpt lat="46.066985749131575" lon="13.308139907264067"><ele>102.33333333333334</ele><time>2026-04-08T14:44:17Z</time></trkpt><trkpt lat="46.06713424486034" lon="13.308175699172116"><ele>103.0</ele><time>2026-04-08T14:44:18Z</time></trkpt><trkpt lat="46.067285130447225" lon="13.308214823705596"><ele>103.0</ele><time>2026-04-08T14:44:19Z</time></trkpt><trkpt lat="46.067435419913" lon="13.308255362453513"><ele>103.0</ele><time>2026-04-08T14:44:20Z</time></trkpt><trkpt lat="46.06758427639579" lon="13.308293681308498"><ele>103.0</ele><time>2026-04-08T14:44:21Z</time></trkpt><trkpt lat="46.06773214105818" lon="13.308332848977631"><ele>102.33333333333334</ele><time>2026-04-08T14:44:22Z</time></trkpt><trkpt lat="46.06788025565371" lon="13.308373382844808"><ele>101.66666666666666</ele><time>2026-04-08T14:44:23Z</time></trkpt><trkpt lat="46.06802969714173" lon="13.308413881530967"><ele>101.0</ele><time>2026-04-08T14:44:24Z</time></trkpt><trkpt lat="46.068181916638515" lon="13.308452899935576"><ele>101.0</ele><time>2026-04-08T14:44:25Z</time></trkpt><trkpt lat="46.068326757300156" lon="13.308491066974472"><ele>101.0</ele><time>2026-04-08T14:44:26Z</time></trkpt><trkpt lat="46.06845978289521" lon="13.30852519728059"><ele>101.0</ele><time>2026-04-08T14:44:27Z</time></trkpt><trkpt lat="46.068583114998475" lon="13.308558631904722"><ele>101.0</ele><time>2026-04-08T14:44:28Z</time></trkpt><trkpt lat="46.068702966946326" lon="13.308592026842215"><ele>101.0</ele><time>2026-04-08T14:44:29Z</time></trkpt><trkpt lat="46.068821761713394" lon="13.308623465874145"><ele>101.0</ele><time>2026-04-08T14:44:30Z</time></trkpt><trkpt lat="46.06893441369975" lon="13.308653795026641"><ele>101.0</ele><time>2026-04-08T14:44:31Z</time></trkpt><trkpt lat="46.069037503567856" lon="13.308681355252395"><ele>101.0</ele><time>2026-04-08T14:44:32Z</time></trkpt><trkpt lat="46.06913658934465" lon="13.308707673070527"><ele>101.0</ele><time>2026-04-08T14:44:33Z</time></trkpt><trkpt lat="46.069231975399106" lon="13.308734161297446"><ele>100.99999999999999</ele><time>2026-04-08T14:44:34Z</time></trkpt><trkpt lat="46.069321182255706" lon="13.308761393571139"><ele>101.0</ele><time>2026-04-08T14:44:35Z</time></trkpt><trkpt lat="46.06940199527972" lon="13.308789373341174"><ele>101.0</ele><time>2026-04-08T14:44:36Z</time></trkpt><trkpt lat="46.069473776020295" lon="13.308827024633263"><ele>101.0</ele><time>2026-04-08T14:44:37Z</time></trkpt><trkpt lat="46.0695426567283" lon="13.308870382078965"><ele>100.99999999999999</ele><time>2026-04-08T14:44:38Z</time></trkpt><trkpt lat="46.069620099097435" lon="13.308923597786258"><ele>101.0</ele><time>2026-04-08T14:44:39Z</time></trkpt><trkpt lat="46.069694618860396" lon="13.30898917812553"><ele>100.99999999999999</ele><time>2026-04-08T14:44:40Z</time></trkpt><trkpt lat="46.06976212704944" lon="13.3090782244244"><ele>101.0</ele><time>2026-04-08T14:44:41Z</time></trkpt><trkpt lat="46.06982083920275" lon="13.309169434702122"><ele>101.0</ele><time>2026-04-08T14:44:42Z</time></trkpt><trkpt lat="46.0698854921645" lon="13.309236355557141"><ele>101.0</ele><time>2026-04-08T14:44:43Z</time></trkpt><trkpt lat="46.06995685567268" lon="13.309255203743549"><ele>100.99999999999999</ele><time>2026-04-08T14:44:44Z</time></trkpt><trkpt lat="46.07002689945747" lon="13.309234452945168"><ele>101.0</ele><time>2026-04-08T14:44:45Z</time></trkpt><trkpt lat="46.07008157146139" lon="13.309173275528579"><ele>101.16666666666666</ele><time>2026-04-08T14:44:46Z</time></trkpt><trkpt lat="46.07011211542417" lon="13.30907630816805"><ele>101.33333333333333</ele><time>2026-04-08T14:44:47Z</time></trkpt><trkpt lat="46.07011167475739" lon="13.308963297422254"><ele>101.5</ele><time>2026-04-08T14:44:48Z</time></trkpt><trkpt lat="46.070093572478505" lon="13.30886048961404"><ele>101.66666666666666</ele><time>2026-04-08T14:44:49Z</time></trkpt><trkpt lat="46.070071020821096" lon="13.308762943196008"><ele>101.83333333333333</ele><time>2026-04-08T14:44:50Z</time></trkpt><trkpt lat="46.070118831997846" lon="13.308628390624458"><ele>102.0</ele><time>2026-04-08T14:44:51Z</time></trkpt><trkpt lat="46.070182864572764" lon="13.308520807417809"><ele>102.0</ele><time>2026-04-08T14:44:52Z</time></trkpt><trkpt lat="46.07027121889024" lon="13.3084205160396"><ele>102.0</ele><time>2026-04-08T14:44:53Z</time></trkpt><trkpt lat="46.07037006155836" lon="13.308316053204571"><ele>102.0</ele><time>2026-04-08T14:44:54Z</time></trkpt><trkpt lat="46.070465549026885" lon="13.308202986245018"><ele>102.0</ele><time>2026-04-08T14:44:55Z</time></trkpt><trkpt lat="46.07055966890953" lon="13.308094776568774"><ele>102.0</ele><time>2026-04-08T14:44:56Z</time></trkpt><trkpt lat="46.07066305992591" lon="13.307973371677633"><ele>102.0</ele><time>2026-04-08T14:44:57Z</time></trkpt><trkpt lat="46.07077183478359" lon="13.307847342517432"><ele>102.0</ele><time>2026-04-08T14:44:58Z</time></trkpt><trkpt lat="46.07087707483812" lon="13.307720171786473"><ele>102.0</ele><time>2026-04-08T14:44:59Z</time></trkpt><trkpt lat="46.07098105315375" lon="13.307588982306832"><ele>102.25</ele><time>2026-04-08T14:45:00Z</time></trkpt><trkpt lat="46.07108500751533" lon="13.307461918519637"><ele>102.5</ele><time>2026-04-08T14:45:01Z</time></trkpt><trkpt lat="46.07119127135066" lon="13.307334472157452"><ele>102.75</ele><time>2026-04-08T14:45:02Z</time></trkpt><trkpt lat="46.071296034367755" lon="13.307204435309897"><ele>103.0</ele><time>2026-04-08T14:45:03Z</time></trkpt><trkpt lat="46.0713992827811" lon="13.307076038733454"><ele>103.0</ele><time>2026-04-08T14:45:04Z</time></trkpt><trkpt lat="46.071503240310044" lon="13.306951182813265"><ele>103.0</ele><time>2026-04-08T14:45:05Z</time></trkpt><trkpt lat="46.07160711810298" lon="13.306822072331292"><ele>103.0</ele><time>2026-04-08T14:45:06Z</time></trkpt><trkpt lat="46.07169495187834" lon="13.306712894303034"><ele>103.0</ele><time>2026-04-08T14:45:07Z</time></trkpt><trkpt lat="46.07177009081391" lon="13.306620508657707"><ele>102.83333333333334</ele><time>2026-04-08T14:45:08Z</time></trkpt><trkpt lat="46.07183089459238" lon="13.306547068294368"><ele>102.66666666666667</ele><time>2026-04-08T14:45:09Z</time></trkpt><trkpt lat="46.07188007632055" lon="13.3064870110189"><ele>102.5</ele><time>2026-04-08T14:45:10Z</time></trkpt><trkpt lat="46.071932407499474" lon="13.306426819225134"><ele>102.33333333333334</ele><time>2026-04-08T14:45:11Z</time></trkpt><trkpt lat="46.07199296668629" lon="13.30635497562003"><ele>102.16666666666667</ele><time>2026-04-08T14:45:12Z</time></trkpt><trkpt lat="46.07206115388954" lon="13.306274040293848"><ele>102.0</ele><time>2026-04-08T14:45:13Z</time></trkpt><trkpt lat="46.07213727263997" lon="13.306182962638424"><ele>102.0</ele><time>2026-04-08T14:45:14Z</time></trkpt><trkpt lat="46.07221989531103" lon="13.306077969156474"><ele>102.0</ele><time>2026-04-08T14:45:15Z</time></trkpt><trkpt lat="46.072315488025644" lon="13.305966511395008"><ele>102.0</ele><time>2026-04-08T14:45:16Z</time></trkpt><trkpt lat="46.07241908801556" lon="13.305846967090057"><ele>102.0</ele><time>2026-04-08T14:45:17Z</time></trkpt><trkpt lat="46.07251849880226" lon="13.305727620106866"><ele>102.5</ele><time>2026-04-08T14:45:18Z</time></trkpt><trkpt lat="46.072622030691754" lon="13.305602020592808"><ele>103.0</ele><time>2026-04-08T14:45:19Z</time></trkpt><trkpt lat="46.07273073811389" lon="13.305473515093219"><ele>103.5</ele><time>2026-04-08T14:45:20Z</time></trkpt><trkpt lat="46.07283880079844" lon="13.305347577647586"><ele>104.0</ele><time>2026-04-08T14:45:21Z</time></trkpt><trkpt lat="46.0729494073923" lon="13.30521780050278"><ele>104.0</ele><time>2026-04-08T14:45:22Z</time></trkpt><trkpt lat="46.07306054303661" lon="13.305091779844567"><ele>104.0</ele><time>2026-04-08T14:45:23Z</time></trkpt><trkpt lat="46.073173092601124" lon="13.304963037259204"><ele>104.0</ele><time>2026-04-08T14:45:24Z</time></trkpt><trkpt lat="46.073285459962825" lon="13.304829050775579"><ele>104.0</ele><time>2026-04-08T14:45:25Z</time></trkpt><trkpt lat="46.07339877012413" lon="13.304694823084175"><ele>104.66666666666666</ele><time>2026-04-08T14:45:26Z</time></trkpt><trkpt lat="46.07351605613658" lon="13.304557841863314"><ele>105.33333333333334</ele><time>2026-04-08T14:45:27Z</time></trkpt><trkpt lat="46.07363563428903" lon="13.30441539346027"><ele>106.0</ele><time>2026-04-08T14:45:28Z</time></trkpt><trkpt lat="46.07375221335898" lon="13.304275455703351"><ele>106.0</ele><time>2026-04-08T14:45:29Z</time></trkpt><trkpt lat="46.07386728503813" lon="13.304140289987442"><ele>106.0</ele><time>2026-04-08T14:45:30Z</time></trkpt><trkpt lat="46.07398597861038" lon="13.304002961488713"><ele>106.0</ele><time>2026-04-08T14:45:31Z</time></trkpt><trkpt lat="46.074109965799586" lon="13.303860585840052"><ele>106.0</ele><time>2026-04-08T14:45:32Z</time></trkpt><trkpt lat="46.074232295394474" lon="13.30371699368274"><ele>106.0</ele><time>2026-04-08T14:45:33Z</time></trkpt><trkpt lat="46.07435572659218" lon="13.303572035106932"><ele>106.0</ele><time>2026-04-08T14:45:34Z</time></trkpt><trkpt lat="46.07448082463062" lon="13.303423216502333"><ele>106.0</ele><time>2026-04-08T14:45:35Z</time></trkpt><trkpt lat="46.0746062730231" lon="13.303275039734661"><ele>106.0</ele><time>2026-04-08T14:45:36Z</time></trkpt><trkpt lat="46.07473737127035" lon="13.303122138227383"><ele>106.0</ele><time>2026-04-08T14:45:37Z</time></trkpt><trkpt lat="46.074868424757966" lon="13.302967342262397"><ele>106.0</ele><time>2026-04-08T14:45:38Z</time></trkpt><trkpt lat="46.075000347311196" lon="13.30281283748862"><ele>106.0</ele><time>2026-04-08T14:45:39Z</time></trkpt><trkpt lat="46.07513254278176" lon="13.302659421277449"><ele>106.0</ele><time>2026-04-08T14:45:40Z</time></trkpt><trkpt lat="46.075264805869104" lon="13.302505736927502"><ele>106.0</ele><time>2026-04-08T14:45:41Z</time></trkpt><trkpt lat="46.07539624833292" lon="13.302349508586197"><ele>106.0</ele><time>2026-04-08T14:45:42Z</time></trkpt><trkpt lat="46.07552611982275" lon="13.302197562309969"><ele>106.0</ele><time>2026-04-08T14:45:43Z</time></trkpt><trkpt lat="46.075654687412" lon="13.302047973391808"><ele>106.33333333333334</ele><time>2026-04-08T14:45:44Z</time></trkpt><trkpt lat="46.07578032523295" lon="13.30190131221684"><ele>106.66666666666666</ele><time>2026-04-08T14:45:45Z</time></trkpt><trkpt lat="46.07590367516063" lon="13.301758329176302"><ele>107.0</ele><time>2026-04-08T14:45:46Z</time></trkpt><trkpt lat="46.07602379954331" lon="13.301618378610135"><ele>107.0</ele><time>2026-04-08T14:45:47Z</time></trkpt><trkpt lat="46.07614428349935" lon="13.30147825329856"><ele>107.0</ele><time>2026-04-08T14:45:48Z</time></trkpt><trkpt lat="46.07626545017232" lon="13.301337679321762"><ele>107.0</ele><time>2026-04-08T14:45:49Z</time></trkpt><trkpt lat="46.07638630147744" lon="13.301196919306822"><ele>107.33333333333333</ele><time>2026-04-08T14:45:50Z</time></trkpt><trkpt lat="46.07650486996353" lon="13.301056283019317"><ele>107.66666666666666</ele><time>2026-04-08T14:45:51Z</time></trkpt><trkpt lat="46.076623137774334" lon="13.300919721703982"><ele>108.0</ele><time>2026-04-08T14:45:52Z</time></trkpt><trkpt lat="46.07673933883221" lon="13.300786440722714"><ele>108.0</ele><time>2026-04-08T14:45:53Z</time></trkpt><trkpt lat="46.07685161442846" lon="13.300653952659012"><ele>108.0</ele><time>2026-04-08T14:45:53.999Z</time></trkpt><trkpt lat="46.076962101471175" lon="13.300524320658685"><ele>108.0</ele><time>2026-04-08T14:45:54.999Z</time></trkpt><trkpt lat="46.077071796345216" lon="13.300396594231964"><ele>108.0</ele><time>2026-04-08T14:45:55.999Z</time></trkpt><trkpt lat="46.077181495914125" lon="13.300267970656973"><ele>108.0</ele><time>2026-04-08T14:45:56.999Z</time></trkpt><trkpt lat="46.07729063711761" lon="13.300138111658953"><ele>108.0</ele><time>2026-04-08T14:45:57.999Z</time></trkpt><trkpt lat="46.07740050494207" lon="13.30000839584961"><ele>108.0</ele><time>2026-04-08T14:45:58.999Z</time></trkpt><trkpt lat="46.077508249321276" lon="13.299878653276776"><ele>108.0</ele><time>2026-04-08T14:45:59.999Z</time></trkpt><trkpt lat="46.07760682210432" lon="13.29975813600152"><ele>107.60000000000001</ele><time>2026-04-08T14:46:00.999Z</time></trkpt><trkpt lat="46.07769839183005" lon="13.29964366868244"><ele>107.20000000000002</ele><time>2026-04-08T14:46:01.999Z</time></trkpt><trkpt lat="46.07778494569775" lon="13.299532810282601"><ele>106.8</ele><time>2026-04-08T14:46:02.999Z</time></trkpt><trkpt lat="46.077864302108885" lon="13.299429888795526"><ele>106.4</ele><time>2026-04-08T14:46:03.999Z</time></trkpt><trkpt lat="46.07794243938001" lon="13.299337938067088"><ele>106.0</ele><time>2026-04-08T14:46:04.999Z</time></trkpt><trkpt lat="46.07802444834217" lon="13.299262234471014"><ele>106.00000000000001</ele><time>2026-04-08T14:46:05.999Z</time></trkpt><trkpt lat="46.07810014514391" lon="13.299196294741176"><ele>106.0</ele><time>2026-04-08T14:46:06.999Z</time></trkpt><trkpt lat="46.0781601496876" lon="13.299113345928614"><ele>106.0</ele><time>2026-04-08T14:46:07.999Z</time></trkpt><trkpt lat="46.07819063909569" lon="13.299013644414083"><ele>106.0</ele><time>2026-04-08T14:46:08.999Z</time></trkpt><trkpt lat="46.07819473962808" lon="13.298904193342173"><ele>106.00000000000001</ele><time>2026-04-08T14:46:09.999Z</time></trkpt><trkpt lat="46.07818067218819" lon="13.298788863596215"><ele>106.0</ele><time>2026-04-08T14:46:10.999Z</time></trkpt><trkpt lat="46.07816816931041" lon="13.298679894381314"><ele>106.33333333333334</ele><time>2026-04-08T14:46:11.999Z</time></trkpt><trkpt lat="46.078167925022065" lon="13.298572607539375"><ele>106.66666666666667</ele><time>2026-04-08T14:46:12.999Z</time></trkpt><trkpt lat="46.078176081506825" lon="13.29846902426078"><ele>107.0</ele><time>2026-04-08T14:46:13.999Z</time></trkpt><trkpt lat="46.078181423071726" lon="13.298370943183885"><ele>107.33333333333334</ele><time>2026-04-08T14:46:14.999Z</time></trkpt><trkpt lat="46.078187811326444" lon="13.298267124673803"><ele>107.66666666666667</ele><time>2026-04-08T14:46:15.999Z</time></trkpt><trkpt lat="46.07821222689748" lon="13.298159482233674"><ele>108.0</ele><time>2026-04-08T14:46:16.999Z</time></trkpt><trkpt lat="46.07826675583994" lon="13.298063483541405"><ele>107.80000000000001</ele><time>2026-04-08T14:46:17.999Z</time></trkpt><trkpt lat="46.07833844541077" lon="13.297985106160253"><ele>107.60000000000001</ele><time>2026-04-08T14:46:18.999Z</time></trkpt><trkpt lat="46.078400516167456" lon="13.297894625668999"><ele>107.39999999999999</ele><time>2026-04-08T14:46:19.999Z</time></trkpt><trkpt lat="46.07844172792175" lon="13.297781858130929"><ele>107.19999999999999</ele><time>2026-04-08T14:46:21Z</time></trkpt><trkpt lat="46.07845831657024" lon="13.297651378147503"><ele>107.0</ele><time>2026-04-08T14:46:22Z</time></trkpt><trkpt lat="46.07846639348772" lon="13.29751102330363"><ele>107.0</ele><time>2026-04-08T14:46:23Z</time></trkpt><trkpt lat="46.07850268138701" lon="13.297374271454531"><ele>107.0</ele><time>2026-04-08T14:46:24Z</time></trkpt><trkpt lat="46.07853878357093" lon="13.297233196417029"><ele>107.0</ele><time>2026-04-08T14:46:25Z</time></trkpt><trkpt lat="46.07867500500421" lon="13.297158564618718"><ele>107.0</ele><time>2026-04-08T14:46:26Z</time></trkpt><trkpt lat="46.07877951408528" lon="13.29709374844947"><ele>107.5</ele><time>2026-04-08T14:46:27Z</time></trkpt><trkpt lat="46.07888953056107" lon="13.29704210126211"><ele>108.0</ele><time>2026-04-08T14:46:28Z</time></trkpt><trkpt lat="46.07900925884737" lon="13.296993186028269"><ele>108.5</ele><time>2026-04-08T14:46:29Z</time></trkpt><trkpt lat="46.079138597884366" lon="13.296940018192542"><ele>109.0</ele><time>2026-04-08T14:46:30Z</time></trkpt><trkpt lat="46.07928027273887" lon="13.296883275696656"><ele>109.0</ele><time>2026-04-08T14:46:31Z</time></trkpt><trkpt lat="46.07943133643861" lon="13.29681927123639"><ele>109.0</ele><time>2026-04-08T14:46:32Z</time></trkpt><trkpt lat="46.07958525245545" lon="13.296755192235807"><ele>109.0</ele><time>2026-04-08T14:46:33Z</time></trkpt><trkpt lat="46.07973997745604" lon="13.296691774391826"><ele>109.0</ele><time>2026-04-08T14:46:34Z</time></trkpt><trkpt lat="46.07989960953361" lon="13.29662842078299"><ele>109.0</ele><time>2026-04-08T14:46:35Z</time></trkpt><trkpt lat="46.08006701995542" lon="13.296559114259912"><ele>109.0</ele><time>2026-04-08T14:46:36Z</time></trkpt><trkpt lat="46.08023504629534" lon="13.296489198181359"><ele>109.66666666666667</ele><time>2026-04-08T14:46:37Z</time></trkpt><trkpt lat="46.08039290809212" lon="13.296421285265074"><ele>110.33333333333334</ele><time>2026-04-08T14:46:38Z</time></trkpt><trkpt lat="46.08054783198524" lon="13.29635551148883"><ele>111.0</ele><time>2026-04-08T14:46:39Z</time></trkpt><trkpt lat="46.08070406901813" lon="13.296289638858438"><ele>111.33333333333334</ele><time>2026-04-08T14:46:40Z</time></trkpt><trkpt lat="46.08085919105949" lon="13.296227204897951"><ele>111.66666666666667</ele><time>2026-04-08T14:46:41Z</time></trkpt><trkpt lat="46.08101542803646" lon="13.296164222022608"><ele>112.0</ele><time>2026-04-08T14:46:42Z</time></trkpt><trkpt lat="46.08117256624812" lon="13.296099649111728"><ele>112.0</ele><time>2026-04-08T14:46:43Z</time></trkpt><trkpt lat="46.08132959486705" lon="13.296035987608827"><ele>112.0</ele><time>2026-04-08T14:46:44Z</time></trkpt><trkpt lat="46.081491035729925" lon="13.295970912148722"><ele>112.0</ele><time>2026-04-08T14:46:45Z</time></trkpt><trkpt lat="46.0816540834581" lon="13.295905449251425"><ele>111.33333333333334</ele><time>2026-04-08T14:46:46Z</time></trkpt><trkpt lat="46.08181615685453" lon="13.295839241566858"><ele>110.66666666666666</ele><time>2026-04-08T14:46:47Z</time></trkpt><trkpt lat="46.08197818970043" lon="13.295774029859988"><ele>110.0</ele><time>2026-04-08T14:46:48Z</time></trkpt><trkpt lat="46.08214292307483" lon="13.295703050467694"><ele>110.0</ele><time>2026-04-08T14:46:49Z</time></trkpt><trkpt lat="46.082313000813244" lon="13.295631786010121"><ele>110.0</ele><time>2026-04-08T14:46:50Z</time></trkpt><trkpt lat="46.082484932924125" lon="13.295560501728312"><ele>110.0</ele><time>2026-04-08T14:46:51Z</time></trkpt><trkpt lat="46.0826548088891" lon="13.295489081930455"><ele>110.66666666666666</ele><time>2026-04-08T14:46:52Z</time></trkpt><trkpt lat="46.082817440202064" lon="13.295424030833132"><ele>111.33333333333334</ele><time>2026-04-08T14:46:53Z</time></trkpt><trkpt lat="46.08297677193323" lon="13.295360332702586"><ele>112.0</ele><time>2026-04-08T14:46:54Z</time></trkpt><trkpt lat="46.08313339167772" lon="13.295294394115157"><ele>112.66666666666667</ele><time>2026-04-08T14:46:55Z</time></trkpt><trkpt lat="46.08329228722498" lon="13.295229821213196"><ele>113.33333333333334</ele><time>2026-04-08T14:46:56Z</time></trkpt><trkpt lat="46.08345280141049" lon="13.29516564822791"><ele>114.0</ele><time>2026-04-08T14:46:57Z</time></trkpt><trkpt lat="46.08361505999405" lon="13.29509881496633"><ele>114.0</ele><time>2026-04-08T14:46:58Z</time></trkpt><trkpt lat="46.08377909324238" lon="13.295029423020713"><ele>114.0</ele><time>2026-04-08T14:46:59Z</time></trkpt><trkpt lat="46.083942026906534" lon="13.294961706163766"><ele>114.0</ele><time>2026-04-08T14:47:00Z</time></trkpt><trkpt lat="46.08410372604968" lon="13.294895175556507"><ele>113.66666666666666</ele><time>2026-04-08T14:47:01Z</time></trkpt><trkpt lat="46.08426087623225" lon="13.294830554774837"><ele>113.33333333333333</ele><time>2026-04-08T14:47:02Z</time></trkpt><trkpt lat="46.08441375992496" lon="13.294768183314755"><ele>113.0</ele><time>2026-04-08T14:47:03Z</time></trkpt><trkpt lat="46.084564046580304" lon="13.294708567524115"><ele>113.0</ele><time>2026-04-08T14:47:04Z</time></trkpt><trkpt lat="46.08471155739563" lon="13.294648962682706"><ele>113.0</ele><time>2026-04-08T14:47:05Z</time></trkpt><trkpt lat="46.084858414248345" lon="13.294589296207484"><ele>113.0</ele><time>2026-04-08T14:47:06Z</time></trkpt><trkpt lat="46.08500674743777" lon="13.29452765648283"><ele>113.0</ele><time>2026-04-08T14:47:07Z</time></trkpt><trkpt lat="46.08515692294753" lon="13.294464137582429"><ele>113.0</ele><time>2026-04-08T14:47:08Z</time></trkpt><trkpt lat="46.08531061010999" lon="13.294401471062622"><ele>113.0</ele><time>2026-04-08T14:47:09Z</time></trkpt><trkpt lat="46.08546578524258" lon="13.29433809240842"><ele>113.0</ele><time>2026-04-08T14:47:10Z</time></trkpt><trkpt lat="46.085620051041566" lon="13.294276934111515"><ele>113.0</ele><time>2026-04-08T14:47:11Z</time></trkpt><trkpt lat="46.08577044352932" lon="13.294214498068486"><ele>113.0</ele><time>2026-04-08T14:47:12Z</time></trkpt><trkpt lat="46.08592001946006" lon="13.294152747710207"><ele>114.33333333333333</ele><time>2026-04-08T14:47:13Z</time></trkpt><trkpt lat="46.08606834587576" lon="13.29409134334069"><ele>115.66666666666666</ele><time>2026-04-08T14:47:14Z</time></trkpt><trkpt lat="46.08621735088063" lon="13.294031205481026"><ele>117.0</ele><time>2026-04-08T14:47:15Z</time></trkpt><trkpt lat="46.086368515734954" lon="13.293972782887646"><ele>116.33333333333334</ele><time>2026-04-08T14:47:16Z</time></trkpt><trkpt lat="46.086525960882206" lon="13.293908921934175"><ele>115.66666666666667</ele><time>2026-04-08T14:47:17Z</time></trkpt><trkpt lat="46.086690609782735" lon="13.293842115020377"><ele>115.0</ele><time>2026-04-08T14:47:18Z</time></trkpt><trkpt lat="46.08685703660836" lon="13.293772162373209"><ele>114.66666666666667</ele><time>2026-04-08T14:47:19Z</time></trkpt><trkpt lat="46.08701446205597" lon="13.293701952954045"><ele>114.33333333333334</ele><time>2026-04-08T14:47:20Z</time></trkpt><trkpt lat="46.08717107149466" lon="13.293637696827647"><ele>114.0</ele><time>2026-04-08T14:47:21Z</time></trkpt><trkpt lat="46.087327305252" lon="13.293575562538841"><ele>114.0</ele><time>2026-04-08T14:47:22Z</time></trkpt><trkpt lat="46.08748869625075" lon="13.293508488210367"><ele>114.0</ele><time>2026-04-08T14:47:23Z</time></trkpt><trkpt lat="46.087655091073046" lon="13.293438421248819"><ele>114.0</ele><time>2026-04-08T14:47:24Z</time></trkpt><trkpt lat="46.08782341644419" lon="13.293365704539093"><ele>114.0</ele><time>2026-04-08T14:47:25Z</time></trkpt><trkpt lat="46.08798922538004" lon="13.293297256636942"><ele>114.0</ele><time>2026-04-08T14:47:26Z</time></trkpt><trkpt lat="46.0881545335612" lon="13.293230724126238"><ele>114.0</ele><time>2026-04-08T14:47:27Z</time></trkpt><trkpt lat="46.088319934994615" lon="13.293163240559698"><ele>114.0</ele><time>2026-04-08T14:47:28Z</time></trkpt><trkpt lat="46.08848526731261" lon="13.293093830601268"><ele>114.0</ele><time>2026-04-08T14:47:29Z</time></trkpt><trkpt lat="46.08865024153097" lon="13.293024898784727"><ele>114.0</ele><time>2026-04-08T14:47:30Z</time></trkpt><trkpt lat="46.08881527111061" lon="13.292956804122282"><ele>114.0</ele><time>2026-04-08T14:47:31Z</time></trkpt><trkpt lat="46.08898260648537" lon="13.292889414509974"><ele>114.0</ele><time>2026-04-08T14:47:32Z</time></trkpt><trkpt lat="46.08915257036391" lon="13.292820196768517"><ele>114.0</ele><time>2026-04-08T14:47:33Z</time></trkpt><trkpt lat="46.08932614235027" lon="13.2927486785795"><ele>114.33333333333334</ele><time>2026-04-08T14:47:34Z</time></trkpt><trkpt lat="46.08950246164172" lon="13.292675797259283"><ele>114.66666666666667</ele><time>2026-04-08T14:47:35Z</time></trkpt><trkpt lat="46.0896801949932" lon="13.292604324103724"><ele>115.0</ele><time>2026-04-08T14:47:36Z</time></trkpt><trkpt lat="46.08985683848509" lon="13.292534040320882"><ele>115.33333333333334</ele><time>2026-04-08T14:47:37Z</time></trkpt><trkpt lat="46.09003447416" lon="13.29246224024161"><ele>115.66666666666666</ele><time>2026-04-08T14:47:38Z</time></trkpt><trkpt lat="46.09021214299548" lon="13.292390513078745"><ele>116.0</ele><time>2026-04-08T14:47:39Z</time></trkpt><trkpt lat="46.09038790335132" lon="13.292318740593139"><ele>116.0</ele><time>2026-04-08T14:47:40Z</time></trkpt><trkpt lat="46.090561976850765" lon="13.292246031345352"><ele>116.0</ele><time>2026-04-08T14:47:41Z</time></trkpt><trkpt lat="46.09073666368584" lon="13.292174315862104"><ele>116.0</ele><time>2026-04-08T14:47:42Z</time></trkpt><trkpt lat="46.09091086968867" lon="13.29210352719479"><ele>116.0</ele><time>2026-04-08T14:47:43Z</time></trkpt><trkpt lat="46.09108545749399" lon="13.292030689859864"><ele>116.0</ele><time>2026-04-08T14:47:44Z</time></trkpt><trkpt lat="46.09125122786045" lon="13.291960123873965"><ele>116.0</ele><time>2026-04-08T14:47:45Z</time></trkpt><trkpt lat="46.09141062912236" lon="13.29189151035496"><ele>116.0</ele><time>2026-04-08T14:47:46Z</time></trkpt><trkpt lat="46.09157074884958" lon="13.291822365388391"><ele>116.0</ele><time>2026-04-08T14:47:47Z</time></trkpt><trkpt lat="46.09172953525925" lon="13.291747842609924"><ele>116.0</ele><time>2026-04-08T14:47:48Z</time></trkpt><trkpt lat="46.09188695700867" lon="13.291664776108144"><ele>115.66666666666666</ele><time>2026-04-08T14:47:49Z</time></trkpt><trkpt lat="46.092042906810775" lon="13.291579006091892"><ele>115.33333333333334</ele><time>2026-04-08T14:47:50Z</time></trkpt><trkpt lat="46.09219740242936" lon="13.291498322693707"><ele>115.0</ele><time>2026-04-08T14:47:51Z</time></trkpt><trkpt lat="46.09235416259353" lon="13.291418822456631"><ele>115.0</ele><time>2026-04-08T14:47:52Z</time></trkpt><trkpt lat="46.0925105884691" lon="13.291336825770143"><ele>115.0</ele><time>2026-04-08T14:47:53Z</time></trkpt><trkpt lat="46.09266544154669" lon="13.29125513216882"><ele>115.0</ele><time>2026-04-08T14:47:54Z</time></trkpt><trkpt lat="46.09281831256905" lon="13.291174174054863"><ele>115.0</ele><time>2026-04-08T14:47:55Z</time></trkpt><trkpt lat="46.092968159839785" lon="13.29109330723505"><ele>115.0</ele><time>2026-04-08T14:47:56Z</time></trkpt><trkpt lat="46.0931164088866" lon="13.291013015994794"><ele>115.0</ele><time>2026-04-08T14:47:57Z</time></trkpt><trkpt lat="46.093263676152446" lon="13.290934575771082"><ele>115.66666666666667</ele><time>2026-04-08T14:47:58Z</time></trkpt><trkpt lat="46.09341216972685" lon="13.290853674044724"><ele>116.33333333333334</ele><time>2026-04-08T14:47:58.999Z</time></trkpt><trkpt lat="46.093561281631374" lon="13.290773516519401"><ele>117.0</ele><time>2026-04-08T14:47:59.999Z</time></trkpt><trkpt lat="46.093712217962796" lon="13.290694480514775"><ele>117.0</ele><time>2026-04-08T14:48:00.999Z</time></trkpt><trkpt lat="46.09386066415747" lon="13.290614808617617"><ele>117.0</ele><time>2026-04-08T14:48:01.999Z</time></trkpt><trkpt lat="46.09400627588202" lon="13.29053219031265"><ele>117.0</ele><time>2026-04-08T14:48:02.999Z</time></trkpt><trkpt lat="46.094151536199774" lon="13.290453379236872"><ele>117.0</ele><time>2026-04-08T14:48:03.999Z</time></trkpt><trkpt lat="46.09429620719138" lon="13.29037964554968"><ele>117.0</ele><time>2026-04-08T14:48:04.999Z</time></trkpt><trkpt lat="46.09443924572825" lon="13.29030666264945"><ele>117.0</ele><time>2026-04-08T14:48:05.999Z</time></trkpt><trkpt lat="46.09457704326707" lon="13.290232590057371"><ele>117.0</ele><time>2026-04-08T14:48:06.999Z</time></trkpt><trkpt lat="46.09470567520399" lon="13.290160980053212"><ele>117.0</ele><time>2026-04-08T14:48:07.999Z</time></trkpt><trkpt lat="46.09482670416278" lon="13.290093769566253"><ele>117.0</ele><time>2026-04-08T14:48:08.999Z</time></trkpt><trkpt lat="46.094936845546464" lon="13.290034434011163"><ele>117.0</ele><time>2026-04-08T14:48:09.999Z</time></trkpt><trkpt lat="46.09503811589494" lon="13.28997965171749"><ele>117.19999999999999</ele><time>2026-04-08T14:48:10.999Z</time></trkpt><trkpt lat="46.09513222610353" lon="13.289932906674544"><ele>117.39999999999999</ele><time>2026-04-08T14:48:11.999Z</time></trkpt><trkpt lat="46.09522875258993" lon="13.289895984708787"><ele>117.60000000000001</ele><time>2026-04-08T14:48:12.999Z</time></trkpt><trkpt lat="46.09533068190685" lon="13.289871530528167"><ele>117.80000000000001</ele><time>2026-04-08T14:48:13.999Z</time></trkpt><trkpt lat="46.095434804807695" lon="13.289869758207486"><ele>118.0</ele><time>2026-04-08T14:48:14.999Z</time></trkpt><trkpt lat="46.09553564078254" lon="13.28987860033896"><ele>118.0</ele><time>2026-04-08T14:48:15.999Z</time></trkpt><trkpt lat="46.09563062897864" lon="13.289872685282743"><ele>118.00000000000001</ele><time>2026-04-08T14:48:16.999Z</time></trkpt><trkpt lat="46.09571760938314" lon="13.289821066890337"><ele>118.00000000000001</ele><time>2026-04-08T14:48:17.999Z</time></trkpt><trkpt lat="46.095794821310115" lon="13.289722920066708"><ele>118.0</ele><time>2026-04-08T14:48:18.999Z</time></trkpt><trkpt lat="46.09588224880676" lon="13.289600382746135"><ele>118.0</ele><time>2026-04-08T14:48:19.999Z</time></trkpt><trkpt lat="46.09598486667461" lon="13.289506872527017"><ele>118.75</ele><time>2026-04-08T14:48:20.999Z</time></trkpt><trkpt lat="46.09609389931543" lon="13.289427413307358"><ele>119.5</ele><time>2026-04-08T14:48:21.999Z</time></trkpt><trkpt lat="46.09621263453795" lon="13.289356581218987"><ele>120.25</ele><time>2026-04-08T14:48:22.999Z</time></trkpt><trkpt lat="46.09633522154302" lon="13.289294433352785"><ele>121.0</ele><time>2026-04-08T14:48:23.999Z</time></trkpt><trkpt lat="46.096445071209025" lon="13.289231584969379"><ele>121.0</ele><time>2026-04-08T14:48:24.999Z</time></trkpt><trkpt lat="46.09654727309101" lon="13.28917502810007"><ele>121.0</ele><time>2026-04-08T14:48:25.999Z</time></trkpt><trkpt lat="46.09665191828475" lon="13.289120601912153"><ele>121.0</ele><time>2026-04-08T14:48:27Z</time></trkpt><trkpt lat="46.096748746179316" lon="13.289068632737782"><ele>121.0</ele><time>2026-04-08T14:48:28Z</time></trkpt><trkpt lat="46.0968344874369" lon="13.28902109254124"><ele>121.0</ele><time>2026-04-08T14:48:29Z</time></trkpt><trkpt lat="46.09692332234363" lon="13.288984065909984"><ele>121.0</ele><time>2026-04-08T14:48:30Z</time></trkpt><trkpt lat="46.09703873283104" lon="13.28894332076609"><ele>121.0</ele><time>2026-04-08T14:48:31Z</time></trkpt><trkpt lat="46.09717008277034" lon="13.288858836925613"><ele>121.0</ele><time>2026-04-08T14:48:32Z</time></trkpt><trkpt lat="46.09733283761197" lon="13.288755265446861"><ele>121.0</ele><time>2026-04-08T14:48:33Z</time></trkpt><trkpt lat="46.09750486956449" lon="13.288666811708262"><ele>120.66666666666667</ele><time>2026-04-08T14:48:34Z</time></trkpt><trkpt lat="46.097664555347144" lon="13.288566697711815"><ele>120.33333333333334</ele><time>2026-04-08T14:48:35Z</time></trkpt><trkpt lat="46.09782986021095" lon="13.288454493950283"><ele>120.0</ele><time>2026-04-08T14:48:36Z</time></trkpt><trkpt lat="46.098001919687164" lon="13.288321769536525"><ele>120.0</ele><time>2026-04-08T14:48:37Z</time></trkpt><trkpt lat="46.098176620201244" lon="13.288159620422201"><ele>120.0</ele><time>2026-04-08T14:48:38Z</time></trkpt><trkpt lat="46.09835237743501" lon="13.287976465743158"><ele>120.0</ele><time>2026-04-08T14:48:39Z</time></trkpt><trkpt lat="46.09852686294346" lon="13.28778143345169"><ele>120.0</ele><time>2026-04-08T14:48:40Z</time></trkpt><trkpt lat="46.09869173336945" lon="13.2875793034193"><ele>120.0</ele><time>2026-04-08T14:48:41Z</time></trkpt><trkpt lat="46.098844941556244" lon="13.28736113844844"><ele>120.0</ele><time>2026-04-08T14:48:42Z</time></trkpt><trkpt lat="46.09899197126514" lon="13.287125038064588"><ele>119.5</ele><time>2026-04-08T14:48:43Z</time></trkpt><trkpt lat="46.09913748708907" lon="13.286872276671527"><ele>119.0</ele><time>2026-04-08T14:48:44Z</time></trkpt><trkpt lat="46.099281639518004" lon="13.286605796189594"><ele>119.0</ele><time>2026-04-08T14:48:45Z</time></trkpt><trkpt lat="46.09942782253948" lon="13.286332874537171"><ele>119.0</ele><time>2026-04-08T14:48:46Z</time></trkpt><trkpt lat="46.099576712658" lon="13.286061970400187"><ele>119.0</ele><time>2026-04-08T14:48:47Z</time></trkpt><trkpt lat="46.09972501443559" lon="13.285802977826386"><ele>119.0</ele><time>2026-04-08T14:48:48Z</time></trkpt><trkpt lat="46.09988036861771" lon="13.28555348657646"><ele>119.5</ele><time>2026-04-08T14:48:49Z</time></trkpt><trkpt lat="46.100047973743926" lon="13.28531019181219"><ele>120.0</ele><time>2026-04-08T14:48:50Z</time></trkpt><trkpt lat="46.10022590580187" lon="13.285075277587122"><ele>120.0</ele><time>2026-04-08T14:48:51Z</time></trkpt><trkpt lat="46.100408704499785" lon="13.28485700498672"><ele>120.0</ele><time>2026-04-08T14:48:52Z</time></trkpt><trkpt lat="46.10059760879884" lon="13.284658059191099"><ele>120.5</ele><time>2026-04-08T14:48:53Z</time></trkpt><trkpt lat="46.100796817831785" lon="13.284469853557136"><ele>121.0</ele><time>2026-04-08T14:48:54Z</time></trkpt><trkpt lat="46.10100320913985" lon="13.284291927986748"><ele>121.0</ele><time>2026-04-08T14:48:55Z</time></trkpt><trkpt lat="46.10121826633257" lon="13.284131880637378"><ele>121.0</ele><time>2026-04-08T14:48:56Z</time></trkpt><trkpt lat="46.10143885566693" lon="13.283988083369396"><ele>121.5</ele><time>2026-04-08T14:48:57Z</time></trkpt><trkpt lat="46.101662426121884" lon="13.283863666324557"><ele>122.0</ele><time>2026-04-08T14:48:58Z</time></trkpt><trkpt lat="46.10189051191869" lon="13.283763207776367"><ele>122.0</ele><time>2026-04-08T14:48:59Z</time></trkpt><trkpt lat="46.10212056633214" lon="13.283680147716431"><ele>122.0</ele><time>2026-04-08T14:49:00Z</time></trkpt><trkpt lat="46.102351192489294" lon="13.283611045205795"><ele>122.5</ele><time>2026-04-08T14:49:01Z</time></trkpt><trkpt lat="46.102581202580566" lon="13.283547921749394"><ele>123.0</ele><time>2026-04-08T14:49:02Z</time></trkpt><trkpt lat="46.10281338395553" lon="13.283486788914676"><ele>123.0</ele><time>2026-04-08T14:49:03Z</time></trkpt><trkpt lat="46.10304892361567" lon="13.283428713164328"><ele>123.0</ele><time>2026-04-08T14:49:04Z</time></trkpt><trkpt lat="46.10328507097973" lon="13.283370453877609"><ele>122.5</ele><time>2026-04-08T14:49:05Z</time></trkpt><trkpt lat="46.10352180060142" lon="13.28331138936746"><ele>122.0</ele><time>2026-04-08T14:49:06Z</time></trkpt><trkpt lat="46.103757135997405" lon="13.283250775958441"><ele>122.0</ele><time>2026-04-08T14:49:07Z</time></trkpt><trkpt lat="46.10398940502739" lon="13.283193052014289"><ele>122.0</ele><time>2026-04-08T14:49:08Z</time></trkpt><trkpt lat="46.10422281835714" lon="13.283136639393726"><ele>122.0</ele><time>2026-04-08T14:49:09Z</time></trkpt><trkpt lat="46.104458992388786" lon="13.283078632373398"><ele>122.0</ele><time>2026-04-08T14:49:10Z</time></trkpt><trkpt lat="46.10469568624954" lon="13.283018831069588"><ele>122.0</ele><time>2026-04-08T14:49:11Z</time></trkpt><trkpt lat="46.10493296095659" lon="13.282957325173246"><ele>122.0</ele><time>2026-04-08T14:49:12Z</time></trkpt><trkpt lat="46.105171678364194" lon="13.282894031898262"><ele>122.0</ele><time>2026-04-08T14:49:13Z</time></trkpt><trkpt lat="46.10540896525277" lon="13.282832909710468"><ele>122.0</ele><time>2026-04-08T14:49:14Z</time></trkpt><trkpt lat="46.10564542454242" lon="13.282773882416208"><ele>122.0</ele><time>2026-04-08T14:49:15Z</time></trkpt><trkpt lat="46.10588173547223" lon="13.282715421061958"><ele>122.0</ele><time>2026-04-08T14:49:16Z</time></trkpt><trkpt lat="46.10611735830936" lon="13.282659485747093"><ele>122.0</ele><time>2026-04-08T14:49:17Z</time></trkpt><trkpt lat="46.10635446843532" lon="13.282604840083676"><ele>122.0</ele><time>2026-04-08T14:49:18Z</time></trkpt><trkpt lat="46.10658871192645" lon="13.282543210495525"><ele>122.5</ele><time>2026-04-08T14:49:19Z</time></trkpt><trkpt lat="46.10682280801094" lon="13.282479177673675"><ele>123.0</ele><time>2026-04-08T14:49:20Z</time></trkpt><trkpt lat="46.1070583382778" lon="13.282416494903085"><ele>123.0</ele><time>2026-04-08T14:49:21Z</time></trkpt><trkpt lat="46.10729306192647" lon="13.282354335083683"><ele>123.0</ele><time>2026-04-08T14:49:22Z</time></trkpt><trkpt lat="46.10752703942353" lon="13.28228441713604"><ele>125.0</ele><time>2026-04-08T14:49:23Z</time></trkpt><trkpt lat="46.10776343491532" lon="13.28220605609682"><ele>127.0</ele><time>2026-04-08T14:49:24Z</time></trkpt><trkpt lat="46.10799791503184" lon="13.282115678845694"><ele>127.0</ele><time>2026-04-08T14:49:25Z</time></trkpt><trkpt lat="46.10822959902625" lon="13.282008735017682"><ele>127.0</ele><time>2026-04-08T14:49:26Z</time></trkpt><trkpt lat="46.108460829999935" lon="13.281884135806996"><ele>128.0</ele><time>2026-04-08T14:49:27Z</time></trkpt><trkpt lat="46.108690224314294" lon="13.28175528161997"><ele>129.0</ele><time>2026-04-08T14:49:28Z</time></trkpt><trkpt lat="46.108917821896185" lon="13.281625323496954"><ele>128.0</ele><time>2026-04-08T14:49:29Z</time></trkpt><trkpt lat="46.109144837322006" lon="13.281497433201334"><ele>127.0</ele><time>2026-04-08T14:49:30Z</time></trkpt><trkpt lat="46.10936697041152" lon="13.281373680320163"><ele>125.5</ele><time>2026-04-08T14:49:31Z</time></trkpt><trkpt lat="46.1095881099805" lon="13.281249698907592"><ele>124.0</ele><time>2026-04-08T14:49:32Z</time></trkpt><trkpt lat="46.10980758525255" lon="13.281126748605702"><ele>125.5</ele><time>2026-04-08T14:49:33Z</time></trkpt><trkpt lat="46.110025371352954" lon="13.281004622896702"><ele>127.0</ele><time>2026-04-08T14:49:34Z</time></trkpt><trkpt lat="46.110243566432885" lon="13.280888377183702"><ele>127.0</ele><time>2026-04-08T14:49:35Z</time></trkpt><trkpt lat="46.11046143888896" lon="13.280778008079716"><ele>127.0</ele><time>2026-04-08T14:49:36Z</time></trkpt><trkpt lat="46.11067565852293" lon="13.2806760892699"><ele>127.33333333333334</ele><time>2026-04-08T14:49:37Z</time></trkpt><trkpt lat="46.110880059093425" lon="13.28058995741093"><ele>127.66666666666666</ele><time>2026-04-08T14:49:38Z</time></trkpt><trkpt lat="46.111071574620865" lon="13.280514134267806"><ele>128.0</ele><time>2026-04-08T14:49:39Z</time></trkpt><trkpt lat="46.11125616684588" lon="13.28043822904843"><ele>128.0</ele><time>2026-04-08T14:49:40Z</time></trkpt><trkpt lat="46.11143840661652" lon="13.280360937992995"><ele>128.0</ele><time>2026-04-08T14:49:41Z</time></trkpt><trkpt lat="46.11161912441494" lon="13.280284906594577"><ele>128.0</ele><time>2026-04-08T14:49:42Z</time></trkpt><trkpt lat="46.11178265792914" lon="13.280213764494254"><ele>128.33333333333331</ele><time>2026-04-08T14:49:43Z</time></trkpt><trkpt lat="46.11193565462151" lon="13.280147168606952"><ele>128.66666666666666</ele><time>2026-04-08T14:49:44Z</time></trkpt><trkpt lat="46.112089615478425" lon="13.280085455536355"><ele>129.0</ele><time>2026-04-08T14:49:45Z</time></trkpt><trkpt lat="46.112242220164156" lon="13.280029327298074"><ele>129.0</ele><time>2026-04-08T14:49:46Z</time></trkpt><trkpt lat="46.11239017838849" lon="13.279970520220393"><ele>129.0</ele><time>2026-04-08T14:49:47Z</time></trkpt><trkpt lat="46.112524180538024" lon="13.279908953637081"><ele>129.0</ele><time>2026-04-08T14:49:48Z</time></trkpt><trkpt lat="46.112643683884215" lon="13.279840805909133"><ele>129.0</ele><time>2026-04-08T14:49:49Z</time></trkpt><trkpt lat="46.11275212141298" lon="13.279750492038426"><ele>129.25</ele><time>2026-04-08T14:49:50Z</time></trkpt><trkpt lat="46.112851993587235" lon="13.279644891578524"><ele>129.5</ele><time>2026-04-08T14:49:51Z</time></trkpt><trkpt lat="46.11294437399031" lon="13.279540967108288"><ele>129.75</ele><time>2026-04-08T14:49:52Z</time></trkpt><trkpt lat="46.11303229431961" lon="13.27943135155397"><ele>130.0</ele><time>2026-04-08T14:49:53Z</time></trkpt><trkpt lat="46.113110852870214" lon="13.279349021140712"><ele>130.0</ele><time>2026-04-08T14:49:54Z</time></trkpt><trkpt lat="46.113188971854555" lon="13.279302943078616"><ele>130.0</ele><time>2026-04-08T14:49:55Z</time></trkpt><trkpt lat="46.1132665825635" lon="13.27930226608838"><ele>130.0</ele><time>2026-04-08T14:49:56Z</time></trkpt><trkpt lat="46.1133488997642" lon="13.27934473463087"><ele>130.0</ele><time>2026-04-08T14:49:57Z</time></trkpt><trkpt lat="46.113421801213555" lon="13.279417206387189"><ele>130.0</ele><time>2026-04-08T14:49:58Z</time></trkpt><trkpt lat="46.113498155275295" lon="13.279489749489553"><ele>130.0</ele><time>2026-04-08T14:49:58.999Z</time></trkpt><trkpt lat="46.11358887579943" lon="13.279544436916728"><ele>129.8</ele><time>2026-04-08T14:49:59.999Z</time></trkpt><trkpt lat="46.11369010005925" lon="13.279571946371538"><ele>129.6</ele><time>2026-04-08T14:50:00.999Z</time></trkpt><trkpt lat="46.11379535345862" lon="13.279563410357836"><ele>129.4</ele><time>2026-04-08T14:50:01.999Z</time></trkpt><trkpt lat="46.11389720033823" lon="13.279508049654877"><ele>129.2</ele><time>2026-04-08T14:50:02.999Z</time></trkpt><trkpt lat="46.11398763822409" lon="13.279412789044011"><ele>129.0</ele><time>2026-04-08T14:50:03.999Z</time></trkpt><trkpt lat="46.11405046671874" lon="13.27929119049222"><ele>129.4</ele><time>2026-04-08T14:50:04.999Z</time></trkpt><trkpt lat="46.11408523094754" lon="13.279154102215418"><ele>129.8</ele><time>2026-04-08T14:50:05.999Z</time></trkpt><trkpt lat="46.114104166867456" lon="13.279002512089885"><ele>130.2</ele><time>2026-04-08T14:50:06.999Z</time></trkpt><trkpt lat="46.11409555613298" lon="13.278844318573192"><ele>130.6</ele><time>2026-04-08T14:50:07.999Z</time></trkpt><trkpt lat="46.114049835456605" lon="13.278688581323479"><ele>131.0</ele><time>2026-04-08T14:50:08.999Z</time></trkpt><trkpt lat="46.11398975297266" lon="13.278527569719296"><ele>131.0</ele><time>2026-04-08T14:50:09.999Z</time></trkpt><trkpt lat="46.11392333662581" lon="13.278364883765457"><ele>131.0</ele><time>2026-04-08T14:50:10.999Z</time></trkpt><trkpt lat="46.11384836475706" lon="13.278200410210369"><ele>131.0</ele><time>2026-04-08T14:50:11.999Z</time></trkpt><trkpt lat="46.113771119761154" lon="13.278022148416708"><ele>131.0</ele><time>2026-04-08T14:50:12.999Z</time></trkpt><trkpt lat="46.11369386062632" lon="13.27783560328573"><ele>131.0</ele><time>2026-04-08T14:50:13.999Z</time></trkpt><trkpt lat="46.11361276508755" lon="13.277643050310148"><ele>131.0</ele><time>2026-04-08T14:50:14.999Z</time></trkpt><trkpt lat="46.11352827924615" lon="13.277446040929108"><ele>131.0</ele><time>2026-04-08T14:50:15.999Z</time></trkpt><trkpt lat="46.11344483984835" lon="13.27724408599544"><ele>130.33333333333331</ele><time>2026-04-08T14:50:16.999Z</time></trkpt><trkpt lat="46.1133551269506" lon="13.277033601477799"><ele>129.66666666666666</ele><time>2026-04-08T14:50:17.999Z</time></trkpt><trkpt lat="46.1132584289929" lon="13.276818808241927"><ele>129.0</ele><time>2026-04-08T14:50:18.999Z</time></trkpt><trkpt lat="46.11316130717833" lon="13.276596162029682"><ele>129.0</ele><time>2026-04-08T14:50:19.999Z</time></trkpt><trkpt lat="46.113063707367225" lon="13.276368282827711"><ele>129.0</ele><time>2026-04-08T14:50:20.999Z</time></trkpt><trkpt lat="46.112961548576315" lon="13.27614030831018"><ele>129.0</ele><time>2026-04-08T14:50:21.999Z</time></trkpt><trkpt lat="46.11285937725243" lon="13.275908657773357"><ele>129.0</ele><time>2026-04-08T14:50:22.999Z</time></trkpt><trkpt lat="46.112761494137345" lon="13.275683320276348"><ele>129.0</ele><time>2026-04-08T14:50:23.999Z</time></trkpt><trkpt lat="46.1126672075219" lon="13.275461296033525"><ele>129.0</ele><time>2026-04-08T14:50:24.999Z</time></trkpt><trkpt lat="46.112572497780185" lon="13.27524732179307"><ele>129.0</ele><time>2026-04-08T14:50:25.999Z</time></trkpt><trkpt lat="46.11247695976527" lon="13.275035576756023"><ele>129.0</ele><time>2026-04-08T14:50:26.999Z</time></trkpt><trkpt lat="46.112382837024064" lon="13.27482421760994"><ele>129.0</ele><time>2026-04-08T14:50:27.999Z</time></trkpt><trkpt lat="46.11228993857989" lon="13.274614000224753"><ele>129.0</ele><time>2026-04-08T14:50:28.999Z</time></trkpt><trkpt lat="46.11219740694573" lon="13.27440592964315"><ele>129.0</ele><time>2026-04-08T14:50:29.999Z</time></trkpt><trkpt lat="46.11210376442743" lon="13.27419991784923"><ele>129.0</ele><time>2026-04-08T14:50:30.999Z</time></trkpt><trkpt lat="46.11201108394108" lon="13.273995225630197"><ele>129.66666666666666</ele><time>2026-04-08T14:50:31.999Z</time></trkpt><trkpt lat="46.11192126114895" lon="13.273790882466447"><ele>130.33333333333331</ele><time>2026-04-08T14:50:33Z</time></trkpt><trkpt lat="46.111832553564035" lon="13.273586251455502"><ele>131.0</ele><time>2026-04-08T14:50:34Z</time></trkpt><trkpt lat="46.11174490278951" lon="13.273387222422647"><ele>131.0</ele><time>2026-04-08T14:50:35Z</time></trkpt><trkpt lat="46.11165982394172" lon="13.273196120023764"><ele>131.0</ele><time>2026-04-08T14:50:36Z</time></trkpt><trkpt lat="46.11158430098831" lon="13.273020198536793"><ele>131.0</ele><time>2026-04-08T14:50:37Z</time></trkpt><trkpt lat="46.1115083004709" lon="13.272843550755626"><ele>131.0</ele><time>2026-04-08T14:50:38Z</time></trkpt><trkpt lat="46.111441508801555" lon="13.272678494351437"><ele>131.0</ele><time>2026-04-08T14:50:39Z</time></trkpt><trkpt lat="46.111394112079175" lon="13.272524157316"><ele>131.0</ele><time>2026-04-08T14:50:40Z</time></trkpt><trkpt lat="46.111358273504784" lon="13.272352411930356"><ele>131.0</ele><time>2026-04-08T14:50:41Z</time></trkpt><trkpt lat="46.111335447857066" lon="13.272163873650676"><ele>131.0</ele><time>2026-04-08T14:50:42Z</time></trkpt><trkpt lat="46.111334724873856" lon="13.271973926734898"><ele>131.0</ele><time>2026-04-08T14:50:43Z</time></trkpt><trkpt lat="46.11135778946218" lon="13.27178634619604"><ele>131.0</ele><time>2026-04-08T14:50:44Z</time></trkpt><trkpt lat="46.11139747321834" lon="13.271609456047557"><ele>131.0</ele><time>2026-04-08T14:50:45Z</time></trkpt><trkpt lat="46.111431075382455" lon="13.27145058732498"><ele>131.0</ele><time>2026-04-08T14:50:46Z</time></trkpt><trkpt lat="46.111438930286575" lon="13.271285900008383"><ele>131.2</ele><time>2026-04-08T14:50:47Z</time></trkpt><trkpt lat="46.11141745643751" lon="13.27112626112948"><ele>131.39999999999998</ele><time>2026-04-08T14:50:48Z</time></trkpt><trkpt lat="46.11136947729422" lon="13.270983046128263"><ele>131.6</ele><time>2026-04-08T14:50:49Z</time></trkpt><trkpt lat="46.1112959462897" lon="13.270864312927719"><ele>131.79999999999998</ele><time>2026-04-08T14:50:50Z</time></trkpt><trkpt lat="46.111205662807045" lon="13.27077439118475"><ele>132.0</ele><time>2026-04-08T14:50:51Z</time></trkpt><trkpt lat="46.111103545475274" lon="13.270713146805733"><ele>132.0</ele><time>2026-04-08T14:50:52Z</time></trkpt><trkpt lat="46.11098880991945" lon="13.27069715173628"><ele>132.0</ele><time>2026-04-08T14:50:53Z</time></trkpt><trkpt lat="46.110865158318525" lon="13.27071499360858"><ele>132.0</ele><time>2026-04-08T14:50:54Z</time></trkpt><trkpt lat="46.11074086637526" lon="13.270708556751497"><ele>132.0</ele><time>2026-04-08T14:50:55Z</time></trkpt><trkpt lat="46.110618310272315" lon="13.270663238966561"><ele>131.75</ele><time>2026-04-08T14:50:56Z</time></trkpt><trkpt lat="46.11049993027561" lon="13.270600381447624"><ele>131.5</ele><time>2026-04-08T14:50:57Z</time></trkpt><trkpt lat="46.11038225741667" lon="13.270506199999527"><ele>131.25</ele><time>2026-04-08T14:50:58Z</time></trkpt><trkpt lat="46.11027051460163" lon="13.2703839162911"><ele>131.0</ele><time>2026-04-08T14:50:59Z</time></trkpt><trkpt lat="46.11017402635734" lon="13.270231137303947"><ele>131.0</ele><time>2026-04-08T14:51:00Z</time></trkpt><trkpt lat="46.11007519091671" lon="13.270066864961544"><ele>131.0</ele><time>2026-04-08T14:51:01Z</time></trkpt><trkpt lat="46.10996460838919" lon="13.26988937675744"><ele>131.0</ele><time>2026-04-08T14:51:02Z</time></trkpt><trkpt lat="46.10985498771064" lon="13.269711629209793"><ele>130.0</ele><time>2026-04-08T14:51:03Z</time></trkpt><trkpt lat="46.10974841193124" lon="13.269535797914344"><ele>129.0</ele><time>2026-04-08T14:51:04Z</time></trkpt><trkpt lat="46.109640697614715" lon="13.269358856010761"><ele>128.0</ele><time>2026-04-08T14:51:05Z</time></trkpt><trkpt lat="46.109526205972834" lon="13.26917128292962"><ele>128.0</ele><time>2026-04-08T14:51:06Z</time></trkpt><trkpt lat="46.10940755955731" lon="13.26897273355983"><ele>128.0</ele><time>2026-04-08T14:51:07Z</time></trkpt><trkpt lat="46.10928805330992" lon="13.26877504286801"><ele>128.0</ele><time>2026-04-08T14:51:08Z</time></trkpt><trkpt lat="46.10916351029406" lon="13.268572253518125"><ele>128.33333333333331</ele><time>2026-04-08T14:51:09Z</time></trkpt><trkpt lat="46.10903910667594" lon="13.268367417170834"><ele>128.66666666666666</ele><time>2026-04-08T14:51:10Z</time></trkpt><trkpt lat="46.10891613306143" lon="13.268163099650925"><ele>129.0</ele><time>2026-04-08T14:51:11Z</time></trkpt><trkpt lat="46.10879211338285" lon="13.267956489780119"><ele>129.0</ele><time>2026-04-08T14:51:12Z</time></trkpt><trkpt lat="46.10866597666715" lon="13.267745908731314"><ele>129.0</ele><time>2026-04-08T14:51:13Z</time></trkpt><trkpt lat="46.10853679822437" lon="13.267532547921718"><ele>129.0</ele><time>2026-04-08T14:51:14Z</time></trkpt><trkpt lat="46.10840299148527" lon="13.267311818443588"><ele>128.66666666666666</ele><time>2026-04-08T14:51:15Z</time></trkpt><trkpt lat="46.10826863158115" lon="13.267087981936196"><ele>128.33333333333331</ele><time>2026-04-08T14:51:16Z</time></trkpt><trkpt lat="46.10813494454284" lon="13.266868270484375"><ele>128.0</ele><time>2026-04-08T14:51:17Z</time></trkpt><trkpt lat="46.108003883949145" lon="13.266651627095019"><ele>128.33333333333331</ele><time>2026-04-08T14:51:18Z</time></trkpt><trkpt lat="46.10787233510043" lon="13.266436818091766"><ele>128.66666666666666</ele><time>2026-04-08T14:51:19Z</time></trkpt><trkpt lat="46.107740399287486" lon="13.266223441991656"><ele>129.0</ele><time>2026-04-08T14:51:20Z</time></trkpt><trkpt lat="46.107609412879114" lon="13.266010745714892"><ele>129.0</ele><time>2026-04-08T14:51:21Z</time></trkpt><trkpt lat="46.10748117725131" lon="13.265805069869458"><ele>129.0</ele><time>2026-04-08T14:51:22Z</time></trkpt><trkpt lat="46.10736024766452" lon="13.2656083468046"><ele>129.0</ele><time>2026-04-08T14:51:23Z</time></trkpt><trkpt lat="46.1072456699825" lon="13.26541783524909"><ele>128.66666666666666</ele><time>2026-04-08T14:51:24Z</time></trkpt><trkpt lat="46.10713487873215" lon="13.265232108369425"><ele>128.33333333333331</ele><time>2026-04-08T14:51:25Z</time></trkpt><trkpt lat="46.10702602475113" lon="13.265051581595632"><ele>128.0</ele><time>2026-04-08T14:51:26Z</time></trkpt><trkpt lat="46.106921768375024" lon="13.264879631229293"><ele>128.0</ele><time>2026-04-08T14:51:27Z</time></trkpt><trkpt lat="46.10682951265658" lon="13.264731528017474"><ele>128.0</ele><time>2026-04-08T14:51:28Z</time></trkpt><trkpt lat="46.106742099392385" lon="13.264588647841155"><ele>128.0</ele><time>2026-04-08T14:51:29Z</time></trkpt><trkpt lat="46.10665157440573" lon="13.264437332222677"><ele>128.0</ele><time>2026-04-08T14:51:30Z</time></trkpt><trkpt lat="46.10655762517709" lon="13.264282510341623"><ele>128.25</ele><time>2026-04-08T14:51:31Z</time></trkpt><trkpt lat="46.10646778164656" lon="13.264138425845694"><ele>128.5</ele><time>2026-04-08T14:51:32Z</time></trkpt><trkpt lat="46.10637078264162" lon="13.263980314913534"><ele>128.75</ele><time>2026-04-08T14:51:33Z</time></trkpt><trkpt lat="46.106276440747834" lon="13.263823765802451"><ele>129.0</ele><time>2026-04-08T14:51:34Z</time></trkpt><trkpt lat="46.10618500063492" lon="13.263671635783199"><ele>129.0</ele><time>2026-04-08T14:51:35Z</time></trkpt><trkpt lat="46.1060816613924" lon="13.263506573406445"><ele>129.0</ele><time>2026-04-08T14:51:36Z</time></trkpt><trkpt lat="46.10597387594744" lon="13.263300551678185"><ele>129.0</ele><time>2026-04-08T14:51:37Z</time></trkpt><trkpt lat="46.10583847314139" lon="13.263079733694521"><ele>129.33333333333334</ele><time>2026-04-08T14:51:38Z</time></trkpt><trkpt lat="46.10568162303479" lon="13.262850279159354"><ele>129.66666666666669</ele><time>2026-04-08T14:51:39Z</time></trkpt><trkpt lat="46.105540708532885" lon="13.262604067900345"><ele>130.0</ele><time>2026-04-08T14:51:40Z</time></trkpt><trkpt lat="46.10541037371699" lon="13.262387671613896"><ele>129.66666666666669</ele><time>2026-04-08T14:51:41Z</time></trkpt><trkpt lat="46.10528262731776" lon="13.262177796112516"><ele>129.33333333333334</ele><time>2026-04-08T14:51:42Z</time></trkpt><trkpt lat="46.105163301993315" lon="13.261979512769258"><ele>129.0</ele><time>2026-04-08T14:51:43Z</time></trkpt><trkpt lat="46.10505310815646" lon="13.261796635328315"><ele>129.0</ele><time>2026-04-08T14:51:44Z</time></trkpt><trkpt lat="46.1049440352502" lon="13.26161639254932"><ele>129.0</ele><time>2026-04-08T14:51:45Z</time></trkpt><trkpt lat="46.10483721986146" lon="13.261440562994958"><ele>129.0</ele><time>2026-04-08T14:51:46Z</time></trkpt><trkpt lat="46.10472948102709" lon="13.261262277483326"><ele>128.66666666666666</ele><time>2026-04-08T14:51:47Z</time></trkpt><trkpt lat="46.104619229899114" lon="13.261078947308317"><ele>128.33333333333331</ele><time>2026-04-08T14:51:48Z</time></trkpt><trkpt lat="46.10451178127155" lon="13.260901961272305"><ele>128.0</ele><time>2026-04-08T14:51:49Z</time></trkpt><trkpt lat="46.1044114396667" lon="13.260740058284465"><ele>127.75</ele><time>2026-04-08T14:51:50Z</time></trkpt><trkpt lat="46.10431592597843" lon="13.260583248534457"><ele>127.5</ele><time>2026-04-08T14:51:51Z</time></trkpt><trkpt lat="46.10421532671452" lon="13.260415660832809"><ele>127.25</ele><time>2026-04-08T14:51:52Z</time></trkpt><trkpt lat="46.104124056691155" lon="13.260266085473882"><ele>127.0</ele><time>2026-04-08T14:51:53Z</time></trkpt><trkpt lat="46.104038182690914" lon="13.260125719313166"><ele>127.0</ele><time>2026-04-08T14:51:54Z</time></trkpt><trkpt lat="46.1039581676444" lon="13.259996344933842"><ele>126.99999999999999</ele><time>2026-04-08T14:51:55Z</time></trkpt><trkpt lat="46.10388546179449" lon="13.259875743855666"><ele>126.99999999999999</ele><time>2026-04-08T14:51:56Z</time></trkpt><trkpt lat="46.103819585734215" lon="13.259763629095385"><ele>127.0</ele><time>2026-04-08T14:51:57Z</time></trkpt><trkpt lat="46.10376272048101" lon="13.259665163099355"><ele>127.0</ele><time>2026-04-08T14:51:58Z</time></trkpt><trkpt lat="46.10371478068456" lon="13.259582954257008"><ele>127.00000000000001</ele><time>2026-04-08T14:51:59Z</time></trkpt><trkpt lat="46.10367354404781" lon="13.259511947024636"><ele>127.0</ele><time>2026-04-08T14:52:00Z</time></trkpt><trkpt lat="46.10362608688652" lon="13.259417597760772"><ele>127.0</ele><time>2026-04-08T14:52:02Z</time></trkpt><trkpt lat="46.103586461945994" lon="13.259311932271055"><ele>127.0</ele><time>2026-04-08T14:52:04.999Z</time></trkpt><trkpt lat="46.103556095682706" lon="13.259168873506285"><ele>127.00000000000001</ele><time>2026-04-08T14:52:06.999Z</time></trkpt><trkpt lat="46.10350960678279" lon="13.259097931185579"><ele>127.0</ele><time>2026-04-08T14:52:07.999Z</time></trkpt><trkpt lat="46.103444126139784" lon="13.259041527251085"><ele>127.0</ele><time>2026-04-08T14:52:08.999Z</time></trkpt><trkpt lat="46.10335557200177" lon="13.258966791797954"><ele>126.99999999999999</ele><time>2026-04-08T14:52:09.999Z</time></trkpt><trkpt lat="46.10327337560712" lon="13.25887127629332"><ele>126.99999999999999</ele><time>2026-04-08T14:52:10.999Z</time></trkpt><trkpt lat="46.10320403496444" lon="13.25876306911273"><ele>127.0</ele><time>2026-04-08T14:52:11.999Z</time></trkpt><trkpt lat="46.103131423176514" lon="13.258634047357543"><ele>127.0</ele><time>2026-04-08T14:52:12.999Z</time></trkpt><trkpt lat="46.10305026002201" lon="13.258505156851397"><ele>126.5</ele><time>2026-04-08T14:52:13.999Z</time></trkpt><trkpt lat="46.10297126913654" lon="13.25837851342569"><ele>126.0</ele><time>2026-04-08T14:52:14.999Z</time></trkpt><trkpt lat="46.10288905426688" lon="13.25824020247815"><ele>125.5</ele><time>2026-04-08T14:52:15.999Z</time></trkpt><trkpt lat="46.10280267586308" lon="13.258096058507975"><ele>125.0</ele><time>2026-04-08T14:52:16.999Z</time></trkpt><trkpt lat="46.102712459930956" lon="13.257946749471522"><ele>124.75</ele><time>2026-04-08T14:52:17.999Z</time></trkpt><trkpt lat="46.10261972741091" lon="13.257797902288763"><ele>124.5</ele><time>2026-04-08T14:52:18.999Z</time></trkpt><trkpt lat="46.10253060647656" lon="13.257649616420633"><ele>124.25</ele><time>2026-04-08T14:52:19.999Z</time></trkpt><trkpt lat="46.10244167261471" lon="13.257500791125462"><ele>124.0</ele><time>2026-04-08T14:52:20.999Z</time></trkpt><trkpt lat="46.10234604864483" lon="13.25735342107435"><ele>124.0</ele><time>2026-04-08T14:52:21.999Z</time></trkpt><trkpt lat="46.102248385643136" lon="13.257210922524303"><ele>124.0</ele><time>2026-04-08T14:52:22.999Z</time></trkpt><trkpt lat="46.10214744501719" lon="13.257076491968261"><ele>124.0</ele><time>2026-04-08T14:52:23.999Z</time></trkpt><trkpt lat="46.102042720634024" lon="13.256946974513143"><ele>124.0</ele><time>2026-04-08T14:52:24.999Z</time></trkpt><trkpt lat="46.10193091017452" lon="13.256814703388946"><ele>124.0</ele><time>2026-04-08T14:52:25.999Z</time></trkpt><trkpt lat="46.10181479570034" lon="13.25668156228109"><ele>124.0</ele><time>2026-04-08T14:52:26.999Z</time></trkpt><trkpt lat="46.10170444814737" lon="13.256564502825654"><ele>124.0</ele><time>2026-04-08T14:52:27.999Z</time></trkpt><trkpt lat="46.10160610338842" lon="13.256466710627517"><ele>124.0</ele><time>2026-04-08T14:52:28.999Z</time></trkpt><trkpt lat="46.1015103387825" lon="13.2563764553673"><ele>123.75</ele><time>2026-04-08T14:52:29.999Z</time></trkpt><trkpt lat="46.10140892058468" lon="13.256286192596319"><ele>123.5</ele><time>2026-04-08T14:52:30.999Z</time></trkpt><trkpt lat="46.101305131166825" lon="13.256200866459576"><ele>123.25</ele><time>2026-04-08T14:52:31.999Z</time></trkpt><trkpt lat="46.101208080834695" lon="13.25612446131898"><ele>123.0</ele><time>2026-04-08T14:52:32.999Z</time></trkpt><trkpt lat="46.101114634920016" lon="13.256051076892081"><ele>123.0</ele><time>2026-04-08T14:52:33.999Z</time></trkpt><trkpt lat="46.101023575241754" lon="13.255985692753764"><ele>123.0</ele><time>2026-04-08T14:52:34.999Z</time></trkpt><trkpt lat="46.100946173358615" lon="13.255932685878657"><ele>123.0</ele><time>2026-04-08T14:52:35.999Z</time></trkpt><trkpt lat="46.100876713908164" lon="13.255875884080302"><ele>123.0</ele><time>2026-04-08T14:52:36.999Z</time></trkpt><trkpt lat="46.10080936567785" lon="13.255798034075157"><ele>123.0</ele><time>2026-04-08T14:52:37.999Z</time></trkpt><trkpt lat="46.100753426384244" lon="13.2556938666779"><ele>123.0</ele><time>2026-04-08T14:52:39Z</time></trkpt><trkpt lat="46.100706297028765" lon="13.255558230643459"><ele>123.5</ele><time>2026-04-08T14:52:40Z</time></trkpt><trkpt lat="46.1006755000741" lon="13.255393436837526"><ele>124.0</ele><time>2026-04-08T14:52:41Z</time></trkpt><trkpt lat="46.100673298284185" lon="13.2552230044069"><ele>124.5</ele><time>2026-04-08T14:52:42Z</time></trkpt><trkpt lat="46.100689374054994" lon="13.255056343210622"><ele>125.0</ele><time>2026-04-08T14:52:43Z</time></trkpt><trkpt lat="46.10070845272919" lon="13.254891775687184"><ele>125.0</ele><time>2026-04-08T14:52:44Z</time></trkpt><trkpt lat="46.10073335693768" lon="13.254719252720378"><ele>125.0</ele><time>2026-04-08T14:52:45Z</time></trkpt><trkpt lat="46.10076276914905" lon="13.254532316606143"><ele>125.0</ele><time>2026-04-08T14:52:46Z</time></trkpt><trkpt lat="46.10079535633236" lon="13.254328284120612"><ele>125.0</ele><time>2026-04-08T14:52:47Z</time></trkpt><trkpt lat="46.100822331992774" lon="13.254124617209074"><ele>125.33333333333333</ele><time>2026-04-08T14:52:48Z</time></trkpt><trkpt lat="46.10083976706939" lon="13.253926151530314"><ele>125.66666666666666</ele><time>2026-04-08T14:52:49Z</time></trkpt><trkpt lat="46.100850193442184" lon="13.253701645100938"><ele>126.0</ele><time>2026-04-08T14:52:50Z</time></trkpt><trkpt lat="46.100853283416775" lon="13.25346029867781"><ele>126.0</ele><time>2026-04-08T14:52:51Z</time></trkpt><trkpt lat="46.100849804935415" lon="13.25323353742193"><ele>126.0</ele><time>2026-04-08T14:52:52Z</time></trkpt><trkpt lat="46.1008465252577" lon="13.253013388838047"><ele>126.0</ele><time>2026-04-08T14:52:53Z</time></trkpt><trkpt lat="46.100846393641156" lon="13.252780907087"><ele>125.66666666666666</ele><time>2026-04-08T14:52:54Z</time></trkpt><trkpt lat="46.10084470714741" lon="13.252533988284092"><ele>125.33333333333333</ele><time>2026-04-08T14:52:55Z</time></trkpt><trkpt lat="46.100841743538666" lon="13.252294378583109"><ele>125.0</ele><time>2026-04-08T14:52:56Z</time></trkpt><trkpt lat="46.10083854411122" lon="13.252064505291399"><ele>125.0</ele><time>2026-04-08T14:52:57Z</time></trkpt><trkpt lat="46.10083547288008" lon="13.251826661965287"><ele>125.0</ele><time>2026-04-08T14:52:58Z</time></trkpt><trkpt lat="46.10083159614923" lon="13.2515805306791"><ele>125.0</ele><time>2026-04-08T14:52:59Z</time></trkpt><trkpt lat="46.10082853148928" lon="13.251333851910337"><ele>125.0</ele><time>2026-04-08T14:53:00Z</time></trkpt><trkpt lat="46.1008249093981" lon="13.251088392700984"><ele>125.0</ele><time>2026-04-08T14:53:01Z</time></trkpt><trkpt lat="46.100822025070535" lon="13.250848983071304"><ele>125.0</ele><time>2026-04-08T14:53:02Z</time></trkpt><trkpt lat="46.10081920233834" lon="13.250611556295047"><ele>124.66666666666666</ele><time>2026-04-08T14:53:03Z</time></trkpt><trkpt lat="46.10081624162373" lon="13.250371997232827"><ele>124.33333333333334</ele><time>2026-04-08T14:53:04Z</time></trkpt><trkpt lat="46.100812191674464" lon="13.250130260852412"><ele>124.0</ele><time>2026-04-08T14:53:05Z</time></trkpt><trkpt lat="46.10080906473519" lon="13.249884153022581"><ele>124.66666666666667</ele><time>2026-04-08T14:53:06Z</time></trkpt><trkpt lat="46.10080941412066" lon="13.249639139698381"><ele>125.33333333333334</ele><time>2026-04-08T14:53:07Z</time></trkpt><trkpt lat="46.1008118865098" lon="13.249394790228772"><ele>126.0</ele><time>2026-04-08T14:53:08Z</time></trkpt><trkpt lat="46.10081697176185" lon="13.249156187985127"><ele>126.66666666666666</ele><time>2026-04-08T14:53:09Z</time></trkpt><trkpt lat="46.10081933038394" lon="13.248925707002467"><ele>127.33333333333333</ele><time>2026-04-08T14:53:10Z</time></trkpt><trkpt lat="46.10082121934264" lon="13.248694395331839"><ele>128.0</ele><time>2026-04-08T14:53:11Z</time></trkpt><trkpt lat="46.10082120634297" lon="13.248464756409556"><ele>128.0</ele><time>2026-04-08T14:53:12Z</time></trkpt><trkpt lat="46.10082132117582" lon="13.248235454327098"><ele>128.0</ele><time>2026-04-08T14:53:13Z</time></trkpt><trkpt lat="46.10082496551361" lon="13.24800677430332"><ele>128.0</ele><time>2026-04-08T14:53:14Z</time></trkpt><trkpt lat="46.100828845259194" lon="13.247770142168365"><ele>128.0</ele><time>2026-04-08T14:53:15Z</time></trkpt><trkpt lat="46.100830330652116" lon="13.247539672892087"><ele>128.0</ele><time>2026-04-08T14:53:16Z</time></trkpt><trkpt lat="46.100829892499185" lon="13.247314777261996"><ele>128.0</ele><time>2026-04-08T14:53:17Z</time></trkpt><trkpt lat="46.10082541296526" lon="13.247094009849624"><ele>127.66666666666666</ele><time>2026-04-08T14:53:18Z</time></trkpt><trkpt lat="46.10081858455087" lon="13.246872322324865"><ele>127.33333333333334</ele><time>2026-04-08T14:53:19Z</time></trkpt><trkpt lat="46.10081004964569" lon="13.246648805333932"><ele>127.0</ele><time>2026-04-08T14:53:20Z</time></trkpt><trkpt lat="46.10080057613025" lon="13.246420623992098"><ele>127.66666666666667</ele><time>2026-04-08T14:53:21Z</time></trkpt><trkpt lat="46.10078913096693" lon="13.246206723646242"><ele>128.33333333333334</ele><time>2026-04-08T14:53:22Z</time></trkpt><trkpt lat="46.1007759873597" lon="13.245990333561206"><ele>129.0</ele><time>2026-04-08T14:53:23Z</time></trkpt><trkpt lat="46.10075876699787" lon="13.24576987119461"><ele>128.75</ele><time>2026-04-08T14:53:24Z</time></trkpt><trkpt lat="46.10073862359062" lon="13.24556141757443"><ele>128.5</ele><time>2026-04-08T14:53:25Z</time></trkpt><trkpt lat="46.10071946562148" lon="13.245358499082688"><ele>128.25</ele><time>2026-04-08T14:53:26Z</time></trkpt><trkpt lat="46.100702835207905" lon="13.245160173327145"><ele>128.0</ele><time>2026-04-08T14:53:27Z</time></trkpt><trkpt lat="46.100687154645726" lon="13.244960925615697"><ele>127.75</ele><time>2026-04-08T14:53:28Z</time></trkpt><trkpt lat="46.10067228366194" lon="13.244762926296712"><ele>127.5</ele><time>2026-04-08T14:53:29Z</time></trkpt><trkpt lat="46.10065923847214" lon="13.244572714415312"><ele>127.25</ele><time>2026-04-08T14:53:30Z</time></trkpt><trkpt lat="46.10064541582711" lon="13.244405756924525"><ele>127.0</ele><time>2026-04-08T14:53:31Z</time></trkpt><trkpt lat="46.100633720110366" lon="13.244241198407202"><ele>127.0</ele><time>2026-04-08T14:53:32Z</time></trkpt><trkpt lat="46.10062361106086" lon="13.244075345646435"><ele>126.99999999999999</ele><time>2026-04-08T14:53:33Z</time></trkpt><trkpt lat="46.100613406737" lon="13.24391771423206"><ele>126.99999999999999</ele><time>2026-04-08T14:53:34Z</time></trkpt><trkpt lat="46.10060755326082" lon="13.243773564556841"><ele>127.0</ele><time>2026-04-08T14:53:35Z</time></trkpt><trkpt lat="46.10060926897139" lon="13.243639687885258"><ele>127.0</ele><time>2026-04-08T14:53:36Z</time></trkpt><trkpt lat="46.10061758919013" lon="13.24352045641255"><ele>127.0</ele><time>2026-04-08T14:53:37Z</time></trkpt><trkpt lat="46.100625434975925" lon="13.243420296846155"><ele>127.0</ele><time>2026-04-08T14:53:38Z</time></trkpt><trkpt lat="46.10064413053072" lon="13.243323538151232"><ele>127.0</ele><time>2026-04-08T14:53:39Z</time></trkpt><trkpt lat="46.10068146893347" lon="13.24323298732256"><ele>127.0</ele><time>2026-04-08T14:53:40Z</time></trkpt><trkpt lat="46.10072743333099" lon="13.243158759059847"><ele>127.0</ele><time>2026-04-08T14:53:41Z</time></trkpt><trkpt lat="46.100765618487145" lon="13.243080271938503"><ele>127.0</ele><time>2026-04-08T14:53:42Z</time></trkpt><trkpt lat="46.10078169297152" lon="13.242984273421948"><ele>127.0</ele><time>2026-04-08T14:53:43Z</time></trkpt><trkpt lat="46.100768530949" lon="13.2428839636616"><ele>126.83333333333334</ele><time>2026-04-08T14:53:44Z</time></trkpt><trkpt lat="46.10072677159314" lon="13.242802891463079"><ele>126.66666666666667</ele><time>2026-04-08T14:53:45Z</time></trkpt><trkpt lat="46.10066835837497" lon="13.242733990725347"><ele>126.5</ele><time>2026-04-08T14:53:46Z</time></trkpt><trkpt lat="46.10061473211002" lon="13.242649530942433"><ele>126.33333333333334</ele><time>2026-04-08T14:53:47Z</time></trkpt><trkpt lat="46.10058112172304" lon="13.242534325381971"><ele>126.16666666666667</ele><time>2026-04-08T14:53:48Z</time></trkpt><trkpt lat="46.10056194672112" lon="13.242401520675337"><ele>126.0</ele><time>2026-04-08T14:53:49Z</time></trkpt><trkpt lat="46.10053740108485" lon="13.242265538278469"><ele>126.0</ele><time>2026-04-08T14:53:50Z</time></trkpt><trkpt lat="46.10051339817495" lon="13.242122376473317"><ele>126.0</ele><time>2026-04-08T14:53:51Z</time></trkpt><trkpt lat="46.100492044398145" lon="13.241971373081386"><ele>126.0</ele><time>2026-04-08T14:53:52Z</time></trkpt><trkpt lat="46.1004709707455" lon="13.241812529434096"><ele>126.0</ele><time>2026-04-08T14:53:53Z</time></trkpt><trkpt lat="46.100458577434964" lon="13.241650828440413"><ele>126.0</ele><time>2026-04-08T14:53:54Z</time></trkpt><trkpt lat="46.10044848684584" lon="13.241481696969888"><ele>126.0</ele><time>2026-04-08T14:53:55Z</time></trkpt><trkpt lat="46.10043571495987" lon="13.241307264328288"><ele>126.0</ele><time>2026-04-08T14:53:56Z</time></trkpt><trkpt lat="46.100420300364114" lon="13.2411247953312"><ele>126.0</ele><time>2026-04-08T14:53:57Z</time></trkpt><trkpt lat="46.10040449380103" lon="13.240947755932261"><ele>126.0</ele><time>2026-04-08T14:53:58Z</time></trkpt><trkpt lat="46.10039241706939" lon="13.240784339495397"><ele>126.25</ele><time>2026-04-08T14:53:59Z</time></trkpt><trkpt lat="46.10038536393031" lon="13.240625303799138"><ele>126.5</ele><time>2026-04-08T14:54:00Z</time></trkpt><trkpt lat="46.10037649500051" lon="13.240464068370162"><ele>126.75</ele><time>2026-04-08T14:54:01Z</time></trkpt><trkpt lat="46.100362455714816" lon="13.240300385673317"><ele>127.0</ele><time>2026-04-08T14:54:02Z</time></trkpt><trkpt lat="46.100345943111414" lon="13.240130456202246"><ele>127.0</ele><time>2026-04-08T14:54:03Z</time></trkpt><trkpt lat="46.10032372015082" lon="13.239966727709522"><ele>126.99999999999999</ele><time>2026-04-08T14:54:03.999Z</time></trkpt><trkpt lat="46.100306927817996" lon="13.239828897811185"><ele>126.99999999999999</ele><time>2026-04-08T14:54:04.999Z</time></trkpt><trkpt lat="46.100291635703485" lon="13.23970416870619"><ele>127.0</ele><time>2026-04-08T14:54:05.999Z</time></trkpt><trkpt lat="46.10027465135151" lon="13.239588372049703"><ele>127.0</ele><time>2026-04-08T14:54:06.999Z</time></trkpt><trkpt lat="46.10025896837747" lon="13.239490142839424"><ele>127.00000000000001</ele><time>2026-04-08T14:54:07.999Z</time></trkpt><trkpt lat="46.10024228242463" lon="13.23939922650141"><ele>127.0</ele><time>2026-04-08T14:54:08.999Z</time></trkpt><trkpt lat="46.10021134327516" lon="13.239239840298561"><ele>127.0</ele><time>2026-04-08T14:54:10.999Z</time></trkpt><trkpt lat="46.10018308146181" lon="13.239122195822096"><ele>127.0</ele><time>2026-04-08T14:54:12.999Z</time></trkpt><trkpt lat="46.10015492931677" lon="13.23901351492938"><ele>127.00000000000001</ele><time>2026-04-08T14:54:15.999Z</time></trkpt><trkpt lat="46.10011644454645" lon="13.23889764136856"><ele>127.0</ele><time>2026-04-08T14:54:38.999Z</time></trkpt><trkpt lat="46.10006924503269" lon="13.238759463707014"><ele>127.00000000000001</ele><time>2026-04-08T14:54:40.999Z</time></trkpt><trkpt lat="46.100038241122235" lon="13.238674561655541"><ele>127.0</ele><time>2026-04-08T14:54:41.999Z</time></trkpt><trkpt lat="46.09996166056391" lon="13.238514806851867"><ele>127.0</ele><time>2026-04-08T14:54:43.999Z</time></trkpt><trkpt lat="46.09991727889521" lon="13.238428939518787"><ele>127.0</ele><time>2026-04-08T14:54:45Z</time></trkpt><trkpt lat="46.09986877003628" lon="13.238334648880436"><ele>127.00000000000001</ele><time>2026-04-08T14:54:46Z</time></trkpt><trkpt lat="46.09981862539743" lon="13.23823512759705"><ele>127.0</ele><time>2026-04-08T14:54:47Z</time></trkpt><trkpt lat="46.09976826791327" lon="13.238131093692823"><ele>126.6</ele><time>2026-04-08T14:54:48Z</time></trkpt><trkpt lat="46.099724965001656" lon="13.238012826872817"><ele>126.19999999999999</ele><time>2026-04-08T14:54:49Z</time></trkpt><trkpt lat="46.09967679107271" lon="13.237884202097774"><ele>125.8</ele><time>2026-04-08T14:54:50Z</time></trkpt><trkpt lat="46.099632499680425" lon="13.237739079267586"><ele>125.4</ele><time>2026-04-08T14:54:51Z</time></trkpt><trkpt lat="46.0995863814857" lon="13.237588875159556"><ele>125.0</ele><time>2026-04-08T14:54:52Z</time></trkpt><trkpt lat="46.09953837106956" lon="13.237436970149874"><ele>125.25</ele><time>2026-04-08T14:54:53Z</time></trkpt><trkpt lat="46.09948481105343" lon="13.2372642279739"><ele>125.5</ele><time>2026-04-08T14:54:54Z</time></trkpt><trkpt lat="46.09942967872057" lon="13.23708757144723"><ele>125.75</ele><time>2026-04-08T14:54:55Z</time></trkpt><trkpt lat="46.099377343629385" lon="13.236911923500905"><ele>126.0</ele><time>2026-04-08T14:54:56Z</time></trkpt><trkpt lat="46.099326169992786" lon="13.236735218698684"><ele>126.0</ele><time>2026-04-08T14:54:57Z</time></trkpt><trkpt lat="46.099276266640494" lon="13.236556202782214"><ele>126.0</ele><time>2026-04-08T14:54:58Z</time></trkpt><trkpt lat="46.09922886007352" lon="13.236381713001993"><ele>126.0</ele><time>2026-04-08T14:54:59Z</time></trkpt><trkpt lat="46.099183987826635" lon="13.23621050094311"><ele>126.0</ele><time>2026-04-08T14:55:00Z</time></trkpt><trkpt lat="46.09913982218073" lon="13.23604061016511"><ele>126.0</ele><time>2026-04-08T14:55:01Z</time></trkpt><trkpt lat="46.099097853562725" lon="13.235877706475664"><ele>126.0</ele><time>2026-04-08T14:55:02Z</time></trkpt><trkpt lat="46.099057449776296" lon="13.235715228698473"><ele>126.0</ele><time>2026-04-08T14:55:03Z</time></trkpt><trkpt lat="46.099015940208886" lon="13.235553365993495"><ele>126.0</ele><time>2026-04-08T14:55:04Z</time></trkpt><trkpt lat="46.09897690632122" lon="13.2353868639972"><ele>126.0</ele><time>2026-04-08T14:55:05Z</time></trkpt><trkpt lat="46.098935699415236" lon="13.235213029577052"><ele>126.0</ele><time>2026-04-08T14:55:06Z</time></trkpt><trkpt lat="46.0988911347043" lon="13.235039861368856"><ele>126.0</ele><time>2026-04-08T14:55:07Z</time></trkpt><trkpt lat="46.09884753441442" lon="13.234866696366353"><ele>126.0</ele><time>2026-04-08T14:55:08Z</time></trkpt><trkpt lat="46.09880486212889" lon="13.234691941965426"><ele>126.0</ele><time>2026-04-08T14:55:09Z</time></trkpt><trkpt lat="46.0987623793143" lon="13.234521273134941"><ele>126.0</ele><time>2026-04-08T14:55:10Z</time></trkpt><trkpt lat="46.098721231672734" lon="13.234351263710712"><ele>126.0</ele><time>2026-04-08T14:55:11Z</time></trkpt><trkpt lat="46.09867908596363" lon="13.234184000444296"><ele>126.0</ele><time>2026-04-08T14:55:12Z</time></trkpt><trkpt lat="46.09863570855336" lon="13.234017784666545"><ele>126.25</ele><time>2026-04-08T14:55:13Z</time></trkpt><trkpt lat="46.0985924527563" lon="13.2338540233361"><ele>126.5</ele><time>2026-04-08T14:55:14Z</time></trkpt><trkpt lat="46.09854678188077" lon="13.233689310297967"><ele>126.75</ele><time>2026-04-08T14:55:15Z</time></trkpt><trkpt lat="46.09849499201677" lon="13.233528294198766"><ele>127.0</ele><time>2026-04-08T14:55:16Z</time></trkpt><trkpt lat="46.098441906291725" lon="13.23336724972188"><ele>127.0</ele><time>2026-04-08T14:55:17Z</time></trkpt><trkpt lat="46.0983899503345" lon="13.233209045044877"><ele>127.0</ele><time>2026-04-08T14:55:18Z</time></trkpt><trkpt lat="46.098334516929214" lon="13.233053470779875"><ele>127.0</ele><time>2026-04-08T14:55:19Z</time></trkpt><trkpt lat="46.098277183234806" lon="13.232897468371503"><ele>127.0</ele><time>2026-04-08T14:55:20Z</time></trkpt><trkpt lat="46.09822295689646" lon="13.232737089796766"><ele>126.75</ele><time>2026-04-08T14:55:21Z</time></trkpt><trkpt lat="46.098172148603645" lon="13.232573549214715"><ele>126.5</ele><time>2026-04-08T14:55:22Z</time></trkpt><trkpt lat="46.098125299936186" lon="13.232408614691865"><ele>126.25</ele><time>2026-04-08T14:55:23Z</time></trkpt><trkpt lat="46.09808457311848" lon="13.232243870330285"><ele>126.0</ele><time>2026-04-08T14:55:24Z</time></trkpt><trkpt lat="46.09805525585512" lon="13.23207791351465"><ele>126.0</ele><time>2026-04-08T14:55:25Z</time></trkpt><trkpt lat="46.0980359104918" lon="13.231909731277199"><ele>126.0</ele><time>2026-04-08T14:55:26Z</time></trkpt><trkpt lat="46.098027462482634" lon="13.231740847336447"><ele>126.0</ele><time>2026-04-08T14:55:27Z</time></trkpt><trkpt lat="46.09803723042311" lon="13.231578475328579"><ele>126.0</ele><time>2026-04-08T14:55:28Z</time></trkpt><trkpt lat="46.09806064376625" lon="13.23142643381964"><ele>126.0</ele><time>2026-04-08T14:55:29Z</time></trkpt><trkpt lat="46.09809391845572" lon="13.231284488089718"><ele>126.0</ele><time>2026-04-08T14:55:30Z</time></trkpt><trkpt lat="46.0981379933826" lon="13.231157085495667"><ele>126.0</ele><time>2026-04-08T14:55:31Z</time></trkpt><trkpt lat="46.09819075918736" lon="13.231049182165805"><ele>126.0</ele><time>2026-04-08T14:55:32Z</time></trkpt><trkpt lat="46.09824674976693" lon="13.230949744191193"><ele>126.0</ele><time>2026-04-08T14:55:33Z</time></trkpt><trkpt lat="46.098324888971966" lon="13.230873884181092"><ele>126.0</ele><time>2026-04-08T14:55:34Z</time></trkpt><trkpt lat="46.098411688772735" lon="13.230798429778293"><ele>126.0</ele><time>2026-04-08T14:55:35Z</time></trkpt><trkpt lat="46.09848045909068" lon="13.230713744671926"><ele>126.0</ele><time>2026-04-08T14:55:36Z</time></trkpt><trkpt lat="46.09854817724932" lon="13.23061991132798"><ele>126.0</ele><time>2026-04-08T14:55:37Z</time></trkpt><trkpt lat="46.098635145921094" lon="13.23054612668099"><ele>126.0</ele><time>2026-04-08T14:55:38Z</time></trkpt><trkpt lat="46.09873609079577" lon="13.230500741247546"><ele>126.19999999999999</ele><time>2026-04-08T14:55:39Z</time></trkpt><trkpt lat="46.098839801148635" lon="13.230472933973221"><ele>126.39999999999999</ele><time>2026-04-08T14:55:40Z</time></trkpt><trkpt lat="46.0989385282768" lon="13.230443960377652"><ele>126.6</ele><time>2026-04-08T14:55:41Z</time></trkpt><trkpt lat="46.099027118200766" lon="13.230414764693732"><ele>126.8</ele><time>2026-04-08T14:55:42Z</time></trkpt><trkpt lat="46.0991207161557" lon="13.23038835104598"><ele>127.0</ele><time>2026-04-08T14:55:43Z</time></trkpt><trkpt lat="46.0992129815373" lon="13.230364153461577"><ele>127.00000000000001</ele><time>2026-04-08T14:55:44Z</time></trkpt><trkpt lat="46.099294778252535" lon="13.230341985993467"><ele>127.0</ele><time>2026-04-08T14:55:45Z</time></trkpt><trkpt lat="46.09937137335169" lon="13.230328499101295"><ele>127.0</ele><time>2026-04-08T14:55:46Z</time></trkpt><trkpt lat="46.09945497680946" lon="13.230319851003333"><ele>127.0</ele><time>2026-04-08T14:55:47Z</time></trkpt><trkpt lat="46.09954635191736" lon="13.230299100196417"><ele>127.00000000000001</ele><time>2026-04-08T14:55:48Z</time></trkpt><trkpt lat="46.099642863525794" lon="13.230271861593714"><ele>127.0</ele><time>2026-04-08T14:55:49Z</time></trkpt><trkpt lat="46.099744642992825" lon="13.230248479370289"><ele>127.0</ele><time>2026-04-08T14:55:50Z</time></trkpt><trkpt lat="46.09984357890357" lon="13.230228355741014"><ele>126.99999999999999</ele><time>2026-04-08T14:55:51Z</time></trkpt><trkpt lat="46.099947860902084" lon="13.23021314217788"><ele>126.99999999999999</ele><time>2026-04-08T14:55:52Z</time></trkpt><trkpt lat="46.10005612776985" lon="13.230194210162132"><ele>127.0</ele><time>2026-04-08T14:55:53Z</time></trkpt><trkpt lat="46.10015229632833" lon="13.230170337389067"><ele>127.0</ele><time>2026-04-08T14:55:54Z</time></trkpt><trkpt lat="46.10023889664552" lon="13.230155135237544"><ele>127.6</ele><time>2026-04-08T14:55:55Z</time></trkpt><trkpt lat="46.1003110377534" lon="13.230139646672914"><ele>128.2</ele><time>2026-04-08T14:55:56Z</time></trkpt><trkpt lat="46.10040553043982" lon="13.230140559790454"><ele>128.8</ele><time>2026-04-08T14:55:58Z</time></trkpt><trkpt lat="46.100436776589476" lon="13.230299777580958"><ele>129.4</ele><time>2026-04-08T14:56:01Z</time></trkpt><trkpt lat="46.10043181021407" lon="13.230420412770492"><ele>130.0</ele><time>2026-04-08T14:56:04Z</time></trkpt><trkpt lat="46.10053016887072" lon="13.23034923645568"><ele>130.0</ele><time>2026-04-08T14:56:08.999Z</time></trkpt><trkpt lat="46.10057536052402" lon="13.230473088954174"><ele>130.0</ele><time>2026-04-08T14:57:52Z</time></trkpt><trkpt lat="46.100610873166495" lon="13.230559830624555"><ele>130.0</ele><time>2026-04-08T14:58:05Z</time></trkpt><trkpt lat="46.1006469251323" lon="13.23078768916212"><ele>130.0</ele><time>2026-04-08T14:59:45Z</time></trkpt><trkpt lat="46.100689634900306" lon="13.230881033346302"><ele>130.0</ele><time>2026-04-08T15:02:11Z</time></trkpt><trkpt lat="46.10069163517073" lon="13.2309754468311"><ele>129.83333333333334</ele><time>2026-04-08T15:02:37.999Z</time></trkpt><trkpt lat="46.100694024131734" lon="13.231069670126441"><ele>129.66666666666669</ele><time>2026-04-08T15:03:03.999Z</time></trkpt><trkpt lat="46.10067881314498" lon="13.231162355033863"><ele>129.5</ele><time>2026-04-08T15:03:17Z</time></trkpt><trkpt lat="46.100685167854095" lon="13.231273034321582"><ele>129.33333333333334</ele><time>2026-04-08T15:04:48.999Z</time></trkpt><trkpt lat="46.10074820724888" lon="13.23119502747162"><ele>129.16666666666666</ele><time>2026-04-08T15:06:03Z</time></trkpt><trkpt lat="46.10070199405893" lon="13.231046672896788"><ele>129.0</ele><time>2026-04-08T15:06:54.999Z</time></trkpt><trkpt lat="46.10066139864076" lon="13.230960604057012"><ele>129.0</ele><time>2026-04-08T15:07:23Z</time></trkpt><trkpt lat="46.100664675459186" lon="13.230858124365717"><ele>129.0</ele><time>2026-04-08T15:07:40Z</time></trkpt><trkpt lat="46.10062727394103" lon="13.230685503946663"><ele>129.0</ele><time>2026-04-08T15:14:59.999Z</time></trkpt><trkpt lat="46.10063181942788" lon="13.230566492153189"><ele>129.0</ele><time>2026-04-08T15:16:03Z</time></trkpt><trkpt lat="46.100566189258174" lon="13.2305252277813"><ele>129.0</ele><time>2026-04-08T15:16:16Z</time></trkpt><trkpt lat="46.10054876533196" lon="13.230434944331465"><ele>129.0</ele><time>2026-04-08T15:16:33Z</time></trkpt><trkpt lat="46.100533992138644" lon="13.230315605375985"><ele>129.25</ele><time>2026-04-08T15:19:37.999Z</time></trkpt><trkpt lat="46.10046533413899" lon="13.230234512977548"><ele>129.5</ele><time>2026-04-08T15:19:39.999Z</time></trkpt><trkpt lat="46.10043879910943" lon="13.230111578231293"><ele>129.75</ele><time>2026-04-08T15:20:12Z</time></trkpt><trkpt lat="46.10030005589545" lon="13.230048501963457"><ele>130.0</ele><time>2026-04-08T15:20:14Z</time></trkpt><trkpt lat="46.10016100370595" lon="13.230058567761786"><ele>130.0</ele><time>2026-04-08T15:20:15Z</time></trkpt><trkpt lat="46.09999514103075" lon="13.230098400493494"><ele>130.0</ele><time>2026-04-08T15:20:16Z</time></trkpt><trkpt lat="46.09981975097132" lon="13.23014369532032"><ele>130.0</ele><time>2026-04-08T15:20:17Z</time></trkpt><trkpt lat="46.09966674522842" lon="13.230173203575463"><ele>129.25</ele><time>2026-04-08T15:20:18Z</time></trkpt><trkpt lat="46.099535167805925" lon="13.230195350041273"><ele>128.5</ele><time>2026-04-08T15:20:19Z</time></trkpt><trkpt lat="46.09941332722859" lon="13.230219412382018"><ele>127.75</ele><time>2026-04-08T15:20:20Z</time></trkpt><trkpt lat="46.09929773049581" lon="13.23023929261419"><ele>127.0</ele><time>2026-04-08T15:20:21Z</time></trkpt><trkpt lat="46.09919047125325" lon="13.23026181360385"><ele>127.00000000000001</ele><time>2026-04-08T15:20:22Z</time></trkpt><trkpt lat="46.09909216336648" lon="13.230280476012322"><ele>127.0</ele><time>2026-04-08T15:20:23Z</time></trkpt><trkpt lat="46.098999988300655" lon="13.230299701210791"><ele>127.0</ele><time>2026-04-08T15:20:24Z</time></trkpt><trkpt lat="46.09891857846355" lon="13.230320135334177"><ele>127.0</ele><time>2026-04-08T15:20:25Z</time></trkpt><trkpt lat="46.09884434068288" lon="13.230333336456995"><ele>127.00000000000001</ele><time>2026-04-08T15:20:26Z</time></trkpt><trkpt lat="46.09877589952927" lon="13.230345755087503"><ele>127.0</ele><time>2026-04-08T15:20:27Z</time></trkpt><trkpt lat="46.098702355803944" lon="13.230362864864668"><ele>127.00000000000001</ele><time>2026-04-08T15:20:28Z</time></trkpt><trkpt lat="46.098626648078444" lon="13.230380406611323"><ele>127.0</ele><time>2026-04-08T15:20:29Z</time></trkpt><trkpt lat="46.098560170061944" lon="13.230388701092737"><ele>127.0</ele><time>2026-04-08T15:20:30Z</time></trkpt><trkpt lat="46.09842680563268" lon="13.23038569422331"><ele>127.0</ele><time>2026-04-08T15:20:32Z</time></trkpt><trkpt lat="46.09835512117488" lon="13.230379672135077"><ele>127.00000000000001</ele><time>2026-04-08T15:20:33Z</time></trkpt><trkpt lat="46.09828684769684" lon="13.230395525488863"><ele>127.0</ele><time>2026-04-08T15:20:34Z</time></trkpt><trkpt lat="46.09822747277208" lon="13.230440449729638"><ele>127.00000000000001</ele><time>2026-04-08T15:20:35Z</time></trkpt><trkpt lat="46.0981561149965" lon="13.230595907037939"><ele>127.0</ele><time>2026-04-08T15:20:37Z</time></trkpt><trkpt lat="46.098159672437966" lon="13.230705853952399"><ele>127.0</ele><time>2026-04-08T15:20:38Z</time></trkpt><trkpt lat="46.098170771337486" lon="13.230804491565682"><ele>127.0</ele><time>2026-04-08T15:20:39Z</time></trkpt><trkpt lat="46.09817119332765" lon="13.230909695149256"><ele>127.00000000000001</ele><time>2026-04-08T15:20:39.999Z</time></trkpt><trkpt lat="46.098151694926116" lon="13.231016371058601"><ele>127.0</ele><time>2026-04-08T15:20:40.999Z</time></trkpt><trkpt lat="46.098112100136724" lon="13.23112093691179"><ele>127.0</ele><time>2026-04-08T15:20:41.999Z</time></trkpt><trkpt lat="46.09807254666445" lon="13.231222553930277"><ele>126.99999999999999</ele><time>2026-04-08T15:20:42.999Z</time></trkpt><trkpt lat="46.098039632944364" lon="13.231336857043903"><ele>126.99999999999999</ele><time>2026-04-08T15:20:43.999Z</time></trkpt><trkpt lat="46.098014330885185" lon="13.231488944550794"><ele>127.0</ele><time>2026-04-08T15:20:44.999Z</time></trkpt><trkpt lat="46.097992466968066" lon="13.23167968416369"><ele>127.0</ele><time>2026-04-08T15:20:45.999Z</time></trkpt><trkpt lat="46.09799594010907" lon="13.23187943097355"><ele>126.75</ele><time>2026-04-08T15:20:46.999Z</time></trkpt><trkpt lat="46.09801793388686" lon="13.23206780221484"><ele>126.5</ele><time>2026-04-08T15:20:47.999Z</time></trkpt><trkpt lat="46.09805554674776" lon="13.232247415977525"><ele>126.25</ele><time>2026-04-08T15:20:48.999Z</time></trkpt><trkpt lat="46.09810709223821" lon="13.232422268118816"><ele>126.0</ele><time>2026-04-08T15:20:49.999Z</time></trkpt><trkpt lat="46.09815839356125" lon="13.232591625511303"><ele>126.0</ele><time>2026-04-08T15:20:50.999Z</time></trkpt><trkpt lat="46.098211004877925" lon="13.232756367022295"><ele>126.0</ele><time>2026-04-08T15:20:51.999Z</time></trkpt><trkpt lat="46.09825984618807" lon="13.232902158390894"><ele>126.0</ele><time>2026-04-08T15:20:52.999Z</time></trkpt><trkpt lat="46.09830795587351" lon="13.233038970236304"><ele>126.0</ele><time>2026-04-08T15:20:53.999Z</time></trkpt><trkpt lat="46.098355730977445" lon="13.233169163730825"><ele>126.0</ele><time>2026-04-08T15:20:54.999Z</time></trkpt><trkpt lat="46.09840420742606" lon="13.23330218438874"><ele>126.25</ele><time>2026-04-08T15:20:55.999Z</time></trkpt><trkpt lat="46.09845201300595" lon="13.233443163382898"><ele>126.5</ele><time>2026-04-08T15:20:56.999Z</time></trkpt><trkpt lat="46.098495798418256" lon="13.233593421727864"><ele>126.75</ele><time>2026-04-08T15:20:57.999Z</time></trkpt><trkpt lat="46.098541845606526" lon="13.233751107217188"><ele>127.0</ele><time>2026-04-08T15:20:58.999Z</time></trkpt><trkpt lat="46.098585927726994" lon="13.233901039187579"><ele>126.8</ele><time>2026-04-08T15:20:59.999Z</time></trkpt><trkpt lat="46.09862488346184" lon="13.234046830318016"><ele>126.6</ele><time>2026-04-08T15:21:00.999Z</time></trkpt><trkpt lat="46.09865900182656" lon="13.234190603435604"><ele>126.39999999999999</ele><time>2026-04-08T15:21:01.999Z</time></trkpt><trkpt lat="46.098694792606565" lon="13.234334320043542"><ele>126.19999999999999</ele><time>2026-04-08T15:21:02.999Z</time></trkpt><trkpt lat="46.0987355972057" lon="13.234482675547987"><ele>126.0</ele><time>2026-04-08T15:21:03.999Z</time></trkpt><trkpt lat="46.09876020472414" lon="13.234643729073952"><ele>126.0</ele><time>2026-04-08T15:21:04.999Z</time></trkpt><trkpt lat="46.09881474089965" lon="13.234797755460988"><ele>126.0</ele><time>2026-04-08T15:21:05.999Z</time></trkpt><trkpt lat="46.09885498878591" lon="13.234973885100324"><ele>126.0</ele><time>2026-04-08T15:21:06.999Z</time></trkpt><trkpt lat="46.09889099687991" lon="13.235171909254191"><ele>126.0</ele><time>2026-04-08T15:21:07.999Z</time></trkpt><trkpt lat="46.09893596254478" lon="13.235356396558617"><ele>126.0</ele><time>2026-04-08T15:21:08.999Z</time></trkpt><trkpt lat="46.098978103833005" lon="13.235529296184295"><ele>126.0</ele><time>2026-04-08T15:21:09.999Z</time></trkpt><trkpt lat="46.099018668072254" lon="13.235694201685122"><ele>126.0</ele><time>2026-04-08T15:21:10.999Z</time></trkpt><trkpt lat="46.09907398870697" lon="13.235855655731065"><ele>126.0</ele><time>2026-04-08T15:21:11.999Z</time></trkpt><trkpt lat="46.09911469030997" lon="13.236029944599515"><ele>126.0</ele><time>2026-04-08T15:21:12.999Z</time></trkpt><trkpt lat="46.099161379633564" lon="13.236197915462336"><ele>126.0</ele><time>2026-04-08T15:21:13.999Z</time></trkpt><trkpt lat="46.09920535391234" lon="13.236368172123765"><ele>126.0</ele><time>2026-04-08T15:21:14.999Z</time></trkpt><trkpt lat="46.09924434312609" lon="13.236520621056117"><ele>126.0</ele><time>2026-04-08T15:21:15.999Z</time></trkpt><trkpt lat="46.09928449254404" lon="13.236660193830103"><ele>126.0</ele><time>2026-04-08T15:21:16.999Z</time></trkpt><trkpt lat="46.09932530876374" lon="13.236801531793134"><ele>126.0</ele><time>2026-04-08T15:21:17.999Z</time></trkpt><trkpt lat="46.099365645134085" lon="13.23694795999616"><ele>126.0</ele><time>2026-04-08T15:21:18.999Z</time></trkpt><trkpt lat="46.09940163739836" lon="13.237095959421453"><ele>126.0</ele><time>2026-04-08T15:21:19.999Z</time></trkpt><trkpt lat="46.09944604735618" lon="13.237221697231162"><ele>126.0</ele><time>2026-04-08T15:21:20.999Z</time></trkpt><trkpt lat="46.09947535325204" lon="13.23732240725588"><ele>125.85714285714286</ele><time>2026-04-08T15:21:21.999Z</time></trkpt><trkpt lat="46.09950346491254" lon="13.237414062775887"><ele>125.71428571428572</ele><time>2026-04-08T15:21:22.999Z</time></trkpt><trkpt lat="46.0995338535827" lon="13.237506441603003"><ele>125.57142857142857</ele><time>2026-04-08T15:21:23.999Z</time></trkpt><trkpt lat="46.09956056993634" lon="13.237588868353384"><ele>125.42857142857143</ele><time>2026-04-08T15:21:24.999Z</time></trkpt><trkpt lat="46.099601784518924" lon="13.237707868093452"><ele>125.28571428571429</ele><time>2026-04-08T15:21:26.999Z</time></trkpt><trkpt lat="46.09963233710426" lon="13.237807423120238"><ele>125.14285714285714</ele><time>2026-04-08T15:21:28.999Z</time></trkpt><trkpt lat="46.09966166289327" lon="13.237908984314343"><ele>125.0</ele><time>2026-04-08T15:21:31.999Z</time></trkpt><trkpt lat="46.099688171311854" lon="13.238043796707178"><ele>125.33333333333333</ele><time>2026-04-08T15:21:34.999Z</time></trkpt><trkpt lat="46.099731076129196" lon="13.23815625963223"><ele>125.66666666666666</ele><time>2026-04-08T15:21:37.999Z</time></trkpt><trkpt lat="46.09976993482786" lon="13.238237473107304"><ele>126.0</ele><time>2026-04-08T15:21:40.999Z</time></trkpt><trkpt lat="46.09981108172629" lon="13.23831474018269"><ele>126.33333333333334</ele><time>2026-04-08T15:22:04Z</time></trkpt><trkpt lat="46.099865058504314" lon="13.238406018547536"><ele>126.66666666666667</ele><time>2026-04-08T15:22:05Z</time></trkpt><trkpt lat="46.099946704712444" lon="13.238550661795317"><ele>127.0</ele><time>2026-04-08T15:22:06Z</time></trkpt><trkpt lat="46.100025261436855" lon="13.23873534457404"><ele>127.0</ele><time>2026-04-08T15:22:07Z</time></trkpt><trkpt lat="46.100102837444965" lon="13.238959620148044"><ele>127.0</ele><time>2026-04-08T15:22:08Z</time></trkpt><trkpt lat="46.1001799033468" lon="13.239175946725979"><ele>127.0</ele><time>2026-04-08T15:22:09Z</time></trkpt><trkpt lat="46.10020757174131" lon="13.239394908308364"><ele>127.0</ele><time>2026-04-08T15:22:10Z</time></trkpt><trkpt lat="46.10024366898679" lon="13.239607787999722"><ele>127.0</ele><time>2026-04-08T15:22:11Z</time></trkpt><trkpt lat="46.10027584627464" lon="13.239828712980596"><ele>127.0</ele><time>2026-04-08T15:22:12Z</time></trkpt><trkpt lat="46.100302086546286" lon="13.240070848773792"><ele>127.0</ele><time>2026-04-08T15:22:13Z</time></trkpt><trkpt lat="46.10033619180124" lon="13.24030653092186"><ele>127.0</ele><time>2026-04-08T15:22:14Z</time></trkpt><trkpt lat="46.1003561800787" lon="13.240525337120257"><ele>127.0</ele><time>2026-04-08T15:22:15Z</time></trkpt><trkpt lat="46.10037271419153" lon="13.240720540564034"><ele>126.75</ele><time>2026-04-08T15:22:16Z</time></trkpt><trkpt lat="46.10038439692377" lon="13.240906235697818"><ele>126.5</ele><time>2026-04-08T15:22:17Z</time></trkpt><trkpt lat="46.1003976651115" lon="13.241099827716294"><ele>126.25</ele><time>2026-04-08T15:22:18Z</time></trkpt><trkpt lat="46.1004101280019" lon="13.241308592108426"><ele>126.0</ele><time>2026-04-08T15:22:19Z</time></trkpt><trkpt lat="46.10042781723584" lon="13.2415230809131"><ele>126.0</ele><time>2026-04-08T15:22:20Z</time></trkpt><trkpt lat="46.100442668209816" lon="13.241718783479227"><ele>126.0</ele><time>2026-04-08T15:22:21Z</time></trkpt><trkpt lat="46.10045630677343" lon="13.24189331744251"><ele>126.0</ele><time>2026-04-08T15:22:22Z</time></trkpt><trkpt lat="46.10047825695647" lon="13.242053758148714"><ele>126.0</ele><time>2026-04-08T15:22:23Z</time></trkpt><trkpt lat="46.10051089928045" lon="13.242225886365565"><ele>126.0</ele><time>2026-04-08T15:22:24Z</time></trkpt><trkpt lat="46.100506260135155" lon="13.242387002037589"><ele>126.0</ele><time>2026-04-08T15:22:25Z</time></trkpt><trkpt lat="46.100533509677824" lon="13.24250870530082"><ele>126.0</ele><time>2026-04-08T15:22:26Z</time></trkpt><trkpt lat="46.10054351550394" lon="13.242617786841807"><ele>126.0</ele><time>2026-04-08T15:22:27Z</time></trkpt><trkpt lat="46.100549174446236" lon="13.242719775910295"><ele>126.0</ele><time>2026-04-08T15:22:28Z</time></trkpt><trkpt lat="46.100519632345225" lon="13.242828904921467"><ele>126.0</ele><time>2026-04-08T15:22:29Z</time></trkpt><trkpt lat="46.10047881554026" lon="13.242933461173958"><ele>126.0</ele><time>2026-04-08T15:22:30Z</time></trkpt><trkpt lat="46.10050668227806" lon="13.243051253391648"><ele>126.0</ele><time>2026-04-08T15:22:31Z</time></trkpt><trkpt lat="46.10054184269259" lon="13.243157075977651"><ele>126.0</ele><time>2026-04-08T15:22:32Z</time></trkpt><trkpt lat="46.100591623830425" lon="13.243282717834287"><ele>126.0</ele><time>2026-04-08T15:22:33Z</time></trkpt><trkpt lat="46.10060955763853" lon="13.243423071666427"><ele>126.0</ele><time>2026-04-08T15:22:34Z</time></trkpt><trkpt lat="46.100600478563656" lon="13.243577230176758"><ele>126.25</ele><time>2026-04-08T15:22:35Z</time></trkpt><trkpt lat="46.10058298736693" lon="13.243755001771373"><ele>126.5</ele><time>2026-04-08T15:22:36Z</time></trkpt><trkpt lat="46.100596997857494" lon="13.243950984172278"><ele>126.75</ele><time>2026-04-08T15:22:37Z</time></trkpt><trkpt lat="46.10061309548043" lon="13.244136485461041"><ele>127.0</ele><time>2026-04-08T15:22:38Z</time></trkpt><trkpt lat="46.10062743916785" lon="13.244328689583954"><ele>127.0</ele><time>2026-04-08T15:22:39Z</time></trkpt><trkpt lat="46.10064008375711" lon="13.244515514163623"><ele>127.0</ele><time>2026-04-08T15:22:39.999Z</time></trkpt><trkpt lat="46.100652456240944" lon="13.244703422593966"><ele>127.0</ele><time>2026-04-08T15:22:40.999Z</time></trkpt><trkpt lat="46.10066712086534" lon="13.244896018580874"><ele>127.0</ele><time>2026-04-08T15:22:41.999Z</time></trkpt><trkpt lat="46.10068145353035" lon="13.245093598595957"><ele>127.25</ele><time>2026-04-08T15:22:42.999Z</time></trkpt><trkpt lat="46.10069379406914" lon="13.245292708258201"><ele>127.5</ele><time>2026-04-08T15:22:43.999Z</time></trkpt><trkpt lat="46.10070688622373" lon="13.245487633767144"><ele>127.75</ele><time>2026-04-08T15:22:44.999Z</time></trkpt><trkpt lat="46.100723698297216" lon="13.245683289751236"><ele>128.0</ele><time>2026-04-08T15:22:45.999Z</time></trkpt><trkpt lat="46.100738934950236" lon="13.245887977860052"><ele>128.25</ele><time>2026-04-08T15:22:46.999Z</time></trkpt><trkpt lat="46.1007529878449" lon="13.246100863262795"><ele>128.5</ele><time>2026-04-08T15:22:47.999Z</time></trkpt><trkpt lat="46.10076721129451" lon="13.246327214092886"><ele>128.75</ele><time>2026-04-08T15:22:48.999Z</time></trkpt><trkpt lat="46.10077799031556" lon="13.246524086116821"><ele>129.0</ele><time>2026-04-08T15:22:49.999Z</time></trkpt><trkpt lat="46.1007831771688" lon="13.246716428655182"><ele>128.75</ele><time>2026-04-08T15:22:50.999Z</time></trkpt><trkpt lat="46.10078702901696" lon="13.24691652269491"><ele>128.5</ele><time>2026-04-08T15:22:51.999Z</time></trkpt><trkpt lat="46.10079533055156" lon="13.247135294918351"><ele>128.25</ele><time>2026-04-08T15:22:52.999Z</time></trkpt><trkpt lat="46.100803783925095" lon="13.247359973512642"><ele>128.0</ele><time>2026-04-08T15:22:53.999Z</time></trkpt><trkpt lat="46.10080498237594" lon="13.247589385263218"><ele>128.0</ele><time>2026-04-08T15:22:54.999Z</time></trkpt><trkpt lat="46.10080224635987" lon="13.247812196070736"><ele>128.0</ele><time>2026-04-08T15:22:55.999Z</time></trkpt><trkpt lat="46.10080049806183" lon="13.248040225940203"><ele>128.0</ele><time>2026-04-08T15:22:56.999Z</time></trkpt><trkpt lat="46.10079699781706" lon="13.248275378673151"><ele>128.0</ele><time>2026-04-08T15:22:57.999Z</time></trkpt><trkpt lat="46.10079454592914" lon="13.24851762375139"><ele>128.0</ele><time>2026-04-08T15:22:58.999Z</time></trkpt><trkpt lat="46.10079610481187" lon="13.248757016670671"><ele>128.0</ele><time>2026-04-08T15:22:59.999Z</time></trkpt><trkpt lat="46.1007974066626" lon="13.248984357136827"><ele>127.33333333333333</ele><time>2026-04-08T15:23:00.999Z</time></trkpt><trkpt lat="46.10079372856207" lon="13.249217421881868"><ele>126.66666666666666</ele><time>2026-04-08T15:23:01.999Z</time></trkpt><trkpt lat="46.100791674909075" lon="13.249450814796715"><ele>126.0</ele><time>2026-04-08T15:23:02.999Z</time></trkpt><trkpt lat="46.100791642047724" lon="13.249685514835795"><ele>125.33333333333334</ele><time>2026-04-08T15:23:03.999Z</time></trkpt><trkpt lat="46.100793449963135" lon="13.249919359472113"><ele>124.66666666666667</ele><time>2026-04-08T15:23:04.999Z</time></trkpt><trkpt lat="46.10079692661577" lon="13.25016549615992"><ele>124.0</ele><time>2026-04-08T15:23:05.999Z</time></trkpt><trkpt lat="46.100799872587395" lon="13.250417371672057"><ele>124.33333333333334</ele><time>2026-04-08T15:23:06.999Z</time></trkpt><trkpt lat="46.100802933878214" lon="13.250646353608575"><ele>124.66666666666666</ele><time>2026-04-08T15:23:07.999Z</time></trkpt><trkpt lat="46.10080334643442" lon="13.250867321899154"><ele>125.0</ele><time>2026-04-08T15:23:08.999Z</time></trkpt><trkpt lat="46.10080277725152" lon="13.251097274232029"><ele>125.0</ele><time>2026-04-08T15:23:09.999Z</time></trkpt><trkpt lat="46.100806110781456" lon="13.251322993240498"><ele>125.0</ele><time>2026-04-08T15:23:10.999Z</time></trkpt><trkpt lat="46.10080980914641" lon="13.251540446075108"><ele>125.0</ele><time>2026-04-08T15:23:11.999Z</time></trkpt><trkpt lat="46.100812061411716" lon="13.25175663926049"><ele>125.0</ele><time>2026-04-08T15:23:12.999Z</time></trkpt><trkpt lat="46.100814764888845" lon="13.251975331744692"><ele>125.0</ele><time>2026-04-08T15:23:13.999Z</time></trkpt><trkpt lat="46.10081878586204" lon="13.252196180435417"><ele>125.0</ele><time>2026-04-08T15:23:14.999Z</time></trkpt><trkpt lat="46.10082498535001" lon="13.252420273327246"><ele>125.0</ele><time>2026-04-08T15:23:15.999Z</time></trkpt><trkpt lat="46.10082910738615" lon="13.252637219216464"><ele>125.0</ele><time>2026-04-08T15:23:16.999Z</time></trkpt><trkpt lat="46.10083172777004" lon="13.252837489815747"><ele>125.0</ele><time>2026-04-08T15:23:17.999Z</time></trkpt><trkpt lat="46.10083313062022" lon="13.253032309232207"><ele>125.0</ele><time>2026-04-08T15:23:18.999Z</time></trkpt><trkpt lat="46.100834453397574" lon="13.253229486835966"><ele>125.25</ele><time>2026-04-08T15:23:19.999Z</time></trkpt><trkpt lat="46.1008341694611" lon="13.25342915482848"><ele>125.5</ele><time>2026-04-08T15:23:20.999Z</time></trkpt><trkpt lat="46.10083089009829" lon="13.253630623073946"><ele>125.75</ele><time>2026-04-08T15:23:21.999Z</time></trkpt><trkpt lat="46.1008250024133" lon="13.253830073881668"><ele>126.0</ele><time>2026-04-08T15:23:22.999Z</time></trkpt><trkpt lat="46.100812452966196" lon="13.254010926733995"><ele>126.19999999999999</ele><time>2026-04-08T15:23:23.999Z</time></trkpt><trkpt lat="46.10079345420778" lon="13.254189265892686"><ele>126.39999999999999</ele><time>2026-04-08T15:23:24.999Z</time></trkpt><trkpt lat="46.10077114945735" lon="13.254352946896534"><ele>126.6</ele><time>2026-04-08T15:23:25.999Z</time></trkpt><trkpt lat="46.100749305108806" lon="13.254499796283957"><ele>126.8</ele><time>2026-04-08T15:23:26.999Z</time></trkpt><trkpt lat="46.100727501862664" lon="13.254645815781368"><ele>127.0</ele><time>2026-04-08T15:23:27.999Z</time></trkpt><trkpt lat="46.100707053401145" lon="13.254781835771134"><ele>126.66666666666667</ele><time>2026-04-08T15:23:28.999Z</time></trkpt><trkpt lat="46.10068627421898" lon="13.25490548454927"><ele>126.33333333333334</ele><time>2026-04-08T15:23:29.999Z</time></trkpt><trkpt lat="46.10066293892776" lon="13.255023966043138"><ele>126.0</ele><time>2026-04-08T15:23:30.999Z</time></trkpt><trkpt lat="46.1006417746282" lon="13.255124210428798"><ele>125.66666666666666</ele><time>2026-04-08T15:23:31.999Z</time></trkpt><trkpt lat="46.10062075475761" lon="13.255213039184666"><ele>125.33333333333333</ele><time>2026-04-08T15:23:32.999Z</time></trkpt><trkpt lat="46.1005943704368" lon="13.255304212380976"><ele>125.0</ele><time>2026-04-08T15:23:33.999Z</time></trkpt><trkpt lat="46.10051595782481" lon="13.25546263452368"><ele>125.0</ele><time>2026-04-08T15:23:35.999Z</time></trkpt><trkpt lat="46.100460919801876" lon="13.255533242121267"><ele>125.0</ele><time>2026-04-08T15:23:36.999Z</time></trkpt><trkpt lat="46.100415889869126" lon="13.255619686612313"><ele>125.0</ele><time>2026-04-08T15:23:37.999Z</time></trkpt><trkpt lat="46.100396032913686" lon="13.255725564001507"><ele>125.0</ele><time>2026-04-08T15:23:38.999Z</time></trkpt><trkpt lat="46.10040362306386" lon="13.255830696212136"><ele>125.0</ele><time>2026-04-08T15:23:39.999Z</time></trkpt><trkpt lat="46.1004365646416" lon="13.255920717415334"><ele>125.0</ele><time>2026-04-08T15:23:40.999Z</time></trkpt><trkpt lat="46.10050025615299" lon="13.255984541377538"><ele>125.0</ele><time>2026-04-08T15:23:41.999Z</time></trkpt><trkpt lat="46.10057656533293" lon="13.256002309154438"><ele>124.6</ele><time>2026-04-08T15:23:42.999Z</time></trkpt><trkpt lat="46.100654204749596" lon="13.255979468769425"><ele>124.2</ele><time>2026-04-08T15:23:43.999Z</time></trkpt><trkpt lat="46.10073707319764" lon="13.255952262278493"><ele>123.80000000000001</ele><time>2026-04-08T15:23:44.999Z</time></trkpt><trkpt lat="46.100837066775185" lon="13.255952223308988"><ele>123.4</ele><time>2026-04-08T15:23:45.999Z</time></trkpt><trkpt lat="46.10094587722268" lon="13.255972871559637"><ele>123.0</ele><time>2026-04-08T15:23:46.999Z</time></trkpt><trkpt lat="46.10104471708505" lon="13.25602619083488"><ele>123.0</ele><time>2026-04-08T15:23:47.999Z</time></trkpt><trkpt lat="46.10114708923743" lon="13.256108207342415"><ele>123.0</ele><time>2026-04-08T15:23:48.999Z</time></trkpt><trkpt lat="46.10126697950357" lon="13.256201974811928"><ele>123.0</ele><time>2026-04-08T15:23:49.999Z</time></trkpt><trkpt lat="46.101398591716475" lon="13.256309622968407"><ele>123.0</ele><time>2026-04-08T15:23:50.999Z</time></trkpt><trkpt lat="46.1015336812991" lon="13.256431735111038"><ele>123.33333333333334</ele><time>2026-04-08T15:23:51.999Z</time></trkpt><trkpt lat="46.10166257338941" lon="13.256554592826806"><ele>123.66666666666667</ele><time>2026-04-08T15:23:52.999Z</time></trkpt><trkpt lat="46.101786659214625" lon="13.25668102305465"><ele>124.0</ele><time>2026-04-08T15:23:53.999Z</time></trkpt><trkpt lat="46.10190932013941" lon="13.25681999258502"><ele>124.0</ele><time>2026-04-08T15:23:54.999Z</time></trkpt><trkpt lat="46.1020394111828" lon="13.256983432315238"><ele>124.0</ele><time>2026-04-08T15:23:55.999Z</time></trkpt><trkpt lat="46.10217099129889" lon="13.257154832381016"><ele>124.0</ele><time>2026-04-08T15:23:56.999Z</time></trkpt><trkpt lat="46.10229554699196" lon="13.25732438056819"><ele>124.0</ele><time>2026-04-08T15:23:57.999Z</time></trkpt><trkpt lat="46.10240734928265" lon="13.257494079476558"><ele>124.0</ele><time>2026-04-08T15:23:58.999Z</time></trkpt><trkpt lat="46.1025104505368" lon="13.257661356389988"><ele>124.0</ele><time>2026-04-08T15:23:59.999Z</time></trkpt><trkpt lat="46.102608157128344" lon="13.257821276186627"><ele>124.0</ele><time>2026-04-08T15:24:00.999Z</time></trkpt><trkpt lat="46.10270173387357" lon="13.257976146253533"><ele>124.0</ele><time>2026-04-08T15:24:01.999Z</time></trkpt><trkpt lat="46.102795316557675" lon="13.25812913305947"><ele>124.0</ele><time>2026-04-08T15:24:02.999Z</time></trkpt><trkpt lat="46.10288807287669" lon="13.258275162061953"><ele>124.0</ele><time>2026-04-08T15:24:03.999Z</time></trkpt><trkpt lat="46.10296586973074" lon="13.258401775650325"><ele>124.2</ele><time>2026-04-08T15:24:04.999Z</time></trkpt><trkpt lat="46.103038739470605" lon="13.258526097442804"><ele>124.4</ele><time>2026-04-08T15:24:06Z</time></trkpt><trkpt lat="46.10311347751062" lon="13.258649888618107"><ele>124.6</ele><time>2026-04-08T15:24:07Z</time></trkpt><trkpt lat="46.10318056760876" lon="13.258761260729534"><ele>124.8</ele><time>2026-04-08T15:24:08Z</time></trkpt><trkpt lat="46.103242986470235" lon="13.258872392484347"><ele>125.0</ele><time>2026-04-08T15:24:09Z</time></trkpt><trkpt lat="46.10330030476702" lon="13.25899385367081"><ele>125.4</ele><time>2026-04-08T15:24:10Z</time></trkpt><trkpt lat="46.1033338225641" lon="13.259121496435226"><ele>125.8</ele><time>2026-04-08T15:24:11Z</time></trkpt><trkpt lat="46.103365688401226" lon="13.25924278323933"><ele>126.19999999999999</ele><time>2026-04-08T15:24:12Z</time></trkpt><trkpt lat="46.10343185041962" lon="13.259330687670413"><ele>126.6</ele><time>2026-04-08T15:24:13Z</time></trkpt><trkpt lat="46.103518396782086" lon="13.25939786182304"><ele>127.0</ele><time>2026-04-08T15:24:14Z</time></trkpt><trkpt lat="46.10360216980487" lon="13.25947960352949"><ele>127.0</ele><time>2026-04-08T15:24:15Z</time></trkpt><trkpt lat="46.10367681268152" lon="13.259584441650881"><ele>126.99999999999999</ele><time>2026-04-08T15:24:16Z</time></trkpt><trkpt lat="46.103747463021186" lon="13.259701492428807"><ele>126.99999999999999</ele><time>2026-04-08T15:24:17Z</time></trkpt><trkpt lat="46.10381829671061" lon="13.259822410905143"><ele>127.0</ele><time>2026-04-08T15:24:18Z</time></trkpt><trkpt lat="46.1038936344853" lon="13.259947219001816"><ele>127.0</ele><time>2026-04-08T15:24:19Z</time></trkpt><trkpt lat="46.1039767341793" lon="13.260083298679879"><ele>127.0</ele><time>2026-04-08T15:24:20Z</time></trkpt><trkpt lat="46.10406178643165" lon="13.260223076115022"><ele>127.0</ele><time>2026-04-08T15:24:21Z</time></trkpt><trkpt lat="46.104149233849746" lon="13.26036513226718"><ele>127.0</ele><time>2026-04-08T15:24:22Z</time></trkpt><trkpt lat="46.10423945612476" lon="13.260511470550638"><ele>127.0</ele><time>2026-04-08T15:24:23Z</time></trkpt><trkpt lat="46.10432903758218" lon="13.26066147593469"><ele>127.25</ele><time>2026-04-08T15:24:24Z</time></trkpt><trkpt lat="46.104420101283125" lon="13.260810826044086"><ele>127.5</ele><time>2026-04-08T15:24:25Z</time></trkpt><trkpt lat="46.10451267410315" lon="13.26095867089825"><ele>127.75</ele><time>2026-04-08T15:24:26Z</time></trkpt><trkpt lat="46.104604492032166" lon="13.26110827575007"><ele>128.0</ele><time>2026-04-08T15:24:27Z</time></trkpt><trkpt lat="46.10469526412161" lon="13.26126014821129"><ele>128.0</ele><time>2026-04-08T15:24:28Z</time></trkpt><trkpt lat="46.10478974582775" lon="13.261413519061493"><ele>128.0</ele><time>2026-04-08T15:24:29Z</time></trkpt><trkpt lat="46.10489149311549" lon="13.261577057403327"><ele>128.0</ele><time>2026-04-08T15:24:30Z</time></trkpt><trkpt lat="46.104994747171055" lon="13.26174415507088"><ele>128.25</ele><time>2026-04-08T15:24:31Z</time></trkpt><trkpt lat="46.105093269531366" lon="13.261907381213437"><ele>128.5</ele><time>2026-04-08T15:24:32Z</time></trkpt><trkpt lat="46.10519040720054" lon="13.262067742078088"><ele>128.75</ele><time>2026-04-08T15:24:33Z</time></trkpt><trkpt lat="46.10528716650516" lon="13.262225391155672"><ele>129.0</ele><time>2026-04-08T15:24:34Z</time></trkpt><trkpt lat="46.105382211962755" lon="13.262384792308556"><ele>129.25</ele><time>2026-04-08T15:24:35Z</time></trkpt><trkpt lat="46.105476503070655" lon="13.262546368240343"><ele>129.5</ele><time>2026-04-08T15:24:36Z</time></trkpt><trkpt lat="46.105575491654356" lon="13.262706081721205"><ele>129.75</ele><time>2026-04-08T15:24:37Z</time></trkpt><trkpt lat="46.10567695804619" lon="13.262868436984968"><ele>130.0</ele><time>2026-04-08T15:24:38Z</time></trkpt><trkpt lat="46.10578119281279" lon="13.263043310868094"><ele>129.66666666666669</ele><time>2026-04-08T15:24:39Z</time></trkpt><trkpt lat="46.105894759898135" lon="13.263229739699277"><ele>129.33333333333334</ele><time>2026-04-08T15:24:40Z</time></trkpt><trkpt lat="46.10600581116702" lon="13.263409047758953"><ele>129.0</ele><time>2026-04-08T15:24:41Z</time></trkpt><trkpt lat="46.10611204669965" lon="13.263586292861447"><ele>129.0</ele><time>2026-04-08T15:24:42Z</time></trkpt><trkpt lat="46.10621718037338" lon="13.263762654854725"><ele>129.0</ele><time>2026-04-08T15:24:43Z</time></trkpt><trkpt lat="46.10632332077583" lon="13.263938103607948"><ele>129.0</ele><time>2026-04-08T15:24:44Z</time></trkpt><trkpt lat="46.10643882026937" lon="13.264128388309603"><ele>129.0</ele><time>2026-04-08T15:24:45Z</time></trkpt><trkpt lat="46.106558943212065" lon="13.264326250744077"><ele>129.0</ele><time>2026-04-08T15:24:46Z</time></trkpt><trkpt lat="46.10667713454568" lon="13.264521638157172"><ele>129.0</ele><time>2026-04-08T15:24:46.999Z</time></trkpt><trkpt lat="46.10679414178958" lon="13.264710535050643"><ele>128.66666666666666</ele><time>2026-04-08T15:24:47.999Z</time></trkpt><trkpt lat="46.10690974664356" lon="13.264899135067292"><ele>128.33333333333331</ele><time>2026-04-08T15:24:48.999Z</time></trkpt><trkpt lat="46.10702400583071" lon="13.265087684019509"><ele>128.0</ele><time>2026-04-08T15:24:49.999Z</time></trkpt><trkpt lat="46.10713932866208" lon="13.265277753536926"><ele>128.0</ele><time>2026-04-08T15:24:50.999Z</time></trkpt><trkpt lat="46.10725565472979" lon="13.26547125122427"><ele>128.0</ele><time>2026-04-08T15:24:51.999Z</time></trkpt><trkpt lat="46.10737413387229" lon="13.265664452860468"><ele>128.0</ele><time>2026-04-08T15:24:52.999Z</time></trkpt><trkpt lat="46.107491802471365" lon="13.265853787468917"><ele>128.33333333333331</ele><time>2026-04-08T15:24:53.999Z</time></trkpt><trkpt lat="46.107608906762096" lon="13.266047712939018"><ele>128.66666666666666</ele><time>2026-04-08T15:24:54.999Z</time></trkpt><trkpt lat="46.1077266011726" lon="13.266244040798378"><ele>129.0</ele><time>2026-04-08T15:24:55.999Z</time></trkpt><trkpt lat="46.10784453426856" lon="13.266435879683023"><ele>128.66666666666666</ele><time>2026-04-08T15:24:56.999Z</time></trkpt><trkpt lat="46.1079601008657" lon="13.266624190574255"><ele>128.33333333333331</ele><time>2026-04-08T15:24:57.999Z</time></trkpt><trkpt lat="46.10807193990955" lon="13.266809395761793"><ele>128.0</ele><time>2026-04-08T15:24:58.999Z</time></trkpt><trkpt lat="46.10818324251031" lon="13.266991619150692"><ele>128.0</ele><time>2026-04-08T15:24:59.999Z</time></trkpt><trkpt lat="46.108297276305485" lon="13.267175276685805"><ele>128.0</ele><time>2026-04-08T15:25:00.999Z</time></trkpt><trkpt lat="46.10841391666882" lon="13.267363734161744"><ele>128.0</ele><time>2026-04-08T15:25:01.999Z</time></trkpt><trkpt lat="46.10852780941632" lon="13.267553542332513"><ele>128.33333333333331</ele><time>2026-04-08T15:25:02.999Z</time></trkpt><trkpt lat="46.10864104843892" lon="13.267742488664796"><ele>128.66666666666666</ele><time>2026-04-08T15:25:03.999Z</time></trkpt><trkpt lat="46.10875071334864" lon="13.267925417671794"><ele>129.0</ele><time>2026-04-08T15:25:04.999Z</time></trkpt><trkpt lat="46.10885833451273" lon="13.268103750658948"><ele>129.0</ele><time>2026-04-08T15:25:05.999Z</time></trkpt><trkpt lat="46.108966494573735" lon="13.268282899126195"><ele>129.0</ele><time>2026-04-08T15:25:06.999Z</time></trkpt><trkpt lat="46.10907536573697" lon="13.268462542757995"><ele>129.0</ele><time>2026-04-08T15:25:07.999Z</time></trkpt><trkpt lat="46.109187256920805" lon="13.268643430913391"><ele>128.66666666666666</ele><time>2026-04-08T15:25:08.999Z</time></trkpt><trkpt lat="46.10929890910043" lon="13.26882688636141"><ele>128.33333333333331</ele><time>2026-04-08T15:25:09.999Z</time></trkpt><trkpt lat="46.1094104487221" lon="13.26901408839533"><ele>128.0</ele><time>2026-04-08T15:25:10.999Z</time></trkpt><trkpt lat="46.10952223480871" lon="13.269197344476893"><ele>128.0</ele><time>2026-04-08T15:25:11.999Z</time></trkpt><trkpt lat="46.10963275898026" lon="13.269378014881665"><ele>128.0</ele><time>2026-04-08T15:25:12.999Z</time></trkpt><trkpt lat="46.10974069714138" lon="13.269557694437754"><ele>128.0</ele><time>2026-04-08T15:25:13.999Z</time></trkpt><trkpt lat="46.10984686251787" lon="13.269734465487284"><ele>128.75</ele><time>2026-04-08T15:25:14.999Z</time></trkpt><trkpt lat="46.109952680135294" lon="13.269903850974819"><ele>129.5</ele><time>2026-04-08T15:25:15.999Z</time></trkpt><trkpt lat="46.110047399304754" lon="13.27005851828131"><ele>130.25</ele><time>2026-04-08T15:25:16.999Z</time></trkpt><trkpt lat="46.11013535102681" lon="13.270206806700818"><ele>131.0</ele><time>2026-04-08T15:25:17.999Z</time></trkpt><trkpt lat="46.11021864186565" lon="13.270344981300363"><ele>131.0</ele><time>2026-04-08T15:25:18.999Z</time></trkpt><trkpt lat="46.110296902472726" lon="13.270472731262794"><ele>131.0</ele><time>2026-04-08T15:25:19.999Z</time></trkpt><trkpt lat="46.11036824922463" lon="13.270588251583465"><ele>131.0</ele><time>2026-04-08T15:25:20.999Z</time></trkpt><trkpt lat="46.110428687816466" lon="13.27068818529072"><ele>131.0</ele><time>2026-04-08T15:25:21.999Z</time></trkpt><trkpt lat="46.11047623126245" lon="13.270768225788665"><ele>131.0</ele><time>2026-04-08T15:25:22.999Z</time></trkpt><trkpt lat="46.11054611694219" lon="13.270889229428175"><ele>131.0</ele><time>2026-04-08T15:25:24.999Z</time></trkpt><trkpt lat="46.11059575403131" lon="13.271032175774602"><ele>131.0</ele><time>2026-04-08T15:25:26.999Z</time></trkpt><trkpt lat="46.110604527680536" lon="13.271133065340047"><ele>131.0</ele><time>2026-04-08T15:25:27.999Z</time></trkpt><trkpt lat="46.110617578539184" lon="13.271251097273131"><ele>131.0</ele><time>2026-04-08T15:25:28.999Z</time></trkpt><trkpt lat="46.11063266353687" lon="13.271381885204793"><ele>131.0</ele><time>2026-04-08T15:25:29.999Z</time></trkpt><trkpt lat="46.11065628339201" lon="13.271507934391183"><ele>131.0</ele><time>2026-04-08T15:25:30.999Z</time></trkpt><trkpt lat="46.11070399186153" lon="13.271616614326794"><ele>131.0</ele><time>2026-04-08T15:25:31.999Z</time></trkpt><trkpt lat="46.11076249197662" lon="13.271712732424085"><ele>131.0</ele><time>2026-04-08T15:25:32.999Z</time></trkpt><trkpt lat="46.11083478099647" lon="13.271802098110355"><ele>131.0</ele><time>2026-04-08T15:25:33.999Z</time></trkpt><trkpt lat="46.11091966206414" lon="13.271878225018428"><ele>131.0</ele><time>2026-04-08T15:25:34.999Z</time></trkpt><trkpt lat="46.111004765461345" lon="13.271964581339592"><ele>131.0</ele><time>2026-04-08T15:25:35.999Z</time></trkpt><trkpt lat="46.111090688737775" lon="13.272072121847968"><ele>131.0</ele><time>2026-04-08T15:25:36.999Z</time></trkpt><trkpt lat="46.11117664354324" lon="13.27218886882217"><ele>131.0</ele><time>2026-04-08T15:25:37.999Z</time></trkpt><trkpt lat="46.11125358842036" lon="13.272318584871089"><ele>131.0</ele><time>2026-04-08T15:25:38.999Z</time></trkpt><trkpt lat="46.1113200813691" lon="13.27245471673966"><ele>131.0</ele><time>2026-04-08T15:25:39.999Z</time></trkpt><trkpt lat="46.111382184818396" lon="13.272596061644334"><ele>131.0</ele><time>2026-04-08T15:25:40.999Z</time></trkpt><trkpt lat="46.111449946691906" lon="13.272751541496522"><ele>131.0</ele><time>2026-04-08T15:25:41.999Z</time></trkpt><trkpt lat="46.11152476560817" lon="13.272919015270297"><ele>131.0</ele><time>2026-04-08T15:25:42.999Z</time></trkpt><trkpt lat="46.11160157100819" lon="13.273095144953793"><ele>131.0</ele><time>2026-04-08T15:25:43.999Z</time></trkpt><trkpt lat="46.11168044372118" lon="13.273273357369552"><ele>131.0</ele><time>2026-04-08T15:25:44.999Z</time></trkpt><trkpt lat="46.11176029488665" lon="13.273452688615128"><ele>131.0</ele><time>2026-04-08T15:25:45.999Z</time></trkpt><trkpt lat="46.11184123376919" lon="13.27363786494808"><ele>131.0</ele><time>2026-04-08T15:25:46.999Z</time></trkpt><trkpt lat="46.111925616626344" lon="13.273831837952436"><ele>130.33333333333331</ele><time>2026-04-08T15:25:47.999Z</time></trkpt><trkpt lat="46.112018768143976" lon="13.274039521986253"><ele>129.66666666666666</ele><time>2026-04-08T15:25:48.999Z</time></trkpt><trkpt lat="46.11211705804441" lon="13.27425724260253"><ele>129.0</ele><time>2026-04-08T15:25:49.999Z</time></trkpt><trkpt lat="46.11221745614358" lon="13.274485797463097"><ele>129.0</ele><time>2026-04-08T15:25:50.999Z</time></trkpt><trkpt lat="46.112318311788336" lon="13.27471621053401"><ele>129.0</ele><time>2026-04-08T15:25:51.999Z</time></trkpt><trkpt lat="46.112410201257035" lon="13.274916770778065"><ele>129.0</ele><time>2026-04-08T15:25:52.999Z</time></trkpt><trkpt lat="46.112497478390694" lon="13.27511563841723"><ele>129.0</ele><time>2026-04-08T15:25:53.999Z</time></trkpt><trkpt lat="46.11258275019447" lon="13.275316569257921"><ele>129.0</ele><time>2026-04-08T15:25:54.999Z</time></trkpt><trkpt lat="46.11267276473744" lon="13.275520194115291"><ele>129.0</ele><time>2026-04-08T15:25:55.999Z</time></trkpt><trkpt lat="46.11276291594722" lon="13.275720886093088"><ele>129.0</ele><time>2026-04-08T15:25:56.999Z</time></trkpt><trkpt lat="46.112851533022514" lon="13.275917747649308"><ele>129.0</ele><time>2026-04-08T15:25:57.999Z</time></trkpt><trkpt lat="46.11293716935191" lon="13.276110749222871"><ele>129.0</ele><time>2026-04-08T15:25:58.999Z</time></trkpt><trkpt lat="46.11301876268478" lon="13.27629736458635"><ele>129.0</ele><time>2026-04-08T15:25:59.999Z</time></trkpt><trkpt lat="46.11310032320859" lon="13.276481133177759"><ele>129.0</ele><time>2026-04-08T15:26:00.999Z</time></trkpt><trkpt lat="46.11318064156278" lon="13.276663069790438"><ele>129.0</ele><time>2026-04-08T15:26:01.999Z</time></trkpt><trkpt lat="46.11325701504703" lon="13.276834474208218"><ele>129.0</ele><time>2026-04-08T15:26:02.999Z</time></trkpt><trkpt lat="46.113313554262604" lon="13.277005837480157"><ele>129.0</ele><time>2026-04-08T15:26:03.999Z</time></trkpt><trkpt lat="46.11339268548073" lon="13.277149363820973"><ele>129.0</ele><time>2026-04-08T15:26:04.999Z</time></trkpt><trkpt lat="46.11344678303252" lon="13.277307163389272"><ele>129.0</ele><time>2026-04-08T15:26:05.999Z</time></trkpt><trkpt lat="46.11349301487352" lon="13.277473923828307"><ele>129.0</ele><time>2026-04-08T15:26:06.999Z</time></trkpt><trkpt lat="46.113534115985935" lon="13.27765396644414"><ele>129.4</ele><time>2026-04-08T15:26:07.999Z</time></trkpt><trkpt lat="46.11356603128573" lon="13.277824831821277"><ele>129.8</ele><time>2026-04-08T15:26:08.999Z</time></trkpt><trkpt lat="46.113588772379714" lon="13.277967661019126"><ele>130.2</ele><time>2026-04-08T15:26:09.999Z</time></trkpt><trkpt lat="46.113600543963145" lon="13.27809763120353"><ele>130.6</ele><time>2026-04-08T15:26:10.999Z</time></trkpt><trkpt lat="46.113599718701984" lon="13.27821216926809"><ele>131.0</ele><time>2026-04-08T15:26:12Z</time></trkpt><trkpt lat="46.11358296411575" lon="13.278335046890708"><ele>131.2</ele><time>2026-04-08T15:26:13Z</time></trkpt><trkpt lat="46.11354209619013" lon="13.278463601985836"><ele>131.39999999999998</ele><time>2026-04-08T15:26:14Z</time></trkpt><trkpt lat="46.11347685204531" lon="13.27858017965565"><ele>131.6</ele><time>2026-04-08T15:26:15Z</time></trkpt><trkpt lat="46.11339797546498" lon="13.278680309728898"><ele>131.79999999999998</ele><time>2026-04-08T15:26:16Z</time></trkpt><trkpt lat="46.11334909432637" lon="13.278812927590334"><ele>132.0</ele><time>2026-04-08T15:26:17Z</time></trkpt><trkpt lat="46.113338333261275" lon="13.27897913985206"><ele>131.4</ele><time>2026-04-08T15:26:18Z</time></trkpt><trkpt lat="46.11334443552792" lon="13.279136326629494"><ele>130.79999999999998</ele><time>2026-04-08T15:26:19Z</time></trkpt><trkpt lat="46.113387119867504" lon="13.279268598764439"><ele>130.2</ele><time>2026-04-08T15:26:20Z</time></trkpt><trkpt lat="46.113446490732194" lon="13.279382767729647"><ele>129.6</ele><time>2026-04-08T15:26:21Z</time></trkpt><trkpt lat="46.11351972920583" lon="13.27947770476674"><ele>129.0</ele><time>2026-04-08T15:26:22Z</time></trkpt><trkpt lat="46.11361091760797" lon="13.279541821505108"><ele>129.0</ele><time>2026-04-08T15:26:23Z</time></trkpt><trkpt lat="46.113719047099124" lon="13.279565246037764"><ele>129.0</ele><time>2026-04-08T15:26:24Z</time></trkpt><trkpt lat="46.11382465181243" lon="13.279551247423518"><ele>129.0</ele><time>2026-04-08T15:26:25Z</time></trkpt><trkpt lat="46.11392482320304" lon="13.279511984501186"><ele>129.0</ele><time>2026-04-08T15:26:26Z</time></trkpt><trkpt lat="46.114036655315445" lon="13.279484202238717"><ele>129.0</ele><time>2026-04-08T15:26:27Z</time></trkpt><trkpt lat="46.11417253981834" lon="13.279479772516448"><ele>129.25</ele><time>2026-04-08T15:26:28Z</time></trkpt><trkpt lat="46.11430477263447" lon="13.279501025214755"><ele>129.5</ele><time>2026-04-08T15:26:29Z</time></trkpt><trkpt lat="46.11443386003499" lon="13.27956169948435"><ele>129.75</ele><time>2026-04-08T15:26:30Z</time></trkpt><trkpt lat="46.11456826147228" lon="13.27965979960444"><ele>130.0</ele><time>2026-04-08T15:26:31Z</time></trkpt><trkpt lat="46.114680112617236" lon="13.279805338855635"><ele>130.0</ele><time>2026-04-08T15:26:32Z</time></trkpt><trkpt lat="46.114797353076604" lon="13.279955731084952"><ele>130.0</ele><time>2026-04-08T15:26:33Z</time></trkpt><trkpt lat="46.11493719566394" lon="13.280089607850673"><ele>130.0</ele><time>2026-04-08T15:26:34Z</time></trkpt><trkpt lat="46.11508189732541" lon="13.280241063594142"><ele>130.0</ele><time>2026-04-08T15:26:35Z</time></trkpt><trkpt lat="46.11524064022609" lon="13.28037992949657"><ele>130.0</ele><time>2026-04-08T15:26:36Z</time></trkpt><trkpt lat="46.115407425079084" lon="13.28051476757163"><ele>130.0</ele><time>2026-04-08T15:26:37Z</time></trkpt><trkpt lat="46.11557220429069" lon="13.280671767538898"><ele>131.0</ele><time>2026-04-08T15:26:38Z</time></trkpt><trkpt lat="46.115742496677555" lon="13.280811177599999"><ele>132.0</ele><time>2026-04-08T15:26:39Z</time></trkpt><trkpt lat="46.115916906326405" lon="13.280925509789462"><ele>133.0</ele><time>2026-04-08T15:26:40Z</time></trkpt><trkpt lat="46.11609293326727" lon="13.281057826416415"><ele>133.0</ele><time>2026-04-08T15:26:41Z</time></trkpt><trkpt lat="46.11628558709535" lon="13.281171338947237"><ele>133.0</ele><time>2026-04-08T15:26:42Z</time></trkpt><trkpt lat="46.11649036738244" lon="13.281273778193285"><ele>133.0</ele><time>2026-04-08T15:26:43Z</time></trkpt><trkpt lat="46.11670898797759" lon="13.281361139415942"><ele>133.0</ele><time>2026-04-08T15:26:44Z</time></trkpt><trkpt lat="46.116933826841155" lon="13.281424244025514"><ele>133.0</ele><time>2026-04-08T15:26:45Z</time></trkpt><trkpt lat="46.11715276920144" lon="13.28146413152346"><ele>133.0</ele><time>2026-04-08T15:26:46Z</time></trkpt><trkpt lat="46.11736730802678" lon="13.281498218259445"><ele>133.0</ele><time>2026-04-08T15:26:47Z</time></trkpt><trkpt lat="46.117578129336444" lon="13.281541729909627"><ele>133.0</ele><time>2026-04-08T15:26:48Z</time></trkpt><trkpt lat="46.11776846298849" lon="13.281581811213433"><ele>133.0</ele><time>2026-04-08T15:26:49Z</time></trkpt><trkpt lat="46.11794011374925" lon="13.281613823755384"><ele>133.0</ele><time>2026-04-08T15:26:49.999Z</time></trkpt><trkpt lat="46.11809876496322" lon="13.281646695071018"><ele>133.0</ele><time>2026-04-08T15:26:50.999Z</time></trkpt><trkpt lat="46.11826445198853" lon="13.281666912107749"><ele>132.66666666666669</ele><time>2026-04-08T15:26:51.999Z</time></trkpt><trkpt lat="46.11842711117447" lon="13.281639363934097"><ele>132.33333333333334</ele><time>2026-04-08T15:26:52.999Z</time></trkpt><trkpt lat="46.11858778551153" lon="13.281562573982821"><ele>132.0</ele><time>2026-04-08T15:26:53.999Z</time></trkpt><trkpt lat="46.118734508914294" lon="13.281444082722455"><ele>132.0</ele><time>2026-04-08T15:26:54.999Z</time></trkpt><trkpt lat="46.118872962525394" lon="13.281300202370076"><ele>132.0</ele><time>2026-04-08T15:26:55.999Z</time></trkpt><trkpt lat="46.11901276812295" lon="13.281149738970084"><ele>132.0</ele><time>2026-04-08T15:26:56.999Z</time></trkpt><trkpt lat="46.11916401609964" lon="13.280987874064772"><ele>132.33333333333334</ele><time>2026-04-08T15:26:57.999Z</time></trkpt><trkpt lat="46.11931908048386" lon="13.280823448183565"><ele>132.66666666666669</ele><time>2026-04-08T15:26:58.999Z</time></trkpt><trkpt lat="46.1194825250622" lon="13.280678713194485"><ele>133.0</ele><time>2026-04-08T15:26:59.999Z</time></trkpt><trkpt lat="46.11965861656049" lon="13.280539338973611"><ele>133.0</ele><time>2026-04-08T15:27:00.999Z</time></trkpt><trkpt lat="46.1198362806674" lon="13.280417003619107"><ele>133.0</ele><time>2026-04-08T15:27:01.999Z</time></trkpt><trkpt lat="46.12002605565592" lon="13.280307757622865"><ele>133.0</ele><time>2026-04-08T15:27:02.999Z</time></trkpt><trkpt lat="46.120229341126574" lon="13.28020156774595"><ele>132.5</ele><time>2026-04-08T15:27:03.999Z</time></trkpt><trkpt lat="46.120442007820095" lon="13.280088611361379"><ele>132.0</ele><time>2026-04-08T15:27:04.999Z</time></trkpt><trkpt lat="46.120663472849536" lon="13.279976107177976"><ele>132.66666666666666</ele><time>2026-04-08T15:27:05.999Z</time></trkpt><trkpt lat="46.120876110409604" lon="13.279864557811095"><ele>133.33333333333331</ele><time>2026-04-08T15:27:06.999Z</time></trkpt><trkpt lat="46.12107601340502" lon="13.279758716685167"><ele>134.0</ele><time>2026-04-08T15:27:07.999Z</time></trkpt><trkpt lat="46.12128870834888" lon="13.279652085278565"><ele>135.0</ele><time>2026-04-08T15:27:08.999Z</time></trkpt><trkpt lat="46.12151002166708" lon="13.27954165536748"><ele>136.0</ele><time>2026-04-08T15:27:09.999Z</time></trkpt><trkpt lat="46.121735563056546" lon="13.279415146913845"><ele>136.0</ele><time>2026-04-08T15:27:10.999Z</time></trkpt><trkpt lat="46.12198199805821" lon="13.27930973828461"><ele>136.0</ele><time>2026-04-08T15:27:11.999Z</time></trkpt><trkpt lat="46.122235610075315" lon="13.279172514438756"><ele>136.0</ele><time>2026-04-08T15:27:12.999Z</time></trkpt><trkpt lat="46.12250931695935" lon="13.279021934826083"><ele>136.0</ele><time>2026-04-08T15:27:13.999Z</time></trkpt><trkpt lat="46.12278547458312" lon="13.278870083268705"><ele>136.0</ele><time>2026-04-08T15:27:14.999Z</time></trkpt><trkpt lat="46.12304269165927" lon="13.27871606700768"><ele>136.0</ele><time>2026-04-08T15:27:15.999Z</time></trkpt><trkpt lat="46.123299146924566" lon="13.278587669987122"><ele>136.5</ele><time>2026-04-08T15:27:16.999Z</time></trkpt><trkpt lat="46.12354127795856" lon="13.27844777031533"><ele>137.0</ele><time>2026-04-08T15:27:17.999Z</time></trkpt><trkpt lat="46.12377521904456" lon="13.278315856847772"><ele>137.0</ele><time>2026-04-08T15:27:18.999Z</time></trkpt><trkpt lat="46.124006849455846" lon="13.278193351248676"><ele>137.0</ele><time>2026-04-08T15:27:19.999Z</time></trkpt><trkpt lat="46.124239769074684" lon="13.278072716071255"><ele>136.5</ele><time>2026-04-08T15:27:20.999Z</time></trkpt><trkpt lat="46.12447084790982" lon="13.27795708895313"><ele>136.0</ele><time>2026-04-08T15:27:21.999Z</time></trkpt><trkpt lat="46.124695641482774" lon="13.277847760909655"><ele>138.0</ele><time>2026-04-08T15:27:22.999Z</time></trkpt><trkpt lat="46.12490980217416" lon="13.277735000684833"><ele>140.0</ele><time>2026-04-08T15:27:23.999Z</time></trkpt><trkpt lat="46.12511513940927" lon="13.27760935221571"><ele>140.0</ele><time>2026-04-08T15:27:24.999Z</time></trkpt><trkpt lat="46.125300550688586" lon="13.277487728247761"><ele>140.0</ele><time>2026-04-08T15:27:25.999Z</time></trkpt><trkpt lat="46.125480663860586" lon="13.277368326821103"><ele>140.0</ele><time>2026-04-08T15:27:26.999Z</time></trkpt><trkpt lat="46.12565840640302" lon="13.277250426630493"><ele>139.0</ele><time>2026-04-08T15:27:27.999Z</time></trkpt><trkpt lat="46.125837615643604" lon="13.277136228903618"><ele>138.0</ele><time>2026-04-08T15:27:28.999Z</time></trkpt><trkpt lat="46.12601217237048" lon="13.277023298719287"><ele>137.0</ele><time>2026-04-08T15:27:29.999Z</time></trkpt><trkpt lat="46.126184333998445" lon="13.276911204005014"><ele>137.0</ele><time>2026-04-08T15:27:30.999Z</time></trkpt><trkpt lat="46.12635567994014" lon="13.276798679852218"><ele>137.0</ele><time>2026-04-08T15:27:31.999Z</time></trkpt><trkpt lat="46.12652670679721" lon="13.276688257347065"><ele>137.0</ele><time>2026-04-08T15:27:32.999Z</time></trkpt><trkpt lat="46.12669241318928" lon="13.276583774221699"><ele>137.0</ele><time>2026-04-08T15:27:33.999Z</time></trkpt><trkpt lat="46.12685374019725" lon="13.276488184178113"><ele>137.0</ele><time>2026-04-08T15:27:34.999Z</time></trkpt><trkpt lat="46.12701751725778" lon="13.276399032806358"><ele>137.0</ele><time>2026-04-08T15:27:35.999Z</time></trkpt><trkpt lat="46.127187583398985" lon="13.276314611779732"><ele>137.33333333333331</ele><time>2026-04-08T15:27:36.999Z</time></trkpt><trkpt lat="46.12737095206604" lon="13.276240277690988"><ele>137.66666666666666</ele><time>2026-04-08T15:27:37.999Z</time></trkpt><trkpt lat="46.12755042547596" lon="13.276178192988464"><ele>138.0</ele><time>2026-04-08T15:27:38.999Z</time></trkpt><trkpt lat="46.12772287422689" lon="13.276117537085913"><ele>138.0</ele><time>2026-04-08T15:27:39.999Z</time></trkpt><trkpt lat="46.12789745020051" lon="13.276060448904978"><ele>138.0</ele><time>2026-04-08T15:27:40.999Z</time></trkpt><trkpt lat="46.128080082660446" lon="13.276009661317444"><ele>138.0</ele><time>2026-04-08T15:27:41.999Z</time></trkpt><trkpt lat="46.12826627431394" lon="13.275967724206133"><ele>138.66666666666666</ele><time>2026-04-08T15:27:42.999Z</time></trkpt><trkpt lat="46.12845514961328" lon="13.275937483720343"><ele>139.33333333333331</ele><time>2026-04-08T15:27:43.999Z</time></trkpt><trkpt lat="46.12864594785097" lon="13.275917763761953"><ele>140.0</ele><time>2026-04-08T15:27:44.999Z</time></trkpt><trkpt lat="46.12883499638248" lon="13.275912965625613"><ele>140.0</ele><time>2026-04-08T15:27:45.999Z</time></trkpt><trkpt lat="46.12902917404616" lon="13.27592980177099"><ele>140.0</ele><time>2026-04-08T15:27:46.999Z</time></trkpt><trkpt lat="46.129235596194064" lon="13.275963581499074"><ele>140.0</ele><time>2026-04-08T15:27:47.999Z</time></trkpt><trkpt lat="46.12945349544446" lon="13.276010384051915"><ele>140.5</ele><time>2026-04-08T15:27:48.999Z</time></trkpt><trkpt lat="46.12967757117833" lon="13.27607534456235"><ele>141.0</ele><time>2026-04-08T15:27:49.999Z</time></trkpt><trkpt lat="46.1298995064529" lon="13.276149524404158"><ele>141.0</ele><time>2026-04-08T15:27:50.999Z</time></trkpt><trkpt lat="46.13011963872863" lon="13.276234231836089"><ele>141.0</ele><time>2026-04-08T15:27:51.999Z</time></trkpt><trkpt lat="46.13033110623662" lon="13.276319356442764"><ele>141.0</ele><time>2026-04-08T15:27:52.999Z</time></trkpt><trkpt lat="46.13053765031898" lon="13.27639808928888"><ele>141.33333333333334</ele><time>2026-04-08T15:27:53.999Z</time></trkpt><trkpt lat="46.13074547779046" lon="13.276476362084004"><ele>141.66666666666669</ele><time>2026-04-08T15:27:54.999Z</time></trkpt><trkpt lat="46.130941302514785" lon="13.276557187189022"><ele>142.0</ele><time>2026-04-08T15:27:55.999Z</time></trkpt><trkpt lat="46.13112664327671" lon="13.276643325333064"><ele>142.0</ele><time>2026-04-08T15:27:56.999Z</time></trkpt><trkpt lat="46.131306133097894" lon="13.27674813242508"><ele>142.0</ele><time>2026-04-08T15:27:57.999Z</time></trkpt><trkpt lat="46.131490072407495" lon="13.27686703764021"><ele>142.0</ele><time>2026-04-08T15:27:58.999Z</time></trkpt><trkpt lat="46.13167101847754" lon="13.276973640981582"><ele>142.33333333333334</ele><time>2026-04-08T15:27:59.999Z</time></trkpt><trkpt lat="46.131855209871965" lon="13.277068615816004"><ele>142.66666666666666</ele><time>2026-04-08T15:28:00.999Z</time></trkpt><trkpt lat="46.132049624049635" lon="13.277148181756083"><ele>143.0</ele><time>2026-04-08T15:28:01.999Z</time></trkpt><trkpt lat="46.13224928003019" lon="13.27718594467773"><ele>142.33333333333331</ele><time>2026-04-08T15:28:02.999Z</time></trkpt><trkpt lat="46.132456045980156" lon="13.277192516725124"><ele>141.66666666666666</ele><time>2026-04-08T15:28:03.999Z</time></trkpt><trkpt lat="46.13268051751628" lon="13.277171514198928"><ele>141.0</ele><time>2026-04-08T15:28:04.999Z</time></trkpt><trkpt lat="46.132926733862256" lon="13.277132906142736"><ele>141.0</ele><time>2026-04-08T15:28:05.999Z</time></trkpt><trkpt lat="46.133197424167356" lon="13.277098334666377"><ele>141.0</ele><time>2026-04-08T15:28:06.999Z</time></trkpt><trkpt lat="46.133483321586134" lon="13.277064886838186"><ele>141.5</ele><time>2026-04-08T15:28:07.999Z</time></trkpt><trkpt lat="46.1337572016521" lon="13.277026382349106"><ele>142.0</ele><time>2026-04-08T15:28:08.999Z</time></trkpt><trkpt lat="46.13401550020556" lon="13.27698348549688"><ele>142.0</ele><time>2026-04-08T15:28:09.999Z</time></trkpt><trkpt lat="46.134268992697194" lon="13.276937604783495"><ele>142.0</ele><time>2026-04-08T15:28:10.999Z</time></trkpt><trkpt lat="46.134519076347715" lon="13.276884186835918"><ele>142.0</ele><time>2026-04-08T15:28:11.999Z</time></trkpt><trkpt lat="46.134759294260725" lon="13.276828017394616"><ele>142.0</ele><time>2026-04-08T15:28:12.999Z</time></trkpt><trkpt lat="46.134989979262926" lon="13.276777587106666"><ele>142.5</ele><time>2026-04-08T15:28:13.999Z</time></trkpt><trkpt lat="46.135223333442006" lon="13.276731860229418"><ele>143.0</ele><time>2026-04-08T15:28:14.999Z</time></trkpt><trkpt lat="46.135446490118056" lon="13.276694797806533"><ele>143.0</ele><time>2026-04-08T15:28:15.999Z</time></trkpt><trkpt lat="46.13566083090362" lon="13.276673314014698"><ele>143.0</ele><time>2026-04-08T15:28:16.999Z</time></trkpt><trkpt lat="46.13587114051078" lon="13.276665469174642"><ele>143.0</ele><time>2026-04-08T15:28:18Z</time></trkpt><trkpt lat="46.13608162340834" lon="13.27666154676197"><ele>143.0</ele><time>2026-04-08T15:28:19Z</time></trkpt><trkpt lat="46.13629359953204" lon="13.276653851140003"><ele>143.0</ele><time>2026-04-08T15:28:20Z</time></trkpt><trkpt lat="46.136494528359755" lon="13.276642444098213"><ele>143.0</ele><time>2026-04-08T15:28:21Z</time></trkpt><trkpt lat="46.13669317629147" lon="13.276627364431668"><ele>143.33333333333331</ele><time>2026-04-08T15:28:22Z</time></trkpt><trkpt lat="46.13689091331453" lon="13.276612994912844"><ele>143.66666666666666</ele><time>2026-04-08T15:28:23Z</time></trkpt><trkpt lat="46.137081868313516" lon="13.276607741414928"><ele>144.0</ele><time>2026-04-08T15:28:24Z</time></trkpt><trkpt lat="46.13727103464545" lon="13.276623620040679"><ele>145.0</ele><time>2026-04-08T15:28:25Z</time></trkpt><trkpt lat="46.137462292133335" lon="13.276692205804432"><ele>146.0</ele><time>2026-04-08T15:28:26Z</time></trkpt><trkpt lat="46.13764910686091" lon="13.276800160390042"><ele>147.0</ele><time>2026-04-08T15:28:27Z</time></trkpt><trkpt lat="46.13780297314997" lon="13.2768963869723"><ele>147.0</ele><time>2026-04-08T15:28:28Z</time></trkpt><trkpt lat="46.13793160814335" lon="13.276976165190472"><ele>147.0</ele><time>2026-04-08T15:28:29Z</time></trkpt><trkpt lat="46.138046986869924" lon="13.277050161417305"><ele>147.0</ele><time>2026-04-08T15:28:30Z</time></trkpt><trkpt lat="46.138159778799555" lon="13.27712213252263"><ele>147.0</ele><time>2026-04-08T15:28:31Z</time></trkpt><trkpt lat="46.138272845922586" lon="13.277188341028852"><ele>146.79999999999998</ele><time>2026-04-08T15:28:32Z</time></trkpt><trkpt lat="46.138367047137265" lon="13.27724512342346"><ele>146.6</ele><time>2026-04-08T15:28:33Z</time></trkpt><trkpt lat="46.13845001748593" lon="13.277293909859992"><ele>146.39999999999998</ele><time>2026-04-08T15:28:34Z</time></trkpt><trkpt lat="46.13852203521569" lon="13.277334409019112"><ele>146.2</ele><time>2026-04-08T15:28:35Z</time></trkpt><trkpt lat="46.13860407353716" lon="13.277386381873272"><ele>146.0</ele><time>2026-04-08T15:28:36Z</time></trkpt><trkpt lat="46.13872139426928" lon="13.277460540868354"><ele>146.0</ele><time>2026-04-08T15:28:37Z</time></trkpt><trkpt lat="46.13881548836358" lon="13.277511668275904"><ele>146.0</ele><time>2026-04-08T15:28:38Z</time></trkpt><trkpt lat="46.138901524655694" lon="13.277563603595715"><ele>146.0</ele><time>2026-04-08T15:28:39Z</time></trkpt><trkpt lat="46.138993885623705" lon="13.277672733502385"><ele>146.0</ele><time>2026-04-08T15:28:40Z</time></trkpt><trkpt lat="46.13913687204252" lon="13.277710702067022"><ele>146.0</ele><time>2026-04-08T15:28:41Z</time></trkpt><trkpt lat="46.13925568340382" lon="13.277781552890865"><ele>146.0</ele><time>2026-04-08T15:28:42Z</time></trkpt><trkpt lat="46.1393545772116" lon="13.277838986527243"><ele>146.0</ele><time>2026-04-08T15:28:43Z</time></trkpt><trkpt lat="46.139439244714104" lon="13.277887383554598"><ele>146.0</ele><time>2026-04-08T15:28:44Z</time></trkpt><trkpt lat="46.1395163503635" lon="13.277952150278457"><ele>146.0</ele><time>2026-04-08T15:28:45Z</time></trkpt><trkpt lat="46.139629140823544" lon="13.278021691821229"><ele>146.0</ele><time>2026-04-08T15:28:46Z</time></trkpt><trkpt lat="46.13981431963039" lon="13.278132855808053"><ele>146.0</ele><time>2026-04-08T15:28:47Z</time></trkpt><trkpt lat="46.14003696147308" lon="13.278265514757207"><ele>146.0</ele><time>2026-04-08T15:28:48Z</time></trkpt><trkpt lat="46.140234591947696" lon="13.278384877103678"><ele>145.66666666666666</ele><time>2026-04-08T15:28:49Z</time></trkpt><trkpt lat="46.140401883242454" lon="13.278485915557381"><ele>145.33333333333334</ele><time>2026-04-08T15:28:50Z</time></trkpt><trkpt lat="46.14055421432837" lon="13.278578880649091"><ele>145.0</ele><time>2026-04-08T15:28:51Z</time></trkpt><trkpt lat="46.14070516164826" lon="13.278670155548804"><ele>145.25</ele><time>2026-04-08T15:28:52Z</time></trkpt><trkpt lat="46.140853026179364" lon="13.278759566349907"><ele>145.5</ele><time>2026-04-08T15:28:53Z</time></trkpt><trkpt lat="46.14098846888492" lon="13.278841465914445"><ele>145.75</ele><time>2026-04-08T15:28:53.999Z</time></trkpt><trkpt lat="46.14111530475328" lon="13.278893353387573"><ele>146.0</ele><time>2026-04-08T15:28:54.999Z</time></trkpt><trkpt lat="46.14121334167064" lon="13.278977442104516"><ele>146.5</ele><time>2026-04-08T15:28:55.999Z</time></trkpt><trkpt lat="46.14130106644991" lon="13.279030474932338"><ele>147.0</ele><time>2026-04-08T15:28:56.999Z</time></trkpt><trkpt lat="46.14138947846078" lon="13.279083179588829"><ele>147.5</ele><time>2026-04-08T15:28:57.999Z</time></trkpt><trkpt lat="46.14151424219215" lon="13.279157554430116"><ele>148.0</ele><time>2026-04-08T15:28:58.999Z</time></trkpt><trkpt lat="46.14168780615396" lon="13.279261020328766"><ele>148.0</ele><time>2026-04-08T15:28:59.999Z</time></trkpt><trkpt lat="46.141887159893216" lon="13.279355842945243"><ele>148.0</ele><time>2026-04-08T15:29:00.999Z</time></trkpt><trkpt lat="46.14204091334777" lon="13.279449481472174"><ele>148.0</ele><time>2026-04-08T15:29:01.999Z</time></trkpt><trkpt lat="46.14218159660199" lon="13.27953526074641"><ele>148.0</ele><time>2026-04-08T15:29:02.999Z</time></trkpt><trkpt lat="46.14232316547512" lon="13.279621848838016"><ele>148.0</ele><time>2026-04-08T15:29:03.999Z</time></trkpt><trkpt lat="46.142464261965614" lon="13.279708075043485"><ele>148.0</ele><time>2026-04-08T15:29:04.999Z</time></trkpt><trkpt lat="46.14260196359388" lon="13.279792395148798"><ele>148.25</ele><time>2026-04-08T15:29:05.999Z</time></trkpt><trkpt lat="46.14273513905829" lon="13.279871318020984"><ele>148.5</ele><time>2026-04-08T15:29:06.999Z</time></trkpt><trkpt lat="46.14286421627241" lon="13.279947460916542"><ele>148.75</ele><time>2026-04-08T15:29:07.999Z</time></trkpt><trkpt lat="46.142989696091476" lon="13.28004816824305"><ele>149.0</ele><time>2026-04-08T15:29:08.999Z</time></trkpt><trkpt lat="46.14313771201346" lon="13.280109448598088"><ele>148.66666666666666</ele><time>2026-04-08T15:29:09.999Z</time></trkpt><trkpt lat="46.143277657755405" lon="13.280217853903535"><ele>148.33333333333334</ele><time>2026-04-08T15:29:10.999Z</time></trkpt><trkpt lat="46.143442277225574" lon="13.28028968401451"><ele>148.0</ele><time>2026-04-08T15:29:11.999Z</time></trkpt><trkpt lat="46.14363549209305" lon="13.280404923562367"><ele>148.0</ele><time>2026-04-08T15:29:12.999Z</time></trkpt><trkpt lat="46.14383511239759" lon="13.280523983172"><ele>148.0</ele><time>2026-04-08T15:29:13.999Z</time></trkpt><trkpt lat="46.14402618430614" lon="13.280640482691025"><ele>148.0</ele><time>2026-04-08T15:29:14.999Z</time></trkpt><trkpt lat="46.14419186109802" lon="13.280742272511947"><ele>148.0</ele><time>2026-04-08T15:29:15.999Z</time></trkpt><trkpt lat="46.14433253117213" lon="13.280825205763792"><ele>148.0</ele><time>2026-04-08T15:29:16.999Z</time></trkpt><trkpt lat="46.14445503552716" lon="13.280897934948053"><ele>148.0</ele><time>2026-04-08T15:29:17.999Z</time></trkpt><trkpt lat="46.14454936149148" lon="13.280954408190496"><ele>148.0</ele><time>2026-04-08T15:29:18.999Z</time></trkpt><trkpt lat="46.14462053602232" lon="13.281022266865541"><ele>148.0</ele><time>2026-04-08T15:29:19.999Z</time></trkpt><trkpt lat="46.14470810041477" lon="13.28107502024783"><ele>148.0</ele><time>2026-04-08T15:29:20.999Z</time></trkpt><trkpt lat="46.14483888980721" lon="13.281129529788839"><ele>148.0</ele><time>2026-04-08T15:29:21.999Z</time></trkpt><trkpt lat="46.14500821083041" lon="13.281255822493751"><ele>148.0</ele><time>2026-04-08T15:29:22.999Z</time></trkpt><trkpt lat="46.14525294610022" lon="13.281380347678864"><ele>149.0</ele><time>2026-04-08T15:29:23.999Z</time></trkpt><trkpt lat="46.14546265736335" lon="13.281511280808276"><ele>150.0</ele><time>2026-04-08T15:29:24.999Z</time></trkpt><trkpt lat="46.1456156983777" lon="13.28160387464215"><ele>151.0</ele><time>2026-04-08T15:29:25.999Z</time></trkpt><trkpt lat="46.14572334734033" lon="13.281670016229153"><ele>151.0</ele><time>2026-04-08T15:29:26.999Z</time></trkpt><trkpt lat="46.145820782485735" lon="13.281727632398638"><ele>151.0</ele><time>2026-04-08T15:29:27.999Z</time></trkpt><trkpt lat="46.14591441485383" lon="13.28179111275072"><ele>151.0</ele><time>2026-04-08T15:29:28.999Z</time></trkpt><trkpt lat="46.146064553227085" lon="13.281884199284866"><ele>151.0</ele><time>2026-04-08T15:29:29.999Z</time></trkpt><trkpt lat="46.14628442553773" lon="13.282012641857902"><ele>150.0</ele><time>2026-04-08T15:29:30.999Z</time></trkpt><trkpt lat="46.14656273373372" lon="13.282176471453887"><ele>149.0</ele><time>2026-04-08T15:29:31.999Z</time></trkpt><trkpt lat="46.14682366382037" lon="13.282333421774348"><ele>149.0</ele><time>2026-04-08T15:29:32.999Z</time></trkpt><trkpt lat="46.147030676977465" lon="13.282446599926104"><ele>149.0</ele><time>2026-04-08T15:29:33.999Z</time></trkpt><trkpt lat="46.14720768760118" lon="13.282546767349872"><ele>149.0</ele><time>2026-04-08T15:29:34.999Z</time></trkpt><trkpt lat="46.147346378019364" lon="13.282685645618669"><ele>149.33333333333331</ele><time>2026-04-08T15:29:35.999Z</time></trkpt><trkpt lat="46.147487734703105" lon="13.282862113479908"><ele>149.66666666666666</ele><time>2026-04-08T15:29:36.999Z</time></trkpt><trkpt lat="46.14760275832298" lon="13.283114429612507"><ele>150.0</ele><time>2026-04-08T15:29:37.999Z</time></trkpt><trkpt lat="46.14772714305601" lon="13.283432855046817"><ele>150.0</ele><time>2026-04-08T15:29:38.999Z</time></trkpt><trkpt lat="46.147874345918225" lon="13.283774254145639"><ele>150.0</ele><time>2026-04-08T15:29:39.999Z</time></trkpt><trkpt lat="46.14799891364981" lon="13.284093395761554"><ele>150.0</ele><time>2026-04-08T15:29:40.999Z</time></trkpt><trkpt lat="46.14811645870222" lon="13.284388720017905"><ele>150.0</ele><time>2026-04-08T15:29:41.999Z</time></trkpt><trkpt lat="46.14822836998271" lon="13.284679517667888"><ele>149.0</ele><time>2026-04-08T15:29:42.999Z</time></trkpt><trkpt lat="46.1483458506594" lon="13.28497787044642"><ele>148.0</ele><time>2026-04-08T15:29:43.999Z</time></trkpt><trkpt lat="46.148468899719596" lon="13.285286080677118"><ele>148.5</ele><time>2026-04-08T15:29:44.999Z</time></trkpt><trkpt lat="46.14859539342599" lon="13.285611647930754"><ele>149.0</ele><time>2026-04-08T15:29:45.999Z</time></trkpt><trkpt lat="46.14870784103845" lon="13.28594997306427"><ele>149.0</ele><time>2026-04-08T15:29:46.999Z</time></trkpt><trkpt lat="46.14883063574185" lon="13.286221646975509"><ele>149.0</ele><time>2026-04-08T15:29:47.999Z</time></trkpt><trkpt lat="46.14893136745199" lon="13.286485851808614"><ele>149.0</ele><time>2026-04-08T15:29:48.999Z</time></trkpt><trkpt lat="46.149043967066746" lon="13.286775122113305"><ele>149.0</ele><time>2026-04-08T15:29:49.999Z</time></trkpt><trkpt lat="46.14916200109804" lon="13.287078241124561"><ele>149.0</ele><time>2026-04-08T15:29:50.999Z</time></trkpt><trkpt lat="46.149268743002416" lon="13.287355286499897"><ele>148.66666666666666</ele><time>2026-04-08T15:29:51.999Z</time></trkpt><trkpt lat="46.149372688068254" lon="13.287625353206106"><ele>148.33333333333334</ele><time>2026-04-08T15:29:52.999Z</time></trkpt><trkpt lat="46.149477467882356" lon="13.287895655804133"><ele>148.0</ele><time>2026-04-08T15:29:53.999Z</time></trkpt><trkpt lat="46.149580930513864" lon="13.28816333830125"><ele>147.66666666666669</ele><time>2026-04-08T15:29:54.999Z</time></trkpt><trkpt lat="46.149684508914746" lon="13.288426744658995"><ele>147.33333333333334</ele><time>2026-04-08T15:29:55.999Z</time></trkpt><trkpt lat="46.149785323099344" lon="13.288682217237124"><ele>147.0</ele><time>2026-04-08T15:29:56.999Z</time></trkpt><trkpt lat="46.14987336821794" lon="13.288907533491322"><ele>147.25</ele><time>2026-04-08T15:29:57.999Z</time></trkpt><trkpt lat="46.14994788687494" lon="13.289101084280542"><ele>147.5</ele><time>2026-04-08T15:29:58.999Z</time></trkpt><trkpt lat="46.15001844439289" lon="13.289277521627856"><ele>147.75</ele><time>2026-04-08T15:29:59.999Z</time></trkpt><trkpt lat="46.15008168086313" lon="13.289435409009844"><ele>148.0</ele><time>2026-04-08T15:30:00.999Z</time></trkpt><trkpt lat="46.150136709537904" lon="13.289580458734898"><ele>148.0</ele><time>2026-04-08T15:30:01.999Z</time></trkpt><trkpt lat="46.150193049304654" lon="13.289718703306711"><ele>148.0</ele><time>2026-04-08T15:30:02.999Z</time></trkpt><trkpt lat="46.15025567392874" lon="13.289873860078586"><ele>148.0</ele><time>2026-04-08T15:30:03.999Z</time></trkpt><trkpt lat="46.15032342717938" lon="13.29004912028642"><ele>148.0</ele><time>2026-04-08T15:30:04.999Z</time></trkpt><trkpt lat="46.15041039745087" lon="13.290265263336982"><ele>148.0</ele><time>2026-04-08T15:30:05.999Z</time></trkpt><trkpt lat="46.15051819730387" lon="13.290561605963134"><ele>148.0</ele><time>2026-04-08T15:30:06.999Z</time></trkpt><trkpt lat="46.15062971148461" lon="13.290931383565246"><ele>148.33333333333334</ele><time>2026-04-08T15:30:07.999Z</time></trkpt><trkpt lat="46.15070277019114" lon="13.291248519490832"><ele>148.66666666666666</ele><time>2026-04-08T15:30:08.999Z</time></trkpt><trkpt lat="46.15077403060157" lon="13.291523894560894"><ele>149.0</ele><time>2026-04-08T15:30:09.999Z</time></trkpt><trkpt lat="46.15083820918358" lon="13.291781362751616"><ele>149.0</ele><time>2026-04-08T15:30:10.999Z</time></trkpt><trkpt lat="46.15091115682293" lon="13.292020775776543"><ele>149.0</ele><time>2026-04-08T15:30:11.999Z</time></trkpt><trkpt lat="46.1509402207946" lon="13.292269121733566"><ele>149.0</ele><time>2026-04-08T15:30:12.999Z</time></trkpt><trkpt lat="46.15097438739622" lon="13.292504771523385"><ele>149.0</ele><time>2026-04-08T15:30:13.999Z</time></trkpt><trkpt lat="46.15093811891482" lon="13.292768726868289"><ele>149.0</ele><time>2026-04-08T15:30:14.999Z</time></trkpt><trkpt lat="46.150910840022185" lon="13.293015303132632"><ele>149.0</ele><time>2026-04-08T15:30:15.999Z</time></trkpt><trkpt lat="46.1508888122678" lon="13.293244275316383"><ele>149.0</ele><time>2026-04-08T15:30:16.999Z</time></trkpt><trkpt lat="46.150864347699276" lon="13.293438613437903"><ele>149.0</ele><time>2026-04-08T15:30:17.999Z</time></trkpt><trkpt lat="46.150844712355614" lon="13.293602390097128"><ele>149.0</ele><time>2026-04-08T15:30:18.999Z</time></trkpt><trkpt lat="46.15082550686223" lon="13.293747332902521"><ele>149.0</ele><time>2026-04-08T15:30:19.999Z</time></trkpt><trkpt lat="46.15080769805263" lon="13.293876642358844"><ele>149.0</ele><time>2026-04-08T15:30:20.999Z</time></trkpt><trkpt lat="46.15078651855162" lon="13.294017578370335"><ele>149.0</ele><time>2026-04-08T15:30:21.999Z</time></trkpt><trkpt lat="46.15075565042564" lon="13.294193820544834"><ele>149.0</ele><time>2026-04-08T15:30:23Z</time></trkpt><trkpt lat="46.150727712657385" lon="13.294426742739942"><ele>149.0</ele><time>2026-04-08T15:30:24Z</time></trkpt><trkpt lat="46.1507085075656" lon="13.294720438318615"><ele>148.66666666666666</ele><time>2026-04-08T15:30:25Z</time></trkpt><trkpt lat="46.15070085514679" lon="13.294991329920956"><ele>148.33333333333334</ele><time>2026-04-08T15:30:26Z</time></trkpt><trkpt lat="46.150693731482974" lon="13.2952131486147"><ele>148.0</ele><time>2026-04-08T15:30:27Z</time></trkpt><trkpt lat="46.15069034377984" lon="13.295407599239828"><ele>148.0</ele><time>2026-04-08T15:30:28Z</time></trkpt><trkpt lat="46.15069162853688" lon="13.295561035011167"><ele>148.0</ele><time>2026-04-08T15:30:29Z</time></trkpt><trkpt lat="46.15069119405173" lon="13.295665356138896"><ele>148.0</ele><time>2026-04-08T15:30:30Z</time></trkpt><trkpt lat="46.15068830865927" lon="13.295772965253532"><ele>148.0</ele><time>2026-04-08T15:30:32Z</time></trkpt><trkpt lat="46.150687557148515" lon="13.295890155565798"><ele>148.0</ele><time>2026-04-08T15:30:36Z</time></trkpt><trkpt lat="46.150716772193164" lon="13.296053925022127"><ele>148.4</ele><time>2026-04-08T15:30:38Z</time></trkpt><trkpt lat="46.15074614807582" lon="13.296160886913418"><ele>148.8</ele><time>2026-04-08T15:30:39Z</time></trkpt><trkpt lat="46.150777385055044" lon="13.296284649207916"><ele>149.2</ele><time>2026-04-08T15:30:41Z</time></trkpt><trkpt lat="46.150868493932464" lon="13.29643963232776"><ele>149.6</ele><time>2026-04-08T15:30:43Z</time></trkpt><trkpt lat="46.15095768554856" lon="13.296524221844713"><ele>150.0</ele><time>2026-04-08T15:30:44Z</time></trkpt><trkpt lat="46.15106574412971" lon="13.296633014837274"><ele>150.25</ele><time>2026-04-08T15:30:45Z</time></trkpt><trkpt lat="46.15116381141302" lon="13.296722407054762"><ele>150.5</ele><time>2026-04-08T15:30:46Z</time></trkpt><trkpt lat="46.151275611873814" lon="13.296802686879026"><ele>150.75</ele><time>2026-04-08T15:30:47Z</time></trkpt><trkpt lat="46.15140274071369" lon="13.296879342631117"><ele>151.0</ele><time>2026-04-08T15:30:48Z</time></trkpt><trkpt lat="46.1515595865626" lon="13.29697953836824"><ele>151.0</ele><time>2026-04-08T15:30:49Z</time></trkpt><trkpt lat="46.151746307843695" lon="13.297117294435957"><ele>151.0</ele><time>2026-04-08T15:30:50Z</time></trkpt><trkpt lat="46.15189622681463" lon="13.297245846232007"><ele>151.0</ele><time>2026-04-08T15:30:51Z</time></trkpt><trkpt lat="46.1520299613004" lon="13.297390508639563"><ele>151.0</ele><time>2026-04-08T15:30:52Z</time></trkpt><trkpt lat="46.152176763153236" lon="13.297550620385735"><ele>151.0</ele><time>2026-04-08T15:30:53Z</time></trkpt><trkpt lat="46.15231695610851" lon="13.297679567562817"><ele>151.0</ele><time>2026-04-08T15:30:54Z</time></trkpt><trkpt lat="46.152460748220456" lon="13.297765772248475"><ele>151.0</ele><time>2026-04-08T15:30:55Z</time></trkpt><trkpt lat="46.15262330367956" lon="13.29780742208559"><ele>151.0</ele><time>2026-04-08T15:30:56Z</time></trkpt><trkpt lat="46.152809637571885" lon="13.297810979276294"><ele>151.0</ele><time>2026-04-08T15:30:57Z</time></trkpt><trkpt lat="46.153012729011216" lon="13.29780181271209"><ele>151.0</ele><time>2026-04-08T15:30:57.999Z</time></trkpt><trkpt lat="46.153224500411596" lon="13.297800758949569"><ele>151.0</ele><time>2026-04-08T15:30:58.999Z</time></trkpt><trkpt lat="46.15342784916423" lon="13.297806815284597"><ele>151.0</ele><time>2026-04-08T15:30:59.999Z</time></trkpt><trkpt lat="46.153611606008496" lon="13.297815011980067"><ele>151.0</ele><time>2026-04-08T15:31:00.999Z</time></trkpt><trkpt lat="46.153792289729516" lon="13.297823947713404"><ele>151.0</ele><time>2026-04-08T15:31:01.999Z</time></trkpt><trkpt lat="46.15399972873699" lon="13.297834302020325"><ele>151.0</ele><time>2026-04-08T15:31:02.999Z</time></trkpt><trkpt lat="46.154192603482166" lon="13.297830993834758"><ele>151.0</ele><time>2026-04-08T15:31:03.999Z</time></trkpt><trkpt lat="46.154365637003615" lon="13.29780474663179"><ele>151.0</ele><time>2026-04-08T15:31:04.999Z</time></trkpt><trkpt lat="46.15455814584136" lon="13.297751509628926"><ele>151.0</ele><time>2026-04-08T15:31:05.999Z</time></trkpt><trkpt lat="46.154749179088455" lon="13.2976735412126"><ele>150.66666666666669</ele><time>2026-04-08T15:31:06.999Z</time></trkpt><trkpt lat="46.15492372084391" lon="13.297593368550581"><ele>150.33333333333334</ele><time>2026-04-08T15:31:07.999Z</time></trkpt><trkpt lat="46.15510205372023" lon="13.29751305804406"><ele>150.0</ele><time>2026-04-08T15:31:08.999Z</time></trkpt><trkpt lat="46.155277430791486" lon="13.297439996640815"><ele>150.0</ele><time>2026-04-08T15:31:09.999Z</time></trkpt><trkpt lat="46.15544654346459" lon="13.297384275340276"><ele>150.0</ele><time>2026-04-08T15:31:10.999Z</time></trkpt><trkpt lat="46.1556184746785" lon="13.297347219470579"><ele>150.0</ele><time>2026-04-08T15:31:11.999Z</time></trkpt><trkpt lat="46.15580866578125" lon="13.297329070874076"><ele>150.0</ele><time>2026-04-08T15:31:12.999Z</time></trkpt><trkpt lat="46.15601120485311" lon="13.297336144910156"><ele>150.0</ele><time>2026-04-08T15:31:13.999Z</time></trkpt><trkpt lat="46.156211546251576" lon="13.297368447297172"><ele>150.0</ele><time>2026-04-08T15:31:14.999Z</time></trkpt><trkpt lat="46.15640016643076" lon="13.297417958108827"><ele>151.0</ele><time>2026-04-08T15:31:15.999Z</time></trkpt><trkpt lat="46.15657450302138" lon="13.297472855206221"><ele>152.0</ele><time>2026-04-08T15:31:16.999Z</time></trkpt><trkpt lat="46.15673336765872" lon="13.29752353683808"><ele>153.0</ele><time>2026-04-08T15:31:17.999Z</time></trkpt><trkpt lat="46.15690872033984" lon="13.29757934062753"><ele>153.0</ele><time>2026-04-08T15:31:18.999Z</time></trkpt><trkpt lat="46.15707941567607" lon="13.297657037984967"><ele>153.0</ele><time>2026-04-08T15:31:19.999Z</time></trkpt><trkpt lat="46.15724644343892" lon="13.297711322792102"><ele>153.0</ele><time>2026-04-08T15:31:20.999Z</time></trkpt><trkpt lat="46.15741019830363" lon="13.297764543891262"><ele>153.0</ele><time>2026-04-08T15:31:21.999Z</time></trkpt><trkpt lat="46.15757867013407" lon="13.2978192980283"><ele>153.0</ele><time>2026-04-08T15:31:22.999Z</time></trkpt><trkpt lat="46.15775681574606" lon="13.297853696265593"><ele>153.0</ele><time>2026-04-08T15:31:23.999Z</time></trkpt><trkpt lat="46.15794624839068" lon="13.297926043533183"><ele>153.0</ele><time>2026-04-08T15:31:24.999Z</time></trkpt><trkpt lat="46.15815524936225" lon="13.29798787995309"><ele>153.0</ele><time>2026-04-08T15:31:25.999Z</time></trkpt><trkpt lat="46.158339771450386" lon="13.298044989414649"><ele>153.0</ele><time>2026-04-08T15:31:26.999Z</time></trkpt><trkpt lat="46.158520612570506" lon="13.298106961903942"><ele>153.0</ele><time>2026-04-08T15:31:27.999Z</time></trkpt><trkpt lat="46.15873763246172" lon="13.298183505956667"><ele>153.0</ele><time>2026-04-08T15:31:28.999Z</time></trkpt><trkpt lat="46.158937067599716" lon="13.298251392841081"><ele>153.0</ele><time>2026-04-08T15:31:29.999Z</time></trkpt><trkpt lat="46.159122369939624" lon="13.298302830860433"><ele>153.0</ele><time>2026-04-08T15:31:30.999Z</time></trkpt><trkpt lat="46.15932215614545" lon="13.298319129664264"><ele>153.0</ele><time>2026-04-08T15:31:31.999Z</time></trkpt><trkpt lat="46.15953223384309" lon="13.298276564383395"><ele>153.0</ele><time>2026-04-08T15:31:32.999Z</time></trkpt><trkpt lat="46.159737819632866" lon="13.298216880253852"><ele>153.33333333333334</ele><time>2026-04-08T15:31:33.999Z</time></trkpt><trkpt lat="46.15993052517844" lon="13.298161598357432"><ele>153.66666666666669</ele><time>2026-04-08T15:31:34.999Z</time></trkpt><trkpt lat="46.16012497947723" lon="13.298108336623121"><ele>154.0</ele><time>2026-04-08T15:31:35.999Z</time></trkpt><trkpt lat="46.16033113820223" lon="13.298053612456762"><ele>154.33333333333334</ele><time>2026-04-08T15:31:36.999Z</time></trkpt><trkpt lat="46.16053654510459" lon="13.297996881345101"><ele>154.66666666666666</ele><time>2026-04-08T15:31:37.999Z</time></trkpt><trkpt lat="46.16073624370777" lon="13.297944362360603"><ele>155.0</ele><time>2026-04-08T15:31:38.999Z</time></trkpt><trkpt lat="46.160926421123484" lon="13.297896172709509"><ele>157.0</ele><time>2026-04-08T15:31:39.999Z</time></trkpt><trkpt lat="46.16111779910829" lon="13.297853261112314"><ele>159.0</ele><time>2026-04-08T15:31:40.999Z</time></trkpt><trkpt lat="46.1613112621733" lon="13.297821595603903"><ele>161.0</ele><time>2026-04-08T15:31:41.999Z</time></trkpt><trkpt lat="46.16150361906822" lon="13.297805755702806"><ele>161.66666666666666</ele><time>2026-04-08T15:31:42.999Z</time></trkpt><trkpt lat="46.16169337317666" lon="13.297799137169664"><ele>162.33333333333334</ele><time>2026-04-08T15:31:43.999Z</time></trkpt><trkpt lat="46.16188563680826" lon="13.297790737135674"><ele>163.0</ele><time>2026-04-08T15:31:44.999Z</time></trkpt><trkpt lat="46.162078889800284" lon="13.297785796475885"><ele>163.0</ele><time>2026-04-08T15:31:45.999Z</time></trkpt><trkpt lat="46.16226672950165" lon="13.297777490294257"><ele>163.0</ele><time>2026-04-08T15:31:46.999Z</time></trkpt><trkpt lat="46.16244311491774" lon="13.297757999961046"><ele>163.0</ele><time>2026-04-08T15:31:47.999Z</time></trkpt><trkpt lat="46.16261259395716" lon="13.297714208753195"><ele>163.0</ele><time>2026-04-08T15:31:48.999Z</time></trkpt><trkpt lat="46.16278207486637" lon="13.297635877799804"><ele>163.0</ele><time>2026-04-08T15:31:49.999Z</time></trkpt><trkpt lat="46.16295526512415" lon="13.297504859623697"><ele>163.0</ele><time>2026-04-08T15:31:50.999Z</time></trkpt><trkpt lat="46.1631299856587" lon="13.297333770372932"><ele>165.66666666666669</ele><time>2026-04-08T15:31:51.999Z</time></trkpt><trkpt lat="46.163295326944535" lon="13.297158598381948"><ele>168.33333333333334</ele><time>2026-04-08T15:31:52.999Z</time></trkpt><trkpt lat="46.16344381696557" lon="13.296999051903292"><ele>171.0</ele><time>2026-04-08T15:31:53.999Z</time></trkpt><trkpt lat="46.16359159187982" lon="13.296843287235319"><ele>171.0</ele><time>2026-04-08T15:31:54.999Z</time></trkpt><trkpt lat="46.163736877141105" lon="13.296691030357213"><ele>171.0</ele><time>2026-04-08T15:31:55.999Z</time></trkpt><trkpt lat="46.16388342198348" lon="13.296531762469902"><ele>171.0</ele><time>2026-04-08T15:31:56.999Z</time></trkpt><trkpt lat="46.164032520645975" lon="13.296373933167642"><ele>172.0</ele><time>2026-04-08T15:31:57.999Z</time></trkpt><trkpt lat="46.16417535030273" lon="13.296225051450033"><ele>173.0</ele><time>2026-04-08T15:31:58.999Z</time></trkpt><trkpt lat="46.16430655063226" lon="13.296092387470901"><ele>174.0</ele><time>2026-04-08T15:31:59.999Z</time></trkpt><trkpt lat="46.1644490312732" lon="13.29596706177358"><ele>174.0</ele><time>2026-04-08T15:32:00.999Z</time></trkpt><trkpt lat="46.164615449672404" lon="13.295863641270056"><ele>174.0</ele><time>2026-04-08T15:32:01.999Z</time></trkpt><trkpt lat="46.16481932108952" lon="13.295775961748603"><ele>174.0</ele><time>2026-04-08T15:32:02.999Z</time></trkpt><trkpt lat="46.165035600431004" lon="13.295682832265788"><ele>172.0</ele><time>2026-04-08T15:32:03.999Z</time></trkpt><trkpt lat="46.165235259959765" lon="13.295597813760752"><ele>170.0</ele><time>2026-04-08T15:32:04.999Z</time></trkpt><trkpt lat="46.16544274851666" lon="13.295511096707658"><ele>168.0</ele><time>2026-04-08T15:32:05.999Z</time></trkpt><trkpt lat="46.16565613510293" lon="13.295424791259864"><ele>170.66666666666666</ele><time>2026-04-08T15:32:06.999Z</time></trkpt><trkpt lat="46.16585808599605" lon="13.295347813651999"><ele>173.33333333333331</ele><time>2026-04-08T15:32:07.999Z</time></trkpt><trkpt lat="46.16605873737914" lon="13.295274188570634"><ele>176.0</ele><time>2026-04-08T15:32:08.999Z</time></trkpt><trkpt lat="46.166268465696064" lon="13.295207919730327"><ele>176.0</ele><time>2026-04-08T15:32:09.999Z</time></trkpt><trkpt lat="46.1664927894621" lon="13.295150426457232"><ele>176.0</ele><time>2026-04-08T15:32:10.999Z</time></trkpt><trkpt lat="46.16670390355275" lon="13.295099186778037"><ele>176.0</ele><time>2026-04-08T15:32:11.999Z</time></trkpt><trkpt lat="46.16690689736712" lon="13.295058546049276"><ele>173.33333333333331</ele><time>2026-04-08T15:32:12.999Z</time></trkpt><trkpt lat="46.16712949711507" lon="13.295025236010842"><ele>170.66666666666666</ele><time>2026-04-08T15:32:13.999Z</time></trkpt><trkpt lat="46.167346091786264" lon="13.29501586852872"><ele>168.0</ele><time>2026-04-08T15:32:14.999Z</time></trkpt><trkpt lat="46.16755458127846" lon="13.295019281745923"><ele>167.66666666666666</ele><time>2026-04-08T15:32:15.999Z</time></trkpt><trkpt lat="46.1677647997782" lon="13.295021562430525"><ele>167.33333333333331</ele><time>2026-04-08T15:32:16.999Z</time></trkpt><trkpt lat="46.16797372363038" lon="13.29502121413137"><ele>167.0</ele><time>2026-04-08T15:32:17.999Z</time></trkpt><trkpt lat="46.16817362633693" lon="13.295004829146988"><ele>166.66666666666666</ele><time>2026-04-08T15:32:18.999Z</time></trkpt><trkpt lat="46.1683691489811" lon="13.294952772633737"><ele>166.33333333333334</ele><time>2026-04-08T15:32:19.999Z</time></trkpt><trkpt lat="46.1685686804365" lon="13.294855641453783"><ele>166.0</ele><time>2026-04-08T15:32:20.999Z</time></trkpt><trkpt lat="46.16876452663925" lon="13.294739517960442"><ele>170.66666666666669</ele><time>2026-04-08T15:32:21.999Z</time></trkpt><trkpt lat="46.168948518232234" lon="13.294637129223913"><ele>175.33333333333334</ele><time>2026-04-08T15:32:22.999Z</time></trkpt><trkpt lat="46.16913215204392" lon="13.29453845154118"><ele>180.0</ele><time>2026-04-08T15:32:23.999Z</time></trkpt><trkpt lat="46.16931541539129" lon="13.29443732307697"><ele>180.0</ele><time>2026-04-08T15:32:24.999Z</time></trkpt><trkpt lat="46.16949454018144" lon="13.29433708359232"><ele>180.0</ele><time>2026-04-08T15:32:25.999Z</time></trkpt><trkpt lat="46.16967252451698" lon="13.294242088411913"><ele>180.0</ele><time>2026-04-08T15:32:26.999Z</time></trkpt><trkpt lat="46.16986745294013" lon="13.29415368362144"><ele>177.66666666666666</ele><time>2026-04-08T15:32:28Z</time></trkpt><trkpt lat="46.170074408110665" lon="13.294087237854386"><ele>175.33333333333331</ele><time>2026-04-08T15:32:29Z</time></trkpt><trkpt lat="46.17028970420206" lon="13.294038086683738"><ele>173.0</ele><time>2026-04-08T15:32:30Z</time></trkpt><trkpt lat="46.170503972046326" lon="13.2940037054191"><ele>172.33333333333331</ele><time>2026-04-08T15:32:31Z</time></trkpt><trkpt lat="46.17071437566627" lon="13.293971946576644"><ele>171.66666666666666</ele><time>2026-04-08T15:32:32Z</time></trkpt><trkpt lat="46.17092263111623" lon="13.2939201353672"><ele>171.0</ele><time>2026-04-08T15:32:33Z</time></trkpt><trkpt lat="46.171133200435015" lon="13.29385567066427"><ele>171.33333333333334</ele><time>2026-04-08T15:32:34Z</time></trkpt><trkpt lat="46.17134279888355" lon="13.29378458166399"><ele>171.66666666666669</ele><time>2026-04-08T15:32:35Z</time></trkpt><trkpt lat="46.171551557620674" lon="13.2937095166834"><ele>172.0</ele><time>2026-04-08T15:32:36Z</time></trkpt><trkpt lat="46.17175841514301" lon="13.293629334882658"><ele>172.0</ele><time>2026-04-08T15:32:37Z</time></trkpt><trkpt lat="46.1719602479549" lon="13.293554050624856"><ele>172.0</ele><time>2026-04-08T15:32:38Z</time></trkpt><trkpt lat="46.172162729893294" lon="13.293482050314548"><ele>172.0</ele><time>2026-04-08T15:32:39Z</time></trkpt><trkpt lat="46.172372973702586" lon="13.293406473265563"><ele>172.66666666666669</ele><time>2026-04-08T15:32:40Z</time></trkpt><trkpt lat="46.17256483515702" lon="13.293337885994898"><ele>173.33333333333334</ele><time>2026-04-08T15:32:41Z</time></trkpt><trkpt lat="46.17274811514455" lon="13.29326791046624"><ele>174.0</ele><time>2026-04-08T15:32:42Z</time></trkpt><trkpt lat="46.17293215904847" lon="13.293199695004771"><ele>174.0</ele><time>2026-04-08T15:32:43Z</time></trkpt><trkpt lat="46.17311736361706" lon="13.293137497520764"><ele>174.0</ele><time>2026-04-08T15:32:44Z</time></trkpt><trkpt lat="46.17329867543959" lon="13.293091870334099"><ele>174.0</ele><time>2026-04-08T15:32:45Z</time></trkpt><trkpt lat="46.17347690024584" lon="13.293075128606377"><ele>173.66666666666666</ele><time>2026-04-08T15:32:46Z</time></trkpt><trkpt lat="46.173654229132644" lon="13.293083860302932"><ele>173.33333333333331</ele><time>2026-04-08T15:32:47Z</time></trkpt><trkpt lat="46.173832535845854" lon="13.293116738405793"><ele>173.0</ele><time>2026-04-08T15:32:48Z</time></trkpt><trkpt lat="46.17400806311739" lon="13.29317382406054"><ele>171.33333333333331</ele><time>2026-04-08T15:32:49Z</time></trkpt><trkpt lat="46.17417947995816" lon="13.293259943276256"><ele>169.66666666666666</ele><time>2026-04-08T15:32:50Z</time></trkpt><trkpt lat="46.1743467811671" lon="13.293375679510486"><ele>168.0</ele><time>2026-04-08T15:32:51Z</time></trkpt><trkpt lat="46.17450975174654" lon="13.293517772179925"><ele>168.0</ele><time>2026-04-08T15:32:52Z</time></trkpt><trkpt lat="46.17467235128009" lon="13.29366321869172"><ele>168.0</ele><time>2026-04-08T15:32:53Z</time></trkpt><trkpt lat="46.1748383220431" lon="13.293805711829783"><ele>168.0</ele><time>2026-04-08T15:32:54Z</time></trkpt><trkpt lat="46.175008687313074" lon="13.293954186018379"><ele>168.0</ele><time>2026-04-08T15:32:55Z</time></trkpt><trkpt lat="46.175180387497306" lon="13.294104943541184"><ele>168.0</ele><time>2026-04-08T15:32:56Z</time></trkpt><trkpt lat="46.175350988224736" lon="13.294266024899462"><ele>168.0</ele><time>2026-04-08T15:32:57Z</time></trkpt><trkpt lat="46.17552489608187" lon="13.294446799302131"><ele>168.0</ele><time>2026-04-08T15:32:58Z</time></trkpt><trkpt lat="46.17569017265661" lon="13.294629684008152"><ele>168.0</ele><time>2026-04-08T15:32:59Z</time></trkpt><trkpt lat="46.175850417669075" lon="13.294808849519596"><ele>168.0</ele><time>2026-04-08T15:33:00Z</time></trkpt><trkpt lat="46.176009925888806" lon="13.294981484035647"><ele>168.33333333333334</ele><time>2026-04-08T15:33:01Z</time></trkpt><trkpt lat="46.17616809303962" lon="13.295150115426615"><ele>168.66666666666669</ele><time>2026-04-08T15:33:01.999Z</time></trkpt><trkpt lat="46.17632196702191" lon="13.295313021998378"><ele>169.0</ele><time>2026-04-08T15:33:02.999Z</time></trkpt><trkpt lat="46.17648341055321" lon="13.295479523864639"><ele>169.33333333333334</ele><time>2026-04-08T15:33:03.999Z</time></trkpt><trkpt lat="46.176652077179554" lon="13.295644802106592"><ele>169.66666666666666</ele><time>2026-04-08T15:33:04.999Z</time></trkpt><trkpt lat="46.17682207477864" lon="13.295796455496538"><ele>170.0</ele><time>2026-04-08T15:33:05.999Z</time></trkpt><trkpt lat="46.176994543909686" lon="13.29594232032301"><ele>170.0</ele><time>2026-04-08T15:33:06.999Z</time></trkpt><trkpt lat="46.17717378345278" lon="13.296084076466308"><ele>170.0</ele><time>2026-04-08T15:33:07.999Z</time></trkpt><trkpt lat="46.17735994495401" lon="13.2962147106533"><ele>170.0</ele><time>2026-04-08T15:33:08.999Z</time></trkpt><trkpt lat="46.17755123609067" lon="13.296329090307117"><ele>170.33333333333331</ele><time>2026-04-08T15:33:09.999Z</time></trkpt><trkpt lat="46.17774664455166" lon="13.296421831581155"><ele>170.66666666666666</ele><time>2026-04-08T15:33:10.999Z</time></trkpt><trkpt lat="46.17794482019944" lon="13.29651977773006"><ele>171.0</ele><time>2026-04-08T15:33:11.999Z</time></trkpt><trkpt lat="46.1781535919286" lon="13.296627458162435"><ele>171.33333333333334</ele><time>2026-04-08T15:33:12.999Z</time></trkpt><trkpt lat="46.17836523587715" lon="13.296739081517076"><ele>171.66666666666669</ele><time>2026-04-08T15:33:13.999Z</time></trkpt><trkpt lat="46.17857104913724" lon="13.296846506282867"><ele>172.0</ele><time>2026-04-08T15:33:14.999Z</time></trkpt><trkpt lat="46.178773371762645" lon="13.296957147552668"><ele>172.0</ele><time>2026-04-08T15:33:15.999Z</time></trkpt><trkpt lat="46.17897398667693" lon="13.297091302432506"><ele>172.0</ele><time>2026-04-08T15:33:16.999Z</time></trkpt><trkpt lat="46.1791671000833" lon="13.297254211038608"><ele>172.0</ele><time>2026-04-08T15:33:17.999Z</time></trkpt><trkpt lat="46.1793537961733" lon="13.297426092087404"><ele>173.0</ele><time>2026-04-08T15:33:18.999Z</time></trkpt><trkpt lat="46.17952541057811" lon="13.29760541074878"><ele>174.0</ele><time>2026-04-08T15:33:19.999Z</time></trkpt><trkpt lat="46.17968491814567" lon="13.297790285347574"><ele>175.0</ele><time>2026-04-08T15:33:20.999Z</time></trkpt><trkpt lat="46.17984444919007" lon="13.297978123518943"><ele>174.66666666666669</ele><time>2026-04-08T15:33:21.999Z</time></trkpt><trkpt lat="46.18000939047905" lon="13.298172906215617"><ele>174.33333333333334</ele><time>2026-04-08T15:33:22.999Z</time></trkpt><trkpt lat="46.18017223788763" lon="13.298357418083647"><ele>174.0</ele><time>2026-04-08T15:33:23.999Z</time></trkpt><trkpt lat="46.18033494471657" lon="13.298542321055825"><ele>174.0</ele><time>2026-04-08T15:33:24.999Z</time></trkpt><trkpt lat="46.180495795484546" lon="13.298729300983423"><ele>174.0</ele><time>2026-04-08T15:33:25.999Z</time></trkpt><trkpt lat="46.18065280264145" lon="13.298915308910786"><ele>174.0</ele><time>2026-04-08T15:33:26.999Z</time></trkpt><trkpt lat="46.18081317728405" lon="13.2990991655514"><ele>175.0</ele><time>2026-04-08T15:33:27.999Z</time></trkpt><trkpt lat="46.18098023935222" lon="13.29929130035054"><ele>176.0</ele><time>2026-04-08T15:33:28.999Z</time></trkpt><trkpt lat="46.18114948447351" lon="13.299488435799956"><ele>177.0</ele><time>2026-04-08T15:33:29.999Z</time></trkpt><trkpt lat="46.1813210739355" lon="13.299680766932394"><ele>177.0</ele><time>2026-04-08T15:33:30.999Z</time></trkpt><trkpt lat="46.181493618214546" lon="13.29986155481699"><ele>177.0</ele><time>2026-04-08T15:33:31.999Z</time></trkpt><trkpt lat="46.18166845505971" lon="13.300020249652984"><ele>177.0</ele><time>2026-04-08T15:33:32.999Z</time></trkpt><trkpt lat="46.18184740341739" lon="13.300162119656585"><ele>177.33333333333334</ele><time>2026-04-08T15:33:33.999Z</time></trkpt><trkpt lat="46.18202629080962" lon="13.300295343749802"><ele>177.66666666666669</ele><time>2026-04-08T15:33:34.999Z</time></trkpt><trkpt lat="46.1822089811534" lon="13.300417691879664"><ele>178.0</ele><time>2026-04-08T15:33:35.999Z</time></trkpt><trkpt lat="46.182406796379944" lon="13.300535503202473"><ele>178.66666666666669</ele><time>2026-04-08T15:33:36.999Z</time></trkpt><trkpt lat="46.18261443560308" lon="13.30064314520983"><ele>179.33333333333334</ele><time>2026-04-08T15:33:37.999Z</time></trkpt><trkpt lat="46.18282793282357" lon="13.300738889069402"><ele>180.0</ele><time>2026-04-08T15:33:38.999Z</time></trkpt><trkpt lat="46.18304366048325" lon="13.300815539343365"><ele>180.0</ele><time>2026-04-08T15:33:39.999Z</time></trkpt><trkpt lat="46.18325996751452" lon="13.300880620544332"><ele>180.0</ele><time>2026-04-08T15:33:40.999Z</time></trkpt><trkpt lat="46.18348494159413" lon="13.300945961983999"><ele>180.0</ele><time>2026-04-08T15:33:41.999Z</time></trkpt><trkpt lat="46.183706538189945" lon="13.301012753975755"><ele>180.0</ele><time>2026-04-08T15:33:42.999Z</time></trkpt><trkpt lat="46.18392073177026" lon="13.301077020317265"><ele>180.0</ele><time>2026-04-08T15:33:43.999Z</time></trkpt><trkpt lat="46.18414100542796" lon="13.301143166791283"><ele>180.33333333333334</ele><time>2026-04-08T15:33:44.999Z</time></trkpt><trkpt lat="46.184360572264275" lon="13.301207691389848"><ele>180.66666666666669</ele><time>2026-04-08T15:33:45.999Z</time></trkpt><trkpt lat="46.18457809417131" lon="13.301268389667952"><ele>181.0</ele><time>2026-04-08T15:33:46.999Z</time></trkpt><trkpt lat="46.184791914458486" lon="13.301330835427322"><ele>181.33333333333334</ele><time>2026-04-08T15:33:47.999Z</time></trkpt><trkpt lat="46.18499978837593" lon="13.301396738212272"><ele>181.66666666666666</ele><time>2026-04-08T15:33:48.999Z</time></trkpt><trkpt lat="46.18519795619424" lon="13.301465404835978"><ele>182.0</ele><time>2026-04-08T15:33:49.999Z</time></trkpt><trkpt lat="46.18538490979036" lon="13.301548662783679"><ele>182.33333333333331</ele><time>2026-04-08T15:33:50.999Z</time></trkpt><trkpt lat="46.185568710724944" lon="13.301646351959839"><ele>182.66666666666666</ele><time>2026-04-08T15:33:51.999Z</time></trkpt><trkpt lat="46.185740648477434" lon="13.301754448046754"><ele>183.0</ele><time>2026-04-08T15:33:52.999Z</time></trkpt><trkpt lat="46.18590979003442" lon="13.30186595903216"><ele>184.0</ele><time>2026-04-08T15:33:53.999Z</time></trkpt><trkpt lat="46.186069464449616" lon="13.301978405977406"><ele>185.0</ele><time>2026-04-08T15:33:54.999Z</time></trkpt><trkpt lat="46.186221555853066" lon="13.302096575592687"><ele>186.0</ele><time>2026-04-08T15:33:55.999Z</time></trkpt><trkpt lat="46.18636032633928" lon="13.302230380383577"><ele>186.0</ele><time>2026-04-08T15:33:56.999Z</time></trkpt><trkpt lat="46.18650244805789" lon="13.302394809289648"><ele>186.0</ele><time>2026-04-08T15:33:57.999Z</time></trkpt><trkpt lat="46.18663107357475" lon="13.302562389990529"><ele>186.0</ele><time>2026-04-08T15:33:58.999Z</time></trkpt><trkpt lat="46.18675014541577" lon="13.302726932531012"><ele>186.66666666666666</ele><time>2026-04-08T15:33:59.999Z</time></trkpt><trkpt lat="46.18686744908765" lon="13.302899802797027"><ele>187.33333333333331</ele><time>2026-04-08T15:34:00.999Z</time></trkpt><trkpt lat="46.18698139027691" lon="13.303069138212154"><ele>188.0</ele><time>2026-04-08T15:34:01.999Z</time></trkpt><trkpt lat="46.18709235264774" lon="13.303233194427708"><ele>188.33333333333331</ele><time>2026-04-08T15:34:02.999Z</time></trkpt><trkpt lat="46.18719175334238" lon="13.303418713423092"><ele>188.66666666666666</ele><time>2026-04-08T15:34:03.999Z</time></trkpt><trkpt lat="46.1873154019204" lon="13.303572498292695"><ele>189.0</ele><time>2026-04-08T15:34:04.999Z</time></trkpt><trkpt lat="46.18740726853213" lon="13.303748167238973"><ele>189.5</ele><time>2026-04-08T15:34:05.999Z</time></trkpt><trkpt lat="46.18751168754489" lon="13.303902227551138"><ele>190.0</ele><time>2026-04-08T15:34:06.999Z</time></trkpt><trkpt lat="46.18761494876041" lon="13.304056458870265"><ele>190.5</ele><time>2026-04-08T15:34:07.999Z</time></trkpt><trkpt lat="46.18770951047993" lon="13.304200401070316"><ele>191.0</ele><time>2026-04-08T15:34:08.999Z</time></trkpt><trkpt lat="46.1878022121227" lon="13.304341719797547"><ele>191.5</ele><time>2026-04-08T15:34:09.999Z</time></trkpt><trkpt lat="46.18789393254158" lon="13.304480571974976"><ele>192.0</ele><time>2026-04-08T15:34:10.999Z</time></trkpt><trkpt lat="46.18800103699236" lon="13.30460294164008"><ele>192.5</ele><time>2026-04-08T15:34:11.999Z</time></trkpt><trkpt lat="46.18809033723913" lon="13.304739888857405"><ele>193.0</ele><time>2026-04-08T15:34:12.999Z</time></trkpt><trkpt lat="46.1881702172693" lon="13.304863501742155"><ele>193.2</ele><time>2026-04-08T15:34:13.999Z</time></trkpt><trkpt lat="46.188244078731366" lon="13.304975601182994"><ele>193.4</ele><time>2026-04-08T15:34:14.999Z</time></trkpt><trkpt lat="46.18831689530926" lon="13.305089622083969"><ele>193.6</ele><time>2026-04-08T15:34:15.999Z</time></trkpt><trkpt lat="46.188384369198864" lon="13.305202009649848"><ele>193.79999999999998</ele><time>2026-04-08T15:34:16.999Z</time></trkpt><trkpt lat="46.18844084054496" lon="13.305303917161245"><ele>194.0</ele><time>2026-04-08T15:34:17.999Z</time></trkpt><trkpt lat="46.188492485279724" lon="13.305389104439307"><ele>194.0</ele><time>2026-04-08T15:34:18.999Z</time></trkpt><trkpt lat="46.188533426575674" lon="13.305463844471955"><ele>194.0</ele><time>2026-04-08T15:34:19.999Z</time></trkpt><trkpt lat="46.18858461735478" lon="13.30557045616598"><ele>194.0</ele><time>2026-04-08T15:34:21.999Z</time></trkpt><trkpt lat="46.188672119612406" lon="13.305715924366702"><ele>194.0</ele><time>2026-04-08T15:34:23.999Z</time></trkpt><trkpt lat="46.18872452076039" lon="13.30583008965842"><ele>194.0</ele><time>2026-04-08T15:34:24.999Z</time></trkpt><trkpt lat="46.18880453977784" lon="13.305956973373373"><ele>194.2</ele><time>2026-04-08T15:34:25.999Z</time></trkpt><trkpt lat="46.18888632386538" lon="13.306108945630902"><ele>194.39999999999998</ele><time>2026-04-08T15:34:26.999Z</time></trkpt><trkpt lat="46.18896873488857" lon="13.306211546233564"><ele>194.6</ele><time>2026-04-08T15:34:27.999Z</time></trkpt><trkpt lat="46.18904151685762" lon="13.306297906907748"><ele>194.8</ele><time>2026-04-08T15:34:28.999Z</time></trkpt><trkpt lat="46.18910572648014" lon="13.30637185884123"><ele>195.0</ele><time>2026-04-08T15:34:29.999Z</time></trkpt><trkpt lat="46.18916935508119" lon="13.306413794189577"><ele>195.16666666666666</ele><time>2026-04-08T15:34:30.999Z</time></trkpt><trkpt lat="46.189233767712146" lon="13.30652091586539"><ele>195.33333333333331</ele><time>2026-04-08T15:34:33Z</time></trkpt><trkpt lat="46.18928369590809" lon="13.306585647608284"><ele>195.5</ele><time>2026-04-08T15:34:35Z</time></trkpt><trkpt lat="46.18934000826022" lon="13.306647878697468"><ele>195.66666666666666</ele><time>2026-04-08T15:34:37Z</time></trkpt><trkpt lat="46.18939626359556" lon="13.306718658643298"><ele>195.83333333333331</ele><time>2026-04-08T15:34:39Z</time></trkpt><trkpt lat="46.189455110672434" lon="13.306783674971545"><ele>196.0</ele><time>2026-04-08T15:34:41Z</time></trkpt><trkpt lat="46.18951220865968" lon="13.306851498844152"><ele>195.99999999999997</ele><time>2026-04-08T15:34:43Z</time></trkpt><trkpt lat="46.18957030102926" lon="13.30692076876299"><ele>196.0</ele><time>2026-04-08T15:34:45Z</time></trkpt><trkpt lat="46.18962534659869" lon="13.306981844286026"><ele>196.0</ele><time>2026-04-08T15:34:47Z</time></trkpt><trkpt lat="46.18969445326539" lon="13.307069152816576"><ele>196.0</ele><time>2026-04-08T15:34:50Z</time></trkpt><trkpt lat="46.1897555470088" lon="13.30713277641683"><ele>195.99999999999997</ele><time>2026-04-08T15:34:53Z</time></trkpt><trkpt lat="46.189809278239245" lon="13.307194834537349"><ele>196.0</ele><time>2026-04-08T15:34:55Z</time></trkpt><trkpt lat="46.189868743885256" lon="13.30726813189648"><ele>196.0</ele><time>2026-04-08T15:34:58Z</time></trkpt><trkpt lat="46.189928999177994" lon="13.307335126050523"><ele>196.0</ele><time>2026-04-08T15:35:00.999Z</time></trkpt><trkpt lat="46.18997953917311" lon="13.307403596162143"><ele>196.0</ele><time>2026-04-08T15:35:10.999Z</time></trkpt><trkpt lat="46.18985198322323" lon="13.307212743802458"><ele>196.0</ele><time>2026-04-08T15:35:19.999Z</time></trkpt><trkpt lat="46.189736036147416" lon="13.307081809838968"><ele>196.0</ele><time>2026-04-08T15:35:20.999Z</time></trkpt><trkpt lat="46.18958339086554" lon="13.306897421191321"><ele>196.0</ele><time>2026-04-08T15:35:21.999Z</time></trkpt><trkpt lat="46.18945924668413" lon="13.306744994900454"><ele>196.0</ele><time>2026-04-08T15:35:22.999Z</time></trkpt><trkpt lat="46.189351692601214" lon="13.306619175603956"><ele>196.0</ele><time>2026-04-08T15:35:23.999Z</time></trkpt><trkpt lat="46.18925598732209" lon="13.306507071381517"><ele>196.0</ele><time>2026-04-08T15:35:24.999Z</time></trkpt><trkpt lat="46.18916771790433" lon="13.306400194369903"><ele>196.0</ele><time>2026-04-08T15:35:25.999Z</time></trkpt><trkpt lat="46.189084987188586" lon="13.306294949055882"><ele>196.0</ele><time>2026-04-08T15:35:26.999Z</time></trkpt><trkpt lat="46.189001403726344" lon="13.306193210317685"><ele>195.8</ele><time>2026-04-08T15:35:27.999Z</time></trkpt><trkpt lat="46.188916415669524" lon="13.306089550453516"><ele>195.60000000000002</ele><time>2026-04-08T15:35:28.999Z</time></trkpt><trkpt lat="46.188849331943445" lon="13.30598292496954"><ele>195.4</ele><time>2026-04-08T15:35:29.999Z</time></trkpt><trkpt lat="46.18880053900111" lon="13.30587829983804"><ele>195.2</ele><time>2026-04-08T15:35:30.999Z</time></trkpt><trkpt lat="46.188759506934595" lon="13.305793907935394"><ele>195.0</ele><time>2026-04-08T15:35:31.999Z</time></trkpt><trkpt lat="46.18871451523745" lon="13.305690391062866"><ele>195.0</ele><time>2026-04-08T15:35:33.999Z</time></trkpt><trkpt lat="46.18865655523713" lon="13.30559448442551"><ele>195.0</ele><time>2026-04-08T15:35:36.999Z</time></trkpt><trkpt lat="46.188508047859266" lon="13.305730243454787"><ele>195.0</ele><time>2026-04-08T15:35:37.999Z</time></trkpt><trkpt lat="46.18840400582438" lon="13.3058358752608"><ele>195.0</ele><time>2026-04-08T15:35:38.999Z</time></trkpt><trkpt lat="46.18828750802192" lon="13.305967886782648"><ele>195.0</ele><time>2026-04-08T15:35:39.999Z</time></trkpt><trkpt lat="46.18819146051899" lon="13.306068526496558"><ele>195.0</ele><time>2026-04-08T15:35:40.999Z</time></trkpt><trkpt lat="46.188113141649914" lon="13.306145503916511"><ele>195.0</ele><time>2026-04-08T15:35:41.999Z</time></trkpt><trkpt lat="46.1880488966966" lon="13.306185916910135"><ele>195.0</ele><time>2026-04-08T15:35:42.999Z</time></trkpt><trkpt lat="46.18799409455546" lon="13.306252026392034"><ele>195.0</ele><time>2026-04-08T15:35:44.999Z</time></trkpt><trkpt lat="46.18807387505934" lon="13.30646224714449"><ele>195.2</ele><time>2026-04-08T15:35:45.999Z</time></trkpt><trkpt lat="46.18811990540999" lon="13.306581280157943"><ele>195.4</ele><time>2026-04-08T15:35:46.999Z</time></trkpt><trkpt lat="46.188172137081516" lon="13.306731047839783"><ele>195.60000000000002</ele><time>2026-04-08T15:35:47.999Z</time></trkpt><trkpt lat="46.18821914130846" lon="13.306880076924587"><ele>195.8</ele><time>2026-04-08T15:35:48.999Z</time></trkpt><trkpt lat="46.188267015144234" lon="13.30701348145881"><ele>196.0</ele><time>2026-04-08T15:35:49.999Z</time></trkpt><trkpt lat="46.18831016558381" lon="13.307142218045815"><ele>196.20000000000002</ele><time>2026-04-08T15:35:50.999Z</time></trkpt><trkpt lat="46.18834011582331" lon="13.307267689393958"><ele>196.4</ele><time>2026-04-08T15:35:51.999Z</time></trkpt><trkpt lat="46.18836089602428" lon="13.307376238599627"><ele>196.6</ele><time>2026-04-08T15:35:52.999Z</time></trkpt><trkpt lat="46.18838112473531" lon="13.30752872784331"><ele>196.8</ele><time>2026-04-08T15:35:54.999Z</time></trkpt><trkpt lat="46.18822562099908" lon="13.307589736026129"><ele>197.0</ele><time>2026-04-08T15:35:58.999Z</time></trkpt><trkpt lat="46.18813831861735" lon="13.307550975439538"><ele>196.6</ele><time>2026-04-08T15:35:59.999Z</time></trkpt><trkpt lat="46.18802555161813" lon="13.30752636798009"><ele>196.2</ele><time>2026-04-08T15:36:00.999Z</time></trkpt><trkpt lat="46.18794070242725" lon="13.307510605008966"><ele>195.8</ele><time>2026-04-08T15:36:01.999Z</time></trkpt><trkpt lat="46.187824436036536" lon="13.307482411970131"><ele>195.4</ele><time>2026-04-08T15:36:03.999Z</time></trkpt><trkpt lat="46.18773459130915" lon="13.307452734210065"><ele>195.0</ele><time>2026-04-08T15:36:05.999Z</time></trkpt><trkpt lat="46.18767074699263" lon="13.307449677630515"><ele>195.0</ele><time>2026-04-08T15:36:08.999Z</time></trkpt><trkpt lat="46.18757478773916" lon="13.307401652591517"><ele>195.0</ele><time>2026-04-08T15:41:13Z</time></trkpt><trkpt lat="46.18743827676524" lon="13.30741585676823"><ele>195.0</ele><time>2026-04-08T15:41:15Z</time></trkpt><trkpt lat="46.18734740235078" lon="13.307409718698844"><ele>195.0</ele><time>2026-04-08T15:41:16Z</time></trkpt><trkpt lat="46.18724275655303" lon="13.307407445889144"><ele>195.0</ele><time>2026-04-08T15:41:16.999Z</time></trkpt><trkpt lat="46.18713916935998" lon="13.307401686913224"><ele>194.83333333333334</ele><time>2026-04-08T15:41:17.999Z</time></trkpt><trkpt lat="46.18705266343698" lon="13.30740114988036"><ele>194.66666666666669</ele><time>2026-04-08T15:41:18.999Z</time></trkpt><trkpt lat="46.186973875675676" lon="13.307401395605828"><ele>194.5</ele><time>2026-04-08T15:41:19.999Z</time></trkpt><trkpt lat="46.186899452188555" lon="13.307398440785063"><ele>194.33333333333334</ele><time>2026-04-08T15:41:20.999Z</time></trkpt><trkpt lat="46.18681881289152" lon="13.307393685313807"><ele>194.16666666666669</ele><time>2026-04-08T15:41:21.999Z</time></trkpt><trkpt lat="46.18673691795601" lon="13.307389020036952"><ele>194.0</ele><time>2026-04-08T15:41:22.999Z</time></trkpt><trkpt lat="46.18665423346509" lon="13.307384352758183"><ele>194.00000000000003</ele><time>2026-04-08T15:41:23.999Z</time></trkpt><trkpt lat="46.18656934854922" lon="13.307376426044287"><ele>194.0</ele><time>2026-04-08T15:41:24.999Z</time></trkpt><trkpt lat="46.18648738553875" lon="13.307371280266427"><ele>194.0</ele><time>2026-04-08T15:41:25.999Z</time></trkpt><trkpt lat="46.18641216075557" lon="13.30736585277511"><ele>194.0</ele><time>2026-04-08T15:41:26.999Z</time></trkpt><trkpt lat="46.186345113927125" lon="13.30735951390745"><ele>194.00000000000003</ele><time>2026-04-08T15:41:27.999Z</time></trkpt><trkpt lat="46.1862307616422" lon="13.307353349992127"><ele>194.0</ele><time>2026-04-08T15:41:29.999Z</time></trkpt><trkpt lat="46.18615695680031" lon="13.3073217100675"><ele>194.00000000000003</ele><time>2026-04-08T15:41:31.999Z</time></trkpt><trkpt lat="46.18611353935487" lon="13.30724746884821"><ele>194.0</ele><time>2026-04-08T15:41:34.999Z</time></trkpt><trkpt lat="46.186215598721226" lon="13.307137384689444"><ele>194.0</ele><time>2026-04-08T15:41:35.999Z</time></trkpt><trkpt lat="46.18628555992694" lon="13.307105902122515"><ele>194.0</ele><time>2026-04-08T15:41:36.999Z</time></trkpt><trkpt lat="46.186351781099624" lon="13.307049518551421"><ele>194.00000000000003</ele><time>2026-04-08T15:41:37.999Z</time></trkpt><trkpt lat="46.1864261645946" lon="13.306990565059339"><ele>194.0</ele><time>2026-04-08T15:41:38.999Z</time></trkpt><trkpt lat="46.18650560849978" lon="13.306933710024612"><ele>194.0</ele><time>2026-04-08T15:41:39.999Z</time></trkpt><trkpt lat="46.18658889024977" lon="13.306877133008516"><ele>194.0</ele><time>2026-04-08T15:41:40.999Z</time></trkpt><trkpt lat="46.18667409730358" lon="13.306822383597371"><ele>194.0</ele><time>2026-04-08T15:41:41.999Z</time></trkpt><trkpt lat="46.18677075459215" lon="13.306766729445261"><ele>194.0</ele><time>2026-04-08T15:41:42.999Z</time></trkpt><trkpt lat="46.18689231028951" lon="13.306707165529629"><ele>194.0</ele><time>2026-04-08T15:41:43.999Z</time></trkpt><trkpt lat="46.18702975573214" lon="13.306650667864687"><ele>194.0</ele><time>2026-04-08T15:41:44.999Z</time></trkpt><trkpt lat="46.18715568511823" lon="13.306609423326934"><ele>194.0</ele><time>2026-04-08T15:41:45.999Z</time></trkpt><trkpt lat="46.18727640438468" lon="13.30656628369903"><ele>194.0</ele><time>2026-04-08T15:41:46.999Z</time></trkpt><trkpt lat="46.187376706486226" lon="13.30653051715688"><ele>194.0</ele><time>2026-04-08T15:41:47.999Z</time></trkpt><trkpt lat="46.18749159769876" lon="13.306499055029429"><ele>194.0</ele><time>2026-04-08T15:41:48.999Z</time></trkpt><trkpt lat="46.187609378391606" lon="13.306468082953547"><ele>194.0</ele><time>2026-04-08T15:41:49.999Z</time></trkpt><trkpt lat="46.187713850748004" lon="13.306429876929982"><ele>194.0</ele><time>2026-04-08T15:41:50.999Z</time></trkpt><trkpt lat="46.18781135157646" lon="13.306390257212039"><ele>194.0</ele><time>2026-04-08T15:41:51.999Z</time></trkpt><trkpt lat="46.18790860818727" lon="13.306342737807553"><ele>194.0</ele><time>2026-04-08T15:41:52.999Z</time></trkpt><trkpt lat="46.188001856003154" lon="13.306280496960099"><ele>194.0</ele><time>2026-04-08T15:41:53.999Z</time></trkpt><trkpt lat="46.188097172360855" lon="13.306207712629632"><ele>194.0</ele><time>2026-04-08T15:41:54.999Z</time></trkpt><trkpt lat="46.18818574834481" lon="13.306126999411823"><ele>194.0</ele><time>2026-04-08T15:41:55.999Z</time></trkpt><trkpt lat="46.18826484429209" lon="13.306049430566686"><ele>194.0</ele><time>2026-04-08T15:41:56.999Z</time></trkpt><trkpt lat="46.18835118005396" lon="13.305962655516979"><ele>194.0</ele><time>2026-04-08T15:41:57.999Z</time></trkpt><trkpt lat="46.18844306025549" lon="13.305870104724963"><ele>194.0</ele><time>2026-04-08T15:41:58.999Z</time></trkpt><trkpt lat="46.18852935192825" lon="13.305778357298355"><ele>194.0</ele><time>2026-04-08T15:41:59.999Z</time></trkpt><trkpt lat="46.188619279090865" lon="13.305697893476594"><ele>194.0</ele><time>2026-04-08T15:42:00.999Z</time></trkpt><trkpt lat="46.18871928973254" lon="13.305635869087977"><ele>194.0</ele><time>2026-04-08T15:42:01.999Z</time></trkpt><trkpt lat="46.18882966111725" lon="13.305593398583113"><ele>194.0</ele><time>2026-04-08T15:42:02.999Z</time></trkpt><trkpt lat="46.18894413007907" lon="13.30557508521524"><ele>194.5</ele><time>2026-04-08T15:42:03.999Z</time></trkpt><trkpt lat="46.18905936303708" lon="13.305567206908425"><ele>195.0</ele><time>2026-04-08T15:42:04.999Z</time></trkpt><trkpt lat="46.18917408298731" lon="13.305565362406"><ele>195.5</ele><time>2026-04-08T15:42:05.999Z</time></trkpt><trkpt lat="46.18928527107813" lon="13.305568348907489"><ele>196.0</ele><time>2026-04-08T15:42:06.999Z</time></trkpt><trkpt lat="46.18939453679379" lon="13.305565496849248"><ele>196.0</ele><time>2026-04-08T15:42:07.999Z</time></trkpt><trkpt lat="46.189501922724155" lon="13.305546993642023"><ele>196.0</ele><time>2026-04-08T15:42:08.999Z</time></trkpt><trkpt lat="46.18961215504548" lon="13.305494897856113"><ele>196.0</ele><time>2026-04-08T15:42:09.999Z</time></trkpt><trkpt lat="46.189714691446554" lon="13.305398792756227"><ele>196.0</ele><time>2026-04-08T15:42:10.999Z</time></trkpt><trkpt lat="46.18979291356745" lon="13.30525533164303"><ele>196.5</ele><time>2026-04-08T15:42:11.999Z</time></trkpt><trkpt lat="46.18985716262365" lon="13.305113782798832"><ele>197.0</ele><time>2026-04-08T15:42:12.999Z</time></trkpt><trkpt lat="46.189914604095016" lon="13.304980166744349"><ele>197.5</ele><time>2026-04-08T15:42:13.999Z</time></trkpt><trkpt lat="46.189975963620455" lon="13.30484180521054"><ele>198.0</ele><time>2026-04-08T15:42:14.999Z</time></trkpt><trkpt lat="46.19004435836037" lon="13.304704267827896"><ele>197.0</ele><time>2026-04-08T15:42:15.999Z</time></trkpt><trkpt lat="46.19011827054802" lon="13.304566399701905"><ele>196.0</ele><time>2026-04-08T15:42:16.999Z</time></trkpt><trkpt lat="46.19019268831246" lon="13.304426627915262"><ele>195.0</ele><time>2026-04-08T15:42:17.999Z</time></trkpt><trkpt lat="46.19027304660284" lon="13.304293917641727"><ele>194.0</ele><time>2026-04-08T15:42:18.999Z</time></trkpt><trkpt lat="46.19037191846753" lon="13.30416551660227"><ele>194.0</ele><time>2026-04-08T15:42:19.999Z</time></trkpt><trkpt lat="46.19048968231935" lon="13.304031332956987"><ele>194.0</ele><time>2026-04-08T15:42:20.999Z</time></trkpt><trkpt lat="46.1906224739491" lon="13.303900934670738"><ele>194.0</ele><time>2026-04-08T15:42:21.999Z</time></trkpt><trkpt lat="46.19076253788018" lon="13.303786227345615"><ele>194.0</ele><time>2026-04-08T15:42:22.999Z</time></trkpt><trkpt lat="46.190905837292675" lon="13.303686611370608"><ele>194.0</ele><time>2026-04-08T15:42:23.999Z</time></trkpt><trkpt lat="46.191053332329304" lon="13.30359300298025"><ele>194.0</ele><time>2026-04-08T15:42:24.999Z</time></trkpt><trkpt lat="46.19120375067514" lon="13.303499877124574"><ele>194.0</ele><time>2026-04-08T15:42:25.999Z</time></trkpt><trkpt lat="46.1913620813954" lon="13.303398770586664"><ele>194.0</ele><time>2026-04-08T15:42:26.999Z</time></trkpt><trkpt lat="46.19152478585161" lon="13.303287520672852"><ele>194.0</ele><time>2026-04-08T15:42:27.999Z</time></trkpt><trkpt lat="46.19168469822664" lon="13.303169382825104"><ele>194.66666666666669</ele><time>2026-04-08T15:42:28.999Z</time></trkpt><trkpt lat="46.191835970461305" lon="13.303040285595744"><ele>195.33333333333331</ele><time>2026-04-08T15:42:29.999Z</time></trkpt><trkpt lat="46.19197620090215" lon="13.302896262991785"><ele>196.0</ele><time>2026-04-08T15:42:30.999Z</time></trkpt><trkpt lat="46.19210565793597" lon="13.30275125486562"><ele>196.0</ele><time>2026-04-08T15:42:31.999Z</time></trkpt><trkpt lat="46.19224619669356" lon="13.302623757109211"><ele>196.0</ele><time>2026-04-08T15:42:32.999Z</time></trkpt><trkpt lat="46.192384409191476" lon="13.302472671982349"><ele>196.0</ele><time>2026-04-08T15:42:33.999Z</time></trkpt><trkpt lat="46.192529417306424" lon="13.302311709327904"><ele>194.66666666666666</ele><time>2026-04-08T15:42:34.999Z</time></trkpt><trkpt lat="46.19267683396161" lon="13.302146886996773"><ele>193.33333333333331</ele><time>2026-04-08T15:42:35.999Z</time></trkpt><trkpt lat="46.192823556823605" lon="13.301986196233647"><ele>192.0</ele><time>2026-04-08T15:42:36.999Z</time></trkpt><trkpt lat="46.192965866465066" lon="13.301830312428022"><ele>192.0</ele><time>2026-04-08T15:42:37.999Z</time></trkpt><trkpt lat="46.19310662878069" lon="13.301675992306624"><ele>192.0</ele><time>2026-04-08T15:42:38.999Z</time></trkpt><trkpt lat="46.19323736606415" lon="13.301504925034553"><ele>192.0</ele><time>2026-04-08T15:42:39.999Z</time></trkpt><trkpt lat="46.19338294248149" lon="13.301348902333862"><ele>194.33333333333331</ele><time>2026-04-08T15:42:40.999Z</time></trkpt><trkpt lat="46.19352928667562" lon="13.301183376242335"><ele>196.66666666666666</ele><time>2026-04-08T15:42:41.999Z</time></trkpt><trkpt lat="46.19368034468838" lon="13.301043775996597"><ele>199.0</ele><time>2026-04-08T15:42:42.999Z</time></trkpt><trkpt lat="46.193809482804454" lon="13.30087404315039"><ele>199.0</ele><time>2026-04-08T15:42:43.999Z</time></trkpt><trkpt lat="46.19394730306031" lon="13.300724360586965"><ele>199.0</ele><time>2026-04-08T15:42:44.999Z</time></trkpt><trkpt lat="46.19408118742929" lon="13.300570745141172"><ele>199.0</ele><time>2026-04-08T15:42:45.999Z</time></trkpt><trkpt lat="46.194208868011096" lon="13.300404580455215"><ele>198.66666666666666</ele><time>2026-04-08T15:42:46.999Z</time></trkpt><trkpt lat="46.194324459816386" lon="13.300220148625549"><ele>198.33333333333331</ele><time>2026-04-08T15:42:47.999Z</time></trkpt><trkpt lat="46.194429769112766" lon="13.300023258949048"><ele>198.0</ele><time>2026-04-08T15:42:48.999Z</time></trkpt><trkpt lat="46.19452214017616" lon="13.299825078205107"><ele>200.66666666666669</ele><time>2026-04-08T15:42:49.999Z</time></trkpt><trkpt lat="46.19461111742547" lon="13.299620531298151"><ele>203.33333333333334</ele><time>2026-04-08T15:42:50.999Z</time></trkpt><trkpt lat="46.19471490120786" lon="13.29942340347998"><ele>206.0</ele><time>2026-04-08T15:42:51.999Z</time></trkpt><trkpt lat="46.19479492483738" lon="13.29919773823351"><ele>205.66666666666669</ele><time>2026-04-08T15:42:52.999Z</time></trkpt><trkpt lat="46.194892967502305" lon="13.29897859536099"><ele>205.33333333333331</ele><time>2026-04-08T15:42:53.999Z</time></trkpt><trkpt lat="46.194985699508564" lon="13.29876319279035"><ele>205.0</ele><time>2026-04-08T15:42:54.999Z</time></trkpt><trkpt lat="46.19507382264281" lon="13.298553108945981"><ele>205.0</ele><time>2026-04-08T15:42:55.999Z</time></trkpt><trkpt lat="46.195162272999916" lon="13.298342386237573"><ele>205.0</ele><time>2026-04-08T15:42:57Z</time></trkpt><trkpt lat="46.195253945845444" lon="13.298129021420005"><ele>205.0</ele><time>2026-04-08T15:42:58Z</time></trkpt><trkpt lat="46.19534421022457" lon="13.297909871274472"><ele>204.33333333333331</ele><time>2026-04-08T15:42:59Z</time></trkpt><trkpt lat="46.19543162697709" lon="13.297699806807643"><ele>203.66666666666669</ele><time>2026-04-08T15:43:00Z</time></trkpt><trkpt lat="46.19551712620937" lon="13.297494368768595"><ele>203.0</ele><time>2026-04-08T15:43:01Z</time></trkpt><trkpt lat="46.19559978154358" lon="13.297289003137474"><ele>203.33333333333334</ele><time>2026-04-08T15:43:02Z</time></trkpt><trkpt lat="46.19567644661998" lon="13.29707297227914"><ele>203.66666666666669</ele><time>2026-04-08T15:43:03Z</time></trkpt><trkpt lat="46.19574238768072" lon="13.296841620318256"><ele>204.0</ele><time>2026-04-08T15:43:04Z</time></trkpt><trkpt lat="46.19580155697656" lon="13.296604400539504"><ele>205.33333333333331</ele><time>2026-04-08T15:43:05Z</time></trkpt><trkpt lat="46.195838820611634" lon="13.296360540348005"><ele>206.66666666666666</ele><time>2026-04-08T15:43:06Z</time></trkpt><trkpt lat="46.195862556992296" lon="13.296126990121591"><ele>208.0</ele><time>2026-04-08T15:43:07Z</time></trkpt><trkpt lat="46.19587242061701" lon="13.295898696137074"><ele>208.0</ele><time>2026-04-08T15:43:08Z</time></trkpt><trkpt lat="46.19586927509497" lon="13.29568238361685"><ele>208.0</ele><time>2026-04-08T15:43:09Z</time></trkpt><trkpt lat="46.19586494974633" lon="13.295472981230562"><ele>208.0</ele><time>2026-04-08T15:43:10Z</time></trkpt><trkpt lat="46.19586275799073" lon="13.29529023626684"><ele>208.0</ele><time>2026-04-08T15:43:11Z</time></trkpt><trkpt lat="46.19587126752268" lon="13.295131883517428"><ele>208.60000000000002</ele><time>2026-04-08T15:43:12Z</time></trkpt><trkpt lat="46.195898514765275" lon="13.294977861385329"><ele>209.20000000000002</ele><time>2026-04-08T15:43:13Z</time></trkpt><trkpt lat="46.195944527478446" lon="13.294849488669715"><ele>209.8</ele><time>2026-04-08T15:43:14Z</time></trkpt><trkpt lat="46.19601109415153" lon="13.294739175865734"><ele>210.4</ele><time>2026-04-08T15:43:15Z</time></trkpt><trkpt lat="46.196113089520985" lon="13.294675005541587"><ele>211.0</ele><time>2026-04-08T15:43:16Z</time></trkpt><trkpt lat="46.19621333888027" lon="13.294644182557096"><ele>211.8</ele><time>2026-04-08T15:43:17Z</time></trkpt><trkpt lat="46.19631494433044" lon="13.294651096826259"><ele>212.60000000000002</ele><time>2026-04-08T15:43:17.999Z</time></trkpt><trkpt lat="46.19641274839491" lon="13.294718732922643"><ele>213.4</ele><time>2026-04-08T15:43:18.999Z</time></trkpt><trkpt lat="46.19650515052391" lon="13.294738906927266"><ele>214.2</ele><time>2026-04-08T15:43:19.999Z</time></trkpt><trkpt lat="46.196593976438145" lon="13.294709325952773"><ele>215.0</ele><time>2026-04-08T15:43:20.999Z</time></trkpt><trkpt lat="46.196663492426964" lon="13.294616359512105"><ele>215.0</ele><time>2026-04-08T15:43:21.999Z</time></trkpt><trkpt lat="46.19669304446101" lon="13.294479827442926"><ele>215.0</ele><time>2026-04-08T15:43:22.999Z</time></trkpt><trkpt lat="46.196705742812746" lon="13.294334453621524"><ele>215.0</ele><time>2026-04-08T15:43:23.999Z</time></trkpt><trkpt lat="46.19662131010225" lon="13.294215157937645"><ele>215.0</ele><time>2026-04-08T15:43:24.999Z</time></trkpt><trkpt lat="46.196530738728555" lon="13.294151727063463"><ele>215.0</ele><time>2026-04-08T15:43:25.999Z</time></trkpt><trkpt lat="46.19645158063237" lon="13.29407469515063"><ele>215.0</ele><time>2026-04-08T15:43:26.999Z</time></trkpt><trkpt lat="46.196408821950065" lon="13.293965319520725"><ele>215.0</ele><time>2026-04-08T15:43:27.999Z</time></trkpt><trkpt lat="46.19640452477323" lon="13.293829927926364"><ele>215.0</ele><time>2026-04-08T15:43:28.999Z</time></trkpt><trkpt lat="46.19644358839791" lon="13.2936946399095"><ele>215.0</ele><time>2026-04-08T15:43:29.999Z</time></trkpt><trkpt lat="46.19653512023585" lon="13.29358949009155"><ele>215.0</ele><time>2026-04-08T15:43:30.999Z</time></trkpt><trkpt lat="46.19659099880712" lon="13.293448067812141"><ele>218.0</ele><time>2026-04-08T15:43:31.999Z</time></trkpt><trkpt lat="46.19663534481692" lon="13.29328802293487"><ele>221.0</ele><time>2026-04-08T15:43:32.999Z</time></trkpt><trkpt lat="46.196618810030586" lon="13.293090255752894"><ele>224.0</ele><time>2026-04-08T15:43:33.999Z</time></trkpt><trkpt lat="46.19663021965309" lon="13.292935528157832"><ele>227.0</ele><time>2026-04-08T15:43:34.999Z</time></trkpt><trkpt lat="46.196675030909354" lon="13.292800041685958"><ele>227.0</ele><time>2026-04-08T15:43:35.999Z</time></trkpt><trkpt lat="46.19676111310222" lon="13.292695304834421"><ele>227.0</ele><time>2026-04-08T15:43:36.999Z</time></trkpt><trkpt lat="46.1968730764294" lon="13.292644075087122"><ele>227.0</ele><time>2026-04-08T15:43:37.999Z</time></trkpt><trkpt lat="46.196993028798666" lon="13.292625801724382"><ele>227.0</ele><time>2026-04-08T15:43:38.999Z</time></trkpt><trkpt lat="46.197123076507225" lon="13.292619417129918"><ele>227.0</ele><time>2026-04-08T15:43:39.999Z</time></trkpt><trkpt lat="46.19726671816568" lon="13.292623127672776"><ele>227.0</ele><time>2026-04-08T15:43:40.999Z</time></trkpt><trkpt lat="46.19741764996514" lon="13.292649655775811"><ele>227.0</ele><time>2026-04-08T15:43:41.999Z</time></trkpt><trkpt lat="46.19756548344442" lon="13.29267568004817"><ele>227.0</ele><time>2026-04-08T15:43:42.999Z</time></trkpt><trkpt lat="46.19771694039013" lon="13.292689129422179"><ele>233.33333333333334</ele><time>2026-04-08T15:43:43.999Z</time></trkpt><trkpt lat="46.197883259674654" lon="13.292707020498415"><ele>239.66666666666669</ele><time>2026-04-08T15:43:44.999Z</time></trkpt><trkpt lat="46.19802542203906" lon="13.292743081260628"><ele>246.0</ele><time>2026-04-08T15:43:45.999Z</time></trkpt><trkpt lat="46.19815961277553" lon="13.292814448906894"><ele>249.20000000000002</ele><time>2026-04-08T15:43:46.999Z</time></trkpt><trkpt lat="46.198269268068884" lon="13.292903966184742"><ele>252.40000000000003</ele><time>2026-04-08T15:43:47.999Z</time></trkpt><trkpt lat="46.198364684421" lon="13.29295675932935"><ele>255.6</ele><time>2026-04-08T15:43:48.999Z</time></trkpt><trkpt lat="46.198453910150505" lon="13.292929440532568"><ele>258.8</ele><time>2026-04-08T15:43:49.999Z</time></trkpt><trkpt lat="46.198530648457" lon="13.292841508868928"><ele>262.0</ele><time>2026-04-08T15:43:50.999Z</time></trkpt><trkpt lat="46.1985841819576" lon="13.292686521382253"><ele>262.0</ele><time>2026-04-08T15:43:51.999Z</time></trkpt><trkpt lat="46.198570420416004" lon="13.292531955482499"><ele>262.0</ele><time>2026-04-08T15:43:52.999Z</time></trkpt><trkpt lat="46.198524561505415" lon="13.292395004821811"><ele>262.0</ele><time>2026-04-08T15:43:53.999Z</time></trkpt><trkpt lat="46.198442147539836" lon="13.292296534234472"><ele>262.0</ele><time>2026-04-08T15:43:54.999Z</time></trkpt><trkpt lat="46.19832720364034" lon="13.292219794057004"><ele>262.0</ele><time>2026-04-08T15:43:55.999Z</time></trkpt><trkpt lat="46.1982060788314" lon="13.292121941978227"><ele>258.3333333333333</ele><time>2026-04-08T15:43:56.999Z</time></trkpt><trkpt lat="46.19806393315999" lon="13.291985011513006"><ele>254.66666666666669</ele><time>2026-04-08T15:43:57.999Z</time></trkpt><trkpt lat="46.1979370104898" lon="13.29187879289254"><ele>251.0</ele><time>2026-04-08T15:43:58.999Z</time></trkpt><trkpt lat="46.19780074135563" lon="13.291750045783957"><ele>251.0</ele><time>2026-04-08T15:43:59.999Z</time></trkpt><trkpt lat="46.19767106573372" lon="13.29162971170927"><ele>251.0</ele><time>2026-04-08T15:44:00.999Z</time></trkpt><trkpt lat="46.197566967718174" lon="13.291525295712455"><ele>251.0</ele><time>2026-04-08T15:44:01.999Z</time></trkpt><trkpt lat="46.19748509225179" lon="13.291403816094856"><ele>251.0</ele><time>2026-04-08T15:44:02.999Z</time></trkpt><trkpt lat="46.197420842502204" lon="13.29124637977926"><ele>249.75</ele><time>2026-04-08T15:44:03.999Z</time></trkpt><trkpt lat="46.19737125101545" lon="13.291061659939121"><ele>248.5</ele><time>2026-04-08T15:44:04.999Z</time></trkpt><trkpt lat="46.19731194193812" lon="13.290891883566097"><ele>247.25</ele><time>2026-04-08T15:44:05.999Z</time></trkpt><trkpt lat="46.19721492559034" lon="13.29075690104204"><ele>246.0</ele><time>2026-04-08T15:44:06.999Z</time></trkpt><trkpt lat="46.197107536678956" lon="13.290645044861735"><ele>248.4</ele><time>2026-04-08T15:44:07.999Z</time></trkpt><trkpt lat="46.1970115131386" lon="13.290554031322705"><ele>250.8</ele><time>2026-04-08T15:44:08.999Z</time></trkpt><trkpt lat="46.19692867004559" lon="13.290453024383355"><ele>253.20000000000002</ele><time>2026-04-08T15:44:09.999Z</time></trkpt><trkpt lat="46.19687510406269" lon="13.290331096650956"><ele>255.60000000000002</ele><time>2026-04-08T15:44:10.999Z</time></trkpt><trkpt lat="46.19684870619543" lon="13.290191868923879"><ele>258.0</ele><time>2026-04-08T15:44:11.999Z</time></trkpt><trkpt lat="46.196859794834225" lon="13.290045547633206"><ele>258.0</ele><time>2026-04-08T15:44:12.999Z</time></trkpt><trkpt lat="46.19689618444011" lon="13.289897343425023"><ele>258.0</ele><time>2026-04-08T15:44:13.999Z</time></trkpt><trkpt lat="46.19696811640567" lon="13.28975577057161"><ele>258.0</ele><time>2026-04-08T15:44:14.999Z</time></trkpt><trkpt lat="46.197053625936704" lon="13.289620801204075"><ele>258.0</ele><time>2026-04-08T15:44:15.999Z</time></trkpt><trkpt lat="46.197137995596016" lon="13.289489364023861"><ele>261.0</ele><time>2026-04-08T15:44:16.999Z</time></trkpt><trkpt lat="46.19723348180812" lon="13.28935707009188"><ele>264.0</ele><time>2026-04-08T15:44:17.999Z</time></trkpt><trkpt lat="46.19733295595694" lon="13.289218432643287"><ele>267.0</ele><time>2026-04-08T15:44:18.999Z</time></trkpt><trkpt lat="46.19742121988782" lon="13.289091295130216"><ele>270.0</ele><time>2026-04-08T15:44:19.999Z</time></trkpt><trkpt lat="46.1975134650437" lon="13.288984658346486"><ele>270.0</ele><time>2026-04-08T15:44:20.999Z</time></trkpt><trkpt lat="46.19763302802089" lon="13.288920916809193"><ele>270.0</ele><time>2026-04-08T15:44:21.999Z</time></trkpt><trkpt lat="46.19776355252982" lon="13.28893136518584"><ele>270.0</ele><time>2026-04-08T15:44:22.999Z</time></trkpt><trkpt lat="46.197898371166474" lon="13.288948047985869"><ele>270.0</ele><time>2026-04-08T15:44:23.999Z</time></trkpt><trkpt lat="46.19802601948492" lon="13.288969419642662"><ele>270.0</ele><time>2026-04-08T15:44:24.999Z</time></trkpt><trkpt lat="46.198144595752765" lon="13.28899043469283"><ele>270.0</ele><time>2026-04-08T15:44:25.999Z</time></trkpt><trkpt lat="46.198249257158295" lon="13.28901517313373"><ele>270.0</ele><time>2026-04-08T15:44:26.999Z</time></trkpt><trkpt lat="46.198347562346584" lon="13.289055257023028"><ele>270.0</ele><time>2026-04-08T15:44:27.999Z</time></trkpt><trkpt lat="46.198413281467495" lon="13.289168009560324"><ele>270.0</ele><time>2026-04-08T15:44:28.999Z</time></trkpt><trkpt lat="46.198442628689826" lon="13.289300509072206"><ele>271.0</ele><time>2026-04-08T15:44:29.999Z</time></trkpt><trkpt lat="46.19844405200818" lon="13.28943555945385"><ele>272.0</ele><time>2026-04-08T15:44:30.999Z</time></trkpt><trkpt lat="46.19847313223796" lon="13.289570672999085"><ele>273.0</ele><time>2026-04-08T15:44:31.999Z</time></trkpt><trkpt lat="46.19851661726039" lon="13.289699568416255"><ele>274.0</ele><time>2026-04-08T15:44:32.999Z</time></trkpt><trkpt lat="46.198605295196316" lon="13.289775686832009"><ele>275.0</ele><time>2026-04-08T15:44:33.999Z</time></trkpt><trkpt lat="46.198716199526366" lon="13.289789716369643"><ele>271.0</ele><time>2026-04-08T15:44:34.999Z</time></trkpt><trkpt lat="46.1988270193019" lon="13.289740349804289"><ele>267.0</ele><time>2026-04-08T15:44:35.999Z</time></trkpt><trkpt lat="46.19890253445046" lon="13.289599161462446"><ele>263.0</ele><time>2026-04-08T15:44:36.999Z</time></trkpt><trkpt lat="46.19897014148543" lon="13.289465115282637"><ele>259.0</ele><time>2026-04-08T15:44:37.999Z</time></trkpt><trkpt lat="46.199059891595596" lon="13.289342525941501"><ele>256.75</ele><time>2026-04-08T15:44:38.999Z</time></trkpt><trkpt lat="46.19913197442389" lon="13.28918242319764"><ele>254.5</ele><time>2026-04-08T15:44:39.999Z</time></trkpt><trkpt lat="46.199212391273235" lon="13.289019029718737"><ele>252.25</ele><time>2026-04-08T15:44:40.999Z</time></trkpt><trkpt lat="46.19927904024624" lon="13.288853264822253"><ele>250.0</ele><time>2026-04-08T15:44:41.999Z</time></trkpt><trkpt lat="46.199346884177274" lon="13.288707105083361"><ele>246.5</ele><time>2026-04-08T15:44:42.999Z</time></trkpt><trkpt lat="46.19944602101023" lon="13.288610760367117"><ele>243.0</ele><time>2026-04-08T15:44:43.999Z</time></trkpt><trkpt lat="46.199548439583936" lon="13.28850965059582"><ele>239.5</ele><time>2026-04-08T15:44:44.999Z</time></trkpt><trkpt lat="46.19966765637704" lon="13.288495210963868"><ele>236.0</ele><time>2026-04-08T15:44:45.999Z</time></trkpt><trkpt lat="46.199786297361555" lon="13.288489183865408"><ele>235.5</ele><time>2026-04-08T15:44:46.999Z</time></trkpt><trkpt lat="46.19991026909816" lon="13.288465341535288"><ele>235.0</ele><time>2026-04-08T15:44:47.999Z</time></trkpt><trkpt lat="46.20004345477929" lon="13.288425069218217"><ele>234.5</ele><time>2026-04-08T15:44:48.999Z</time></trkpt><trkpt lat="46.20018401268972" lon="13.28834554349322"><ele>234.0</ele><time>2026-04-08T15:44:49.999Z</time></trkpt><trkpt lat="46.20030875747932" lon="13.288234987356207"><ele>234.0</ele><time>2026-04-08T15:44:50.999Z</time></trkpt><trkpt lat="46.20041801298202" lon="13.288093972061978"><ele>234.0</ele><time>2026-04-08T15:44:51.999Z</time></trkpt><trkpt lat="46.20051211953904" lon="13.287923337462644"><ele>234.0</ele><time>2026-04-08T15:44:52.999Z</time></trkpt><trkpt lat="46.2005946618286" lon="13.28773676550875"><ele>230.0</ele><time>2026-04-08T15:44:53.999Z</time></trkpt><trkpt lat="46.200681710750025" lon="13.287528122058697"><ele>226.0</ele><time>2026-04-08T15:44:54.999Z</time></trkpt><trkpt lat="46.200775975740704" lon="13.28731169198781"><ele>222.0</ele><time>2026-04-08T15:44:55.999Z</time></trkpt><trkpt lat="46.20089097634537" lon="13.287075713610962"><ele>220.33333333333331</ele><time>2026-04-08T15:44:56.999Z</time></trkpt><trkpt lat="46.201000043497054" lon="13.28683571263274"><ele>218.66666666666666</ele><time>2026-04-08T15:44:57.999Z</time></trkpt><trkpt lat="46.20109742855463" lon="13.286609817550788"><ele>217.0</ele><time>2026-04-08T15:44:58.999Z</time></trkpt><trkpt lat="46.20118808560836" lon="13.286394076506388"><ele>216.75</ele><time>2026-04-08T15:44:59.999Z</time></trkpt><trkpt lat="46.201271129217545" lon="13.286202211820969"><ele>216.5</ele><time>2026-04-08T15:45:00.999Z</time></trkpt><trkpt lat="46.20134154936811" lon="13.286032710959267"><ele>216.25</ele><time>2026-04-08T15:45:01.999Z</time></trkpt><trkpt lat="46.201381798355875" lon="13.285860363336273"><ele>216.0</ele><time>2026-04-08T15:45:03Z</time></trkpt><trkpt lat="46.201394815728214" lon="13.285666660710651"><ele>216.33333333333331</ele><time>2026-04-08T15:45:04Z</time></trkpt><trkpt lat="46.20138163234495" lon="13.2854507782612"><ele>216.66666666666666</ele><time>2026-04-08T15:45:05Z</time></trkpt><trkpt lat="46.20135631711105" lon="13.28522279622846"><ele>217.0</ele><time>2026-04-08T15:45:06Z</time></trkpt><trkpt lat="46.20133636286215" lon="13.284989875233276"><ele>217.0</ele><time>2026-04-08T15:45:07Z</time></trkpt><trkpt lat="46.20131851033593" lon="13.284752548978869"><ele>217.0</ele><time>2026-04-08T15:45:08Z</time></trkpt><trkpt lat="46.20129730042861" lon="13.284499446251303"><ele>217.0</ele><time>2026-04-08T15:45:09Z</time></trkpt><trkpt lat="46.201275396453916" lon="13.284243310148955"><ele>217.0</ele><time>2026-04-08T15:45:10Z</time></trkpt><trkpt lat="46.201255722659376" lon="13.283987127862844"><ele>217.0</ele><time>2026-04-08T15:45:11Z</time></trkpt><trkpt lat="46.20123636002069" lon="13.283720658388205"><ele>217.0</ele><time>2026-04-08T15:45:12Z</time></trkpt><trkpt lat="46.20121342236915" lon="13.283449216455773"><ele>216.66666666666666</ele><time>2026-04-08T15:45:13Z</time></trkpt><trkpt lat="46.20119015615587" lon="13.2831719143272"><ele>216.33333333333331</ele><time>2026-04-08T15:45:14Z</time></trkpt><trkpt lat="46.20116830235618" lon="13.28289108729255"><ele>216.0</ele><time>2026-04-08T15:45:15Z</time></trkpt><trkpt lat="46.20114479510587" lon="13.282609658119037"><ele>214.33333333333331</ele><time>2026-04-08T15:45:16Z</time></trkpt><trkpt lat="46.20112336785303" lon="13.282324713292677"><ele>212.66666666666666</ele><time>2026-04-08T15:45:17Z</time></trkpt><trkpt lat="46.20110975509109" lon="13.282037362621397"><ele>211.0</ele><time>2026-04-08T15:45:18Z</time></trkpt><trkpt lat="46.20110139626035" lon="13.281749064625947"><ele>210.0</ele><time>2026-04-08T15:45:19Z</time></trkpt><trkpt lat="46.20109301722812" lon="13.281459028328884"><ele>209.0</ele><time>2026-04-08T15:45:19.999Z</time></trkpt><trkpt lat="46.20108437035095" lon="13.281166331471706"><ele>208.0</ele><time>2026-04-08T15:45:20.999Z</time></trkpt><trkpt lat="46.20107358572265" lon="13.280874319892874"><ele>208.0</ele><time>2026-04-08T15:45:21.999Z</time></trkpt><trkpt lat="46.20105619269878" lon="13.280575124703779"><ele>208.0</ele><time>2026-04-08T15:45:22.999Z</time></trkpt><trkpt lat="46.201038865671684" lon="13.280274620964418"><ele>208.0</ele><time>2026-04-08T15:45:23.999Z</time></trkpt><trkpt lat="46.20102371132002" lon="13.279984602368232"><ele>208.33333333333331</ele><time>2026-04-08T15:45:24.999Z</time></trkpt><trkpt lat="46.201007308733" lon="13.279702350885602"><ele>208.66666666666669</ele><time>2026-04-08T15:45:25.999Z</time></trkpt><trkpt lat="46.20099258319716" lon="13.279429498993292"><ele>209.0</ele><time>2026-04-08T15:45:26.999Z</time></trkpt><trkpt lat="46.20097804634341" lon="13.279150736569648"><ele>210.33333333333334</ele><time>2026-04-08T15:45:27.999Z</time></trkpt><trkpt lat="46.200963957261315" lon="13.278868123603479"><ele>211.66666666666669</ele><time>2026-04-08T15:45:28.999Z</time></trkpt><trkpt lat="46.20094831784004" lon="13.278603112157212"><ele>213.0</ele><time>2026-04-08T15:45:29.999Z</time></trkpt><trkpt lat="46.200929773987255" lon="13.278347744624096"><ele>214.0</ele><time>2026-04-08T15:45:30.999Z</time></trkpt><trkpt lat="46.20090218875195" lon="13.278093789036488"><ele>215.0</ele><time>2026-04-08T15:45:31.999Z</time></trkpt><trkpt lat="46.200861049616826" lon="13.277840984237969"><ele>216.0</ele><time>2026-04-08T15:45:32.999Z</time></trkpt><trkpt lat="46.20080885777754" lon="13.277597063698796"><ele>216.0</ele><time>2026-04-08T15:45:33.999Z</time></trkpt><trkpt lat="46.200751973698445" lon="13.277366035180215"><ele>216.0</ele><time>2026-04-08T15:45:34.999Z</time></trkpt><trkpt lat="46.20070022484845" lon="13.277144497361531"><ele>216.0</ele><time>2026-04-08T15:45:35.999Z</time></trkpt><trkpt lat="46.2006496751824" lon="13.27692100039875"><ele>214.75</ele><time>2026-04-08T15:45:36.999Z</time></trkpt><trkpt lat="46.200598336847804" lon="13.276701751510036"><ele>213.5</ele><time>2026-04-08T15:45:37.999Z</time></trkpt><trkpt lat="46.20055273793236" lon="13.276507183143506"><ele>212.25</ele><time>2026-04-08T15:45:38.999Z</time></trkpt><trkpt lat="46.200511743579625" lon="13.276333253790124"><ele>211.0</ele><time>2026-04-08T15:45:39.999Z</time></trkpt><trkpt lat="46.20047074739299" lon="13.276162888763096"><ele>211.0</ele><time>2026-04-08T15:45:40.999Z</time></trkpt><trkpt lat="46.20043734222892" lon="13.275995982971763"><ele>211.0</ele><time>2026-04-08T15:45:41.999Z</time></trkpt><trkpt lat="46.20041949814486" lon="13.275830559592638"><ele>211.0</ele><time>2026-04-08T15:45:42.999Z</time></trkpt><trkpt lat="46.20041715131599" lon="13.275663903050264"><ele>211.0</ele><time>2026-04-08T15:45:43.999Z</time></trkpt><trkpt lat="46.20043476562541" lon="13.27549968452222"><ele>211.0</ele><time>2026-04-08T15:45:44.999Z</time></trkpt><trkpt lat="46.2004560955135" lon="13.275348681470668"><ele>211.0</ele><time>2026-04-08T15:45:45.999Z</time></trkpt><trkpt lat="46.2004676246811" lon="13.275207331808005"><ele>211.0</ele><time>2026-04-08T15:45:46.999Z</time></trkpt><trkpt lat="46.2004501372552" lon="13.275061489576848"><ele>211.0</ele><time>2026-04-08T15:45:47.999Z</time></trkpt><trkpt lat="46.20040481346691" lon="13.27491541170161"><ele>211.0</ele><time>2026-04-08T15:45:48.999Z</time></trkpt><trkpt lat="46.200349477320984" lon="13.274770917920321"><ele>209.5</ele><time>2026-04-08T15:45:49.999Z</time></trkpt><trkpt lat="46.20031990194997" lon="13.274602911658008"><ele>208.0</ele><time>2026-04-08T15:45:50.999Z</time></trkpt><trkpt lat="46.20030614161993" lon="13.274411334164126"><ele>206.5</ele><time>2026-04-08T15:45:51.999Z</time></trkpt><trkpt lat="46.20030271449723" lon="13.274183221558525"><ele>205.0</ele><time>2026-04-08T15:45:52.999Z</time></trkpt><trkpt lat="46.20028638340924" lon="13.27393508993408"><ele>203.33333333333331</ele><time>2026-04-08T15:45:53.999Z</time></trkpt><trkpt lat="46.20027349227716" lon="13.273688218945946"><ele>201.66666666666669</ele><time>2026-04-08T15:45:54.999Z</time></trkpt><trkpt lat="46.2002641304253" lon="13.273432147302438"><ele>200.0</ele><time>2026-04-08T15:45:55.999Z</time></trkpt><trkpt lat="46.20024749405978" lon="13.273162845916515"><ele>199.0</ele><time>2026-04-08T15:45:56.999Z</time></trkpt><trkpt lat="46.20023197382445" lon="13.272890348146811"><ele>198.0</ele><time>2026-04-08T15:45:57.999Z</time></trkpt><trkpt lat="46.20021822277951" lon="13.272620749844238"><ele>197.0</ele><time>2026-04-08T15:45:58.999Z</time></trkpt><trkpt lat="46.20020577465602" lon="13.272359134459316"><ele>197.0</ele><time>2026-04-08T15:45:59.999Z</time></trkpt><trkpt lat="46.20019624375316" lon="13.272105939224735"><ele>197.0</ele><time>2026-04-08T15:46:00.999Z</time></trkpt><trkpt lat="46.20018460413986" lon="13.271855444449601"><ele>197.0</ele><time>2026-04-08T15:46:01.999Z</time></trkpt><trkpt lat="46.20017291402476" lon="13.27159919200104"><ele>197.66666666666669</ele><time>2026-04-08T15:46:02.999Z</time></trkpt><trkpt lat="46.20016241042984" lon="13.271350389542313"><ele>198.33333333333331</ele><time>2026-04-08T15:46:03.999Z</time></trkpt><trkpt lat="46.2001500433387" lon="13.271110597043545"><ele>199.0</ele><time>2026-04-08T15:46:04.999Z</time></trkpt><trkpt lat="46.200133715222876" lon="13.27087458260867"><ele>199.0</ele><time>2026-04-08T15:46:05.999Z</time></trkpt><trkpt lat="46.200107755898856" lon="13.270643457102127"><ele>199.0</ele><time>2026-04-08T15:46:06.999Z</time></trkpt><trkpt lat="46.20007661122964" lon="13.270402793961463"><ele>199.0</ele><time>2026-04-08T15:46:07.999Z</time></trkpt><trkpt lat="46.20004881968637" lon="13.27017147967534"><ele>199.66666666666666</ele><time>2026-04-08T15:46:08.999Z</time></trkpt><trkpt lat="46.20002147427381" lon="13.26994253847034"><ele>200.33333333333331</ele><time>2026-04-08T15:46:09.999Z</time></trkpt><trkpt lat="46.20000741594491" lon="13.269724574007785"><ele>201.0</ele><time>2026-04-08T15:46:10.999Z</time></trkpt><trkpt lat="46.20000263581175" lon="13.26951041202985"><ele>202.0</ele><time>2026-04-08T15:46:11.999Z</time></trkpt><trkpt lat="46.20000363296077" lon="13.269299762863655"><ele>203.0</ele><time>2026-04-08T15:46:12.999Z</time></trkpt><trkpt lat="46.20001592276634" lon="13.269089182909456"><ele>204.0</ele><time>2026-04-08T15:46:13.999Z</time></trkpt><trkpt lat="46.20003182968558" lon="13.26888756278935"><ele>205.0</ele><time>2026-04-08T15:46:14.999Z</time></trkpt><trkpt lat="46.20004050130717" lon="13.268689398925043"><ele>205.75</ele><time>2026-04-08T15:46:15.999Z</time></trkpt><trkpt lat="46.20004425651396" lon="13.268479098369086"><ele>206.5</ele><time>2026-04-08T15:46:16.999Z</time></trkpt><trkpt lat="46.20004135495905" lon="13.268268045715192"><ele>207.25</ele><time>2026-04-08T15:46:17.999Z</time></trkpt><trkpt lat="46.20003275561604" lon="13.268060824770954"><ele>208.0</ele><time>2026-04-08T15:46:18.999Z</time></trkpt><trkpt lat="46.20002308947465" lon="13.267852464280386"><ele>208.25</ele><time>2026-04-08T15:46:19.999Z</time></trkpt><trkpt lat="46.200017520117306" lon="13.267640827212183"><ele>208.5</ele><time>2026-04-08T15:46:20.999Z</time></trkpt><trkpt lat="46.20001907388726" lon="13.267427063637848"><ele>208.75</ele><time>2026-04-08T15:46:21.999Z</time></trkpt><trkpt lat="46.2000246991307" lon="13.267218144693567"><ele>209.0</ele><time>2026-04-08T15:46:22.999Z</time></trkpt><trkpt lat="46.2000351063027" lon="13.267014350943148"><ele>209.0</ele><time>2026-04-08T15:46:23.999Z</time></trkpt><trkpt lat="46.2000541092193" lon="13.266812715638679"><ele>209.0</ele><time>2026-04-08T15:46:24.999Z</time></trkpt><trkpt lat="46.20008420764872" lon="13.266618017266778"><ele>209.0</ele><time>2026-04-08T15:46:25.999Z</time></trkpt><trkpt lat="46.20011802528193" lon="13.266433794569185"><ele>209.0</ele><time>2026-04-08T15:46:26.999Z</time></trkpt><trkpt lat="46.20014730468457" lon="13.266259135048337"><ele>209.0</ele><time>2026-04-08T15:46:27.999Z</time></trkpt><trkpt lat="46.200176065402765" lon="13.266083582527427"><ele>209.0</ele><time>2026-04-08T15:46:28.999Z</time></trkpt><trkpt lat="46.20020770503319" lon="13.265915367259963"><ele>209.0</ele><time>2026-04-08T15:46:29.999Z</time></trkpt><trkpt lat="46.20023995036772" lon="13.265756421585829"><ele>209.0</ele><time>2026-04-08T15:46:30.999Z</time></trkpt><trkpt lat="46.20026881185627" lon="13.265615473636311"><ele>208.79999999999998</ele><time>2026-04-08T15:46:31.999Z</time></trkpt><trkpt lat="46.200305215626194" lon="13.265491242660563"><ele>208.6</ele><time>2026-04-08T15:46:32.999Z</time></trkpt><trkpt lat="46.20035762402317" lon="13.265370467294577"><ele>208.4</ele><time>2026-04-08T15:46:33.999Z</time></trkpt><trkpt lat="46.20041396570464" lon="13.26523548652126"><ele>208.2</ele><time>2026-04-08T15:46:34.999Z</time></trkpt><trkpt lat="46.20046790237674" lon="13.265106004716277"><ele>208.0</ele><time>2026-04-08T15:46:35.999Z</time></trkpt><trkpt lat="46.20052326500052" lon="13.264999590216759"><ele>207.99999999999997</ele><time>2026-04-08T15:46:36.999Z</time></trkpt><trkpt lat="46.20057784412092" lon="13.264896472514124"><ele>208.0</ele><time>2026-04-08T15:46:37.999Z</time></trkpt><trkpt lat="46.200624649266146" lon="13.264773214581707"><ele>208.0</ele><time>2026-04-08T15:46:38.999Z</time></trkpt><trkpt lat="46.2006815877185" lon="13.26465833042394"><ele>208.0</ele><time>2026-04-08T15:46:39.999Z</time></trkpt><trkpt lat="46.20073105348973" lon="13.264560119534558"><ele>207.99999999999997</ele><time>2026-04-08T15:46:40.999Z</time></trkpt><trkpt lat="46.20077054231658" lon="13.26447548847537"><ele>208.0</ele><time>2026-04-08T15:46:41.999Z</time></trkpt><trkpt lat="46.200806532247405" lon="13.2643993380165"><ele>208.4</ele><time>2026-04-08T15:46:42.999Z</time></trkpt><trkpt lat="46.20088090151159" lon="13.264279681995177"><ele>208.8</ele><time>2026-04-08T15:46:44.999Z</time></trkpt><trkpt lat="46.200951213411386" lon="13.264206265557497"><ele>209.2</ele><time>2026-04-08T15:46:46.999Z</time></trkpt><trkpt lat="46.20103378123298" lon="13.264161935774943"><ele>209.6</ele><time>2026-04-08T15:46:48.999Z</time></trkpt><trkpt lat="46.20114134707465" lon="13.264122490950038"><ele>210.0</ele><time>2026-04-08T15:46:50.999Z</time></trkpt><trkpt lat="46.2012656838301" lon="13.264109427008968"><ele>210.0</ele><time>2026-04-08T15:46:52.999Z</time></trkpt><trkpt lat="46.201344136255535" lon="13.264123996354531"><ele>210.0</ele><time>2026-04-08T15:46:54.999Z</time></trkpt><trkpt lat="46.201430341283256" lon="13.264112126424344"><ele>210.0</ele><time>2026-04-08T15:46:56.999Z</time></trkpt><trkpt lat="46.20149985058664" lon="13.26412076259624"><ele>210.0</ele><time>2026-04-08T15:46:57.999Z</time></trkpt><trkpt lat="46.201593249917785" lon="13.264119478265297"><ele>210.0</ele><time>2026-04-08T15:46:58.999Z</time></trkpt><trkpt lat="46.20172069767755" lon="13.264117197089469"><ele>210.66666666666669</ele><time>2026-04-08T15:46:59.999Z</time></trkpt><trkpt lat="46.20187584733495" lon="13.264114331386704"><ele>211.33333333333334</ele><time>2026-04-08T15:47:00.999Z</time></trkpt><trkpt lat="46.2020442399387" lon="13.264096665103972"><ele>212.0</ele><time>2026-04-08T15:47:01.999Z</time></trkpt><trkpt lat="46.20217647823647" lon="13.264092997133526"><ele>212.0</ele><time>2026-04-08T15:47:02.999Z</time></trkpt><trkpt lat="46.2022830156297" lon="13.264089885880402"><ele>212.0</ele><time>2026-04-08T15:47:03.999Z</time></trkpt><trkpt lat="46.2023769947301" lon="13.264097578572304"><ele>212.0</ele><time>2026-04-08T15:47:04.999Z</time></trkpt><trkpt lat="46.202481430815" lon="13.264131664214586"><ele>212.0</ele><time>2026-04-08T15:47:05.999Z</time></trkpt><trkpt lat="46.202586230552214" lon="13.26417892070591"><ele>212.0</ele><time>2026-04-08T15:47:06.999Z</time></trkpt><trkpt lat="46.202690522937175" lon="13.264245848127024"><ele>212.39999999999998</ele><time>2026-04-08T15:47:07.999Z</time></trkpt><trkpt lat="46.20277623967266" lon="13.264308951205024"><ele>212.79999999999998</ele><time>2026-04-08T15:47:08.999Z</time></trkpt><trkpt lat="46.20285367657619" lon="13.264382824420691"><ele>213.2</ele><time>2026-04-08T15:47:10Z</time></trkpt><trkpt lat="46.202923265370536" lon="13.264472635196443"><ele>213.6</ele><time>2026-04-08T15:47:10.999Z</time></trkpt><trkpt lat="46.20297287665156" lon="13.26458759910776"><ele>214.0</ele><time>2026-04-08T15:47:11.999Z</time></trkpt><trkpt lat="46.20299971823725" lon="13.26472030926261"><ele>213.79999999999998</ele><time>2026-04-08T15:47:13Z</time></trkpt><trkpt lat="46.20302768017461" lon="13.264849517505853"><ele>213.59999999999997</ele><time>2026-04-08T15:47:13.999Z</time></trkpt><trkpt lat="46.20305999719504" lon="13.264977811260962"><ele>213.4</ele><time>2026-04-08T15:47:14.999Z</time></trkpt><trkpt lat="46.203146195661745" lon="13.265044820917257"><ele>213.2</ele><time>2026-04-08T15:47:16Z</time></trkpt><trkpt lat="46.203240601869325" lon="13.265095758787172"><ele>213.0</ele><time>2026-04-08T15:47:16.999Z</time></trkpt><trkpt lat="46.20335740809318" lon="13.265123003774667"><ele>213.0</ele><time>2026-04-08T15:47:17.999Z</time></trkpt><trkpt lat="46.2034745126894" lon="13.265138196573789"><ele>213.0</ele><time>2026-04-08T15:47:19Z</time></trkpt><trkpt lat="46.20358516918493" lon="13.265155902591637"><ele>213.0</ele><time>2026-04-08T15:47:19.999Z</time></trkpt><trkpt lat="46.20369769454764" lon="13.265180466740746"><ele>213.0</ele><time>2026-04-08T15:47:20.999Z</time></trkpt><trkpt lat="46.20381903044502" lon="13.265203095722814"><ele>213.0</ele><time>2026-04-08T15:47:22Z</time></trkpt><trkpt lat="46.203946439301355" lon="13.26522855191976"><ele>213.0</ele><time>2026-04-08T15:47:22.999Z</time></trkpt><trkpt lat="46.204082105572446" lon="13.265267338402616"><ele>213.0</ele><time>2026-04-08T15:47:23.999Z</time></trkpt><trkpt lat="46.20422296984857" lon="13.265331306634984"><ele>213.0</ele><time>2026-04-08T15:47:24.999Z</time></trkpt><trkpt lat="46.204362427453134" lon="13.265400305883135"><ele>213.25</ele><time>2026-04-08T15:47:25.999Z</time></trkpt><trkpt lat="46.20449098725117" lon="13.265462022618763"><ele>213.5</ele><time>2026-04-08T15:47:26.999Z</time></trkpt><trkpt lat="46.20462729245538" lon="13.265521350700897"><ele>213.75</ele><time>2026-04-08T15:47:28Z</time></trkpt><trkpt lat="46.204760921660494" lon="13.265581150143074"><ele>214.0</ele><time>2026-04-08T15:47:29Z</time></trkpt><trkpt lat="46.204870825635744" lon="13.265626965193015"><ele>214.0</ele><time>2026-04-08T15:47:30Z</time></trkpt><trkpt lat="46.20497532302708" lon="13.265698713259814"><ele>214.0</ele><time>2026-04-08T15:47:31Z</time></trkpt><trkpt lat="46.20509051674654" lon="13.265750784090477"><ele>214.0</ele><time>2026-04-08T15:47:32Z</time></trkpt><trkpt lat="46.20520088396067" lon="13.26579919658573"><ele>214.0</ele><time>2026-04-08T15:47:33Z</time></trkpt><trkpt lat="46.20530982824877" lon="13.26584665874724"><ele>214.0</ele><time>2026-04-08T15:47:34Z</time></trkpt><trkpt lat="46.20541507614272" lon="13.26589251054442"><ele>214.0</ele><time>2026-04-08T15:47:35Z</time></trkpt><trkpt lat="46.205518784913004" lon="13.265939151939207"><ele>214.0</ele><time>2026-04-08T15:47:36Z</time></trkpt><trkpt lat="46.20562961862481" lon="13.265989772117775"><ele>214.0</ele><time>2026-04-08T15:47:37Z</time></trkpt><trkpt lat="46.20575607694886" lon="13.266025291737101"><ele>214.25</ele><time>2026-04-08T15:47:38Z</time></trkpt><trkpt lat="46.20588124407424" lon="13.266073702512797"><ele>214.5</ele><time>2026-04-08T15:47:39Z</time></trkpt><trkpt lat="46.205995575873146" lon="13.266120697708283"><ele>214.75</ele><time>2026-04-08T15:47:40Z</time></trkpt><trkpt lat="46.20610536300922" lon="13.266153095929639"><ele>215.0</ele><time>2026-04-08T15:47:41Z</time></trkpt><trkpt lat="46.206214699691095" lon="13.266196776325625"><ele>215.0</ele><time>2026-04-08T15:47:42Z</time></trkpt><trkpt lat="46.206332885918" lon="13.266224284958895"><ele>215.0</ele><time>2026-04-08T15:47:43Z</time></trkpt><trkpt lat="46.20644523880451" lon="13.26627556126788"><ele>215.0</ele><time>2026-04-08T15:47:44Z</time></trkpt><trkpt lat="46.206552982003366" lon="13.26633092437893"><ele>215.0</ele><time>2026-04-08T15:47:45Z</time></trkpt><trkpt lat="46.20665097169801" lon="13.266401066770028"><ele>216.0</ele><time>2026-04-08T15:47:46Z</time></trkpt><trkpt lat="46.20674208963827" lon="13.266473590222892"><ele>217.0</ele><time>2026-04-08T15:47:47Z</time></trkpt><trkpt lat="46.20684393704952" lon="13.26655146714947"><ele>218.0</ele><time>2026-04-08T15:47:48Z</time></trkpt><trkpt lat="46.20695622341251" lon="13.266615914414722"><ele>219.0</ele><time>2026-04-08T15:47:49Z</time></trkpt><trkpt lat="46.207068207129396" lon="13.26665818622001"><ele>219.0</ele><time>2026-04-08T15:47:50Z</time></trkpt><trkpt lat="46.20717249330056" lon="13.266684619322982"><ele>218.99999999999997</ele><time>2026-04-08T15:47:51Z</time></trkpt><trkpt lat="46.20727140123332" lon="13.266708097420391"><ele>218.99999999999997</ele><time>2026-04-08T15:47:52Z</time></trkpt><trkpt lat="46.207387550376055" lon="13.266734559561444"><ele>219.0</ele><time>2026-04-08T15:47:53Z</time></trkpt><trkpt lat="46.20750416615935" lon="13.266738273726514"><ele>219.0</ele><time>2026-04-08T15:47:54Z</time></trkpt><trkpt lat="46.207625118903245" lon="13.266707920674712"><ele>219.0</ele><time>2026-04-08T15:47:55Z</time></trkpt><trkpt lat="46.20775324878088" lon="13.266679403219987"><ele>219.0</ele><time>2026-04-08T15:47:56Z</time></trkpt><trkpt lat="46.20787562238225" lon="13.266662595509862"><ele>219.0</ele><time>2026-04-08T15:47:57Z</time></trkpt><trkpt lat="46.20799292382284" lon="13.266639846913982"><ele>219.0</ele><time>2026-04-08T15:47:58Z</time></trkpt><trkpt lat="46.208108579845444" lon="13.266632659554018"><ele>219.5</ele><time>2026-04-08T15:47:59Z</time></trkpt><trkpt lat="46.208235872851745" lon="13.266653207564927"><ele>220.0</ele><time>2026-04-08T15:48:00Z</time></trkpt><trkpt lat="46.20837488852351" lon="13.26665983102788"><ele>220.5</ele><time>2026-04-08T15:48:01Z</time></trkpt><trkpt lat="46.20851145022681" lon="13.266679845693627"><ele>221.0</ele><time>2026-04-08T15:48:02Z</time></trkpt><trkpt lat="46.208636717137985" lon="13.26669472949797"><ele>221.0</ele><time>2026-04-08T15:48:03Z</time></trkpt><trkpt lat="46.208762619517856" lon="13.266707717319587"><ele>221.0</ele><time>2026-04-08T15:48:04Z</time></trkpt><trkpt lat="46.20889875946319" lon="13.266727447067913"><ele>221.0</ele><time>2026-04-08T15:48:05Z</time></trkpt><trkpt lat="46.20903038628037" lon="13.26675170718118"><ele>221.0</ele><time>2026-04-08T15:48:06Z</time></trkpt><trkpt lat="46.20915681538847" lon="13.26677137523414"><ele>221.25</ele><time>2026-04-08T15:48:07Z</time></trkpt><trkpt lat="46.20929173934247" lon="13.266793844232907"><ele>221.5</ele><time>2026-04-08T15:48:08Z</time></trkpt><trkpt lat="46.209420527956475" lon="13.266815557910762"><ele>221.75</ele><time>2026-04-08T15:48:09Z</time></trkpt><trkpt lat="46.20955372081522" lon="13.266835075619976"><ele>222.0</ele><time>2026-04-08T15:48:10Z</time></trkpt><trkpt lat="46.20969093028998" lon="13.266851887101875"><ele>222.66666666666669</ele><time>2026-04-08T15:48:11Z</time></trkpt><trkpt lat="46.209835290484506" lon="13.266873645506568"><ele>223.33333333333334</ele><time>2026-04-08T15:48:12Z</time></trkpt><trkpt lat="46.209992799130376" lon="13.26689460600072"><ele>224.0</ele><time>2026-04-08T15:48:13Z</time></trkpt><trkpt lat="46.21015804008783" lon="13.266914811989297"><ele>224.0</ele><time>2026-04-08T15:48:14Z</time></trkpt><trkpt lat="46.21032013664406" lon="13.266938682441072"><ele>224.0</ele><time>2026-04-08T15:48:15Z</time></trkpt><trkpt lat="46.21046499391549" lon="13.266957562554708"><ele>224.0</ele><time>2026-04-08T15:48:16Z</time></trkpt><trkpt lat="46.21060061191038" lon="13.266977791593348"><ele>224.0</ele><time>2026-04-08T15:48:17Z</time></trkpt><trkpt lat="46.21073029895489" lon="13.267001676924856"><ele>224.25</ele><time>2026-04-08T15:48:18Z</time></trkpt><trkpt lat="46.210856099548735" lon="13.26703244754074"><ele>224.5</ele><time>2026-04-08T15:48:19Z</time></trkpt><trkpt lat="46.210980874067566" lon="13.26707487333087"><ele>224.75</ele><time>2026-04-08T15:48:20Z</time></trkpt><trkpt lat="46.21110086499545" lon="13.26713413066569"><ele>225.0</ele><time>2026-04-08T15:48:21Z</time></trkpt><trkpt lat="46.21121966418994" lon="13.267194203599795"><ele>225.0</ele><time>2026-04-08T15:48:22Z</time></trkpt><trkpt lat="46.21133878929737" lon="13.26726744615628"><ele>225.0</ele><time>2026-04-08T15:48:23Z</time></trkpt><trkpt lat="46.211487938635415" lon="13.267223302033665"><ele>225.0</ele><time>2026-04-08T15:48:24Z</time></trkpt><trkpt lat="46.21162364131676" lon="13.267190281298177"><ele>225.0</ele><time>2026-04-08T15:48:25Z</time></trkpt><trkpt lat="46.21175068080028" lon="13.267155246996598"><ele>224.66666666666669</ele><time>2026-04-08T15:48:26Z</time></trkpt><trkpt lat="46.21188797271665" lon="13.267107745708978"><ele>224.33333333333334</ele><time>2026-04-08T15:48:27Z</time></trkpt><trkpt lat="46.21204372454797" lon="13.267052396172115"><ele>224.0</ele><time>2026-04-08T15:48:28Z</time></trkpt><trkpt lat="46.21220297022476" lon="13.266978972799611"><ele>225.0</ele><time>2026-04-08T15:48:29Z</time></trkpt><trkpt lat="46.212370230245746" lon="13.26688862276504"><ele>226.0</ele><time>2026-04-08T15:48:30Z</time></trkpt><trkpt lat="46.212554147368955" lon="13.266792104942205"><ele>227.0</ele><time>2026-04-08T15:48:31Z</time></trkpt><trkpt lat="46.21273305558458" lon="13.266698552709979"><ele>227.0</ele><time>2026-04-08T15:48:32Z</time></trkpt><trkpt lat="46.212900109599666" lon="13.266608841434492"><ele>227.0</ele><time>2026-04-08T15:48:33Z</time></trkpt><trkpt lat="46.21307396538226" lon="13.266521651430255"><ele>227.0</ele><time>2026-04-08T15:48:34Z</time></trkpt><trkpt lat="46.21326266364429" lon="13.26645481559973"><ele>229.33333333333334</ele><time>2026-04-08T15:48:35Z</time></trkpt><trkpt lat="46.21346209070332" lon="13.266414309976534"><ele>231.66666666666669</ele><time>2026-04-08T15:48:36Z</time></trkpt><trkpt lat="46.21365351636786" lon="13.266398003378107"><ele>234.0</ele><time>2026-04-08T15:48:37Z</time></trkpt><trkpt lat="46.21384021182605" lon="13.26638735196707"><ele>234.66666666666669</ele><time>2026-04-08T15:48:38Z</time></trkpt><trkpt lat="46.21402615792567" lon="13.266378796818866"><ele>235.33333333333334</ele><time>2026-04-08T15:48:39Z</time></trkpt><trkpt lat="46.21423064932501" lon="13.266391426620089"><ele>236.0</ele><time>2026-04-08T15:48:40Z</time></trkpt><trkpt lat="46.21444163090914" lon="13.266431321334682"><ele>235.66666666666669</ele><time>2026-04-08T15:48:41Z</time></trkpt><trkpt lat="46.214646695552986" lon="13.2664744219214"><ele>235.33333333333331</ele><time>2026-04-08T15:48:42Z</time></trkpt><trkpt lat="46.21484411717842" lon="13.266509086214638"><ele>235.0</ele><time>2026-04-08T15:48:43Z</time></trkpt><trkpt lat="46.215038934280265" lon="13.266546751442018"><ele>235.0</ele><time>2026-04-08T15:48:44Z</time></trkpt><trkpt lat="46.21523464326076" lon="13.266589030022912"><ele>235.0</ele><time>2026-04-08T15:48:45Z</time></trkpt><trkpt lat="46.21541949456344" lon="13.266619987843127"><ele>235.0</ele><time>2026-04-08T15:48:46Z</time></trkpt><trkpt lat="46.21558829145568" lon="13.2666775545944"><ele>234.66666666666666</ele><time>2026-04-08T15:48:47Z</time></trkpt><trkpt lat="46.215767971357" lon="13.26671116531439"><ele>234.33333333333331</ele><time>2026-04-08T15:48:48Z</time></trkpt><trkpt lat="46.215929872658414" lon="13.266741165843253"><ele>234.0</ele><time>2026-04-08T15:48:49Z</time></trkpt><trkpt lat="46.21608248092999" lon="13.266769444369327"><ele>234.0</ele><time>2026-04-08T15:48:50Z</time></trkpt><trkpt lat="46.21624009213921" lon="13.266783639836257"><ele>234.0</ele><time>2026-04-08T15:48:51Z</time></trkpt><trkpt lat="46.216375781389154" lon="13.266812056253674"><ele>234.0</ele><time>2026-04-08T15:48:52Z</time></trkpt><trkpt lat="46.21651725217134" lon="13.266836976249293"><ele>234.0</ele><time>2026-04-08T15:48:53Z</time></trkpt><trkpt lat="46.216662419961295" lon="13.266867068984656"><ele>234.66666666666669</ele><time>2026-04-08T15:48:54Z</time></trkpt><trkpt lat="46.216798210824116" lon="13.26689221644508"><ele>235.33333333333334</ele><time>2026-04-08T15:48:55Z</time></trkpt><trkpt lat="46.21695447916489" lon="13.266875249176403"><ele>236.0</ele><time>2026-04-08T15:48:56Z</time></trkpt><trkpt lat="46.21712342336381" lon="13.26685237337689"><ele>236.0</ele><time>2026-04-08T15:48:57Z</time></trkpt><trkpt lat="46.217286673825164" lon="13.266837344682116"><ele>236.0</ele><time>2026-04-08T15:48:58Z</time></trkpt><trkpt lat="46.21743341943563" lon="13.266822830590979"><ele>236.0</ele><time>2026-04-08T15:48:59Z</time></trkpt><trkpt lat="46.21757027837401" lon="13.26680831819415"><ele>236.0</ele><time>2026-04-08T15:49:00Z</time></trkpt><trkpt lat="46.21771361332288" lon="13.26679572762031"><ele>237.66666666666669</ele><time>2026-04-08T15:49:01Z</time></trkpt><trkpt lat="46.21786873474001" lon="13.26680013073367"><ele>239.33333333333331</ele><time>2026-04-08T15:49:02Z</time></trkpt><trkpt lat="46.21802921528671" lon="13.26683373046018"><ele>241.0</ele><time>2026-04-08T15:49:03Z</time></trkpt><trkpt lat="46.21819043634877" lon="13.266887019942104"><ele>243.66666666666666</ele><time>2026-04-08T15:49:04Z</time></trkpt><trkpt lat="46.218336315652344" lon="13.266950871493806"><ele>246.33333333333331</ele><time>2026-04-08T15:49:05Z</time></trkpt><trkpt lat="46.218484944863924" lon="13.267029708279138"><ele>249.0</ele><time>2026-04-08T15:49:06Z</time></trkpt><trkpt lat="46.21863736303363" lon="13.267107470126907"><ele>249.0</ele><time>2026-04-08T15:49:07Z</time></trkpt><trkpt lat="46.21877807790263" lon="13.267176981746065"><ele>249.0</ele><time>2026-04-08T15:49:08Z</time></trkpt><trkpt lat="46.21889844690574" lon="13.267239404606183"><ele>249.0</ele><time>2026-04-08T15:49:09Z</time></trkpt><trkpt lat="46.219020621209204" lon="13.267299206714053"><ele>249.0</ele><time>2026-04-08T15:49:10Z</time></trkpt><trkpt lat="46.21912631475588" lon="13.267333480655427"><ele>251.0</ele><time>2026-04-08T15:49:11Z</time></trkpt><trkpt lat="46.219235499239346" lon="13.267327829463108"><ele>252.99999999999997</ele><time>2026-04-08T15:49:12Z</time></trkpt><trkpt lat="46.21933802226384" lon="13.267271402856897"><ele>254.99999999999997</ele><time>2026-04-08T15:49:13Z</time></trkpt><trkpt lat="46.219423213145824" lon="13.26718135656475"><ele>257.0</ele><time>2026-04-08T15:49:14Z</time></trkpt><trkpt lat="46.21949459850786" lon="13.267036928921739"><ele>259.0</ele><time>2026-04-08T15:49:15Z</time></trkpt><trkpt lat="46.21954357029965" lon="13.266858233155727"><ele>259.0</ele><time>2026-04-08T15:49:16Z</time></trkpt><trkpt lat="46.219560945631905" lon="13.266664620939789"><ele>259.0</ele><time>2026-04-08T15:49:17Z</time></trkpt><trkpt lat="46.21954586556305" lon="13.266456187983824"><ele>259.0</ele><time>2026-04-08T15:49:18Z</time></trkpt><trkpt lat="46.2195247981202" lon="13.266213106206422"><ele>259.3333333333333</ele><time>2026-04-08T15:49:19Z</time></trkpt><trkpt lat="46.2195127320201" lon="13.265928698452049"><ele>259.6666666666667</ele><time>2026-04-08T15:49:20Z</time></trkpt><trkpt lat="46.219494570041135" lon="13.26562168318422"><ele>260.0</ele><time>2026-04-08T15:49:21Z</time></trkpt><trkpt lat="46.219476831689995" lon="13.265344817127101"><ele>263.33333333333337</ele><time>2026-04-08T15:49:22Z</time></trkpt><trkpt lat="46.21945075289837" lon="13.265053219417705"><ele>266.6666666666667</ele><time>2026-04-08T15:49:23Z</time></trkpt><trkpt lat="46.21941313518593" lon="13.264746275327592"><ele>270.0</ele><time>2026-04-08T15:49:24Z</time></trkpt><trkpt lat="46.21937526379928" lon="13.26447081660256"><ele>271.3333333333333</ele><time>2026-04-08T15:49:25Z</time></trkpt><trkpt lat="46.21934003904979" lon="13.264211742282138"><ele>272.66666666666663</ele><time>2026-04-08T15:49:26Z</time></trkpt><trkpt lat="46.21931204753101" lon="13.26399293462848"><ele>274.0</ele><time>2026-04-08T15:49:27Z</time></trkpt><trkpt lat="46.219289200041665" lon="13.263790560497414"><ele>273.5</ele><time>2026-04-08T15:49:28Z</time></trkpt><trkpt lat="46.21921162402885" lon="13.263637263698014"><ele>273.0</ele><time>2026-04-08T15:49:29Z</time></trkpt><trkpt lat="46.21928716523431" lon="13.263432323516756"><ele>272.5</ele><time>2026-04-08T15:49:30Z</time></trkpt><trkpt lat="46.21933867705792" lon="13.263233106870606"><ele>272.0</ele><time>2026-04-08T15:49:31Z</time></trkpt><trkpt lat="46.219419768686876" lon="13.263041752130684"><ele>272.0</ele><time>2026-04-08T15:49:32Z</time></trkpt><trkpt lat="46.21948393768389" lon="13.262876323053192"><ele>272.0</ele><time>2026-04-08T15:49:33Z</time></trkpt><trkpt lat="46.21952439276024" lon="13.262692086289704"><ele>272.0</ele><time>2026-04-08T15:49:34Z</time></trkpt><trkpt lat="46.21954187937852" lon="13.262490756919227"><ele>272.0</ele><time>2026-04-08T15:49:35Z</time></trkpt><trkpt lat="46.21957375810084" lon="13.262302788877564"><ele>270.75</ele><time>2026-04-08T15:49:36Z</time></trkpt><trkpt lat="46.219593588994584" lon="13.262126492092802"><ele>269.5</ele><time>2026-04-08T15:49:37Z</time></trkpt><trkpt lat="46.219648642903245" lon="13.261975662306849"><ele>268.25</ele><time>2026-04-08T15:49:38Z</time></trkpt><trkpt lat="46.21972933452396" lon="13.26184690319682"><ele>267.0</ele><time>2026-04-08T15:49:39Z</time></trkpt><trkpt lat="46.21984183443223" lon="13.26172036189834"><ele>271.25</ele><time>2026-04-08T15:49:40Z</time></trkpt><trkpt lat="46.21995994960281" lon="13.26157451730345"><ele>275.5</ele><time>2026-04-08T15:49:41Z</time></trkpt><trkpt lat="46.22006186926171" lon="13.26143367588854"><ele>279.75</ele><time>2026-04-08T15:49:42Z</time></trkpt><trkpt lat="46.22014730382067" lon="13.261289577559031"><ele>284.0</ele><time>2026-04-08T15:49:43Z</time></trkpt><trkpt lat="46.2202054429106" lon="13.261133609758764"><ele>284.0</ele><time>2026-04-08T15:49:44Z</time></trkpt><trkpt lat="46.22024477466438" lon="13.260975389979206"><ele>284.0</ele><time>2026-04-08T15:49:45Z</time></trkpt><trkpt lat="46.220288750984956" lon="13.260804312069585"><ele>284.0</ele><time>2026-04-08T15:49:46Z</time></trkpt><trkpt lat="46.22033761303642" lon="13.260624813557332"><ele>284.0</ele><time>2026-04-08T15:49:47Z</time></trkpt><trkpt lat="46.22038737337085" lon="13.260436994100305"><ele>282.25</ele><time>2026-04-08T15:49:48Z</time></trkpt><trkpt lat="46.220437008424774" lon="13.260249752276517"><ele>280.5</ele><time>2026-04-08T15:49:49Z</time></trkpt><trkpt lat="46.220494394550926" lon="13.26006560294067"><ele>278.75</ele><time>2026-04-08T15:49:50Z</time></trkpt><trkpt lat="46.22055821899703" lon="13.259873091526627"><ele>277.0</ele><time>2026-04-08T15:49:51Z</time></trkpt><trkpt lat="46.22060206051256" lon="13.259687514877964"><ele>285.66666666666663</ele><time>2026-04-08T15:49:52Z</time></trkpt><trkpt lat="46.2206645829122" lon="13.259503680366583"><ele>294.3333333333333</ele><time>2026-04-08T15:49:53Z</time></trkpt><trkpt lat="46.22072212551454" lon="13.259293113592673"><ele>303.0</ele><time>2026-04-08T15:49:54Z</time></trkpt><trkpt lat="46.220784535698925" lon="13.25909041210566"><ele>300.25</ele><time>2026-04-08T15:49:55Z</time></trkpt><trkpt lat="46.22085279395627" lon="13.2589121453772"><ele>297.5</ele><time>2026-04-08T15:49:56Z</time></trkpt><trkpt lat="46.22092998980164" lon="13.258741348888465"><ele>294.75</ele><time>2026-04-08T15:49:57Z</time></trkpt><trkpt lat="46.22102274510453" lon="13.258571586985175"><ele>292.0</ele><time>2026-04-08T15:49:58Z</time></trkpt><trkpt lat="46.22112044544927" lon="13.258419275188212"><ele>292.0</ele><time>2026-04-08T15:49:59Z</time></trkpt><trkpt lat="46.22122181165528" lon="13.258258834743408"><ele>292.0</ele><time>2026-04-08T15:50:00Z</time></trkpt><trkpt lat="46.22132571604123" lon="13.258087600009564"><ele>292.0</ele><time>2026-04-08T15:50:01Z</time></trkpt><trkpt lat="46.22142292911714" lon="13.257925728524224"><ele>295.6</ele><time>2026-04-08T15:50:02Z</time></trkpt><trkpt lat="46.221501179667285" lon="13.257792195317318"><ele>299.2</ele><time>2026-04-08T15:50:03Z</time></trkpt><trkpt lat="46.22157662491199" lon="13.257653687303435"><ele>302.8</ele><time>2026-04-08T15:50:04Z</time></trkpt><trkpt lat="46.22163761042573" lon="13.257528677872344"><ele>306.4</ele><time>2026-04-08T15:50:05Z</time></trkpt><trkpt lat="46.221678966070705" lon="13.257415477180187"><ele>310.0</ele><time>2026-04-08T15:50:06Z</time></trkpt><trkpt lat="46.221720153813266" lon="13.257258892295207"><ele>310.0</ele><time>2026-04-08T15:50:07Z</time></trkpt><trkpt lat="46.22175616638197" lon="13.25711946576831"><ele>310.0</ele><time>2026-04-08T15:50:08Z</time></trkpt><trkpt lat="46.2217962311892" lon="13.256972959318361"><ele>310.0</ele><time>2026-04-08T15:50:09Z</time></trkpt><trkpt lat="46.221835838221864" lon="13.256831695343875"><ele>310.0</ele><time>2026-04-08T15:50:10Z</time></trkpt><trkpt lat="46.22187907466396" lon="13.256679156816947"><ele>310.0</ele><time>2026-04-08T15:50:11Z</time></trkpt><trkpt lat="46.2219402805908" lon="13.256535036940027"><ele>310.4</ele><time>2026-04-08T15:50:12Z</time></trkpt><trkpt lat="46.222024356199675" lon="13.256410936004153"><ele>310.8</ele><time>2026-04-08T15:50:13Z</time></trkpt><trkpt lat="46.22209701291974" lon="13.256302977387287"><ele>311.2</ele><time>2026-04-08T15:50:14Z</time></trkpt><trkpt lat="46.22214283413088" lon="13.256188586580183"><ele>311.6</ele><time>2026-04-08T15:50:15Z</time></trkpt><trkpt lat="46.22215265913634" lon="13.25605650701702"><ele>312.0</ele><time>2026-04-08T15:50:16Z</time></trkpt><trkpt lat="46.222123116903255" lon="13.255916774646426"><ele>312.0</ele><time>2026-04-08T15:50:17Z</time></trkpt><trkpt lat="46.222117631996184" lon="13.25575257992994"><ele>312.0</ele><time>2026-04-08T15:50:18Z</time></trkpt><trkpt lat="46.22209587960421" lon="13.255576102148206"><ele>312.0</ele><time>2026-04-08T15:50:19Z</time></trkpt><trkpt lat="46.22208047721731" lon="13.255400714987546"><ele>312.0</ele><time>2026-04-08T15:50:20Z</time></trkpt><trkpt lat="46.22206290765991" lon="13.255257789521234"><ele>313.6</ele><time>2026-04-08T15:50:21Z</time></trkpt><trkpt lat="46.22205230138145" lon="13.255131169041842"><ele>315.2</ele><time>2026-04-08T15:50:22Z</time></trkpt><trkpt lat="46.22203731217128" lon="13.25502226426414"><ele>316.8</ele><time>2026-04-08T15:50:23Z</time></trkpt><trkpt lat="46.22202924733943" lon="13.254887862125369"><ele>318.4</ele><time>2026-04-08T15:50:25Z</time></trkpt><trkpt lat="46.22219224261108" lon="13.254927193571772"><ele>320.0</ele><time>2026-04-08T15:50:28Z</time></trkpt><trkpt lat="46.22223561458235" lon="13.255064715359005"><ele>320.0</ele><time>2026-04-08T15:50:29Z</time></trkpt><trkpt lat="46.22225389389887" lon="13.25518491879615"><ele>320.0</ele><time>2026-04-08T15:50:30Z</time></trkpt><trkpt lat="46.22227694312794" lon="13.255343848186333"><ele>320.0</ele><time>2026-04-08T15:50:31Z</time></trkpt><trkpt lat="46.22230372670318" lon="13.255515826809189"><ele>320.0</ele><time>2026-04-08T15:50:32Z</time></trkpt><trkpt lat="46.22233811745945" lon="13.255707252877917"><ele>326.75</ele><time>2026-04-08T15:50:33Z</time></trkpt><trkpt lat="46.2223735814178" lon="13.255884140452448"><ele>333.5</ele><time>2026-04-08T15:50:34Z</time></trkpt><trkpt lat="46.22240940901885" lon="13.256054298560041"><ele>340.25</ele><time>2026-04-08T15:50:35Z</time></trkpt><trkpt lat="46.22241469850301" lon="13.256259198267772"><ele>347.0</ele><time>2026-04-08T15:50:36Z</time></trkpt><trkpt lat="46.22239201983641" lon="13.256494706507462"><ele>348.0</ele><time>2026-04-08T15:50:37Z</time></trkpt><trkpt lat="46.2223614622884" lon="13.256763277643593"><ele>349.0</ele><time>2026-04-08T15:50:38Z</time></trkpt><trkpt lat="46.222346564957014" lon="13.257045595353196"><ele>350.0</ele><time>2026-04-08T15:50:39Z</time></trkpt><trkpt lat="46.22234612345185" lon="13.257318276623165"><ele>351.6666666666667</ele><time>2026-04-08T15:50:40Z</time></trkpt><trkpt lat="46.222351750692866" lon="13.257585080285292"><ele>353.3333333333333</ele><time>2026-04-08T15:50:41Z</time></trkpt><trkpt lat="46.22233690766613" lon="13.257840486507478"><ele>355.0</ele><time>2026-04-08T15:50:42Z</time></trkpt><trkpt lat="46.222281020430984" lon="13.258051329176192"><ele>345.3333333333333</ele><time>2026-04-08T15:50:43Z</time></trkpt><trkpt lat="46.222238845182424" lon="13.258280537531872"><ele>335.6666666666667</ele><time>2026-04-08T15:50:44Z</time></trkpt><trkpt lat="46.22217339552775" lon="13.258496194462666"><ele>326.0</ele><time>2026-04-08T15:50:45Z</time></trkpt><trkpt lat="46.22210436725394" lon="13.258708589775274"><ele>326.0</ele><time>2026-04-08T15:50:46Z</time></trkpt><trkpt lat="46.22202763574301" lon="13.258902861451476"><ele>326.0</ele><time>2026-04-08T15:50:47Z</time></trkpt><trkpt lat="46.221940917253846" lon="13.259063718742546"><ele>326.0</ele><time>2026-04-08T15:50:48Z</time></trkpt><trkpt lat="46.221853593837956" lon="13.259195497271618"><ele>326.0</ele><time>2026-04-08T15:50:49Z</time></trkpt><trkpt lat="46.22178554159726" lon="13.259308908671233"><ele>329.20000000000005</ele><time>2026-04-08T15:50:50Z</time></trkpt><trkpt lat="46.22174423565723" lon="13.259422296222724"><ele>332.40000000000003</ele><time>2026-04-08T15:50:51Z</time></trkpt><trkpt lat="46.221731567338864" lon="13.259557576048632"><ele>335.6</ele><time>2026-04-08T15:50:52Z</time></trkpt><trkpt lat="46.22175776504252" lon="13.259721366010218"><ele>338.8</ele><time>2026-04-08T15:50:53Z</time></trkpt><trkpt lat="46.22179964186297" lon="13.259923374706442"><ele>342.0</ele><time>2026-04-08T15:50:54Z</time></trkpt><trkpt lat="46.22182582485188" lon="13.260132950081442"><ele>345.3333333333333</ele><time>2026-04-08T15:50:55Z</time></trkpt><trkpt lat="46.22182324117239" lon="13.260326071209729"><ele>348.66666666666663</ele><time>2026-04-08T15:50:56Z</time></trkpt><trkpt lat="46.221795631793015" lon="13.260551145464667"><ele>352.0</ele><time>2026-04-08T15:50:57Z</time></trkpt><trkpt lat="46.22174771396662" lon="13.260798589673401"><ele>355.0</ele><time>2026-04-08T15:50:58Z</time></trkpt><trkpt lat="46.221745236243585" lon="13.26106953312673"><ele>358.0</ele><time>2026-04-08T15:50:59Z</time></trkpt><trkpt lat="46.22178197287289" lon="13.261310797080972"><ele>361.0</ele><time>2026-04-08T15:51:00Z</time></trkpt><trkpt lat="46.22174510084988" lon="13.261514015776154"><ele>364.66666666666663</ele><time>2026-04-08T15:51:01Z</time></trkpt><trkpt lat="46.2217112234464" lon="13.261760052217106"><ele>368.3333333333333</ele><time>2026-04-08T15:51:02Z</time></trkpt><trkpt lat="46.221669352375756" lon="13.26200955740188"><ele>372.0</ele><time>2026-04-08T15:51:03Z</time></trkpt><trkpt lat="46.22164830491469" lon="13.262247024275583"><ele>373.25</ele><time>2026-04-08T15:51:04Z</time></trkpt><trkpt lat="46.22160478058533" lon="13.262475671069266"><ele>374.5</ele><time>2026-04-08T15:51:05Z</time></trkpt><trkpt lat="46.221565345024445" lon="13.262695537420472"><ele>375.75</ele><time>2026-04-08T15:51:06Z</time></trkpt><trkpt lat="46.221538737335585" lon="13.262875871187516"><ele>377.0</ele><time>2026-04-08T15:51:07Z</time></trkpt><trkpt lat="46.22151844441988" lon="13.263042250014603"><ele>376.5</ele><time>2026-04-08T15:51:08Z</time></trkpt><trkpt lat="46.22152432368977" lon="13.263237681686963"><ele>376.0</ele><time>2026-04-08T15:51:09Z</time></trkpt><trkpt lat="46.221522972453165" lon="13.26343868726105"><ele>375.5</ele><time>2026-04-08T15:51:10Z</time></trkpt><trkpt lat="46.22154373951802" lon="13.263609498390554"><ele>375.0</ele><time>2026-04-08T15:51:11Z</time></trkpt><trkpt lat="46.22153244781842" lon="13.26375759653889"><ele>375.0</ele><time>2026-04-08T15:51:12Z</time></trkpt><trkpt lat="46.22156128179613" lon="13.263903342241562"><ele>375.0</ele><time>2026-04-08T15:51:13Z</time></trkpt><trkpt lat="46.221602942407166" lon="13.264051695977784"><ele>375.0</ele><time>2026-04-08T15:51:14Z</time></trkpt><trkpt lat="46.22167721689704" lon="13.264207850443832"><ele>375.0</ele><time>2026-04-08T15:51:15Z</time></trkpt><trkpt lat="46.22173652119047" lon="13.26435094839258"><ele>376.75</ele><time>2026-04-08T15:51:15.999Z</time></trkpt><trkpt lat="46.221782028867615" lon="13.264516325340658"><ele>378.5</ele><time>2026-04-08T15:51:16.999Z</time></trkpt><trkpt lat="46.22181178614507" lon="13.264707449457173"><ele>380.25</ele><time>2026-04-08T15:51:17.999Z</time></trkpt><trkpt lat="46.22182566252994" lon="13.264939360467583"><ele>382.0</ele><time>2026-04-08T15:51:18.999Z</time></trkpt><trkpt lat="46.22183629706135" lon="13.265201490495826"><ele>381.3333333333333</ele><time>2026-04-08T15:51:20Z</time></trkpt><trkpt lat="46.22185465757127" lon="13.265503829841496"><ele>380.6666666666667</ele><time>2026-04-08T15:51:21Z</time></trkpt><trkpt lat="46.221878302987676" lon="13.265800852243494"><ele>380.0</ele><time>2026-04-08T15:51:22Z</time></trkpt><trkpt lat="46.22188881385992" lon="13.266050517185755"><ele>380.0</ele><time>2026-04-08T15:51:23Z</time></trkpt><trkpt lat="46.221890765797475" lon="13.266290480521826"><ele>380.0</ele><time>2026-04-08T15:51:24Z</time></trkpt><trkpt lat="46.22188686031442" lon="13.266549213206213"><ele>380.0</ele><time>2026-04-08T15:51:25Z</time></trkpt><trkpt lat="46.22193697327366" lon="13.26682919765157"><ele>380.33333333333337</ele><time>2026-04-08T15:51:26Z</time></trkpt><trkpt lat="46.221967115517415" lon="13.267124106559129"><ele>380.6666666666667</ele><time>2026-04-08T15:51:27Z</time></trkpt><trkpt lat="46.22199499293452" lon="13.267397226778122"><ele>381.0</ele><time>2026-04-08T15:51:28Z</time></trkpt><trkpt lat="46.22202670546163" lon="13.267667216093084"><ele>381.0</ele><time>2026-04-08T15:51:29Z</time></trkpt><trkpt lat="46.22204024697923" lon="13.267919033073374"><ele>381.0</ele><time>2026-04-08T15:51:30Z</time></trkpt><trkpt lat="46.22204042432415" lon="13.268147166369298"><ele>381.0</ele><time>2026-04-08T15:51:31Z</time></trkpt><trkpt lat="46.22204987387989" lon="13.268374463370613"><ele>375.3333333333333</ele><time>2026-04-08T15:51:32Z</time></trkpt><trkpt lat="46.22207656603554" lon="13.268598048989832"><ele>369.66666666666663</ele><time>2026-04-08T15:51:33Z</time></trkpt><trkpt lat="46.222120944434565" lon="13.26883963841009"><ele>364.0</ele><time>2026-04-08T15:51:34Z</time></trkpt><trkpt lat="46.22217905229567" lon="13.269094235277198"><ele>360.0</ele><time>2026-04-08T15:51:35Z</time></trkpt><trkpt lat="46.222239759623285" lon="13.269366498332019"><ele>356.0</ele><time>2026-04-08T15:51:36Z</time></trkpt><trkpt lat="46.222298671725895" lon="13.26965203327158"><ele>352.0</ele><time>2026-04-08T15:51:37Z</time></trkpt><trkpt lat="46.22234021355277" lon="13.269920623916226"><ele>352.0</ele><time>2026-04-08T15:51:38Z</time></trkpt><trkpt lat="46.22236856460778" lon="13.27019530128405"><ele>352.0</ele><time>2026-04-08T15:51:39Z</time></trkpt><trkpt lat="46.222397891729074" lon="13.270469873273003"><ele>352.0</ele><time>2026-04-08T15:51:40Z</time></trkpt><trkpt lat="46.222423422916144" lon="13.27070602380427"><ele>352.0</ele><time>2026-04-08T15:51:41Z</time></trkpt><trkpt lat="46.222447312054534" lon="13.270909260343485"><ele>352.0</ele><time>2026-04-08T15:51:42Z</time></trkpt><trkpt lat="46.22247677312537" lon="13.271107017503487"><ele>352.0</ele><time>2026-04-08T15:51:43Z</time></trkpt><trkpt lat="46.22251757020037" lon="13.27130772266105"><ele>352.0</ele><time>2026-04-08T15:51:44Z</time></trkpt><trkpt lat="46.22257447487862" lon="13.271505656439848"><ele>352.0</ele><time>2026-04-08T15:51:45Z</time></trkpt><trkpt lat="46.22265059040822" lon="13.271702799439764"><ele>352.0</ele><time>2026-04-08T15:51:46Z</time></trkpt><trkpt lat="46.222721731758305" lon="13.271886352294013"><ele>352.0</ele><time>2026-04-08T15:51:47Z</time></trkpt><trkpt lat="46.22279263756764" lon="13.27205877731529"><ele>352.0</ele><time>2026-04-08T15:51:48Z</time></trkpt><trkpt lat="46.22285153034314" lon="13.272240352641408"><ele>352.0</ele><time>2026-04-08T15:51:49Z</time></trkpt><trkpt lat="46.222885777926116" lon="13.272443230319817"><ele>352.0</ele><time>2026-04-08T15:51:50Z</time></trkpt><trkpt lat="46.22291367719132" lon="13.272622837895815"><ele>352.0</ele><time>2026-04-08T15:51:51Z</time></trkpt><trkpt lat="46.22294564540081" lon="13.272783634329667"><ele>352.0</ele><time>2026-04-08T15:51:52Z</time></trkpt><trkpt lat="46.22298881058014" lon="13.272929650771431"><ele>352.0</ele><time>2026-04-08T15:51:53Z</time></trkpt><trkpt lat="46.22307622816637" lon="13.273076945771397"><ele>352.0</ele><time>2026-04-08T15:51:54Z</time></trkpt><trkpt lat="46.223169650264744" lon="13.273212641562976"><ele>352.0</ele><time>2026-04-08T15:51:55Z</time></trkpt><trkpt lat="46.22322511492761" lon="13.273325229962714"><ele>352.0</ele><time>2026-04-08T15:51:56Z</time></trkpt><trkpt lat="46.22326013116967" lon="13.273457165692065"><ele>352.0</ele><time>2026-04-08T15:51:57Z</time></trkpt><trkpt lat="46.223308458634506" lon="13.273571156008268"><ele>352.0</ele><time>2026-04-08T15:51:58Z</time></trkpt><trkpt lat="46.22337744645766" lon="13.273648541585361"><ele>352.0</ele><time>2026-04-08T15:51:59Z</time></trkpt><trkpt lat="46.22346727192383" lon="13.273689724037643"><ele>352.0</ele><time>2026-04-08T15:52:00Z</time></trkpt><trkpt lat="46.22357601134853" lon="13.273697789511903"><ele>352.0</ele><time>2026-04-08T15:52:01Z</time></trkpt><trkpt lat="46.223674528500894" lon="13.27370149697939"><ele>352.0</ele><time>2026-04-08T15:52:02Z</time></trkpt><trkpt lat="46.223760621348035" lon="13.273709483167329"><ele>352.0</ele><time>2026-04-08T15:52:03Z</time></trkpt><trkpt lat="46.223841816292904" lon="13.27371098364385"><ele>352.0</ele><time>2026-04-08T15:52:04Z</time></trkpt><trkpt lat="46.22391866435027" lon="13.273715033507536"><ele>352.0</ele><time>2026-04-08T15:52:05Z</time></trkpt><trkpt lat="46.22399599578261" lon="13.273713368743536"><ele>352.0</ele><time>2026-04-08T15:52:06Z</time></trkpt><trkpt lat="46.2240774803674" lon="13.273696000483906"><ele>352.0</ele><time>2026-04-08T15:52:07Z</time></trkpt><trkpt lat="46.22416922907297" lon="13.273695946640796"><ele>352.0</ele><time>2026-04-08T15:52:08Z</time></trkpt><trkpt lat="46.22426593539137" lon="13.273647467451466"><ele>352.0</ele><time>2026-04-08T15:52:09Z</time></trkpt><trkpt lat="46.224374143713135" lon="13.273624117152206"><ele>352.0</ele><time>2026-04-08T15:52:10Z</time></trkpt><trkpt lat="46.224499855198054" lon="13.273595779657564"><ele>352.0</ele><time>2026-04-08T15:52:11Z</time></trkpt><trkpt lat="46.22466539355528" lon="13.273547287026636"><ele>389.3333333333333</ele><time>2026-04-08T15:52:12Z</time></trkpt><trkpt lat="46.224888173407564" lon="13.273493209591509"><ele>426.66666666666663</ele><time>2026-04-08T15:52:13Z</time></trkpt><trkpt lat="46.22510437015804" lon="13.27345976235393"><ele>464.0</ele><time>2026-04-08T15:52:14Z</time></trkpt><trkpt lat="46.22528164892036" lon="13.27339757087471"><ele>464.0</ele><time>2026-04-08T15:52:15Z</time></trkpt><trkpt lat="46.22546382829835" lon="13.273358860531864"><ele>464.0</ele><time>2026-04-08T15:52:16Z</time></trkpt><trkpt lat="46.2256428061159" lon="13.273313795512102"><ele>464.0</ele><time>2026-04-08T15:52:17Z</time></trkpt><trkpt lat="46.22580514955096" lon="13.273264876459553"><ele>462.75</ele><time>2026-04-08T15:52:18Z</time></trkpt><trkpt lat="46.225956784064486" lon="13.273230833305693"><ele>461.5</ele><time>2026-04-08T15:52:19Z</time></trkpt><trkpt lat="46.22610006169657" lon="13.273225495623459"><ele>460.25</ele><time>2026-04-08T15:52:20Z</time></trkpt><trkpt lat="46.22621671708678" lon="13.27323016747604"><ele>459.0</ele><time>2026-04-08T15:52:21Z</time></trkpt><trkpt lat="46.22632748045936" lon="13.273259099253377"><ele>459.0</ele><time>2026-04-08T15:52:22Z</time></trkpt><trkpt lat="46.22642574519298" lon="13.273322324364448"><ele>459.0</ele><time>2026-04-08T15:52:23Z</time></trkpt><trkpt lat="46.22650017545038" lon="13.27341064422841"><ele>459.0</ele><time>2026-04-08T15:52:24Z</time></trkpt><trkpt lat="46.226553388438006" lon="13.273528239867606"><ele>459.0</ele><time>2026-04-08T15:52:25Z</time></trkpt><trkpt lat="46.22656345147025" lon="13.273695274586364"><ele>459.0</ele><time>2026-04-08T15:52:26Z</time></trkpt><trkpt lat="46.226590673674664" lon="13.273889922070301"><ele>461.5</ele><time>2026-04-08T15:52:27Z</time></trkpt><trkpt lat="46.226636513970355" lon="13.274108559325905"><ele>464.0</ele><time>2026-04-08T15:52:28Z</time></trkpt><trkpt lat="46.22665980485595" lon="13.27432515528713"><ele>466.5</ele><time>2026-04-08T15:52:29Z</time></trkpt><trkpt lat="46.22666627593266" lon="13.274522927063956"><ele>469.0</ele><time>2026-04-08T15:52:30Z</time></trkpt><trkpt lat="46.226667913874046" lon="13.274731512694421"><ele>464.5</ele><time>2026-04-08T15:52:31Z</time></trkpt><trkpt lat="46.226672199463586" lon="13.27495672287295"><ele>460.0</ele><time>2026-04-08T15:52:32Z</time></trkpt><trkpt lat="46.22667604450803" lon="13.275129831310101"><ele>455.5</ele><time>2026-04-08T15:52:33Z</time></trkpt><trkpt lat="46.22667841659903" lon="13.27529480990405"><ele>451.0</ele><time>2026-04-08T15:52:34Z</time></trkpt><trkpt lat="46.22669295418313" lon="13.275431640449025"><ele>451.0</ele><time>2026-04-08T15:52:35Z</time></trkpt><trkpt lat="46.226724361083676" lon="13.275555379028912"><ele>451.0</ele><time>2026-04-08T15:52:36Z</time></trkpt><trkpt lat="46.226787330551325" lon="13.275656249785964"><ele>451.0</ele><time>2026-04-08T15:52:37Z</time></trkpt><trkpt lat="46.22687145870562" lon="13.275714698487867"><ele>451.0</ele><time>2026-04-08T15:52:38Z</time></trkpt><trkpt lat="46.2269663829263" lon="13.275724342657082"><ele>451.0</ele><time>2026-04-08T15:52:39Z</time></trkpt><trkpt lat="46.22708011431771" lon="13.275685223543144"><ele>451.0</ele><time>2026-04-08T15:52:40Z</time></trkpt><trkpt lat="46.227227116291864" lon="13.275657826610164"><ele>451.0</ele><time>2026-04-08T15:52:41Z</time></trkpt><trkpt lat="46.227382821460715" lon="13.275697818649762"><ele>451.0</ele><time>2026-04-08T15:52:42Z</time></trkpt><trkpt lat="46.22751708948004" lon="13.275761479557806"><ele>451.0</ele><time>2026-04-08T15:52:43Z</time></trkpt><trkpt lat="46.22766715117903" lon="13.275849641049042"><ele>451.0</ele><time>2026-04-08T15:52:44Z</time></trkpt><trkpt lat="46.22779497506257" lon="13.275953010201397"><ele>451.0</ele><time>2026-04-08T15:52:45Z</time></trkpt><trkpt lat="46.227947059192424" lon="13.276015490962445"><ele>451.0</ele><time>2026-04-08T15:52:46Z</time></trkpt><trkpt lat="46.228113733132936" lon="13.27609590735036"><ele>451.0</ele><time>2026-04-08T15:52:47Z</time></trkpt><trkpt lat="46.22827241611606" lon="13.276177936032619"><ele>451.0</ele><time>2026-04-08T15:52:48Z</time></trkpt><trkpt lat="46.22842866404814" lon="13.276296159481431"><ele>451.0</ele><time>2026-04-08T15:52:49Z</time></trkpt><trkpt lat="46.22855186130306" lon="13.27640137305983"><ele>451.0</ele><time>2026-04-08T15:52:50Z</time></trkpt><trkpt lat="46.2286544420891" lon="13.276480237475505"><ele>451.0</ele><time>2026-04-08T15:52:51Z</time></trkpt><trkpt lat="46.228750139799224" lon="13.276554660526129"><ele>451.0</ele><time>2026-04-08T15:52:52Z</time></trkpt><trkpt lat="46.2288649423002" lon="13.27662881432638"><ele>451.0</ele><time>2026-04-08T15:52:53Z</time></trkpt><trkpt lat="46.22897754919608" lon="13.276701315770053"><ele>451.0</ele><time>2026-04-08T15:52:54Z</time></trkpt><trkpt lat="46.229101684807695" lon="13.27670545606175"><ele>451.0</ele><time>2026-04-08T15:52:55Z</time></trkpt><trkpt lat="46.22922683690773" lon="13.27675916305723"><ele>451.0</ele><time>2026-04-08T15:52:56Z</time></trkpt><trkpt lat="46.22934481949304" lon="13.27683978925878"><ele>451.0</ele><time>2026-04-08T15:52:57Z</time></trkpt><trkpt lat="46.229452417247636" lon="13.276940052733583"><ele>451.0</ele><time>2026-04-08T15:52:58Z</time></trkpt><trkpt lat="46.22958799122309" lon="13.276960166835536"><ele>451.0</ele><time>2026-04-08T15:52:59Z</time></trkpt><trkpt lat="46.22972366334347" lon="13.276986064152874"><ele>451.0</ele><time>2026-04-08T15:53:00Z</time></trkpt><trkpt lat="46.229846396300346" lon="13.277078726618516"><ele>451.0</ele><time>2026-04-08T15:53:01Z</time></trkpt><trkpt lat="46.2299664093339" lon="13.27714566111922"><ele>451.0</ele><time>2026-04-08T15:53:02Z</time></trkpt><trkpt lat="46.230062006068515" lon="13.277229035262689"><ele>451.0</ele><time>2026-04-08T15:53:03Z</time></trkpt><trkpt lat="46.230164961824016" lon="13.2773038519611"><ele>451.0</ele><time>2026-04-08T15:53:04Z</time></trkpt><trkpt lat="46.230283699029464" lon="13.2773483478492"><ele>451.0</ele><time>2026-04-08T15:53:05Z</time></trkpt><trkpt lat="46.230415374225146" lon="13.277379891919997"><ele>451.0</ele><time>2026-04-08T15:53:06Z</time></trkpt><trkpt lat="46.23056829710737" lon="13.277404176037296"><ele>451.0</ele><time>2026-04-08T15:53:07Z</time></trkpt><trkpt lat="46.23073871550628" lon="13.277427840019918"><ele>451.0</ele><time>2026-04-08T15:53:08Z</time></trkpt><trkpt lat="46.23090524667513" lon="13.277450964238998"><ele>451.0</ele><time>2026-04-08T15:53:09Z</time></trkpt><trkpt lat="46.231059697682994" lon="13.277450698486696"><ele>451.0</ele><time>2026-04-08T15:53:10Z</time></trkpt><trkpt lat="46.23122016612557" lon="13.277478860564166"><ele>451.0</ele><time>2026-04-08T15:53:11Z</time></trkpt><trkpt lat="46.231380961031526" lon="13.277522699688435"><ele>471.0</ele><time>2026-04-08T15:53:12Z</time></trkpt><trkpt lat="46.2315277056977" lon="13.27754443756726"><ele>491.0</ele><time>2026-04-08T15:53:13Z</time></trkpt><trkpt lat="46.231668323853214" lon="13.277544878761441"><ele>511.0</ele><time>2026-04-08T15:53:14Z</time></trkpt><trkpt lat="46.231803626612745" lon="13.277582874568187"><ele>531.0</ele><time>2026-04-08T15:53:15Z</time></trkpt><trkpt lat="46.23192957073618" lon="13.277643729818463"><ele>531.0</ele><time>2026-04-08T15:53:16Z</time></trkpt><trkpt lat="46.23203871200825" lon="13.277718210998415"><ele>531.0</ele><time>2026-04-08T15:53:17Z</time></trkpt><trkpt lat="46.23212720387289" lon="13.27778421929041"><ele>531.0</ele><time>2026-04-08T15:53:18Z</time></trkpt><trkpt lat="46.232200118131345" lon="13.277850714225467"><ele>531.0</ele><time>2026-04-08T15:53:18.999Z</time></trkpt><trkpt lat="46.232261783197366" lon="13.277904130575934"><ele>531.0</ele><time>2026-04-08T15:53:19.999Z</time></trkpt><trkpt lat="46.23232662617343" lon="13.277914400644766"><ele>531.0</ele><time>2026-04-08T15:53:20.999Z</time></trkpt><trkpt lat="46.23240145022126" lon="13.277869801548153"><ele>529.8</ele><time>2026-04-08T15:53:21.999Z</time></trkpt><trkpt lat="46.232485595936915" lon="13.277793101370515"><ele>528.6</ele><time>2026-04-08T15:53:22.999Z</time></trkpt><trkpt lat="46.232572955865635" lon="13.277707891630579"><ele>527.4</ele><time>2026-04-08T15:53:23.999Z</time></trkpt><trkpt lat="46.23264570740014" lon="13.277620661629797"><ele>526.2</ele><time>2026-04-08T15:53:25Z</time></trkpt><trkpt lat="46.23271337927655" lon="13.277532981224098"><ele>525.0</ele><time>2026-04-08T15:53:26Z</time></trkpt><trkpt lat="46.23279372995146" lon="13.277431958272642"><ele>525.0</ele><time>2026-04-08T15:53:27Z</time></trkpt><trkpt lat="46.23290026492816" lon="13.27734433679634"><ele>525.0</ele><time>2026-04-08T15:53:28Z</time></trkpt><trkpt lat="46.23301549917377" lon="13.27728045430203"><ele>525.0</ele><time>2026-04-08T15:53:29Z</time></trkpt><trkpt lat="46.233103012673574" lon="13.277233167696547"><ele>525.0</ele><time>2026-04-08T15:53:30Z</time></trkpt><trkpt lat="46.233170072038014" lon="13.277169906783426"><ele>525.0</ele><time>2026-04-08T15:53:31Z</time></trkpt><trkpt lat="46.23321902770791" lon="13.277045843563545"><ele>529.6</ele><time>2026-04-08T15:53:32Z</time></trkpt><trkpt lat="46.233273565299605" lon="13.276912430247448"><ele>534.2</ele><time>2026-04-08T15:53:33Z</time></trkpt><trkpt lat="46.23331302003628" lon="13.27679371716092"><ele>538.8</ele><time>2026-04-08T15:53:34Z</time></trkpt><trkpt lat="46.2333593199444" lon="13.276669755447559"><ele>543.4</ele><time>2026-04-08T15:53:35Z</time></trkpt><trkpt lat="46.233434693467" lon="13.276576017197502"><ele>548.0</ele><time>2026-04-08T15:53:36Z</time></trkpt><trkpt lat="46.23353157305291" lon="13.27651054023888"><ele>548.0</ele><time>2026-04-08T15:53:37Z</time></trkpt><trkpt lat="46.233642875803284" lon="13.27646421097051"><ele>548.0</ele><time>2026-04-08T15:53:38Z</time></trkpt><trkpt lat="46.23374657117522" lon="13.27643603331815"><ele>548.0</ele><time>2026-04-08T15:53:39Z</time></trkpt><trkpt lat="46.23386989096488" lon="13.276377651757608"><ele>548.0</ele><time>2026-04-08T15:53:40Z</time></trkpt><trkpt lat="46.23398251601194" lon="13.276290051510903"><ele>552.6</ele><time>2026-04-08T15:53:41Z</time></trkpt><trkpt lat="46.234075753215606" lon="13.276238321371284"><ele>557.1999999999999</ele><time>2026-04-08T15:53:42Z</time></trkpt><trkpt lat="46.234162435828026" lon="13.276243413961362"><ele>561.8</ele><time>2026-04-08T15:53:43Z</time></trkpt><trkpt lat="46.234264497306526" lon="13.276294128163865"><ele>566.4</ele><time>2026-04-08T15:53:44Z</time></trkpt><trkpt lat="46.23435167310247" lon="13.276377640940085"><ele>571.0</ele><time>2026-04-08T15:53:45Z</time></trkpt><trkpt lat="46.234429500844435" lon="13.276426026980163"><ele>571.0</ele><time>2026-04-08T15:53:46Z</time></trkpt><trkpt lat="46.23450101643104" lon="13.276411164093577"><ele>571.0</ele><time>2026-04-08T15:53:47Z</time></trkpt><trkpt lat="46.23456394747337" lon="13.276320855721266"><ele>571.0</ele><time>2026-04-08T15:53:48Z</time></trkpt><trkpt lat="46.23465154053754" lon="13.276190857358523"><ele>571.0</ele><time>2026-04-08T15:53:49Z</time></trkpt><trkpt lat="46.234754846132255" lon="13.276065818413471"><ele>571.0</ele><time>2026-04-08T15:53:50Z</time></trkpt><trkpt lat="46.234819494259526" lon="13.275945929458357"><ele>566.0</ele><time>2026-04-08T15:53:51Z</time></trkpt><trkpt lat="46.23491827773773" lon="13.275821207325064"><ele>561.0</ele><time>2026-04-08T15:53:52Z</time></trkpt><trkpt lat="46.23503608542874" lon="13.275722572356496"><ele>556.0</ele><time>2026-04-08T15:53:53Z</time></trkpt><trkpt lat="46.235170681417884" lon="13.275651648906708"><ele>551.0</ele><time>2026-04-08T15:53:54Z</time></trkpt><trkpt lat="46.235303228892924" lon="13.275583300607526"><ele>559.0</ele><time>2026-04-08T15:53:55Z</time></trkpt><trkpt lat="46.235424663460414" lon="13.275523480730737"><ele>567.0</ele><time>2026-04-08T15:53:56Z</time></trkpt><trkpt lat="46.23554345504364" lon="13.27549527970288"><ele>575.0</ele><time>2026-04-08T15:53:57Z</time></trkpt><trkpt lat="46.235668454705774" lon="13.275515708326116"><ele>583.0</ele><time>2026-04-08T15:53:58Z</time></trkpt><trkpt lat="46.235784407876025" lon="13.275507747668087"><ele>583.0</ele><time>2026-04-08T15:53:59Z</time></trkpt><trkpt lat="46.23591935643779" lon="13.275463387537107"><ele>583.0</ele><time>2026-04-08T15:54:00Z</time></trkpt><trkpt lat="46.2360373628665" lon="13.275415620190486"><ele>583.0</ele><time>2026-04-08T15:54:01Z</time></trkpt><trkpt lat="46.23614832023059" lon="13.275400291706173"><ele>583.0</ele><time>2026-04-08T15:54:02Z</time></trkpt><trkpt lat="46.236273061159494" lon="13.275384449786815"><ele>583.0</ele><time>2026-04-08T15:54:03Z</time></trkpt><trkpt lat="46.23642684892752" lon="13.275365281643404"><ele>583.0</ele><time>2026-04-08T15:54:04Z</time></trkpt><trkpt lat="46.236575958021156" lon="13.27534246039213"><ele>583.0</ele><time>2026-04-08T15:54:05Z</time></trkpt><trkpt lat="46.23674271483673" lon="13.275320943381232"><ele>582.5</ele><time>2026-04-08T15:54:06Z</time></trkpt><trkpt lat="46.23687616121195" lon="13.275303548695394"><ele>582.0</ele><time>2026-04-08T15:54:07Z</time></trkpt><trkpt lat="46.23698160527944" lon="13.275326575157834"><ele>581.5</ele><time>2026-04-08T15:54:08Z</time></trkpt><trkpt lat="46.237066581913915" lon="13.275369101629087"><ele>581.0</ele><time>2026-04-08T15:54:09Z</time></trkpt><trkpt lat="46.23711133739351" lon="13.2755453107007"><ele>579.8333333333333</ele><time>2026-04-08T15:54:11Z</time></trkpt><trkpt lat="46.23709427489443" lon="13.275677883658915"><ele>578.6666666666666</ele><time>2026-04-08T15:54:12Z</time></trkpt><trkpt lat="46.23704958257773" lon="13.275773911163723"><ele>577.5</ele><time>2026-04-08T15:54:13Z</time></trkpt><trkpt lat="46.23710157832531" lon="13.275866937138648"><ele>576.3333333333334</ele><time>2026-04-08T15:54:14Z</time></trkpt><trkpt lat="46.23717554135862" lon="13.275937920340581"><ele>575.1666666666667</ele><time>2026-04-08T15:54:15Z</time></trkpt><trkpt lat="46.23724417652155" lon="13.275923701717804"><ele>574.0</ele><time>2026-04-08T15:54:16Z</time></trkpt><trkpt lat="46.23730323899294" lon="13.2758752589393"><ele>574.0</ele><time>2026-04-08T15:54:17Z</time></trkpt><trkpt lat="46.23733001539716" lon="13.275732946839703"><ele>574.0</ele><time>2026-04-08T15:54:18Z</time></trkpt><trkpt lat="46.23732051530894" lon="13.275547893845856"><ele>574.0</ele><time>2026-04-08T15:54:19Z</time></trkpt><trkpt lat="46.23730687653482" lon="13.275380320962586"><ele>574.0</ele><time>2026-04-08T15:54:20Z</time></trkpt><trkpt lat="46.237263653023625" lon="13.275256647862173"><ele>574.0</ele><time>2026-04-08T15:54:21Z</time></trkpt><trkpt lat="46.23722374746285" lon="13.275136950199972"><ele>575.75</ele><time>2026-04-08T15:54:22Z</time></trkpt><trkpt lat="46.2371564164326" lon="13.275053814593022"><ele>577.5</ele><time>2026-04-08T15:54:23Z</time></trkpt><trkpt lat="46.2370468801316" lon="13.275026911262406"><ele>579.25</ele><time>2026-04-08T15:54:24Z</time></trkpt><trkpt lat="46.23691649012209" lon="13.275010494939973"><ele>581.0</ele><time>2026-04-08T15:54:25Z</time></trkpt><trkpt lat="46.236764309469805" lon="13.274946052815174"><ele>581.0</ele><time>2026-04-08T15:54:26Z</time></trkpt><trkpt lat="46.23659697284372" lon="13.274884547164735"><ele>581.0</ele><time>2026-04-08T15:54:27Z</time></trkpt><trkpt lat="46.23643560029531" lon="13.274837995214828"><ele>581.0</ele><time>2026-04-08T15:54:28Z</time></trkpt><trkpt lat="46.236274055965964" lon="13.274785977752773"><ele>590.0</ele><time>2026-04-08T15:54:29Z</time></trkpt><trkpt lat="46.23613672947706" lon="13.274751176236208"><ele>599.0</ele><time>2026-04-08T15:54:30Z</time></trkpt><trkpt lat="46.236024763477026" lon="13.274744271277129"><ele>608.0</ele><time>2026-04-08T15:54:31Z</time></trkpt><trkpt lat="46.235941998085984" lon="13.274746486124638"><ele>617.0</ele><time>2026-04-08T15:54:32Z</time></trkpt><trkpt lat="46.2358525552858" lon="13.27470865709578"><ele>626.0</ele><time>2026-04-08T15:54:34Z</time></trkpt><trkpt lat="46.23584768912165" lon="13.274601669106877"><ele>626.0</ele><time>2026-04-08T15:54:36Z</time></trkpt><trkpt lat="46.23595628906438" lon="13.274545682721078"><ele>626.0</ele><time>2026-04-08T15:54:38Z</time></trkpt><trkpt lat="46.23607344567359" lon="13.27456280183873"><ele>626.0</ele><time>2026-04-08T15:54:39Z</time></trkpt><trkpt lat="46.236196663469414" lon="13.274579686323584"><ele>626.0</ele><time>2026-04-08T15:54:40Z</time></trkpt><trkpt lat="46.23632285463639" lon="13.274555806690124"><ele>622.3333333333333</ele><time>2026-04-08T15:54:41Z</time></trkpt><trkpt lat="46.236496359233804" lon="13.274570352374024"><ele>618.6666666666666</ele><time>2026-04-08T15:54:42Z</time></trkpt><trkpt lat="46.23669184243457" lon="13.274591565697389"><ele>615.0</ele><time>2026-04-08T15:54:43Z</time></trkpt><trkpt lat="46.2368344700322" lon="13.27458270101297"><ele>615.0</ele><time>2026-04-08T15:54:44Z</time></trkpt><trkpt lat="46.23698844291837" lon="13.27456758871007"><ele>615.0</ele><time>2026-04-08T15:54:45Z</time></trkpt><trkpt lat="46.23717593893234" lon="13.274567511556068"><ele>615.0</ele><time>2026-04-08T15:54:46Z</time></trkpt><trkpt lat="46.237336195153944" lon="13.274587023056046"><ele>616.6</ele><time>2026-04-08T15:54:47Z</time></trkpt><trkpt lat="46.237443695290324" lon="13.274597478649044"><ele>618.2</ele><time>2026-04-08T15:54:48Z</time></trkpt><trkpt lat="46.23755890460699" lon="13.274605349377788"><ele>619.8</ele><time>2026-04-08T15:54:49Z</time></trkpt><trkpt lat="46.23765837041102" lon="13.274663170930998"><ele>621.4</ele><time>2026-04-08T15:54:50Z</time></trkpt><trkpt lat="46.23775545225227" lon="13.274744935632738"><ele>623.0</ele><time>2026-04-08T15:54:51Z</time></trkpt><trkpt lat="46.237833787541376" lon="13.274848938035982"><ele>617.8</ele><time>2026-04-08T15:54:52Z</time></trkpt><trkpt lat="46.237899409360686" lon="13.274945554595767"><ele>612.5999999999999</ele><time>2026-04-08T15:54:53Z</time></trkpt><trkpt lat="46.23795308561737" lon="13.275057338752243"><ele>607.4000000000001</ele><time>2026-04-08T15:54:54Z</time></trkpt><trkpt lat="46.23800808058034" lon="13.27518343458907"><ele>602.2</ele><time>2026-04-08T15:54:55Z</time></trkpt><trkpt lat="46.23805632039391" lon="13.275305739671627"><ele>597.0</ele><time>2026-04-08T15:54:56Z</time></trkpt><trkpt lat="46.23808725330332" lon="13.275437855869955"><ele>597.0</ele><time>2026-04-08T15:54:57Z</time></trkpt><trkpt lat="46.23812905129341" lon="13.275541884272034"><ele>597.0</ele><time>2026-04-08T15:54:58Z</time></trkpt><trkpt lat="46.238173734231836" lon="13.275616694304695"><ele>597.0</ele><time>2026-04-08T15:54:59Z</time></trkpt><trkpt lat="46.23829956713866" lon="13.275659746222317"><ele>597.0</ele><time>2026-04-08T15:55:01Z</time></trkpt><trkpt lat="46.238388710046834" lon="13.27567094468873"><ele>597.0</ele><time>2026-04-08T15:55:02Z</time></trkpt><trkpt lat="46.23848272829718" lon="13.275669239857043"><ele>599.3333333333334</ele><time>2026-04-08T15:55:03Z</time></trkpt><trkpt lat="46.238598217152386" lon="13.275668020017536"><ele>601.6666666666666</ele><time>2026-04-08T15:55:04Z</time></trkpt><trkpt lat="46.23869649428527" lon="13.27567367605236"><ele>604.0</ele><time>2026-04-08T15:55:05Z</time></trkpt><trkpt lat="46.238760991233036" lon="13.275707685660164"><ele>606.3333333333333</ele><time>2026-04-08T15:55:06Z</time></trkpt><trkpt lat="46.23882134162885" lon="13.275748586226168"><ele>608.6666666666666</ele><time>2026-04-08T15:55:07Z</time></trkpt><trkpt lat="46.238844170241656" lon="13.275838489918721"><ele>611.0</ele><time>2026-04-08T15:55:08Z</time></trkpt><trkpt lat="46.238826030758766" lon="13.275944092502877"><ele>611.0</ele><time>2026-04-08T15:55:09Z</time></trkpt><trkpt lat="46.23875598328979" lon="13.276025681494977"><ele>611.0</ele><time>2026-04-08T15:55:10Z</time></trkpt><trkpt lat="46.23869539483387" lon="13.276180568911974"><ele>611.0</ele><time>2026-04-08T15:55:11Z</time></trkpt><trkpt lat="46.23862994044083" lon="13.276313000140869"><ele>611.0</ele><time>2026-04-08T15:55:12Z</time></trkpt><trkpt lat="46.238589682163706" lon="13.276417732446019"><ele>611.0</ele><time>2026-04-08T15:55:13Z</time></trkpt><trkpt lat="46.238571595705736" lon="13.276513302072352"><ele>609.2</ele><time>2026-04-08T15:55:14Z</time></trkpt><trkpt lat="46.23859062119548" lon="13.276617903816565"><ele>607.4000000000001</ele><time>2026-04-08T15:55:15Z</time></trkpt><trkpt lat="46.23864354938301" lon="13.276737970424204"><ele>605.6</ele><time>2026-04-08T15:55:16Z</time></trkpt><trkpt lat="46.2386978489687" lon="13.27687110215004"><ele>603.8000000000001</ele><time>2026-04-08T15:55:17Z</time></trkpt><trkpt lat="46.23872987656124" lon="13.277004553620364"><ele>602.0</ele><time>2026-04-08T15:55:18Z</time></trkpt><trkpt lat="46.23874291229758" lon="13.277150223201684"><ele>602.6</ele><time>2026-04-08T15:55:19Z</time></trkpt><trkpt lat="46.238733101140866" lon="13.277306219622096"><ele>603.2</ele><time>2026-04-08T15:55:20Z</time></trkpt><trkpt lat="46.238708935514296" lon="13.277471488874545"><ele>603.8</ele><time>2026-04-08T15:55:21Z</time></trkpt><trkpt lat="46.23867432208732" lon="13.27761226075495"><ele>604.4</ele><time>2026-04-08T15:55:21.999Z</time></trkpt><trkpt lat="46.2386362632005" lon="13.277727786349601"><ele>605.0</ele><time>2026-04-08T15:55:22.999Z</time></trkpt><trkpt lat="46.238604416537875" lon="13.277834187071551"><ele>605.0</ele><time>2026-04-08T15:55:23.999Z</time></trkpt><trkpt lat="46.23858059603888" lon="13.277949842788974"><ele>605.0</ele><time>2026-04-08T15:55:24.999Z</time></trkpt><trkpt lat="46.23856790601208" lon="13.278062030932585"><ele>605.0</ele><time>2026-04-08T15:55:25.999Z</time></trkpt><trkpt lat="46.23856361552149" lon="13.278172454704503"><ele>605.0</ele><time>2026-04-08T15:55:26.999Z</time></trkpt><trkpt lat="46.23857561391179" lon="13.27827823906489"><ele>605.0</ele><time>2026-04-08T15:55:27.999Z</time></trkpt><trkpt lat="46.238607205001884" lon="13.278375157023197"><ele>605.0</ele><time>2026-04-08T15:55:28.999Z</time></trkpt><trkpt lat="46.23865346565036" lon="13.278461066117137"><ele>606.0</ele><time>2026-04-08T15:55:29.999Z</time></trkpt><trkpt lat="46.23869786739013" lon="13.278550436327093"><ele>607.0</ele><time>2026-04-08T15:55:31Z</time></trkpt><trkpt lat="46.23871747666147" lon="13.278655501173125"><ele>608.0</ele><time>2026-04-08T15:55:32Z</time></trkpt><trkpt lat="46.23874457794388" lon="13.278752642318542"><ele>609.0</ele><time>2026-04-08T15:55:33Z</time></trkpt><trkpt lat="46.23880285304668" lon="13.278815566117151"><ele>610.0</ele><time>2026-04-08T15:55:34Z</time></trkpt><trkpt lat="46.23887531258682" lon="13.278839331754758"><ele>611.0</ele><time>2026-04-08T15:55:35Z</time></trkpt><trkpt lat="46.23893639282292" lon="13.278865410618083"><ele>612.0</ele><time>2026-04-08T15:55:36Z</time></trkpt><trkpt lat="46.238958196009186" lon="13.279018605555377"><ele>612.0</ele><time>2026-04-08T15:55:38Z</time></trkpt><trkpt lat="46.2389630779013" lon="13.27911467981034"><ele>612.0</ele><time>2026-04-08T15:55:39Z</time></trkpt><trkpt lat="46.23894827069793" lon="13.279226360143843"><ele>612.0</ele><time>2026-04-08T15:55:40Z</time></trkpt><trkpt lat="46.23893417098073" lon="13.279357497023149"><ele>612.0</ele><time>2026-04-08T15:55:41Z</time></trkpt><trkpt lat="46.23892904648305" lon="13.279487411873333"><ele>612.0</ele><time>2026-04-08T15:55:42Z</time></trkpt><trkpt lat="46.23893545086326" lon="13.27960783583157"><ele>612.0</ele><time>2026-04-08T15:55:43Z</time></trkpt><trkpt lat="46.23893590625974" lon="13.279726359153688"><ele>611.4</ele><time>2026-04-08T15:55:44Z</time></trkpt><trkpt lat="46.2389391616657" lon="13.279828618612658"><ele>610.8000000000001</ele><time>2026-04-08T15:55:45Z</time></trkpt><trkpt lat="46.23899209481338" lon="13.279977255089738"><ele>610.2</ele><time>2026-04-08T15:55:47Z</time></trkpt><trkpt lat="46.23911023842377" lon="13.280044315706135"><ele>609.6</ele><time>2026-04-08T15:55:49Z</time></trkpt><trkpt lat="46.23923572623642" lon="13.2800287488959"><ele>609.0</ele><time>2026-04-08T15:55:51Z</time></trkpt><trkpt lat="46.23936228598527" lon="13.28004545608722"><ele>613.3333333333334</ele><time>2026-04-08T15:55:53Z</time></trkpt><trkpt lat="46.23942824832107" lon="13.280053884371538"><ele>617.6666666666666</ele><time>2026-04-08T15:55:54Z</time></trkpt><trkpt lat="46.239498594317524" lon="13.280071919680406"><ele>622.0</ele><time>2026-04-08T15:55:55Z</time></trkpt><trkpt lat="46.239584319655236" lon="13.280082773331861"><ele>626.3333333333333</ele><time>2026-04-08T15:55:56Z</time></trkpt><trkpt lat="46.23967908535819" lon="13.280102356321635"><ele>630.6666666666666</ele><time>2026-04-08T15:55:57Z</time></trkpt><trkpt lat="46.23975897788637" lon="13.280130811695985"><ele>635.0</ele><time>2026-04-08T15:55:58Z</time></trkpt><trkpt lat="46.239832437230085" lon="13.28016413636703"><ele>637.4</ele><time>2026-04-08T15:55:59Z</time></trkpt><trkpt lat="46.23989904178653" lon="13.280226312253102"><ele>639.8</ele><time>2026-04-08T15:56:00Z</time></trkpt><trkpt lat="46.23995222347836" lon="13.280315451315648"><ele>642.2</ele><time>2026-04-08T15:56:01Z</time></trkpt><trkpt lat="46.23999802851124" lon="13.280448745983337"><ele>644.6</ele><time>2026-04-08T15:56:02Z</time></trkpt><trkpt lat="46.24003131590024" lon="13.280581848820876"><ele>647.0</ele><time>2026-04-08T15:56:03Z</time></trkpt><trkpt lat="46.240061026709064" lon="13.280703072904098"><ele>647.0</ele><time>2026-04-08T15:56:04Z</time></trkpt><trkpt lat="46.24010945950192" lon="13.280828761147488"><ele>647.0</ele><time>2026-04-08T15:56:05Z</time></trkpt><trkpt lat="46.240179757042085" lon="13.280944344796776"><ele>647.0</ele><time>2026-04-08T15:56:06Z</time></trkpt><trkpt lat="46.240264868322335" lon="13.281035467595684"><ele>647.0</ele><time>2026-04-08T15:56:07Z</time></trkpt><trkpt lat="46.240355547908344" lon="13.281104581953853"><ele>647.0</ele><time>2026-04-08T15:56:08Z</time></trkpt><trkpt lat="46.240452329595264" lon="13.281155513544421"><ele>647.0</ele><time>2026-04-08T15:56:09Z</time></trkpt><trkpt lat="46.240548834643526" lon="13.281177008565843"><ele>647.0</ele><time>2026-04-08T15:56:10Z</time></trkpt><trkpt lat="46.24063866327817" lon="13.281156845447102"><ele>647.0</ele><time>2026-04-08T15:56:11Z</time></trkpt><trkpt lat="46.24073083023817" lon="13.281087382681072"><ele>647.0</ele><time>2026-04-08T15:56:12Z</time></trkpt><trkpt lat="46.24083915600319" lon="13.281011066639481"><ele>647.0</ele><time>2026-04-08T15:56:13Z</time></trkpt><trkpt lat="46.24096029241592" lon="13.280938614175124"><ele>650.8</ele><time>2026-04-08T15:56:14Z</time></trkpt><trkpt lat="46.24105969064274" lon="13.280899226129135"><ele>654.6</ele><time>2026-04-08T15:56:15Z</time></trkpt><trkpt lat="46.24116761424258" lon="13.280897537227164"><ele>658.4</ele><time>2026-04-08T15:56:16Z</time></trkpt><trkpt lat="46.24127060093733" lon="13.28094013365727"><ele>662.1999999999999</ele><time>2026-04-08T15:56:17Z</time></trkpt><trkpt lat="46.24137142065107" lon="13.281034096789305"><ele>666.0</ele><time>2026-04-08T15:56:18Z</time></trkpt><trkpt lat="46.24146526292403" lon="13.281151426712599"><ele>664.1999999999999</ele><time>2026-04-08T15:56:19Z</time></trkpt><trkpt lat="46.24155395670235" lon="13.281263465214629"><ele>662.4</ele><time>2026-04-08T15:56:20Z</time></trkpt><trkpt lat="46.24163908698724" lon="13.281362737151808"><ele>660.6</ele><time>2026-04-08T15:56:21Z</time></trkpt><trkpt lat="46.24171993858913" lon="13.281456534538076"><ele>658.8</ele><time>2026-04-08T15:56:22Z</time></trkpt><trkpt lat="46.241789316292184" lon="13.281514697267484"><ele>657.0</ele><time>2026-04-08T15:56:23Z</time></trkpt><trkpt lat="46.24187980581911" lon="13.281532145032338"><ele>657.0</ele><time>2026-04-08T15:56:24Z</time></trkpt><trkpt lat="46.24198661665336" lon="13.281485258496609"><ele>657.0</ele><time>2026-04-08T15:56:25Z</time></trkpt><trkpt lat="46.242066226660455" lon="13.281483091437828"><ele>657.0</ele><time>2026-04-08T15:56:26Z</time></trkpt><trkpt lat="46.24215878403374" lon="13.281463678954411"><ele>657.0</ele><time>2026-04-08T15:56:28Z</time></trkpt><trkpt lat="46.242208407211194" lon="13.281538737285128"><ele>657.0</ele><time>2026-04-08T15:56:30Z</time></trkpt><trkpt lat="46.24224771888271" lon="13.281722279101107"><ele>657.0</ele><time>2026-04-08T15:56:32Z</time></trkpt><trkpt lat="46.24226021374276" lon="13.281888343998164"><ele>657.0</ele><time>2026-04-08T15:56:33Z</time></trkpt><trkpt lat="46.242273866979616" lon="13.28207864728948"><ele>657.0</ele><time>2026-04-08T15:56:34Z</time></trkpt><trkpt lat="46.24228270004038" lon="13.282236920158986"><ele>657.0</ele><time>2026-04-08T15:56:35Z</time></trkpt><trkpt lat="46.24229114664498" lon="13.282412934362977"><ele>654.0</ele><time>2026-04-08T15:56:36Z</time></trkpt><trkpt lat="46.2422970960498" lon="13.282548737749101"><ele>651.0</ele><time>2026-04-08T15:56:37Z</time></trkpt><trkpt lat="46.24231075442611" lon="13.282668485952104"><ele>648.0</ele><time>2026-04-08T15:56:38Z</time></trkpt><trkpt lat="46.24228882001824" lon="13.282798000469342"><ele>645.0</ele><time>2026-04-08T15:56:39Z</time></trkpt><trkpt lat="46.24225588987336" lon="13.282947527369307"><ele>642.0</ele><time>2026-04-08T15:56:40Z</time></trkpt><trkpt lat="46.24222957704321" lon="13.283090549023797"><ele>641.8</ele><time>2026-04-08T15:56:41Z</time></trkpt><trkpt lat="46.24221297708218" lon="13.283193096495625"><ele>641.6</ele><time>2026-04-08T15:56:42Z</time></trkpt><trkpt lat="46.24226137096217" lon="13.283321037897132"><ele>641.4</ele><time>2026-04-08T15:56:44Z</time></trkpt><trkpt lat="46.24239343868534" lon="13.283377728388567"><ele>641.1999999999999</ele><time>2026-04-08T15:56:46Z</time></trkpt><trkpt lat="46.24245326367861" lon="13.283343796314119"><ele>641.0</ele><time>2026-04-08T15:56:47Z</time></trkpt><trkpt lat="46.24250356445914" lon="13.283249993467928"><ele>647.1999999999999</ele><time>2026-04-08T15:56:48Z</time></trkpt><trkpt lat="46.242547515168404" lon="13.283097267036402"><ele>653.4</ele><time>2026-04-08T15:56:49Z</time></trkpt><trkpt lat="46.2425987447059" lon="13.282929750986437"><ele>659.6</ele><time>2026-04-08T15:56:50Z</time></trkpt><trkpt lat="46.242640218154584" lon="13.282806589739684"><ele>665.8</ele><time>2026-04-08T15:56:51Z</time></trkpt><trkpt lat="46.24267650893162" lon="13.282701954330859"><ele>672.0</ele><time>2026-04-08T15:56:52Z</time></trkpt><trkpt lat="46.24271400298467" lon="13.282597191299239"><ele>672.0</ele><time>2026-04-08T15:56:53Z</time></trkpt><trkpt lat="46.2427512258265" lon="13.282493095043964"><ele>672.0</ele><time>2026-04-08T15:56:54Z</time></trkpt><trkpt lat="46.242804742946646" lon="13.282398039999228"><ele>672.0</ele><time>2026-04-08T15:56:55Z</time></trkpt><trkpt lat="46.2428382109425" lon="13.28231251170824"><ele>672.0</ele><time>2026-04-08T15:56:56Z</time></trkpt><trkpt lat="46.2428876901792" lon="13.282208506550791"><ele>672.0</ele><time>2026-04-08T15:56:58Z</time></trkpt><trkpt lat="46.24292922695643" lon="13.282133002001514"><ele>672.0</ele><time>2026-04-08T15:57:00Z</time></trkpt><trkpt lat="46.24298717751846" lon="13.282038299558737"><ele>672.7142857142857</ele><time>2026-04-08T15:57:03Z</time></trkpt><trkpt lat="46.243051610885075" lon="13.281955429400428"><ele>673.4285714285714</ele><time>2026-04-08T15:57:05Z</time></trkpt><trkpt lat="46.2431152836807" lon="13.28197856278408"><ele>674.1428571428571</ele><time>2026-04-08T15:57:07Z</time></trkpt><trkpt lat="46.243170895338196" lon="13.28204170189206"><ele>674.8571428571429</ele><time>2026-04-08T15:57:10Z</time></trkpt><trkpt lat="46.243214221368845" lon="13.282110135971902"><ele>675.5714285714286</ele><time>2026-04-08T15:57:13Z</time></trkpt><trkpt lat="46.24327357910468" lon="13.282158096510507"><ele>676.2857142857142</ele><time>2026-04-08T15:57:36Z</time></trkpt><trkpt lat="46.243322339969474" lon="13.282223429883613"><ele>677.0</ele><time>2026-04-08T15:57:43Z</time></trkpt><trkpt lat="46.243380735684816" lon="13.282266749554655"><ele>676.9999999999999</ele><time>2026-04-08T15:57:49Z</time></trkpt><trkpt lat="46.24344695192786" lon="13.28230491012043"><ele>677.0</ele><time>2026-04-08T15:57:56Z</time></trkpt><trkpt lat="46.24351113213419" lon="13.28231121712437"><ele>677.0</ele><time>2026-04-08T15:58:03Z</time></trkpt><trkpt lat="46.24343967461651" lon="13.282287087531431"><ele>677.0</ele><time>2026-04-08T15:58:37Z</time></trkpt><trkpt lat="46.24337943541452" lon="13.282256913454463"><ele>677.0</ele><time>2026-04-08T15:58:43Z</time></trkpt><trkpt lat="46.24331608352779" lon="13.282230414733576"><ele>676.9999999999999</ele><time>2026-04-08T15:58:51Z</time></trkpt><trkpt lat="46.24326692847152" lon="13.282164316195773"><ele>677.0</ele><time>2026-04-08T15:58:57Z</time></trkpt><trkpt lat="46.24332477154403" lon="13.282205002561412"><ele>677.0</ele><time>2026-04-08T16:00:01Z</time></trkpt><trkpt lat="46.2434408201318" lon="13.282288813899276"><ele>677.0</ele><time>2026-04-08T16:00:03Z</time></trkpt><trkpt lat="46.24353183912526" lon="13.282312079977213"><ele>677.0</ele><time>2026-04-08T16:00:04Z</time></trkpt><trkpt lat="46.24361221187109" lon="13.282325812665432"><ele>677.0</ele><time>2026-04-08T16:00:05Z</time></trkpt><trkpt lat="46.243725461119155" lon="13.2823380877395"><ele>677.0</ele><time>2026-04-08T16:00:07Z</time></trkpt><trkpt lat="46.243803512016925" lon="13.282412489259286"><ele>677.0</ele><time>2026-04-08T16:00:09Z</time></trkpt><trkpt lat="46.243871596540195" lon="13.282574339987379"><ele>677.0</ele><time>2026-04-08T16:00:11Z</time></trkpt><trkpt lat="46.24394787203982" lon="13.282692305498943"><ele>677.0</ele><time>2026-04-08T16:00:13Z</time></trkpt><trkpt lat="46.24400709220982" lon="13.282749627209231"><ele>677.0</ele><time>2026-04-08T16:00:15Z</time></trkpt><trkpt lat="46.2440696432608" lon="13.282770978838705"><ele>677.0</ele><time>2026-04-08T16:00:48Z</time></trkpt><trkpt lat="46.24416616720418" lon="13.282768341680896"><ele>679.0</ele><time>2026-04-08T16:00:50Z</time></trkpt><trkpt lat="46.24424493336645" lon="13.282751780006448"><ele>681.0</ele><time>2026-04-08T16:00:51Z</time></trkpt><trkpt lat="46.24432013271471" lon="13.28271863134126"><ele>683.0</ele><time>2026-04-08T16:00:52Z</time></trkpt><trkpt lat="46.24440523827532" lon="13.282730629785744"><ele>685.0</ele><time>2026-04-08T16:00:53Z</time></trkpt><trkpt lat="46.244483433359015" lon="13.282706122045397"><ele>687.0</ele><time>2026-04-08T16:00:54Z</time></trkpt><trkpt lat="46.244555222921136" lon="13.28268362191103"><ele>689.0</ele><time>2026-04-08T16:00:55Z</time></trkpt><trkpt lat="46.24466562681815" lon="13.282649019355127"><ele>689.0</ele><time>2026-04-08T16:00:57Z</time></trkpt><trkpt lat="46.244751638423566" lon="13.282591822185022"><ele>689.0</ele><time>2026-04-08T16:00:59Z</time></trkpt><trkpt lat="46.24485637641633" lon="13.282562853113326"><ele>689.0</ele><time>2026-04-08T16:01:01Z</time></trkpt><trkpt lat="46.244960119570074" lon="13.282535274607334"><ele>689.0</ele><time>2026-04-08T16:01:03Z</time></trkpt><trkpt lat="46.24502728518584" lon="13.28252148801912"><ele>689.0</ele><time>2026-04-08T16:01:05Z</time></trkpt><trkpt lat="46.24510430939363" lon="13.282487990164164"><ele>688.5</ele><time>2026-04-08T16:01:08Z</time></trkpt><trkpt lat="46.24515669835801" lon="13.282435631581842"><ele>688.0</ele><time>2026-04-08T16:01:11Z</time></trkpt><trkpt lat="46.24521396782716" lon="13.282313647304383"><ele>687.5</ele><time>2026-04-08T16:01:28Z</time></trkpt><trkpt lat="46.24524062704346" lon="13.28221966725904"><ele>687.0</ele><time>2026-04-08T16:01:29Z</time></trkpt><trkpt lat="46.245278343494654" lon="13.282128078870073"><ele>686.5</ele><time>2026-04-08T16:01:30Z</time></trkpt><trkpt lat="46.245321266530325" lon="13.282026514388882"><ele>686.0</ele><time>2026-04-08T16:01:31Z</time></trkpt><trkpt lat="46.245379676172924" lon="13.281927240061663"><ele>688.1666666666666</ele><time>2026-04-08T16:01:32Z</time></trkpt><trkpt lat="46.24541159464242" lon="13.281813297295495"><ele>690.3333333333333</ele><time>2026-04-08T16:01:32.999Z</time></trkpt><trkpt lat="46.245446820976596" lon="13.281704901319035"><ele>692.5</ele><time>2026-04-08T16:01:33.999Z</time></trkpt><trkpt lat="46.24546349309845" lon="13.281591938011754"><ele>694.6666666666666</ele><time>2026-04-08T16:01:34.999Z</time></trkpt><trkpt lat="46.2454552300909" lon="13.28147153983037"><ele>696.8333333333334</ele><time>2026-04-08T16:01:35.999Z</time></trkpt><trkpt lat="46.245414414719946" lon="13.281356138503762"><ele>699.0</ele><time>2026-04-08T16:01:36.999Z</time></trkpt><trkpt lat="46.24534979699863" lon="13.281254173137931"><ele>700.3333333333334</ele><time>2026-04-08T16:01:37.999Z</time></trkpt><trkpt lat="46.245288360304706" lon="13.281156036027285"><ele>701.6666666666666</ele><time>2026-04-08T16:01:38.999Z</time></trkpt><trkpt lat="46.24526549679317" lon="13.281049618048089"><ele>703.0</ele><time>2026-04-08T16:01:39.999Z</time></trkpt><trkpt lat="46.24529831738048" lon="13.28093150519154"><ele>704.3333333333333</ele><time>2026-04-08T16:01:40.999Z</time></trkpt><trkpt lat="46.24532483180602" lon="13.280824706989266"><ele>705.6666666666666</ele><time>2026-04-08T16:01:41.999Z</time></trkpt><trkpt lat="46.24536354482586" lon="13.280707582080396"><ele>707.0</ele><time>2026-04-08T16:01:42.999Z</time></trkpt><trkpt lat="46.245446069556635" lon="13.28063382499409"><ele>707.0</ele><time>2026-04-08T16:01:43.999Z</time></trkpt><trkpt lat="46.2455476234584" lon="13.280617199802036"><ele>707.0</ele><time>2026-04-08T16:01:44.999Z</time></trkpt><trkpt lat="46.245626787927854" lon="13.280588507366815"><ele>707.0</ele><time>2026-04-08T16:01:45.999Z</time></trkpt><trkpt lat="46.245680492221126" lon="13.280498097027957"><ele>707.0</ele><time>2026-04-08T16:01:46.999Z</time></trkpt><trkpt lat="46.245719077173604" lon="13.280367722539363"><ele>707.0</ele><time>2026-04-08T16:01:48Z</time></trkpt><trkpt lat="46.24573802141817" lon="13.280224418737287"><ele>705.4000000000001</ele><time>2026-04-08T16:01:49Z</time></trkpt><trkpt lat="46.24573402437792" lon="13.280067252024121"><ele>703.8000000000001</ele><time>2026-04-08T16:01:50Z</time></trkpt><trkpt lat="46.245783355505196" lon="13.279927011189967"><ele>702.2</ele><time>2026-04-08T16:01:51Z</time></trkpt><trkpt lat="46.24578647550429" lon="13.279793965410565"><ele>700.6</ele><time>2026-04-08T16:01:52Z</time></trkpt><trkpt lat="46.24584704221116" lon="13.279705237513292"><ele>699.0</ele><time>2026-04-08T16:01:53Z</time></trkpt><trkpt lat="46.245919739507464" lon="13.279641660367647"><ele>699.0</ele><time>2026-04-08T16:01:54Z</time></trkpt><trkpt lat="46.24596297367517" lon="13.279565805211725"><ele>699.0</ele><time>2026-04-08T16:01:55Z</time></trkpt><trkpt lat="46.245982611634595" lon="13.279459279705495"><ele>699.0</ele><time>2026-04-08T16:01:56Z</time></trkpt><trkpt lat="46.24599095646738" lon="13.279346580503978"><ele>699.0</ele><time>2026-04-08T16:01:57Z</time></trkpt><trkpt lat="46.24601300309778" lon="13.27921622595809"><ele>699.0</ele><time>2026-04-08T16:01:58Z</time></trkpt><trkpt lat="46.24606023712889" lon="13.279120769084216"><ele>699.0</ele><time>2026-04-08T16:01:59Z</time></trkpt><trkpt lat="46.24607580231061" lon="13.279023703039162"><ele>702.0</ele><time>2026-04-08T16:02:00Z</time></trkpt><trkpt lat="46.24608185992616" lon="13.278931127894337"><ele>705.0</ele><time>2026-04-08T16:02:01Z</time></trkpt><trkpt lat="46.246052610233086" lon="13.278836877045093"><ele>708.0</ele><time>2026-04-08T16:02:02Z</time></trkpt><trkpt lat="46.246038158871215" lon="13.27870473068269"><ele>711.0</ele><time>2026-04-08T16:02:04Z</time></trkpt><trkpt lat="46.24606030208273" lon="13.278574729937915"><ele>714.0</ele><time>2026-04-08T16:02:06Z</time></trkpt><trkpt lat="46.24614149746832" lon="13.278517377671056"><ele>717.0</ele><time>2026-04-08T16:02:08Z</time></trkpt><trkpt lat="46.246214539844125" lon="13.278563717843198"><ele>717.0</ele><time>2026-04-08T16:02:10Z</time></trkpt><trkpt lat="46.24626868656791" lon="13.27862756995199"><ele>717.0</ele><time>2026-04-08T16:02:12Z</time></trkpt><trkpt lat="46.24633978852055" lon="13.278710929732926"><ele>717.0</ele><time>2026-04-08T16:02:15Z</time></trkpt><trkpt lat="46.246404025389" lon="13.278794819856873"><ele>717.0</ele><time>2026-04-08T16:02:18Z</time></trkpt><trkpt lat="46.24645381790337" lon="13.278863830216876"><ele>717.0</ele><time>2026-04-08T16:02:20Z</time></trkpt><trkpt lat="46.24651999562356" lon="13.278966493351813"><ele>717.0</ele><time>2026-04-08T16:02:22Z</time></trkpt><trkpt lat="46.24656569168378" lon="13.27912421549663"><ele>711.4000000000001</ele><time>2026-04-08T16:02:24Z</time></trkpt><trkpt lat="46.24659630711211" lon="13.279225415778075"><ele>705.8000000000001</ele><time>2026-04-08T16:02:25Z</time></trkpt><trkpt lat="46.24663875250506" lon="13.279347490544174"><ele>700.2</ele><time>2026-04-08T16:02:26Z</time></trkpt><trkpt lat="46.24670440908085" lon="13.279460225089327"><ele>694.6</ele><time>2026-04-08T16:02:27Z</time></trkpt><trkpt lat="46.24678059101609" lon="13.27952296699315"><ele>689.0</ele><time>2026-04-08T16:02:28Z</time></trkpt><trkpt lat="46.24687592652901" lon="13.279532086173022"><ele>689.0</ele><time>2026-04-08T16:02:29Z</time></trkpt><trkpt lat="46.24698662569093" lon="13.279517030825762"><ele>689.0</ele><time>2026-04-08T16:02:30Z</time></trkpt><trkpt lat="46.24709732142491" lon="13.279520307809443"><ele>689.0</ele><time>2026-04-08T16:02:31Z</time></trkpt><trkpt lat="46.24719633316148" lon="13.27954697762186"><ele>689.0</ele><time>2026-04-08T16:02:32Z</time></trkpt><trkpt lat="46.247279563975425" lon="13.279572261958233"><ele>689.0</ele><time>2026-04-08T16:02:33Z</time></trkpt><trkpt lat="46.2473479112836" lon="13.279568641264385"><ele>689.6</ele><time>2026-04-08T16:02:34Z</time></trkpt><trkpt lat="46.247407763336135" lon="13.279520473454236"><ele>690.2</ele><time>2026-04-08T16:02:35Z</time></trkpt><trkpt lat="46.24744980832838" lon="13.279408678351313"><ele>690.8000000000001</ele><time>2026-04-08T16:02:36Z</time></trkpt><trkpt lat="46.24747493398219" lon="13.279273051621876"><ele>691.4000000000001</ele><time>2026-04-08T16:02:37Z</time></trkpt><trkpt lat="46.24750506867102" lon="13.279116745006673"><ele>692.0</ele><time>2026-04-08T16:02:38Z</time></trkpt><trkpt lat="46.247536368133034" lon="13.278974152122576"><ele>694.0</ele><time>2026-04-08T16:02:39Z</time></trkpt><trkpt lat="46.247566206139844" lon="13.278845435014622"><ele>696.0</ele><time>2026-04-08T16:02:40Z</time></trkpt><trkpt lat="46.247617805159585" lon="13.278759425950923"><ele>698.0</ele><time>2026-04-08T16:02:41Z</time></trkpt><trkpt lat="46.247686959947316" lon="13.278673565326004"><ele>700.0</ele><time>2026-04-08T16:02:42Z</time></trkpt><trkpt lat="46.24776760865975" lon="13.278643792645246"><ele>702.0</ele><time>2026-04-08T16:02:43Z</time></trkpt><trkpt lat="46.24785259392752" lon="13.278645115146333"><ele>704.0</ele><time>2026-04-08T16:02:44Z</time></trkpt><trkpt lat="46.2479355423933" lon="13.278693448722333"><ele>704.0</ele><time>2026-04-08T16:02:45Z</time></trkpt><trkpt lat="46.24803514443002" lon="13.278740171096148"><ele>704.0</ele><time>2026-04-08T16:02:46Z</time></trkpt><trkpt lat="46.248140983688344" lon="13.27878376940626"><ele>704.0</ele><time>2026-04-08T16:02:47Z</time></trkpt><trkpt lat="46.24821136001192" lon="13.278779428262377"><ele>704.0</ele><time>2026-04-08T16:02:48Z</time></trkpt><trkpt lat="46.24834338202527" lon="13.278699144787158"><ele>704.0</ele><time>2026-04-08T16:02:50Z</time></trkpt><trkpt lat="46.24841566886183" lon="13.278689777686303"><ele>703.1666666666666</ele><time>2026-04-08T16:02:51Z</time></trkpt><trkpt lat="46.248477789812945" lon="13.27874443782209"><ele>702.3333333333333</ele><time>2026-04-08T16:02:52Z</time></trkpt><trkpt lat="46.24853804642504" lon="13.278805566831636"><ele>701.5</ele><time>2026-04-08T16:02:53Z</time></trkpt><trkpt lat="46.24856689439663" lon="13.278910548695464"><ele>700.6666666666666</ele><time>2026-04-08T16:02:54Z</time></trkpt><trkpt lat="46.24856723238357" lon="13.279030465187747"><ele>699.8333333333334</ele><time>2026-04-08T16:02:55Z</time></trkpt><trkpt lat="46.24857970233563" lon="13.279142818181024"><ele>699.0</ele><time>2026-04-08T16:02:56Z</time></trkpt><trkpt lat="46.24863449752743" lon="13.279216466258593"><ele>699.2</ele><time>2026-04-08T16:02:57Z</time></trkpt><trkpt lat="46.2486960398144" lon="13.279319020407245"><ele>699.4000000000001</ele><time>2026-04-08T16:02:58Z</time></trkpt><trkpt lat="46.24877971362241" lon="13.279387058911782"><ele>699.6</ele><time>2026-04-08T16:02:59Z</time></trkpt><trkpt lat="46.24887463697817" lon="13.279430530507579"><ele>699.8</ele><time>2026-04-08T16:03:00Z</time></trkpt><trkpt lat="46.24898036245128" lon="13.27944143341222"><ele>700.0</ele><time>2026-04-08T16:03:01Z</time></trkpt><trkpt lat="46.24910187693732" lon="13.279415656784687"><ele>700.0</ele><time>2026-04-08T16:03:02Z</time></trkpt><trkpt lat="46.24920461143421" lon="13.279414115342393"><ele>700.0</ele><time>2026-04-08T16:03:03Z</time></trkpt><trkpt lat="46.24929191846173" lon="13.279476495176956"><ele>700.0</ele><time>2026-04-08T16:03:04Z</time></trkpt><trkpt lat="46.24936321391698" lon="13.279585435613187"><ele>700.0</ele><time>2026-04-08T16:03:05Z</time></trkpt><trkpt lat="46.2494263901181" lon="13.279715790663863"><ele>700.0</ele><time>2026-04-08T16:03:06Z</time></trkpt><trkpt lat="46.249508594620885" lon="13.27980935608344"><ele>697.6</ele><time>2026-04-08T16:03:07Z</time></trkpt><trkpt lat="46.24961164425252" lon="13.279886605465244"><ele>695.2</ele><time>2026-04-08T16:03:08Z</time></trkpt><trkpt lat="46.2496826713565" lon="13.279974263551818"><ele>692.8</ele><time>2026-04-08T16:03:09Z</time></trkpt><trkpt lat="46.24972637723841" lon="13.28007201991616"><ele>690.4</ele><time>2026-04-08T16:03:10Z</time></trkpt><trkpt lat="46.24973549764343" lon="13.280185357692837"><ele>688.0</ele><time>2026-04-08T16:03:11Z</time></trkpt><trkpt lat="46.24970330469045" lon="13.28029291276716"><ele>688.0</ele><time>2026-04-08T16:03:12Z</time></trkpt><trkpt lat="46.249703574460824" lon="13.280388734717853"><ele>688.0</ele><time>2026-04-08T16:03:13Z</time></trkpt><trkpt lat="46.249705715553866" lon="13.280489344902445"><ele>688.0</ele><time>2026-04-08T16:03:14Z</time></trkpt><trkpt lat="46.24973970906228" lon="13.2805659906977"><ele>688.0</ele><time>2026-04-08T16:03:15Z</time></trkpt><trkpt lat="46.24981522290021" lon="13.280602908815165"><ele>688.0</ele><time>2026-04-08T16:03:16Z</time></trkpt><trkpt lat="46.249914791752886" lon="13.280660560092159"><ele>688.0</ele><time>2026-04-08T16:03:17Z</time></trkpt><trkpt lat="46.25001874775328" lon="13.280723939927507"><ele>689.5999999999999</ele><time>2026-04-08T16:03:18Z</time></trkpt><trkpt lat="46.250133383963465" lon="13.280788263181455"><ele>691.1999999999999</ele><time>2026-04-08T16:03:19Z</time></trkpt><trkpt lat="46.25023989485823" lon="13.280853083837334"><ele>692.8</ele><time>2026-04-08T16:03:20Z</time></trkpt><trkpt lat="46.25032886579454" lon="13.280908713677041"><ele>694.4</ele><time>2026-04-08T16:03:21Z</time></trkpt><trkpt lat="46.25041344941946" lon="13.28095075107737"><ele>696.0</ele><time>2026-04-08T16:03:22Z</time></trkpt><trkpt lat="46.25050888171688" lon="13.280950507268289"><ele>696.0</ele><time>2026-04-08T16:03:23Z</time></trkpt><trkpt lat="46.250600224843566" lon="13.280903395692379"><ele>696.0</ele><time>2026-04-08T16:03:24Z</time></trkpt><trkpt lat="46.2506882634163" lon="13.280820761299449"><ele>696.0</ele><time>2026-04-08T16:03:25Z</time></trkpt><trkpt lat="46.250774818621025" lon="13.280701506707246"><ele>696.0</ele><time>2026-04-08T16:03:26Z</time></trkpt><trkpt lat="46.25087447218299" lon="13.280574842902096"><ele>698.0</ele><time>2026-04-08T16:03:27Z</time></trkpt><trkpt lat="46.25099029620738" lon="13.280439595865337"><ele>700.0</ele><time>2026-04-08T16:03:28Z</time></trkpt><trkpt lat="46.25110739060754" lon="13.28030778366965"><ele>702.0</ele><time>2026-04-08T16:03:29Z</time></trkpt><trkpt lat="46.251221776791525" lon="13.280213975689572"><ele>704.0</ele><time>2026-04-08T16:03:30Z</time></trkpt><trkpt lat="46.251351173209976" lon="13.280160574270445"><ele>700.0</ele><time>2026-04-08T16:03:31Z</time></trkpt><trkpt lat="46.2514910685071" lon="13.280143605979221"><ele>696.0</ele><time>2026-04-08T16:03:32Z</time></trkpt><trkpt lat="46.25161668035501" lon="13.280098196922998"><ele>692.0</ele><time>2026-04-08T16:03:33Z</time></trkpt><trkpt lat="46.25172114369778" lon="13.280016132771706"><ele>688.0</ele><time>2026-04-08T16:03:34Z</time></trkpt><trkpt lat="46.251849314963394" lon="13.279912445544129"><ele>688.0</ele><time>2026-04-08T16:03:35Z</time></trkpt><trkpt lat="46.251985341620205" lon="13.279791765593025"><ele>688.0</ele><time>2026-04-08T16:03:36Z</time></trkpt><trkpt lat="46.25211335544044" lon="13.279676847402698"><ele>688.0</ele><time>2026-04-08T16:03:37Z</time></trkpt><trkpt lat="46.25223259671517" lon="13.279570361419468"><ele>687.75</ele><time>2026-04-08T16:03:38Z</time></trkpt><trkpt lat="46.25234227835263" lon="13.279473393194069"><ele>687.5</ele><time>2026-04-08T16:03:39Z</time></trkpt><trkpt lat="46.252445960365534" lon="13.279384148668397"><ele>687.25</ele><time>2026-04-08T16:03:40Z</time></trkpt><trkpt lat="46.25255128082854" lon="13.279312806194147"><ele>687.0</ele><time>2026-04-08T16:03:41Z</time></trkpt><trkpt lat="46.25266154578618" lon="13.279286674092823"><ele>687.0</ele><time>2026-04-08T16:03:42Z</time></trkpt><trkpt lat="46.25276488694124" lon="13.279317610379096"><ele>687.0</ele><time>2026-04-08T16:03:42.999Z</time></trkpt><trkpt lat="46.25286927618209" lon="13.279318180622631"><ele>687.0</ele><time>2026-04-08T16:03:43.999Z</time></trkpt><trkpt lat="46.2529711411348" lon="13.279347695321286"><ele>687.0</ele><time>2026-04-08T16:03:44.999Z</time></trkpt><trkpt lat="46.253075788442004" lon="13.279367589090647"><ele>687.0</ele><time>2026-04-08T16:03:45.999Z</time></trkpt><trkpt lat="46.25318401957731" lon="13.279386414197607"><ele>685.8</ele><time>2026-04-08T16:03:46.999Z</time></trkpt><trkpt lat="46.25328661169175" lon="13.279400188167003"><ele>684.6</ele><time>2026-04-08T16:03:47.999Z</time></trkpt><trkpt lat="46.2533804066318" lon="13.279415492545047"><ele>683.4</ele><time>2026-04-08T16:03:48.999Z</time></trkpt><trkpt lat="46.253464879679406" lon="13.279451238708543"><ele>682.1999999999999</ele><time>2026-04-08T16:03:49.999Z</time></trkpt><trkpt lat="46.25355198705972" lon="13.279467099019532"><ele>681.0</ele><time>2026-04-08T16:03:50.999Z</time></trkpt><trkpt lat="46.253645290296475" lon="13.279465201638988"><ele>681.0</ele><time>2026-04-08T16:03:51.999Z</time></trkpt><trkpt lat="46.25375072121456" lon="13.279496854155656"><ele>681.0</ele><time>2026-04-08T16:03:52.999Z</time></trkpt><trkpt lat="46.253841331461274" lon="13.279523569704562"><ele>681.0</ele><time>2026-04-08T16:03:54Z</time></trkpt><trkpt lat="46.25392930881913" lon="13.279538444846214"><ele>681.0</ele><time>2026-04-08T16:03:55Z</time></trkpt><trkpt lat="46.25400512146589" lon="13.279538169829523"><ele>681.0</ele><time>2026-04-08T16:03:56Z</time></trkpt><trkpt lat="46.25410326138289" lon="13.279507592173337"><ele>678.6666666666666</ele><time>2026-04-08T16:03:58Z</time></trkpt><trkpt lat="46.25416593932181" lon="13.279495678921988"><ele>676.3333333333334</ele><time>2026-04-08T16:04:00Z</time></trkpt><trkpt lat="46.254228928836746" lon="13.279482624746072"><ele>674.0</ele><time>2026-04-08T16:04:05Z</time></trkpt><trkpt lat="46.2542802879998" lon="13.279576287031954"><ele>671.6666666666667</ele><time>2026-04-08T16:06:34Z</time></trkpt><trkpt lat="46.25434597030289" lon="13.27975070899658"><ele>669.3333333333334</ele><time>2026-04-08T16:06:36Z</time></trkpt><trkpt lat="46.25436927552502" lon="13.27987427614912"><ele>667.0</ele><time>2026-04-08T16:06:37Z</time></trkpt><trkpt lat="46.25440698912404" lon="13.279960871629795"><ele>667.0</ele><time>2026-04-08T16:06:38Z</time></trkpt><trkpt lat="46.25442823447981" lon="13.280047557054539"><ele>667.0</ele><time>2026-04-08T16:06:39Z</time></trkpt><trkpt lat="46.254452612822085" lon="13.280132934702728"><ele>667.0</ele><time>2026-04-08T16:06:40Z</time></trkpt><trkpt lat="46.25449151101966" lon="13.280285111393065"><ele>667.0</ele><time>2026-04-08T16:06:42Z</time></trkpt><trkpt lat="46.25456163172906" lon="13.28041075923183"><ele>667.0</ele><time>2026-04-08T16:06:44Z</time></trkpt><trkpt lat="46.254616529193065" lon="13.280575419541703"><ele>667.0</ele><time>2026-04-08T16:06:46Z</time></trkpt><trkpt lat="46.25460944674332" lon="13.280747002594953"><ele>667.0</ele><time>2026-04-08T16:06:48Z</time></trkpt><trkpt lat="46.254550298677664" lon="13.28084997373639"><ele>667.0</ele><time>2026-04-08T16:06:50Z</time></trkpt><trkpt lat="46.25442554395329" lon="13.280890790367849"><ele>667.0</ele><time>2026-04-08T16:06:52Z</time></trkpt><trkpt lat="46.25434872314596" lon="13.280942046872777"><ele>667.0</ele><time>2026-04-08T16:06:53Z</time></trkpt><trkpt lat="46.25427359017468" lon="13.281017307179473"><ele>667.0</ele><time>2026-04-08T16:06:54Z</time></trkpt><trkpt lat="46.254203290517864" lon="13.281103058219339"><ele>667.0</ele><time>2026-04-08T16:06:55Z</time></trkpt><trkpt lat="46.25414246969883" lon="13.281192689711768"><ele>667.0</ele><time>2026-04-08T16:06:56Z</time></trkpt><trkpt lat="46.25408914952482" lon="13.281296943296132"><ele>667.0</ele><time>2026-04-08T16:06:57Z</time></trkpt><trkpt lat="46.25405421465788" lon="13.28141046933612"><ele>667.0</ele><time>2026-04-08T16:06:58Z</time></trkpt><trkpt lat="46.25404456804841" lon="13.281544018455037"><ele>667.0</ele><time>2026-04-08T16:06:59Z</time></trkpt><trkpt lat="46.25404715078345" lon="13.281693812455597"><ele>665.6666666666667</ele><time>2026-04-08T16:07:00Z</time></trkpt><trkpt lat="46.25405140865619" lon="13.281827240432643"><ele>664.3333333333334</ele><time>2026-04-08T16:07:01Z</time></trkpt><trkpt lat="46.2540525216064" lon="13.281947167370197"><ele>663.0</ele><time>2026-04-08T16:07:02Z</time></trkpt><trkpt lat="46.254040797485935" lon="13.282059691649449"><ele>661.6666666666666</ele><time>2026-04-08T16:07:03Z</time></trkpt><trkpt lat="46.25398857794263" lon="13.282149005907922"><ele>660.3333333333333</ele><time>2026-04-08T16:07:04Z</time></trkpt><trkpt lat="46.25393701923537" lon="13.282228805378955"><ele>659.0</ele><time>2026-04-08T16:07:05Z</time></trkpt><trkpt lat="46.253892097575616" lon="13.282383800118826"><ele>659.0</ele><time>2026-04-08T16:07:07Z</time></trkpt><trkpt lat="46.25397070193596" lon="13.282493616949372"><ele>659.0</ele><time>2026-04-08T16:07:09Z</time></trkpt><trkpt lat="46.25403905905937" lon="13.28246225951376"><ele>659.0</ele><time>2026-04-08T16:07:10Z</time></trkpt><trkpt lat="46.25410373527528" lon="13.282379385753075"><ele>659.0</ele><time>2026-04-08T16:07:11Z</time></trkpt><trkpt lat="46.25415509573936" lon="13.282271180749907"><ele>659.0</ele><time>2026-04-08T16:07:12Z</time></trkpt><trkpt lat="46.25420308038904" lon="13.282151309599795"><ele>659.0</ele><time>2026-04-08T16:07:13Z</time></trkpt><trkpt lat="46.254237998774826" lon="13.282017215962803"><ele>659.0</ele><time>2026-04-08T16:07:14Z</time></trkpt><trkpt lat="46.254260625084115" lon="13.281860825586449"><ele>659.0</ele><time>2026-04-08T16:07:15Z</time></trkpt><trkpt lat="46.25429610656633" lon="13.281700560497299"><ele>659.0</ele><time>2026-04-08T16:07:16Z</time></trkpt><trkpt lat="46.25436347469598" lon="13.281578145974368"><ele>659.0</ele><time>2026-04-08T16:07:17Z</time></trkpt><trkpt lat="46.2544588173517" lon="13.281482633988702"><ele>660.6</ele><time>2026-04-08T16:07:18Z</time></trkpt><trkpt lat="46.254557008516876" lon="13.281400105614898"><ele>662.2</ele><time>2026-04-08T16:07:19Z</time></trkpt><trkpt lat="46.254630362757595" lon="13.281303924466043"><ele>663.8000000000001</ele><time>2026-04-08T16:07:20Z</time></trkpt><trkpt lat="46.254706985645456" lon="13.281217752474607"><ele>665.4000000000001</ele><time>2026-04-08T16:07:21Z</time></trkpt><trkpt lat="46.25480281455815" lon="13.281164939442757"><ele>667.0</ele><time>2026-04-08T16:07:22Z</time></trkpt><trkpt lat="46.25489724319074" lon="13.281110482578644"><ele>663.6</ele><time>2026-04-08T16:07:23Z</time></trkpt><trkpt lat="46.25497317447837" lon="13.28102985182701"><ele>660.2</ele><time>2026-04-08T16:07:24Z</time></trkpt><trkpt lat="46.25502379607862" lon="13.280925211484822"><ele>656.8</ele><time>2026-04-08T16:07:25Z</time></trkpt><trkpt lat="46.25505531872594" lon="13.28079328745582"><ele>653.4</ele><time>2026-04-08T16:07:26Z</time></trkpt><trkpt lat="46.25507166921705" lon="13.280646853916185"><ele>650.0</ele><time>2026-04-08T16:07:27Z</time></trkpt><trkpt lat="46.25508176764987" lon="13.28050149457325"><ele>649.8</ele><time>2026-04-08T16:07:28Z</time></trkpt><trkpt lat="46.255098902316945" lon="13.28038384819569"><ele>649.6</ele><time>2026-04-08T16:07:29Z</time></trkpt><trkpt lat="46.25510755053483" lon="13.280269577744644"><ele>649.4000000000001</ele><time>2026-04-08T16:07:30Z</time></trkpt><trkpt lat="46.25509330047535" lon="13.280147244015366"><ele>649.2</ele><time>2026-04-08T16:07:31Z</time></trkpt><trkpt lat="46.255041035972624" lon="13.280023011096212"><ele>649.0</ele><time>2026-04-08T16:07:32Z</time></trkpt><trkpt lat="46.254951697481886" lon="13.279900086289715"><ele>647.2</ele><time>2026-04-08T16:07:33Z</time></trkpt><trkpt lat="46.254877602036636" lon="13.279761257767161"><ele>645.4000000000001</ele><time>2026-04-08T16:07:34Z</time></trkpt><trkpt lat="46.25481571702117" lon="13.279666460855845"><ele>643.6</ele><time>2026-04-08T16:07:35Z</time></trkpt><trkpt lat="46.25477163675255" lon="13.279556618482236"><ele>641.8</ele><time>2026-04-08T16:07:36Z</time></trkpt><trkpt lat="46.25474345669014" lon="13.279423426754402"><ele>640.0</ele><time>2026-04-08T16:07:37Z</time></trkpt><trkpt lat="46.25476914985288" lon="13.279273243605846"><ele>644.8</ele><time>2026-04-08T16:07:38Z</time></trkpt><trkpt lat="46.25474985918185" lon="13.27912078054106"><ele>649.6</ele><time>2026-04-08T16:07:39Z</time></trkpt><trkpt lat="46.25473914078531" lon="13.278965178037337"><ele>654.4000000000001</ele><time>2026-04-08T16:07:40Z</time></trkpt><trkpt lat="46.2547206934825" lon="13.278808596465012"><ele>659.2</ele><time>2026-04-08T16:07:41Z</time></trkpt><trkpt lat="46.254698621141245" lon="13.27865021158654"><ele>664.0</ele><time>2026-04-08T16:07:42Z</time></trkpt><trkpt lat="46.254679835025534" lon="13.278498630386753"><ele>664.0</ele><time>2026-04-08T16:07:43Z</time></trkpt><trkpt lat="46.254658513437974" lon="13.278358429255002"><ele>664.0</ele><time>2026-04-08T16:07:44Z</time></trkpt><trkpt lat="46.25463787364393" lon="13.278228659515745"><ele>664.0</ele><time>2026-04-08T16:07:45Z</time></trkpt><trkpt lat="46.254614886566124" lon="13.278121254059679"><ele>664.0</ele><time>2026-04-08T16:07:45.999Z</time></trkpt><trkpt lat="46.25457145201883" lon="13.278000111980308"><ele>664.0</ele><time>2026-04-08T16:07:47.999Z</time></trkpt><trkpt lat="46.2545574843143" lon="13.277903830753802"><ele>664.0</ele><time>2026-04-08T16:07:50.999Z</time></trkpt><trkpt lat="46.25452421842006" lon="13.277826034527797"><ele>664.0</ele><time>2026-04-08T16:08:04.999Z</time></trkpt><trkpt lat="46.254573009171644" lon="13.277895000709334"><ele>664.0</ele><time>2026-04-08T16:08:08Z</time></trkpt><trkpt lat="46.254616724764084" lon="13.278028943277974"><ele>664.0</ele><time>2026-04-08T16:08:10Z</time></trkpt><trkpt lat="46.25463977430966" lon="13.278122407904815"><ele>664.0</ele><time>2026-04-08T16:08:11Z</time></trkpt><trkpt lat="46.25474081901291" lon="13.278338859315257"><ele>664.0</ele><time>2026-04-08T16:08:12Z</time></trkpt><trkpt lat="46.254787577326816" lon="13.278523817524823"><ele>659.2</ele><time>2026-04-08T16:08:13Z</time></trkpt><trkpt lat="46.254835978532675" lon="13.278673309627496"><ele>654.4000000000001</ele><time>2026-04-08T16:08:14Z</time></trkpt><trkpt lat="46.25487175990044" lon="13.278804503459106"><ele>649.6</ele><time>2026-04-08T16:08:15Z</time></trkpt><trkpt lat="46.254905123480086" lon="13.278932011015852"><ele>644.8</ele><time>2026-04-08T16:08:16Z</time></trkpt><trkpt lat="46.254939308163856" lon="13.279056842598399"><ele>640.0</ele><time>2026-04-08T16:08:17Z</time></trkpt><trkpt lat="46.25497765116536" lon="13.279181006626663"><ele>640.0</ele><time>2026-04-08T16:08:18Z</time></trkpt><trkpt lat="46.25500855758341" lon="13.279298237399582"><ele>640.0</ele><time>2026-04-08T16:08:19Z</time></trkpt><trkpt lat="46.2550909128641" lon="13.279370625872707"><ele>640.0</ele><time>2026-04-08T16:08:20Z</time></trkpt><trkpt lat="46.255195078851436" lon="13.279379641274806"><ele>640.0</ele><time>2026-04-08T16:08:21Z</time></trkpt><trkpt lat="46.25527495961513" lon="13.279425217576645"><ele>640.0</ele><time>2026-04-08T16:08:22Z</time></trkpt><trkpt lat="46.25534133531107" lon="13.279505066454709"><ele>640.0</ele><time>2026-04-08T16:08:23Z</time></trkpt><trkpt lat="46.25539350093346" lon="13.279607655796342"><ele>640.0</ele><time>2026-04-08T16:08:24Z</time></trkpt><trkpt lat="46.25544896981467" lon="13.279717742460257"><ele>640.0</ele><time>2026-04-08T16:08:25Z</time></trkpt><trkpt lat="46.255505189433876" lon="13.27984206692807"><ele>640.0</ele><time>2026-04-08T16:08:26Z</time></trkpt><trkpt lat="46.25555673289226" lon="13.279986314896059"><ele>640.0</ele><time>2026-04-08T16:08:27Z</time></trkpt><trkpt lat="46.25559576533112" lon="13.280148922385179"><ele>639.5</ele><time>2026-04-08T16:08:28Z</time></trkpt><trkpt lat="46.25562304345526" lon="13.280298359041169"><ele>639.0</ele><time>2026-04-08T16:08:29Z</time></trkpt><trkpt lat="46.2556557123895" lon="13.28045149743255"><ele>638.5</ele><time>2026-04-08T16:08:30Z</time></trkpt><trkpt lat="46.2557490299314" lon="13.28057260066179"><ele>638.0</ele><time>2026-04-08T16:08:31Z</time></trkpt><trkpt lat="46.25583452217336" lon="13.280688386232676"><ele>638.0</ele><time>2026-04-08T16:08:32Z</time></trkpt><trkpt lat="46.2559085314175" lon="13.280794797495613"><ele>638.0</ele><time>2026-04-08T16:08:33Z</time></trkpt><trkpt lat="46.25598413648887" lon="13.280914100385386"><ele>638.0</ele><time>2026-04-08T16:08:34Z</time></trkpt><trkpt lat="46.256048592528366" lon="13.281030848441107"><ele>638.0</ele><time>2026-04-08T16:08:35Z</time></trkpt><trkpt lat="46.25611420705236" lon="13.281127256257742"><ele>638.0</ele><time>2026-04-08T16:08:36Z</time></trkpt><trkpt lat="46.256192157896116" lon="13.281213411101048"><ele>638.0</ele><time>2026-04-08T16:08:37Z</time></trkpt><trkpt lat="46.25628977606314" lon="13.281252736236596"><ele>638.0</ele><time>2026-04-08T16:08:38Z</time></trkpt><trkpt lat="46.25637034125233" lon="13.281284562433484"><ele>638.0</ele><time>2026-04-08T16:08:39Z</time></trkpt><trkpt lat="46.25643840208754" lon="13.281331125830011"><ele>638.0</ele><time>2026-04-08T16:08:40Z</time></trkpt><trkpt lat="46.256471728817466" lon="13.281423727147867"><ele>638.0</ele><time>2026-04-08T16:08:41Z</time></trkpt><trkpt lat="46.25647318750005" lon="13.281531125038684"><ele>638.0</ele><time>2026-04-08T16:08:42Z</time></trkpt><trkpt lat="46.25645569621947" lon="13.28164757524227"><ele>637.8</ele><time>2026-04-08T16:08:43Z</time></trkpt><trkpt lat="46.25643899609391" lon="13.281779898422492"><ele>637.5999999999999</ele><time>2026-04-08T16:08:44Z</time></trkpt><trkpt lat="46.2564241707035" lon="13.281937940882132"><ele>637.4000000000001</ele><time>2026-04-08T16:08:45Z</time></trkpt><trkpt lat="46.25641388642957" lon="13.282102999957724"><ele>637.2</ele><time>2026-04-08T16:08:46Z</time></trkpt><trkpt lat="46.256400155693846" lon="13.282249007276501"><ele>637.0</ele><time>2026-04-08T16:08:47Z</time></trkpt><trkpt lat="46.25638912270669" lon="13.282395309024178"><ele>635.6</ele><time>2026-04-08T16:08:48Z</time></trkpt><trkpt lat="46.256366733104784" lon="13.282541343246253"><ele>634.2</ele><time>2026-04-08T16:08:49Z</time></trkpt><trkpt lat="46.25638466564185" lon="13.28269858026362"><ele>632.8</ele><time>2026-04-08T16:08:50Z</time></trkpt><trkpt lat="46.256385579822854" lon="13.2828458237676"><ele>631.4</ele><time>2026-04-08T16:08:51Z</time></trkpt><trkpt lat="46.25639094135352" lon="13.282982733284374"><ele>630.0</ele><time>2026-04-08T16:08:52Z</time></trkpt><trkpt lat="46.25640332495974" lon="13.283104377946243"><ele>628.5</ele><time>2026-04-08T16:08:53Z</time></trkpt><trkpt lat="46.256425514775835" lon="13.283215778864546"><ele>627.0</ele><time>2026-04-08T16:08:54Z</time></trkpt><trkpt lat="46.25645454755289" lon="13.283326851287494"><ele>625.5</ele><time>2026-04-08T16:08:55Z</time></trkpt><trkpt lat="46.256492714616094" lon="13.283441738429499"><ele>624.0</ele><time>2026-04-08T16:08:56Z</time></trkpt><trkpt lat="46.25654533449617" lon="13.283553148140559"><ele>622.5</ele><time>2026-04-08T16:08:57Z</time></trkpt><trkpt lat="46.25661375562512" lon="13.28365592958463"><ele>621.0</ele><time>2026-04-08T16:08:58Z</time></trkpt><trkpt lat="46.25669734587695" lon="13.283732652983034"><ele>620.6666666666666</ele><time>2026-04-08T16:08:59Z</time></trkpt><trkpt lat="46.25678655378112" lon="13.283790779317972"><ele>620.3333333333334</ele><time>2026-04-08T16:09:00Z</time></trkpt><trkpt lat="46.25686214973502" lon="13.283839813009115"><ele>620.0</ele><time>2026-04-08T16:09:01Z</time></trkpt><trkpt lat="46.25693357095514" lon="13.283884842887636"><ele>619.6666666666667</ele><time>2026-04-08T16:09:02Z</time></trkpt><trkpt lat="46.25700813003999" lon="13.28392896918353"><ele>619.3333333333334</ele><time>2026-04-08T16:09:03Z</time></trkpt><trkpt lat="46.25708438793597" lon="13.283973411311184"><ele>619.0</ele><time>2026-04-08T16:09:04Z</time></trkpt><trkpt lat="46.25716642145267" lon="13.284016032772248"><ele>620.0</ele><time>2026-04-08T16:09:05Z</time></trkpt><trkpt lat="46.25725642559687" lon="13.284090393665602"><ele>621.0</ele><time>2026-04-08T16:09:06Z</time></trkpt><trkpt lat="46.25733697441775" lon="13.284166623968009"><ele>622.0</ele><time>2026-04-08T16:09:07Z</time></trkpt><trkpt lat="46.25740273021894" lon="13.28426730650497"><ele>623.0</ele><time>2026-04-08T16:09:08Z</time></trkpt><trkpt lat="46.25747124366045" lon="13.284405455565334"><ele>624.0</ele><time>2026-04-08T16:09:09Z</time></trkpt><trkpt lat="46.25751022693461" lon="13.284576630772209"><ele>623.75</ele><time>2026-04-08T16:09:10Z</time></trkpt><trkpt lat="46.2575555466107" lon="13.284747377504983"><ele>623.5</ele><time>2026-04-08T16:09:11Z</time></trkpt><trkpt lat="46.25760279943304" lon="13.284920645761174"><ele>623.25</ele><time>2026-04-08T16:09:12Z</time></trkpt><trkpt lat="46.25762315154696" lon="13.285095859439481"><ele>623.0</ele><time>2026-04-08T16:09:13Z</time></trkpt><trkpt lat="46.257643377041255" lon="13.285266634707657"><ele>623.0</ele><time>2026-04-08T16:09:14Z</time></trkpt><trkpt lat="46.25765941426622" lon="13.285437669498261"><ele>623.0</ele><time>2026-04-08T16:09:15Z</time></trkpt><trkpt lat="46.25767371383365" lon="13.285607263798717"><ele>623.0</ele><time>2026-04-08T16:09:16Z</time></trkpt><trkpt lat="46.25770937123289" lon="13.285763772963563"><ele>623.0</ele><time>2026-04-08T16:09:17Z</time></trkpt><trkpt lat="46.257764963936765" lon="13.285904899688322"><ele>622.0</ele><time>2026-04-08T16:09:18Z</time></trkpt><trkpt lat="46.25781819977706" lon="13.28605401082165"><ele>621.0</ele><time>2026-04-08T16:09:19Z</time></trkpt><trkpt lat="46.25788233989661" lon="13.286200243039838"><ele>620.0</ele><time>2026-04-08T16:09:20Z</time></trkpt><trkpt lat="46.2579538423209" lon="13.28636217619087"><ele>619.0</ele><time>2026-04-08T16:09:21Z</time></trkpt><trkpt lat="46.258032316605465" lon="13.2865374329832"><ele>618.25</ele><time>2026-04-08T16:09:22Z</time></trkpt><trkpt lat="46.25811177237934" lon="13.286714452599044"><ele>617.5</ele><time>2026-04-08T16:09:23Z</time></trkpt><trkpt lat="46.258193581765155" lon="13.286893825988292"><ele>616.75</ele><time>2026-04-08T16:09:24Z</time></trkpt><trkpt lat="46.25827844883594" lon="13.287079903632709"><ele>616.0</ele><time>2026-04-08T16:09:25Z</time></trkpt><trkpt lat="46.258368940793446" lon="13.287277799003554"><ele>615.5</ele><time>2026-04-08T16:09:26Z</time></trkpt><trkpt lat="46.258453824430504" lon="13.287463273376721"><ele>615.0</ele><time>2026-04-08T16:09:27Z</time></trkpt><trkpt lat="46.25852821432272" lon="13.287625817178188"><ele>614.5</ele><time>2026-04-08T16:09:28Z</time></trkpt><trkpt lat="46.25860391923987" lon="13.287789877328615"><ele>614.0</ele><time>2026-04-08T16:09:29Z</time></trkpt><trkpt lat="46.25869342920869" lon="13.287946819470893"><ele>613.75</ele><time>2026-04-08T16:09:30Z</time></trkpt><trkpt lat="46.25877284169634" lon="13.288109768109322"><ele>613.5</ele><time>2026-04-08T16:09:31Z</time></trkpt><trkpt lat="46.25885431232414" lon="13.288281080568373"><ele>613.25</ele><time>2026-04-08T16:09:32Z</time></trkpt><trkpt lat="46.2589769205856" lon="13.288410257532796"><ele>613.0</ele><time>2026-04-08T16:09:33Z</time></trkpt><trkpt lat="46.25911191414941" lon="13.288520028143047"><ele>613.0</ele><time>2026-04-08T16:09:34Z</time></trkpt><trkpt lat="46.259237042891804" lon="13.288633861338855"><ele>613.0</ele><time>2026-04-08T16:09:35Z</time></trkpt><trkpt lat="46.259363415188844" lon="13.288752686934169"><ele>613.0</ele><time>2026-04-08T16:09:36Z</time></trkpt><trkpt lat="46.25946418896973" lon="13.288923052485329"><ele>613.5</ele><time>2026-04-08T16:09:37Z</time></trkpt><trkpt lat="46.259577763429434" lon="13.289056657493935"><ele>614.0</ele><time>2026-04-08T16:09:38Z</time></trkpt><trkpt lat="46.25969967594457" lon="13.289167496689965"><ele>614.5</ele><time>2026-04-08T16:09:39Z</time></trkpt><trkpt lat="46.259818187020635" lon="13.289255652023503"><ele>615.0</ele><time>2026-04-08T16:09:40Z</time></trkpt><trkpt lat="46.25991854672098" lon="13.289333196546048"><ele>615.0</ele><time>2026-04-08T16:09:41Z</time></trkpt><trkpt lat="46.25997504561687" lon="13.2893956383688"><ele>615.0</ele><time>2026-04-08T16:09:42Z</time></trkpt><trkpt lat="46.25999217122364" lon="13.289547898692053"><ele>615.0</ele><time>2026-04-08T16:09:44Z</time></trkpt><trkpt lat="46.26002342844266" lon="13.289712664546736"><ele>615.0</ele><time>2026-04-08T16:09:46Z</time></trkpt><trkpt lat="46.26007167623777" lon="13.289774934935371"><ele>615.0</ele><time>2026-04-08T16:09:47Z</time></trkpt><trkpt lat="46.260122955300275" lon="13.28982881298588"><ele>615.0</ele><time>2026-04-08T16:09:48Z</time></trkpt><trkpt lat="46.26020137161045" lon="13.289845062061362"><ele>620.25</ele><time>2026-04-08T16:09:49Z</time></trkpt><trkpt lat="46.26028309391505" lon="13.289861873457697"><ele>625.5</ele><time>2026-04-08T16:09:50Z</time></trkpt><trkpt lat="46.26039057756677" lon="13.289873852680897"><ele>630.75</ele><time>2026-04-08T16:09:50.999Z</time></trkpt><trkpt lat="46.260522860852625" lon="13.289921291945157"><ele>636.0</ele><time>2026-04-08T16:09:51.999Z</time></trkpt><trkpt lat="46.26065783000078" lon="13.289911891940735"><ele>636.5</ele><time>2026-04-08T16:09:52.999Z</time></trkpt><trkpt lat="46.260783183171775" lon="13.28991014362727"><ele>637.0</ele><time>2026-04-08T16:09:53.999Z</time></trkpt><trkpt lat="46.26092109200094" lon="13.289893183198119"><ele>637.5</ele><time>2026-04-08T16:09:54.999Z</time></trkpt><trkpt lat="46.26105796803312" lon="13.289866263623137"><ele>638.0</ele><time>2026-04-08T16:09:55.999Z</time></trkpt><trkpt lat="46.26117149478392" lon="13.289853042856349"><ele>638.0</ele><time>2026-04-08T16:09:56.999Z</time></trkpt><trkpt lat="46.26126979331339" lon="13.289850191938449"><ele>638.0</ele><time>2026-04-08T16:09:57.999Z</time></trkpt><trkpt lat="46.26136746566352" lon="13.289854922950866"><ele>638.0</ele><time>2026-04-08T16:09:58.999Z</time></trkpt><trkpt lat="46.26145252113453" lon="13.289917287641716"><ele>638.0</ele><time>2026-04-08T16:09:59.999Z</time></trkpt><trkpt lat="46.26156431088898" lon="13.289974181984958"><ele>638.0</ele><time>2026-04-08T16:10:00.999Z</time></trkpt><trkpt lat="46.261703178644225" lon="13.289982420456257"><ele>637.1999999999999</ele><time>2026-04-08T16:10:01.999Z</time></trkpt><trkpt lat="46.26183759963286" lon="13.289968762707092"><ele>636.4</ele><time>2026-04-08T16:10:02.999Z</time></trkpt><trkpt lat="46.26194230141821" lon="13.289960831813179"><ele>635.5999999999999</ele><time>2026-04-08T16:10:03.999Z</time></trkpt><trkpt lat="46.262043354876056" lon="13.28996717431799"><ele>634.8</ele><time>2026-04-08T16:10:04.999Z</time></trkpt><trkpt lat="46.262137259468396" lon="13.290005466371694"><ele>634.0</ele><time>2026-04-08T16:10:05.999Z</time></trkpt><trkpt lat="46.26222050045303" lon="13.290088819669288"><ele>630.25</ele><time>2026-04-08T16:10:06.999Z</time></trkpt><trkpt lat="46.262326651489715" lon="13.290185665796937"><ele>626.5</ele><time>2026-04-08T16:10:07.999Z</time></trkpt><trkpt lat="46.26243915854294" lon="13.290286002693412"><ele>622.75</ele><time>2026-04-08T16:10:08.999Z</time></trkpt><trkpt lat="46.26255657387629" lon="13.290379328519277"><ele>619.0</ele><time>2026-04-08T16:10:09.999Z</time></trkpt><trkpt lat="46.26270005971692" lon="13.290442850295605"><ele>619.0</ele><time>2026-04-08T16:10:10.999Z</time></trkpt><trkpt lat="46.2628423497667" lon="13.290483031598468"><ele>619.0</ele><time>2026-04-08T16:10:12Z</time></trkpt><trkpt lat="46.262936822618315" lon="13.29054337348382"><ele>619.0</ele><time>2026-04-08T16:10:13Z</time></trkpt><trkpt lat="46.26303977745233" lon="13.29057504411473"><ele>619.0</ele><time>2026-04-08T16:10:14Z</time></trkpt><trkpt lat="46.26311386409465" lon="13.290672577101406"><ele>616.2</ele><time>2026-04-08T16:10:15Z</time></trkpt><trkpt lat="46.2631949924025" lon="13.290721448661264"><ele>613.4</ele><time>2026-04-08T16:10:16Z</time></trkpt><trkpt lat="46.26329429758413" lon="13.290721875324131"><ele>610.6</ele><time>2026-04-08T16:10:17Z</time></trkpt><trkpt lat="46.26339706993935" lon="13.290671720805186"><ele>607.8</ele><time>2026-04-08T16:10:18Z</time></trkpt><trkpt lat="46.26348068103737" lon="13.290568008909656"><ele>605.0</ele><time>2026-04-08T16:10:19Z</time></trkpt><trkpt lat="46.263523455114566" lon="13.290423962657407"><ele>605.0</ele><time>2026-04-08T16:10:20Z</time></trkpt><trkpt lat="46.263562386253476" lon="13.29029561554029"><ele>605.0</ele><time>2026-04-08T16:10:21Z</time></trkpt><trkpt lat="46.26362476739032" lon="13.290243112340747"><ele>605.0</ele><time>2026-04-08T16:10:22Z</time></trkpt><trkpt lat="46.26373208930884" lon="13.290252515857903"><ele>605.0</ele><time>2026-04-08T16:10:23Z</time></trkpt><trkpt lat="46.263816599189866" lon="13.290195283329098"><ele>605.0</ele><time>2026-04-08T16:10:24Z</time></trkpt><trkpt lat="46.26388632587082" lon="13.29015806265823"><ele>605.0</ele><time>2026-04-08T16:10:25Z</time></trkpt><trkpt lat="46.263972937065205" lon="13.290146675476393"><ele>607.0</ele><time>2026-04-08T16:10:26Z</time></trkpt><trkpt lat="46.26407408095144" lon="13.290157975321556"><ele>609.0</ele><time>2026-04-08T16:10:27Z</time></trkpt><trkpt lat="46.26417469431023" lon="13.29017214810033"><ele>611.0</ele><time>2026-04-08T16:10:28Z</time></trkpt><trkpt lat="46.26428662132809" lon="13.290185989374322"><ele>613.0</ele><time>2026-04-08T16:10:29Z</time></trkpt><trkpt lat="46.2644091328726" lon="13.290192676639863"><ele>615.0</ele><time>2026-04-08T16:10:30Z</time></trkpt><trkpt lat="46.26453648993518" lon="13.290158076019901"><ele>615.0</ele><time>2026-04-08T16:10:31Z</time></trkpt><trkpt lat="46.26464182353204" lon="13.290113510128386"><ele>615.0</ele><time>2026-04-08T16:10:32Z</time></trkpt><trkpt lat="46.26474162553825" lon="13.290118248768291"><ele>615.0</ele><time>2026-04-08T16:10:33Z</time></trkpt><trkpt lat="46.26486443972639" lon="13.290174313284565"><ele>615.0</ele><time>2026-04-08T16:10:34Z</time></trkpt><trkpt lat="46.265022853468814" lon="13.290239617214109"><ele>614.5</ele><time>2026-04-08T16:10:35Z</time></trkpt><trkpt lat="46.26517345632305" lon="13.290246791103488"><ele>614.0</ele><time>2026-04-08T16:10:36Z</time></trkpt><trkpt lat="46.26529714747777" lon="13.29025165214102"><ele>613.5</ele><time>2026-04-08T16:10:37Z</time></trkpt><trkpt lat="46.26542184824248" lon="13.29027954903305"><ele>613.0</ele><time>2026-04-08T16:10:38Z</time></trkpt><trkpt lat="46.26554523509386" lon="13.290341578758639"><ele>612.25</ele><time>2026-04-08T16:10:39Z</time></trkpt><trkpt lat="46.26567065735839" lon="13.290416038480856"><ele>611.5</ele><time>2026-04-08T16:10:40Z</time></trkpt><trkpt lat="46.26580045530832" lon="13.29049037938441"><ele>610.75</ele><time>2026-04-08T16:10:41Z</time></trkpt><trkpt lat="46.26593847682129" lon="13.290568383103547"><ele>610.0</ele><time>2026-04-08T16:10:42Z</time></trkpt><trkpt lat="46.26608073971864" lon="13.290650859909622"><ele>616.3333333333334</ele><time>2026-04-08T16:10:43Z</time></trkpt><trkpt lat="46.26622764515877" lon="13.290740607201478"><ele>622.6666666666666</ele><time>2026-04-08T16:10:44Z</time></trkpt><trkpt lat="46.266381395578904" lon="13.290836064885404"><ele>629.0</ele><time>2026-04-08T16:10:45Z</time></trkpt><trkpt lat="46.26652532046081" lon="13.290925422285227"><ele>629.0</ele><time>2026-04-08T16:10:46Z</time></trkpt><trkpt lat="46.26665652550794" lon="13.291009545988015"><ele>629.0</ele><time>2026-04-08T16:10:47Z</time></trkpt><trkpt lat="46.266796615427545" lon="13.29109597905671"><ele>629.0</ele><time>2026-04-08T16:10:48Z</time></trkpt><trkpt lat="46.26693654151195" lon="13.291168834016347"><ele>629.0</ele><time>2026-04-08T16:10:49Z</time></trkpt><trkpt lat="46.267045788427446" lon="13.291233507570736"><ele>629.0</ele><time>2026-04-08T16:10:50Z</time></trkpt><trkpt lat="46.267149783814126" lon="13.29130028220601"><ele>629.0</ele><time>2026-04-08T16:10:51Z</time></trkpt><trkpt lat="46.26725167034592" lon="13.291355685558354"><ele>629.0</ele><time>2026-04-08T16:10:52Z</time></trkpt><trkpt lat="46.267343845177706" lon="13.291384753545223"><ele>629.0</ele><time>2026-04-08T16:10:53Z</time></trkpt><trkpt lat="46.26744063644477" lon="13.291373698652452"><ele>629.0</ele><time>2026-04-08T16:10:54Z</time></trkpt><trkpt lat="46.26752792845926" lon="13.291294121615568"><ele>628.3333333333333</ele><time>2026-04-08T16:10:55Z</time></trkpt><trkpt lat="46.267565051618256" lon="13.291162623564514"><ele>627.6666666666666</ele><time>2026-04-08T16:10:56Z</time></trkpt><trkpt lat="46.26759147634401" lon="13.291040299977873"><ele>627.0</ele><time>2026-04-08T16:10:57Z</time></trkpt><trkpt lat="46.267638140092956" lon="13.290942725519477"><ele>626.3333333333334</ele><time>2026-04-08T16:10:58Z</time></trkpt><trkpt lat="46.26770935195394" lon="13.290907156933509"><ele>625.6666666666667</ele><time>2026-04-08T16:10:59Z</time></trkpt><trkpt lat="46.267788258778616" lon="13.290900241713256"><ele>625.0</ele><time>2026-04-08T16:11:00Z</time></trkpt><trkpt lat="46.267871375143024" lon="13.290886042344283"><ele>625.0</ele><time>2026-04-08T16:11:01Z</time></trkpt><trkpt lat="46.26795024786416" lon="13.290878180324055"><ele>625.0</ele><time>2026-04-08T16:11:02Z</time></trkpt><trkpt lat="46.26803051302552" lon="13.290891679972843"><ele>625.0</ele><time>2026-04-08T16:11:03Z</time></trkpt><trkpt lat="46.268109399700904" lon="13.290957112622696"><ele>625.0</ele><time>2026-04-08T16:11:04Z</time></trkpt><trkpt lat="46.26819345520885" lon="13.291031751320924"><ele>625.0</ele><time>2026-04-08T16:11:05Z</time></trkpt><trkpt lat="46.268262375307025" lon="13.291108863324256"><ele>625.0</ele><time>2026-04-08T16:11:06Z</time></trkpt><trkpt lat="46.26833724914372" lon="13.291163410575999"><ele>626.2</ele><time>2026-04-08T16:11:07Z</time></trkpt><trkpt lat="46.26842658021617" lon="13.29117721847821"><ele>627.4</ele><time>2026-04-08T16:11:08Z</time></trkpt><trkpt lat="46.26852885696273" lon="13.291150674065866"><ele>628.6</ele><time>2026-04-08T16:11:09Z</time></trkpt><trkpt lat="46.26863238823" lon="13.291146950547116"><ele>629.8</ele><time>2026-04-08T16:11:10Z</time></trkpt><trkpt lat="46.26871804196936" lon="13.291106085156342"><ele>631.0</ele><time>2026-04-08T16:11:11Z</time></trkpt><trkpt lat="46.268802062844486" lon="13.291133796889993"><ele>631.0</ele><time>2026-04-08T16:11:12Z</time></trkpt><trkpt lat="46.26888599904335" lon="13.291230524052729"><ele>631.0</ele><time>2026-04-08T16:11:13Z</time></trkpt><trkpt lat="46.26899163388986" lon="13.291293923880323"><ele>631.0</ele><time>2026-04-08T16:11:14Z</time></trkpt><trkpt lat="46.26909111748474" lon="13.291362478220337"><ele>631.0</ele><time>2026-04-08T16:11:15Z</time></trkpt><trkpt lat="46.269197594998865" lon="13.291424792417356"><ele>631.0</ele><time>2026-04-08T16:11:16Z</time></trkpt><trkpt lat="46.26930976513394" lon="13.291486926559493"><ele>628.0</ele><time>2026-04-08T16:11:17Z</time></trkpt><trkpt lat="46.26941272067417" lon="13.291522227422831"><ele>625.0</ele><time>2026-04-08T16:11:18Z</time></trkpt><trkpt lat="46.26954018949202" lon="13.29152756311847"><ele>622.0</ele><time>2026-04-08T16:11:19Z</time></trkpt><trkpt lat="46.269698461732396" lon="13.291503511273174"><ele>619.0</ele><time>2026-04-08T16:11:20Z</time></trkpt><trkpt lat="46.26984755903612" lon="13.291487968867852"><ele>617.5</ele><time>2026-04-08T16:11:21Z</time></trkpt><trkpt lat="46.26997903989323" lon="13.291482128290042"><ele>616.0</ele><time>2026-04-08T16:11:22Z</time></trkpt><trkpt lat="46.270103493533206" lon="13.291497567762617"><ele>614.5</ele><time>2026-04-08T16:11:23Z</time></trkpt><trkpt lat="46.27022663238809" lon="13.291555270155138"><ele>613.0</ele><time>2026-04-08T16:11:24Z</time></trkpt><trkpt lat="46.270337081978134" lon="13.291663516782517"><ele>613.0</ele><time>2026-04-08T16:11:25Z</time></trkpt><trkpt lat="46.27043969402801" lon="13.291716523154557"><ele>613.0</ele><time>2026-04-08T16:11:26Z</time></trkpt><trkpt lat="46.270522602132594" lon="13.291780696466581"><ele>613.0</ele><time>2026-04-08T16:11:27Z</time></trkpt><trkpt lat="46.270608546611136" lon="13.291817887227863"><ele>613.0</ele><time>2026-04-08T16:11:28Z</time></trkpt><trkpt lat="46.2707024674329" lon="13.291796112319041"><ele>613.0</ele><time>2026-04-08T16:11:29Z</time></trkpt><trkpt lat="46.270812877236246" lon="13.29172168856002"><ele>614.75</ele><time>2026-04-08T16:11:30Z</time></trkpt><trkpt lat="46.27093917238131" lon="13.29167878915403"><ele>616.5</ele><time>2026-04-08T16:11:31Z</time></trkpt><trkpt lat="46.27105524772533" lon="13.291632635571329"><ele>618.25</ele><time>2026-04-08T16:11:32Z</time></trkpt><trkpt lat="46.27115597356196" lon="13.291575524384612"><ele>620.0</ele><time>2026-04-08T16:11:33Z</time></trkpt><trkpt lat="46.27128168758625" lon="13.291545192895299"><ele>620.0</ele><time>2026-04-08T16:11:34Z</time></trkpt><trkpt lat="46.27140765610205" lon="13.291512385377594"><ele>620.0</ele><time>2026-04-08T16:11:35Z</time></trkpt><trkpt lat="46.27153874138376" lon="13.291487858070004"><ele>620.0</ele><time>2026-04-08T16:11:36Z</time></trkpt><trkpt lat="46.27166560361892" lon="13.291491887486027"><ele>620.0</ele><time>2026-04-08T16:11:37Z</time></trkpt><trkpt lat="46.27178399655946" lon="13.291498220858285"><ele>620.2</ele><time>2026-04-08T16:11:38Z</time></trkpt><trkpt lat="46.27188182471699" lon="13.291554605322567"><ele>620.4</ele><time>2026-04-08T16:11:39Z</time></trkpt><trkpt lat="46.271977790019804" lon="13.291649066666377"><ele>620.6</ele><time>2026-04-08T16:11:40Z</time></trkpt><trkpt lat="46.27207877278026" lon="13.291729930573103"><ele>620.8</ele><time>2026-04-08T16:11:41Z</time></trkpt><trkpt lat="46.27217796977025" lon="13.29179961359994"><ele>621.0</ele><time>2026-04-08T16:11:42Z</time></trkpt><trkpt lat="46.27229213021613" lon="13.291836239779267"><ele>621.8</ele><time>2026-04-08T16:11:43Z</time></trkpt><trkpt lat="46.27240826911658" lon="13.291875258812434"><ele>622.6</ele><time>2026-04-08T16:11:44Z</time></trkpt><trkpt lat="46.272508834523265" lon="13.29189280981744"><ele>623.4</ele><time>2026-04-08T16:11:45Z</time></trkpt><trkpt lat="46.27259639428457" lon="13.291906032325713"><ele>624.2</ele><time>2026-04-08T16:11:46Z</time></trkpt><trkpt lat="46.27267955442186" lon="13.291918590439176"><ele>625.0</ele><time>2026-04-08T16:11:47Z</time></trkpt><trkpt lat="46.27275126416858" lon="13.291918753768538"><ele>625.0</ele><time>2026-04-08T16:11:48Z</time></trkpt><trkpt lat="46.27283300307187" lon="13.291954036302142"><ele>625.0</ele><time>2026-04-08T16:11:50Z</time></trkpt><trkpt lat="46.272900063337005" lon="13.291969198974684"><ele>625.0</ele><time>2026-04-08T16:11:51.999Z</time></trkpt><trkpt lat="46.273001947069424" lon="13.29193330739753"><ele>625.0</ele><time>2026-04-08T16:11:53.999Z</time></trkpt><trkpt lat="46.27306826292488" lon="13.291946778813639"><ele>625.0</ele><time>2026-04-08T16:11:54.999Z</time></trkpt><trkpt lat="46.273147135662136" lon="13.29188822901924"><ele>625.0</ele><time>2026-04-08T16:11:55.999Z</time></trkpt><trkpt lat="46.27324365782336" lon="13.29186466573811"><ele>624.75</ele><time>2026-04-08T16:11:56.999Z</time></trkpt><trkpt lat="46.273359246472154" lon="13.291834784650597"><ele>624.5</ele><time>2026-04-08T16:11:57.999Z</time></trkpt><trkpt lat="46.2734882528252" lon="13.291808641526547"><ele>624.25</ele><time>2026-04-08T16:11:58.999Z</time></trkpt><trkpt lat="46.27361591183651" lon="13.291815024630985"><ele>624.0</ele><time>2026-04-08T16:11:59.999Z</time></trkpt><trkpt lat="46.27372367616008" lon="13.291790673541778"><ele>624.0</ele><time>2026-04-08T16:12:00.999Z</time></trkpt><trkpt lat="46.273825700773266" lon="13.291818326262188"><ele>624.0</ele><time>2026-04-08T16:12:01.999Z</time></trkpt><trkpt lat="46.27393034141652" lon="13.29186948118491"><ele>624.0</ele><time>2026-04-08T16:12:02.999Z</time></trkpt><trkpt lat="46.27403612163973" lon="13.291929954576506"><ele>624.0</ele><time>2026-04-08T16:12:03.999Z</time></trkpt><trkpt lat="46.27415684924603" lon="13.2919314344509"><ele>624.0</ele><time>2026-04-08T16:12:04.999Z</time></trkpt><trkpt lat="46.274270325720735" lon="13.291912572929174"><ele>625.0</ele><time>2026-04-08T16:12:05.999Z</time></trkpt><trkpt lat="46.27437631029196" lon="13.291863101463669"><ele>626.0</ele><time>2026-04-08T16:12:06.999Z</time></trkpt><trkpt lat="46.274481930985814" lon="13.291780221374944"><ele>627.0</ele><time>2026-04-08T16:12:07.999Z</time></trkpt><trkpt lat="46.27457200976039" lon="13.291663743515022"><ele>628.0</ele><time>2026-04-08T16:12:08.999Z</time></trkpt><trkpt lat="46.27462813591216" lon="13.291514715797678"><ele>625.1999999999999</ele><time>2026-04-08T16:12:09.999Z</time></trkpt><trkpt lat="46.274672275706195" lon="13.291359650471799"><ele>622.4</ele><time>2026-04-08T16:12:10.999Z</time></trkpt><trkpt lat="46.274690150652184" lon="13.29120902296288"><ele>619.5999999999999</ele><time>2026-04-08T16:12:11.999Z</time></trkpt><trkpt lat="46.27467010155718" lon="13.291062702642169"><ele>616.8</ele><time>2026-04-08T16:12:12.999Z</time></trkpt><trkpt lat="46.27461652489329" lon="13.290908789652654"><ele>614.0</ele><time>2026-04-08T16:12:13.999Z</time></trkpt><trkpt lat="46.27454280634644" lon="13.29074987754506"><ele>614.0</ele><time>2026-04-08T16:12:14.999Z</time></trkpt><trkpt lat="46.27448740522216" lon="13.29062098582591"><ele>614.0</ele><time>2026-04-08T16:12:15.999Z</time></trkpt><trkpt lat="46.27443022698408" lon="13.290486012992318"><ele>614.0</ele><time>2026-04-08T16:12:16.999Z</time></trkpt><trkpt lat="46.27436886601789" lon="13.290335505851656"><ele>614.0</ele><time>2026-04-08T16:12:18Z</time></trkpt><trkpt lat="46.27431932038265" lon="13.290176630446078"><ele>612.2</ele><time>2026-04-08T16:12:19Z</time></trkpt><trkpt lat="46.27429734087019" lon="13.290035950571193"><ele>610.4</ele><time>2026-04-08T16:12:20Z</time></trkpt><trkpt lat="46.27428878311946" lon="13.289915887948998"><ele>608.6</ele><time>2026-04-08T16:12:21Z</time></trkpt><trkpt lat="46.27431414993575" lon="13.28982733482203"><ele>606.8</ele><time>2026-04-08T16:12:22Z</time></trkpt><trkpt lat="46.2744208817448" lon="13.289771180108287"><ele>605.0</ele><time>2026-04-08T16:12:24Z</time></trkpt><trkpt lat="46.27450885374835" lon="13.289758901380736"><ele>604.25</ele><time>2026-04-08T16:12:25Z</time></trkpt><trkpt lat="46.27461063297932" lon="13.289742053494525"><ele>603.5</ele><time>2026-04-08T16:12:26Z</time></trkpt><trkpt lat="46.274726773130716" lon="13.289669717593775"><ele>602.75</ele><time>2026-04-08T16:12:27Z</time></trkpt><trkpt lat="46.27485513005245" lon="13.289592125316771"><ele>602.0</ele><time>2026-04-08T16:12:28Z</time></trkpt><trkpt lat="46.274976542456606" lon="13.28951578879412"><ele>602.0</ele><time>2026-04-08T16:12:29Z</time></trkpt><trkpt lat="46.27509124923202" lon="13.28945762694289"><ele>602.0</ele><time>2026-04-08T16:12:30Z</time></trkpt><trkpt lat="46.275191692970694" lon="13.289388240133023"><ele>602.0</ele><time>2026-04-08T16:12:31Z</time></trkpt><trkpt lat="46.275279423177174" lon="13.28928737181174"><ele>602.0</ele><time>2026-04-08T16:12:32Z</time></trkpt><trkpt lat="46.275359883373596" lon="13.289142177388316"><ele>602.0</ele><time>2026-04-08T16:12:33Z</time></trkpt><trkpt lat="46.27540727526666" lon="13.288983574651095"><ele>602.0</ele><time>2026-04-08T16:12:34Z</time></trkpt><trkpt lat="46.27544090211712" lon="13.288844287366882"><ele>602.0</ele><time>2026-04-08T16:12:35Z</time></trkpt><trkpt lat="46.275474531461626" lon="13.288714927375095"><ele>602.0</ele><time>2026-04-08T16:12:36Z</time></trkpt><trkpt lat="46.27547437601595" lon="13.28858757319272"><ele>602.0</ele><time>2026-04-08T16:12:37Z</time></trkpt><trkpt lat="46.27544974513616" lon="13.288442334904577"><ele>600.4</ele><time>2026-04-08T16:12:38Z</time></trkpt><trkpt lat="46.27534477439278" lon="13.288331812328481"><ele>598.8000000000001</ele><time>2026-04-08T16:12:39Z</time></trkpt><trkpt lat="46.27528402963241" lon="13.288226230481056"><ele>597.2</ele><time>2026-04-08T16:12:40Z</time></trkpt><trkpt lat="46.27521625656567" lon="13.288158964212087"><ele>595.6</ele><time>2026-04-08T16:12:41Z</time></trkpt><trkpt lat="46.275194317729344" lon="13.28806499823522"><ele>594.0</ele><time>2026-04-08T16:12:42Z</time></trkpt><trkpt lat="46.27526191278395" lon="13.287929351614203"><ele>593.1666666666666</ele><time>2026-04-08T16:12:44Z</time></trkpt><trkpt lat="46.2753166093145" lon="13.287854435582826"><ele>592.3333333333334</ele><time>2026-04-08T16:12:45Z</time></trkpt><trkpt lat="46.27538936660067" lon="13.287828917285822"><ele>591.5</ele><time>2026-04-08T16:12:46Z</time></trkpt><trkpt lat="46.27546867456554" lon="13.28782119026538"><ele>590.6666666666667</ele><time>2026-04-08T16:12:47Z</time></trkpt><trkpt lat="46.2755397624739" lon="13.287830137676542"><ele>589.8333333333334</ele><time>2026-04-08T16:12:48Z</time></trkpt><trkpt lat="46.27561252745576" lon="13.287767942488932"><ele>589.0</ele><time>2026-04-08T16:12:49Z</time></trkpt><trkpt lat="46.27566958859133" lon="13.287645625898143"><ele>588.4</ele><time>2026-04-08T16:12:50Z</time></trkpt><trkpt lat="46.27569590620905" lon="13.287507173783434"><ele>587.8</ele><time>2026-04-08T16:12:51Z</time></trkpt><trkpt lat="46.27569981359067" lon="13.287357311522408"><ele>587.2</ele><time>2026-04-08T16:12:52Z</time></trkpt><trkpt lat="46.27568747447092" lon="13.287187491264826"><ele>586.6</ele><time>2026-04-08T16:12:53Z</time></trkpt><trkpt lat="46.27563662102859" lon="13.28703582074029"><ele>586.0</ele><time>2026-04-08T16:12:54Z</time></trkpt><trkpt lat="46.275580919554" lon="13.28687967944974"><ele>586.0</ele><time>2026-04-08T16:12:55Z</time></trkpt><trkpt lat="46.275495484600384" lon="13.286745205830847"><ele>586.0</ele><time>2026-04-08T16:12:56Z</time></trkpt><trkpt lat="46.27538881461012" lon="13.28663899397005"><ele>586.0</ele><time>2026-04-08T16:12:57Z</time></trkpt><trkpt lat="46.27529195563364" lon="13.286538459373"><ele>586.0</ele><time>2026-04-08T16:12:58Z</time></trkpt><trkpt lat="46.27524819285016" lon="13.28636268820867"><ele>587.75</ele><time>2026-04-08T16:12:59Z</time></trkpt><trkpt lat="46.27516286222139" lon="13.28620936183908"><ele>589.5</ele><time>2026-04-08T16:13:00Z</time></trkpt><trkpt lat="46.275058446057734" lon="13.286103223637863"><ele>591.25</ele><time>2026-04-08T16:13:01Z</time></trkpt><trkpt lat="46.27499516824257" lon="13.285970354968736"><ele>593.0</ele><time>2026-04-08T16:13:02Z</time></trkpt><trkpt lat="46.27496397457854" lon="13.285799951528862"><ele>593.0</ele><time>2026-04-08T16:13:03Z</time></trkpt><trkpt lat="46.274912572896454" lon="13.285637657979057"><ele>593.0</ele><time>2026-04-08T16:13:04Z</time></trkpt><trkpt lat="46.27482853602774" lon="13.28551508826619"><ele>593.0</ele><time>2026-04-08T16:13:05Z</time></trkpt><trkpt lat="46.27472590062219" lon="13.285416145942106"><ele>593.0</ele><time>2026-04-08T16:13:06Z</time></trkpt><trkpt lat="46.27461468209934" lon="13.285347554009546"><ele>588.4</ele><time>2026-04-08T16:13:07Z</time></trkpt><trkpt lat="46.27452524832593" lon="13.285281926550345"><ele>583.8</ele><time>2026-04-08T16:13:08Z</time></trkpt><trkpt lat="46.274436341654436" lon="13.285256591030494"><ele>579.2</ele><time>2026-04-08T16:13:09Z</time></trkpt><trkpt lat="46.27437407280205" lon="13.28518006208083"><ele>574.6</ele><time>2026-04-08T16:13:10Z</time></trkpt><trkpt lat="46.27433366730541" lon="13.285073708391915"><ele>570.0</ele><time>2026-04-08T16:13:11Z</time></trkpt><trkpt lat="46.27431002659745" lon="13.284932556122"><ele>570.0</ele><time>2026-04-08T16:13:12Z</time></trkpt><trkpt lat="46.27425213566498" lon="13.284771474264234"><ele>570.0</ele><time>2026-04-08T16:13:13Z</time></trkpt><trkpt lat="46.274181320888424" lon="13.284632737139185"><ele>570.0</ele><time>2026-04-08T16:13:14Z</time></trkpt><trkpt lat="46.274138720949736" lon="13.284505061336658"><ele>570.0</ele><time>2026-04-08T16:13:15Z</time></trkpt><trkpt lat="46.27410911075654" lon="13.28434099537803"><ele>570.5</ele><time>2026-04-08T16:13:16Z</time></trkpt><trkpt lat="46.27408454320828" lon="13.284145460800234"><ele>571.0</ele><time>2026-04-08T16:13:17Z</time></trkpt><trkpt lat="46.274043115834544" lon="13.283973175158204"><ele>571.5</ele><time>2026-04-08T16:13:18Z</time></trkpt><trkpt lat="46.27399291437312" lon="13.28382866183198"><ele>572.0</ele><time>2026-04-08T16:13:19Z</time></trkpt><trkpt lat="46.27394308002405" lon="13.283706833212161"><ele>572.0</ele><time>2026-04-08T16:13:20Z</time></trkpt><trkpt lat="46.273919506117686" lon="13.283599510818426"><ele>572.0</ele><time>2026-04-08T16:13:21Z</time></trkpt><trkpt lat="46.27392970234129" lon="13.28348888570262"><ele>572.0</ele><time>2026-04-08T16:13:22Z</time></trkpt><trkpt lat="46.27397668753161" lon="13.283390646399482"><ele>572.0</ele><time>2026-04-08T16:13:23Z</time></trkpt><trkpt lat="46.274054183884815" lon="13.28331511538218"><ele>572.0</ele><time>2026-04-08T16:13:24Z</time></trkpt><trkpt lat="46.274162905912114" lon="13.283288561663353"><ele>572.0</ele><time>2026-04-08T16:13:25Z</time></trkpt><trkpt lat="46.274277189841065" lon="13.283386491427965"><ele>572.0</ele><time>2026-04-08T16:13:26Z</time></trkpt><trkpt lat="46.27442419882491" lon="13.28341390402125"><ele>572.0</ele><time>2026-04-08T16:13:27Z</time></trkpt><trkpt lat="46.27455888534051" lon="13.283443995340063"><ele>572.0</ele><time>2026-04-08T16:13:28Z</time></trkpt><trkpt lat="46.27467901947423" lon="13.283451524689358"><ele>572.0</ele><time>2026-04-08T16:13:29Z</time></trkpt><trkpt lat="46.27479731635714" lon="13.283491413282597"><ele>571.5</ele><time>2026-04-08T16:13:30Z</time></trkpt><trkpt lat="46.27490190572175" lon="13.283542519033318"><ele>571.0</ele><time>2026-04-08T16:13:31Z</time></trkpt><trkpt lat="46.27500181530554" lon="13.28362181240351"><ele>570.5</ele><time>2026-04-08T16:13:32Z</time></trkpt><trkpt lat="46.27506774671679" lon="13.28377914552692"><ele>570.0</ele><time>2026-04-08T16:13:33Z</time></trkpt><trkpt lat="46.275130757093564" lon="13.283893003789613"><ele>570.0</ele><time>2026-04-08T16:13:34Z</time></trkpt><trkpt lat="46.27519196049288" lon="13.283968834276191"><ele>570.0</ele><time>2026-04-08T16:13:35Z</time></trkpt><trkpt lat="46.27526721036022" lon="13.284023621903954"><ele>570.0</ele><time>2026-04-08T16:13:36Z</time></trkpt><trkpt lat="46.275377192798366" lon="13.284000959104864"><ele>570.0</ele><time>2026-04-08T16:13:37Z</time></trkpt><trkpt lat="46.275472791589614" lon="13.283878954024255"><ele>570.0</ele><time>2026-04-08T16:13:38Z</time></trkpt><trkpt lat="46.27556646329773" lon="13.283701797332968"><ele>568.2</ele><time>2026-04-08T16:13:39Z</time></trkpt><trkpt lat="46.27566152613605" lon="13.28359568668472"><ele>566.4</ele><time>2026-04-08T16:13:40Z</time></trkpt><trkpt lat="46.27574140382541" lon="13.283487347841705"><ele>564.6</ele><time>2026-04-08T16:13:41Z</time></trkpt><trkpt lat="46.27581839602951" lon="13.283395929957866"><ele>562.8</ele><time>2026-04-08T16:13:42Z</time></trkpt><trkpt lat="46.2758922945736" lon="13.283333153188794"><ele>561.0</ele><time>2026-04-08T16:13:43Z</time></trkpt><trkpt lat="46.27594807511902" lon="13.283286046743928"><ele>561.0</ele><time>2026-04-08T16:13:44Z</time></trkpt><trkpt lat="46.27600013543313" lon="13.283350242632478"><ele>561.0</ele><time>2026-04-08T16:13:45Z</time></trkpt><trkpt lat="46.27606668683619" lon="13.283418452881303"><ele>561.0</ele><time>2026-04-08T16:13:46Z</time></trkpt><trkpt lat="46.276139599173504" lon="13.283540967499532"><ele>561.0</ele><time>2026-04-08T16:13:47Z</time></trkpt><trkpt lat="46.276229414804206" lon="13.283657811002145"><ele>561.0</ele><time>2026-04-08T16:13:48Z</time></trkpt><trkpt lat="46.276309847010396" lon="13.283739408369515"><ele>561.0</ele><time>2026-04-08T16:13:49Z</time></trkpt><trkpt lat="46.27636926243975" lon="13.283817925925758"><ele>561.0</ele><time>2026-04-08T16:13:50Z</time></trkpt><trkpt lat="46.27643907007316" lon="13.28384460474237"><ele>561.0</ele><time>2026-04-08T16:13:51Z</time></trkpt><trkpt lat="46.27652317001865" lon="13.283810073358811"><ele>561.0</ele><time>2026-04-08T16:13:52Z</time></trkpt><trkpt lat="46.276574264761344" lon="13.283630022456649"><ele>561.0</ele><time>2026-04-08T16:13:53Z</time></trkpt><trkpt lat="46.27662281720976" lon="13.283451798768466"><ele>560.5</ele><time>2026-04-08T16:13:53.999Z</time></trkpt><trkpt lat="46.27666272933225" lon="13.283305266868728"><ele>560.0</ele><time>2026-04-08T16:13:54.999Z</time></trkpt><trkpt lat="46.27670096047649" lon="13.283163795168486"><ele>559.5</ele><time>2026-04-08T16:13:55.999Z</time></trkpt><trkpt lat="46.27674022204981" lon="13.282999790749681"><ele>559.0</ele><time>2026-04-08T16:13:56.999Z</time></trkpt><trkpt lat="46.27676190113897" lon="13.28281010643872"><ele>555.25</ele><time>2026-04-08T16:13:57.999Z</time></trkpt><trkpt lat="46.276795493866345" lon="13.282628078196902"><ele>551.5</ele><time>2026-04-08T16:13:58.999Z</time></trkpt><trkpt lat="46.27682837836902" lon="13.282443155375832"><ele>547.75</ele><time>2026-04-08T16:13:59.999Z</time></trkpt><trkpt lat="46.27684778262824" lon="13.28227072598801"><ele>544.0</ele><time>2026-04-08T16:14:00.999Z</time></trkpt><trkpt lat="46.2768507436781" lon="13.282125194001008"><ele>540.6</ele><time>2026-04-08T16:14:01.999Z</time></trkpt><trkpt lat="46.27685462218501" lon="13.28199990233111"><ele>537.2</ele><time>2026-04-08T16:14:02.999Z</time></trkpt><trkpt lat="46.276894191581206" lon="13.281885853942448"><ele>533.8000000000001</ele><time>2026-04-08T16:14:03.999Z</time></trkpt><trkpt lat="46.27695450985734" lon="13.28178748031726"><ele>530.4</ele><time>2026-04-08T16:14:04.999Z</time></trkpt><trkpt lat="46.27703792878618" lon="13.281718370693557"><ele>527.0</ele><time>2026-04-08T16:14:05.999Z</time></trkpt><trkpt lat="46.27712658750621" lon="13.281673682846371"><ele>527.0</ele><time>2026-04-08T16:14:06.999Z</time></trkpt><trkpt lat="46.27720710234152" lon="13.28165576117291"><ele>527.0</ele><time>2026-04-08T16:14:07.999Z</time></trkpt><trkpt lat="46.27726362399463" lon="13.281732020855676"><ele>527.0</ele><time>2026-04-08T16:14:08.999Z</time></trkpt><trkpt lat="46.27733992643866" lon="13.2817694041356"><ele>527.0</ele><time>2026-04-08T16:14:09.999Z</time></trkpt><trkpt lat="46.277407237519334" lon="13.2818069573945"><ele>527.0</ele><time>2026-04-08T16:14:10.999Z</time></trkpt><trkpt lat="46.2774745755805" lon="13.281820938964012"><ele>527.0</ele><time>2026-04-08T16:14:11.999Z</time></trkpt><trkpt lat="46.27754291947139" lon="13.281748533959677"><ele>529.4</ele><time>2026-04-08T16:14:12.999Z</time></trkpt><trkpt lat="46.27756365103801" lon="13.281631302516395"><ele>531.8000000000001</ele><time>2026-04-08T16:14:13.999Z</time></trkpt><trkpt lat="46.277562202740384" lon="13.281527348863438"><ele>534.2</ele><time>2026-04-08T16:14:14.999Z</time></trkpt><trkpt lat="46.277537635331505" lon="13.281406234660752"><ele>536.6</ele><time>2026-04-08T16:14:15.999Z</time></trkpt><trkpt lat="46.27753616821379" lon="13.281244000994917"><ele>539.0</ele><time>2026-04-08T16:14:16.999Z</time></trkpt><trkpt lat="46.277516900059645" lon="13.281084392458766"><ele>539.0</ele><time>2026-04-08T16:14:17.999Z</time></trkpt><trkpt lat="46.277530123613495" lon="13.280912758456768"><ele>539.0</ele><time>2026-04-08T16:14:18.999Z</time></trkpt><trkpt lat="46.27754929098459" lon="13.280745775210953"><ele>539.0</ele><time>2026-04-08T16:14:19.999Z</time></trkpt><trkpt lat="46.27755122000823" lon="13.280604239210428"><ele>539.0</ele><time>2026-04-08T16:14:20.999Z</time></trkpt><trkpt lat="46.27754723227645" lon="13.28047471459979"><ele>539.0</ele><time>2026-04-08T16:14:21.999Z</time></trkpt><trkpt lat="46.277571818434495" lon="13.280367371165733"><ele>535.8</ele><time>2026-04-08T16:14:23Z</time></trkpt><trkpt lat="46.27759284871229" lon="13.2802665884807"><ele>532.5999999999999</ele><time>2026-04-08T16:14:24Z</time></trkpt><trkpt lat="46.277663174965085" lon="13.280190387321205"><ele>529.4</ele><time>2026-04-08T16:14:25Z</time></trkpt><trkpt lat="46.27777289071524" lon="13.280159821091456"><ele>526.1999999999999</ele><time>2026-04-08T16:14:26Z</time></trkpt><trkpt lat="46.2778927935201" lon="13.280111533573173"><ele>523.0</ele><time>2026-04-08T16:14:27Z</time></trkpt><trkpt lat="46.2780110038998" lon="13.280066265793149"><ele>524.1666666666667</ele><time>2026-04-08T16:14:28Z</time></trkpt><trkpt lat="46.27811327069274" lon="13.280027535416938"><ele>525.3333333333334</ele><time>2026-04-08T16:14:29Z</time></trkpt><trkpt lat="46.278202208409866" lon="13.279990143025396"><ele>526.5</ele><time>2026-04-08T16:14:30Z</time></trkpt><trkpt lat="46.27827974970272" lon="13.279952008561219"><ele>527.6666666666666</ele><time>2026-04-08T16:14:31Z</time></trkpt><trkpt lat="46.278345394867934" lon="13.279887646095696"><ele>528.8333333333333</ele><time>2026-04-08T16:14:32Z</time></trkpt><trkpt lat="46.278377933251306" lon="13.279772028989662"><ele>530.0</ele><time>2026-04-08T16:14:33Z</time></trkpt><trkpt lat="46.27835822060611" lon="13.27964059244447"><ele>530.0</ele><time>2026-04-08T16:14:34Z</time></trkpt><trkpt lat="46.27828746752589" lon="13.27955260706197"><ele>530.0</ele><time>2026-04-08T16:14:35Z</time></trkpt><trkpt lat="46.27820945369459" lon="13.279475587004468"><ele>530.0</ele><time>2026-04-08T16:14:36Z</time></trkpt><trkpt lat="46.27812781395648" lon="13.279399711671152"><ele>530.0</ele><time>2026-04-08T16:14:37Z</time></trkpt><trkpt lat="46.27803519203547" lon="13.279322650623977"><ele>530.0</ele><time>2026-04-08T16:14:38Z</time></trkpt><trkpt lat="46.277962756398416" lon="13.279250708514507"><ele>527.6666666666666</ele><time>2026-04-08T16:14:39Z</time></trkpt><trkpt lat="46.27791765882433" lon="13.279164145103639"><ele>525.3333333333333</ele><time>2026-04-08T16:14:40Z</time></trkpt><trkpt lat="46.27790224258379" lon="13.279062950341835"><ele>523.0</ele><time>2026-04-08T16:14:41Z</time></trkpt><trkpt lat="46.27791754549603" lon="13.278960091913333"><ele>520.6666666666666</ele><time>2026-04-08T16:14:42Z</time></trkpt><trkpt lat="46.27795149700392" lon="13.278837057818775"><ele>518.3333333333334</ele><time>2026-04-08T16:14:43Z</time></trkpt><trkpt lat="46.27798863601886" lon="13.27869832800026"><ele>516.0</ele><time>2026-04-08T16:14:44Z</time></trkpt><trkpt lat="46.27803207476162" lon="13.27858984761187"><ele>516.2</ele><time>2026-04-08T16:14:45Z</time></trkpt><trkpt lat="46.27809728932298" lon="13.278519018793935"><ele>516.4000000000001</ele><time>2026-04-08T16:14:46Z</time></trkpt><trkpt lat="46.27818505539887" lon="13.278495880115706"><ele>516.6</ele><time>2026-04-08T16:14:47Z</time></trkpt><trkpt lat="46.278274442135015" lon="13.278517674025043"><ele>516.8000000000001</ele><time>2026-04-08T16:14:48Z</time></trkpt><trkpt lat="46.27836040432908" lon="13.278605781948563"><ele>517.0</ele><time>2026-04-08T16:14:49Z</time></trkpt><trkpt lat="46.27848720254501" lon="13.27864429497953"><ele>517.0</ele><time>2026-04-08T16:14:50Z</time></trkpt><trkpt lat="46.27861534578875" lon="13.278637252629672"><ele>517.0</ele><time>2026-04-08T16:14:51Z</time></trkpt><trkpt lat="46.27875290594981" lon="13.278588983325369"><ele>517.0</ele><time>2026-04-08T16:14:52Z</time></trkpt><trkpt lat="46.27889343701065" lon="13.27859700615292"><ele>517.0</ele><time>2026-04-08T16:14:53Z</time></trkpt><trkpt lat="46.27901177482203" lon="13.278608381715852"><ele>516.0</ele><time>2026-04-08T16:14:54Z</time></trkpt><trkpt lat="46.27912004891922" lon="13.278617061837409"><ele>515.0</ele><time>2026-04-08T16:14:55Z</time></trkpt><trkpt lat="46.279218472716934" lon="13.278630721707048"><ele>514.0</ele><time>2026-04-08T16:14:56Z</time></trkpt><trkpt lat="46.279319720929294" lon="13.278657422017961"><ele>513.0</ele><time>2026-04-08T16:14:57Z</time></trkpt><trkpt lat="46.27942416475064" lon="13.278677317096374"><ele>512.0</ele><time>2026-04-08T16:14:58Z</time></trkpt><trkpt lat="46.279528202793294" lon="13.278650770318013"><ele>512.0</ele><time>2026-04-08T16:14:59Z</time></trkpt><trkpt lat="46.27964269751052" lon="13.278604955037123"><ele>512.0</ele><time>2026-04-08T16:15:00Z</time></trkpt><trkpt lat="46.27973478784391" lon="13.278556287997533"><ele>512.0</ele><time>2026-04-08T16:15:01Z</time></trkpt><trkpt lat="46.27981362681035" lon="13.278520786973479"><ele>512.0</ele><time>2026-04-08T16:15:02Z</time></trkpt><trkpt lat="46.27988860744958" lon="13.278482542631899"><ele>512.0</ele><time>2026-04-08T16:15:03Z</time></trkpt><trkpt lat="46.279976382533434" lon="13.278516123195528"><ele>513.3333333333333</ele><time>2026-04-08T16:15:04Z</time></trkpt><trkpt lat="46.28005209936323" lon="13.27859668919108"><ele>514.6666666666666</ele><time>2026-04-08T16:15:05Z</time></trkpt><trkpt lat="46.280121510836324" lon="13.278646227845037"><ele>516.0</ele><time>2026-04-08T16:15:06Z</time></trkpt><trkpt lat="46.28018630576343" lon="13.27860561083465"><ele>517.3333333333334</ele><time>2026-04-08T16:15:07Z</time></trkpt><trkpt lat="46.280275158669276" lon="13.278545829193739"><ele>518.6666666666667</ele><time>2026-04-08T16:15:08Z</time></trkpt><trkpt lat="46.280332972846885" lon="13.278460452038034"><ele>520.0</ele><time>2026-04-08T16:15:09Z</time></trkpt><trkpt lat="46.280360313501546" lon="13.278344926856478"><ele>520.0</ele><time>2026-04-08T16:15:10Z</time></trkpt><trkpt lat="46.28035028682047" lon="13.278210676774778"><ele>520.0</ele><time>2026-04-08T16:15:11Z</time></trkpt><trkpt lat="46.28030985343186" lon="13.278078840250728"><ele>520.0</ele><time>2026-04-08T16:15:12Z</time></trkpt><trkpt lat="46.2802457159037" lon="13.277946669253671"><ele>520.0</ele><time>2026-04-08T16:15:13Z</time></trkpt><trkpt lat="46.2801852408491" lon="13.277826539075587"><ele>520.0</ele><time>2026-04-08T16:15:14Z</time></trkpt><trkpt lat="46.28015931842554" lon="13.277702603336945"><ele>517.25</ele><time>2026-04-08T16:15:15Z</time></trkpt><trkpt lat="46.280157568192415" lon="13.277533312172382"><ele>514.5</ele><time>2026-04-08T16:15:16Z</time></trkpt><trkpt lat="46.28016729236205" lon="13.27729761631905"><ele>511.75</ele><time>2026-04-08T16:15:17Z</time></trkpt><trkpt lat="46.28017098525773" lon="13.27708000867867"><ele>509.0</ele><time>2026-04-08T16:15:18Z</time></trkpt><trkpt lat="46.280165814152326" lon="13.276906994112522"><ele>506.79999999999995</ele><time>2026-04-08T16:15:19Z</time></trkpt><trkpt lat="46.280170758385125" lon="13.276751688916306"><ele>504.59999999999997</ele><time>2026-04-08T16:15:20Z</time></trkpt><trkpt lat="46.28018408598672" lon="13.276610813180914"><ele>502.4</ele><time>2026-04-08T16:15:21Z</time></trkpt><trkpt lat="46.28020772410532" lon="13.27647445263403"><ele>500.2</ele><time>2026-04-08T16:15:22Z</time></trkpt><trkpt lat="46.280237909197055" lon="13.27633570675472"><ele>498.0</ele><time>2026-04-08T16:15:23Z</time></trkpt><trkpt lat="46.28026514515563" lon="13.276197796269134"><ele>497.25</ele><time>2026-04-08T16:15:24Z</time></trkpt><trkpt lat="46.28028040073509" lon="13.276064200052124"><ele>496.5</ele><time>2026-04-08T16:15:25Z</time></trkpt><trkpt lat="46.28025887310362" lon="13.275937414643556"><ele>495.75</ele><time>2026-04-08T16:15:26Z</time></trkpt><trkpt lat="46.28019611136719" lon="13.275794223336137"><ele>495.0</ele><time>2026-04-08T16:15:27Z</time></trkpt><trkpt lat="46.28009192228832" lon="13.27563250818729"><ele>495.5</ele><time>2026-04-08T16:15:28Z</time></trkpt><trkpt lat="46.279997760840175" lon="13.275498397341734"><ele>496.0</ele><time>2026-04-08T16:15:29Z</time></trkpt><trkpt lat="46.279899075378296" lon="13.275418529652255"><ele>496.5</ele><time>2026-04-08T16:15:30Z</time></trkpt><trkpt lat="46.2797692647158" lon="13.27538815848533"><ele>497.0</ele><time>2026-04-08T16:15:31Z</time></trkpt><trkpt lat="46.27961588138322" lon="13.275388110978536"><ele>497.0</ele><time>2026-04-08T16:15:32Z</time></trkpt><trkpt lat="46.27947822200806" lon="13.275387499537215"><ele>497.0</ele><time>2026-04-08T16:15:33Z</time></trkpt><trkpt lat="46.279360823086094" lon="13.275363398190963"><ele>497.0</ele><time>2026-04-08T16:15:34Z</time></trkpt><trkpt lat="46.27924974693151" lon="13.27532829920121"><ele>497.0</ele><time>2026-04-08T16:15:35Z</time></trkpt><trkpt lat="46.279154685395945" lon="13.275268807450363"><ele>497.0</ele><time>2026-04-08T16:15:36Z</time></trkpt><trkpt lat="46.27906005065023" lon="13.275159748120446"><ele>497.0</ele><time>2026-04-08T16:15:37Z</time></trkpt><trkpt lat="46.27896886118969" lon="13.274994925286995"><ele>497.0</ele><time>2026-04-08T16:15:38Z</time></trkpt><trkpt lat="46.27887740627584" lon="13.27479675740551"><ele>497.0</ele><time>2026-04-08T16:15:39Z</time></trkpt><trkpt lat="46.27875787055489" lon="13.274632378933257"><ele>494.0</ele><time>2026-04-08T16:15:40Z</time></trkpt><trkpt lat="46.2786180822986" lon="13.274500033626946"><ele>491.0</ele><time>2026-04-08T16:15:41Z</time></trkpt><trkpt lat="46.27850442729219" lon="13.274393372227475"><ele>488.0</ele><time>2026-04-08T16:15:42Z</time></trkpt><trkpt lat="46.278423568707694" lon="13.274270107302357"><ele>485.0</ele><time>2026-04-08T16:15:43Z</time></trkpt><trkpt lat="46.27834914137859" lon="13.274098837349213"><ele>488.3333333333333</ele><time>2026-04-08T16:15:44Z</time></trkpt><trkpt lat="46.27827282143533" lon="13.27387088967875"><ele>491.66666666666663</ele><time>2026-04-08T16:15:45Z</time></trkpt><trkpt lat="46.278202165942616" lon="13.273688796959652"><ele>495.0</ele><time>2026-04-08T16:15:46Z</time></trkpt><trkpt lat="46.27813924220277" lon="13.273519947159157"><ele>490.75</ele><time>2026-04-08T16:15:47Z</time></trkpt><trkpt lat="46.27808977537197" lon="13.27336325193584"><ele>486.5</ele><time>2026-04-08T16:15:48Z</time></trkpt><trkpt lat="46.278045675562645" lon="13.273195072168683"><ele>482.25</ele><time>2026-04-08T16:15:49Z</time></trkpt><trkpt lat="46.277975401397434" lon="13.273019070283794"><ele>478.0</ele><time>2026-04-08T16:15:50Z</time></trkpt><trkpt lat="46.27787898450079" lon="13.272864562663905"><ele>478.0</ele><time>2026-04-08T16:15:51Z</time></trkpt><trkpt lat="46.277772162385" lon="13.272729317493216"><ele>478.0</ele><time>2026-04-08T16:15:52Z</time></trkpt><trkpt lat="46.2776794483043" lon="13.272559803479531"><ele>478.0</ele><time>2026-04-08T16:15:52.999Z</time></trkpt><trkpt lat="46.27761617820033" lon="13.272392087263558"><ele>478.0</ele><time>2026-04-08T16:15:53.999Z</time></trkpt><trkpt lat="46.27755202521071" lon="13.272233638047947"><ele>477.75</ele><time>2026-04-08T16:15:54.999Z</time></trkpt><trkpt lat="46.277483247403886" lon="13.272111817993904"><ele>477.5</ele><time>2026-04-08T16:15:55.999Z</time></trkpt><trkpt lat="46.2774058292291" lon="13.272006308490093"><ele>477.25</ele><time>2026-04-08T16:15:56.999Z</time></trkpt><trkpt lat="46.277318625583824" lon="13.271896307798443"><ele>477.0</ele><time>2026-04-08T16:15:57.999Z</time></trkpt><trkpt lat="46.27721609250295" lon="13.271797080087321"><ele>477.0</ele><time>2026-04-08T16:15:58.999Z</time></trkpt><trkpt lat="46.27709568766349" lon="13.271724424000686"><ele>477.0</ele><time>2026-04-08T16:15:59.999Z</time></trkpt><trkpt lat="46.27696478393109" lon="13.271680583709532"><ele>477.0</ele><time>2026-04-08T16:16:00.999Z</time></trkpt><trkpt lat="46.27684213900858" lon="13.271651680203247"><ele>477.0</ele><time>2026-04-08T16:16:01.999Z</time></trkpt><trkpt lat="46.27671961093088" lon="13.271614884519384"><ele>477.0</ele><time>2026-04-08T16:16:02.999Z</time></trkpt><trkpt lat="46.27659177169111" lon="13.271574116516055"><ele>477.0</ele><time>2026-04-08T16:16:03.999Z</time></trkpt><trkpt lat="46.27646469873418" lon="13.271532661843763"><ele>477.0</ele><time>2026-04-08T16:16:04.999Z</time></trkpt><trkpt lat="46.27634712111903" lon="13.271494977666643"><ele>477.0</ele><time>2026-04-08T16:16:05.999Z</time></trkpt><trkpt lat="46.27624186402998" lon="13.271445378607462"><ele>478.40000000000003</ele><time>2026-04-08T16:16:06.999Z</time></trkpt><trkpt lat="46.27614478219572" lon="13.271381508944266"><ele>479.80000000000007</ele><time>2026-04-08T16:16:07.999Z</time></trkpt><trkpt lat="46.276050866642365" lon="13.27131047118638"><ele>481.2</ele><time>2026-04-08T16:16:08.999Z</time></trkpt><trkpt lat="46.275959837255336" lon="13.271233944888621"><ele>482.6</ele><time>2026-04-08T16:16:09.999Z</time></trkpt><trkpt lat="46.27587293919695" lon="13.271143558586765"><ele>484.0</ele><time>2026-04-08T16:16:10.999Z</time></trkpt><trkpt lat="46.2757834729117" lon="13.271050897523889"><ele>484.0</ele><time>2026-04-08T16:16:11.999Z</time></trkpt><trkpt lat="46.27568911732515" lon="13.270963002882429"><ele>484.0</ele><time>2026-04-08T16:16:12.999Z</time></trkpt><trkpt lat="46.275594967670415" lon="13.27086816728426"><ele>484.0</ele><time>2026-04-08T16:16:13.999Z</time></trkpt><trkpt lat="46.2755001132717" lon="13.270769415329461"><ele>484.0</ele><time>2026-04-08T16:16:14.999Z</time></trkpt><trkpt lat="46.2754053093683" lon="13.270675208962437"><ele>483.6</ele><time>2026-04-08T16:16:15.999Z</time></trkpt><trkpt lat="46.275313226655776" lon="13.270581638198538"><ele>483.2</ele><time>2026-04-08T16:16:16.999Z</time></trkpt><trkpt lat="46.27522432263111" lon="13.270488181507453"><ele>482.80000000000007</ele><time>2026-04-08T16:16:17.999Z</time></trkpt><trkpt lat="46.27513544252507" lon="13.27039698887849"><ele>482.40000000000003</ele><time>2026-04-08T16:16:18.999Z</time></trkpt><trkpt lat="46.27504808380918" lon="13.270309645124309"><ele>482.0</ele><time>2026-04-08T16:16:19.999Z</time></trkpt><trkpt lat="46.27496960937132" lon="13.270230363922007"><ele>482.0</ele><time>2026-04-08T16:16:20.999Z</time></trkpt><trkpt lat="46.2748937557089" lon="13.270149970392934"><ele>482.00000000000006</ele><time>2026-04-08T16:16:21.999Z</time></trkpt><trkpt lat="46.274817473174046" lon="13.27006888797322"><ele>482.00000000000006</ele><time>2026-04-08T16:16:22.999Z</time></trkpt><trkpt lat="46.27474620452482" lon="13.26997664892215"><ele>482.0</ele><time>2026-04-08T16:16:23.999Z</time></trkpt><trkpt lat="46.274683574314764" lon="13.269869950076105"><ele>482.0</ele><time>2026-04-08T16:16:24.999Z</time></trkpt><trkpt lat="46.27462370252823" lon="13.269757744629262"><ele>481.6</ele><time>2026-04-08T16:16:25.999Z</time></trkpt><trkpt lat="46.27456955829925" lon="13.269637811715233"><ele>481.20000000000005</ele><time>2026-04-08T16:16:26.999Z</time></trkpt><trkpt lat="46.27452126808651" lon="13.269507481908125"><ele>480.8</ele><time>2026-04-08T16:16:27.999Z</time></trkpt><trkpt lat="46.27446585381185" lon="13.269378658751288"><ele>480.4</ele><time>2026-04-08T16:16:29Z</time></trkpt><trkpt lat="46.27440814832657" lon="13.269251480471912"><ele>480.0</ele><time>2026-04-08T16:16:30Z</time></trkpt><trkpt lat="46.27435074007613" lon="13.269118774802308"><ele>480.0</ele><time>2026-04-08T16:16:31Z</time></trkpt><trkpt lat="46.274296288656714" lon="13.268980525801728"><ele>480.0</ele><time>2026-04-08T16:16:32Z</time></trkpt><trkpt lat="46.27423758825663" lon="13.26883948739078"><ele>480.0</ele><time>2026-04-08T16:16:33Z</time></trkpt><trkpt lat="46.27417002942352" lon="13.268695836910235"><ele>480.0</ele><time>2026-04-08T16:16:34Z</time></trkpt><trkpt lat="46.27408637998398" lon="13.2685611883537"><ele>478.0</ele><time>2026-04-08T16:16:35Z</time></trkpt><trkpt lat="46.273989231357504" lon="13.268428940605657"><ele>476.0</ele><time>2026-04-08T16:16:36Z</time></trkpt><trkpt lat="46.27388347516983" lon="13.268291441739045"><ele>474.0</ele><time>2026-04-08T16:16:37Z</time></trkpt><trkpt lat="46.27377565500686" lon="13.268138346925193"><ele>472.0</ele><time>2026-04-08T16:16:38Z</time></trkpt><trkpt lat="46.27367397647447" lon="13.267992387101044"><ele>468.75</ele><time>2026-04-08T16:16:39Z</time></trkpt><trkpt lat="46.27357798216677" lon="13.267858739931777"><ele>465.5</ele><time>2026-04-08T16:16:40Z</time></trkpt><trkpt lat="46.27348483307261" lon="13.267731710658017"><ele>462.25</ele><time>2026-04-08T16:16:41Z</time></trkpt><trkpt lat="46.27338942299305" lon="13.267621826785001"><ele>459.0</ele><time>2026-04-08T16:16:42Z</time></trkpt><trkpt lat="46.273279066944404" lon="13.267559336281533"><ele>459.0</ele><time>2026-04-08T16:16:43Z</time></trkpt><trkpt lat="46.27315137243174" lon="13.26752796218192"><ele>459.0</ele><time>2026-04-08T16:16:44Z</time></trkpt><trkpt lat="46.27301713487571" lon="13.267485021249655"><ele>459.0</ele><time>2026-04-08T16:16:45Z</time></trkpt><trkpt lat="46.272872626862004" lon="13.267432270890646"><ele>459.0</ele><time>2026-04-08T16:16:46Z</time></trkpt><trkpt lat="46.272711811566495" lon="13.267384423049359"><ele>455.66666666666663</ele><time>2026-04-08T16:16:47Z</time></trkpt><trkpt lat="46.27254202511089" lon="13.267321209265962"><ele>452.3333333333333</ele><time>2026-04-08T16:16:48Z</time></trkpt><trkpt lat="46.272361162832055" lon="13.267251589561974"><ele>449.0</ele><time>2026-04-08T16:16:49Z</time></trkpt><trkpt lat="46.27216528170527" lon="13.267193848176543"><ele>445.0</ele><time>2026-04-08T16:16:50Z</time></trkpt><trkpt lat="46.27196665621382" lon="13.26714107211994"><ele>441.0</ele><time>2026-04-08T16:16:51Z</time></trkpt><trkpt lat="46.271767629910435" lon="13.267090859536355"><ele>437.0</ele><time>2026-04-08T16:16:52Z</time></trkpt><trkpt lat="46.27156567709379" lon="13.267053673300666"><ele>437.66666666666663</ele><time>2026-04-08T16:16:53Z</time></trkpt><trkpt lat="46.271350771309386" lon="13.267024838914292"><ele>438.33333333333337</ele><time>2026-04-08T16:16:54Z</time></trkpt><trkpt lat="46.27115303377747" lon="13.266993627546297"><ele>439.0</ele><time>2026-04-08T16:16:55Z</time></trkpt><trkpt lat="46.270973697392215" lon="13.266957348146542"><ele>439.0</ele><time>2026-04-08T16:16:56Z</time></trkpt><trkpt lat="46.27080572254862" lon="13.26691654840104"><ele>439.0</ele><time>2026-04-08T16:16:57Z</time></trkpt><trkpt lat="46.270642462662266" lon="13.266867966177623"><ele>439.0</ele><time>2026-04-08T16:16:58Z</time></trkpt><trkpt lat="46.27048571893487" lon="13.266792363510529"><ele>439.0</ele><time>2026-04-08T16:16:59Z</time></trkpt><trkpt lat="46.27033640592587" lon="13.266730747502407"><ele>439.0</ele><time>2026-04-08T16:17:00Z</time></trkpt><trkpt lat="46.27017187122428" lon="13.266670302590928"><ele>439.0</ele><time>2026-04-08T16:17:01Z</time></trkpt><trkpt lat="46.270018984777714" lon="13.266593796080691"><ele>439.0</ele><time>2026-04-08T16:17:02Z</time></trkpt><trkpt lat="46.26987832116709" lon="13.266523906857332"><ele>439.0</ele><time>2026-04-08T16:17:03Z</time></trkpt><trkpt lat="46.269744778662634" lon="13.266456165400637"><ele>439.0</ele><time>2026-04-08T16:17:04Z</time></trkpt><trkpt lat="46.26961028172335" lon="13.266402538635216"><ele>439.0</ele><time>2026-04-08T16:17:05Z</time></trkpt><trkpt lat="46.26946923361423" lon="13.266359671569308"><ele>436.0</ele><time>2026-04-08T16:17:06Z</time></trkpt><trkpt lat="46.269334022885516" lon="13.266338938595153"><ele>433.0</ele><time>2026-04-08T16:17:07Z</time></trkpt><trkpt lat="46.26920532584195" lon="13.266331950008889"><ele>430.0</ele><time>2026-04-08T16:17:08Z</time></trkpt><trkpt lat="46.269080261561456" lon="13.266305748381294"><ele>427.0</ele><time>2026-04-08T16:17:09Z</time></trkpt><trkpt lat="46.268956086384854" lon="13.266237768726873"><ele>426.25</ele><time>2026-04-08T16:17:10Z</time></trkpt><trkpt lat="46.26883786577756" lon="13.266128183747071"><ele>425.5</ele><time>2026-04-08T16:17:11Z</time></trkpt><trkpt lat="46.268737362246526" lon="13.26600122436521"><ele>424.75</ele><time>2026-04-08T16:17:12Z</time></trkpt><trkpt lat="46.26864579725763" lon="13.265882922869631"><ele>424.0</ele><time>2026-04-08T16:17:13Z</time></trkpt><trkpt lat="46.26854614499775" lon="13.265765093329405"><ele>424.0</ele><time>2026-04-08T16:17:14Z</time></trkpt><trkpt lat="46.268444963165244" lon="13.265644767366297"><ele>424.0</ele><time>2026-04-08T16:17:15Z</time></trkpt><trkpt lat="46.268350495416676" lon="13.265536332039806"><ele>424.0</ele><time>2026-04-08T16:17:16Z</time></trkpt><trkpt lat="46.268259800519765" lon="13.265423955196741"><ele>424.0</ele><time>2026-04-08T16:17:17Z</time></trkpt><trkpt lat="46.268172243595906" lon="13.265316934142488"><ele>419.79999999999995</ele><time>2026-04-08T16:17:18Z</time></trkpt><trkpt lat="46.26809689227439" lon="13.265218303464184"><ele>415.59999999999997</ele><time>2026-04-08T16:17:19Z</time></trkpt><trkpt lat="46.268036594810106" lon="13.265128163786075"><ele>411.4</ele><time>2026-04-08T16:17:20Z</time></trkpt><trkpt lat="46.267994369025324" lon="13.265024486120957"><ele>407.2</ele><time>2026-04-08T16:17:21Z</time></trkpt><trkpt lat="46.267981534596636" lon="13.264878455785361"><ele>403.0</ele><time>2026-04-08T16:17:22Z</time></trkpt><trkpt lat="46.26799860184806" lon="13.264720088755471"><ele>403.75</ele><time>2026-04-08T16:17:23Z</time></trkpt><trkpt lat="46.26802891687985" lon="13.264563181708473"><ele>404.5</ele><time>2026-04-08T16:17:24Z</time></trkpt><trkpt lat="46.26805506711932" lon="13.264408687943439"><ele>405.25</ele><time>2026-04-08T16:17:25Z</time></trkpt><trkpt lat="46.26808120578347" lon="13.26424977253067"><ele>406.0</ele><time>2026-04-08T16:17:26Z</time></trkpt><trkpt lat="46.26811302069472" lon="13.264086384275657"><ele>405.1666666666667</ele><time>2026-04-08T16:17:27Z</time></trkpt><trkpt lat="46.26813847741932" lon="13.263943586264551"><ele>404.33333333333337</ele><time>2026-04-08T16:17:28Z</time></trkpt><trkpt lat="46.268153767255086" lon="13.263830334021728"><ele>403.5</ele><time>2026-04-08T16:17:29Z</time></trkpt><trkpt lat="46.26816121028608" lon="13.263734793240285"><ele>402.66666666666663</ele><time>2026-04-08T16:17:30Z</time></trkpt><trkpt lat="46.26813601198409" lon="13.263644858990853"><ele>401.8333333333333</ele><time>2026-04-08T16:17:31Z</time></trkpt><trkpt lat="46.26807384608475" lon="13.26360651507502"><ele>401.0</ele><time>2026-04-08T16:17:32Z</time></trkpt><trkpt lat="46.26799557422086" lon="13.26363445677387"><ele>399.0</ele><time>2026-04-08T16:17:33Z</time></trkpt><trkpt lat="46.26792439489695" lon="13.263706833324807"><ele>397.0</ele><time>2026-04-08T16:17:34Z</time></trkpt><trkpt lat="46.26784732005959" lon="13.263765104905655"><ele>395.0</ele><time>2026-04-08T16:17:35Z</time></trkpt><trkpt lat="46.2677538493592" lon="13.26381463861497"><ele>393.0</ele><time>2026-04-08T16:17:36Z</time></trkpt><trkpt lat="46.267670573371504" lon="13.263885869192627"><ele>391.0</ele><time>2026-04-08T16:17:37Z</time></trkpt><trkpt lat="46.26759126461915" lon="13.263923579056168"><ele>391.0</ele><time>2026-04-08T16:17:38Z</time></trkpt><trkpt lat="46.267500839811014" lon="13.263989930345858"><ele>391.0</ele><time>2026-04-08T16:17:40Z</time></trkpt><trkpt lat="46.26748705820664" lon="13.263824315734238"><ele>391.0</ele><time>2026-04-08T16:17:42Z</time></trkpt><trkpt lat="46.26758643018817" lon="13.263782163962254"><ele>391.0</ele><time>2026-04-08T16:17:43Z</time></trkpt><trkpt lat="46.267691009342066" lon="13.263679952930426"><ele>391.0</ele><time>2026-04-08T16:17:44Z</time></trkpt><trkpt lat="46.267781280482225" lon="13.263593061101671"><ele>391.0</ele><time>2026-04-08T16:17:45Z</time></trkpt><trkpt lat="46.26789147716787" lon="13.263487548372604"><ele>391.0</ele><time>2026-04-08T16:17:46Z</time></trkpt><trkpt lat="46.26798011858581" lon="13.263380974693106"><ele>391.0</ele><time>2026-04-08T16:17:47Z</time></trkpt><trkpt lat="46.26806971466477" lon="13.263272833993103"><ele>391.0</ele><time>2026-04-08T16:17:48Z</time></trkpt><trkpt lat="46.268182277587485" lon="13.263213404555007"><ele>389.20000000000005</ele><time>2026-04-08T16:17:49Z</time></trkpt><trkpt lat="46.268284324271484" lon="13.263178016525357"><ele>387.40000000000003</ele><time>2026-04-08T16:17:50Z</time></trkpt><trkpt lat="46.26837323261705" lon="13.263178671703244"><ele>385.6</ele><time>2026-04-08T16:17:51Z</time></trkpt><trkpt lat="46.26845486547144" lon="13.263169767736793"><ele>383.8</ele><time>2026-04-08T16:17:52Z</time></trkpt><trkpt lat="46.26852634209066" lon="13.26316762088078"><ele>382.0</ele><time>2026-04-08T16:17:53Z</time></trkpt><trkpt lat="46.26859216111555" lon="13.263033826135652"><ele>382.0</ele><time>2026-04-08T16:17:55Z</time></trkpt><trkpt lat="46.2685533806181" lon="13.262922293726406"><ele>382.0</ele><time>2026-04-08T16:17:56Z</time></trkpt><trkpt lat="46.26847116543319" lon="13.262838340055316"><ele>382.0</ele><time>2026-04-08T16:17:56.999Z</time></trkpt><trkpt lat="46.26833649477778" lon="13.26281060602199"><ele>382.0</ele><time>2026-04-08T16:17:57.999Z</time></trkpt><trkpt lat="46.26817858494371" lon="13.262822210703153"><ele>380.25</ele><time>2026-04-08T16:17:58.999Z</time></trkpt><trkpt lat="46.26803439685311" lon="13.262820735276298"><ele>378.5</ele><time>2026-04-08T16:17:59.999Z</time></trkpt><trkpt lat="46.26789015387509" lon="13.26279899386529"><ele>376.75</ele><time>2026-04-08T16:18:00.999Z</time></trkpt><trkpt lat="46.26773837097144" lon="13.262783576001022"><ele>375.0</ele><time>2026-04-08T16:18:01.999Z</time></trkpt><trkpt lat="46.26760074417777" lon="13.26276018014565"><ele>375.0</ele><time>2026-04-08T16:18:02.999Z</time></trkpt><trkpt lat="46.26747873341355" lon="13.262737447021417"><ele>375.0</ele><time>2026-04-08T16:18:03.999Z</time></trkpt><trkpt lat="46.26736127031403" lon="13.262728654077192"><ele>375.0</ele><time>2026-04-08T16:18:04.999Z</time></trkpt><trkpt lat="46.26725027538703" lon="13.26272362960515"><ele>375.0</ele><time>2026-04-08T16:18:05.999Z</time></trkpt><trkpt lat="46.267133413065515" lon="13.262672128661995"><ele>372.2</ele><time>2026-04-08T16:18:06.999Z</time></trkpt><trkpt lat="46.26705782808205" lon="13.262569963373604"><ele>369.4</ele><time>2026-04-08T16:18:07.999Z</time></trkpt><trkpt lat="46.2670071690696" lon="13.26242872295058"><ele>366.6</ele><time>2026-04-08T16:18:09.999Z</time></trkpt><trkpt lat="46.267046564641376" lon="13.262344825735918"><ele>363.8</ele><time>2026-04-08T16:18:10.999Z</time></trkpt><trkpt lat="46.26712929376445" lon="13.262303331957678"><ele>361.0</ele><time>2026-04-08T16:18:11.999Z</time></trkpt><trkpt lat="46.26723141302322" lon="13.262301631557815"><ele>363.8</ele><time>2026-04-08T16:18:12.999Z</time></trkpt><trkpt lat="46.267343187781144" lon="13.262310802113968"><ele>366.6</ele><time>2026-04-08T16:18:13.999Z</time></trkpt><trkpt lat="46.26746183540509" lon="13.262331518714932"><ele>369.4</ele><time>2026-04-08T16:18:14.999Z</time></trkpt><trkpt lat="46.26756247057792" lon="13.262339168982262"><ele>372.2</ele><time>2026-04-08T16:18:15.999Z</time></trkpt><trkpt lat="46.26765655753913" lon="13.262346843213752"><ele>375.0</ele><time>2026-04-08T16:18:16.999Z</time></trkpt><trkpt lat="46.26772187017201" lon="13.262330864141358"><ele>371.4</ele><time>2026-04-08T16:18:17.999Z</time></trkpt><trkpt lat="46.26777106746554" lon="13.262196637964182"><ele>367.8</ele><time>2026-04-08T16:18:19.999Z</time></trkpt><trkpt lat="46.2677363806138" lon="13.26211854586278"><ele>364.20000000000005</ele><time>2026-04-08T16:18:20.999Z</time></trkpt><trkpt lat="46.267649654476145" lon="13.26208973443217"><ele>360.6</ele><time>2026-04-08T16:18:21.999Z</time></trkpt><trkpt lat="46.26752601620505" lon="13.262090485440062"><ele>357.0</ele><time>2026-04-08T16:18:22.999Z</time></trkpt><trkpt lat="46.267393744166824" lon="13.262054735761804"><ele>355.25</ele><time>2026-04-08T16:18:23.999Z</time></trkpt><trkpt lat="46.26726350088995" lon="13.262020894362765"><ele>353.5</ele><time>2026-04-08T16:18:24.999Z</time></trkpt><trkpt lat="46.26711307107187" lon="13.261991929502067"><ele>351.75</ele><time>2026-04-08T16:18:25.999Z</time></trkpt><trkpt lat="46.266990902037506" lon="13.261967024566328"><ele>350.0</ele><time>2026-04-08T16:18:26.999Z</time></trkpt><trkpt lat="46.26688787878095" lon="13.261951180291662"><ele>350.0</ele><time>2026-04-08T16:18:27.999Z</time></trkpt><trkpt lat="46.26679534348524" lon="13.261942515668995"><ele>350.0</ele><time>2026-04-08T16:18:28.999Z</time></trkpt><trkpt lat="46.26672964781579" lon="13.26190715971391"><ele>350.0</ele><time>2026-04-08T16:18:29.999Z</time></trkpt><trkpt lat="46.26667998539674" lon="13.261831296558142"><ele>350.0</ele><time>2026-04-08T16:18:31.999Z</time></trkpt><trkpt lat="46.26672097616666" lon="13.261747523828774"><ele>350.0</ele><time>2026-04-08T16:18:32.999Z</time></trkpt><trkpt lat="46.2668109470863" lon="13.261786221435466"><ele>350.0</ele><time>2026-04-08T16:18:33.999Z</time></trkpt><trkpt lat="46.26692360863226" lon="13.261795752608343"><ele>350.0</ele><time>2026-04-08T16:18:35Z</time></trkpt><trkpt lat="46.26706856207885" lon="13.261797736221334"><ele>350.0</ele><time>2026-04-08T16:18:36Z</time></trkpt><trkpt lat="46.26721829503711" lon="13.261781179097683"><ele>350.0</ele><time>2026-04-08T16:18:37Z</time></trkpt><trkpt lat="46.26735927950373" lon="13.261734510217101"><ele>350.0</ele><time>2026-04-08T16:18:38Z</time></trkpt><trkpt lat="46.267486773916715" lon="13.261709550052043"><ele>348.8</ele><time>2026-04-08T16:18:39Z</time></trkpt><trkpt lat="46.26759552186855" lon="13.261681606191328"><ele>347.6</ele><time>2026-04-08T16:18:40Z</time></trkpt><trkpt lat="46.26768425762311" lon="13.261647387161261"><ele>346.4</ele><time>2026-04-08T16:18:41Z</time></trkpt><trkpt lat="46.26775232486614" lon="13.26160870313805"><ele>345.2</ele><time>2026-04-08T16:18:42Z</time></trkpt><trkpt lat="46.26782023226381" lon="13.261477712865064"><ele>344.0</ele><time>2026-04-08T16:18:44Z</time></trkpt><trkpt lat="46.26778469816336" lon="13.261386640967183"><ele>344.0</ele><time>2026-04-08T16:18:45Z</time></trkpt><trkpt lat="46.26769015896804" lon="13.26138166442049"><ele>344.0</ele><time>2026-04-08T16:18:46Z</time></trkpt><trkpt lat="46.267601082790684" lon="13.26143616722898"><ele>344.0</ele><time>2026-04-08T16:18:47Z</time></trkpt><trkpt lat="46.26748830258011" lon="13.26147154062418"><ele>344.0</ele><time>2026-04-08T16:18:48Z</time></trkpt><trkpt lat="46.267363440493476" lon="13.261449105697363"><ele>344.0</ele><time>2026-04-08T16:18:49Z</time></trkpt><trkpt lat="46.26723492404523" lon="13.261392728438077"><ele>340.33333333333337</ele><time>2026-04-08T16:18:50Z</time></trkpt><trkpt lat="46.26708055570543" lon="13.261338639943908"><ele>336.6666666666667</ele><time>2026-04-08T16:18:51Z</time></trkpt><trkpt lat="46.26691830487444" lon="13.261297557191963"><ele>333.0</ele><time>2026-04-08T16:18:52Z</time></trkpt><trkpt lat="46.26677700808206" lon="13.26125993383477"><ele>333.0</ele><time>2026-04-08T16:18:53Z</time></trkpt><trkpt lat="46.26665386953121" lon="13.261220763542672"><ele>333.0</ele><time>2026-04-08T16:18:54Z</time></trkpt><trkpt lat="46.26654268584216" lon="13.261179267805627"><ele>333.0</ele><time>2026-04-08T16:18:55Z</time></trkpt><trkpt lat="46.266445279446174" lon="13.2611512390985"><ele>333.0</ele><time>2026-04-08T16:18:56Z</time></trkpt><trkpt lat="46.26635647687232" lon="13.261166400791959"><ele>333.0</ele><time>2026-04-08T16:18:57Z</time></trkpt><trkpt lat="46.26626831275886" lon="13.261196747970176"><ele>332.79999999999995</ele><time>2026-04-08T16:18:58Z</time></trkpt><trkpt lat="46.26622725049417" lon="13.261296558918541"><ele>332.6</ele><time>2026-04-08T16:18:59Z</time></trkpt><trkpt lat="46.26615241958757" lon="13.261411816944001"><ele>332.4</ele><time>2026-04-08T16:19:00Z</time></trkpt><trkpt lat="46.266105853949135" lon="13.261499266293542"><ele>332.20000000000005</ele><time>2026-04-08T16:19:01Z</time></trkpt><trkpt lat="46.266003217997785" lon="13.261536163233602"><ele>332.0</ele><time>2026-04-08T16:19:03Z</time></trkpt><trkpt lat="46.26595116750138" lon="13.261436728710445"><ele>331.6</ele><time>2026-04-08T16:19:04Z</time></trkpt><trkpt lat="46.26589031252083" lon="13.261329181687522"><ele>331.20000000000005</ele><time>2026-04-08T16:19:05Z</time></trkpt><trkpt lat="46.265845340923036" lon="13.261215858351198"><ele>330.8</ele><time>2026-04-08T16:19:06Z</time></trkpt><trkpt lat="46.26580452415107" lon="13.26109971812203"><ele>330.4</ele><time>2026-04-08T16:19:07Z</time></trkpt><trkpt lat="46.26576791186617" lon="13.26095968057652"><ele>330.0</ele><time>2026-04-08T16:19:08Z</time></trkpt><trkpt lat="46.26573379717382" lon="13.260811996690146"><ele>330.0</ele><time>2026-04-08T16:19:09Z</time></trkpt><trkpt lat="46.26570966445662" lon="13.260683937566553"><ele>330.0</ele><time>2026-04-08T16:19:10Z</time></trkpt><trkpt lat="46.26569309140696" lon="13.260565847155537"><ele>330.0</ele><time>2026-04-08T16:19:11Z</time></trkpt><trkpt lat="46.26566965666548" lon="13.260452667306055"><ele>330.0</ele><time>2026-04-08T16:19:12Z</time></trkpt><trkpt lat="46.265634903405704" lon="13.26033630170401"><ele>330.0</ele><time>2026-04-08T16:19:13Z</time></trkpt><trkpt lat="46.26559287882575" lon="13.260243034071589"><ele>330.0</ele><time>2026-04-08T16:19:14Z</time></trkpt><trkpt lat="46.26554154631343" lon="13.26016202354202"><ele>329.3333333333333</ele><time>2026-04-08T16:19:15Z</time></trkpt><trkpt lat="46.26546769364701" lon="13.260107070771744"><ele>328.6666666666667</ele><time>2026-04-08T16:19:16Z</time></trkpt><trkpt lat="46.265402781430105" lon="13.260076556378927"><ele>328.0</ele><time>2026-04-08T16:19:17Z</time></trkpt><trkpt lat="46.26530962862727" lon="13.260018082179037"><ele>327.33333333333337</ele><time>2026-04-08T16:19:19Z</time></trkpt><trkpt lat="46.26524924809503" lon="13.259914086102418"><ele>326.6666666666667</ele><time>2026-04-08T16:19:21Z</time></trkpt><trkpt lat="46.26520353827448" lon="13.259826330398873"><ele>326.0</ele><time>2026-04-08T16:19:23Z</time></trkpt><trkpt lat="46.265057772935556" lon="13.259819178935187"><ele>326.0</ele><time>2026-04-08T16:19:25Z</time></trkpt><trkpt lat="46.264949751156834" lon="13.259875672393784"><ele>326.0</ele><time>2026-04-08T16:19:26Z</time></trkpt><trkpt lat="46.26484041258267" lon="13.259913129873073"><ele>326.0</ele><time>2026-04-08T16:19:27Z</time></trkpt><trkpt lat="46.264744080110496" lon="13.259948864726757"><ele>326.0</ele><time>2026-04-08T16:19:28Z</time></trkpt><trkpt lat="46.26464088853572" lon="13.259975291496236"><ele>326.0</ele><time>2026-04-08T16:19:29Z</time></trkpt><trkpt lat="46.264539492947044" lon="13.259991400493414"><ele>327.0</ele><time>2026-04-08T16:19:30Z</time></trkpt><trkpt lat="46.26443993808071" lon="13.259992120201781"><ele>328.0</ele><time>2026-04-08T16:19:31Z</time></trkpt><trkpt lat="46.26433989108579" lon="13.259978257379034"><ele>329.0</ele><time>2026-04-08T16:19:32Z</time></trkpt><trkpt lat="46.26423628107264" lon="13.259939820570391"><ele>330.0</ele><time>2026-04-08T16:19:33Z</time></trkpt><trkpt lat="46.264129983845564" lon="13.259875393330548"><ele>331.0</ele><time>2026-04-08T16:19:34Z</time></trkpt><trkpt lat="46.26402658965775" lon="13.259799555904534"><ele>330.0</ele><time>2026-04-08T16:19:35Z</time></trkpt><trkpt lat="46.26393246194088" lon="13.259718265254765"><ele>329.0</ele><time>2026-04-08T16:19:36Z</time></trkpt><trkpt lat="46.263836048938764" lon="13.259620162464298"><ele>328.0</ele><time>2026-04-08T16:19:37Z</time></trkpt><trkpt lat="46.263711440387546" lon="13.259505634523894"><ele>327.0</ele><time>2026-04-08T16:19:38Z</time></trkpt><trkpt lat="46.263559727327284" lon="13.259367036349468"><ele>327.0</ele><time>2026-04-08T16:19:39Z</time></trkpt><trkpt lat="46.263443295925526" lon="13.259252029005507"><ele>327.0</ele><time>2026-04-08T16:19:40Z</time></trkpt><trkpt lat="46.263316084886895" lon="13.259155822729364"><ele>327.0</ele><time>2026-04-08T16:19:41Z</time></trkpt><trkpt lat="46.26317766624572" lon="13.259063424763529"><ele>327.0</ele><time>2026-04-08T16:19:42Z</time></trkpt><trkpt lat="46.263000906651655" lon="13.259000458537669"><ele>326.3333333333333</ele><time>2026-04-08T16:19:43Z</time></trkpt><trkpt lat="46.26283962219253" lon="13.258975904565144"><ele>325.66666666666663</ele><time>2026-04-08T16:19:44Z</time></trkpt><trkpt lat="46.262692649016806" lon="13.258935403891064"><ele>325.0</ele><time>2026-04-08T16:19:45Z</time></trkpt><trkpt lat="46.26253375262157" lon="13.258883904834102"><ele>325.0</ele><time>2026-04-08T16:19:46Z</time></trkpt><trkpt lat="46.26239930085535" lon="13.258825127476843"><ele>325.0</ele><time>2026-04-08T16:19:47Z</time></trkpt><trkpt lat="46.26226850517907" lon="13.25875455665668"><ele>325.0</ele><time>2026-04-08T16:19:48Z</time></trkpt><trkpt lat="46.26214797183302" lon="13.258660733885828"><ele>325.0</ele><time>2026-04-08T16:19:49Z</time></trkpt><trkpt lat="46.262043241714544" lon="13.258544043184667"><ele>324.0</ele><time>2026-04-08T16:19:50Z</time></trkpt><trkpt lat="46.26194767535352" lon="13.258403455445556"><ele>323.0</ele><time>2026-04-08T16:19:51Z</time></trkpt><trkpt lat="46.261843080792374" lon="13.258230495770698"><ele>322.0</ele><time>2026-04-08T16:19:52Z</time></trkpt><trkpt lat="46.26173352200654" lon="13.258040032473344"><ele>322.0</ele><time>2026-04-08T16:19:53Z</time></trkpt><trkpt lat="46.26161421532094" lon="13.257834521992946"><ele>322.0</ele><time>2026-04-08T16:19:54Z</time></trkpt><trkpt lat="46.26151029920796" lon="13.257655431119886"><ele>322.0</ele><time>2026-04-08T16:19:55Z</time></trkpt><trkpt lat="46.26142200377382" lon="13.25750250894484"><ele>320.75</ele><time>2026-04-08T16:19:56Z</time></trkpt><trkpt lat="46.26134181461136" lon="13.257363366930152"><ele>319.5</ele><time>2026-04-08T16:19:57Z</time></trkpt><trkpt lat="46.26125117190609" lon="13.25724464851551"><ele>318.25</ele><time>2026-04-08T16:19:58Z</time></trkpt><trkpt lat="46.26114932565056" lon="13.257152752851093"><ele>317.0</ele><time>2026-04-08T16:19:59Z</time></trkpt><trkpt lat="46.26104917145754" lon="13.257086279773514"><ele>317.0</ele><time>2026-04-08T16:20:00Z</time></trkpt><trkpt lat="46.26093779697333" lon="13.257052668202737"><ele>317.0</ele><time>2026-04-08T16:20:01Z</time></trkpt><trkpt lat="46.2608163109162" lon="13.257048504869736"><ele>317.0</ele><time>2026-04-08T16:20:02Z</time></trkpt><trkpt lat="46.260702070968954" lon="13.257071217934035"><ele>317.0</ele><time>2026-04-08T16:20:02.999Z</time></trkpt><trkpt lat="46.260583310598406" lon="13.25709529679259"><ele>317.33333333333337</ele><time>2026-04-08T16:20:03.999Z</time></trkpt><trkpt lat="46.26045108938171" lon="13.257124845381552"><ele>317.6666666666667</ele><time>2026-04-08T16:20:04.999Z</time></trkpt><trkpt lat="46.26029734086577" lon="13.25716104129496"><ele>318.0</ele><time>2026-04-08T16:20:05.999Z</time></trkpt><trkpt lat="46.2601225843902" lon="13.257193947674082"><ele>318.0</ele><time>2026-04-08T16:20:06.999Z</time></trkpt><trkpt lat="46.259923630016644" lon="13.257239820309746"><ele>318.0</ele><time>2026-04-08T16:20:07.999Z</time></trkpt><trkpt lat="46.25971615007897" lon="13.25728766099143"><ele>318.0</ele><time>2026-04-08T16:20:08.999Z</time></trkpt><trkpt lat="46.259516278486394" lon="13.257328996784084"><ele>318.6666666666667</ele><time>2026-04-08T16:20:09.999Z</time></trkpt><trkpt lat="46.259320843210794" lon="13.257368246842837"><ele>319.33333333333337</ele><time>2026-04-08T16:20:10.999Z</time></trkpt><trkpt lat="46.2591271717695" lon="13.257411709182819"><ele>320.0</ele><time>2026-04-08T16:20:11.999Z</time></trkpt><trkpt lat="46.258934151297254" lon="13.257457397638337"><ele>318.33333333333337</ele><time>2026-04-08T16:20:12.999Z</time></trkpt><trkpt lat="46.25873945712936" lon="13.257498870976608"><ele>316.6666666666667</ele><time>2026-04-08T16:20:13.999Z</time></trkpt><trkpt lat="46.2585640468374" lon="13.257536175104455"><ele>315.0</ele><time>2026-04-08T16:20:14.999Z</time></trkpt><trkpt lat="46.258404473706484" lon="13.25756033256287"><ele>315.0</ele><time>2026-04-08T16:20:15.999Z</time></trkpt><trkpt lat="46.25824606246879" lon="13.257554702469102"><ele>315.0</ele><time>2026-04-08T16:20:16.999Z</time></trkpt><trkpt lat="46.258103529123844" lon="13.257511761434877"><ele>315.0</ele><time>2026-04-08T16:20:17.999Z</time></trkpt><trkpt lat="46.257965949627284" lon="13.257430697277808"><ele>315.75</ele><time>2026-04-08T16:20:18.999Z</time></trkpt><trkpt lat="46.25784548064468" lon="13.257342220891323"><ele>316.5</ele><time>2026-04-08T16:20:19.999Z</time></trkpt><trkpt lat="46.25773973496327" lon="13.257247372144208"><ele>317.25</ele><time>2026-04-08T16:20:20.999Z</time></trkpt><trkpt lat="46.25762516569673" lon="13.2571515308596"><ele>318.0</ele><time>2026-04-08T16:20:21.999Z</time></trkpt><trkpt lat="46.25750228111427" lon="13.257087821366989"><ele>316.5</ele><time>2026-04-08T16:20:22.999Z</time></trkpt><trkpt lat="46.25737931755381" lon="13.257063670454636"><ele>315.0</ele><time>2026-04-08T16:20:23.999Z</time></trkpt><trkpt lat="46.25724876830934" lon="13.257057695826813"><ele>313.5</ele><time>2026-04-08T16:20:24.999Z</time></trkpt><trkpt lat="46.25710539735373" lon="13.257073014192162"><ele>312.0</ele><time>2026-04-08T16:20:25.999Z</time></trkpt><trkpt lat="46.25695339564495" lon="13.257094926535762"><ele>311.3333333333333</ele><time>2026-04-08T16:20:26.999Z</time></trkpt><trkpt lat="46.25678967668443" lon="13.257106237755535"><ele>310.66666666666663</ele><time>2026-04-08T16:20:27.999Z</time></trkpt><trkpt lat="46.25662044267018" lon="13.257103087800841"><ele>310.0</ele><time>2026-04-08T16:20:28.999Z</time></trkpt><trkpt lat="46.25644466858938" lon="13.257069682814"><ele>313.3333333333333</ele><time>2026-04-08T16:20:29.999Z</time></trkpt><trkpt lat="46.25625336925202" lon="13.257014566246347"><ele>316.6666666666667</ele><time>2026-04-08T16:20:30.999Z</time></trkpt><trkpt lat="46.25604543535013" lon="13.256940167542004"><ele>320.0</ele><time>2026-04-08T16:20:31.999Z</time></trkpt><trkpt lat="46.25585670408892" lon="13.256893601848347"><ele>320.0</ele><time>2026-04-08T16:20:32.999Z</time></trkpt><trkpt lat="46.25565871226128" lon="13.256862422575352"><ele>320.0</ele><time>2026-04-08T16:20:33.999Z</time></trkpt><trkpt lat="46.25547980714952" lon="13.256818833552186"><ele>320.0</ele><time>2026-04-08T16:20:34.999Z</time></trkpt><trkpt lat="46.25531946407845" lon="13.25675276950892"><ele>328.33333333333337</ele><time>2026-04-08T16:20:35.999Z</time></trkpt><trkpt lat="46.25514953280627" lon="13.25662429282254"><ele>336.6666666666667</ele><time>2026-04-08T16:20:36.999Z</time></trkpt><trkpt lat="46.25500158375994" lon="13.25648066634645"><ele>345.0</ele><time>2026-04-08T16:20:37.999Z</time></trkpt><trkpt lat="46.25485455947785" lon="13.256374355334607"><ele>343.0</ele><time>2026-04-08T16:20:38.999Z</time></trkpt><trkpt lat="46.25469364019288" lon="13.256289047829618"><ele>341.0</ele><time>2026-04-08T16:20:39.999Z</time></trkpt><trkpt lat="46.25453435954929" lon="13.256256359022244"><ele>339.0</ele><time>2026-04-08T16:20:41Z</time></trkpt><trkpt lat="46.254364772685214" lon="13.256239765460133"><ele>339.0</ele><time>2026-04-08T16:20:42Z</time></trkpt><trkpt lat="46.25417897441364" lon="13.256223367316151"><ele>339.0</ele><time>2026-04-08T16:20:43Z</time></trkpt><trkpt lat="46.253981509250195" lon="13.256200476102814"><ele>339.0</ele><time>2026-04-08T16:20:44Z</time></trkpt><trkpt lat="46.25379007284796" lon="13.25617654411475"><ele>339.0</ele><time>2026-04-08T16:20:45Z</time></trkpt><trkpt lat="46.253602197622584" lon="13.256150323547757"><ele>339.0</ele><time>2026-04-08T16:20:46Z</time></trkpt><trkpt lat="46.25341047235762" lon="13.256112887432224"><ele>339.0</ele><time>2026-04-08T16:20:47Z</time></trkpt><trkpt lat="46.253210198585016" lon="13.256044693843744"><ele>349.0</ele><time>2026-04-08T16:20:48Z</time></trkpt><trkpt lat="46.25300246905284" lon="13.255957794614408"><ele>359.0</ele><time>2026-04-08T16:20:49Z</time></trkpt><trkpt lat="46.252819436408686" lon="13.255869610529825"><ele>369.0</ele><time>2026-04-08T16:20:50Z</time></trkpt><trkpt lat="46.252658832525604" lon="13.255793361707882"><ele>369.0</ele><time>2026-04-08T16:20:51Z</time></trkpt><trkpt lat="46.25251778691391" lon="13.255724998535083"><ele>369.0</ele><time>2026-04-08T16:20:52Z</time></trkpt><trkpt lat="46.252403827313934" lon="13.255637333097129"><ele>369.0</ele><time>2026-04-08T16:20:53Z</time></trkpt><trkpt lat="46.252305430400575" lon="13.255503224594543"><ele>369.0</ele><time>2026-04-08T16:20:54Z</time></trkpt><trkpt lat="46.25224132307539" lon="13.25532862617994"><ele>368.75</ele><time>2026-04-08T16:20:55Z</time></trkpt><trkpt lat="46.25220327551807" lon="13.25511845528629"><ele>368.5</ele><time>2026-04-08T16:20:56Z</time></trkpt><trkpt lat="46.25216236249426" lon="13.254914883421097"><ele>368.25</ele><time>2026-04-08T16:20:57Z</time></trkpt><trkpt lat="46.252084461939226" lon="13.254728367414536"><ele>368.0</ele><time>2026-04-08T16:20:58Z</time></trkpt><trkpt lat="46.2519938345639" lon="13.25451175531441"><ele>362.0</ele><time>2026-04-08T16:20:59Z</time></trkpt><trkpt lat="46.2519123494828" lon="13.254293734893162"><ele>356.0</ele><time>2026-04-08T16:21:00Z</time></trkpt><trkpt lat="46.25184275074696" lon="13.254081149443032"><ele>350.0</ele><time>2026-04-08T16:21:01Z</time></trkpt><trkpt lat="46.251797958872835" lon="13.253834705268265"><ele>348.6666666666667</ele><time>2026-04-08T16:21:02Z</time></trkpt><trkpt lat="46.251778900328" lon="13.25353038932377"><ele>347.3333333333333</ele><time>2026-04-08T16:21:03Z</time></trkpt><trkpt lat="46.25171756884792" lon="13.253223174539189"><ele>346.0</ele><time>2026-04-08T16:21:04Z</time></trkpt><trkpt lat="46.25164149741169" lon="13.252953084557326"><ele>345.0</ele><time>2026-04-08T16:21:05Z</time></trkpt><trkpt lat="46.25156395852484" lon="13.252665240341855"><ele>344.0</ele><time>2026-04-08T16:21:06Z</time></trkpt><trkpt lat="46.251486762897144" lon="13.252367146960966"><ele>343.0</ele><time>2026-04-08T16:21:07Z</time></trkpt><trkpt lat="46.25141284521283" lon="13.252091138282218"><ele>348.3333333333333</ele><time>2026-04-08T16:21:08Z</time></trkpt><trkpt lat="46.25134928685385" lon="13.251851790944466"><ele>353.6666666666667</ele><time>2026-04-08T16:21:09Z</time></trkpt><trkpt lat="46.25128872462748" lon="13.25163746103099"><ele>359.0</ele><time>2026-04-08T16:21:10Z</time></trkpt><trkpt lat="46.25122790846294" lon="13.251438617970196"><ele>359.0</ele><time>2026-04-08T16:21:11Z</time></trkpt><trkpt lat="46.251152403940154" lon="13.251256167704497"><ele>359.0</ele><time>2026-04-08T16:21:12Z</time></trkpt><trkpt lat="46.25105569092491" lon="13.251096037810079"><ele>359.0</ele><time>2026-04-08T16:21:13Z</time></trkpt><trkpt lat="46.25094161066208" lon="13.250959039979026"><ele>359.0</ele><time>2026-04-08T16:21:14Z</time></trkpt><trkpt lat="46.250816085882946" lon="13.250840849567409"><ele>359.0</ele><time>2026-04-08T16:21:15Z</time></trkpt><trkpt lat="46.25070839737492" lon="13.250749722973021"><ele>359.0</ele><time>2026-04-08T16:21:16Z</time></trkpt><trkpt lat="46.25059323776693" lon="13.250685522955187"><ele>359.0</ele><time>2026-04-08T16:21:17Z</time></trkpt><trkpt lat="46.2504451292575" lon="13.250663995539107"><ele>359.0</ele><time>2026-04-08T16:21:18Z</time></trkpt><trkpt lat="46.250279528554174" lon="13.250672165239568"><ele>347.6666666666667</ele><time>2026-04-08T16:21:19Z</time></trkpt><trkpt lat="46.25012618841411" lon="13.250679189957733"><ele>336.3333333333333</ele><time>2026-04-08T16:21:20Z</time></trkpt><trkpt lat="46.249968679405754" lon="13.250681291867298"><ele>325.0</ele><time>2026-04-08T16:21:21Z</time></trkpt><trkpt lat="46.24980823376285" lon="13.250654731342816"><ele>326.3333333333333</ele><time>2026-04-08T16:21:22Z</time></trkpt><trkpt lat="46.249640506891126" lon="13.250594505478956"><ele>327.6666666666667</ele><time>2026-04-08T16:21:23Z</time></trkpt><trkpt lat="46.24945764277112" lon="13.25050808707352"><ele>329.0</ele><time>2026-04-08T16:21:24Z</time></trkpt><trkpt lat="46.249251419484864" lon="13.250428396276526"><ele>329.0</ele><time>2026-04-08T16:21:25Z</time></trkpt><trkpt lat="46.249042953965436" lon="13.250348062029476"><ele>329.0</ele><time>2026-04-08T16:21:26Z</time></trkpt><trkpt lat="46.24884385904584" lon="13.250258489067631"><ele>329.0</ele><time>2026-04-08T16:21:27Z</time></trkpt><trkpt lat="46.24865994718727" lon="13.25017000324961"><ele>339.6666666666667</ele><time>2026-04-08T16:21:28Z</time></trkpt><trkpt lat="46.2484898430883" lon="13.250067191988395"><ele>350.3333333333333</ele><time>2026-04-08T16:21:29Z</time></trkpt><trkpt lat="46.24833919011042" lon="13.249938397060946"><ele>361.0</ele><time>2026-04-08T16:21:30Z</time></trkpt><trkpt lat="46.248217708454916" lon="13.24976391036862"><ele>363.3333333333333</ele><time>2026-04-08T16:21:31Z</time></trkpt><trkpt lat="46.24807644680169" lon="13.249607521567556"><ele>365.6666666666667</ele><time>2026-04-08T16:21:32Z</time></trkpt><trkpt lat="46.24795904549588" lon="13.249410184719762"><ele>368.0</ele><time>2026-04-08T16:21:33Z</time></trkpt><trkpt lat="46.24785683468525" lon="13.249188472662901"><ele>365.6666666666667</ele><time>2026-04-08T16:21:34Z</time></trkpt><trkpt lat="46.247762152253166" lon="13.248949818263974"><ele>363.3333333333333</ele><time>2026-04-08T16:21:35Z</time></trkpt><trkpt lat="46.24766698577654" lon="13.24870755007607"><ele>361.0</ele><time>2026-04-08T16:21:36Z</time></trkpt><trkpt lat="46.24756343137171" lon="13.248494043974624"><ele>361.0</ele><time>2026-04-08T16:21:37Z</time></trkpt><trkpt lat="46.24746524194246" lon="13.248312829151256"><ele>361.0</ele><time>2026-04-08T16:21:38Z</time></trkpt><trkpt lat="46.24737290262709" lon="13.248150397734745"><ele>361.0</ele><time>2026-04-08T16:21:39Z</time></trkpt><trkpt lat="46.2472917996926" lon="13.248005229552149"><ele>361.0</ele><time>2026-04-08T16:21:40Z</time></trkpt><trkpt lat="46.24720731744881" lon="13.24788619914294"><ele>356.0</ele><time>2026-04-08T16:21:41Z</time></trkpt><trkpt lat="46.247102094681175" lon="13.247777995764997"><ele>351.0</ele><time>2026-04-08T16:21:42Z</time></trkpt><trkpt lat="46.24698095008403" lon="13.247695460243628"><ele>346.0</ele><time>2026-04-08T16:21:43Z</time></trkpt><trkpt lat="46.246845091599454" lon="13.247634177915861"><ele>341.0</ele><time>2026-04-08T16:21:44Z</time></trkpt><trkpt lat="46.24670291166572" lon="13.247581462359474"><ele>341.0</ele><time>2026-04-08T16:21:45Z</time></trkpt><trkpt lat="46.246568763145554" lon="13.24752032290578"><ele>341.0</ele><time>2026-04-08T16:21:46Z</time></trkpt><trkpt lat="46.24640970148937" lon="13.2474482152572"><ele>341.0</ele><time>2026-04-08T16:21:47Z</time></trkpt><trkpt lat="46.24623020648599" lon="13.247348022213377"><ele>341.0</ele><time>2026-04-08T16:21:48Z</time></trkpt><trkpt lat="46.24607342641725" lon="13.24729588706592"><ele>341.0</ele><time>2026-04-08T16:21:49Z</time></trkpt><trkpt lat="46.24593643045735" lon="13.24721413956105"><ele>341.0</ele><time>2026-04-08T16:21:50Z</time></trkpt><trkpt lat="46.24582294950999" lon="13.247085289509437"><ele>341.0</ele><time>2026-04-08T16:21:51Z</time></trkpt><trkpt lat="46.24570833963715" lon="13.246901794256496"><ele>341.0</ele><time>2026-04-08T16:21:52Z</time></trkpt><trkpt lat="46.245644661475716" lon="13.246678035153487"><ele>341.0</ele><time>2026-04-08T16:21:53Z</time></trkpt><trkpt lat="46.24556532955874" lon="13.246454449031413"><ele>354.0</ele><time>2026-04-08T16:21:54Z</time></trkpt><trkpt lat="46.245503407284666" lon="13.24623572472394"><ele>367.0</ele><time>2026-04-08T16:21:55Z</time></trkpt><trkpt lat="46.24545190102206" lon="13.246014943483308"><ele>380.0</ele><time>2026-04-08T16:21:56Z</time></trkpt><trkpt lat="46.24542993844088" lon="13.245781474337013"><ele>374.0</ele><time>2026-04-08T16:21:57Z</time></trkpt><trkpt lat="46.245428281326944" lon="13.24554221327157"><ele>368.0</ele><time>2026-04-08T16:21:58Z</time></trkpt><trkpt lat="46.245450999876084" lon="13.245316739663348"><ele>362.0</ele><time>2026-04-08T16:21:59Z</time></trkpt><trkpt lat="46.24548938582528" lon="13.245126494162294"><ele>362.0</ele><time>2026-04-08T16:22:00Z</time></trkpt><trkpt lat="46.245517380215965" lon="13.244953906868103"><ele>362.0</ele><time>2026-04-08T16:22:01Z</time></trkpt><trkpt lat="46.245505827111685" lon="13.244768521590819"><ele>362.0</ele><time>2026-04-08T16:22:02Z</time></trkpt><trkpt lat="46.245471541759585" lon="13.244583693960106"><ele>362.0</ele><time>2026-04-08T16:22:03Z</time></trkpt><trkpt lat="46.24541925142402" lon="13.244428103609552"><ele>356.25</ele><time>2026-04-08T16:22:04Z</time></trkpt><trkpt lat="46.24533860923029" lon="13.24428370390712"><ele>350.5</ele><time>2026-04-08T16:22:05Z</time></trkpt><trkpt lat="46.24524062642769" lon="13.244184421274165"><ele>344.75</ele><time>2026-04-08T16:22:05.999Z</time></trkpt><trkpt lat="46.24511991588765" lon="13.24412474201539"><ele>339.0</ele><time>2026-04-08T16:22:06.999Z</time></trkpt><trkpt lat="46.24497571596008" lon="13.244099375856939"><ele>339.0</ele><time>2026-04-08T16:22:07.999Z</time></trkpt><trkpt lat="46.24481869654982" lon="13.24411759620189"><ele>339.0</ele><time>2026-04-08T16:22:08.999Z</time></trkpt><trkpt lat="46.244648082895836" lon="13.244141525884208"><ele>339.0</ele><time>2026-04-08T16:22:09.999Z</time></trkpt><trkpt lat="46.24447378646454" lon="13.244158143829752"><ele>338.0</ele><time>2026-04-08T16:22:10.999Z</time></trkpt><trkpt lat="46.24428232610864" lon="13.244177792672732"><ele>337.0</ele><time>2026-04-08T16:22:11.999Z</time></trkpt><trkpt lat="46.24411031101785" lon="13.244198860455503"><ele>336.0</ele><time>2026-04-08T16:22:12.999Z</time></trkpt><trkpt lat="46.243961496075926" lon="13.244202160494732"><ele>334.0</ele><time>2026-04-08T16:22:13.999Z</time></trkpt><trkpt lat="46.243835146043345" lon="13.24416607543607"><ele>332.0</ele><time>2026-04-08T16:22:14.999Z</time></trkpt><trkpt lat="46.24373234091342" lon="13.244043456729079"><ele>330.0</ele><time>2026-04-08T16:22:15.999Z</time></trkpt><trkpt lat="46.24360319418744" lon="13.243917367180314"><ele>328.0</ele><time>2026-04-08T16:22:16.999Z</time></trkpt><trkpt lat="46.24348056587289" lon="13.243767206532782"><ele>328.0</ele><time>2026-04-08T16:22:17.999Z</time></trkpt><trkpt lat="46.24334765457241" lon="13.243618980645284"><ele>328.0</ele><time>2026-04-08T16:22:18.999Z</time></trkpt><trkpt lat="46.24319986691112" lon="13.2434369788945"><ele>328.0</ele><time>2026-04-08T16:22:19.999Z</time></trkpt><trkpt lat="46.2430408557955" lon="13.243216400126574"><ele>336.5</ele><time>2026-04-08T16:22:20.999Z</time></trkpt><trkpt lat="46.24287214696564" lon="13.242964766148363"><ele>345.0</ele><time>2026-04-08T16:22:21.999Z</time></trkpt><trkpt lat="46.24270302835037" lon="13.24272101645708"><ele>345.0</ele><time>2026-04-08T16:22:22.999Z</time></trkpt><trkpt lat="46.24254275810861" lon="13.242505873924781"><ele>345.0</ele><time>2026-04-08T16:22:23.999Z</time></trkpt><trkpt lat="46.242391817142845" lon="13.242299786604312"><ele>345.0</ele><time>2026-04-08T16:22:24.999Z</time></trkpt><trkpt lat="46.242246835040916" lon="13.242093529455081"><ele>347.0</ele><time>2026-04-08T16:22:25.999Z</time></trkpt><trkpt lat="46.24211073281161" lon="13.24188714338159"><ele>349.0</ele><time>2026-04-08T16:22:26.999Z</time></trkpt><trkpt lat="46.24199719788618" lon="13.241673742712"><ele>351.0</ele><time>2026-04-08T16:22:27.999Z</time></trkpt><trkpt lat="46.2418998713471" lon="13.241440988350078"><ele>351.0</ele><time>2026-04-08T16:22:28.999Z</time></trkpt><trkpt lat="46.24181005308306" lon="13.241182575907734"><ele>351.0</ele><time>2026-04-08T16:22:29.999Z</time></trkpt><trkpt lat="46.241733493852344" lon="13.24090155942393"><ele>351.0</ele><time>2026-04-08T16:22:30.999Z</time></trkpt><trkpt lat="46.24165447424705" lon="13.24062832282026"><ele>354.6666666666667</ele><time>2026-04-08T16:22:31.999Z</time></trkpt><trkpt lat="46.24158050001707" lon="13.240382554359224"><ele>358.33333333333337</ele><time>2026-04-08T16:22:32.999Z</time></trkpt><trkpt lat="46.24150106065155" lon="13.240157921251207"><ele>362.0</ele><time>2026-04-08T16:22:33.999Z</time></trkpt><trkpt lat="46.24140472069191" lon="13.239963821478337"><ele>357.33333333333337</ele><time>2026-04-08T16:22:34.999Z</time></trkpt><trkpt lat="46.241293858747284" lon="13.239795710318328"><ele>352.6666666666667</ele><time>2026-04-08T16:22:35.999Z</time></trkpt><trkpt lat="46.24119872114907" lon="13.239630540199935"><ele>348.0</ele><time>2026-04-08T16:22:36.999Z</time></trkpt><trkpt lat="46.24113007679737" lon="13.239430722161632"><ele>348.0</ele><time>2026-04-08T16:22:37.999Z</time></trkpt><trkpt lat="46.24106225110572" lon="13.239180470938408"><ele>348.0</ele><time>2026-04-08T16:22:38.999Z</time></trkpt><trkpt lat="46.24098786764461" lon="13.238897528189357"><ele>348.0</ele><time>2026-04-08T16:22:39.999Z</time></trkpt><trkpt lat="46.24091587318481" lon="13.238638145725306"><ele>344.3333333333333</ele><time>2026-04-08T16:22:40.999Z</time></trkpt><trkpt lat="46.240841127034834" lon="13.238369599472513"><ele>340.66666666666663</ele><time>2026-04-08T16:22:41.999Z</time></trkpt><trkpt lat="46.24076271028012" lon="13.238082598091252"><ele>337.0</ele><time>2026-04-08T16:22:42.999Z</time></trkpt><trkpt lat="46.24067644864472" lon="13.237782048747277"><ele>336.5</ele><time>2026-04-08T16:22:43.999Z</time></trkpt><trkpt lat="46.24058168632044" lon="13.237466087659456"><ele>336.0</ele><time>2026-04-08T16:22:44.999Z</time></trkpt><trkpt lat="46.24048159022129" lon="13.237139058068575"><ele>336.0</ele><time>2026-04-08T16:22:45.999Z</time></trkpt><trkpt lat="46.24038511065498" lon="13.236823609458291"><ele>336.0</ele><time>2026-04-08T16:22:47Z</time></trkpt><trkpt lat="46.240293712076046" lon="13.236523615930164"><ele>324.3333333333333</ele><time>2026-04-08T16:22:48Z</time></trkpt><trkpt lat="46.240209235795" lon="13.236243413136025"><ele>312.66666666666663</ele><time>2026-04-08T16:22:49Z</time></trkpt><trkpt lat="46.24012106280998" lon="13.235974443763988"><ele>301.0</ele><time>2026-04-08T16:22:50Z</time></trkpt><trkpt lat="46.24002130422719" lon="13.235722855872716"><ele>334.3333333333333</ele><time>2026-04-08T16:22:51Z</time></trkpt><trkpt lat="46.239921843939776" lon="13.235497922514469"><ele>367.66666666666663</ele><time>2026-04-08T16:22:52Z</time></trkpt><trkpt lat="46.23984011532492" lon="13.235288458748718"><ele>401.0</ele><time>2026-04-08T16:22:53Z</time></trkpt><trkpt lat="46.239784235483846" lon="13.235059934794645"><ele>401.0</ele><time>2026-04-08T16:22:54Z</time></trkpt><trkpt lat="46.239753439564055" lon="13.23483614711123"><ele>401.0</ele><time>2026-04-08T16:22:55Z</time></trkpt><trkpt lat="46.23970959882905" lon="13.234635139494586"><ele>401.0</ele><time>2026-04-08T16:22:56Z</time></trkpt><trkpt lat="46.23961958083524" lon="13.234438617073456"><ele>401.0</ele><time>2026-04-08T16:22:57Z</time></trkpt><trkpt lat="46.239512968818936" lon="13.234246640958668"><ele>401.0</ele><time>2026-04-08T16:22:58Z</time></trkpt><trkpt lat="46.2394092132171" lon="13.234063634261041"><ele>401.0</ele><time>2026-04-08T16:22:59Z</time></trkpt><trkpt lat="46.23931745318164" lon="13.233875548418549"><ele>401.0</ele><time>2026-04-08T16:23:00Z</time></trkpt><trkpt lat="46.23923899775245" lon="13.233659048336008"><ele>401.0</ele><time>2026-04-08T16:23:01Z</time></trkpt><trkpt lat="46.239181069272206" lon="13.233403314847"><ele>401.0</ele><time>2026-04-08T16:23:02Z</time></trkpt><trkpt lat="46.23912399631098" lon="13.23318006941389"><ele>388.3333333333333</ele><time>2026-04-08T16:23:03Z</time></trkpt><trkpt lat="46.23904188851817" lon="13.232964067269226"><ele>375.66666666666663</ele><time>2026-04-08T16:23:04Z</time></trkpt><trkpt lat="46.23893594429331" lon="13.232739737697134"><ele>363.0</ele><time>2026-04-08T16:23:05Z</time></trkpt><trkpt lat="46.23883073641821" lon="13.23251012908568"><ele>348.0</ele><time>2026-04-08T16:23:06Z</time></trkpt><trkpt lat="46.23872610185272" lon="13.23227693847567"><ele>333.0</ele><time>2026-04-08T16:23:07Z</time></trkpt><trkpt lat="46.238612843785006" lon="13.232035663543662"><ele>318.0</ele><time>2026-04-08T16:23:08Z</time></trkpt><trkpt lat="46.238498407491264" lon="13.23178656489209"><ele>318.0</ele><time>2026-04-08T16:23:09Z</time></trkpt><trkpt lat="46.23840380794391" lon="13.231572892795947"><ele>318.0</ele><time>2026-04-08T16:23:10Z</time></trkpt><trkpt lat="46.23832016461556" lon="13.231384829373532"><ele>318.0</ele><time>2026-04-08T16:23:11Z</time></trkpt><trkpt lat="46.23825266300603" lon="13.231184097846272"><ele>312.0</ele><time>2026-04-08T16:23:12Z</time></trkpt><trkpt lat="46.23819539106598" lon="13.230985565519775"><ele>306.0</ele><time>2026-04-08T16:23:13Z</time></trkpt><trkpt lat="46.23812877612607" lon="13.230828789350372"><ele>300.0</ele><time>2026-04-08T16:23:14Z</time></trkpt><trkpt lat="46.23804052605767" lon="13.230684288235437"><ele>294.0</ele><time>2026-04-08T16:23:15Z</time></trkpt><trkpt lat="46.23792677743259" lon="13.230569339425651"><ele>288.0</ele><time>2026-04-08T16:23:16Z</time></trkpt><trkpt lat="46.23779521419909" lon="13.230483745586458"><ele>282.0</ele><time>2026-04-08T16:23:17Z</time></trkpt><trkpt lat="46.237655978137674" lon="13.230426819496317"><ele>276.0</ele><time>2026-04-08T16:23:18Z</time></trkpt><trkpt lat="46.23750744445505" lon="13.230399201024674"><ele>270.0</ele><time>2026-04-08T16:23:19Z</time></trkpt><trkpt lat="46.23735578486048" lon="13.2303853850877"><ele>267.0</ele><time>2026-04-08T16:23:20Z</time></trkpt><trkpt lat="46.23719290326434" lon="13.230373431549479"><ele>264.0</ele><time>2026-04-08T16:23:21Z</time></trkpt><trkpt lat="46.237020932521226" lon="13.230369572909337"><ele>261.0</ele><time>2026-04-08T16:23:22Z</time></trkpt><trkpt lat="46.236830806946124" lon="13.230379486298647"><ele>261.0</ele><time>2026-04-08T16:23:23Z</time></trkpt><trkpt lat="46.23663480143064" lon="13.23040872583221"><ele>261.0</ele><time>2026-04-08T16:23:24Z</time></trkpt><trkpt lat="46.23642182851022" lon="13.230452860277422"><ele>261.0</ele><time>2026-04-08T16:23:25Z</time></trkpt><trkpt lat="46.23621503634406" lon="13.230490759983537"><ele>261.0</ele><time>2026-04-08T16:23:26Z</time></trkpt><trkpt lat="46.236011955331364" lon="13.230518469724906"><ele>261.0</ele><time>2026-04-08T16:23:27Z</time></trkpt><trkpt lat="46.235805257790794" lon="13.230549151285112"><ele>261.0</ele><time>2026-04-08T16:23:28Z</time></trkpt><trkpt lat="46.23559986102098" lon="13.23057943366685"><ele>263.6666666666667</ele><time>2026-04-08T16:23:29Z</time></trkpt><trkpt lat="46.23541397917831" lon="13.230610838818341"><ele>266.33333333333337</ele><time>2026-04-08T16:23:30Z</time></trkpt><trkpt lat="46.235241549287366" lon="13.230631877558237"><ele>269.0</ele><time>2026-04-08T16:23:31Z</time></trkpt><trkpt lat="46.235080311253085" lon="13.230620923603652"><ele>269.0</ele><time>2026-04-08T16:23:32Z</time></trkpt><trkpt lat="46.234919548261395" lon="13.230581248321377"><ele>269.0</ele><time>2026-04-08T16:23:33Z</time></trkpt><trkpt lat="46.234752872150814" lon="13.230497611221017"><ele>269.0</ele><time>2026-04-08T16:23:34Z</time></trkpt><trkpt lat="46.23458971036385" lon="13.230396190588026"><ele>269.6666666666667</ele><time>2026-04-08T16:23:35Z</time></trkpt><trkpt lat="46.23442929054156" lon="13.230306816622043"><ele>270.3333333333333</ele><time>2026-04-08T16:23:36Z</time></trkpt><trkpt lat="46.23426045953488" lon="13.230210293358693"><ele>271.0</ele><time>2026-04-08T16:23:37Z</time></trkpt><trkpt lat="46.23409233517996" lon="13.230112608657695"><ele>271.66666666666663</ele><time>2026-04-08T16:23:38Z</time></trkpt><trkpt lat="46.23393012770357" lon="13.2300245530203"><ele>272.3333333333333</ele><time>2026-04-08T16:23:39Z</time></trkpt><trkpt lat="46.23378610447098" lon="13.229940794179319"><ele>273.0</ele><time>2026-04-08T16:23:40Z</time></trkpt><trkpt lat="46.23365594128207" lon="13.229863493533385"><ele>271.75</ele><time>2026-04-08T16:23:41Z</time></trkpt><trkpt lat="46.2335377922085" lon="13.229789052282914"><ele>270.5</ele><time>2026-04-08T16:23:42Z</time></trkpt><trkpt lat="46.23342264346797" lon="13.229699214134106"><ele>269.25</ele><time>2026-04-08T16:23:43Z</time></trkpt><trkpt lat="46.233318866681515" lon="13.22958773088403"><ele>268.0</ele><time>2026-04-08T16:23:44Z</time></trkpt><trkpt lat="46.23322281981384" lon="13.229449261258987"><ele>268.75</ele><time>2026-04-08T16:23:45Z</time></trkpt><trkpt lat="46.23313619433101" lon="13.229292374744654"><ele>269.5</ele><time>2026-04-08T16:23:46Z</time></trkpt><trkpt lat="46.23304142020148" lon="13.229153115452242"><ele>270.25</ele><time>2026-04-08T16:23:47Z</time></trkpt><trkpt lat="46.23293120542932" lon="13.229042812854"><ele>271.0</ele><time>2026-04-08T16:23:48Z</time></trkpt><trkpt lat="46.232814870681786" lon="13.228946295573843"><ele>271.0</ele><time>2026-04-08T16:23:49Z</time></trkpt><trkpt lat="46.23269834591379" lon="13.228850062403716"><ele>271.0</ele><time>2026-04-08T16:23:50Z</time></trkpt><trkpt lat="46.232573309537834" lon="13.22875367527238"><ele>271.0</ele><time>2026-04-08T16:23:51Z</time></trkpt><trkpt lat="46.23243355424826" lon="13.228650121674317"><ele>271.0</ele><time>2026-04-08T16:23:52Z</time></trkpt><trkpt lat="46.232280444334634" lon="13.228551686048434"><ele>270.0</ele><time>2026-04-08T16:23:53Z</time></trkpt><trkpt lat="46.232122400161245" lon="13.228466812096565"><ele>269.0</ele><time>2026-04-08T16:23:54Z</time></trkpt><trkpt lat="46.231965490828905" lon="13.228401462119212"><ele>268.0</ele><time>2026-04-08T16:23:55Z</time></trkpt><trkpt lat="46.23181278773657" lon="13.228349838883567"><ele>268.0</ele><time>2026-04-08T16:23:56Z</time></trkpt><trkpt lat="46.23165981144202" lon="13.228293392957998"><ele>268.0</ele><time>2026-04-08T16:23:57Z</time></trkpt><trkpt lat="46.231523872761684" lon="13.228239137280015"><ele>268.0</ele><time>2026-04-08T16:23:58Z</time></trkpt><trkpt lat="46.23139693251268" lon="13.22818174436114"><ele>268.0</ele><time>2026-04-08T16:23:59Z</time></trkpt><trkpt lat="46.23125820046151" lon="13.228087463222664"><ele>266.75</ele><time>2026-04-08T16:24:00Z</time></trkpt><trkpt lat="46.23114141943291" lon="13.22797337649756"><ele>265.5</ele><time>2026-04-08T16:24:01Z</time></trkpt><trkpt lat="46.23104089814457" lon="13.227866694949205"><ele>264.25</ele><time>2026-04-08T16:24:02Z</time></trkpt><trkpt lat="46.230941957132394" lon="13.227766450794496"><ele>263.0</ele><time>2026-04-08T16:24:02.999Z</time></trkpt><trkpt lat="46.230838412151925" lon="13.227675260725078"><ele>263.0</ele><time>2026-04-08T16:24:03.999Z</time></trkpt><trkpt lat="46.23072798401267" lon="13.22760446355405"><ele>263.0</ele><time>2026-04-08T16:24:04.999Z</time></trkpt><trkpt lat="46.230610474453165" lon="13.227567499368128"><ele>263.0</ele><time>2026-04-08T16:24:05.999Z</time></trkpt><trkpt lat="46.23048622545796" lon="13.227561558703716"><ele>263.0</ele><time>2026-04-08T16:24:06.999Z</time></trkpt><trkpt lat="46.2303561945726" lon="13.227565948340194"><ele>264.33333333333337</ele><time>2026-04-08T16:24:07.999Z</time></trkpt><trkpt lat="46.23021492990972" lon="13.227573802593117"><ele>265.6666666666667</ele><time>2026-04-08T16:24:08.999Z</time></trkpt><trkpt lat="46.230059747562265" lon="13.227574114458404"><ele>267.0</ele><time>2026-04-08T16:24:09.999Z</time></trkpt><trkpt lat="46.22990338163044" lon="13.227572453855787"><ele>267.0</ele><time>2026-04-08T16:24:10.999Z</time></trkpt><trkpt lat="46.229754345303185" lon="13.227580301412797"><ele>267.0</ele><time>2026-04-08T16:24:11.999Z</time></trkpt><trkpt lat="46.229613993969124" lon="13.227592219278273"><ele>267.0</ele><time>2026-04-08T16:24:12.999Z</time></trkpt><trkpt lat="46.22947020353596" lon="13.2276146346202"><ele>267.0</ele><time>2026-04-08T16:24:13.999Z</time></trkpt><trkpt lat="46.22932084584048" lon="13.227648981752457"><ele>267.0</ele><time>2026-04-08T16:24:14.999Z</time></trkpt><trkpt lat="46.2291716167002" lon="13.227683523084073"><ele>267.0</ele><time>2026-04-08T16:24:15.999Z</time></trkpt><trkpt lat="46.229043809263096" lon="13.227709682590373"><ele>267.0</ele><time>2026-04-08T16:24:16.999Z</time></trkpt><trkpt lat="46.228904853402014" lon="13.227725102670954"><ele>267.0</ele><time>2026-04-08T16:24:17.999Z</time></trkpt><trkpt lat="46.22875779544215" lon="13.227717536003064"><ele>266.5</ele><time>2026-04-08T16:24:18.999Z</time></trkpt><trkpt lat="46.2286174761145" lon="13.227667232401568"><ele>266.0</ele><time>2026-04-08T16:24:19.999Z</time></trkpt><trkpt lat="46.228486520343864" lon="13.227573425724074"><ele>265.5</ele><time>2026-04-08T16:24:20.999Z</time></trkpt><trkpt lat="46.22836186122904" lon="13.22745341255335"><ele>265.0</ele><time>2026-04-08T16:24:21.999Z</time></trkpt><trkpt lat="46.22823843719657" lon="13.22732037192"><ele>267.3333333333333</ele><time>2026-04-08T16:24:22.999Z</time></trkpt><trkpt lat="46.228100227517146" lon="13.22718062823842"><ele>269.6666666666667</ele><time>2026-04-08T16:24:23.999Z</time></trkpt><trkpt lat="46.227965596182045" lon="13.22704693908076"><ele>272.0</ele><time>2026-04-08T16:24:24.999Z</time></trkpt><trkpt lat="46.22783177884506" lon="13.226917602668523"><ele>272.0</ele><time>2026-04-08T16:24:25.999Z</time></trkpt><trkpt lat="46.227696166461484" lon="13.226790986412254"><ele>272.0</ele><time>2026-04-08T16:24:26.999Z</time></trkpt><trkpt lat="46.22755984834221" lon="13.226660335241725"><ele>272.0</ele><time>2026-04-08T16:24:27.999Z</time></trkpt><trkpt lat="46.22742157887596" lon="13.226521330533473"><ele>265.6666666666667</ele><time>2026-04-08T16:24:28.999Z</time></trkpt><trkpt lat="46.2272950853358" lon="13.22639299487418"><ele>259.3333333333333</ele><time>2026-04-08T16:24:29.999Z</time></trkpt><trkpt lat="46.22716461969756" lon="13.226272160250154"><ele>253.0</ele><time>2026-04-08T16:24:30.999Z</time></trkpt><trkpt lat="46.227033006545405" lon="13.22615412322253"><ele>253.0</ele><time>2026-04-08T16:24:31.999Z</time></trkpt><trkpt lat="46.226893141074136" lon="13.226047479915065"><ele>253.0</ele><time>2026-04-08T16:24:32.999Z</time></trkpt><trkpt lat="46.226739207126286" lon="13.225959378857258"><ele>253.0</ele><time>2026-04-08T16:24:33.999Z</time></trkpt><trkpt lat="46.22657556774385" lon="13.225893300226321"><ele>256.0</ele><time>2026-04-08T16:24:34.999Z</time></trkpt><trkpt lat="46.226405429665874" lon="13.225828541014248"><ele>259.0</ele><time>2026-04-08T16:24:35.999Z</time></trkpt><trkpt lat="46.22621717773639" lon="13.22575697509233"><ele>262.0</ele><time>2026-04-08T16:24:36.999Z</time></trkpt><trkpt lat="46.22602534737018" lon="13.225684454010048"><ele>258.3333333333333</ele><time>2026-04-08T16:24:37.999Z</time></trkpt><trkpt lat="46.225855539236065" lon="13.22561548302302"><ele>254.66666666666669</ele><time>2026-04-08T16:24:38.999Z</time></trkpt><trkpt lat="46.22569292332343" lon="13.225524672875936"><ele>251.0</ele><time>2026-04-08T16:24:39.999Z</time></trkpt><trkpt lat="46.225525326349405" lon="13.225390856452009"><ele>251.0</ele><time>2026-04-08T16:24:40.999Z</time></trkpt><trkpt lat="46.225364443102606" lon="13.22521690757052"><ele>251.0</ele><time>2026-04-08T16:24:41.999Z</time></trkpt><trkpt lat="46.22521746281958" lon="13.22507673701552"><ele>251.0</ele><time>2026-04-08T16:24:42.999Z</time></trkpt><trkpt lat="46.22506995428189" lon="13.224939409907016"><ele>245.66666666666669</ele><time>2026-04-08T16:24:43.999Z</time></trkpt><trkpt lat="46.22492865012705" lon="13.224811544688734"><ele>240.33333333333331</ele><time>2026-04-08T16:24:44.999Z</time></trkpt><trkpt lat="46.22478617684692" lon="13.224697770319926"><ele>235.0</ele><time>2026-04-08T16:24:45.999Z</time></trkpt><trkpt lat="46.224630856746614" lon="13.22460857286174"><ele>235.0</ele><time>2026-04-08T16:24:46.999Z</time></trkpt><trkpt lat="46.224470875201604" lon="13.224546153603338"><ele>235.0</ele><time>2026-04-08T16:24:47.999Z</time></trkpt><trkpt lat="46.22430307339721" lon="13.224494985683592"><ele>235.0</ele><time>2026-04-08T16:24:48.999Z</time></trkpt><trkpt lat="46.22412159269857" lon="13.22445070408833"><ele>237.0</ele><time>2026-04-08T16:24:49.999Z</time></trkpt><trkpt lat="46.223951140001155" lon="13.224403598220054"><ele>239.0</ele><time>2026-04-08T16:24:50.999Z</time></trkpt><trkpt lat="46.223768311592245" lon="13.224340387074433"><ele>241.0</ele><time>2026-04-08T16:24:51.999Z</time></trkpt><trkpt lat="46.22357017830474" lon="13.22428895309314"><ele>241.0</ele><time>2026-04-08T16:24:53Z</time></trkpt><trkpt lat="46.22337855410659" lon="13.224241252640443"><ele>241.0</ele><time>2026-04-08T16:24:54Z</time></trkpt><trkpt lat="46.22319788826714" lon="13.224185774617977"><ele>241.0</ele><time>2026-04-08T16:24:55Z</time></trkpt><trkpt lat="46.22301939572221" lon="13.22413578453138"><ele>241.0</ele><time>2026-04-08T16:24:56Z</time></trkpt><trkpt lat="46.222845249638674" lon="13.224090404148821"><ele>241.0</ele><time>2026-04-08T16:24:57Z</time></trkpt><trkpt lat="46.22268593923016" lon="13.224044869863961"><ele>241.0</ele><time>2026-04-08T16:24:58Z</time></trkpt><trkpt lat="46.222531944783" lon="13.224002029991713"><ele>237.0</ele><time>2026-04-08T16:24:59Z</time></trkpt><trkpt lat="46.22237740920384" lon="13.223962682092044"><ele>233.0</ele><time>2026-04-08T16:25:00Z</time></trkpt><trkpt lat="46.22222317608551" lon="13.223926660332289"><ele>229.0</ele><time>2026-04-08T16:25:01Z</time></trkpt><trkpt lat="46.222062330732605" lon="13.223894981179901"><ele>228.33333333333331</ele><time>2026-04-08T16:25:02Z</time></trkpt><trkpt lat="46.221902910164346" lon="13.223877954743969"><ele>227.66666666666669</ele><time>2026-04-08T16:25:03Z</time></trkpt><trkpt lat="46.221748362739966" lon="13.22385972355341"><ele>227.0</ele><time>2026-04-08T16:25:04Z</time></trkpt><trkpt lat="46.22159344060695" lon="13.223842142530298"><ele>227.0</ele><time>2026-04-08T16:25:05Z</time></trkpt><trkpt lat="46.22143945751502" lon="13.223828742846099"><ele>227.0</ele><time>2026-04-08T16:25:06Z</time></trkpt><trkpt lat="46.221281882875545" lon="13.223809185296053"><ele>227.0</ele><time>2026-04-08T16:25:07Z</time></trkpt><trkpt lat="46.22112585106951" lon="13.223786465630873"><ele>227.0</ele><time>2026-04-08T16:25:08Z</time></trkpt><trkpt lat="46.22097527522147" lon="13.223770815912223"><ele>227.0</ele><time>2026-04-08T16:25:09Z</time></trkpt><trkpt lat="46.22082111725923" lon="13.223753018200261"><ele>227.0</ele><time>2026-04-08T16:25:10Z</time></trkpt><trkpt lat="46.220668280647665" lon="13.22373448506686"><ele>227.0</ele><time>2026-04-08T16:25:11Z</time></trkpt><trkpt lat="46.2205213390798" lon="13.223717158194018"><ele>227.0</ele><time>2026-04-08T16:25:12Z</time></trkpt><trkpt lat="46.220388486875" lon="13.22370254398084"><ele>227.0</ele><time>2026-04-08T16:25:13Z</time></trkpt><trkpt lat="46.22025577934892" lon="13.223688575164035"><ele>227.0</ele><time>2026-04-08T16:25:14Z</time></trkpt><trkpt lat="46.220133590160025" lon="13.22367701066956"><ele>227.0</ele><time>2026-04-08T16:25:15Z</time></trkpt><trkpt lat="46.220016278805865" lon="13.223664361490746"><ele>227.0</ele><time>2026-04-08T16:25:16Z</time></trkpt><trkpt lat="46.219899009194194" lon="13.22365519816535"><ele>227.0</ele><time>2026-04-08T16:25:17Z</time></trkpt><trkpt lat="46.21978701708353" lon="13.22368416551643"><ele>227.0</ele><time>2026-04-08T16:25:18Z</time></trkpt><trkpt lat="46.21966836134081" lon="13.223737894260186"><ele>226.25</ele><time>2026-04-08T16:25:19Z</time></trkpt><trkpt lat="46.21954169574093" lon="13.223784842140121"><ele>225.5</ele><time>2026-04-08T16:25:20Z</time></trkpt><trkpt lat="46.21941549619507" lon="13.223832689586262"><ele>224.75</ele><time>2026-04-08T16:25:21Z</time></trkpt><trkpt lat="46.21929003704249" lon="13.223882878602515"><ele>224.0</ele><time>2026-04-08T16:25:22Z</time></trkpt><trkpt lat="46.21916309958585" lon="13.223931756986902"><ele>224.0</ele><time>2026-04-08T16:25:23Z</time></trkpt><trkpt lat="46.21902855877987" lon="13.223977973707308"><ele>224.0</ele><time>2026-04-08T16:25:24Z</time></trkpt><trkpt lat="46.218892347057654" lon="13.224033423474921"><ele>224.0</ele><time>2026-04-08T16:25:25Z</time></trkpt><trkpt lat="46.218756984114066" lon="13.224085015509608"><ele>224.0</ele><time>2026-04-08T16:25:26Z</time></trkpt><trkpt lat="46.218620044572674" lon="13.224128500914686"><ele>224.0</ele><time>2026-04-08T16:25:27Z</time></trkpt><trkpt lat="46.218484828770464" lon="13.224176426604128"><ele>224.0</ele><time>2026-04-08T16:25:28Z</time></trkpt><trkpt lat="46.21835471157641" lon="13.224229766759134"><ele>224.0</ele><time>2026-04-08T16:25:29Z</time></trkpt><trkpt lat="46.218238078284045" lon="13.224274843759384"><ele>224.0</ele><time>2026-04-08T16:25:30Z</time></trkpt><trkpt lat="46.21812379393588" lon="13.22431477547349"><ele>224.0</ele><time>2026-04-08T16:25:31Z</time></trkpt><trkpt lat="46.21800758313495" lon="13.224359419563513"><ele>223.99999999999997</ele><time>2026-04-08T16:25:32Z</time></trkpt><trkpt lat="46.2178950906432" lon="13.224402688034477"><ele>223.99999999999997</ele><time>2026-04-08T16:25:33Z</time></trkpt><trkpt lat="46.217792519621554" lon="13.224438997677398"><ele>224.0</ele><time>2026-04-08T16:25:34Z</time></trkpt><trkpt lat="46.217701295532535" lon="13.224471332813616"><ele>224.0</ele><time>2026-04-08T16:25:35Z</time></trkpt><trkpt lat="46.21761420410861" lon="13.224503691532112"><ele>224.0</ele><time>2026-04-08T16:25:36Z</time></trkpt><trkpt lat="46.217530572507904" lon="13.224534458970929"><ele>223.99999999999997</ele><time>2026-04-08T16:25:37Z</time></trkpt><trkpt lat="46.2174497129834" lon="13.224581033847276"><ele>223.99999999999997</ele><time>2026-04-08T16:25:38Z</time></trkpt><trkpt lat="46.21736807656516" lon="13.22464052414313"><ele>224.0</ele><time>2026-04-08T16:25:39Z</time></trkpt><trkpt lat="46.217280965979896" lon="13.224705366191888"><ele>224.0</ele><time>2026-04-08T16:25:40Z</time></trkpt><trkpt lat="46.217202358788" lon="13.224767242789852"><ele>223.79999999999998</ele><time>2026-04-08T16:25:41Z</time></trkpt><trkpt lat="46.217127283226176" lon="13.224825506663338"><ele>223.59999999999997</ele><time>2026-04-08T16:25:42Z</time></trkpt><trkpt lat="46.21703439756269" lon="13.224872319206442"><ele>223.4</ele><time>2026-04-08T16:25:43Z</time></trkpt><trkpt lat="46.21693411274097" lon="13.224951648211242"><ele>223.2</ele><time>2026-04-08T16:25:44Z</time></trkpt><trkpt lat="46.216813464456735" lon="13.225062600732963"><ele>223.0</ele><time>2026-04-08T16:25:45Z</time></trkpt><trkpt lat="46.21668005556555" lon="13.225150929449283"><ele>223.0</ele><time>2026-04-08T16:25:46Z</time></trkpt><trkpt lat="46.21656966402192" lon="13.225261850289538"><ele>223.0</ele><time>2026-04-08T16:25:47Z</time></trkpt><trkpt lat="46.21645178214936" lon="13.22532490471011"><ele>223.0</ele><time>2026-04-08T16:25:48Z</time></trkpt><trkpt lat="46.21633847097823" lon="13.225411849942581"><ele>223.0</ele><time>2026-04-08T16:25:49Z</time></trkpt><trkpt lat="46.21622334579425" lon="13.225500121871743"><ele>223.75</ele><time>2026-04-08T16:25:50Z</time></trkpt><trkpt lat="46.21611171145699" lon="13.225585717231517"><ele>224.5</ele><time>2026-04-08T16:25:51Z</time></trkpt><trkpt lat="46.215995354588316" lon="13.225674933546681"><ele>225.25</ele><time>2026-04-08T16:25:52Z</time></trkpt><trkpt lat="46.21588105743087" lon="13.225762570572458"><ele>226.0</ele><time>2026-04-08T16:25:53Z</time></trkpt><trkpt lat="46.215768823903524" lon="13.22584862532925"><ele>226.0</ele><time>2026-04-08T16:25:54Z</time></trkpt><trkpt lat="46.21565893519733" lon="13.225933568918006"><ele>226.0</ele><time>2026-04-08T16:25:55Z</time></trkpt><trkpt lat="46.215548524623046" lon="13.22601942177877"><ele>226.0</ele><time>2026-04-08T16:25:56Z</time></trkpt><trkpt lat="46.215437602033504" lon="13.226105672775116"><ele>226.0</ele><time>2026-04-08T16:25:57Z</time></trkpt><trkpt lat="46.21532727668835" lon="13.226191544883985"><ele>226.20000000000002</ele><time>2026-04-08T16:25:58Z</time></trkpt><trkpt lat="46.21521728533329" lon="13.226279254808896"><ele>226.40000000000003</ele><time>2026-04-08T16:25:59Z</time></trkpt><trkpt lat="46.21512006854169" lon="13.226359367250875"><ele>226.6</ele><time>2026-04-08T16:26:00Z</time></trkpt><trkpt lat="46.21503545128303" lon="13.226451617812936"><ele>226.8</ele><time>2026-04-08T16:26:01Z</time></trkpt><trkpt lat="46.21494836993007" lon="13.226524354035524"><ele>227.0</ele><time>2026-04-08T16:26:02Z</time></trkpt><trkpt lat="46.21485314286782" lon="13.22659489957851"><ele>225.25</ele><time>2026-04-08T16:26:03Z</time></trkpt><trkpt lat="46.21474400910232" lon="13.226667878909025"><ele>223.5</ele><time>2026-04-08T16:26:04Z</time></trkpt><trkpt lat="46.21462227810122" lon="13.226745866620657"><ele>221.75</ele><time>2026-04-08T16:26:05Z</time></trkpt><trkpt lat="46.214495811241896" lon="13.22681406352829"><ele>220.0</ele><time>2026-04-08T16:26:06Z</time></trkpt><trkpt lat="46.21435936851765" lon="13.226864826330745"><ele>220.0</ele><time>2026-04-08T16:26:07Z</time></trkpt><trkpt lat="46.21421731676142" lon="13.226914124728028"><ele>220.0</ele><time>2026-04-08T16:26:07.999Z</time></trkpt><trkpt lat="46.21407659582994" lon="13.226931617145935"><ele>220.0</ele><time>2026-04-08T16:26:08.999Z</time></trkpt><trkpt lat="46.21393871912436" lon="13.226969210427539"><ele>220.0</ele><time>2026-04-08T16:26:09.999Z</time></trkpt><trkpt lat="46.21379884352299" lon="13.227040937823988"><ele>219.25</ele><time>2026-04-08T16:26:10.999Z</time></trkpt><trkpt lat="46.213654413465314" lon="13.227100739600877"><ele>218.5</ele><time>2026-04-08T16:26:11.999Z</time></trkpt><trkpt lat="46.213514402172066" lon="13.22717536641354"><ele>217.75</ele><time>2026-04-08T16:26:12.999Z</time></trkpt><trkpt lat="46.21336940014365" lon="13.227225351126815"><ele>217.0</ele><time>2026-04-08T16:26:13.999Z</time></trkpt><trkpt lat="46.213234383452814" lon="13.227320290448096"><ele>216.33333333333331</ele><time>2026-04-08T16:26:14.999Z</time></trkpt><trkpt lat="46.213089791096515" lon="13.227394088069461"><ele>215.66666666666669</ele><time>2026-04-08T16:26:15.999Z</time></trkpt><trkpt lat="46.212941265718996" lon="13.22747033275163"><ele>215.0</ele><time>2026-04-08T16:26:16.999Z</time></trkpt><trkpt lat="46.21279261860314" lon="13.227545862502732"><ele>215.0</ele><time>2026-04-08T16:26:17.999Z</time></trkpt><trkpt lat="46.21264086353757" lon="13.227602536311643"><ele>215.0</ele><time>2026-04-08T16:26:18.999Z</time></trkpt><trkpt lat="46.21249510654971" lon="13.22767609221244"><ele>215.0</ele><time>2026-04-08T16:26:19.999Z</time></trkpt><trkpt lat="46.21235355753159" lon="13.227749175761014"><ele>215.0</ele><time>2026-04-08T16:26:20.999Z</time></trkpt><trkpt lat="46.212219529430214" lon="13.227843065485542"><ele>215.0</ele><time>2026-04-08T16:26:21.999Z</time></trkpt><trkpt lat="46.212074111378676" lon="13.227891705133679"><ele>215.0</ele><time>2026-04-08T16:26:22.999Z</time></trkpt><trkpt lat="46.211931761442216" lon="13.227964168510004"><ele>215.0</ele><time>2026-04-08T16:26:23.999Z</time></trkpt><trkpt lat="46.21179147887026" lon="13.228057628909644"><ele>215.0</ele><time>2026-04-08T16:26:24.999Z</time></trkpt><trkpt lat="46.21164387510571" lon="13.228132184990269"><ele>215.0</ele><time>2026-04-08T16:26:25.999Z</time></trkpt><trkpt lat="46.21148600096565" lon="13.228191083347866"><ele>215.0</ele><time>2026-04-08T16:26:26.999Z</time></trkpt><trkpt lat="46.211325266154255" lon="13.22827290556736"><ele>215.66666666666669</ele><time>2026-04-08T16:26:27.999Z</time></trkpt><trkpt lat="46.21116048936027" lon="13.22835693125538"><ele>216.33333333333331</ele><time>2026-04-08T16:26:28.999Z</time></trkpt><trkpt lat="46.21099066405635" lon="13.228444818501483"><ele>217.0</ele><time>2026-04-08T16:26:29.999Z</time></trkpt><trkpt lat="46.210822145969395" lon="13.228532029429847"><ele>217.0</ele><time>2026-04-08T16:26:30.999Z</time></trkpt><trkpt lat="46.21065911311249" lon="13.228616309639358"><ele>217.0</ele><time>2026-04-08T16:26:31.999Z</time></trkpt><trkpt lat="46.21050312521001" lon="13.228696955876671"><ele>217.0</ele><time>2026-04-08T16:26:32.999Z</time></trkpt><trkpt lat="46.21034634677127" lon="13.228778010862225"><ele>216.66666666666666</ele><time>2026-04-08T16:26:33.999Z</time></trkpt><trkpt lat="46.21019042627407" lon="13.228858193058155"><ele>216.33333333333331</ele><time>2026-04-08T16:26:34.999Z</time></trkpt><trkpt lat="46.21004189643505" lon="13.228958151190442"><ele>216.0</ele><time>2026-04-08T16:26:35.999Z</time></trkpt><trkpt lat="46.20988816275527" lon="13.229034221863015"><ele>215.33333333333331</ele><time>2026-04-08T16:26:36.999Z</time></trkpt><trkpt lat="46.20973605186083" lon="13.229110155603165"><ele>214.66666666666666</ele><time>2026-04-08T16:26:37.999Z</time></trkpt><trkpt lat="46.209585343133305" lon="13.229184580669953"><ele>214.0</ele><time>2026-04-08T16:26:38.999Z</time></trkpt><trkpt lat="46.20943375529771" lon="13.229260748540975"><ele>214.0</ele><time>2026-04-08T16:26:39.999Z</time></trkpt><trkpt lat="46.20928140163204" lon="13.229340691140004"><ele>214.0</ele><time>2026-04-08T16:26:40.999Z</time></trkpt><trkpt lat="46.20912248544497" lon="13.229422314059763"><ele>214.0</ele><time>2026-04-08T16:26:41.999Z</time></trkpt><trkpt lat="46.20896053078827" lon="13.22950289310302"><ele>212.33333333333331</ele><time>2026-04-08T16:26:42.999Z</time></trkpt><trkpt lat="46.20879926682046" lon="13.229587492075158"><ele>210.66666666666669</ele><time>2026-04-08T16:26:43.999Z</time></trkpt><trkpt lat="46.208650917253806" lon="13.229666069851335"><ele>209.0</ele><time>2026-04-08T16:26:44.999Z</time></trkpt><trkpt lat="46.208499854422456" lon="13.229741643223186"><ele>210.33333333333334</ele><time>2026-04-08T16:26:45.999Z</time></trkpt><trkpt lat="46.208351635525325" lon="13.229820339465306"><ele>211.66666666666669</ele><time>2026-04-08T16:26:46.999Z</time></trkpt><trkpt lat="46.208207835162895" lon="13.229897327327611"><ele>213.0</ele><time>2026-04-08T16:26:47.999Z</time></trkpt><trkpt lat="46.20806245625902" lon="13.229965562036186"><ele>213.0</ele><time>2026-04-08T16:26:48.999Z</time></trkpt><trkpt lat="46.20791543889575" lon="13.230029144353704"><ele>213.0</ele><time>2026-04-08T16:26:49.999Z</time></trkpt><trkpt lat="46.20776486192855" lon="13.230084755303139"><ele>213.0</ele><time>2026-04-08T16:26:50.999Z</time></trkpt><trkpt lat="46.207610586513695" lon="13.230132114554067"><ele>213.0</ele><time>2026-04-08T16:26:51.999Z</time></trkpt><trkpt lat="46.207453203523016" lon="13.230168349028949"><ele>213.0</ele><time>2026-04-08T16:26:52.999Z</time></trkpt><trkpt lat="46.20728641265371" lon="13.230193457813664"><ele>213.0</ele><time>2026-04-08T16:26:53.999Z</time></trkpt><trkpt lat="46.20711378239933" lon="13.230211238124138"><ele>213.0</ele><time>2026-04-08T16:26:54.999Z</time></trkpt><trkpt lat="46.20693705712846" lon="13.230229747349508"><ele>213.0</ele><time>2026-04-08T16:26:55.999Z</time></trkpt><trkpt lat="46.20675986839099" lon="13.230253639091528"><ele>213.0</ele><time>2026-04-08T16:26:56.999Z</time></trkpt><trkpt lat="46.20658383375798" lon="13.230274584054888"><ele>212.0</ele><time>2026-04-08T16:26:57.999Z</time></trkpt><trkpt lat="46.206402489726976" lon="13.230275681299466"><ele>211.0</ele><time>2026-04-08T16:26:59Z</time></trkpt><trkpt lat="46.2062243918895" lon="13.230302119383666"><ele>210.0</ele><time>2026-04-08T16:27:00Z</time></trkpt><trkpt lat="46.20605092491815" lon="13.230348956087116"><ele>210.0</ele><time>2026-04-08T16:27:01Z</time></trkpt><trkpt lat="46.205874314574075" lon="13.230370793874773"><ele>210.0</ele><time>2026-04-08T16:27:02Z</time></trkpt><trkpt lat="46.20570126866574" lon="13.230399771146468"><ele>210.0</ele><time>2026-04-08T16:27:03Z</time></trkpt><trkpt lat="46.20552816306209" lon="13.230433996309866"><ele>211.0</ele><time>2026-04-08T16:27:04Z</time></trkpt><trkpt lat="46.20535768602333" lon="13.230456302792845"><ele>212.0</ele><time>2026-04-08T16:27:05Z</time></trkpt><trkpt lat="46.205197406363716" lon="13.230478424011098"><ele>213.0</ele><time>2026-04-08T16:27:06Z</time></trkpt><trkpt lat="46.20504628740181" lon="13.230497273198287"><ele>213.0</ele><time>2026-04-08T16:27:07Z</time></trkpt><trkpt lat="46.204907600976576" lon="13.230502134310413"><ele>213.0</ele><time>2026-04-08T16:27:08Z</time></trkpt><trkpt lat="46.204771969226265" lon="13.230490214371208"><ele>213.0</ele><time>2026-04-08T16:27:09Z</time></trkpt><trkpt lat="46.2046310791096" lon="13.230439467570367"><ele>213.0</ele><time>2026-04-08T16:27:10Z</time></trkpt><trkpt lat="46.20448583868253" lon="13.230371744508966"><ele>212.25</ele><time>2026-04-08T16:27:11Z</time></trkpt><trkpt lat="46.20435329858007" lon="13.230303822561162"><ele>211.5</ele><time>2026-04-08T16:27:12Z</time></trkpt><trkpt lat="46.20423049006412" lon="13.230238883274277"><ele>210.75</ele><time>2026-04-08T16:27:13Z</time></trkpt><trkpt lat="46.204102147003795" lon="13.23019336639063"><ele>210.0</ele><time>2026-04-08T16:27:14Z</time></trkpt><trkpt lat="46.20396845918908" lon="13.23015596918433"><ele>209.75</ele><time>2026-04-08T16:27:15Z</time></trkpt><trkpt lat="46.203833272555244" lon="13.230115995293197"><ele>209.5</ele><time>2026-04-08T16:27:16Z</time></trkpt><trkpt lat="46.20370413772497" lon="13.230072185323795"><ele>209.25</ele><time>2026-04-08T16:27:17Z</time></trkpt><trkpt lat="46.20358627355989" lon="13.230033311931091"><ele>209.0</ele><time>2026-04-08T16:27:18Z</time></trkpt><trkpt lat="46.203483617245034" lon="13.229994110499911"><ele>209.0</ele><time>2026-04-08T16:27:19Z</time></trkpt><trkpt lat="46.20340253607303" lon="13.229958857364883"><ele>209.0</ele><time>2026-04-08T16:27:20Z</time></trkpt><trkpt lat="46.20330885174323" lon="13.229893323936523"><ele>209.0</ele><time>2026-04-08T16:27:22Z</time></trkpt><trkpt lat="46.20324477019856" lon="13.229830942565581"><ele>209.0</ele><time>2026-04-08T16:27:34Z</time></trkpt><trkpt lat="46.20323920929785" lon="13.229621498173652"><ele>209.0</ele><time>2026-04-08T16:27:36Z</time></trkpt><trkpt lat="46.203247777992864" lon="13.229488161860557"><ele>209.0</ele><time>2026-04-08T16:27:37Z</time></trkpt><trkpt lat="46.20324918589755" lon="13.229327711860673"><ele>209.0</ele><time>2026-04-08T16:27:38Z</time></trkpt><trkpt lat="46.20325342038041" lon="13.229139676761143"><ele>209.0</ele><time>2026-04-08T16:27:39Z</time></trkpt><trkpt lat="46.20325387153071" lon="13.228963825193189"><ele>209.0</ele><time>2026-04-08T16:27:40Z</time></trkpt><trkpt lat="46.20325502779453" lon="13.228816806042552"><ele>209.0</ele><time>2026-04-08T16:27:41Z</time></trkpt><trkpt lat="46.20326087013253" lon="13.22866468458054"><ele>209.0</ele><time>2026-04-08T16:27:42Z</time></trkpt><trkpt lat="46.20327154577051" lon="13.228510693569774"><ele>209.0</ele><time>2026-04-08T16:27:43Z</time></trkpt><trkpt lat="46.203296185604515" lon="13.228378762958343"><ele>209.0</ele><time>2026-04-08T16:27:44Z</time></trkpt><trkpt lat="46.203342319125156" lon="13.228270703327615"><ele>209.0</ele><time>2026-04-08T16:27:45Z</time></trkpt><trkpt lat="46.203412495708456" lon="13.228173241048461"><ele>209.0</ele><time>2026-04-08T16:27:46Z</time></trkpt><trkpt lat="46.20350272935904" lon="13.228095874648094"><ele>209.0</ele><time>2026-04-08T16:27:47Z</time></trkpt><trkpt lat="46.20360408921327" lon="13.228035911839841"><ele>209.0</ele><time>2026-04-08T16:27:48Z</time></trkpt><trkpt lat="46.20371892525092" lon="13.227973605021004"><ele>209.0</ele><time>2026-04-08T16:27:49Z</time></trkpt><trkpt lat="46.20385022253184" lon="13.227902855015044"><ele>209.0</ele><time>2026-04-08T16:27:50Z</time></trkpt><trkpt lat="46.203998526255596" lon="13.227824323764416"><ele>209.0</ele><time>2026-04-08T16:27:51Z</time></trkpt><trkpt lat="46.204162928424104" lon="13.22774323467593"><ele>209.0</ele><time>2026-04-08T16:27:52Z</time></trkpt><trkpt lat="46.2043158305511" lon="13.227667686806154"><ele>209.0</ele><time>2026-04-08T16:27:53Z</time></trkpt><trkpt lat="46.20446841247401" lon="13.227592275068526"><ele>209.0</ele><time>2026-04-08T16:27:54Z</time></trkpt><trkpt lat="46.204618632386605" lon="13.22751461827383"><ele>209.0</ele><time>2026-04-08T16:27:55Z</time></trkpt><trkpt lat="46.20476762364623" lon="13.227436970208478"><ele>209.66666666666669</ele><time>2026-04-08T16:27:56Z</time></trkpt><trkpt lat="46.20491760996395" lon="13.227360386795365"><ele>210.33333333333331</ele><time>2026-04-08T16:27:57Z</time></trkpt><trkpt lat="46.2050705998913" lon="13.227283860300403"><ele>211.0</ele><time>2026-04-08T16:27:58Z</time></trkpt><trkpt lat="46.20522079439986" lon="13.227206913477072"><ele>212.0</ele><time>2026-04-08T16:27:59Z</time></trkpt><trkpt lat="46.20536889428591" lon="13.227128848142302"><ele>213.0</ele><time>2026-04-08T16:28:00Z</time></trkpt><trkpt lat="46.20551439853181" lon="13.227055719374656"><ele>214.0</ele><time>2026-04-08T16:28:01Z</time></trkpt><trkpt lat="46.20565924363021" lon="13.226985420485478"><ele>214.33333333333331</ele><time>2026-04-08T16:28:02Z</time></trkpt><trkpt lat="46.20580370626411" lon="13.22691086344983"><ele>214.66666666666669</ele><time>2026-04-08T16:28:03Z</time></trkpt><trkpt lat="46.20595504864227" lon="13.226836312235259"><ele>215.0</ele><time>2026-04-08T16:28:04Z</time></trkpt><trkpt lat="46.20611500599865" lon="13.226758909089305"><ele>215.0</ele><time>2026-04-08T16:28:05Z</time></trkpt><trkpt lat="46.20628456550757" lon="13.22667414579567"><ele>215.0</ele><time>2026-04-08T16:28:06Z</time></trkpt><trkpt lat="46.206456369301335" lon="13.226585407354259"><ele>215.0</ele><time>2026-04-08T16:28:07Z</time></trkpt><trkpt lat="46.20662586919126" lon="13.226493453002538"><ele>215.0</ele><time>2026-04-08T16:28:08Z</time></trkpt><trkpt lat="46.2067876783588" lon="13.226412821228667"><ele>215.0</ele><time>2026-04-08T16:28:09Z</time></trkpt><trkpt lat="46.206943999841116" lon="13.226332096729564"><ele>215.0</ele><time>2026-04-08T16:28:10Z</time></trkpt><trkpt lat="46.20709771186095" lon="13.226254925199337"><ele>215.0</ele><time>2026-04-08T16:28:11Z</time></trkpt><trkpt lat="46.20725654624938" lon="13.22617202556299"><ele>215.0</ele><time>2026-04-08T16:28:12Z</time></trkpt><trkpt lat="46.20741541504341" lon="13.226088560514864"><ele>215.0</ele><time>2026-04-08T16:28:12.999Z</time></trkpt><trkpt lat="46.207569984974164" lon="13.22601279820961"><ele>215.33333333333334</ele><time>2026-04-08T16:28:13.999Z</time></trkpt><trkpt lat="46.207720046261755" lon="13.225941204755518"><ele>215.66666666666669</ele><time>2026-04-08T16:28:14.999Z</time></trkpt><trkpt lat="46.207871891783846" lon="13.225855024259403"><ele>216.0</ele><time>2026-04-08T16:28:15.999Z</time></trkpt><trkpt lat="46.208033924654025" lon="13.2257476892447"><ele>216.0</ele><time>2026-04-08T16:28:16.999Z</time></trkpt><trkpt lat="46.20819459399555" lon="13.225616934172285"><ele>216.0</ele><time>2026-04-08T16:28:17.999Z</time></trkpt><trkpt lat="46.2083433959453" lon="13.225467286685507"><ele>216.0</ele><time>2026-04-08T16:28:18.999Z</time></trkpt><trkpt lat="46.20849506555365" lon="13.225308335677834"><ele>216.0</ele><time>2026-04-08T16:28:19.999Z</time></trkpt><trkpt lat="46.20862673926217" lon="13.225120468852236"><ele>216.0</ele><time>2026-04-08T16:28:20.999Z</time></trkpt><trkpt lat="46.20875204566383" lon="13.224939359344267"><ele>216.0</ele><time>2026-04-08T16:28:21.999Z</time></trkpt><trkpt lat="46.20887246125633" lon="13.224765319184009"><ele>216.0</ele><time>2026-04-08T16:28:22.999Z</time></trkpt><trkpt lat="46.20899506264459" lon="13.22458734725819"><ele>216.0</ele><time>2026-04-08T16:28:23.999Z</time></trkpt><trkpt lat="46.20912349681269" lon="13.224398532318512"><ele>216.0</ele><time>2026-04-08T16:28:24.999Z</time></trkpt><trkpt lat="46.209246953057274" lon="13.224215977170983"><ele>216.0</ele><time>2026-04-08T16:28:25.999Z</time></trkpt><trkpt lat="46.20937085114351" lon="13.224032768716233"><ele>216.0</ele><time>2026-04-08T16:28:26.999Z</time></trkpt><trkpt lat="46.20949514045579" lon="13.223848981577808"><ele>216.0</ele><time>2026-04-08T16:28:27.999Z</time></trkpt><trkpt lat="46.2096104432944" lon="13.223644196676359"><ele>216.0</ele><time>2026-04-08T16:28:28.999Z</time></trkpt><trkpt lat="46.209736624252365" lon="13.223458834973673"><ele>216.0</ele><time>2026-04-08T16:28:29.999Z</time></trkpt><trkpt lat="46.20987237992659" lon="13.223292988679932"><ele>216.0</ele><time>2026-04-08T16:28:30.999Z</time></trkpt><trkpt lat="46.20999739916515" lon="13.22311018217983"><ele>216.66666666666669</ele><time>2026-04-08T16:28:31.999Z</time></trkpt><trkpt lat="46.21012139530964" lon="13.222927230449171"><ele>217.33333333333334</ele><time>2026-04-08T16:28:32.999Z</time></trkpt><trkpt lat="46.21023646421601" lon="13.222762398073485"><ele>218.0</ele><time>2026-04-08T16:28:33.999Z</time></trkpt><trkpt lat="46.210348058165316" lon="13.222599318063452"><ele>218.0</ele><time>2026-04-08T16:28:34.999Z</time></trkpt><trkpt lat="46.210482193131675" lon="13.222457776096652"><ele>218.0</ele><time>2026-04-08T16:28:35.999Z</time></trkpt><trkpt lat="46.210628482167486" lon="13.222347009772713"><ele>218.0</ele><time>2026-04-08T16:28:36.999Z</time></trkpt><trkpt lat="46.21076838111615" lon="13.222221535204998"><ele>219.33333333333334</ele><time>2026-04-08T16:28:37.999Z</time></trkpt><trkpt lat="46.21090615445272" lon="13.222098191849721"><ele>220.66666666666669</ele><time>2026-04-08T16:28:38.999Z</time></trkpt><trkpt lat="46.21104301625476" lon="13.22196824296748"><ele>222.0</ele><time>2026-04-08T16:28:39.999Z</time></trkpt><trkpt lat="46.211184511928714" lon="13.22183633605985"><ele>222.0</ele><time>2026-04-08T16:28:40.999Z</time></trkpt><trkpt lat="46.21132192090502" lon="13.221708601699625"><ele>222.0</ele><time>2026-04-08T16:28:41.999Z</time></trkpt><trkpt lat="46.21146248836977" lon="13.221580224487118"><ele>222.0</ele><time>2026-04-08T16:28:42.999Z</time></trkpt><trkpt lat="46.211603541331066" lon="13.2214514038001"><ele>222.66666666666669</ele><time>2026-04-08T16:28:43.999Z</time></trkpt><trkpt lat="46.21174507147957" lon="13.221322147313574"><ele>223.33333333333334</ele><time>2026-04-08T16:28:44.999Z</time></trkpt><trkpt lat="46.21188326496348" lon="13.221195938102271"><ele>224.0</ele><time>2026-04-08T16:28:45.999Z</time></trkpt><trkpt lat="46.21201620342724" lon="13.221074528267083"><ele>224.0</ele><time>2026-04-08T16:28:46.999Z</time></trkpt><trkpt lat="46.212149011188565" lon="13.22095324033161"><ele>224.0</ele><time>2026-04-08T16:28:47.999Z</time></trkpt><trkpt lat="46.21228070717516" lon="13.220832286230106"><ele>224.0</ele><time>2026-04-08T16:28:48.999Z</time></trkpt><trkpt lat="46.212410913770334" lon="13.220712893096401"><ele>223.75</ele><time>2026-04-08T16:28:49.999Z</time></trkpt><trkpt lat="46.21253895924608" lon="13.220598147239677"><ele>223.5</ele><time>2026-04-08T16:28:50.999Z</time></trkpt><trkpt lat="46.2126656234829" lon="13.220483983205702"><ele>223.25</ele><time>2026-04-08T16:28:51.999Z</time></trkpt><trkpt lat="46.212788442390384" lon="13.220373128335249"><ele>223.0</ele><time>2026-04-08T16:28:52.999Z</time></trkpt><trkpt lat="46.212908730836986" lon="13.220270911724892"><ele>223.0</ele><time>2026-04-08T16:28:53.999Z</time></trkpt><trkpt lat="46.21301754136274" lon="13.220181487998302"><ele>223.0</ele><time>2026-04-08T16:28:54.999Z</time></trkpt><trkpt lat="46.213129299198634" lon="13.220090355940982"><ele>223.0</ele><time>2026-04-08T16:28:55.999Z</time></trkpt><trkpt lat="46.21324794298361" lon="13.219998237144758"><ele>223.0</ele><time>2026-04-08T16:28:56.999Z</time></trkpt><trkpt lat="46.21335753090722" lon="13.219931011261739"><ele>223.60000000000002</ele><time>2026-04-08T16:28:57.999Z</time></trkpt><trkpt lat="46.21345782627516" lon="13.219872879571419"><ele>224.20000000000002</ele><time>2026-04-08T16:28:58.999Z</time></trkpt><trkpt lat="46.21355736713864" lon="13.219821731486508"><ele>224.8</ele><time>2026-04-08T16:28:59.999Z</time></trkpt><trkpt lat="46.213657770614915" lon="13.219789315430768"><ele>225.4</ele><time>2026-04-08T16:29:00.999Z</time></trkpt><trkpt lat="46.213757548619526" lon="13.219774690911239"><ele>226.0</ele><time>2026-04-08T16:29:01.999Z</time></trkpt><trkpt lat="46.213850757550645" lon="13.219750410127784"><ele>225.99999999999997</ele><time>2026-04-08T16:29:02.999Z</time></trkpt><trkpt lat="46.213942140559915" lon="13.219781936312517"><ele>226.0</ele><time>2026-04-08T16:29:03.999Z</time></trkpt><trkpt lat="46.2140083025914" lon="13.21984832335295"><ele>226.0</ele><time>2026-04-08T16:29:05Z</time></trkpt><trkpt lat="46.21407842170798" lon="13.219895567918108"><ele>226.0</ele><time>2026-04-08T16:29:06Z</time></trkpt><trkpt lat="46.21414842741723" lon="13.21993992525408"><ele>225.99999999999997</ele><time>2026-04-08T16:29:07Z</time></trkpt><trkpt lat="46.21421163542715" lon="13.219969099119043"><ele>226.0</ele><time>2026-04-08T16:29:08Z</time></trkpt><trkpt lat="46.21427985548481" lon="13.219989763070874"><ele>226.16666666666666</ele><time>2026-04-08T16:29:09Z</time></trkpt><trkpt lat="46.214359107139046" lon="13.219994273433668"><ele>226.33333333333331</ele><time>2026-04-08T16:29:10Z</time></trkpt><trkpt lat="46.21444163762931" lon="13.219978526385757"><ele>226.5</ele><time>2026-04-08T16:29:11Z</time></trkpt><trkpt lat="46.21452470536126" lon="13.219954886211914"><ele>226.66666666666669</ele><time>2026-04-08T16:29:12Z</time></trkpt><trkpt lat="46.21460050371713" lon="13.219930481465013"><ele>226.83333333333334</ele><time>2026-04-08T16:29:13Z</time></trkpt><trkpt lat="46.21467751877774" lon="13.219886568178904"><ele>227.0</ele><time>2026-04-08T16:29:14Z</time></trkpt><trkpt lat="46.21475826121938" lon="13.219862044503495"><ele>227.0</ele><time>2026-04-08T16:29:15Z</time></trkpt><trkpt lat="46.21482867085835" lon="13.219872121754033"><ele>227.0</ele><time>2026-04-08T16:29:16Z</time></trkpt><trkpt lat="46.21488187394288" lon="13.219628480395755"><ele>227.0</ele><time>2026-04-08T16:29:18Z</time></trkpt><trkpt lat="46.214884452480334" lon="13.219508837644748"><ele>227.0</ele><time>2026-04-08T16:29:19Z</time></trkpt><trkpt lat="46.21488766590475" lon="13.21938838828047"><ele>227.0</ele><time>2026-04-08T16:29:20Z</time></trkpt><trkpt lat="46.214888972163" lon="13.21925080965619"><ele>226.75</ele><time>2026-04-08T16:29:21Z</time></trkpt><trkpt lat="46.21489566020239" lon="13.219083313228952"><ele>226.5</ele><time>2026-04-08T16:29:22Z</time></trkpt><trkpt lat="46.21490156784183" lon="13.218902539316215"><ele>226.25</ele><time>2026-04-08T16:29:23Z</time></trkpt><trkpt lat="46.214902556898004" lon="13.218728824873246"><ele>226.0</ele><time>2026-04-08T16:29:24Z</time></trkpt><trkpt lat="46.21490511923056" lon="13.218549724934423"><ele>226.0</ele><time>2026-04-08T16:29:25Z</time></trkpt><trkpt lat="46.214914808249574" lon="13.218372393332908"><ele>226.0</ele><time>2026-04-08T16:29:26Z</time></trkpt><trkpt lat="46.21491183895738" lon="13.218193126201902"><ele>226.0</ele><time>2026-04-08T16:29:27Z</time></trkpt><trkpt lat="46.214921444534745" lon="13.218017872146964"><ele>226.0</ele><time>2026-04-08T16:29:28Z</time></trkpt><trkpt lat="46.21492580742661" lon="13.217841856609542"><ele>225.5</ele><time>2026-04-08T16:29:29Z</time></trkpt><trkpt lat="46.214925565823705" lon="13.21765593003118"><ele>225.0</ele><time>2026-04-08T16:29:30Z</time></trkpt><trkpt lat="46.21493260795209" lon="13.217464946981615"><ele>224.5</ele><time>2026-04-08T16:29:31Z</time></trkpt><trkpt lat="46.21493674936682" lon="13.21727263289874"><ele>224.0</ele><time>2026-04-08T16:29:32Z</time></trkpt><trkpt lat="46.21493949067945" lon="13.217101976964052"><ele>224.0</ele><time>2026-04-08T16:29:33Z</time></trkpt><trkpt lat="46.21494369625461" lon="13.216937469429336"><ele>224.0</ele><time>2026-04-08T16:29:34Z</time></trkpt><trkpt lat="46.214946471112455" lon="13.216773208820696"><ele>224.0</ele><time>2026-04-08T16:29:35Z</time></trkpt><trkpt lat="46.214950251797184" lon="13.216607462996834"><ele>224.0</ele><time>2026-04-08T16:29:36Z</time></trkpt><trkpt lat="46.21495187390185" lon="13.216442872951234"><ele>224.0</ele><time>2026-04-08T16:29:37Z</time></trkpt><trkpt lat="46.21495943649489" lon="13.216280453021888"><ele>224.0</ele><time>2026-04-08T16:29:38Z</time></trkpt><trkpt lat="46.21496042043376" lon="13.21610354474486"><ele>224.0</ele><time>2026-04-08T16:29:39Z</time></trkpt><trkpt lat="46.214960851294336" lon="13.215911994999402"><ele>224.0</ele><time>2026-04-08T16:29:40Z</time></trkpt><trkpt lat="46.214966785811015" lon="13.215715690069713"><ele>224.25</ele><time>2026-04-08T16:29:41Z</time></trkpt><trkpt lat="46.214968040693684" lon="13.215519671717008"><ele>224.5</ele><time>2026-04-08T16:29:42Z</time></trkpt><trkpt lat="46.21497257254321" lon="13.21532911733748"><ele>224.75</ele><time>2026-04-08T16:29:43Z</time></trkpt><trkpt lat="46.21497910091368" lon="13.215150016568046"><ele>225.0</ele><time>2026-04-08T16:29:44Z</time></trkpt><trkpt lat="46.21498353625507" lon="13.214969073681157"><ele>224.4</ele><time>2026-04-08T16:29:45Z</time></trkpt><trkpt lat="46.21498663796114" lon="13.21480002475728"><ele>223.8</ele><time>2026-04-08T16:29:46Z</time></trkpt><trkpt lat="46.214988297922964" lon="13.214648189127395"><ele>223.2</ele><time>2026-04-08T16:29:47Z</time></trkpt><trkpt lat="46.214990256533135" lon="13.214505025997957"><ele>222.6</ele><time>2026-04-08T16:29:48Z</time></trkpt><trkpt lat="46.21499211758228" lon="13.214365262372187"><ele>222.0</ele><time>2026-04-08T16:29:49Z</time></trkpt><trkpt lat="46.21499523055948" lon="13.21421822613429"><ele>222.0</ele><time>2026-04-08T16:29:50Z</time></trkpt><trkpt lat="46.21499793117445" lon="13.21407342574913"><ele>222.0</ele><time>2026-04-08T16:29:51Z</time></trkpt><trkpt lat="46.2150014060919" lon="13.213926943244797"><ele>222.0</ele><time>2026-04-08T16:29:52Z</time></trkpt><trkpt lat="46.21500517399985" lon="13.21377380144707"><ele>222.0</ele><time>2026-04-08T16:29:53Z</time></trkpt><trkpt lat="46.21500728897766" lon="13.213619971625645"><ele>222.0</ele><time>2026-04-08T16:29:54Z</time></trkpt><trkpt lat="46.21501279243324" lon="13.213469037422872"><ele>222.0</ele><time>2026-04-08T16:29:55Z</time></trkpt><trkpt lat="46.21501828685939" lon="13.213324142630427"><ele>222.0</ele><time>2026-04-08T16:29:56Z</time></trkpt><trkpt lat="46.215035599810385" lon="13.2131867571595"><ele>222.0</ele><time>2026-04-08T16:29:57Z</time></trkpt><trkpt lat="46.21505900051801" lon="13.213042998388028"><ele>222.0</ele><time>2026-04-08T16:29:58Z</time></trkpt><trkpt lat="46.21507978968399" lon="13.21288941641547"><ele>222.0</ele><time>2026-04-08T16:29:59Z</time></trkpt><trkpt lat="46.2151049332526" lon="13.212724572755782"><ele>222.0</ele><time>2026-04-08T16:30:00Z</time></trkpt><trkpt lat="46.21513309372329" lon="13.212553275267839"><ele>222.0</ele><time>2026-04-08T16:30:01Z</time></trkpt><trkpt lat="46.21516171907355" lon="13.212381765984981"><ele>222.0</ele><time>2026-04-08T16:30:02Z</time></trkpt><trkpt lat="46.21519458530213" lon="13.212213995664309"><ele>222.0</ele><time>2026-04-08T16:30:03Z</time></trkpt><trkpt lat="46.21522225035475" lon="13.212049918965953"><ele>222.0</ele><time>2026-04-08T16:30:04Z</time></trkpt><trkpt lat="46.21523462473677" lon="13.211879903767562"><ele>222.0</ele><time>2026-04-08T16:30:05Z</time></trkpt><trkpt lat="46.215242004916504" lon="13.211704945390153"><ele>222.0</ele><time>2026-04-08T16:30:06Z</time></trkpt><trkpt lat="46.21524862000199" lon="13.211526449052723"><ele>222.0</ele><time>2026-04-08T16:30:07Z</time></trkpt><trkpt lat="46.215263724844036" lon="13.211347644312278"><ele>222.0</ele><time>2026-04-08T16:30:08Z</time></trkpt><trkpt lat="46.215288463872476" lon="13.211180098447262"><ele>222.0</ele><time>2026-04-08T16:30:09Z</time></trkpt><trkpt lat="46.21531274587618" lon="13.211031848061145"><ele>222.0</ele><time>2026-04-08T16:30:10Z</time></trkpt><trkpt lat="46.215332460566295" lon="13.210888376113775"><ele>222.0</ele><time>2026-04-08T16:30:11Z</time></trkpt><trkpt lat="46.215349710922894" lon="13.210736480147512"><ele>222.0</ele><time>2026-04-08T16:30:12Z</time></trkpt><trkpt lat="46.215361264405985" lon="13.210594507220296"><ele>221.6</ele><time>2026-04-08T16:30:13Z</time></trkpt><trkpt lat="46.21537058935326" lon="13.210442212653978"><ele>221.2</ele><time>2026-04-08T16:30:14Z</time></trkpt><trkpt lat="46.21538344447209" lon="13.210282507663521"><ele>220.8</ele><time>2026-04-08T16:30:15Z</time></trkpt><trkpt lat="46.21539015621329" lon="13.210127401926506"><ele>220.4</ele><time>2026-04-08T16:30:15.999Z</time></trkpt><trkpt lat="46.215395641716675" lon="13.209989590421218"><ele>220.0</ele><time>2026-04-08T16:30:16.999Z</time></trkpt><trkpt lat="46.21540224879385" lon="13.209853525229466"><ele>219.6</ele><time>2026-04-08T16:30:17.999Z</time></trkpt><trkpt lat="46.21540601076621" lon="13.209716839283606"><ele>219.2</ele><time>2026-04-08T16:30:18.999Z</time></trkpt><trkpt lat="46.215412527961384" lon="13.20958352853701"><ele>218.8</ele><time>2026-04-08T16:30:19.999Z</time></trkpt><trkpt lat="46.21542157577811" lon="13.209459786284969"><ele>218.4</ele><time>2026-04-08T16:30:20.999Z</time></trkpt><trkpt lat="46.21543775895197" lon="13.209327795466809"><ele>218.0</ele><time>2026-04-08T16:30:21.999Z</time></trkpt><trkpt lat="46.21548615456179" lon="13.209191321109492"><ele>218.0</ele><time>2026-04-08T16:30:22.999Z</time></trkpt><trkpt lat="46.21553852563026" lon="13.209032627372624"><ele>218.0</ele><time>2026-04-08T16:30:23.999Z</time></trkpt><trkpt lat="46.21559965063508" lon="13.208873294136332"><ele>218.0</ele><time>2026-04-08T16:30:24.999Z</time></trkpt><trkpt lat="46.21566087544267" lon="13.208700551361758"><ele>218.0</ele><time>2026-04-08T16:30:25.999Z</time></trkpt><trkpt lat="46.21569116021046" lon="13.208504469075143"><ele>218.0</ele><time>2026-04-08T16:30:26.999Z</time></trkpt><trkpt lat="46.215717075717336" lon="13.2083119039204"><ele>218.0</ele><time>2026-04-08T16:30:27.999Z</time></trkpt><trkpt lat="46.215727557526975" lon="13.208101299921683"><ele>218.0</ele><time>2026-04-08T16:30:28.999Z</time></trkpt><trkpt lat="46.21576381472235" lon="13.207876465803139"><ele>218.0</ele><time>2026-04-08T16:30:29.999Z</time></trkpt><trkpt lat="46.2158007763362" lon="13.207639889127131"><ele>217.33333333333334</ele><time>2026-04-08T16:30:30.999Z</time></trkpt><trkpt lat="46.21584519077584" lon="13.207415622631043"><ele>216.66666666666669</ele><time>2026-04-08T16:30:31.999Z</time></trkpt><trkpt lat="46.215894493203145" lon="13.207196375193945"><ele>216.0</ele><time>2026-04-08T16:30:32.999Z</time></trkpt><trkpt lat="46.21594477108689" lon="13.206978829587978"><ele>216.0</ele><time>2026-04-08T16:30:33.999Z</time></trkpt><trkpt lat="46.21600199569308" lon="13.20676482409744"><ele>216.0</ele><time>2026-04-08T16:30:34.999Z</time></trkpt><trkpt lat="46.216062497180175" lon="13.206558361184674"><ele>216.0</ele><time>2026-04-08T16:30:35.999Z</time></trkpt><trkpt lat="46.216121741211325" lon="13.206354639936526"><ele>216.0</ele><time>2026-04-08T16:30:36.999Z</time></trkpt><trkpt lat="46.21618169403211" lon="13.20615214551223"><ele>216.0</ele><time>2026-04-08T16:30:37.999Z</time></trkpt><trkpt lat="46.21624295008193" lon="13.205940390013486"><ele>216.0</ele><time>2026-04-08T16:30:38.999Z</time></trkpt><trkpt lat="46.21631744613153" lon="13.205739082738647"><ele>216.0</ele><time>2026-04-08T16:30:39.999Z</time></trkpt><trkpt lat="46.216348790809825" lon="13.205526769839219"><ele>216.0</ele><time>2026-04-08T16:30:40.999Z</time></trkpt><trkpt lat="46.21639144920764" lon="13.20531811524188"><ele>216.0</ele><time>2026-04-08T16:30:41.999Z</time></trkpt><trkpt lat="46.21643079872852" lon="13.205095729210923"><ele>216.0</ele><time>2026-04-08T16:30:42.999Z</time></trkpt><trkpt lat="46.21647323694125" lon="13.204869230682842"><ele>216.0</ele><time>2026-04-08T16:30:43.999Z</time></trkpt><trkpt lat="46.21651451266612" lon="13.204639475117148"><ele>216.0</ele><time>2026-04-08T16:30:44.999Z</time></trkpt><trkpt lat="46.216550577491326" lon="13.204412702616295"><ele>216.0</ele><time>2026-04-08T16:30:45.999Z</time></trkpt><trkpt lat="46.2165774299825" lon="13.204192041510833"><ele>216.0</ele><time>2026-04-08T16:30:46.999Z</time></trkpt><trkpt lat="46.21659702005664" lon="13.20397511224349"><ele>216.0</ele><time>2026-04-08T16:30:47.999Z</time></trkpt><trkpt lat="46.21661350797234" lon="13.203752191797996"><ele>216.0</ele><time>2026-04-08T16:30:48.999Z</time></trkpt><trkpt lat="46.21662970246347" lon="13.203543926554207"><ele>216.0</ele><time>2026-04-08T16:30:49.999Z</time></trkpt><trkpt lat="46.21664940220297" lon="13.203345005186762"><ele>216.0</ele><time>2026-04-08T16:30:50.999Z</time></trkpt><trkpt lat="46.21666697010589" lon="13.203143035918465"><ele>216.0</ele><time>2026-04-08T16:30:51.999Z</time></trkpt><trkpt lat="46.21668183142431" lon="13.202959529140873"><ele>216.20000000000002</ele><time>2026-04-08T16:30:52.999Z</time></trkpt><trkpt lat="46.21669559023613" lon="13.20280165442363"><ele>216.40000000000003</ele><time>2026-04-08T16:30:53.999Z</time></trkpt><trkpt lat="46.21670438805815" lon="13.20266659929463"><ele>216.6</ele><time>2026-04-08T16:30:54.999Z</time></trkpt><trkpt lat="46.21671997157338" lon="13.202570513885888"><ele>216.8</ele><time>2026-04-08T16:30:55.999Z</time></trkpt><trkpt lat="46.216755116008976" lon="13.202486490884349"><ele>217.0</ele><time>2026-04-08T16:30:56.999Z</time></trkpt><trkpt lat="46.216893310902776" lon="13.202456983148021"><ele>217.0</ele><time>2026-04-08T16:30:58.999Z</time></trkpt><trkpt lat="46.21698540546648" lon="13.202458666245105"><ele>217.0</ele><time>2026-04-08T16:30:59.999Z</time></trkpt><trkpt lat="46.217097672873834" lon="13.202468100808924"><ele>217.0</ele><time>2026-04-08T16:31:00.999Z</time></trkpt><trkpt lat="46.21724059138231" lon="13.20250096465832"><ele>217.0</ele><time>2026-04-08T16:31:01.999Z</time></trkpt><trkpt lat="46.21739865039063" lon="13.202518913370053"><ele>217.66666666666666</ele><time>2026-04-08T16:31:02.999Z</time></trkpt><trkpt lat="46.217548771911005" lon="13.202536335546899"><ele>218.33333333333331</ele><time>2026-04-08T16:31:03.999Z</time></trkpt><trkpt lat="46.21770588170078" lon="13.202561775583483"><ele>219.0</ele><time>2026-04-08T16:31:04.999Z</time></trkpt><trkpt lat="46.21788109791251" lon="13.20251681251559"><ele>219.0</ele><time>2026-04-08T16:31:05.999Z</time></trkpt><trkpt lat="46.21805181210949" lon="13.202496780965042"><ele>219.0</ele><time>2026-04-08T16:31:06.999Z</time></trkpt><trkpt lat="46.21823206481704" lon="13.20248173104137"><ele>219.0</ele><time>2026-04-08T16:31:07.999Z</time></trkpt><trkpt lat="46.218430037885454" lon="13.202464223676325"><ele>219.25</ele><time>2026-04-08T16:31:08.999Z</time></trkpt><trkpt lat="46.21860127056209" lon="13.202448010944478"><ele>219.5</ele><time>2026-04-08T16:31:10Z</time></trkpt><trkpt lat="46.2187394152927" lon="13.2024393938409"><ele>219.75</ele><time>2026-04-08T16:31:11Z</time></trkpt><trkpt lat="46.21886311357753" lon="13.202426120822313"><ele>220.0</ele><time>2026-04-08T16:31:12Z</time></trkpt><trkpt lat="46.218970199466916" lon="13.202406380568862"><ele>221.0</ele><time>2026-04-08T16:31:13Z</time></trkpt><trkpt lat="46.219061322685775" lon="13.202365472275524"><ele>222.0</ele><time>2026-04-08T16:31:14Z</time></trkpt><trkpt lat="46.2191512844009" lon="13.202308373172102"><ele>223.0</ele><time>2026-04-08T16:31:15Z</time></trkpt><trkpt lat="46.219215813399416" lon="13.202151983064951"><ele>224.0</ele><time>2026-04-08T16:31:16Z</time></trkpt><trkpt lat="46.219297015787525" lon="13.202000786341314"><ele>224.0</ele><time>2026-04-08T16:31:17Z</time></trkpt><trkpt lat="46.21936992965909" lon="13.201882937855572"><ele>224.0</ele><time>2026-04-08T16:31:18Z</time></trkpt><trkpt lat="46.21943684696729" lon="13.201733777016385"><ele>224.0</ele><time>2026-04-08T16:31:19Z</time></trkpt><trkpt lat="46.21949848884197" lon="13.201540116608204"><ele>224.0</ele><time>2026-04-08T16:31:20Z</time></trkpt><trkpt lat="46.21957265236487" lon="13.20132867919826"><ele>223.66666666666669</ele><time>2026-04-08T16:31:21Z</time></trkpt><trkpt lat="46.21966684826008" lon="13.201112322951108"><ele>223.33333333333331</ele><time>2026-04-08T16:31:22Z</time></trkpt><trkpt lat="46.21975401097959" lon="13.200905283531092"><ele>223.0</ele><time>2026-04-08T16:31:23Z</time></trkpt><trkpt lat="46.21983984116779" lon="13.200710923522388"><ele>222.66666666666666</ele><time>2026-04-08T16:31:24Z</time></trkpt><trkpt lat="46.2199426330228" lon="13.200515595204944"><ele>222.33333333333331</ele><time>2026-04-08T16:31:25Z</time></trkpt><trkpt lat="46.22002776475272" lon="13.20028463307218"><ele>222.0</ele><time>2026-04-08T16:31:26Z</time></trkpt><trkpt lat="46.22012711306697" lon="13.200063327016235"><ele>220.33333333333331</ele><time>2026-04-08T16:31:27Z</time></trkpt><trkpt lat="46.22022529491042" lon="13.199832751199828"><ele>218.66666666666666</ele><time>2026-04-08T16:31:28Z</time></trkpt><trkpt lat="46.22032389290102" lon="13.199602995041467"><ele>217.0</ele><time>2026-04-08T16:31:29Z</time></trkpt><trkpt lat="46.22042522099093" lon="13.19936960762497"><ele>217.0</ele><time>2026-04-08T16:31:30Z</time></trkpt><trkpt lat="46.22051605897285" lon="13.199154124830791"><ele>217.0</ele><time>2026-04-08T16:31:31Z</time></trkpt><trkpt lat="46.22059962324809" lon="13.19895378700407"><ele>217.0</ele><time>2026-04-08T16:31:32Z</time></trkpt><trkpt lat="46.22067942594827" lon="13.198761296748875"><ele>216.75</ele><time>2026-04-08T16:31:33Z</time></trkpt><trkpt lat="46.22075781770087" lon="13.198578967734246"><ele>216.5</ele><time>2026-04-08T16:31:34Z</time></trkpt><trkpt lat="46.22085729054235" lon="13.198424340925827"><ele>216.25</ele><time>2026-04-08T16:31:35Z</time></trkpt><trkpt lat="46.22095643359659" lon="13.198253342026739"><ele>216.0</ele><time>2026-04-08T16:31:36Z</time></trkpt><trkpt lat="46.2210507668968" lon="13.198067981642566"><ele>216.0</ele><time>2026-04-08T16:31:37Z</time></trkpt><trkpt lat="46.22115693676712" lon="13.19789895605108"><ele>216.0</ele><time>2026-04-08T16:31:38Z</time></trkpt><trkpt lat="46.22126029546456" lon="13.197716403655905"><ele>216.0</ele><time>2026-04-08T16:31:39Z</time></trkpt><trkpt lat="46.22138272100836" lon="13.197542005386337"><ele>215.33333333333331</ele><time>2026-04-08T16:31:40Z</time></trkpt><trkpt lat="46.2214851984911" lon="13.197322168988096"><ele>214.66666666666666</ele><time>2026-04-08T16:31:41Z</time></trkpt><trkpt lat="46.22158728020301" lon="13.197067310115548"><ele>214.0</ele><time>2026-04-08T16:31:42Z</time></trkpt><trkpt lat="46.22170203852465" lon="13.196786596585453"><ele>214.0</ele><time>2026-04-08T16:31:43Z</time></trkpt><trkpt lat="46.221814601334145" lon="13.196511253622116"><ele>214.0</ele><time>2026-04-08T16:31:44Z</time></trkpt><trkpt lat="46.22192027673308" lon="13.196252757873959"><ele>214.0</ele><time>2026-04-08T16:31:45Z</time></trkpt><trkpt lat="46.22201088945591" lon="13.195986591515986"><ele>212.66666666666666</ele><time>2026-04-08T16:31:46Z</time></trkpt><trkpt lat="46.2221187522534" lon="13.195726606562266"><ele>211.33333333333331</ele><time>2026-04-08T16:31:47Z</time></trkpt><trkpt lat="46.22223320831566" lon="13.195453933397255"><ele>210.0</ele><time>2026-04-08T16:31:48Z</time></trkpt><trkpt lat="46.222348574919316" lon="13.195183234182325"><ele>209.33333333333331</ele><time>2026-04-08T16:31:49Z</time></trkpt><trkpt lat="46.22245381959393" lon="13.194931365134442"><ele>208.66666666666666</ele><time>2026-04-08T16:31:50Z</time></trkpt><trkpt lat="46.222555392672874" lon="13.194686467999514"><ele>208.0</ele><time>2026-04-08T16:31:51Z</time></trkpt><trkpt lat="46.222652147529736" lon="13.194441203549014"><ele>207.33333333333331</ele><time>2026-04-08T16:31:52Z</time></trkpt><trkpt lat="46.22274606567238" lon="13.19420328324058"><ele>206.66666666666669</ele><time>2026-04-08T16:31:53Z</time></trkpt><trkpt lat="46.22284510946718" lon="13.193969601666923"><ele>206.0</ele><time>2026-04-08T16:31:54Z</time></trkpt><trkpt lat="46.222943838170075" lon="13.19373860344911"><ele>205.33333333333334</ele><time>2026-04-08T16:31:55Z</time></trkpt><trkpt lat="46.223037210387304" lon="13.193522673502317"><ele>204.66666666666669</ele><time>2026-04-08T16:31:56Z</time></trkpt><trkpt lat="46.223139645071896" lon="13.193303799274341"><ele>204.0</ele><time>2026-04-08T16:31:57Z</time></trkpt><trkpt lat="46.22325359291038" lon="13.193065598591778"><ele>204.0</ele><time>2026-04-08T16:31:58Z</time></trkpt><trkpt lat="46.22338921780947" lon="13.192836436455034"><ele>204.0</ele><time>2026-04-08T16:31:59Z</time></trkpt><trkpt lat="46.22350038975641" lon="13.192579720819145"><ele>204.0</ele><time>2026-04-08T16:32:00Z</time></trkpt><trkpt lat="46.223623658371494" lon="13.192338028952943"><ele>203.66666666666669</ele><time>2026-04-08T16:32:01Z</time></trkpt><trkpt lat="46.22374286497836" lon="13.192096302600815"><ele>203.33333333333334</ele><time>2026-04-08T16:32:02Z</time></trkpt><trkpt lat="46.22386321513743" lon="13.191855591757026"><ele>203.0</ele><time>2026-04-08T16:32:03Z</time></trkpt><trkpt lat="46.22399442154227" lon="13.191628657946024"><ele>202.66666666666669</ele><time>2026-04-08T16:32:04Z</time></trkpt><trkpt lat="46.2241081981181" lon="13.191392264716681"><ele>202.33333333333331</ele><time>2026-04-08T16:32:05Z</time></trkpt><trkpt lat="46.224211978770356" lon="13.191178929286334"><ele>202.0</ele><time>2026-04-08T16:32:06Z</time></trkpt><trkpt lat="46.22431046640195" lon="13.19099458901931"><ele>202.0</ele><time>2026-04-08T16:32:07Z</time></trkpt><trkpt lat="46.224420241050964" lon="13.190814340312683"><ele>202.0</ele><time>2026-04-08T16:32:08Z</time></trkpt><trkpt lat="46.224561055913085" lon="13.190683529053643"><ele>202.0</ele><time>2026-04-08T16:32:09Z</time></trkpt><trkpt lat="46.22469724348199" lon="13.190596074890108"><ele>201.66666666666666</ele><time>2026-04-08T16:32:10Z</time></trkpt><trkpt lat="46.22483911622731" lon="13.190526256309745"><ele>201.33333333333331</ele><time>2026-04-08T16:32:11Z</time></trkpt><trkpt lat="46.22498852104721" lon="13.190443232185046"><ele>201.0</ele><time>2026-04-08T16:32:12Z</time></trkpt><trkpt lat="46.225141069968664" lon="13.190357298480953"><ele>201.0</ele><time>2026-04-08T16:32:13Z</time></trkpt><trkpt lat="46.22529959034314" lon="13.190267056138794"><ele>201.0</ele><time>2026-04-08T16:32:14Z</time></trkpt><trkpt lat="46.22545673536399" lon="13.190180131079748"><ele>201.0</ele><time>2026-04-08T16:32:15Z</time></trkpt><trkpt lat="46.22561150019554" lon="13.190091146919343"><ele>202.33333333333331</ele><time>2026-04-08T16:32:16Z</time></trkpt><trkpt lat="46.22577552776624" lon="13.190034725026074"><ele>203.66666666666666</ele><time>2026-04-08T16:32:17Z</time></trkpt><trkpt lat="46.22593209343764" lon="13.189945126833612"><ele>205.0</ele><time>2026-04-08T16:32:18Z</time></trkpt><trkpt lat="46.22607837825527" lon="13.18984567281843"><ele>205.25</ele><time>2026-04-08T16:32:18.999Z</time></trkpt><trkpt lat="46.226203209831844" lon="13.189725039010376"><ele>205.5</ele><time>2026-04-08T16:32:19.999Z</time></trkpt><trkpt lat="46.22631910378541" lon="13.189634252181266"><ele>205.75</ele><time>2026-04-08T16:32:20.999Z</time></trkpt><trkpt lat="46.226422753158765" lon="13.189545455121074"><ele>206.0</ele><time>2026-04-08T16:32:21.999Z</time></trkpt><trkpt lat="46.22653136260996" lon="13.189473962640536"><ele>206.0</ele><time>2026-04-08T16:32:22.999Z</time></trkpt><trkpt lat="46.22664131677863" lon="13.189372816576807"><ele>206.0</ele><time>2026-04-08T16:32:23.999Z</time></trkpt><trkpt lat="46.226761208978985" lon="13.189250711320785"><ele>206.0</ele><time>2026-04-08T16:32:24.999Z</time></trkpt><trkpt lat="46.22687412442541" lon="13.189106447880702"><ele>206.0</ele><time>2026-04-08T16:32:25.999Z</time></trkpt><trkpt lat="46.22699902552053" lon="13.18899827315931"><ele>206.0</ele><time>2026-04-08T16:32:26.999Z</time></trkpt><trkpt lat="46.22712490822223" lon="13.188925369596951"><ele>206.0</ele><time>2026-04-08T16:32:27.999Z</time></trkpt><trkpt lat="46.22725182864675" lon="13.188860088187184"><ele>206.0</ele><time>2026-04-08T16:32:28.999Z</time></trkpt><trkpt lat="46.22736795770083" lon="13.18878644251643"><ele>206.0</ele><time>2026-04-08T16:32:29.999Z</time></trkpt><trkpt lat="46.22747158771095" lon="13.188683362805442"><ele>206.0</ele><time>2026-04-08T16:32:30.999Z</time></trkpt><trkpt lat="46.227565148782084" lon="13.18854026316346"><ele>206.0</ele><time>2026-04-08T16:32:31.999Z</time></trkpt><trkpt lat="46.22764439078951" lon="13.188370673598216"><ele>206.0</ele><time>2026-04-08T16:32:32.999Z</time></trkpt><trkpt lat="46.22774346555969" lon="13.1882117845229"><ele>206.0</ele><time>2026-04-08T16:32:33.999Z</time></trkpt><trkpt lat="46.22785403926983" lon="13.188065759812917"><ele>205.0</ele><time>2026-04-08T16:32:34.999Z</time></trkpt><trkpt lat="46.227983353319225" lon="13.187952888202513"><ele>204.0</ele><time>2026-04-08T16:32:35.999Z</time></trkpt><trkpt lat="46.22811364662954" lon="13.18782627248106"><ele>203.0</ele><time>2026-04-08T16:32:36.999Z</time></trkpt><trkpt lat="46.22824762179362" lon="13.187694276155192"><ele>205.66666666666669</ele><time>2026-04-08T16:32:37.999Z</time></trkpt><trkpt lat="46.22838736826196" lon="13.187568609247538"><ele>208.33333333333331</ele><time>2026-04-08T16:32:38.999Z</time></trkpt><trkpt lat="46.2285303549902" lon="13.18746116474413"><ele>211.0</ele><time>2026-04-08T16:32:39.999Z</time></trkpt><trkpt lat="46.22867671644786" lon="13.187389037595775"><ele>210.33333333333331</ele><time>2026-04-08T16:32:40.999Z</time></trkpt><trkpt lat="46.22882936049997" lon="13.18733240102665"><ele>209.66666666666669</ele><time>2026-04-08T16:32:41.999Z</time></trkpt><trkpt lat="46.22897821181604" lon="13.187278766675814"><ele>209.0</ele><time>2026-04-08T16:32:42.999Z</time></trkpt><trkpt lat="46.2291147714003" lon="13.187236568097306"><ele>209.0</ele><time>2026-04-08T16:32:43.999Z</time></trkpt><trkpt lat="46.22923880036544" lon="13.18721567148388"><ele>209.0</ele><time>2026-04-08T16:32:44.999Z</time></trkpt><trkpt lat="46.229356545878034" lon="13.187256587754735"><ele>209.0</ele><time>2026-04-08T16:32:45.999Z</time></trkpt><trkpt lat="46.22947582213355" lon="13.187316769409994"><ele>209.0</ele><time>2026-04-08T16:32:46.999Z</time></trkpt><trkpt lat="46.229562064336264" lon="13.187400815347077"><ele>208.6</ele><time>2026-04-08T16:32:47.999Z</time></trkpt><trkpt lat="46.229640265302194" lon="13.187444004346208"><ele>208.2</ele><time>2026-04-08T16:32:48.999Z</time></trkpt><trkpt lat="46.229707747093464" lon="13.187484609290639"><ele>207.79999999999998</ele><time>2026-04-08T16:32:49.999Z</time></trkpt><trkpt lat="46.22980527836242" lon="13.187377862673607"><ele>207.39999999999998</ele><time>2026-04-08T16:32:50.999Z</time></trkpt><trkpt lat="46.22991041331291" lon="13.187338121197584"><ele>207.0</ele><time>2026-04-08T16:32:51.999Z</time></trkpt><trkpt lat="46.230024653213036" lon="13.187343991072066"><ele>209.5</ele><time>2026-04-08T16:32:52.999Z</time></trkpt><trkpt lat="46.23014733429799" lon="13.187380269467203"><ele>212.0</ele><time>2026-04-08T16:32:53.999Z</time></trkpt><trkpt lat="46.23026065530985" lon="13.187435011583757"><ele>214.5</ele><time>2026-04-08T16:32:54.999Z</time></trkpt><trkpt lat="46.23036025973168" lon="13.187508043738852"><ele>217.0</ele><time>2026-04-08T16:32:55.999Z</time></trkpt><trkpt lat="46.230451307777784" lon="13.187585585638054"><ele>217.0</ele><time>2026-04-08T16:32:56.999Z</time></trkpt><trkpt lat="46.23053984116997" lon="13.187624661440823"><ele>217.0</ele><time>2026-04-08T16:32:57.999Z</time></trkpt><trkpt lat="46.230623003854326" lon="13.187600831122044"><ele>217.0</ele><time>2026-04-08T16:32:58.999Z</time></trkpt><trkpt lat="46.230678535776704" lon="13.187510608845441"><ele>217.0</ele><time>2026-04-08T16:32:59.999Z</time></trkpt><trkpt lat="46.23071596073771" lon="13.187381196245573"><ele>217.0</ele><time>2026-04-08T16:33:00.999Z</time></trkpt><trkpt lat="46.23073167767409" lon="13.18723956400843"><ele>215.8</ele><time>2026-04-08T16:33:01.999Z</time></trkpt><trkpt lat="46.23074104817462" lon="13.187092792965943"><ele>214.6</ele><time>2026-04-08T16:33:02.999Z</time></trkpt><trkpt lat="46.23075671656141" lon="13.18694627043073"><ele>213.4</ele><time>2026-04-08T16:33:03.999Z</time></trkpt><trkpt lat="46.230771979807194" lon="13.186791687516683"><ele>212.20000000000002</ele><time>2026-04-08T16:33:04.999Z</time></trkpt><trkpt lat="46.23078915579559" lon="13.186628890515001"><ele>211.0</ele><time>2026-04-08T16:33:05.999Z</time></trkpt><trkpt lat="46.23080815349146" lon="13.186458736966106"><ele>210.0</ele><time>2026-04-08T16:33:06.999Z</time></trkpt><trkpt lat="46.23082476892291" lon="13.186286661474192"><ele>209.0</ele><time>2026-04-08T16:33:07.999Z</time></trkpt><trkpt lat="46.23083942042744" lon="13.186111397756028"><ele>208.0</ele><time>2026-04-08T16:33:08.999Z</time></trkpt><trkpt lat="46.23086011814299" lon="13.185931607577968"><ele>207.0</ele><time>2026-04-08T16:33:09.999Z</time></trkpt><trkpt lat="46.2308812705811" lon="13.185743478452475"><ele>206.75</ele><time>2026-04-08T16:33:10.999Z</time></trkpt><trkpt lat="46.23089843394563" lon="13.185547154665295"><ele>206.5</ele><time>2026-04-08T16:33:11.999Z</time></trkpt><trkpt lat="46.23091744211963" lon="13.185366512382902"><ele>206.25</ele><time>2026-04-08T16:33:12.999Z</time></trkpt><trkpt lat="46.23094641118402" lon="13.18519354114681"><ele>206.0</ele><time>2026-04-08T16:33:13.999Z</time></trkpt><trkpt lat="46.23101305664092" lon="13.185043971624928"><ele>206.0</ele><time>2026-04-08T16:33:14.999Z</time></trkpt><trkpt lat="46.23108688027838" lon="13.184902955508681"><ele>206.0</ele><time>2026-04-08T16:33:16Z</time></trkpt><trkpt lat="46.231173779172636" lon="13.184763525886037"><ele>206.0</ele><time>2026-04-08T16:33:17Z</time></trkpt><trkpt lat="46.23126898187176" lon="13.184619363192368"><ele>206.0</ele><time>2026-04-08T16:33:18Z</time></trkpt><trkpt lat="46.231358395249885" lon="13.18445523468499"><ele>205.75</ele><time>2026-04-08T16:33:19Z</time></trkpt><trkpt lat="46.231461514513384" lon="13.184301879219962"><ele>205.5</ele><time>2026-04-08T16:33:20Z</time></trkpt><trkpt lat="46.23157007620085" lon="13.184168300533969"><ele>205.25</ele><time>2026-04-08T16:33:21Z</time></trkpt><trkpt lat="46.23164881805767" lon="13.183999310384687"><ele>205.0</ele><time>2026-04-08T16:33:22Z</time></trkpt><trkpt lat="46.23170939704997" lon="13.183819265375242"><ele>205.75</ele><time>2026-04-08T16:33:23Z</time></trkpt><trkpt lat="46.23173876444173" lon="13.183611882316214"><ele>206.5</ele><time>2026-04-08T16:33:24Z</time></trkpt><trkpt lat="46.23176085386554" lon="13.183399808311137"><ele>207.25</ele><time>2026-04-08T16:33:25Z</time></trkpt><trkpt lat="46.2317886380094" lon="13.183201429630008"><ele>208.0</ele><time>2026-04-08T16:33:26Z</time></trkpt><trkpt lat="46.23180484505582" lon="13.18300751018348"><ele>208.0</ele><time>2026-04-08T16:33:27Z</time></trkpt><trkpt lat="46.23182305862054" lon="13.182781599336964"><ele>208.0</ele><time>2026-04-08T16:33:28Z</time></trkpt><trkpt lat="46.23183488725534" lon="13.182448251217972"><ele>208.0</ele><time>2026-04-08T16:33:29Z</time></trkpt><trkpt lat="46.23186576567581" lon="13.182056299730755"><ele>208.0</ele><time>2026-04-08T16:33:30Z</time></trkpt><trkpt lat="46.2319101054208" lon="13.181697939919012"><ele>208.0</ele><time>2026-04-08T16:33:31Z</time></trkpt><trkpt lat="46.23193818288531" lon="13.181406969600513"><ele>207.66666666666666</ele><time>2026-04-08T16:33:32Z</time></trkpt><trkpt lat="46.23197168155369" lon="13.181160080895586"><ele>207.33333333333331</ele><time>2026-04-08T16:33:33Z</time></trkpt><trkpt lat="46.23199755616093" lon="13.180933560540737"><ele>207.0</ele><time>2026-04-08T16:33:34Z</time></trkpt><trkpt lat="46.2319969544509" lon="13.180711002487296"><ele>207.33333333333331</ele><time>2026-04-08T16:33:35Z</time></trkpt><trkpt lat="46.231983969074584" lon="13.180511004544382"><ele>207.66666666666666</ele><time>2026-04-08T16:33:36Z</time></trkpt><trkpt lat="46.23192387060271" lon="13.180297437469882"><ele>208.0</ele><time>2026-04-08T16:33:37Z</time></trkpt><trkpt lat="46.2318196738531" lon="13.180070800922582"><ele>208.0</ele><time>2026-04-08T16:33:38Z</time></trkpt><trkpt lat="46.23172943121179" lon="13.179882149034816"><ele>208.0</ele><time>2026-04-08T16:33:39Z</time></trkpt><trkpt lat="46.23166270703041" lon="13.179709879029163"><ele>208.0</ele><time>2026-04-08T16:33:40Z</time></trkpt><trkpt lat="46.23160555198858" lon="13.179554408426073"><ele>208.0</ele><time>2026-04-08T16:33:41Z</time></trkpt><trkpt lat="46.23155873847786" lon="13.179394689859222"><ele>208.0</ele><time>2026-04-08T16:33:42Z</time></trkpt><trkpt lat="46.231522790905814" lon="13.179208767649628"><ele>208.0</ele><time>2026-04-08T16:33:43Z</time></trkpt><trkpt lat="46.231519196809195" lon="13.178996627544029"><ele>208.0</ele><time>2026-04-08T16:33:44Z</time></trkpt><trkpt lat="46.23148794943852" lon="13.178810829988834"><ele>208.0</ele><time>2026-04-08T16:33:45Z</time></trkpt><trkpt lat="46.2314769947153" lon="13.17863608216598"><ele>206.99999999999997</ele><time>2026-04-08T16:33:46Z</time></trkpt><trkpt lat="46.231466039716274" lon="13.178462933587557"><ele>206.0</ele><time>2026-04-08T16:33:47Z</time></trkpt><trkpt lat="46.23145763890638" lon="13.178332640867307"><ele>205.0</ele><time>2026-04-08T16:33:48Z</time></trkpt><trkpt lat="46.23145054239343" lon="13.178234558204956"><ele>204.0</ele><time>2026-04-08T16:33:49Z</time></trkpt><trkpt lat="46.23144437965387" lon="13.17813758502567"><ele>202.99999999999997</ele><time>2026-04-08T16:33:50Z</time></trkpt><trkpt lat="46.23144326312259" lon="13.178045830315043"><ele>202.0</ele><time>2026-04-08T16:33:51Z</time></trkpt><trkpt lat="46.23142838907997" lon="13.177892562171564"><ele>198.0</ele><time>2026-04-08T16:33:53Z</time></trkpt><trkpt lat="46.2314348880316" lon="13.177781454946977"><ele>198.0</ele><time>2026-04-08T16:33:56Z</time></trkpt></trkseg><trkseg><trkpt lat="46.231493167742315" lon="13.17759776554273"><ele>204.0</ele><time>2026-04-08T17:30:54.999Z</time></trkpt><trkpt lat="46.231482264575774" lon="13.177507862076173"><ele>204.0</ele><time>2026-04-08T17:30:55.999Z</time></trkpt><trkpt lat="46.23146638147133" lon="13.177415546319175"><ele>204.0</ele><time>2026-04-08T17:30:56.999Z</time></trkpt><trkpt lat="46.23144132300601" lon="13.177326172182534"><ele>204.0</ele><time>2026-04-08T17:30:57.999Z</time></trkpt><trkpt lat="46.23141564919031" lon="13.177241498727064"><ele>204.0</ele><time>2026-04-08T17:30:58.999Z</time></trkpt><trkpt lat="46.231391938076" lon="13.177154984821945"><ele>204.0</ele><time>2026-04-08T17:30:59.999Z</time></trkpt><trkpt lat="46.23135489676126" lon="13.17705901087553"><ele>204.0</ele><time>2026-04-08T17:31:00.999Z</time></trkpt><trkpt lat="46.23131364613579" lon="13.176937508266215"><ele>202.75</ele><time>2026-04-08T17:31:01.999Z</time></trkpt><trkpt lat="46.231255270172106" lon="13.176775483540313"><ele>201.5</ele><time>2026-04-08T17:31:02.999Z</time></trkpt><trkpt lat="46.2311844578912" lon="13.176602000157244"><ele>200.25</ele><time>2026-04-08T17:31:03.999Z</time></trkpt><trkpt lat="46.23110708165373" lon="13.176458735898432"><ele>199.0</ele><time>2026-04-08T17:31:04.999Z</time></trkpt><trkpt lat="46.23103652766244" lon="13.176349937327393"><ele>199.0</ele><time>2026-04-08T17:31:05.999Z</time></trkpt><trkpt lat="46.230964299211784" lon="13.176249219766744"><ele>199.0</ele><time>2026-04-08T17:31:06.999Z</time></trkpt><trkpt lat="46.230869256095495" lon="13.17613224396338"><ele>199.0</ele><time>2026-04-08T17:31:07.999Z</time></trkpt><trkpt lat="46.23074658138512" lon="13.175980715511075"><ele>199.0</ele><time>2026-04-08T17:31:08.999Z</time></trkpt><trkpt lat="46.230609097786704" lon="13.175809220370077"><ele>197.75</ele><time>2026-04-08T17:31:09.999Z</time></trkpt><trkpt lat="46.23048657226395" lon="13.175661427274365"><ele>196.5</ele><time>2026-04-08T17:31:10.999Z</time></trkpt><trkpt lat="46.23038693483039" lon="13.175537471199691"><ele>195.25</ele><time>2026-04-08T17:31:11.999Z</time></trkpt><trkpt lat="46.23029337921525" lon="13.175419558050958"><ele>194.0</ele><time>2026-04-08T17:31:12.999Z</time></trkpt><trkpt lat="46.23019313094946" lon="13.175285158687487"><ele>194.0</ele><time>2026-04-08T17:31:13.999Z</time></trkpt><trkpt lat="46.230090552262276" lon="13.175132574301804"><ele>194.0</ele><time>2026-04-08T17:31:14.999Z</time></trkpt><trkpt lat="46.22998147631803" lon="13.174957040152378"><ele>194.0</ele><time>2026-04-08T17:31:15.999Z</time></trkpt><trkpt lat="46.22986534057725" lon="13.17478372830721"><ele>193.25</ele><time>2026-04-08T17:31:16.999Z</time></trkpt><trkpt lat="46.22976265157874" lon="13.174625281079363"><ele>192.5</ele><time>2026-04-08T17:31:17.999Z</time></trkpt><trkpt lat="46.22965676823596" lon="13.174468971278326"><ele>191.75</ele><time>2026-04-08T17:31:18.999Z</time></trkpt><trkpt lat="46.229560803238556" lon="13.17432927568623"><ele>191.0</ele><time>2026-04-08T17:31:19.999Z</time></trkpt><trkpt lat="46.22947154210376" lon="13.174211927666741"><ele>191.0</ele><time>2026-04-08T17:31:20.999Z</time></trkpt><trkpt lat="46.229398163189785" lon="13.174114151749949"><ele>191.0</ele><time>2026-04-08T17:31:21.999Z</time></trkpt><trkpt lat="46.22933139510826" lon="13.17402876658599"><ele>191.0</ele><time>2026-04-08T17:31:22.999Z</time></trkpt><trkpt lat="46.229261189201274" lon="13.173944038346393"><ele>191.0</ele><time>2026-04-08T17:31:23.999Z</time></trkpt><trkpt lat="46.229200254799416" lon="13.173857800306465"><ele>191.0</ele><time>2026-04-08T17:31:24.999Z</time></trkpt><trkpt lat="46.229126925434024" lon="13.173720320406415"><ele>191.0</ele><time>2026-04-08T17:31:26.999Z</time></trkpt><trkpt lat="46.22905712725425" lon="13.17363334535405"><ele>191.0</ele><time>2026-04-08T17:31:28.999Z</time></trkpt><trkpt lat="46.228972747346575" lon="13.173751434492452"><ele>191.0</ele><time>2026-04-08T17:31:30.999Z</time></trkpt><trkpt lat="46.22892518935595" lon="13.173849126664603"><ele>191.0</ele><time>2026-04-08T17:31:31.999Z</time></trkpt><trkpt lat="46.2289008966595" lon="13.174017154599863"><ele>191.0</ele><time>2026-04-08T17:31:32.999Z</time></trkpt><trkpt lat="46.22885036512341" lon="13.174212342949112"><ele>190.66666666666666</ele><time>2026-04-08T17:31:33.999Z</time></trkpt><trkpt lat="46.22877633130842" lon="13.174437124092767"><ele>190.33333333333334</ele><time>2026-04-08T17:31:34.999Z</time></trkpt><trkpt lat="46.228703902028464" lon="13.174687804829345"><ele>190.0</ele><time>2026-04-08T17:31:35.999Z</time></trkpt><trkpt lat="46.22861624061811" lon="13.17494011242733"><ele>190.0</ele><time>2026-04-08T17:31:36.999Z</time></trkpt><trkpt lat="46.22854034212325" lon="13.17517646830877"><ele>190.0</ele><time>2026-04-08T17:31:37.999Z</time></trkpt><trkpt lat="46.22847283552129" lon="13.175407948578925"><ele>190.0</ele><time>2026-04-08T17:31:38.999Z</time></trkpt><trkpt lat="46.22838568796173" lon="13.175652197960193"><ele>190.0</ele><time>2026-04-08T17:31:39.999Z</time></trkpt><trkpt lat="46.228291409423925" lon="13.175914132256532"><ele>190.0</ele><time>2026-04-08T17:31:40.999Z</time></trkpt><trkpt lat="46.22819105606242" lon="13.176176500633396"><ele>190.0</ele><time>2026-04-08T17:31:41.999Z</time></trkpt><trkpt lat="46.228095970508626" lon="13.176421119220006"><ele>190.0</ele><time>2026-04-08T17:31:42.999Z</time></trkpt><trkpt lat="46.22800214003859" lon="13.176658091486974"><ele>190.0</ele><time>2026-04-08T17:31:43.999Z</time></trkpt><trkpt lat="46.22790376547191" lon="13.176895702526261"><ele>190.0</ele><time>2026-04-08T17:31:44.999Z</time></trkpt><trkpt lat="46.227805653007195" lon="13.17713973295147"><ele>190.66666666666669</ele><time>2026-04-08T17:31:45.999Z</time></trkpt><trkpt lat="46.22771972043894" lon="13.177397244180073"><ele>191.33333333333334</ele><time>2026-04-08T17:31:46.999Z</time></trkpt><trkpt lat="46.227654315806014" lon="13.177666940275978"><ele>192.0</ele><time>2026-04-08T17:31:47.999Z</time></trkpt><trkpt lat="46.22760607865573" lon="13.177933899858012"><ele>192.0</ele><time>2026-04-08T17:31:48.999Z</time></trkpt><trkpt lat="46.227566289908594" lon="13.178194694780354"><ele>192.0</ele><time>2026-04-08T17:31:49.999Z</time></trkpt><trkpt lat="46.22752117939949" lon="13.1784420442165"><ele>192.0</ele><time>2026-04-08T17:31:50.999Z</time></trkpt><trkpt lat="46.227457883093344" lon="13.178655698438094"><ele>192.0</ele><time>2026-04-08T17:31:51.999Z</time></trkpt><trkpt lat="46.22737739189958" lon="13.178849442080063"><ele>192.0</ele><time>2026-04-08T17:31:52.999Z</time></trkpt><trkpt lat="46.22727322523853" lon="13.17903127822049"><ele>192.0</ele><time>2026-04-08T17:31:53.999Z</time></trkpt><trkpt lat="46.22714586293591" lon="13.179196542133086"><ele>192.33333333333331</ele><time>2026-04-08T17:31:54.999Z</time></trkpt><trkpt lat="46.22699583453836" lon="13.17932731293441"><ele>192.66666666666666</ele><time>2026-04-08T17:31:55.999Z</time></trkpt><trkpt lat="46.22683507581244" lon="13.179419554296514"><ele>193.0</ele><time>2026-04-08T17:31:56.999Z</time></trkpt><trkpt lat="46.22667733545389" lon="13.179479689374066"><ele>193.0</ele><time>2026-04-08T17:31:58Z</time></trkpt><trkpt lat="46.2265146407453" lon="13.179519165714627"><ele>193.0</ele><time>2026-04-08T17:31:59Z</time></trkpt><trkpt lat="46.22635642423273" lon="13.179478628486331"><ele>193.0</ele><time>2026-04-08T17:32:00Z</time></trkpt><trkpt lat="46.226204102788174" lon="13.179430544537729"><ele>192.66666666666666</ele><time>2026-04-08T17:32:01Z</time></trkpt><trkpt lat="46.22605377450804" lon="13.179351740474283"><ele>192.33333333333331</ele><time>2026-04-08T17:32:02Z</time></trkpt><trkpt lat="46.22591773353456" lon="13.179244481075875"><ele>192.0</ele><time>2026-04-08T17:32:03Z</time></trkpt><trkpt lat="46.22578110701815" lon="13.17912398485277"><ele>192.0</ele><time>2026-04-08T17:32:04Z</time></trkpt><trkpt lat="46.22563456884431" lon="13.178993718916102"><ele>192.0</ele><time>2026-04-08T17:32:05Z</time></trkpt><trkpt lat="46.22547681437192" lon="13.1788534822937"><ele>192.0</ele><time>2026-04-08T17:32:06Z</time></trkpt><trkpt lat="46.22530347408729" lon="13.178726692924593"><ele>192.0</ele><time>2026-04-08T17:32:07Z</time></trkpt><trkpt lat="46.225133631201686" lon="13.178576931408752"><ele>192.0</ele><time>2026-04-08T17:32:08Z</time></trkpt><trkpt lat="46.22497312890163" lon="13.178408395252022"><ele>192.0</ele><time>2026-04-08T17:32:09Z</time></trkpt><trkpt lat="46.22481790837364" lon="13.178273194208511"><ele>191.75</ele><time>2026-04-08T17:32:10Z</time></trkpt><trkpt lat="46.22468395605503" lon="13.178156518161224"><ele>191.5</ele><time>2026-04-08T17:32:11Z</time></trkpt><trkpt lat="46.224570736410264" lon="13.178057273718077"><ele>191.25</ele><time>2026-04-08T17:32:12Z</time></trkpt><trkpt lat="46.224479803157216" lon="13.177972069022164"><ele>191.0</ele><time>2026-04-08T17:32:13Z</time></trkpt><trkpt lat="46.224407187134794" lon="13.177904913850892"><ele>191.0</ele><time>2026-04-08T17:32:14Z</time></trkpt><trkpt lat="46.22436378188681" lon="13.17781128218549"><ele>191.0</ele><time>2026-04-08T17:32:15Z</time></trkpt><trkpt lat="46.22432361606532" lon="13.177723982958284"><ele>191.0</ele><time>2026-04-08T17:32:16Z</time></trkpt><trkpt lat="46.22426176492773" lon="13.177658564453143"><ele>191.0</ele><time>2026-04-08T17:32:17Z</time></trkpt><trkpt lat="46.224081013183735" lon="13.177675301815874"><ele>191.0</ele><time>2026-04-08T17:32:19Z</time></trkpt><trkpt lat="46.22397439162715" lon="13.177762700188035"><ele>191.33333333333331</ele><time>2026-04-08T17:32:20Z</time></trkpt><trkpt lat="46.22384453101903" lon="13.17785945285775"><ele>191.66666666666666</ele><time>2026-04-08T17:32:21Z</time></trkpt><trkpt lat="46.223676005655285" lon="13.17796131241535"><ele>192.0</ele><time>2026-04-08T17:32:22Z</time></trkpt><trkpt lat="46.22347384019156" lon="13.178077167459314"><ele>192.5</ele><time>2026-04-08T17:32:23Z</time></trkpt><trkpt lat="46.22320583884058" lon="13.178208532251505"><ele>193.0</ele><time>2026-04-08T17:32:24Z</time></trkpt><trkpt lat="46.222956408892735" lon="13.17832821248221"><ele>193.5</ele><time>2026-04-08T17:32:25Z</time></trkpt><trkpt lat="46.22270707719658" lon="13.178448774509434"><ele>194.0</ele><time>2026-04-08T17:32:26Z</time></trkpt><trkpt lat="46.22246290143709" lon="13.178570310730471"><ele>194.0</ele><time>2026-04-08T17:32:27Z</time></trkpt><trkpt lat="46.22222791430136" lon="13.178686762429335"><ele>194.0</ele><time>2026-04-08T17:32:28Z</time></trkpt><trkpt lat="46.22200785985451" lon="13.17879248536176"><ele>194.0</ele><time>2026-04-08T17:32:29Z</time></trkpt><trkpt lat="46.22179751383128" lon="13.178896515726242"><ele>194.0</ele><time>2026-04-08T17:32:30Z</time></trkpt><trkpt lat="46.2215968882557" lon="13.178992674394932"><ele>194.0</ele><time>2026-04-08T17:32:31Z</time></trkpt><trkpt lat="46.22140347565877" lon="13.179081977821657"><ele>194.0</ele><time>2026-04-08T17:32:32Z</time></trkpt><trkpt lat="46.22121246217391" lon="13.17917239665098"><ele>194.0</ele><time>2026-04-08T17:32:33Z</time></trkpt><trkpt lat="46.22102264930875" lon="13.179264547327541"><ele>194.0</ele><time>2026-04-08T17:32:34Z</time></trkpt><trkpt lat="46.22083394054026" lon="13.17935707909899"><ele>193.66666666666669</ele><time>2026-04-08T17:32:35Z</time></trkpt><trkpt lat="46.220644242696345" lon="13.179450815978191"><ele>193.33333333333331</ele><time>2026-04-08T17:32:36Z</time></trkpt><trkpt lat="46.22043414031188" lon="13.179553048441745"><ele>193.0</ele><time>2026-04-08T17:32:37Z</time></trkpt><trkpt lat="46.220211346909714" lon="13.179659913759389"><ele>193.0</ele><time>2026-04-08T17:32:38Z</time></trkpt><trkpt lat="46.219987939096114" lon="13.179772577167512"><ele>193.0</ele><time>2026-04-08T17:32:39Z</time></trkpt><trkpt lat="46.219776223195154" lon="13.179885380917904"><ele>192.66666666666666</ele><time>2026-04-08T17:32:40Z</time></trkpt><trkpt lat="46.2195743878549" lon="13.179990878085587"><ele>192.33333333333331</ele><time>2026-04-08T17:32:41Z</time></trkpt><trkpt lat="46.21939455806623" lon="13.180083234780536"><ele>192.0</ele><time>2026-04-08T17:32:42Z</time></trkpt><trkpt lat="46.219229497318025" lon="13.180168956894663"><ele>192.0</ele><time>2026-04-08T17:32:43Z</time></trkpt><trkpt lat="46.219062989558594" lon="13.180254216215186"><ele>192.0</ele><time>2026-04-08T17:32:44Z</time></trkpt><trkpt lat="46.218893616530735" lon="13.18033870292698"><ele>192.0</ele><time>2026-04-08T17:32:45Z</time></trkpt><trkpt lat="46.21872940709995" lon="13.180419812837533"><ele>192.66666666666669</ele><time>2026-04-08T17:32:46Z</time></trkpt><trkpt lat="46.21856526627238" lon="13.180500477885063"><ele>193.33333333333334</ele><time>2026-04-08T17:32:47Z</time></trkpt><trkpt lat="46.21839610256345" lon="13.180584076069863"><ele>194.0</ele><time>2026-04-08T17:32:48Z</time></trkpt><trkpt lat="46.2182282858865" lon="13.18066637377304"><ele>194.33333333333334</ele><time>2026-04-08T17:32:49Z</time></trkpt><trkpt lat="46.21805956657289" lon="13.180749668805744"><ele>194.66666666666669</ele><time>2026-04-08T17:32:50Z</time></trkpt><trkpt lat="46.2178828601003" lon="13.180838749724927"><ele>195.0</ele><time>2026-04-08T17:32:51Z</time></trkpt><trkpt lat="46.21770658080958" lon="13.180927279756753"><ele>195.0</ele><time>2026-04-08T17:32:52Z</time></trkpt><trkpt lat="46.2175263740232" lon="13.1810175261459"><ele>195.0</ele><time>2026-04-08T17:32:52.999Z</time></trkpt><trkpt lat="46.21734144879304" lon="13.181107791412407"><ele>195.0</ele><time>2026-04-08T17:32:53.999Z</time></trkpt><trkpt lat="46.21715643915208" lon="13.181199790346357"><ele>194.33333333333331</ele><time>2026-04-08T17:32:54.999Z</time></trkpt><trkpt lat="46.216967859238544" lon="13.1812996679996"><ele>193.66666666666666</ele><time>2026-04-08T17:32:55.999Z</time></trkpt><trkpt lat="46.216767852200704" lon="13.181376654515093"><ele>193.0</ele><time>2026-04-08T17:32:56.999Z</time></trkpt><trkpt lat="46.216567185791625" lon="13.18147557826031"><ele>193.0</ele><time>2026-04-08T17:32:57.999Z</time></trkpt><trkpt lat="46.216367258258956" lon="13.181598579684472"><ele>193.0</ele><time>2026-04-08T17:32:58.999Z</time></trkpt><trkpt lat="46.21615778272625" lon="13.18169133529624"><ele>193.0</ele><time>2026-04-08T17:32:59.999Z</time></trkpt><trkpt lat="46.215944223785414" lon="13.181783503898812"><ele>193.0</ele><time>2026-04-08T17:33:00.999Z</time></trkpt><trkpt lat="46.21573032938522" lon="13.181878639863093"><ele>193.0</ele><time>2026-04-08T17:33:01.999Z</time></trkpt><trkpt lat="46.215518586676225" lon="13.181984430715389"><ele>193.0</ele><time>2026-04-08T17:33:02.999Z</time></trkpt><trkpt lat="46.21530694099444" lon="13.182095428570623"><ele>193.33333333333331</ele><time>2026-04-08T17:33:03.999Z</time></trkpt><trkpt lat="46.21509750499606" lon="13.182208142697494"><ele>193.66666666666669</ele><time>2026-04-08T17:33:04.999Z</time></trkpt><trkpt lat="46.21489058017458" lon="13.18232500703165"><ele>194.0</ele><time>2026-04-08T17:33:05.999Z</time></trkpt><trkpt lat="46.214688459682115" lon="13.182445682001756"><ele>194.0</ele><time>2026-04-08T17:33:06.999Z</time></trkpt><trkpt lat="46.21448884677389" lon="13.18257190347104"><ele>194.0</ele><time>2026-04-08T17:33:07.999Z</time></trkpt><trkpt lat="46.21429093395683" lon="13.18270199437408"><ele>194.0</ele><time>2026-04-08T17:33:08.999Z</time></trkpt><trkpt lat="46.21409286112048" lon="13.18283369401502"><ele>194.66666666666669</ele><time>2026-04-08T17:33:09.999Z</time></trkpt><trkpt lat="46.21389221191045" lon="13.182966797552702"><ele>195.33333333333331</ele><time>2026-04-08T17:33:10.999Z</time></trkpt><trkpt lat="46.21368812677023" lon="13.18310054579822"><ele>196.0</ele><time>2026-04-08T17:33:11.999Z</time></trkpt><trkpt lat="46.2134817974838" lon="13.183236517784017"><ele>195.5</ele><time>2026-04-08T17:33:12.999Z</time></trkpt><trkpt lat="46.21327292163085" lon="13.183373724663111"><ele>195.0</ele><time>2026-04-08T17:33:13.999Z</time></trkpt><trkpt lat="46.213062236644475" lon="13.183511674220219"><ele>195.0</ele><time>2026-04-08T17:33:14.999Z</time></trkpt><trkpt lat="46.21285034614945" lon="13.18365018417833"><ele>195.0</ele><time>2026-04-08T17:33:15.999Z</time></trkpt><trkpt lat="46.21263853962709" lon="13.183788784809106"><ele>195.0</ele><time>2026-04-08T17:33:16.999Z</time></trkpt><trkpt lat="46.21242489293522" lon="13.183928076942978"><ele>195.0</ele><time>2026-04-08T17:33:17.999Z</time></trkpt><trkpt lat="46.21221009876657" lon="13.184066914508907"><ele>194.0</ele><time>2026-04-08T17:33:18.999Z</time></trkpt><trkpt lat="46.21199419133635" lon="13.184208063956492"><ele>193.0</ele><time>2026-04-08T17:33:19.999Z</time></trkpt><trkpt lat="46.2117783989481" lon="13.184348984501709"><ele>193.0</ele><time>2026-04-08T17:33:20.999Z</time></trkpt><trkpt lat="46.21156149827639" lon="13.184491365532748"><ele>193.0</ele><time>2026-04-08T17:33:21.999Z</time></trkpt><trkpt lat="46.21134303878562" lon="13.18463317398201"><ele>193.0</ele><time>2026-04-08T17:33:22.999Z</time></trkpt><trkpt lat="46.211124407836905" lon="13.184774617174702"><ele>193.0</ele><time>2026-04-08T17:33:23.999Z</time></trkpt><trkpt lat="46.21090441388147" lon="13.184915257579586"><ele>193.0</ele><time>2026-04-08T17:33:24.999Z</time></trkpt><trkpt lat="46.21068433737217" lon="13.185056681322655"><ele>193.0</ele><time>2026-04-08T17:33:25.999Z</time></trkpt><trkpt lat="46.21046445757557" lon="13.185200576149736"><ele>193.5</ele><time>2026-04-08T17:33:26.999Z</time></trkpt><trkpt lat="46.210245002578255" lon="13.185344995392457"><ele>194.0</ele><time>2026-04-08T17:33:27.999Z</time></trkpt><trkpt lat="46.21002388354389" lon="13.185489145157607"><ele>194.0</ele><time>2026-04-08T17:33:28.999Z</time></trkpt><trkpt lat="46.20980309172091" lon="13.18563684240941"><ele>194.0</ele><time>2026-04-08T17:33:29.999Z</time></trkpt><trkpt lat="46.2095826747778" lon="13.18578615986713"><ele>194.0</ele><time>2026-04-08T17:33:30.999Z</time></trkpt><trkpt lat="46.20936023322342" lon="13.185934040240967"><ele>194.0</ele><time>2026-04-08T17:33:31.999Z</time></trkpt><trkpt lat="46.20913697281843" lon="13.186079108342389"><ele>195.0</ele><time>2026-04-08T17:33:32.999Z</time></trkpt><trkpt lat="46.20891472921099" lon="13.186222387984214"><ele>196.0</ele><time>2026-04-08T17:33:33.999Z</time></trkpt><trkpt lat="46.208692028695566" lon="13.186368744567583"><ele>196.0</ele><time>2026-04-08T17:33:34.999Z</time></trkpt><trkpt lat="46.20847122624661" lon="13.186516589036355"><ele>196.0</ele><time>2026-04-08T17:33:35.999Z</time></trkpt><trkpt lat="46.20825127715757" lon="13.186664513765175"><ele>195.0</ele><time>2026-04-08T17:33:36.999Z</time></trkpt><trkpt lat="46.20803164090915" lon="13.186812292998596"><ele>194.0</ele><time>2026-04-08T17:33:37.999Z</time></trkpt><trkpt lat="46.20781063906873" lon="13.186959198920942"><ele>194.0</ele><time>2026-04-08T17:33:38.999Z</time></trkpt><trkpt lat="46.20758978414055" lon="13.18710601708128"><ele>194.0</ele><time>2026-04-08T17:33:39.999Z</time></trkpt><trkpt lat="46.20736948562719" lon="13.18725436318824"><ele>194.0</ele><time>2026-04-08T17:33:40.999Z</time></trkpt><trkpt lat="46.2071497877421" lon="13.187399973162037"><ele>194.0</ele><time>2026-04-08T17:33:41.999Z</time></trkpt><trkpt lat="46.2069310305785" lon="13.187544641279407"><ele>194.0</ele><time>2026-04-08T17:33:42.999Z</time></trkpt><trkpt lat="46.206712144602236" lon="13.187688477460789"><ele>194.0</ele><time>2026-04-08T17:33:43.999Z</time></trkpt><trkpt lat="46.20649152744662" lon="13.187837197881047"><ele>194.0</ele><time>2026-04-08T17:33:44.999Z</time></trkpt><trkpt lat="46.2062684637752" lon="13.187992191673203"><ele>194.0</ele><time>2026-04-08T17:33:45.999Z</time></trkpt><trkpt lat="46.206039150833654" lon="13.188146370815671"><ele>193.5</ele><time>2026-04-08T17:33:46.999Z</time></trkpt><trkpt lat="46.20580515681151" lon="13.188298302726189"><ele>193.0</ele><time>2026-04-08T17:33:47.999Z</time></trkpt><trkpt lat="46.20556754023983" lon="13.18845138887109"><ele>192.5</ele><time>2026-04-08T17:33:48.999Z</time></trkpt><trkpt lat="46.205326307334914" lon="13.188606322197405"><ele>192.0</ele><time>2026-04-08T17:33:49.999Z</time></trkpt><trkpt lat="46.20508416731671" lon="13.188764347979212"><ele>192.0</ele><time>2026-04-08T17:33:50.999Z</time></trkpt><trkpt lat="46.204843022806884" lon="13.188920280262558"><ele>192.0</ele><time>2026-04-08T17:33:51.999Z</time></trkpt><trkpt lat="46.20460355745426" lon="13.189073169266846"><ele>192.0</ele><time>2026-04-08T17:33:52.999Z</time></trkpt><trkpt lat="46.20436694777994" lon="13.189225525662497"><ele>192.0</ele><time>2026-04-08T17:33:53.999Z</time></trkpt><trkpt lat="46.2041338115502" lon="13.189377733142736"><ele>193.0</ele><time>2026-04-08T17:33:54.999Z</time></trkpt><trkpt lat="46.203904076530165" lon="13.189533341405676"><ele>194.0</ele><time>2026-04-08T17:33:55.999Z</time></trkpt><trkpt lat="46.20367638316323" lon="13.189687523510733"><ele>194.0</ele><time>2026-04-08T17:33:56.999Z</time></trkpt><trkpt lat="46.2034503711174" lon="13.189834802835643"><ele>194.0</ele><time>2026-04-08T17:33:57.999Z</time></trkpt><trkpt lat="46.203227506625396" lon="13.18997594534722"><ele>195.0</ele><time>2026-04-08T17:33:58.999Z</time></trkpt><trkpt lat="46.20300735654646" lon="13.190117213346799"><ele>196.0</ele><time>2026-04-08T17:33:59.999Z</time></trkpt><trkpt lat="46.20279028115915" lon="13.190260605183228"><ele>196.0</ele><time>2026-04-08T17:34:00.999Z</time></trkpt><trkpt lat="46.202574949633146" lon="13.19040369028999"><ele>196.0</ele><time>2026-04-08T17:34:01.999Z</time></trkpt><trkpt lat="46.20236306849249" lon="13.190543635721667"><ele>196.66666666666666</ele><time>2026-04-08T17:34:02.999Z</time></trkpt><trkpt lat="46.2021570910244" lon="13.190678192053246"><ele>197.33333333333331</ele><time>2026-04-08T17:34:04Z</time></trkpt><trkpt lat="46.20195841838128" lon="13.190808045185547"><ele>198.0</ele><time>2026-04-08T17:34:05Z</time></trkpt><trkpt lat="46.20176688001548" lon="13.190934317171541"><ele>198.0</ele><time>2026-04-08T17:34:06Z</time></trkpt><trkpt lat="46.20158308344118" lon="13.191057662533007"><ele>198.0</ele><time>2026-04-08T17:34:07Z</time></trkpt><trkpt lat="46.201403595032545" lon="13.191172710816932"><ele>198.0</ele><time>2026-04-08T17:34:08Z</time></trkpt><trkpt lat="46.20123198199221" lon="13.191284975000482"><ele>199.0</ele><time>2026-04-08T17:34:09Z</time></trkpt><trkpt lat="46.20106766894742" lon="13.191390156600017"><ele>200.0</ele><time>2026-04-08T17:34:10Z</time></trkpt><trkpt lat="46.200911122180365" lon="13.19149273931698"><ele>201.0</ele><time>2026-04-08T17:34:11Z</time></trkpt><trkpt lat="46.200745213495786" lon="13.19160487939238"><ele>203.33333333333331</ele><time>2026-04-08T17:34:12Z</time></trkpt><trkpt lat="46.20057384874417" lon="13.191724559634485"><ele>205.66666666666666</ele><time>2026-04-08T17:34:13Z</time></trkpt><trkpt lat="46.20040398622432" lon="13.19183856541088"><ele>208.0</ele><time>2026-04-08T17:34:14Z</time></trkpt><trkpt lat="46.20023624608323" lon="13.191946107302059"><ele>208.0</ele><time>2026-04-08T17:34:15Z</time></trkpt><trkpt lat="46.200066068238385" lon="13.192056242391727"><ele>208.0</ele><time>2026-04-08T17:34:16Z</time></trkpt><trkpt lat="46.199890359265545" lon="13.192155361239752"><ele>208.0</ele><time>2026-04-08T17:34:17Z</time></trkpt><trkpt lat="46.1997034762938" lon="13.192243059497443"><ele>207.66666666666666</ele><time>2026-04-08T17:34:18Z</time></trkpt><trkpt lat="46.19950686653438" lon="13.192322115419433"><ele>207.33333333333331</ele><time>2026-04-08T17:34:19Z</time></trkpt><trkpt lat="46.1992976816929" lon="13.19239959355942"><ele>207.0</ele><time>2026-04-08T17:34:20Z</time></trkpt><trkpt lat="46.1990733259445" lon="13.192463229709569"><ele>202.0</ele><time>2026-04-08T17:34:21Z</time></trkpt><trkpt lat="46.19883843177922" lon="13.192519751994096"><ele>197.0</ele><time>2026-04-08T17:34:22Z</time></trkpt><trkpt lat="46.1985942211477" lon="13.192571568586613"><ele>197.0</ele><time>2026-04-08T17:34:23Z</time></trkpt><trkpt lat="46.1983430494947" lon="13.192629266290382"><ele>197.0</ele><time>2026-04-08T17:34:24Z</time></trkpt><trkpt lat="46.19808813791145" lon="13.192692426421242"><ele>196.5</ele><time>2026-04-08T17:34:25Z</time></trkpt><trkpt lat="46.19783215716139" lon="13.19275722735787"><ele>196.0</ele><time>2026-04-08T17:34:26Z</time></trkpt><trkpt lat="46.197574960734066" lon="13.192820488828158"><ele>196.0</ele><time>2026-04-08T17:34:27Z</time></trkpt><trkpt lat="46.19731565729386" lon="13.192886462072625"><ele>196.0</ele><time>2026-04-08T17:34:28Z</time></trkpt><trkpt lat="46.19705619478016" lon="13.192955718800073"><ele>196.0</ele><time>2026-04-08T17:34:29Z</time></trkpt><trkpt lat="46.196795077725966" lon="13.19302471857581"><ele>196.0</ele><time>2026-04-08T17:34:30Z</time></trkpt><trkpt lat="46.19654244099896" lon="13.193099081084691"><ele>197.0</ele><time>2026-04-08T17:34:31Z</time></trkpt><trkpt lat="46.19630777313777" lon="13.193194145894394"><ele>198.0</ele><time>2026-04-08T17:34:32Z</time></trkpt><trkpt lat="46.19608544080595" lon="13.193309070896463"><ele>198.0</ele><time>2026-04-08T17:34:33Z</time></trkpt><trkpt lat="46.19587022180198" lon="13.193428822113365"><ele>198.0</ele><time>2026-04-08T17:34:34Z</time></trkpt><trkpt lat="46.195659152564964" lon="13.19354825414139"><ele>197.0</ele><time>2026-04-08T17:34:35Z</time></trkpt><trkpt lat="46.195449868267666" lon="13.193660429354823"><ele>196.0</ele><time>2026-04-08T17:34:36Z</time></trkpt><trkpt lat="46.195242908734855" lon="13.193770061825756"><ele>195.0</ele><time>2026-04-08T17:34:37Z</time></trkpt><trkpt lat="46.1950378608476" lon="13.193883500407283"><ele>195.0</ele><time>2026-04-08T17:34:38Z</time></trkpt><trkpt lat="46.19483810233021" lon="13.193986079277487"><ele>195.0</ele><time>2026-04-08T17:34:39Z</time></trkpt><trkpt lat="46.19464570466677" lon="13.194078713404274"><ele>195.0</ele><time>2026-04-08T17:34:40Z</time></trkpt><trkpt lat="46.194467780572424" lon="13.19416536546761"><ele>194.33333333333331</ele><time>2026-04-08T17:34:41Z</time></trkpt><trkpt lat="46.19430465305956" lon="13.19424805944401"><ele>193.66666666666666</ele><time>2026-04-08T17:34:42Z</time></trkpt><trkpt lat="46.19416139304953" lon="13.19432569947402"><ele>193.0</ele><time>2026-04-08T17:34:43Z</time></trkpt><trkpt lat="46.19403457355195" lon="13.194403046492178"><ele>192.5</ele><time>2026-04-08T17:34:44Z</time></trkpt><trkpt lat="46.193914025640446" lon="13.194474008383125"><ele>192.0</ele><time>2026-04-08T17:34:45Z</time></trkpt><trkpt lat="46.19379820196194" lon="13.194540891186374"><ele>191.5</ele><time>2026-04-08T17:34:46Z</time></trkpt><trkpt lat="46.193686197787116" lon="13.19460496559494"><ele>191.0</ele><time>2026-04-08T17:34:47Z</time></trkpt><trkpt lat="46.19357670042507" lon="13.194661370059013"><ele>191.0</ele><time>2026-04-08T17:34:48Z</time></trkpt><trkpt lat="46.193474267641975" lon="13.194706100378085"><ele>191.0</ele><time>2026-04-08T17:34:49Z</time></trkpt><trkpt lat="46.19337642303478" lon="13.194726855015793"><ele>191.0</ele><time>2026-04-08T17:34:50Z</time></trkpt><trkpt lat="46.19327506480855" lon="13.194716916048387"><ele>191.0</ele><time>2026-04-08T17:34:51Z</time></trkpt><trkpt lat="46.19318020713322" lon="13.194727319411808"><ele>191.0</ele><time>2026-04-08T17:34:51.999Z</time></trkpt><trkpt lat="46.193091805558964" lon="13.194815132779548"><ele>191.5</ele><time>2026-04-08T17:34:52.999Z</time></trkpt><trkpt lat="46.19299575510794" lon="13.194947388257795"><ele>192.0</ele><time>2026-04-08T17:34:53.999Z</time></trkpt><trkpt lat="46.192882240405105" lon="13.19508085544076"><ele>192.5</ele><time>2026-04-08T17:34:54.999Z</time></trkpt><trkpt lat="46.19274737607701" lon="13.195207591543754"><ele>193.0</ele><time>2026-04-08T17:34:55.999Z</time></trkpt><trkpt lat="46.19260069222542" lon="13.195336503760513"><ele>193.0</ele><time>2026-04-08T17:34:56.999Z</time></trkpt><trkpt lat="46.19244334862631" lon="13.19545902217547"><ele>193.0</ele><time>2026-04-08T17:34:57.999Z</time></trkpt><trkpt lat="46.1922747010374" lon="13.19558376375079"><ele>193.0</ele><time>2026-04-08T17:34:58.999Z</time></trkpt><trkpt lat="46.19210080590585" lon="13.195717946824756"><ele>192.33333333333331</ele><time>2026-04-08T17:34:59.999Z</time></trkpt><trkpt lat="46.19192639175001" lon="13.195852158374912"><ele>191.66666666666666</ele><time>2026-04-08T17:35:00.999Z</time></trkpt><trkpt lat="46.19175515308131" lon="13.195982919911238"><ele>191.0</ele><time>2026-04-08T17:35:01.999Z</time></trkpt><trkpt lat="46.19157821171931" lon="13.196116879355264"><ele>190.33333333333331</ele><time>2026-04-08T17:35:02.999Z</time></trkpt><trkpt lat="46.19140170706642" lon="13.196252884584178"><ele>189.66666666666666</ele><time>2026-04-08T17:35:03.999Z</time></trkpt><trkpt lat="46.19122532350513" lon="13.196389536632973"><ele>189.0</ele><time>2026-04-08T17:35:04.999Z</time></trkpt><trkpt lat="46.19104590887173" lon="13.19652978607221"><ele>188.66666666666666</ele><time>2026-04-08T17:35:05.999Z</time></trkpt><trkpt lat="46.19086545528121" lon="13.196668792944529"><ele>188.33333333333331</ele><time>2026-04-08T17:35:06.999Z</time></trkpt><trkpt lat="46.190683808218026" lon="13.196807862764222"><ele>188.0</ele><time>2026-04-08T17:35:07.999Z</time></trkpt><trkpt lat="46.19050167582215" lon="13.19694895586234"><ele>188.0</ele><time>2026-04-08T17:35:08.999Z</time></trkpt><trkpt lat="46.19032160755434" lon="13.197089016443527"><ele>188.0</ele><time>2026-04-08T17:35:09.999Z</time></trkpt><trkpt lat="46.19014235875294" lon="13.197227206765845"><ele>188.0</ele><time>2026-04-08T17:35:10.999Z</time></trkpt><trkpt lat="46.18996340460675" lon="13.19736421740223"><ele>188.0</ele><time>2026-04-08T17:35:11.999Z</time></trkpt><trkpt lat="46.189782353144395" lon="13.197500150778039"><ele>188.0</ele><time>2026-04-08T17:35:12.999Z</time></trkpt><trkpt lat="46.189597179589654" lon="13.197643076444233"><ele>188.0</ele><time>2026-04-08T17:35:13.999Z</time></trkpt><trkpt lat="46.18940607813847" lon="13.197793802320568"><ele>188.0</ele><time>2026-04-08T17:35:14.999Z</time></trkpt><trkpt lat="46.18920998445034" lon="13.197947443253579"><ele>188.0</ele><time>2026-04-08T17:35:15.999Z</time></trkpt><trkpt lat="46.18901198178083" lon="13.198103060036228"><ele>188.0</ele><time>2026-04-08T17:35:16.999Z</time></trkpt><trkpt lat="46.188816535608076" lon="13.198260442671122"><ele>186.5</ele><time>2026-04-08T17:35:17.999Z</time></trkpt><trkpt lat="46.18862113154869" lon="13.198423421497328"><ele>185.0</ele><time>2026-04-08T17:35:18.999Z</time></trkpt><trkpt lat="46.18842637597662" lon="13.19859171873464"><ele>185.0</ele><time>2026-04-08T17:35:19.999Z</time></trkpt><trkpt lat="46.18823380791535" lon="13.198765458397201"><ele>185.0</ele><time>2026-04-08T17:35:20.999Z</time></trkpt><trkpt lat="46.18804127660153" lon="13.198941735976206"><ele>185.33333333333331</ele><time>2026-04-08T17:35:21.999Z</time></trkpt><trkpt lat="46.18784983885084" lon="13.1991155555887"><ele>185.66666666666666</ele><time>2026-04-08T17:35:22.999Z</time></trkpt><trkpt lat="46.18766386193463" lon="13.199281569951301"><ele>186.0</ele><time>2026-04-08T17:35:23.999Z</time></trkpt><trkpt lat="46.187480135933356" lon="13.199443436503547"><ele>186.0</ele><time>2026-04-08T17:35:24.999Z</time></trkpt><trkpt lat="46.18729413106159" lon="13.199597656118856"><ele>186.0</ele><time>2026-04-08T17:35:25.999Z</time></trkpt><trkpt lat="46.18710383541457" lon="13.19973967301323"><ele>186.0</ele><time>2026-04-08T17:35:26.999Z</time></trkpt><trkpt lat="46.18691204951755" lon="13.199868848605329"><ele>186.0</ele><time>2026-04-08T17:35:27.999Z</time></trkpt><trkpt lat="46.186719367688966" lon="13.199990239736625"><ele>186.0</ele><time>2026-04-08T17:35:28.999Z</time></trkpt><trkpt lat="46.18652826760621" lon="13.200103756241502"><ele>186.0</ele><time>2026-04-08T17:35:29.999Z</time></trkpt><trkpt lat="46.18634183832094" lon="13.200222106363276"><ele>185.33333333333334</ele><time>2026-04-08T17:35:30.999Z</time></trkpt><trkpt lat="46.18615918204513" lon="13.20033880157573"><ele>184.66666666666669</ele><time>2026-04-08T17:35:31.999Z</time></trkpt><trkpt lat="46.185977567104366" lon="13.200455125083327"><ele>184.0</ele><time>2026-04-08T17:35:32.999Z</time></trkpt><trkpt lat="46.18579841722371" lon="13.200569713976762"><ele>184.66666666666669</ele><time>2026-04-08T17:35:33.999Z</time></trkpt><trkpt lat="46.18561811868101" lon="13.200685027669257"><ele>185.33333333333334</ele><time>2026-04-08T17:35:34.999Z</time></trkpt><trkpt lat="46.185436385553345" lon="13.200799273968887"><ele>186.0</ele><time>2026-04-08T17:35:35.999Z</time></trkpt><trkpt lat="46.18525357988906" lon="13.200915114465799"><ele>186.0</ele><time>2026-04-08T17:35:36.999Z</time></trkpt><trkpt lat="46.18507336005357" lon="13.201030906174132"><ele>186.0</ele><time>2026-04-08T17:35:37.999Z</time></trkpt><trkpt lat="46.18489243949873" lon="13.201146719513583"><ele>186.0</ele><time>2026-04-08T17:35:38.999Z</time></trkpt><trkpt lat="46.18471063763082" lon="13.201264284752686"><ele>185.66666666666666</ele><time>2026-04-08T17:35:39.999Z</time></trkpt><trkpt lat="46.1845254963518" lon="13.201383629469836"><ele>185.33333333333331</ele><time>2026-04-08T17:35:40.999Z</time></trkpt><trkpt lat="46.18433712853474" lon="13.201503988577967"><ele>185.0</ele><time>2026-04-08T17:35:41.999Z</time></trkpt><trkpt lat="46.184150316822056" lon="13.201626903006398"><ele>185.0</ele><time>2026-04-08T17:35:42.999Z</time></trkpt><trkpt lat="46.18396298648047" lon="13.2017481233891"><ele>185.0</ele><time>2026-04-08T17:35:43.999Z</time></trkpt><trkpt lat="46.183775248755325" lon="13.201867889238175"><ele>185.0</ele><time>2026-04-08T17:35:44.999Z</time></trkpt><trkpt lat="46.18358918890773" lon="13.201986868370334"><ele>185.0</ele><time>2026-04-08T17:35:45.999Z</time></trkpt><trkpt lat="46.183404538318264" lon="13.20210411374188"><ele>185.0</ele><time>2026-04-08T17:35:46.999Z</time></trkpt><trkpt lat="46.183219727925646" lon="13.202222509588022"><ele>185.0</ele><time>2026-04-08T17:35:47.999Z</time></trkpt><trkpt lat="46.183033764576436" lon="13.202342057527504"><ele>185.0</ele><time>2026-04-08T17:35:48.999Z</time></trkpt><trkpt lat="46.1828463354438" lon="13.202461971358646"><ele>185.0</ele><time>2026-04-08T17:35:49.999Z</time></trkpt><trkpt lat="46.18265672888093" lon="13.202580236795583"><ele>185.0</ele><time>2026-04-08T17:35:50.999Z</time></trkpt><trkpt lat="46.18247008711987" lon="13.202698908073595"><ele>182.66666666666666</ele><time>2026-04-08T17:35:51.999Z</time></trkpt><trkpt lat="46.18229572152367" lon="13.202811822367238"><ele>180.33333333333334</ele><time>2026-04-08T17:35:52.999Z</time></trkpt><trkpt lat="46.18213488782934" lon="13.202914362175473"><ele>178.0</ele><time>2026-04-08T17:35:53.999Z</time></trkpt><trkpt lat="46.18197968082222" lon="13.203010603614647"><ele>178.0</ele><time>2026-04-08T17:35:54.999Z</time></trkpt><trkpt lat="46.181831555016075" lon="13.203106594247245"><ele>178.0</ele><time>2026-04-08T17:35:55.999Z</time></trkpt><trkpt lat="46.1816877348397" lon="13.203199234809857"><ele>178.0</ele><time>2026-04-08T17:35:56.999Z</time></trkpt><trkpt lat="46.181550969933625" lon="13.203286655410466"><ele>178.5</ele><time>2026-04-08T17:35:57.999Z</time></trkpt><trkpt lat="46.18142190430116" lon="13.203369954740502"><ele>179.0</ele><time>2026-04-08T17:35:58.999Z</time></trkpt><trkpt lat="46.1813047055975" lon="13.203444822330596"><ele>179.5</ele><time>2026-04-08T17:35:59.999Z</time></trkpt><trkpt lat="46.18119555654003" lon="13.203511177025497"><ele>180.0</ele><time>2026-04-08T17:36:00.999Z</time></trkpt><trkpt lat="46.18110042815881" lon="13.203569516791294"><ele>180.0</ele><time>2026-04-08T17:36:01.999Z</time></trkpt><trkpt lat="46.18101539082238" lon="13.203623121381568"><ele>180.0</ele><time>2026-04-08T17:36:02.999Z</time></trkpt><trkpt lat="46.18093620425771" lon="13.203673070667412"><ele>180.0</ele><time>2026-04-08T17:36:03.999Z</time></trkpt><trkpt lat="46.181037082513924" lon="13.204171261719713"><ele>179.83333333333334</ele><time>2026-04-08T17:36:04.999Z</time></trkpt><trkpt lat="46.18098089779082" lon="13.204213289049521"><ele>179.66666666666666</ele><time>2026-04-08T17:36:05.999Z</time></trkpt><trkpt lat="46.18088933170409" lon="13.204281782367504"><ele>179.5</ele><time>2026-04-08T17:36:07.999Z</time></trkpt><trkpt lat="46.18080739667183" lon="13.204283337980124"><ele>179.33333333333331</ele><time>2026-04-08T17:36:10Z</time></trkpt><trkpt lat="46.180731903765356" lon="13.204245246077235"><ele>179.16666666666666</ele><time>2026-04-08T17:36:13Z</time></trkpt><trkpt lat="46.180688835121174" lon="13.204151881408409"><ele>179.0</ele><time>2026-04-08T17:36:17Z</time></trkpt><trkpt lat="46.180654341779245" lon="13.204054373157147"><ele>179.0</ele><time>2026-04-08T17:36:21Z</time></trkpt><trkpt lat="46.180595805336516" lon="13.203884353349133"><ele>179.0</ele><time>2026-04-08T17:36:33Z</time></trkpt><trkpt lat="46.180532028048425" lon="13.203921065505957"><ele>179.0</ele><time>2026-04-08T17:36:51Z</time></trkpt><trkpt lat="46.18046778117872" lon="13.203952688371473"><ele>179.0</ele><time>2026-04-08T17:36:52Z</time></trkpt><trkpt lat="46.18035180450443" lon="13.204028933322453"><ele>179.0</ele><time>2026-04-08T17:36:53Z</time></trkpt><trkpt lat="46.180194730765336" lon="13.204128189203546"><ele>179.0</ele><time>2026-04-08T17:36:54Z</time></trkpt><trkpt lat="46.180014916594715" lon="13.20424163712327"><ele>179.0</ele><time>2026-04-08T17:36:55Z</time></trkpt><trkpt lat="46.17982022460434" lon="13.204358968163412"><ele>179.0</ele><time>2026-04-08T17:36:56Z</time></trkpt><trkpt lat="46.17959603822323" lon="13.20448184683116"><ele>177.5</ele><time>2026-04-08T17:36:56.999Z</time></trkpt><trkpt lat="46.179352396240624" lon="13.204577374427897"><ele>176.0</ele><time>2026-04-08T17:36:57.999Z</time></trkpt><trkpt lat="46.1790934283803" lon="13.204642131437861"><ele>177.0</ele><time>2026-04-08T17:36:58.999Z</time></trkpt><trkpt lat="46.178824675116616" lon="13.204694780818288"><ele>178.0</ele><time>2026-04-08T17:36:59.999Z</time></trkpt><trkpt lat="46.17856170512154" lon="13.20473963364416"><ele>178.0</ele><time>2026-04-08T17:37:00.999Z</time></trkpt><trkpt lat="46.17831913795917" lon="13.204785361772167"><ele>178.0</ele><time>2026-04-08T17:37:01.999Z</time></trkpt><trkpt lat="46.178086895926896" lon="13.20483528833278"><ele>178.5</ele><time>2026-04-08T17:37:02.999Z</time></trkpt><trkpt lat="46.17786137488712" lon="13.20488141402207"><ele>179.0</ele><time>2026-04-08T17:37:03.999Z</time></trkpt><trkpt lat="46.17764137650195" lon="13.20492953289658"><ele>179.0</ele><time>2026-04-08T17:37:04.999Z</time></trkpt><trkpt lat="46.17741121911841" lon="13.204981765622723"><ele>179.0</ele><time>2026-04-08T17:37:05.999Z</time></trkpt><trkpt lat="46.17718325434955" lon="13.205029908186237"><ele>178.66666666666666</ele><time>2026-04-08T17:37:06.999Z</time></trkpt><trkpt lat="46.17696401196603" lon="13.205071934294304"><ele>178.33333333333334</ele><time>2026-04-08T17:37:07.999Z</time></trkpt><trkpt lat="46.17675340486034" lon="13.20510916165308"><ele>178.0</ele><time>2026-04-08T17:37:08.999Z</time></trkpt><trkpt lat="46.17654876333394" lon="13.205151891356168"><ele>177.66666666666669</ele><time>2026-04-08T17:37:09.999Z</time></trkpt><trkpt lat="46.17634680667898" lon="13.205193800598439"><ele>177.33333333333334</ele><time>2026-04-08T17:37:10.999Z</time></trkpt><trkpt lat="46.17614179157984" lon="13.205237049357333"><ele>177.0</ele><time>2026-04-08T17:37:11.999Z</time></trkpt><trkpt lat="46.17593684787256" lon="13.205281313890188"><ele>177.0</ele><time>2026-04-08T17:37:12.999Z</time></trkpt><trkpt lat="46.17573083906392" lon="13.205324123662484"><ele>177.0</ele><time>2026-04-08T17:37:13.999Z</time></trkpt><trkpt lat="46.17552652717354" lon="13.205366755710264"><ele>177.0</ele><time>2026-04-08T17:37:14.999Z</time></trkpt><trkpt lat="46.175322637202655" lon="13.205407719914918"><ele>176.66666666666666</ele><time>2026-04-08T17:37:15.999Z</time></trkpt><trkpt lat="46.17512132470791" lon="13.205449552186836"><ele>176.33333333333331</ele><time>2026-04-08T17:37:16.999Z</time></trkpt><trkpt lat="46.174918843402736" lon="13.20549206955755"><ele>176.0</ele><time>2026-04-08T17:37:17.999Z</time></trkpt><trkpt lat="46.1747158693867" lon="13.205533980368928"><ele>175.33333333333331</ele><time>2026-04-08T17:37:18.999Z</time></trkpt><trkpt lat="46.1745126285783" lon="13.205575174637206"><ele>174.66666666666666</ele><time>2026-04-08T17:37:19.999Z</time></trkpt><trkpt lat="46.17430990882833" lon="13.205616464725864"><ele>174.0</ele><time>2026-04-08T17:37:20.999Z</time></trkpt><trkpt lat="46.174107096871595" lon="13.205657098315484"><ele>174.33333333333334</ele><time>2026-04-08T17:37:21.999Z</time></trkpt><trkpt lat="46.173901910964254" lon="13.205698747798866"><ele>174.66666666666669</ele><time>2026-04-08T17:37:22.999Z</time></trkpt><trkpt lat="46.17369418333675" lon="13.205744760941304"><ele>175.0</ele><time>2026-04-08T17:37:23.999Z</time></trkpt><trkpt lat="46.173485860679726" lon="13.205790908492942"><ele>175.0</ele><time>2026-04-08T17:37:24.999Z</time></trkpt><trkpt lat="46.173275118612686" lon="13.205834752545877"><ele>175.0</ele><time>2026-04-08T17:37:25.999Z</time></trkpt><trkpt lat="46.173061594489376" lon="13.205877353050365"><ele>175.0</ele><time>2026-04-08T17:37:26.999Z</time></trkpt><trkpt lat="46.172847798473256" lon="13.205918675179216"><ele>175.0</ele><time>2026-04-08T17:37:27.999Z</time></trkpt><trkpt lat="46.1726361047761" lon="13.205962541650718"><ele>175.0</ele><time>2026-04-08T17:37:28.999Z</time></trkpt><trkpt lat="46.17242511576665" lon="13.206006155096523"><ele>175.0</ele><time>2026-04-08T17:37:29.999Z</time></trkpt><trkpt lat="46.17221772533649" lon="13.206048082794878"><ele>175.0</ele><time>2026-04-08T17:37:30.999Z</time></trkpt><trkpt lat="46.17201177074321" lon="13.206089722962442"><ele>175.0</ele><time>2026-04-08T17:37:31.999Z</time></trkpt><trkpt lat="46.171803299427324" lon="13.206137098547535"><ele>175.0</ele><time>2026-04-08T17:37:32.999Z</time></trkpt><trkpt lat="46.171589955217655" lon="13.206182933309403"><ele>174.66666666666669</ele><time>2026-04-08T17:37:33.999Z</time></trkpt><trkpt lat="46.17137464144716" lon="13.20622671512848"><ele>174.33333333333334</ele><time>2026-04-08T17:37:34.999Z</time></trkpt><trkpt lat="46.1711608020031" lon="13.20627142551181"><ele>174.0</ele><time>2026-04-08T17:37:35.999Z</time></trkpt><trkpt lat="46.1709502659084" lon="13.206314860746838"><ele>174.0</ele><time>2026-04-08T17:37:36.999Z</time></trkpt><trkpt lat="46.17074063339347" lon="13.206358259558035"><ele>174.0</ele><time>2026-04-08T17:37:37.999Z</time></trkpt><trkpt lat="46.17053234255508" lon="13.206402554877238"><ele>174.0</ele><time>2026-04-08T17:37:38.999Z</time></trkpt><trkpt lat="46.17032057262624" lon="13.206444985138257"><ele>173.66666666666666</ele><time>2026-04-08T17:37:39.999Z</time></trkpt><trkpt lat="46.17010382205139" lon="13.206489606723586"><ele>173.33333333333331</ele><time>2026-04-08T17:37:40.999Z</time></trkpt><trkpt lat="46.169888760106744" lon="13.20653220079699"><ele>173.0</ele><time>2026-04-08T17:37:41.999Z</time></trkpt><trkpt lat="46.1696775240434" lon="13.206574881844258"><ele>173.66666666666666</ele><time>2026-04-08T17:37:42.999Z</time></trkpt><trkpt lat="46.169468275480114" lon="13.206617822692564"><ele>174.33333333333334</ele><time>2026-04-08T17:37:43.999Z</time></trkpt><trkpt lat="46.169261195794306" lon="13.2066593794508"><ele>175.0</ele><time>2026-04-08T17:37:44.999Z</time></trkpt><trkpt lat="46.16905472057758" lon="13.206708553729642"><ele>175.33333333333334</ele><time>2026-04-08T17:37:45.999Z</time></trkpt><trkpt lat="46.16884909884078" lon="13.206772799489162"><ele>175.66666666666666</ele><time>2026-04-08T17:37:46.999Z</time></trkpt><trkpt lat="46.168643062551084" lon="13.206851831146066"><ele>176.0</ele><time>2026-04-08T17:37:47.999Z</time></trkpt><trkpt lat="46.16844364860676" lon="13.206947506123216"><ele>176.0</ele><time>2026-04-08T17:37:48.999Z</time></trkpt><trkpt lat="46.1682508008253" lon="13.207059645515038"><ele>176.0</ele><time>2026-04-08T17:37:49.999Z</time></trkpt><trkpt lat="46.16806608313471" lon="13.207185329602497"><ele>176.0</ele><time>2026-04-08T17:37:50.999Z</time></trkpt><trkpt lat="46.167889193457285" lon="13.207322522479222"><ele>174.66666666666666</ele><time>2026-04-08T17:37:51.999Z</time></trkpt><trkpt lat="46.16771801917823" lon="13.207466173274579"><ele>173.33333333333334</ele><time>2026-04-08T17:37:52.999Z</time></trkpt><trkpt lat="46.16754545832388" lon="13.20759923411534"><ele>172.0</ele><time>2026-04-08T17:37:53.999Z</time></trkpt><trkpt lat="46.16736773702303" lon="13.207717182854893"><ele>171.66666666666669</ele><time>2026-04-08T17:37:54.999Z</time></trkpt><trkpt lat="46.167189909693654" lon="13.207852237219194"><ele>171.33333333333334</ele><time>2026-04-08T17:37:55.999Z</time></trkpt><trkpt lat="46.16701114088028" lon="13.207991713724072"><ele>171.0</ele><time>2026-04-08T17:37:56.999Z</time></trkpt><trkpt lat="46.166830155075495" lon="13.208123702261124"><ele>170.66666666666666</ele><time>2026-04-08T17:37:57.999Z</time></trkpt><trkpt lat="46.16665401478388" lon="13.208254428236069"><ele>170.33333333333331</ele><time>2026-04-08T17:37:58.999Z</time></trkpt><trkpt lat="46.166486272288466" lon="13.208388106674079"><ele>170.0</ele><time>2026-04-08T17:37:59.999Z</time></trkpt><trkpt lat="46.166323821002244" lon="13.20852061317653"><ele>171.0</ele><time>2026-04-08T17:38:00.999Z</time></trkpt><trkpt lat="46.16615989634564" lon="13.208660380497905"><ele>172.0</ele><time>2026-04-08T17:38:01.999Z</time></trkpt><trkpt lat="46.165992871551126" lon="13.208805930157148"><ele>173.0</ele><time>2026-04-08T17:38:02.999Z</time></trkpt><trkpt lat="46.16582435404073" lon="13.208942032324371"><ele>174.33333333333331</ele><time>2026-04-08T17:38:03.999Z</time></trkpt><trkpt lat="46.16565293551115" lon="13.209075578038064"><ele>175.66666666666666</ele><time>2026-04-08T17:38:04.999Z</time></trkpt><trkpt lat="46.1654769731759" lon="13.209215430295401"><ele>177.0</ele><time>2026-04-08T17:38:05.999Z</time></trkpt><trkpt lat="46.16529837398638" lon="13.209350510071374"><ele>177.0</ele><time>2026-04-08T17:38:06.999Z</time></trkpt><trkpt lat="46.16511693629357" lon="13.20948311367824"><ele>177.0</ele><time>2026-04-08T17:38:07.999Z</time></trkpt><trkpt lat="46.16493759313585" lon="13.209618689312261"><ele>177.0</ele><time>2026-04-08T17:38:08.999Z</time></trkpt><trkpt lat="46.16476208389506" lon="13.209752928803267"><ele>179.66666666666666</ele><time>2026-04-08T17:38:09.999Z</time></trkpt><trkpt lat="46.164596286626015" lon="13.209875503216217"><ele>182.33333333333331</ele><time>2026-04-08T17:38:10.999Z</time></trkpt><trkpt lat="46.16443901555195" lon="13.209981685071423"><ele>185.0</ele><time>2026-04-08T17:38:11.999Z</time></trkpt><trkpt lat="46.16427798460381" lon="13.210074999296848"><ele>185.0</ele><time>2026-04-08T17:38:12.999Z</time></trkpt><trkpt lat="46.164108535615036" lon="13.21015686042031"><ele>185.0</ele><time>2026-04-08T17:38:13.999Z</time></trkpt><trkpt lat="46.16394596239198" lon="13.210221977221046"><ele>185.0</ele><time>2026-04-08T17:38:14.999Z</time></trkpt><trkpt lat="46.16379892439003" lon="13.210273058610841"><ele>185.5</ele><time>2026-04-08T17:38:16Z</time></trkpt><trkpt lat="46.16366240117661" lon="13.210319968312762"><ele>186.0</ele><time>2026-04-08T17:38:17Z</time></trkpt><trkpt lat="46.16353999962556" lon="13.21035651109847"><ele>186.5</ele><time>2026-04-08T17:38:18Z</time></trkpt><trkpt lat="46.16342891024515" lon="13.21038945117407"><ele>187.0</ele><time>2026-04-08T17:38:19Z</time></trkpt><trkpt lat="46.16332701906599" lon="13.210424182449273"><ele>187.0</ele><time>2026-04-08T17:38:20Z</time></trkpt><trkpt lat="46.16322280044785" lon="13.210458817017248"><ele>187.0</ele><time>2026-04-08T17:38:21Z</time></trkpt><trkpt lat="46.16311993040268" lon="13.210488528122507"><ele>187.0</ele><time>2026-04-08T17:38:22Z</time></trkpt><trkpt lat="46.163021456750364" lon="13.210518178584456"><ele>187.0</ele><time>2026-04-08T17:38:23Z</time></trkpt><trkpt lat="46.162936785520806" lon="13.210547284565822"><ele>187.0</ele><time>2026-04-08T17:38:24Z</time></trkpt><trkpt lat="46.16286393360454" lon="13.210574034223173"><ele>187.16666666666669</ele><time>2026-04-08T17:38:25Z</time></trkpt><trkpt lat="46.16278847802104" lon="13.21060695613817"><ele>187.33333333333334</ele><time>2026-04-08T17:38:26Z</time></trkpt><trkpt lat="46.16271878257802" lon="13.210631013941388"><ele>187.5</ele><time>2026-04-08T17:38:27Z</time></trkpt><trkpt lat="46.162615708200356" lon="13.210658966518109"><ele>187.66666666666666</ele><time>2026-04-08T17:38:29Z</time></trkpt><trkpt lat="46.16252685741853" lon="13.21068893740246"><ele>187.83333333333331</ele><time>2026-04-08T17:38:31Z</time></trkpt><trkpt lat="46.162452382033976" lon="13.210712862466345"><ele>188.0</ele><time>2026-04-08T17:38:34Z</time></trkpt><trkpt lat="46.16234718358703" lon="13.210745158161737"><ele>189.0</ele><time>2026-04-08T17:38:36Z</time></trkpt><trkpt lat="46.16225589591682" lon="13.210765903888811"><ele>190.0</ele><time>2026-04-08T17:38:37Z</time></trkpt><trkpt lat="46.16213747387342" lon="13.210789138027762"><ele>191.0</ele><time>2026-04-08T17:38:38Z</time></trkpt><trkpt lat="46.16201387672127" lon="13.210801321713019"><ele>192.0</ele><time>2026-04-08T17:38:39Z</time></trkpt><trkpt lat="46.16190704749884" lon="13.210811662804131"><ele>193.0</ele><time>2026-04-08T17:38:40Z</time></trkpt><trkpt lat="46.16180976555992" lon="13.210819374138275"><ele>193.0</ele><time>2026-04-08T17:38:41Z</time></trkpt><trkpt lat="46.16171533561835" lon="13.210814582636615"><ele>193.0</ele><time>2026-04-08T17:38:42Z</time></trkpt><trkpt lat="46.16161775284606" lon="13.210782870511656"><ele>193.0</ele><time>2026-04-08T17:38:43Z</time></trkpt><trkpt lat="46.16150776703276" lon="13.210742343704728"><ele>193.0</ele><time>2026-04-08T17:38:44Z</time></trkpt><trkpt lat="46.1613818456404" lon="13.210699309399537"><ele>193.0</ele><time>2026-04-08T17:38:45Z</time></trkpt><trkpt lat="46.16124730222841" lon="13.210649802278478"><ele>192.5</ele><time>2026-04-08T17:38:46Z</time></trkpt><trkpt lat="46.161116668341364" lon="13.210608476656924"><ele>192.0</ele><time>2026-04-08T17:38:47Z</time></trkpt><trkpt lat="46.16098621869598" lon="13.210575549173404"><ele>191.5</ele><time>2026-04-08T17:38:48Z</time></trkpt><trkpt lat="46.160858669982645" lon="13.210556687751172"><ele>191.0</ele><time>2026-04-08T17:38:49Z</time></trkpt><trkpt lat="46.16073588469843" lon="13.21056116187971"><ele>191.25</ele><time>2026-04-08T17:38:50Z</time></trkpt><trkpt lat="46.160619349871375" lon="13.210578557972834"><ele>191.5</ele><time>2026-04-08T17:38:51Z</time></trkpt><trkpt lat="46.16050742573069" lon="13.21061165076525"><ele>191.75</ele><time>2026-04-08T17:38:52Z</time></trkpt><trkpt lat="46.16039308492469" lon="13.210659357615432"><ele>192.0</ele><time>2026-04-08T17:38:53Z</time></trkpt><trkpt lat="46.16028310436675" lon="13.210721344186682"><ele>192.0</ele><time>2026-04-08T17:38:54Z</time></trkpt><trkpt lat="46.16017752383269" lon="13.21079297473743"><ele>192.0</ele><time>2026-04-08T17:38:55Z</time></trkpt><trkpt lat="46.16007166331107" lon="13.210878145463548"><ele>192.0</ele><time>2026-04-08T17:38:56Z</time></trkpt><trkpt lat="46.15996295047026" lon="13.2109853057941"><ele>192.0</ele><time>2026-04-08T17:38:57Z</time></trkpt><trkpt lat="46.159857925460386" lon="13.211116781369679"><ele>193.0</ele><time>2026-04-08T17:38:58Z</time></trkpt><trkpt lat="46.15976270064655" lon="13.2112587653081"><ele>194.0</ele><time>2026-04-08T17:38:59Z</time></trkpt><trkpt lat="46.159679181794445" lon="13.211415341338668"><ele>195.0</ele><time>2026-04-08T17:38:59.999Z</time></trkpt><trkpt lat="46.159603066932924" lon="13.211587020611642"><ele>196.0</ele><time>2026-04-08T17:39:00.999Z</time></trkpt><trkpt lat="46.15952877690474" lon="13.211774804503493"><ele>196.0</ele><time>2026-04-08T17:39:01.999Z</time></trkpt><trkpt lat="46.15946385534588" lon="13.211954799387282"><ele>196.0</ele><time>2026-04-08T17:39:02.999Z</time></trkpt><trkpt lat="46.15941309854598" lon="13.212120415285522"><ele>196.0</ele><time>2026-04-08T17:39:03.999Z</time></trkpt><trkpt lat="46.15936358395557" lon="13.212298976213189"><ele>196.0</ele><time>2026-04-08T17:39:04.999Z</time></trkpt><trkpt lat="46.159320145875895" lon="13.212489343151756"><ele>196.0</ele><time>2026-04-08T17:39:05.999Z</time></trkpt><trkpt lat="46.159285882922504" lon="13.212677060136867"><ele>196.0</ele><time>2026-04-08T17:39:06.999Z</time></trkpt><trkpt lat="46.1592616218176" lon="13.212863897590077"><ele>196.0</ele><time>2026-04-08T17:39:07.999Z</time></trkpt><trkpt lat="46.15923708796613" lon="13.213047551987238"><ele>196.0</ele><time>2026-04-08T17:39:08.999Z</time></trkpt><trkpt lat="46.159211914264645" lon="13.213236891976134"><ele>195.25</ele><time>2026-04-08T17:39:09.999Z</time></trkpt><trkpt lat="46.1591864337755" lon="13.213430699811981"><ele>194.5</ele><time>2026-04-08T17:39:10.999Z</time></trkpt><trkpt lat="46.1591604529491" lon="13.213620094184344"><ele>193.75</ele><time>2026-04-08T17:39:11.999Z</time></trkpt><trkpt lat="46.15913591546143" lon="13.213805647001212"><ele>193.0</ele><time>2026-04-08T17:39:12.999Z</time></trkpt><trkpt lat="46.15911214351601" lon="13.213983104369998"><ele>193.0</ele><time>2026-04-08T17:39:13.999Z</time></trkpt><trkpt lat="46.15908777559313" lon="13.214142693635962"><ele>193.0</ele><time>2026-04-08T17:39:14.999Z</time></trkpt><trkpt lat="46.15906679662775" lon="13.214282034413406"><ele>193.0</ele><time>2026-04-08T17:39:15.999Z</time></trkpt><trkpt lat="46.15904585550826" lon="13.214424760551184"><ele>193.0</ele><time>2026-04-08T17:39:16.999Z</time></trkpt><trkpt lat="46.159025796890376" lon="13.21455497134602"><ele>193.0</ele><time>2026-04-08T17:39:17.999Z</time></trkpt><trkpt lat="46.159003364368395" lon="13.214670707932832"><ele>192.83333333333331</ele><time>2026-04-08T17:39:18.999Z</time></trkpt><trkpt lat="46.158974699630754" lon="13.214778101156908"><ele>192.66666666666666</ele><time>2026-04-08T17:39:19.999Z</time></trkpt><trkpt lat="46.158936555847625" lon="13.214872803201501"><ele>192.5</ele><time>2026-04-08T17:39:20.999Z</time></trkpt><trkpt lat="46.15889572888804" lon="13.214945665428154"><ele>192.33333333333331</ele><time>2026-04-08T17:39:21.999Z</time></trkpt><trkpt lat="46.15882887496538" lon="13.215053879953278"><ele>192.16666666666666</ele><time>2026-04-08T17:39:23.999Z</time></trkpt><trkpt lat="46.158796627108266" lon="13.215228846407904"><ele>192.0</ele><time>2026-04-08T17:39:25.999Z</time></trkpt><trkpt lat="46.158777583484465" lon="13.215343002084591"><ele>192.0</ele><time>2026-04-08T17:39:26.999Z</time></trkpt><trkpt lat="46.15874246700028" lon="13.215469383720743"><ele>192.0</ele><time>2026-04-08T17:39:27.999Z</time></trkpt><trkpt lat="46.15869842041234" lon="13.215591770873402"><ele>192.0</ele><time>2026-04-08T17:39:28.999Z</time></trkpt><trkpt lat="46.15864900156497" lon="13.215696437241373"><ele>192.0</ele><time>2026-04-08T17:39:29.999Z</time></trkpt><trkpt lat="46.15860187735115" lon="13.215793855221092"><ele>192.0</ele><time>2026-04-08T17:39:30.999Z</time></trkpt><trkpt lat="46.15855809880655" lon="13.215886616091293"><ele>192.0</ele><time>2026-04-08T17:39:31.999Z</time></trkpt><trkpt lat="46.15851822560039" lon="13.21597235520109"><ele>191.83333333333334</ele><time>2026-04-08T17:39:32.999Z</time></trkpt><trkpt lat="46.15848260329046" lon="13.216051496624937"><ele>191.66666666666666</ele><time>2026-04-08T17:39:33.999Z</time></trkpt><trkpt lat="46.15844991273957" lon="13.21613090949667"><ele>191.5</ele><time>2026-04-08T17:39:34.999Z</time></trkpt><trkpt lat="46.158390215327856" lon="13.216273350130265"><ele>191.33333333333331</ele><time>2026-04-08T17:39:36.999Z</time></trkpt><trkpt lat="46.1583040860023" lon="13.216388324156961"><ele>191.16666666666666</ele><time>2026-04-08T17:39:38.999Z</time></trkpt><trkpt lat="46.158251663999245" lon="13.21644357244978"><ele>191.0</ele><time>2026-04-08T17:39:39.999Z</time></trkpt><trkpt lat="46.15820888955391" lon="13.216518156681737"><ele>190.16666666666666</ele><time>2026-04-08T17:39:40.999Z</time></trkpt><trkpt lat="46.1581818699189" lon="13.216609663964531"><ele>189.33333333333331</ele><time>2026-04-08T17:39:41.999Z</time></trkpt><trkpt lat="46.15817751212488" lon="13.216707769253903"><ele>188.5</ele><time>2026-04-08T17:39:42.999Z</time></trkpt><trkpt lat="46.15816247167908" lon="13.216816773052244"><ele>187.66666666666666</ele><time>2026-04-08T17:39:43.999Z</time></trkpt><trkpt lat="46.158120999251246" lon="13.216920915056827"><ele>186.83333333333334</ele><time>2026-04-08T17:39:44.999Z</time></trkpt><trkpt lat="46.15805323417152" lon="13.21704173190766"><ele>186.0</ele><time>2026-04-08T17:39:45.999Z</time></trkpt><trkpt lat="46.15796663068318" lon="13.217178148770362"><ele>186.0</ele><time>2026-04-08T17:39:46.999Z</time></trkpt><trkpt lat="46.15788143111672" lon="13.217311015920309"><ele>186.0</ele><time>2026-04-08T17:39:47.999Z</time></trkpt><trkpt lat="46.15778957424186" lon="13.217440051172192"><ele>186.0</ele><time>2026-04-08T17:39:48.999Z</time></trkpt><trkpt lat="46.15768603683585" lon="13.217569146790547"><ele>186.0</ele><time>2026-04-08T17:39:49.999Z</time></trkpt><trkpt lat="46.15757532399906" lon="13.217692277465254"><ele>186.0</ele><time>2026-04-08T17:39:50.999Z</time></trkpt><trkpt lat="46.157460194425234" lon="13.217816876151506"><ele>186.0</ele><time>2026-04-08T17:39:51.999Z</time></trkpt><trkpt lat="46.15733588478203" lon="13.217931387623794"><ele>186.0</ele><time>2026-04-08T17:39:52.999Z</time></trkpt><trkpt lat="46.15719658458751" lon="13.218040350847472"><ele>186.0</ele><time>2026-04-08T17:39:53.999Z</time></trkpt><trkpt lat="46.157053410180396" lon="13.218140981691118"><ele>186.0</ele><time>2026-04-08T17:39:54.999Z</time></trkpt><trkpt lat="46.156910899622595" lon="13.21822172686246"><ele>186.0</ele><time>2026-04-08T17:39:55.999Z</time></trkpt><trkpt lat="46.15677203874531" lon="13.218283841033026"><ele>185.33333333333334</ele><time>2026-04-08T17:39:56.999Z</time></trkpt><trkpt lat="46.15662888498404" lon="13.218337508947622"><ele>184.66666666666669</ele><time>2026-04-08T17:39:57.999Z</time></trkpt><trkpt lat="46.156467743372744" lon="13.218392837171391"><ele>184.0</ele><time>2026-04-08T17:39:58.999Z</time></trkpt><trkpt lat="46.15628660017338" lon="13.21844629301657"><ele>183.66666666666669</ele><time>2026-04-08T17:39:59.999Z</time></trkpt><trkpt lat="46.15608418845238" lon="13.218493883236459"><ele>183.33333333333334</ele><time>2026-04-08T17:40:00.999Z</time></trkpt><trkpt lat="46.15587021353895" lon="13.218539845965854"><ele>183.0</ele><time>2026-04-08T17:40:01.999Z</time></trkpt><trkpt lat="46.155652548227394" lon="13.218587635108367"><ele>182.66666666666666</ele><time>2026-04-08T17:40:02.999Z</time></trkpt><trkpt lat="46.15543967163751" lon="13.218627154459893"><ele>182.33333333333331</ele><time>2026-04-08T17:40:03.999Z</time></trkpt><trkpt lat="46.1552189303192" lon="13.218672400155981"><ele>182.0</ele><time>2026-04-08T17:40:04.999Z</time></trkpt><trkpt lat="46.15498671935965" lon="13.218718206730669"><ele>180.5</ele><time>2026-04-08T17:40:05.999Z</time></trkpt><trkpt lat="46.1547468070949" lon="13.218762241373883"><ele>179.0</ele><time>2026-04-08T17:40:06.999Z</time></trkpt><trkpt lat="46.15450471405288" lon="13.218805650042292"><ele>179.0</ele><time>2026-04-08T17:40:07.999Z</time></trkpt><trkpt lat="46.1542692328378" lon="13.218849069990275"><ele>179.0</ele><time>2026-04-08T17:40:08.999Z</time></trkpt><trkpt lat="46.154041037436464" lon="13.21889205818765"><ele>179.0</ele><time>2026-04-08T17:40:09.999Z</time></trkpt><trkpt lat="46.15381919062366" lon="13.218937290935814"><ele>179.0</ele><time>2026-04-08T17:40:10.999Z</time></trkpt><trkpt lat="46.15360442765585" lon="13.218979513855526"><ele>179.0</ele><time>2026-04-08T17:40:11.999Z</time></trkpt><trkpt lat="46.1533977305643" lon="13.219019200243865"><ele>178.33333333333331</ele><time>2026-04-08T17:40:12.999Z</time></trkpt><trkpt lat="46.15319504563259" lon="13.219058350794478"><ele>177.66666666666666</ele><time>2026-04-08T17:40:13.999Z</time></trkpt><trkpt lat="46.15299253435463" lon="13.21909661863119"><ele>177.0</ele><time>2026-04-08T17:40:14.999Z</time></trkpt><trkpt lat="46.15279261894206" lon="13.219136121079556"><ele>177.0</ele><time>2026-04-08T17:40:15.999Z</time></trkpt><trkpt lat="46.152597531468345" lon="13.219176164248049"><ele>177.0</ele><time>2026-04-08T17:40:16.999Z</time></trkpt><trkpt lat="46.15240873120114" lon="13.219217712540884"><ele>177.0</ele><time>2026-04-08T17:40:17.999Z</time></trkpt><trkpt lat="46.152221921968156" lon="13.219257801643156"><ele>177.0</ele><time>2026-04-08T17:40:18.999Z</time></trkpt><trkpt lat="46.152031668663426" lon="13.21929761733249"><ele>177.0</ele><time>2026-04-08T17:40:19.999Z</time></trkpt><trkpt lat="46.1518384838843" lon="13.219337779727987"><ele>177.0</ele><time>2026-04-08T17:40:20.999Z</time></trkpt><trkpt lat="46.15164652678306" lon="13.219375043417797"><ele>176.66666666666666</ele><time>2026-04-08T17:40:22Z</time></trkpt><trkpt lat="46.15145853152271" lon="13.219416591976106"><ele>176.33333333333331</ele><time>2026-04-08T17:40:23Z</time></trkpt><trkpt lat="46.15127130860413" lon="13.219459753974576"><ele>176.0</ele><time>2026-04-08T17:40:24Z</time></trkpt><trkpt lat="46.15108455071443" lon="13.219501527385187"><ele>176.0</ele><time>2026-04-08T17:40:25Z</time></trkpt><trkpt lat="46.15089635911229" lon="13.219541394449429"><ele>176.0</ele><time>2026-04-08T17:40:26Z</time></trkpt><trkpt lat="46.150705933547" lon="13.219577838501097"><ele>176.0</ele><time>2026-04-08T17:40:27Z</time></trkpt><trkpt lat="46.150512653206114" lon="13.2196183622532"><ele>175.66666666666666</ele><time>2026-04-08T17:40:28Z</time></trkpt><trkpt lat="46.15031780676755" lon="13.219660138353294"><ele>175.33333333333334</ele><time>2026-04-08T17:40:29Z</time></trkpt><trkpt lat="46.15011984347452" lon="13.219698760181657"><ele>175.0</ele><time>2026-04-08T17:40:30Z</time></trkpt><trkpt lat="46.14991651042858" lon="13.219739811922063"><ele>174.66666666666669</ele><time>2026-04-08T17:40:31Z</time></trkpt><trkpt lat="46.149710048370565" lon="13.219785425023536"><ele>174.33333333333334</ele><time>2026-04-08T17:40:32Z</time></trkpt><trkpt lat="46.14950084845282" lon="13.219828586120679"><ele>174.0</ele><time>2026-04-08T17:40:33Z</time></trkpt><trkpt lat="46.14928951624393" lon="13.219873295075288"><ele>173.66666666666666</ele><time>2026-04-08T17:40:34Z</time></trkpt><trkpt lat="46.149077722703986" lon="13.219918745225435"><ele>173.33333333333331</ele><time>2026-04-08T17:40:35Z</time></trkpt><trkpt lat="46.14886400757517" lon="13.219968715593561"><ele>173.0</ele><time>2026-04-08T17:40:36Z</time></trkpt><trkpt lat="46.148649464736" lon="13.220018683227451"><ele>173.0</ele><time>2026-04-08T17:40:37Z</time></trkpt><trkpt lat="46.148434000471674" lon="13.220065046126486"><ele>173.0</ele><time>2026-04-08T17:40:38Z</time></trkpt><trkpt lat="46.148220687072374" lon="13.220109856709781"><ele>173.0</ele><time>2026-04-08T17:40:39Z</time></trkpt><trkpt lat="46.14800690750113" lon="13.220153368455001"><ele>172.0</ele><time>2026-04-08T17:40:40Z</time></trkpt><trkpt lat="46.1477952948612" lon="13.220198826680734"><ele>171.0</ele><time>2026-04-08T17:40:41Z</time></trkpt><trkpt lat="46.14758415544574" lon="13.220243539532744"><ele>170.0</ele><time>2026-04-08T17:40:42Z</time></trkpt><trkpt lat="46.14737462626361" lon="13.220287356443345"><ele>169.66666666666666</ele><time>2026-04-08T17:40:43Z</time></trkpt><trkpt lat="46.1471656369972" lon="13.220331163132535"><ele>169.33333333333334</ele><time>2026-04-08T17:40:44Z</time></trkpt><trkpt lat="46.146957019299656" lon="13.220374079561896"><ele>169.0</ele><time>2026-04-08T17:40:45Z</time></trkpt><trkpt lat="46.14674932921825" lon="13.220417021354859"><ele>169.33333333333334</ele><time>2026-04-08T17:40:46Z</time></trkpt><trkpt lat="46.146542074219305" lon="13.220459618148874"><ele>169.66666666666666</ele><time>2026-04-08T17:40:47Z</time></trkpt><trkpt lat="46.1463360655434" lon="13.220502067585608"><ele>170.0</ele><time>2026-04-08T17:40:48Z</time></trkpt><trkpt lat="46.14613466744675" lon="13.220544955032208"><ele>170.0</ele><time>2026-04-08T17:40:49Z</time></trkpt><trkpt lat="46.14594815308072" lon="13.220584764580193"><ele>170.0</ele><time>2026-04-08T17:40:50Z</time></trkpt><trkpt lat="46.14577399048099" lon="13.220621405397639"><ele>170.0</ele><time>2026-04-08T17:40:51Z</time></trkpt><trkpt lat="46.145611610417944" lon="13.220653885891133"><ele>169.66666666666666</ele><time>2026-04-08T17:40:52Z</time></trkpt><trkpt lat="46.145450371243136" lon="13.220688251424173"><ele>169.33333333333334</ele><time>2026-04-08T17:40:53Z</time></trkpt><trkpt lat="46.14529401424204" lon="13.220720268556304"><ele>169.0</ele><time>2026-04-08T17:40:54Z</time></trkpt><trkpt lat="46.14515255048179" lon="13.220748919181442"><ele>169.0</ele><time>2026-04-08T17:40:55Z</time></trkpt><trkpt lat="46.145016781541074" lon="13.22077565726801"><ele>169.0</ele><time>2026-04-08T17:40:56Z</time></trkpt><trkpt lat="46.14488688940819" lon="13.220788757035272"><ele>169.0</ele><time>2026-04-08T17:40:57Z</time></trkpt><trkpt lat="46.14477091796951" lon="13.22078354804821"><ele>169.0</ele><time>2026-04-08T17:40:58Z</time></trkpt><trkpt lat="46.14465339486382" lon="13.220749747189922"><ele>169.5</ele><time>2026-04-08T17:40:59Z</time></trkpt><trkpt lat="46.1445360961967" lon="13.220704993397316"><ele>170.0</ele><time>2026-04-08T17:41:00Z</time></trkpt><trkpt lat="46.14442860257795" lon="13.220697286312095"><ele>170.5</ele><time>2026-04-08T17:41:01Z</time></trkpt><trkpt lat="46.14432012496658" lon="13.220740854641418"><ele>171.0</ele><time>2026-04-08T17:41:02Z</time></trkpt><trkpt lat="46.14419597028479" lon="13.220833076737385"><ele>171.0</ele><time>2026-04-08T17:41:02.999Z</time></trkpt><trkpt lat="46.14404995312632" lon="13.220929465595274"><ele>171.0</ele><time>2026-04-08T17:41:03.999Z</time></trkpt><trkpt lat="46.143891336233985" lon="13.220988620388058"><ele>171.0</ele><time>2026-04-08T17:41:04.999Z</time></trkpt><trkpt lat="46.143735530273545" lon="13.221032419386445"><ele>172.0</ele><time>2026-04-08T17:41:05.999Z</time></trkpt><trkpt lat="46.14358232418016" lon="13.221065828305324"><ele>173.0</ele><time>2026-04-08T17:41:06.999Z</time></trkpt><trkpt lat="46.143431862677254" lon="13.221101402466319"><ele>174.0</ele><time>2026-04-08T17:41:07.999Z</time></trkpt><trkpt lat="46.14327856408333" lon="13.221138354471082"><ele>170.66666666666666</ele><time>2026-04-08T17:41:08.999Z</time></trkpt><trkpt lat="46.14311562415462" lon="13.221172612770598"><ele>167.33333333333331</ele><time>2026-04-08T17:41:09.999Z</time></trkpt><trkpt lat="46.14294598230994" lon="13.221208588623291"><ele>164.0</ele><time>2026-04-08T17:41:10.999Z</time></trkpt><trkpt lat="46.14278063142285" lon="13.221245092540121"><ele>164.0</ele><time>2026-04-08T17:41:11.999Z</time></trkpt><trkpt lat="46.14263416431129" lon="13.221277556816643"><ele>164.0</ele><time>2026-04-08T17:41:12.999Z</time></trkpt><trkpt lat="46.14248914387845" lon="13.221306519419713"><ele>164.0</ele><time>2026-04-08T17:41:13.999Z</time></trkpt><trkpt lat="46.14235342700943" lon="13.221332353888874"><ele>164.0</ele><time>2026-04-08T17:41:14.999Z</time></trkpt><trkpt lat="46.1422159970749" lon="13.221361553377152"><ele>163.75</ele><time>2026-04-08T17:41:15.999Z</time></trkpt><trkpt lat="46.14207168965006" lon="13.221393905715217"><ele>163.5</ele><time>2026-04-08T17:41:16.999Z</time></trkpt><trkpt lat="46.14194474965956" lon="13.221421352838066"><ele>163.25</ele><time>2026-04-08T17:41:17.999Z</time></trkpt><trkpt lat="46.14181109401328" lon="13.221448519339772"><ele>163.0</ele><time>2026-04-08T17:41:18.999Z</time></trkpt><trkpt lat="46.14167576546646" lon="13.22147521811789"><ele>163.25</ele><time>2026-04-08T17:41:19.999Z</time></trkpt><trkpt lat="46.14154444137303" lon="13.221503335439479"><ele>163.5</ele><time>2026-04-08T17:41:20.999Z</time></trkpt><trkpt lat="46.14142666727299" lon="13.221527890349808"><ele>163.75</ele><time>2026-04-08T17:41:21.999Z</time></trkpt><trkpt lat="46.141310953875866" lon="13.221546511369262"><ele>164.0</ele><time>2026-04-08T17:41:22.999Z</time></trkpt><trkpt lat="46.14119067407387" lon="13.221560868149338"><ele>164.0</ele><time>2026-04-08T17:41:23.999Z</time></trkpt><trkpt lat="46.141067285269614" lon="13.221575447792382"><ele>164.0</ele><time>2026-04-08T17:41:24.999Z</time></trkpt><trkpt lat="46.1409439030361" lon="13.221600078102766"><ele>164.0</ele><time>2026-04-08T17:41:25.999Z</time></trkpt><trkpt lat="46.14080759653428" lon="13.221639050519808"><ele>164.0</ele><time>2026-04-08T17:41:26.999Z</time></trkpt><trkpt lat="46.14065888689568" lon="13.221682188038429"><ele>163.0</ele><time>2026-04-08T17:41:27.999Z</time></trkpt><trkpt lat="46.140496521273406" lon="13.221721459965927"><ele>162.0</ele><time>2026-04-08T17:41:28.999Z</time></trkpt><trkpt lat="46.14032240021743" lon="13.221762671304525"><ele>161.0</ele><time>2026-04-08T17:41:29.999Z</time></trkpt><trkpt lat="46.14012809761782" lon="13.221806333208674"><ele>161.0</ele><time>2026-04-08T17:41:30.999Z</time></trkpt><trkpt lat="46.13991233652183" lon="13.221849961813946"><ele>161.0</ele><time>2026-04-08T17:41:31.999Z</time></trkpt><trkpt lat="46.13968198863205" lon="13.221892861322992"><ele>161.5</ele><time>2026-04-08T17:41:32.999Z</time></trkpt><trkpt lat="46.1394303153621" lon="13.221938440808378"><ele>162.0</ele><time>2026-04-08T17:41:33.999Z</time></trkpt><trkpt lat="46.1391837721521" lon="13.221986770413293"><ele>160.33333333333334</ele><time>2026-04-08T17:41:34.999Z</time></trkpt><trkpt lat="46.138954831207926" lon="13.222036897802964"><ele>158.66666666666669</ele><time>2026-04-08T17:41:35.999Z</time></trkpt><trkpt lat="46.13875868741563" lon="13.222080433037759"><ele>157.0</ele><time>2026-04-08T17:41:36.999Z</time></trkpt><trkpt lat="46.1385745786241" lon="13.222119267659885"><ele>157.0</ele><time>2026-04-08T17:41:37.999Z</time></trkpt><trkpt lat="46.13839634267708" lon="13.222155018936775"><ele>157.0</ele><time>2026-04-08T17:41:38.999Z</time></trkpt><trkpt lat="46.13822502335627" lon="13.222186767020231"><ele>157.0</ele><time>2026-04-08T17:41:39.999Z</time></trkpt><trkpt lat="46.138063734730046" lon="13.222214098165827"><ele>157.5</ele><time>2026-04-08T17:41:40.999Z</time></trkpt><trkpt lat="46.13791844272532" lon="13.222237614486403"><ele>158.0</ele><time>2026-04-08T17:41:41.999Z</time></trkpt><trkpt lat="46.137782765757564" lon="13.222252934385986"><ele>158.5</ele><time>2026-04-08T17:41:42.999Z</time></trkpt><trkpt lat="46.137650197559566" lon="13.222260840379919"><ele>159.0</ele><time>2026-04-08T17:41:43.999Z</time></trkpt><trkpt lat="46.137524896906775" lon="13.222254221052069"><ele>159.0</ele><time>2026-04-08T17:41:44.999Z</time></trkpt><trkpt lat="46.13740226618626" lon="13.222236961842345"><ele>159.0</ele><time>2026-04-08T17:41:45.999Z</time></trkpt><trkpt lat="46.137279993810296" lon="13.22222746091413"><ele>159.0</ele><time>2026-04-08T17:41:46.999Z</time></trkpt><trkpt lat="46.1371566520327" lon="13.222267377625416"><ele>159.0</ele><time>2026-04-08T17:41:47.999Z</time></trkpt><trkpt lat="46.1370393035954" lon="13.222344139366854"><ele>159.25</ele><time>2026-04-08T17:41:48.999Z</time></trkpt><trkpt lat="46.13692207341515" lon="13.222409688477551"><ele>159.5</ele><time>2026-04-08T17:41:49.999Z</time></trkpt><trkpt lat="46.13679417623608" lon="13.222451754123739"><ele>159.75</ele><time>2026-04-08T17:41:50.999Z</time></trkpt><trkpt lat="46.136658389188945" lon="13.222507368718174"><ele>160.0</ele><time>2026-04-08T17:41:51.999Z</time></trkpt><trkpt lat="46.13651609656904" lon="13.22254392789249"><ele>160.25</ele><time>2026-04-08T17:41:52.999Z</time></trkpt><trkpt lat="46.13637299373701" lon="13.222575395570702"><ele>160.5</ele><time>2026-04-08T17:41:53.999Z</time></trkpt><trkpt lat="46.1362296149294" lon="13.222605397928707"><ele>160.75</ele><time>2026-04-08T17:41:54.999Z</time></trkpt><trkpt lat="46.136081849631225" lon="13.222634413026896"><ele>161.0</ele><time>2026-04-08T17:41:55.999Z</time></trkpt><trkpt lat="46.13592681578388" lon="13.22266987199717"><ele>161.0</ele><time>2026-04-08T17:41:56.999Z</time></trkpt><trkpt lat="46.13576525170563" lon="13.222705514932356"><ele>161.0</ele><time>2026-04-08T17:41:57.999Z</time></trkpt><trkpt lat="46.13559788525797" lon="13.222736275989822"><ele>161.0</ele><time>2026-04-08T17:41:58.999Z</time></trkpt><trkpt lat="46.13542297158457" lon="13.222769706068668"><ele>161.0</ele><time>2026-04-08T17:41:59.999Z</time></trkpt><trkpt lat="46.1352406374196" lon="13.222809582213683"><ele>161.0</ele><time>2026-04-08T17:42:00.999Z</time></trkpt><trkpt lat="46.13504059208103" lon="13.222854309802116"><ele>161.0</ele><time>2026-04-08T17:42:01.999Z</time></trkpt><trkpt lat="46.13487296967906" lon="13.222891953434154"><ele>161.0</ele><time>2026-04-08T17:42:02.999Z</time></trkpt><trkpt lat="46.134703800287305" lon="13.222924012012053"><ele>161.0</ele><time>2026-04-08T17:42:03.999Z</time></trkpt><trkpt lat="46.134537168852404" lon="13.222953899095891"><ele>161.0</ele><time>2026-04-08T17:42:04.999Z</time></trkpt><trkpt lat="46.134366894870695" lon="13.222988575401777"><ele>161.0</ele><time>2026-04-08T17:42:05.999Z</time></trkpt><trkpt lat="46.1341921119106" lon="13.223026586535306"><ele>161.0</ele><time>2026-04-08T17:42:06.999Z</time></trkpt><trkpt lat="46.13401101754901" lon="13.223064266480197"><ele>161.0</ele><time>2026-04-08T17:42:07.999Z</time></trkpt><trkpt lat="46.13383704632956" lon="13.223101532703584"><ele>160.0</ele><time>2026-04-08T17:42:08.999Z</time></trkpt><trkpt lat="46.13366567656454" lon="13.22314179317955"><ele>159.0</ele><time>2026-04-08T17:42:09.999Z</time></trkpt><trkpt lat="46.133499692999" lon="13.223175853801015"><ele>158.0</ele><time>2026-04-08T17:42:10.999Z</time></trkpt><trkpt lat="46.13333235762141" lon="13.223209366865579"><ele>157.33333333333331</ele><time>2026-04-08T17:42:11.999Z</time></trkpt><trkpt lat="46.13316484916479" lon="13.22324610713305"><ele>156.66666666666666</ele><time>2026-04-08T17:42:12.999Z</time></trkpt><trkpt lat="46.13299608890734" lon="13.22328362255393"><ele>156.0</ele><time>2026-04-08T17:42:13.999Z</time></trkpt><trkpt lat="46.13282972148871" lon="13.223317968701942"><ele>156.0</ele><time>2026-04-08T17:42:14.999Z</time></trkpt><trkpt lat="46.13266487169735" lon="13.22335374985231"><ele>156.0</ele><time>2026-04-08T17:42:15.999Z</time></trkpt><trkpt lat="46.13250296856087" lon="13.22338705792563"><ele>156.0</ele><time>2026-04-08T17:42:16.999Z</time></trkpt><trkpt lat="46.132343899370554" lon="13.223418459207023"><ele>156.0</ele><time>2026-04-08T17:42:17.999Z</time></trkpt><trkpt lat="46.13218531956648" lon="13.223450834263526"><ele>156.0</ele><time>2026-04-08T17:42:18.999Z</time></trkpt><trkpt lat="46.13202621000166" lon="13.223483890841976"><ele>156.0</ele><time>2026-04-08T17:42:19.999Z</time></trkpt><trkpt lat="46.13186736890052" lon="13.223519419341908"><ele>156.0</ele><time>2026-04-08T17:42:20.999Z</time></trkpt><trkpt lat="46.131707734749625" lon="13.223553098823631"><ele>156.0</ele><time>2026-04-08T17:42:21.999Z</time></trkpt><trkpt lat="46.13154924628549" lon="13.22358592205434"><ele>156.0</ele><time>2026-04-08T17:42:22.999Z</time></trkpt><trkpt lat="46.13139304910483" lon="13.223618286110723"><ele>155.66666666666666</ele><time>2026-04-08T17:42:23.999Z</time></trkpt><trkpt lat="46.131236942771025" lon="13.223649933219713"><ele>155.33333333333331</ele><time>2026-04-08T17:42:24.999Z</time></trkpt><trkpt lat="46.13108069162963" lon="13.223682541401265"><ele>155.0</ele><time>2026-04-08T17:42:25.999Z</time></trkpt><trkpt lat="46.130925768012816" lon="13.223714682292972"><ele>155.0</ele><time>2026-04-08T17:42:26.999Z</time></trkpt><trkpt lat="46.13077252788453" lon="13.223745643135913"><ele>155.0</ele><time>2026-04-08T17:42:28Z</time></trkpt><trkpt lat="46.130622053416886" lon="13.223775766491292"><ele>155.0</ele><time>2026-04-08T17:42:29Z</time></trkpt><trkpt lat="46.13047050269364" lon="13.223807625226538"><ele>155.0</ele><time>2026-04-08T17:42:30Z</time></trkpt><trkpt lat="46.13033326218093" lon="13.223836933546918"><ele>155.0</ele><time>2026-04-08T17:42:31Z</time></trkpt><trkpt lat="46.130206644552985" lon="13.223863392861862"><ele>155.0</ele><time>2026-04-08T17:42:32Z</time></trkpt><trkpt lat="46.13007558514466" lon="13.223887746236015"><ele>155.0</ele><time>2026-04-08T17:42:33Z</time></trkpt><trkpt lat="46.129952564527194" lon="13.22391026395659"><ele>154.16666666666666</ele><time>2026-04-08T17:42:34Z</time></trkpt><trkpt lat="46.129839562328655" lon="13.223929709404521"><ele>153.33333333333331</ele><time>2026-04-08T17:42:35Z</time></trkpt><trkpt lat="46.129737048567826" lon="13.223939474577165"><ele>152.5</ele><time>2026-04-08T17:42:36Z</time></trkpt><trkpt lat="46.12965061724111" lon="13.223942168476984"><ele>151.66666666666666</ele><time>2026-04-08T17:42:37Z</time></trkpt><trkpt lat="46.12958084019124" lon="13.223939754138181"><ele>150.83333333333334</ele><time>2026-04-08T17:42:38Z</time></trkpt><trkpt lat="46.12951492170193" lon="13.223913324658213"><ele>150.0</ele><time>2026-04-08T17:42:39Z</time></trkpt><trkpt lat="46.12945249091893" lon="13.223881336943647"><ele>150.0</ele><time>2026-04-08T17:42:40Z</time></trkpt><trkpt lat="46.129389154394296" lon="13.223855464329741"><ele>150.0</ele><time>2026-04-08T17:42:41Z</time></trkpt><trkpt lat="46.129263852652834" lon="13.223880919187698"><ele>150.0</ele><time>2026-04-08T17:42:43Z</time></trkpt><trkpt lat="46.129197013442386" lon="13.223934568731787"><ele>150.0</ele><time>2026-04-08T17:42:44Z</time></trkpt><trkpt lat="46.12912294091708" lon="13.224005692099702"><ele>150.0</ele><time>2026-04-08T17:42:45Z</time></trkpt><trkpt lat="46.1290299967284" lon="13.224064360471473"><ele>150.2</ele><time>2026-04-08T17:42:46Z</time></trkpt><trkpt lat="46.12892919831173" lon="13.224106782705663"><ele>150.4</ele><time>2026-04-08T17:42:47Z</time></trkpt><trkpt lat="46.12883396669785" lon="13.224139568092308"><ele>150.6</ele><time>2026-04-08T17:42:48Z</time></trkpt><trkpt lat="46.12872605298928" lon="13.22417064684669"><ele>150.8</ele><time>2026-04-08T17:42:49Z</time></trkpt><trkpt lat="46.128601719121626" lon="13.224202895669563"><ele>151.0</ele><time>2026-04-08T17:42:50Z</time></trkpt><trkpt lat="46.12845358758156" lon="13.224239371618403"><ele>151.0</ele><time>2026-04-08T17:42:51Z</time></trkpt><trkpt lat="46.128275029372745" lon="13.224250718122414"><ele>151.0</ele><time>2026-04-08T17:42:52Z</time></trkpt><trkpt lat="46.12806899574701" lon="13.224309816021607"><ele>151.0</ele><time>2026-04-08T17:42:53Z</time></trkpt><trkpt lat="46.127846545050296" lon="13.22435318981971"><ele>151.0</ele><time>2026-04-08T17:42:54Z</time></trkpt><trkpt lat="46.127635256018515" lon="13.224396315335161"><ele>151.0</ele><time>2026-04-08T17:42:55Z</time></trkpt><trkpt lat="46.127452576559826" lon="13.224435604571678"><ele>151.0</ele><time>2026-04-08T17:42:56Z</time></trkpt><trkpt lat="46.127286449097014" lon="13.224469739875445"><ele>151.0</ele><time>2026-04-08T17:42:57Z</time></trkpt><trkpt lat="46.12712918492511" lon="13.224502494331343"><ele>151.0</ele><time>2026-04-08T17:42:58Z</time></trkpt><trkpt lat="46.12696968759909" lon="13.224537308447285"><ele>151.0</ele><time>2026-04-08T17:42:59Z</time></trkpt><trkpt lat="46.126818773232756" lon="13.224567846999125"><ele>151.0</ele><time>2026-04-08T17:43:00Z</time></trkpt><trkpt lat="46.1266859386505" lon="13.224592632013907"><ele>151.0</ele><time>2026-04-08T17:43:01Z</time></trkpt><trkpt lat="46.1265544406252" lon="13.224618020993637"><ele>151.0</ele><time>2026-04-08T17:43:02Z</time></trkpt><trkpt lat="46.126424529885384" lon="13.224645372725874"><ele>151.0</ele><time>2026-04-08T17:43:03Z</time></trkpt><trkpt lat="46.12630389684002" lon="13.224674386280224"><ele>150.4</ele><time>2026-04-08T17:43:04Z</time></trkpt><trkpt lat="46.12619244776072" lon="13.224698927962885"><ele>149.8</ele><time>2026-04-08T17:43:05Z</time></trkpt><trkpt lat="46.12609059742413" lon="13.224716044947415"><ele>149.20000000000002</ele><time>2026-04-08T17:43:06Z</time></trkpt><trkpt lat="46.126008567444366" lon="13.22473138894702"><ele>148.6</ele><time>2026-04-08T17:43:06.999Z</time></trkpt><trkpt lat="46.125942444375" lon="13.224739865169743"><ele>148.0</ele><time>2026-04-08T17:43:07.999Z</time></trkpt><trkpt lat="46.125842239477905" lon="13.224764601258663"><ele>148.0</ele><time>2026-04-08T17:43:09.999Z</time></trkpt><trkpt lat="46.12577707913059" lon="13.224777635742477"><ele>148.0</ele><time>2026-04-08T17:43:10.999Z</time></trkpt><trkpt lat="46.12569144189185" lon="13.224758399026605"><ele>148.0</ele><time>2026-04-08T17:43:11.999Z</time></trkpt><trkpt lat="46.12559120475056" lon="13.224725314441809"><ele>148.0</ele><time>2026-04-08T17:43:12.999Z</time></trkpt><trkpt lat="46.12549262412558" lon="13.224732311801795"><ele>148.0</ele><time>2026-04-08T17:43:13.999Z</time></trkpt><trkpt lat="46.12539945893633" lon="13.224788079782885"><ele>148.20000000000002</ele><time>2026-04-08T17:43:14.999Z</time></trkpt><trkpt lat="46.12530422967563" lon="13.224837876937423"><ele>148.4</ele><time>2026-04-08T17:43:15.999Z</time></trkpt><trkpt lat="46.125220093927894" lon="13.224858740457424"><ele>148.60000000000002</ele><time>2026-04-08T17:43:16.999Z</time></trkpt><trkpt lat="46.12513143116364" lon="13.224874610343539"><ele>148.8</ele><time>2026-04-08T17:43:17.999Z</time></trkpt><trkpt lat="46.12502226105954" lon="13.224891905416115"><ele>149.0</ele><time>2026-04-08T17:43:18.999Z</time></trkpt><trkpt lat="46.12490841444005" lon="13.224911541214508"><ele>148.25</ele><time>2026-04-08T17:43:19.999Z</time></trkpt><trkpt lat="46.12477366503566" lon="13.224943699932124"><ele>147.5</ele><time>2026-04-08T17:43:20.999Z</time></trkpt><trkpt lat="46.124647039094576" lon="13.224969154653673"><ele>146.75</ele><time>2026-04-08T17:43:21.999Z</time></trkpt><trkpt lat="46.124523901599616" lon="13.224993002145798"><ele>146.0</ele><time>2026-04-08T17:43:22.999Z</time></trkpt><trkpt lat="46.12439698767287" lon="13.225018362760096"><ele>146.0</ele><time>2026-04-08T17:43:23.999Z</time></trkpt><trkpt lat="46.124265791258516" lon="13.225042309396198"><ele>146.0</ele><time>2026-04-08T17:43:24.999Z</time></trkpt><trkpt lat="46.12412511212728" lon="13.225068557527452"><ele>146.0</ele><time>2026-04-08T17:43:25.999Z</time></trkpt><trkpt lat="46.12398202000437" lon="13.225091848787748"><ele>146.0</ele><time>2026-04-08T17:43:26.999Z</time></trkpt><trkpt lat="46.12383325950192" lon="13.225105758474788"><ele>146.0</ele><time>2026-04-08T17:43:27.999Z</time></trkpt><trkpt lat="46.12368351431309" lon="13.225105200485713"><ele>146.0</ele><time>2026-04-08T17:43:28.999Z</time></trkpt><trkpt lat="46.123525803539735" lon="13.225092899695486"><ele>146.0</ele><time>2026-04-08T17:43:29.999Z</time></trkpt><trkpt lat="46.12336906196395" lon="13.225078625716243"><ele>145.66666666666666</ele><time>2026-04-08T17:43:30.999Z</time></trkpt><trkpt lat="46.123214053139904" lon="13.225058132734075"><ele>145.33333333333334</ele><time>2026-04-08T17:43:31.999Z</time></trkpt><trkpt lat="46.12306194427345" lon="13.225026511295527"><ele>145.0</ele><time>2026-04-08T17:43:32.999Z</time></trkpt><trkpt lat="46.122911439458896" lon="13.224983116948447"><ele>145.0</ele><time>2026-04-08T17:43:33.999Z</time></trkpt><trkpt lat="46.12275739738064" lon="13.22493091589367"><ele>145.0</ele><time>2026-04-08T17:43:34.999Z</time></trkpt><trkpt lat="46.1226021660832" lon="13.224868718010917"><ele>145.0</ele><time>2026-04-08T17:43:35.999Z</time></trkpt><trkpt lat="46.12244642817488" lon="13.224797318088099"><ele>144.0</ele><time>2026-04-08T17:43:36.999Z</time></trkpt><trkpt lat="46.12229086054856" lon="13.224718154350365"><ele>143.0</ele><time>2026-04-08T17:43:37.999Z</time></trkpt><trkpt lat="46.12213218501272" lon="13.224620429107834"><ele>142.0</ele><time>2026-04-08T17:43:38.999Z</time></trkpt><trkpt lat="46.12197825303338" lon="13.224513316959378"><ele>142.0</ele><time>2026-04-08T17:43:39.999Z</time></trkpt><trkpt lat="46.121829859234964" lon="13.224397715997133"><ele>142.0</ele><time>2026-04-08T17:43:40.999Z</time></trkpt><trkpt lat="46.121683944993364" lon="13.22427427928404"><ele>142.0</ele><time>2026-04-08T17:43:41.999Z</time></trkpt><trkpt lat="46.12153686611578" lon="13.224144442513053"><ele>141.66666666666669</ele><time>2026-04-08T17:43:42.999Z</time></trkpt><trkpt lat="46.12138518423605" lon="13.224010178624207"><ele>141.33333333333334</ele><time>2026-04-08T17:43:43.999Z</time></trkpt><trkpt lat="46.121227522209274" lon="13.2238727013082"><ele>141.0</ele><time>2026-04-08T17:43:44.999Z</time></trkpt><trkpt lat="46.12107177381477" lon="13.22373752127769"><ele>141.0</ele><time>2026-04-08T17:43:45.999Z</time></trkpt><trkpt lat="46.12091723036" lon="13.223603446508445"><ele>141.0</ele><time>2026-04-08T17:43:46.999Z</time></trkpt><trkpt lat="46.12076777412829" lon="13.223472511595116"><ele>141.0</ele><time>2026-04-08T17:43:47.999Z</time></trkpt><trkpt lat="46.1206237719826" lon="13.223345578628642"><ele>141.33333333333334</ele><time>2026-04-08T17:43:48.999Z</time></trkpt><trkpt lat="46.12048028990133" lon="13.223219523179818"><ele>141.66666666666669</ele><time>2026-04-08T17:43:49.999Z</time></trkpt><trkpt lat="46.12033519835231" lon="13.22308958419609"><ele>142.0</ele><time>2026-04-08T17:43:50.999Z</time></trkpt><trkpt lat="46.12018585795953" lon="13.222956903237447"><ele>142.0</ele><time>2026-04-08T17:43:51.999Z</time></trkpt><trkpt lat="46.12003455500472" lon="13.222817411380388"><ele>142.0</ele><time>2026-04-08T17:43:52.999Z</time></trkpt><trkpt lat="46.119880432489175" lon="13.222664177992739"><ele>142.0</ele><time>2026-04-08T17:43:53.999Z</time></trkpt><trkpt lat="46.11972494544179" lon="13.222498159203989"><ele>142.33333333333334</ele><time>2026-04-08T17:43:54.999Z</time></trkpt><trkpt lat="46.119563965177534" lon="13.222347158303865"><ele>142.66666666666666</ele><time>2026-04-08T17:43:55.999Z</time></trkpt><trkpt lat="46.11941400335087" lon="13.22220235978334"><ele>143.0</ele><time>2026-04-08T17:43:56.999Z</time></trkpt><trkpt lat="46.11923223507232" lon="13.222033808476322"><ele>142.5</ele><time>2026-04-08T17:43:57.999Z</time></trkpt><trkpt lat="46.11899730868342" lon="13.221819336001435"><ele>142.0</ele><time>2026-04-08T17:43:58.999Z</time></trkpt><trkpt lat="46.11876600962788" lon="13.221583098083826"><ele>141.5</ele><time>2026-04-08T17:43:59.999Z</time></trkpt><trkpt lat="46.11854163361901" lon="13.221360663852762"><ele>141.0</ele><time>2026-04-08T17:44:00.999Z</time></trkpt><trkpt lat="46.118317942575715" lon="13.221135665662725"><ele>142.0</ele><time>2026-04-08T17:44:01.999Z</time></trkpt><trkpt lat="46.11809352134089" lon="13.220911942582639"><ele>143.0</ele><time>2026-04-08T17:44:02.999Z</time></trkpt><trkpt lat="46.11786703634365" lon="13.22068340580565"><ele>142.0</ele><time>2026-04-08T17:44:03.999Z</time></trkpt><trkpt lat="46.11764534698577" lon="13.220460274748984"><ele>141.0</ele><time>2026-04-08T17:44:04.999Z</time></trkpt><trkpt lat="46.11743009631214" lon="13.22024261313244"><ele>140.5</ele><time>2026-04-08T17:44:05.999Z</time></trkpt><trkpt lat="46.11721718051223" lon="13.220028313122533"><ele>140.0</ele><time>2026-04-08T17:44:06.999Z</time></trkpt><trkpt lat="46.11701029567415" lon="13.219820935361614"><ele>140.0</ele><time>2026-04-08T17:44:07.999Z</time></trkpt><trkpt lat="46.116807099534675" lon="13.219616589086197"><ele>140.0</ele><time>2026-04-08T17:44:08.999Z</time></trkpt><trkpt lat="46.11660407693361" lon="13.21941173088694"><ele>140.0</ele><time>2026-04-08T17:44:09.999Z</time></trkpt><trkpt lat="46.11639906520235" lon="13.219200886121094"><ele>140.0</ele><time>2026-04-08T17:44:10.999Z</time></trkpt><trkpt lat="46.11618913511915" lon="13.218985540193481"><ele>140.5</ele><time>2026-04-08T17:44:11.999Z</time></trkpt><trkpt lat="46.1159817466619" lon="13.218775088375956"><ele>141.0</ele><time>2026-04-08T17:44:12.999Z</time></trkpt><trkpt lat="46.11577645994611" lon="13.218563495124036"><ele>140.0</ele><time>2026-04-08T17:44:13.999Z</time></trkpt><trkpt lat="46.11557512356368" lon="13.218353122739979"><ele>139.0</ele><time>2026-04-08T17:44:14.999Z</time></trkpt><trkpt lat="46.11537759204515" lon="13.218138447702852"><ele>139.0</ele><time>2026-04-08T17:44:15.999Z</time></trkpt><trkpt lat="46.11518513680808" lon="13.217916368577018"><ele>139.0</ele><time>2026-04-08T17:44:16.999Z</time></trkpt><trkpt lat="46.1149973094978" lon="13.21768596642179"><ele>139.5</ele><time>2026-04-08T17:44:17.999Z</time></trkpt><trkpt lat="46.11480912305271" lon="13.217452554374395"><ele>140.0</ele><time>2026-04-08T17:44:18.999Z</time></trkpt><trkpt lat="46.11462538468109" lon="13.217212145915546"><ele>140.0</ele><time>2026-04-08T17:44:19.999Z</time></trkpt><trkpt lat="46.11444826834675" lon="13.216964835504957"><ele>140.0</ele><time>2026-04-08T17:44:20.999Z</time></trkpt><trkpt lat="46.11427742060725" lon="13.216712412575184"><ele>140.0</ele><time>2026-04-08T17:44:21.999Z</time></trkpt><trkpt lat="46.11410774026088" lon="13.216455172996268"><ele>140.0</ele><time>2026-04-08T17:44:22.999Z</time></trkpt><trkpt lat="46.1139463984781" lon="13.21618999825124"><ele>139.5</ele><time>2026-04-08T17:44:23.999Z</time></trkpt><trkpt lat="46.113789169959766" lon="13.21591411260625"><ele>139.0</ele><time>2026-04-08T17:44:24.999Z</time></trkpt><trkpt lat="46.11363098300484" lon="13.21562986272005"><ele>139.0</ele><time>2026-04-08T17:44:25.999Z</time></trkpt><trkpt lat="46.1134752941726" lon="13.215345416439988"><ele>139.0</ele><time>2026-04-08T17:44:26.999Z</time></trkpt><trkpt lat="46.11332495435287" lon="13.21505628927463"><ele>138.0</ele><time>2026-04-08T17:44:27.999Z</time></trkpt><trkpt lat="46.113180237882226" lon="13.214761767118134"><ele>137.0</ele><time>2026-04-08T17:44:28.999Z</time></trkpt><trkpt lat="46.11304139955418" lon="13.214458995792175"><ele>137.0</ele><time>2026-04-08T17:44:29.999Z</time></trkpt><trkpt lat="46.11290469866673" lon="13.214148494725551"><ele>137.0</ele><time>2026-04-08T17:44:30.999Z</time></trkpt><trkpt lat="46.112770842235754" lon="13.213838013287301"><ele>137.0</ele><time>2026-04-08T17:44:31.999Z</time></trkpt><trkpt lat="46.112641030100065" lon="13.213527622214068"><ele>137.0</ele><time>2026-04-08T17:44:32.999Z</time></trkpt><trkpt lat="46.1125112024661" lon="13.213215404080648"><ele>136.5</ele><time>2026-04-08T17:44:34Z</time></trkpt><trkpt lat="46.11238214311734" lon="13.212902836965004"><ele>136.0</ele><time>2026-04-08T17:44:35Z</time></trkpt><trkpt lat="46.112250079394556" lon="13.212586020527214"><ele>136.5</ele><time>2026-04-08T17:44:36Z</time></trkpt><trkpt lat="46.11211411013473" lon="13.212266294396041"><ele>137.0</ele><time>2026-04-08T17:44:37Z</time></trkpt><trkpt lat="46.11198074758912" lon="13.211942585569847"><ele>137.0</ele><time>2026-04-08T17:44:38Z</time></trkpt><trkpt lat="46.11184433784378" lon="13.211621611326283"><ele>137.0</ele><time>2026-04-08T17:44:39Z</time></trkpt><trkpt lat="46.11171213054491" lon="13.21130555038305"><ele>136.0</ele><time>2026-04-08T17:44:40Z</time></trkpt><trkpt lat="46.11158295830912" lon="13.210989659832412"><ele>135.0</ele><time>2026-04-08T17:44:41Z</time></trkpt><trkpt lat="46.11145328589815" lon="13.210674912610195"><ele>134.5</ele><time>2026-04-08T17:44:42Z</time></trkpt><trkpt lat="46.11132278428016" lon="13.210359893157815"><ele>134.0</ele><time>2026-04-08T17:44:43Z</time></trkpt><trkpt lat="46.11119319877668" lon="13.21004680379852"><ele>132.5</ele><time>2026-04-08T17:44:44Z</time></trkpt><trkpt lat="46.11106044342451" lon="13.209729978939132"><ele>131.0</ele><time>2026-04-08T17:44:45Z</time></trkpt><trkpt lat="46.1109292530974" lon="13.209418354907882"><ele>131.0</ele><time>2026-04-08T17:44:46Z</time></trkpt><trkpt lat="46.110800546928516" lon="13.209108921854234"><ele>131.0</ele><time>2026-04-08T17:44:47Z</time></trkpt><trkpt lat="46.110671470225654" lon="13.208800435469186"><ele>130.5</ele><time>2026-04-08T17:44:48Z</time></trkpt><trkpt lat="46.110542106437585" lon="13.208493017614694"><ele>130.0</ele><time>2026-04-08T17:44:49Z</time></trkpt><trkpt lat="46.11041477718974" lon="13.208185199083333"><ele>130.5</ele><time>2026-04-08T17:44:50Z</time></trkpt><trkpt lat="46.110291532894976" lon="13.207874132595524"><ele>131.0</ele><time>2026-04-08T17:44:51Z</time></trkpt><trkpt lat="46.11017408599604" lon="13.20756048508719"><ele>131.5</ele><time>2026-04-08T17:44:52Z</time></trkpt><trkpt lat="46.11005608855276" lon="13.207240725018842"><ele>132.0</ele><time>2026-04-08T17:44:53Z</time></trkpt><trkpt lat="46.109944653159054" lon="13.206918392221514"><ele>131.5</ele><time>2026-04-08T17:44:54Z</time></trkpt><trkpt lat="46.10983097496894" lon="13.206588525684653"><ele>131.0</ele><time>2026-04-08T17:44:55Z</time></trkpt><trkpt lat="46.10972119690084" lon="13.206255627548764"><ele>131.0</ele><time>2026-04-08T17:44:56Z</time></trkpt><trkpt lat="46.10961237321446" lon="13.20592716267482"><ele>131.0</ele><time>2026-04-08T17:44:57Z</time></trkpt><trkpt lat="46.109496551069775" lon="13.205593548688674"><ele>130.5</ele><time>2026-04-08T17:44:58Z</time></trkpt><trkpt lat="46.10937174958008" lon="13.20526420100563"><ele>130.0</ele><time>2026-04-08T17:44:59Z</time></trkpt><trkpt lat="46.10925204486881" lon="13.204938683671406"><ele>129.5</ele><time>2026-04-08T17:45:00Z</time></trkpt><trkpt lat="46.10913905675717" lon="13.204618153532651"><ele>129.0</ele><time>2026-04-08T17:45:01Z</time></trkpt><trkpt lat="46.10902529148607" lon="13.204307269587042"><ele>129.0</ele><time>2026-04-08T17:45:02Z</time></trkpt><trkpt lat="46.10890766705742" lon="13.204007111765321"><ele>129.0</ele><time>2026-04-08T17:45:03Z</time></trkpt><trkpt lat="46.10878586137681" lon="13.203720018957792"><ele>129.0</ele><time>2026-04-08T17:45:04Z</time></trkpt><trkpt lat="46.108665238388774" lon="13.203437874303013"><ele>129.0</ele><time>2026-04-08T17:45:05Z</time></trkpt><trkpt lat="46.10854754199168" lon="13.203157799394095"><ele>129.33333333333334</ele><time>2026-04-08T17:45:06Z</time></trkpt><trkpt lat="46.10843593168211" lon="13.202890578826151"><ele>129.66666666666669</ele><time>2026-04-08T17:45:06.999Z</time></trkpt><trkpt lat="46.10833010512918" lon="13.202644769317939"><ele>130.0</ele><time>2026-04-08T17:45:07.999Z</time></trkpt><trkpt lat="46.108204635880966" lon="13.202402841044062"><ele>129.66666666666669</ele><time>2026-04-08T17:45:08.999Z</time></trkpt><trkpt lat="46.108052376726235" lon="13.20218237470545"><ele>129.33333333333334</ele><time>2026-04-08T17:45:09.999Z</time></trkpt><trkpt lat="46.10787369689433" lon="13.20199238378468"><ele>129.0</ele><time>2026-04-08T17:45:10.999Z</time></trkpt><trkpt lat="46.1076804235886" lon="13.201831223322468"><ele>129.0</ele><time>2026-04-08T17:45:11.999Z</time></trkpt><trkpt lat="46.10747374711821" lon="13.20170346057599"><ele>129.0</ele><time>2026-04-08T17:45:12.999Z</time></trkpt><trkpt lat="46.10725357785684" lon="13.201615996427828"><ele>128.5</ele><time>2026-04-08T17:45:13.999Z</time></trkpt><trkpt lat="46.10702253510551" lon="13.201569842360124"><ele>128.0</ele><time>2026-04-08T17:45:14.999Z</time></trkpt><trkpt lat="46.10678573850718" lon="13.201570736685149"><ele>127.5</ele><time>2026-04-08T17:45:15.999Z</time></trkpt><trkpt lat="46.10654572936787" lon="13.201607676763903"><ele>127.0</ele><time>2026-04-08T17:45:16.999Z</time></trkpt><trkpt lat="46.10630691405158" lon="13.201659966057862"><ele>127.0</ele><time>2026-04-08T17:45:17.999Z</time></trkpt><trkpt lat="46.10605803853859" lon="13.201702729241903"><ele>127.0</ele><time>2026-04-08T17:45:18.999Z</time></trkpt><trkpt lat="46.10579866270369" lon="13.20171470792598"><ele>127.5</ele><time>2026-04-08T17:45:19.999Z</time></trkpt><trkpt lat="46.10552787736681" lon="13.20169596070364"><ele>128.0</ele><time>2026-04-08T17:45:20.999Z</time></trkpt><trkpt lat="46.10525496532034" lon="13.201657113351708"><ele>128.0</ele><time>2026-04-08T17:45:21.999Z</time></trkpt><trkpt lat="46.10499065563311" lon="13.201592615425932"><ele>128.0</ele><time>2026-04-08T17:45:22.999Z</time></trkpt><trkpt lat="46.10472776594066" lon="13.201499088204358"><ele>127.5</ele><time>2026-04-08T17:45:23.999Z</time></trkpt><trkpt lat="46.104464847260694" lon="13.201388373496373"><ele>127.0</ele><time>2026-04-08T17:45:24.999Z</time></trkpt><trkpt lat="46.10420206809927" lon="13.201266428017242"><ele>126.5</ele><time>2026-04-08T17:45:25.999Z</time></trkpt><trkpt lat="46.103940857026075" lon="13.201136870117738"><ele>126.0</ele><time>2026-04-08T17:45:26.999Z</time></trkpt><trkpt lat="46.103688222002205" lon="13.201018825089237"><ele>126.0</ele><time>2026-04-08T17:45:27.999Z</time></trkpt><trkpt lat="46.10343626001248" lon="13.20089938206477"><ele>126.0</ele><time>2026-04-08T17:45:28.999Z</time></trkpt><trkpt lat="46.10317771606014" lon="13.20077506044898"><ele>124.5</ele><time>2026-04-08T17:45:29.999Z</time></trkpt><trkpt lat="46.102918686186044" lon="13.200650685134752"><ele>123.0</ele><time>2026-04-08T17:45:30.999Z</time></trkpt><trkpt lat="46.10266566003491" lon="13.200531973264514"><ele>123.0</ele><time>2026-04-08T17:45:31.999Z</time></trkpt><trkpt lat="46.102417230986994" lon="13.200413804583482"><ele>123.0</ele><time>2026-04-08T17:45:32.999Z</time></trkpt><trkpt lat="46.10216998756954" lon="13.200290342580578"><ele>123.0</ele><time>2026-04-08T17:45:33.999Z</time></trkpt><trkpt lat="46.10192083016493" lon="13.200172288864204"><ele>123.0</ele><time>2026-04-08T17:45:34.999Z</time></trkpt><trkpt lat="46.10166997558562" lon="13.20005614272883"><ele>124.0</ele><time>2026-04-08T17:45:35.999Z</time></trkpt><trkpt lat="46.10142409380064" lon="13.199940783169689"><ele>125.0</ele><time>2026-04-08T17:45:36.999Z</time></trkpt><trkpt lat="46.10118273998" lon="13.19982373229226"><ele>125.0</ele><time>2026-04-08T17:45:37.999Z</time></trkpt><trkpt lat="46.10094216060561" lon="13.199705082671825"><ele>125.0</ele><time>2026-04-08T17:45:38.999Z</time></trkpt><trkpt lat="46.10069589289616" lon="13.199591983906858"><ele>124.0</ele><time>2026-04-08T17:45:39.999Z</time></trkpt><trkpt lat="46.10045191156643" lon="13.199475516358808"><ele>123.0</ele><time>2026-04-08T17:45:40.999Z</time></trkpt><trkpt lat="46.10020637896921" lon="13.199357056242654"><ele>123.0</ele><time>2026-04-08T17:45:41.999Z</time></trkpt><trkpt lat="46.0999600124992" lon="13.199237975804012"><ele>123.0</ele><time>2026-04-08T17:45:42.999Z</time></trkpt><trkpt lat="46.09970992050075" lon="13.199119171091322"><ele>122.5</ele><time>2026-04-08T17:45:43.999Z</time></trkpt><trkpt lat="46.09945657356276" lon="13.199000797488061"><ele>122.0</ele><time>2026-04-08T17:45:44.999Z</time></trkpt><trkpt lat="46.09920152937696" lon="13.198878489690996"><ele>122.5</ele><time>2026-04-08T17:45:45.999Z</time></trkpt><trkpt lat="46.098943834010434" lon="13.198755143995445"><ele>123.0</ele><time>2026-04-08T17:45:46.999Z</time></trkpt><trkpt lat="46.098689973456096" lon="13.19863433810805"><ele>123.0</ele><time>2026-04-08T17:45:47.999Z</time></trkpt><trkpt lat="46.09844061098314" lon="13.198515576359698"><ele>123.0</ele><time>2026-04-08T17:45:48.999Z</time></trkpt><trkpt lat="46.09819209176182" lon="13.198396922610796"><ele>123.0</ele><time>2026-04-08T17:45:49.999Z</time></trkpt><trkpt lat="46.097941290087604" lon="13.198277652215364"><ele>123.0</ele><time>2026-04-08T17:45:50.999Z</time></trkpt><trkpt lat="46.09768550416284" lon="13.198155403934923"><ele>123.0</ele><time>2026-04-08T17:45:51.999Z</time></trkpt><trkpt lat="46.097426821827305" lon="13.19803141532291"><ele>123.0</ele><time>2026-04-08T17:45:52.999Z</time></trkpt><trkpt lat="46.09716697887291" lon="13.197907791068484"><ele>121.5</ele><time>2026-04-08T17:45:53.999Z</time></trkpt><trkpt lat="46.09691297330486" lon="13.197788907660437"><ele>120.0</ele><time>2026-04-08T17:45:54.999Z</time></trkpt><trkpt lat="46.09666243314907" lon="13.19766718354095"><ele>121.0</ele><time>2026-04-08T17:45:55.999Z</time></trkpt><trkpt lat="46.09641608231144" lon="13.197547551928501"><ele>122.0</ele><time>2026-04-08T17:45:56.999Z</time></trkpt><trkpt lat="46.0961708946666" lon="13.197429607700277"><ele>122.0</ele><time>2026-04-08T17:45:57.999Z</time></trkpt><trkpt lat="46.095923762517344" lon="13.197310623677522"><ele>122.0</ele><time>2026-04-08T17:45:58.999Z</time></trkpt><trkpt lat="46.095672130092446" lon="13.197191566091432"><ele>121.5</ele><time>2026-04-08T17:45:59.999Z</time></trkpt><trkpt lat="46.095418550122666" lon="13.197069856924127"><ele>121.0</ele><time>2026-04-08T17:46:00.999Z</time></trkpt><trkpt lat="46.095164818192615" lon="13.19694913603464"><ele>121.0</ele><time>2026-04-08T17:46:01.999Z</time></trkpt><trkpt lat="46.09491468094421" lon="13.19682692218605"><ele>121.0</ele><time>2026-04-08T17:46:02.999Z</time></trkpt><trkpt lat="46.094666174441805" lon="13.196710376600928"><ele>121.0</ele><time>2026-04-08T17:46:03.999Z</time></trkpt><trkpt lat="46.09441745221275" lon="13.19659289442018"><ele>121.0</ele><time>2026-04-08T17:46:04.999Z</time></trkpt><trkpt lat="46.09417115621012" lon="13.196470864661634"><ele>120.0</ele><time>2026-04-08T17:46:05.999Z</time></trkpt><trkpt lat="46.09392223392207" lon="13.196353057552523"><ele>119.0</ele><time>2026-04-08T17:46:06.999Z</time></trkpt><trkpt lat="46.09366741783862" lon="13.19623481254306"><ele>119.0</ele><time>2026-04-08T17:46:07.999Z</time></trkpt><trkpt lat="46.09341191849425" lon="13.196113818482951"><ele>119.0</ele><time>2026-04-08T17:46:08.999Z</time></trkpt><trkpt lat="46.09315773439626" lon="13.195987974333502"><ele>120.0</ele><time>2026-04-08T17:46:09.999Z</time></trkpt><trkpt lat="46.092903376375276" lon="13.195865243943063"><ele>121.0</ele><time>2026-04-08T17:46:10.999Z</time></trkpt><trkpt lat="46.09264822197782" lon="13.195744356782606"><ele>120.0</ele><time>2026-04-08T17:46:11.999Z</time></trkpt><trkpt lat="46.09239295382824" lon="13.195621075977005"><ele>119.0</ele><time>2026-04-08T17:46:12.999Z</time></trkpt><trkpt lat="46.09213388629003" lon="13.195500773707604"><ele>119.0</ele><time>2026-04-08T17:46:13.999Z</time></trkpt><trkpt lat="46.09186971464985" lon="13.195374780228716"><ele>119.0</ele><time>2026-04-08T17:46:14.999Z</time></trkpt><trkpt lat="46.0915995326563" lon="13.19524290884062"><ele>119.0</ele><time>2026-04-08T17:46:15.999Z</time></trkpt><trkpt lat="46.09132695110602" lon="13.195114251601433"><ele>119.0</ele><time>2026-04-08T17:46:16.999Z</time></trkpt><trkpt lat="46.091051261908454" lon="13.194981525134823"><ele>119.0</ele><time>2026-04-08T17:46:17.999Z</time></trkpt><trkpt lat="46.090774789397265" lon="13.194849118684937"><ele>119.0</ele><time>2026-04-08T17:46:18.999Z</time></trkpt><trkpt lat="46.09050073898741" lon="13.194714367399069"><ele>119.5</ele><time>2026-04-08T17:46:19.999Z</time></trkpt><trkpt lat="46.090227867055" lon="13.194586265308228"><ele>120.0</ele><time>2026-04-08T17:46:20.999Z</time></trkpt><trkpt lat="46.089956764608345" lon="13.194455493834566"><ele>119.5</ele><time>2026-04-08T17:46:21.999Z</time></trkpt><trkpt lat="46.08968756070655" lon="13.194331244553196"><ele>119.0</ele><time>2026-04-08T17:46:22.999Z</time></trkpt><trkpt lat="46.089423882379876" lon="13.194204828046468"><ele>119.0</ele><time>2026-04-08T17:46:23.999Z</time></trkpt><trkpt lat="46.08916396181821" lon="13.194076045147938"><ele>119.0</ele><time>2026-04-08T17:46:24.999Z</time></trkpt><trkpt lat="46.08890441922738" lon="13.193950164437576"><ele>118.5</ele><time>2026-04-08T17:46:25.999Z</time></trkpt><trkpt lat="46.08864593271353" lon="13.193827017838519"><ele>118.0</ele><time>2026-04-08T17:46:26.999Z</time></trkpt><trkpt lat="46.08839014199167" lon="13.193707587617792"><ele>118.0</ele><time>2026-04-08T17:46:27.999Z</time></trkpt><trkpt lat="46.08813792341368" lon="13.193585784996396"><ele>118.0</ele><time>2026-04-08T17:46:28.999Z</time></trkpt><trkpt lat="46.08788686205026" lon="13.193465267095245"><ele>118.0</ele><time>2026-04-08T17:46:29.999Z</time></trkpt><trkpt lat="46.087636184688556" lon="13.193347044497395"><ele>118.0</ele><time>2026-04-08T17:46:30.999Z</time></trkpt><trkpt lat="46.08738877067499" lon="13.193231730042452"><ele>117.0</ele><time>2026-04-08T17:46:31.999Z</time></trkpt><trkpt lat="46.087145550955675" lon="13.193115302820393"><ele>116.0</ele><time>2026-04-08T17:46:32.999Z</time></trkpt><trkpt lat="46.08690632287116" lon="13.192999786061353"><ele>116.0</ele><time>2026-04-08T17:46:33.999Z</time></trkpt><trkpt lat="46.08666876125639" lon="13.192885920551857"><ele>116.0</ele><time>2026-04-08T17:46:34.999Z</time></trkpt><trkpt lat="46.08643181817196" lon="13.192771948219907"><ele>114.5</ele><time>2026-04-08T17:46:35.999Z</time></trkpt><trkpt lat="46.086191273596846" lon="13.192657306057974"><ele>113.0</ele><time>2026-04-08T17:46:36.999Z</time></trkpt><trkpt lat="46.0859512690148" lon="13.192542451688308"><ele>113.5</ele><time>2026-04-08T17:46:37.999Z</time></trkpt><trkpt lat="46.08571069573441" lon="13.192428616860258"><ele>114.0</ele><time>2026-04-08T17:46:38.999Z</time></trkpt><trkpt lat="46.085468273252104" lon="13.19231271626349"><ele>115.0</ele><time>2026-04-08T17:46:40Z</time></trkpt><trkpt lat="46.08522521753523" lon="13.19219459595175"><ele>116.0</ele><time>2026-04-08T17:46:41Z</time></trkpt><trkpt lat="46.084978332217524" lon="13.192076595093567"><ele>116.5</ele><time>2026-04-08T17:46:42Z</time></trkpt><trkpt lat="46.08472253071688" lon="13.191955578403325"><ele>117.0</ele><time>2026-04-08T17:46:43Z</time></trkpt><trkpt lat="46.0844691733841" lon="13.191835172612798"><ele>117.0</ele><time>2026-04-08T17:46:44Z</time></trkpt><trkpt lat="46.08422327072924" lon="13.191718106716571"><ele>117.0</ele><time>2026-04-08T17:46:45Z</time></trkpt><trkpt lat="46.08398064504094" lon="13.19160448936721"><ele>117.0</ele><time>2026-04-08T17:46:46Z</time></trkpt><trkpt lat="46.083739480194474" lon="13.191494005110243"><ele>117.0</ele><time>2026-04-08T17:46:47Z</time></trkpt><trkpt lat="46.08349723697053" lon="13.191398950932083"><ele>116.5</ele><time>2026-04-08T17:46:48Z</time></trkpt><trkpt lat="46.08325058657819" lon="13.19131904646734"><ele>116.0</ele><time>2026-04-08T17:46:49Z</time></trkpt><trkpt lat="46.083001823176396" lon="13.191251707444687"><ele>116.0</ele><time>2026-04-08T17:46:50Z</time></trkpt><trkpt lat="46.082751046849474" lon="13.191197774193503"><ele>116.0</ele><time>2026-04-08T17:46:51Z</time></trkpt><trkpt lat="46.082495718052016" lon="13.19115953287287"><ele>115.0</ele><time>2026-04-08T17:46:52Z</time></trkpt><trkpt lat="46.082236189438866" lon="13.191130711841206"><ele>114.0</ele><time>2026-04-08T17:46:53Z</time></trkpt><trkpt lat="46.08197483809742" lon="13.191111685399207"><ele>114.0</ele><time>2026-04-08T17:46:54Z</time></trkpt><trkpt lat="46.08171041389774" lon="13.191092442637899"><ele>114.0</ele><time>2026-04-08T17:46:55Z</time></trkpt><trkpt lat="46.081442247028484" lon="13.191077234954989"><ele>112.5</ele><time>2026-04-08T17:46:56Z</time></trkpt><trkpt lat="46.081175593141516" lon="13.191066232692194"><ele>111.0</ele><time>2026-04-08T17:46:57Z</time></trkpt><trkpt lat="46.080904850175415" lon="13.191073896937592"><ele>108.0</ele><time>2026-04-08T17:46:58Z</time></trkpt><trkpt lat="46.08063944961461" lon="13.19110047245782"><ele>105.0</ele><time>2026-04-08T17:46:59Z</time></trkpt><trkpt lat="46.080377528190674" lon="13.191150498922891"><ele>105.0</ele><time>2026-04-08T17:47:00Z</time></trkpt><trkpt lat="46.08012297477405" lon="13.191226424034765"><ele>105.0</ele><time>2026-04-08T17:47:01Z</time></trkpt><trkpt lat="46.07987155193365" lon="13.191327063432428"><ele>105.5</ele><time>2026-04-08T17:47:02Z</time></trkpt><trkpt lat="46.07962477502105" lon="13.191439181037909"><ele>106.0</ele><time>2026-04-08T17:47:03Z</time></trkpt><trkpt lat="46.079380580725754" lon="13.191561367000968"><ele>106.0</ele><time>2026-04-08T17:47:04Z</time></trkpt><trkpt lat="46.07913852680644" lon="13.191699199754186"><ele>106.0</ele><time>2026-04-08T17:47:05Z</time></trkpt><trkpt lat="46.07890501104203" lon="13.191855190014524"><ele>108.0</ele><time>2026-04-08T17:47:06Z</time></trkpt><trkpt lat="46.07867683174659" lon="13.192029171800494"><ele>110.0</ele><time>2026-04-08T17:47:07Z</time></trkpt><trkpt lat="46.078452332440136" lon="13.192219314043667"><ele>109.5</ele><time>2026-04-08T17:47:07.999Z</time></trkpt><trkpt lat="46.0782341029188" lon="13.19241825156078"><ele>109.0</ele><time>2026-04-08T17:47:08.999Z</time></trkpt><trkpt lat="46.07801901206151" lon="13.192635572972954"><ele>109.0</ele><time>2026-04-08T17:47:09.999Z</time></trkpt><trkpt lat="46.07780142597284" lon="13.192852374219747"><ele>109.0</ele><time>2026-04-08T17:47:10.999Z</time></trkpt><trkpt lat="46.07758436868184" lon="13.193064795288223"><ele>110.0</ele><time>2026-04-08T17:47:11.999Z</time></trkpt><trkpt lat="46.07736739236458" lon="13.193274670633965"><ele>111.0</ele><time>2026-04-08T17:47:12.999Z</time></trkpt><trkpt lat="46.07715179229748" lon="13.193486185883534"><ele>111.0</ele><time>2026-04-08T17:47:13.999Z</time></trkpt><trkpt lat="46.07693777614227" lon="13.193693675015792"><ele>111.0</ele><time>2026-04-08T17:47:14.999Z</time></trkpt><trkpt lat="46.07672250317237" lon="13.193900597450975"><ele>112.5</ele><time>2026-04-08T17:47:15.999Z</time></trkpt><trkpt lat="46.07650983381752" lon="13.194107534455478"><ele>114.0</ele><time>2026-04-08T17:47:16.999Z</time></trkpt><trkpt lat="46.07629836817052" lon="13.194318810390472"><ele>114.0</ele><time>2026-04-08T17:47:17.999Z</time></trkpt><trkpt lat="46.07608297404066" lon="13.194530678031283"><ele>114.0</ele><time>2026-04-08T17:47:18.999Z</time></trkpt><trkpt lat="46.07586711525329" lon="13.194741088780761"><ele>113.0</ele><time>2026-04-08T17:47:19.999Z</time></trkpt><trkpt lat="46.07565254847611" lon="13.19494933512063"><ele>112.0</ele><time>2026-04-08T17:47:20.999Z</time></trkpt><trkpt lat="46.0754398158257" lon="13.195153879702438"><ele>112.0</ele><time>2026-04-08T17:47:21.999Z</time></trkpt><trkpt lat="46.075223614879036" lon="13.195355924066465"><ele>112.0</ele><time>2026-04-08T17:47:22.999Z</time></trkpt><trkpt lat="46.07500207493192" lon="13.195543456308748"><ele>111.0</ele><time>2026-04-08T17:47:23.999Z</time></trkpt><trkpt lat="46.07477034143093" lon="13.19570882744631"><ele>110.0</ele><time>2026-04-08T17:47:24.999Z</time></trkpt><trkpt lat="46.07452809460184" lon="13.195857371911227"><ele>110.0</ele><time>2026-04-08T17:47:25.999Z</time></trkpt><trkpt lat="46.07427846185633" lon="13.196000668113602"><ele>110.0</ele><time>2026-04-08T17:47:26.999Z</time></trkpt><trkpt lat="46.07402432981687" lon="13.196135913462074"><ele>110.5</ele><time>2026-04-08T17:47:27.999Z</time></trkpt><trkpt lat="46.07377226188153" lon="13.196264681389394"><ele>111.0</ele><time>2026-04-08T17:47:28.999Z</time></trkpt><trkpt lat="46.07352165751644" lon="13.196376582500696"><ele>111.5</ele><time>2026-04-08T17:47:29.999Z</time></trkpt><trkpt lat="46.07327047799012" lon="13.196470093045722"><ele>112.0</ele><time>2026-04-08T17:47:30.999Z</time></trkpt><trkpt lat="46.073015783364156" lon="13.196543138893807"><ele>112.0</ele><time>2026-04-08T17:47:31.999Z</time></trkpt><trkpt lat="46.07275331577631" lon="13.196600061890539"><ele>112.0</ele><time>2026-04-08T17:47:32.999Z</time></trkpt><trkpt lat="46.07248931511487" lon="13.196651686396695"><ele>110.5</ele><time>2026-04-08T17:47:33.999Z</time></trkpt><trkpt lat="46.07223241111784" lon="13.196695981897252"><ele>109.0</ele><time>2026-04-08T17:47:34.999Z</time></trkpt><trkpt lat="46.07197296536201" lon="13.196732309291594"><ele>109.0</ele><time>2026-04-08T17:47:35.999Z</time></trkpt><trkpt lat="46.071715534550755" lon="13.19677021388413"><ele>109.0</ele><time>2026-04-08T17:47:36.999Z</time></trkpt><trkpt lat="46.071456601509226" lon="13.196801650472866"><ele>108.0</ele><time>2026-04-08T17:47:37.999Z</time></trkpt><trkpt lat="46.07119710290606" lon="13.196839552904033"><ele>107.0</ele><time>2026-04-08T17:47:38.999Z</time></trkpt><trkpt lat="46.07093394851632" lon="13.19687581966538"><ele>107.0</ele><time>2026-04-08T17:47:39.999Z</time></trkpt><trkpt lat="46.070674216699956" lon="13.196909231551555"><ele>107.0</ele><time>2026-04-08T17:47:40.999Z</time></trkpt><trkpt lat="46.07041520234751" lon="13.196942473418797"><ele>107.0</ele><time>2026-04-08T17:47:41.999Z</time></trkpt><trkpt lat="46.07015437538743" lon="13.196978167545334"><ele>107.0</ele><time>2026-04-08T17:47:42.999Z</time></trkpt><trkpt lat="46.0698914698023" lon="13.197014220592626"><ele>108.0</ele><time>2026-04-08T17:47:43.999Z</time></trkpt><trkpt lat="46.069627113794176" lon="13.197047584303737"><ele>109.0</ele><time>2026-04-08T17:47:44.999Z</time></trkpt><trkpt lat="46.06936310682655" lon="13.197085153795488"><ele>108.5</ele><time>2026-04-08T17:47:45.999Z</time></trkpt><trkpt lat="46.069101118225284" lon="13.197120165778331"><ele>108.0</ele><time>2026-04-08T17:47:46.999Z</time></trkpt><trkpt lat="46.068841932492774" lon="13.197154090659748"><ele>108.0</ele><time>2026-04-08T17:47:47.999Z</time></trkpt><trkpt lat="46.068582404216414" lon="13.197185430850835"><ele>108.0</ele><time>2026-04-08T17:47:48.999Z</time></trkpt><trkpt lat="46.06832466837883" lon="13.197217756086397"><ele>108.0</ele><time>2026-04-08T17:47:49.999Z</time></trkpt><trkpt lat="46.06806426398803" lon="13.197252519944238"><ele>108.0</ele><time>2026-04-08T17:47:50.999Z</time></trkpt><trkpt lat="46.067801766471995" lon="13.1972893087332"><ele>108.0</ele><time>2026-04-08T17:47:51.999Z</time></trkpt><trkpt lat="46.06753869567503" lon="13.197322848973103"><ele>108.0</ele><time>2026-04-08T17:47:52.999Z</time></trkpt><trkpt lat="46.06727555814948" lon="13.197356421456302"><ele>107.5</ele><time>2026-04-08T17:47:53.999Z</time></trkpt><trkpt lat="46.067012674390504" lon="13.197393009944369"><ele>107.0</ele><time>2026-04-08T17:47:54.999Z</time></trkpt><trkpt lat="46.066748018339354" lon="13.197428858765562"><ele>106.0</ele><time>2026-04-08T17:47:55.999Z</time></trkpt><trkpt lat="46.06647715257028" lon="13.197464698322408"><ele>105.0</ele><time>2026-04-08T17:47:56.999Z</time></trkpt><trkpt lat="46.06618546318769" lon="13.19750223324955"><ele>105.0</ele><time>2026-04-08T17:47:57.999Z</time></trkpt><trkpt lat="46.06588081959132" lon="13.19754111525064"><ele>105.0</ele><time>2026-04-08T17:47:58.999Z</time></trkpt><trkpt lat="46.065571008091496" lon="13.197580649027397"><ele>105.5</ele><time>2026-04-08T17:47:59.999Z</time></trkpt><trkpt lat="46.06525176249812" lon="13.197620911616218"><ele>106.0</ele><time>2026-04-08T17:48:00.999Z</time></trkpt><trkpt lat="46.06491884444806" lon="13.197666183035173"><ele>105.0</ele><time>2026-04-08T17:48:01.999Z</time></trkpt><trkpt lat="46.0645898147655" lon="13.197710599431543"><ele>104.0</ele><time>2026-04-08T17:48:02.999Z</time></trkpt><trkpt lat="46.064262261779554" lon="13.197752400289694"><ele>104.5</ele><time>2026-04-08T17:48:03.999Z</time></trkpt><trkpt lat="46.06393572439506" lon="13.197796821769964"><ele>105.0</ele><time>2026-04-08T17:48:04.999Z</time></trkpt><trkpt lat="46.063612272751165" lon="13.197840918856228"><ele>105.0</ele><time>2026-04-08T17:48:05.999Z</time></trkpt><trkpt lat="46.06329124030165" lon="13.19788212543079"><ele>105.0</ele><time>2026-04-08T17:48:06.999Z</time></trkpt><trkpt lat="46.06297231689056" lon="13.197923421727639"><ele>104.0</ele><time>2026-04-08T17:48:07.999Z</time></trkpt><trkpt lat="46.06265412501059" lon="13.19796626181832"><ele>103.0</ele><time>2026-04-08T17:48:08.999Z</time></trkpt><trkpt lat="46.06234222508871" lon="13.198004645080534"><ele>101.0</ele><time>2026-04-08T17:48:09.999Z</time></trkpt><trkpt lat="46.06203336612478" lon="13.19804949036352"><ele>99.0</ele><time>2026-04-08T17:48:10.999Z</time></trkpt><trkpt lat="46.06172900431554" lon="13.198089663217466"><ele>100.5</ele><time>2026-04-08T17:48:11.999Z</time></trkpt><trkpt lat="46.061425645566956" lon="13.198127799004425"><ele>102.0</ele><time>2026-04-08T17:48:12.999Z</time></trkpt><trkpt lat="46.061125862889625" lon="13.198169433219832"><ele>102.0</ele><time>2026-04-08T17:48:13.999Z</time></trkpt><trkpt lat="46.06082925017649" lon="13.198207787913345"><ele>102.0</ele><time>2026-04-08T17:48:14.999Z</time></trkpt><trkpt lat="46.060532787845965" lon="13.198249908547849"><ele>104.0</ele><time>2026-04-08T17:48:15.999Z</time></trkpt><trkpt lat="46.060234087029556" lon="13.198305484995322"><ele>106.0</ele><time>2026-04-08T17:48:16.999Z</time></trkpt><trkpt lat="46.05993643105531" lon="13.198371470490008"><ele>106.0</ele><time>2026-04-08T17:48:17.999Z</time></trkpt><trkpt lat="46.059643419596526" lon="13.19845144752097"><ele>106.0</ele><time>2026-04-08T17:48:18.999Z</time></trkpt><trkpt lat="46.05935753025856" lon="13.198535443958244"><ele>105.0</ele><time>2026-04-08T17:48:19.999Z</time></trkpt><trkpt lat="46.05906863645968" lon="13.198632225325335"><ele>104.0</ele><time>2026-04-08T17:48:20.999Z</time></trkpt><trkpt lat="46.05878275949148" lon="13.19873497323075"><ele>104.0</ele><time>2026-04-08T17:48:21.999Z</time></trkpt><trkpt lat="46.0584986321188" lon="13.198850819566633"><ele>104.0</ele><time>2026-04-08T17:48:22.999Z</time></trkpt><trkpt lat="46.05823235479131" lon="13.199012873508893"><ele>104.0</ele><time>2026-04-08T17:48:23.999Z</time></trkpt><trkpt lat="46.05795737241432" lon="13.199136745815501"><ele>104.0</ele><time>2026-04-08T17:48:24.999Z</time></trkpt><trkpt lat="46.05767690970211" lon="13.19926308644167"><ele>103.5</ele><time>2026-04-08T17:48:25.999Z</time></trkpt><trkpt lat="46.0574027592748" lon="13.199382223841134"><ele>103.0</ele><time>2026-04-08T17:48:26.999Z</time></trkpt><trkpt lat="46.057137749945305" lon="13.199539499797693"><ele>103.0</ele><time>2026-04-08T17:48:27.999Z</time></trkpt><trkpt lat="46.05687523460974" lon="13.199710180808514"><ele>103.0</ele><time>2026-04-08T17:48:28.999Z</time></trkpt><trkpt lat="46.056614155486756" lon="13.199886831717405"><ele>104.0</ele><time>2026-04-08T17:48:29.999Z</time></trkpt><trkpt lat="46.05635290688037" lon="13.200066151132303"><ele>105.0</ele><time>2026-04-08T17:48:30.999Z</time></trkpt><trkpt lat="46.05609278216295" lon="13.200254570559979"><ele>105.0</ele><time>2026-04-08T17:48:31.999Z</time></trkpt><trkpt lat="46.05583458206633" lon="13.200444401821432"><ele>105.0</ele><time>2026-04-08T17:48:32.999Z</time></trkpt><trkpt lat="46.05557725554424" lon="13.200630175002354"><ele>102.5</ele><time>2026-04-08T17:48:33.999Z</time></trkpt><trkpt lat="46.05531734152411" lon="13.20081835316003"><ele>100.0</ele><time>2026-04-08T17:48:34.999Z</time></trkpt><trkpt lat="46.05505685654376" lon="13.20100852489971"><ele>99.5</ele><time>2026-04-08T17:48:35.999Z</time></trkpt><trkpt lat="46.05479496106783" lon="13.20119991087132"><ele>99.0</ele><time>2026-04-08T17:48:36.999Z</time></trkpt><trkpt lat="46.054531190827866" lon="13.201390347324164"><ele>99.5</ele><time>2026-04-08T17:48:37.999Z</time></trkpt><trkpt lat="46.05427176122783" lon="13.201580470343124"><ele>100.0</ele><time>2026-04-08T17:48:38.999Z</time></trkpt><trkpt lat="46.054012594893635" lon="13.2017697529992"><ele>101.0</ele><time>2026-04-08T17:48:39.999Z</time></trkpt><trkpt lat="46.053752081807936" lon="13.201959163827587"><ele>102.0</ele><time>2026-04-08T17:48:40.999Z</time></trkpt><trkpt lat="46.05349217390345" lon="13.202150956065076"><ele>101.0</ele><time>2026-04-08T17:48:41.999Z</time></trkpt><trkpt lat="46.053231832443274" lon="13.20234319769208"><ele>100.0</ele><time>2026-04-08T17:48:42.999Z</time></trkpt><trkpt lat="46.05296996617535" lon="13.202534746954536"><ele>100.0</ele><time>2026-04-08T17:48:43.999Z</time></trkpt><trkpt lat="46.05271049202044" lon="13.202721420274196"><ele>100.0</ele><time>2026-04-08T17:48:44.999Z</time></trkpt><trkpt lat="46.052454023082824" lon="13.20290628555876"><ele>99.5</ele><time>2026-04-08T17:48:46Z</time></trkpt><trkpt lat="46.05219603045626" lon="13.203093613293923"><ele>99.0</ele><time>2026-04-08T17:48:47Z</time></trkpt><trkpt lat="46.051935262512906" lon="13.203282684808146"><ele>97.5</ele><time>2026-04-08T17:48:48Z</time></trkpt><trkpt lat="46.05167045955962" lon="13.203473188670692"><ele>96.0</ele><time>2026-04-08T17:48:49Z</time></trkpt><trkpt lat="46.05140733429614" lon="13.203669155225384"><ele>95.0</ele><time>2026-04-08T17:48:50Z</time></trkpt><trkpt lat="46.05114926940518" lon="13.203857451536901"><ele>94.0</ele><time>2026-04-08T17:48:51Z</time></trkpt><trkpt lat="46.05089112699933" lon="13.204044129615669"><ele>94.5</ele><time>2026-04-08T17:48:52Z</time></trkpt><trkpt lat="46.05063172549148" lon="13.204232187111526"><ele>95.0</ele><time>2026-04-08T17:48:53Z</time></trkpt><trkpt lat="46.05037196476092" lon="13.20442222899471"><ele>95.0</ele><time>2026-04-08T17:48:54Z</time></trkpt><trkpt lat="46.05011333668402" lon="13.204613583354636"><ele>95.0</ele><time>2026-04-08T17:48:55Z</time></trkpt><trkpt lat="46.049858919855474" lon="13.204796664628148"><ele>93.5</ele><time>2026-04-08T17:48:56Z</time></trkpt><trkpt lat="46.04960847497731" lon="13.204978324635942"><ele>92.0</ele><time>2026-04-08T17:48:57Z</time></trkpt><trkpt lat="46.04936177993298" lon="13.205166005751114"><ele>92.5</ele><time>2026-04-08T17:48:58Z</time></trkpt><trkpt lat="46.04911348230532" lon="13.205361631715098"><ele>93.0</ele><time>2026-04-08T17:48:59Z</time></trkpt><trkpt lat="46.048864721294336" lon="13.205562879030659"><ele>91.5</ele><time>2026-04-08T17:49:00Z</time></trkpt><trkpt lat="46.04862344851137" lon="13.205769591989927"><ele>90.0</ele><time>2026-04-08T17:49:01Z</time></trkpt><trkpt lat="46.048388271212644" lon="13.205984461310901"><ele>93.0</ele><time>2026-04-08T17:49:02Z</time></trkpt><trkpt lat="46.04815913078077" lon="13.206209695744045"><ele>96.0</ele><time>2026-04-08T17:49:03Z</time></trkpt><trkpt lat="46.04793163952697" lon="13.20644789167001"><ele>94.0</ele><time>2026-04-08T17:49:04Z</time></trkpt><trkpt lat="46.04770645253202" lon="13.20669548798758"><ele>92.0</ele><time>2026-04-08T17:49:05Z</time></trkpt><trkpt lat="46.047484671151885" lon="13.206960543561465"><ele>93.5</ele><time>2026-04-08T17:49:06Z</time></trkpt><trkpt lat="46.047268899649616" lon="13.207235461795744"><ele>95.0</ele><time>2026-04-08T17:49:07Z</time></trkpt><trkpt lat="46.04705172317773" lon="13.207508898825392"><ele>95.0</ele><time>2026-04-08T17:49:08Z</time></trkpt><trkpt lat="46.04683750074549" lon="13.20779123023315"><ele>95.0</ele><time>2026-04-08T17:49:09Z</time></trkpt><trkpt lat="46.04662640719944" lon="13.20807059579963"><ele>95.5</ele><time>2026-04-08T17:49:10Z</time></trkpt><trkpt lat="46.04641945983055" lon="13.208345906166844"><ele>96.0</ele><time>2026-04-08T17:49:11Z</time></trkpt><trkpt lat="46.04621141369148" lon="13.208619700447214"><ele>96.0</ele><time>2026-04-08T17:49:12Z</time></trkpt><trkpt lat="46.04599938423705" lon="13.208884440896647"><ele>96.0</ele><time>2026-04-08T17:49:12.999Z</time></trkpt><trkpt lat="46.045777973276714" lon="13.209128503029566"><ele>96.5</ele><time>2026-04-08T17:49:13.999Z</time></trkpt><trkpt lat="46.04554751907085" lon="13.209357315310049"><ele>97.0</ele><time>2026-04-08T17:49:14.999Z</time></trkpt><trkpt lat="46.04531223003105" lon="13.209576330300168"><ele>97.0</ele><time>2026-04-08T17:49:15.999Z</time></trkpt><trkpt lat="46.04506890279124" lon="13.209781765310472"><ele>97.0</ele><time>2026-04-08T17:49:16.999Z</time></trkpt><trkpt lat="46.04482103834315" lon="13.209975309804802"><ele>95.0</ele><time>2026-04-08T17:49:17.999Z</time></trkpt><trkpt lat="46.04456713104098" lon="13.210157696440808"><ele>93.0</ele><time>2026-04-08T17:49:18.999Z</time></trkpt><trkpt lat="46.04430888443017" lon="13.210331735027816"><ele>90.0</ele><time>2026-04-08T17:49:19.999Z</time></trkpt><trkpt lat="46.044050231592216" lon="13.21048942922272"><ele>87.0</ele><time>2026-04-08T17:49:20.999Z</time></trkpt><trkpt lat="46.04378799562518" lon="13.210641523202026"><ele>87.5</ele><time>2026-04-08T17:49:21.999Z</time></trkpt><trkpt lat="46.043526766025934" lon="13.210778833277114"><ele>88.0</ele><time>2026-04-08T17:49:22.999Z</time></trkpt><trkpt lat="46.043265227616786" lon="13.210891493175637"><ele>89.0</ele><time>2026-04-08T17:49:23.999Z</time></trkpt><trkpt lat="46.04300203292336" lon="13.210974385214602"><ele>90.0</ele><time>2026-04-08T17:49:24.999Z</time></trkpt><trkpt lat="46.042739022790215" lon="13.211026820768147"><ele>90.0</ele><time>2026-04-08T17:49:25.999Z</time></trkpt><trkpt lat="46.04247836510762" lon="13.211041872453954"><ele>90.0</ele><time>2026-04-08T17:49:26.999Z</time></trkpt><trkpt lat="46.04222352390208" lon="13.211022961535008"><ele>90.5</ele><time>2026-04-08T17:49:27.999Z</time></trkpt><trkpt lat="46.04197152324564" lon="13.210973534123315"><ele>91.0</ele><time>2026-04-08T17:49:28.999Z</time></trkpt><trkpt lat="46.04171927998979" lon="13.210903139097198"><ele>90.5</ele><time>2026-04-08T17:49:29.999Z</time></trkpt><trkpt lat="46.041468582416584" lon="13.210818717904502"><ele>90.0</ele><time>2026-04-08T17:49:30.999Z</time></trkpt><trkpt lat="46.04122100128293" lon="13.21073957337235"><ele>90.0</ele><time>2026-04-08T17:49:31.999Z</time></trkpt><trkpt lat="46.04097168456508" lon="13.210681544289312"><ele>90.0</ele><time>2026-04-08T17:49:32.999Z</time></trkpt><trkpt lat="46.04072429385541" lon="13.21065280262542"><ele>88.5</ele><time>2026-04-08T17:49:33.999Z</time></trkpt><trkpt lat="46.04047709307148" lon="13.210653806628757"><ele>87.0</ele><time>2026-04-08T17:49:34.999Z</time></trkpt><trkpt lat="46.04023452478255" lon="13.210700944720786"><ele>86.5</ele><time>2026-04-08T17:49:35.999Z</time></trkpt><trkpt lat="46.03999554325123" lon="13.210798797400514"><ele>86.0</ele><time>2026-04-08T17:49:36.999Z</time></trkpt><trkpt lat="46.0397652928242" lon="13.21094245360903"><ele>86.0</ele><time>2026-04-08T17:49:37.999Z</time></trkpt><trkpt lat="46.03955120553151" lon="13.211143624083181"><ele>86.0</ele><time>2026-04-08T17:49:38.999Z</time></trkpt><trkpt lat="46.03934833952602" lon="13.211391977358128"><ele>86.0</ele><time>2026-04-08T17:49:39.999Z</time></trkpt><trkpt lat="46.0391601761304" lon="13.211673092049637"><ele>86.0</ele><time>2026-04-08T17:49:40.999Z</time></trkpt><trkpt lat="46.038973521611716" lon="13.211973292162064"><ele>86.0</ele><time>2026-04-08T17:49:41.999Z</time></trkpt><trkpt lat="46.038791018417854" lon="13.212270716912258"><ele>86.0</ele><time>2026-04-08T17:49:42.999Z</time></trkpt><trkpt lat="46.03861052551342" lon="13.212548651508085"><ele>85.0</ele><time>2026-04-08T17:49:43.999Z</time></trkpt><trkpt lat="46.03842730448361" lon="13.212807330723825"><ele>84.0</ele><time>2026-04-08T17:49:44.999Z</time></trkpt><trkpt lat="46.038236641886144" lon="13.213044200986813"><ele>86.0</ele><time>2026-04-08T17:49:45.999Z</time></trkpt><trkpt lat="46.03803246049655" lon="13.213242799219868"><ele>88.0</ele><time>2026-04-08T17:49:46.999Z</time></trkpt><trkpt lat="46.03780731173689" lon="13.21339274767258"><ele>88.0</ele><time>2026-04-08T17:49:47.999Z</time></trkpt><trkpt lat="46.0375628185836" lon="13.213481484214569"><ele>88.0</ele><time>2026-04-08T17:49:48.999Z</time></trkpt><trkpt lat="46.03730370561153" lon="13.213532220533677"><ele>87.5</ele><time>2026-04-08T17:49:49.999Z</time></trkpt><trkpt lat="46.0370263267723" lon="13.213539762771818"><ele>87.0</ele><time>2026-04-08T17:49:50.999Z</time></trkpt><trkpt lat="46.036735921295886" lon="13.213496405166229"><ele>88.0</ele><time>2026-04-08T17:49:51.999Z</time></trkpt><trkpt lat="46.03643614486552" lon="13.213400237697554"><ele>89.0</ele><time>2026-04-08T17:49:52.999Z</time></trkpt><trkpt lat="46.03612762596012" lon="13.213266614667239"><ele>88.0</ele><time>2026-04-08T17:49:53.999Z</time></trkpt><trkpt lat="46.03581491859092" lon="13.213119804385592"><ele>87.0</ele><time>2026-04-08T17:49:54.999Z</time></trkpt><trkpt lat="46.035510809196616" lon="13.212980179210248"><ele>86.5</ele><time>2026-04-08T17:49:55.999Z</time></trkpt><trkpt lat="46.03520714120823" lon="13.212866421315963"><ele>86.0</ele><time>2026-04-08T17:49:56.999Z</time></trkpt><trkpt lat="46.03491097179807" lon="13.212790224057846"><ele>86.0</ele><time>2026-04-08T17:49:57.999Z</time></trkpt><trkpt lat="46.034608905199136" lon="13.212765001833205"><ele>86.0</ele><time>2026-04-08T17:49:58.999Z</time></trkpt><trkpt lat="46.03430803234233" lon="13.21277547410842"><ele>86.5</ele><time>2026-04-08T17:49:59.999Z</time></trkpt><trkpt lat="46.03400623266197" lon="13.21280151916063"><ele>87.0</ele><time>2026-04-08T17:50:00.999Z</time></trkpt><trkpt lat="46.03371117590137" lon="13.212823251885494"><ele>87.0</ele><time>2026-04-08T17:50:01.999Z</time></trkpt><trkpt lat="46.033419649808316" lon="13.212841257965277"><ele>87.0</ele><time>2026-04-08T17:50:02.999Z</time></trkpt><trkpt lat="46.03312733827789" lon="13.212859715797842"><ele>86.5</ele><time>2026-04-08T17:50:03.999Z</time></trkpt><trkpt lat="46.032827716716675" lon="13.212883875006263"><ele>86.0</ele><time>2026-04-08T17:50:04.999Z</time></trkpt><trkpt lat="46.032528291238876" lon="13.212902647895108"><ele>86.0</ele><time>2026-04-08T17:50:05.999Z</time></trkpt><trkpt lat="46.032225788514786" lon="13.212920370725778"><ele>86.0</ele><time>2026-04-08T17:50:06.999Z</time></trkpt><trkpt lat="46.03191994820107" lon="13.212940621148984"><ele>85.5</ele><time>2026-04-08T17:50:07.999Z</time></trkpt><trkpt lat="46.03161080698175" lon="13.212959222312492"><ele>85.0</ele><time>2026-04-08T17:50:08.999Z</time></trkpt><trkpt lat="46.03129868825461" lon="13.212977625915654"><ele>85.0</ele><time>2026-04-08T17:50:09.999Z</time></trkpt><trkpt lat="46.03098513939841" lon="13.212992366945366"><ele>85.0</ele><time>2026-04-08T17:50:10.999Z</time></trkpt><trkpt lat="46.03067219281919" lon="13.213003335568576"><ele>84.5</ele><time>2026-04-08T17:50:11.999Z</time></trkpt><trkpt lat="46.030362039435936" lon="13.213021938558013"><ele>84.0</ele><time>2026-04-08T17:50:12.999Z</time></trkpt><trkpt lat="46.03005557766832" lon="13.213035652774659"><ele>82.5</ele><time>2026-04-08T17:50:13.999Z</time></trkpt><trkpt lat="46.02975516936197" lon="13.213047262047313"><ele>81.0</ele><time>2026-04-08T17:50:14.999Z</time></trkpt><trkpt lat="46.029464143828505" lon="13.213058962103496"><ele>81.0</ele><time>2026-04-08T17:50:15.999Z</time></trkpt><trkpt lat="46.029178931109676" lon="13.2130653657353"><ele>81.0</ele><time>2026-04-08T17:50:16.999Z</time></trkpt><trkpt lat="46.02889404416769" lon="13.213068434350992"><ele>82.0</ele><time>2026-04-08T17:50:17.999Z</time></trkpt><trkpt lat="46.028608346166905" lon="13.213065125054769"><ele>83.0</ele><time>2026-04-08T17:50:18.999Z</time></trkpt><trkpt lat="46.02832080377786" lon="13.213045984801257"><ele>81.5</ele><time>2026-04-08T17:50:19.999Z</time></trkpt><trkpt lat="46.02802866701307" lon="13.213016369726557"><ele>80.0</ele><time>2026-04-08T17:50:20.999Z</time></trkpt><trkpt lat="46.027736225980924" lon="13.212976185923347"><ele>78.5</ele><time>2026-04-08T17:50:21.999Z</time></trkpt><trkpt lat="46.02744491675341" lon="13.21292251634619"><ele>77.0</ele><time>2026-04-08T17:50:22.999Z</time></trkpt><trkpt lat="46.0271534010191" lon="13.212865021907122"><ele>77.0</ele><time>2026-04-08T17:50:23.999Z</time></trkpt><trkpt lat="46.02685944349597" lon="13.212801476425822"><ele>77.0</ele><time>2026-04-08T17:50:24.999Z</time></trkpt><trkpt lat="46.02656525589962" lon="13.212734953348294"><ele>77.5</ele><time>2026-04-08T17:50:25.999Z</time></trkpt><trkpt lat="46.02627735977878" lon="13.212676898312969"><ele>78.0</ele><time>2026-04-08T17:50:26.999Z</time></trkpt><trkpt lat="46.02599670384761" lon="13.212627769089467"><ele>78.0</ele><time>2026-04-08T17:50:27.999Z</time></trkpt><trkpt lat="46.025719176645545" lon="13.212591494046709"><ele>78.0</ele><time>2026-04-08T17:50:28.999Z</time></trkpt><trkpt lat="46.02544130730359" lon="13.21256887655536"><ele>78.0</ele><time>2026-04-08T17:50:29.999Z</time></trkpt><trkpt lat="46.02516234990352" lon="13.21255661905859"><ele>78.0</ele><time>2026-04-08T17:50:30.999Z</time></trkpt><trkpt lat="46.02488235659747" lon="13.212556415947954"><ele>78.5</ele><time>2026-04-08T17:50:31.999Z</time></trkpt><trkpt lat="46.02460499719633" lon="13.212570254414192"><ele>79.0</ele><time>2026-04-08T17:50:32.999Z</time></trkpt><trkpt lat="46.02432898302568" lon="13.212602540558562"><ele>79.0</ele><time>2026-04-08T17:50:33.999Z</time></trkpt><trkpt lat="46.02405479591998" lon="13.212658412987391"><ele>79.0</ele><time>2026-04-08T17:50:34.999Z</time></trkpt><trkpt lat="46.02378498832124" lon="13.212740882055598"><ele>79.0</ele><time>2026-04-08T17:50:35.999Z</time></trkpt><trkpt lat="46.02352855983319" lon="13.212840198112769"><ele>79.0</ele><time>2026-04-08T17:50:36.999Z</time></trkpt><trkpt lat="46.02328475057824" lon="13.21295031570218"><ele>79.5</ele><time>2026-04-08T17:50:37.999Z</time></trkpt><trkpt lat="46.023051511766525" lon="13.213080007861704"><ele>80.0</ele><time>2026-04-08T17:50:38.999Z</time></trkpt><trkpt lat="46.02282780758959" lon="13.21322717080761"><ele>80.0</ele><time>2026-04-08T17:50:39.999Z</time></trkpt><trkpt lat="46.022613323554" lon="13.213387710820713"><ele>80.0</ele><time>2026-04-08T17:50:40.999Z</time></trkpt><trkpt lat="46.022406265567426" lon="13.21355221890444"><ele>80.5</ele><time>2026-04-08T17:50:41.999Z</time></trkpt><trkpt lat="46.02220050284472" lon="13.21372405589056"><ele>81.0</ele><time>2026-04-08T17:50:42.999Z</time></trkpt><trkpt lat="46.02199789918485" lon="13.213898829091884"><ele>81.5</ele><time>2026-04-08T17:50:43.999Z</time></trkpt><trkpt lat="46.021796016049265" lon="13.214070853834794"><ele>82.0</ele><time>2026-04-08T17:50:44.999Z</time></trkpt><trkpt lat="46.0215937292744" lon="13.214244987789941"><ele>81.0</ele><time>2026-04-08T17:50:45.999Z</time></trkpt><trkpt lat="46.02138512550257" lon="13.214420401726592"><ele>80.0</ele><time>2026-04-08T17:50:46.999Z</time></trkpt><trkpt lat="46.02117302744023" lon="13.214598385952268"><ele>80.0</ele><time>2026-04-08T17:50:47.999Z</time></trkpt><trkpt lat="46.02096031060129" lon="13.214778843687125"><ele>80.0</ele><time>2026-04-08T17:50:48.999Z</time></trkpt><trkpt lat="46.02074412598161" lon="13.21495818462867"><ele>79.5</ele><time>2026-04-08T17:50:49.999Z</time></trkpt><trkpt lat="46.02052836984408" lon="13.215137565343916"><ele>79.0</ele><time>2026-04-08T17:50:50.999Z</time></trkpt><trkpt lat="46.02031204131343" lon="13.215319432538"><ele>79.0</ele><time>2026-04-08T17:50:52Z</time></trkpt><trkpt lat="46.02009684121253" lon="13.215503948916155"><ele>79.0</ele><time>2026-04-08T17:50:53Z</time></trkpt><trkpt lat="46.019882033172124" lon="13.215690507868722"><ele>79.0</ele><time>2026-04-08T17:50:54Z</time></trkpt><trkpt lat="46.01966680866576" lon="13.215875974223502"><ele>79.0</ele><time>2026-04-08T17:50:55Z</time></trkpt><trkpt lat="46.01945265820255" lon="13.216065781409881"><ele>79.0</ele><time>2026-04-08T17:50:56Z</time></trkpt><trkpt lat="46.01923976133415" lon="13.216263949135548"><ele>79.0</ele><time>2026-04-08T17:50:57Z</time></trkpt><trkpt lat="46.0190309348638" lon="13.216465322192125"><ele>80.0</ele><time>2026-04-08T17:50:58Z</time></trkpt><trkpt lat="46.01882722461873" lon="13.216678247330542"><ele>81.0</ele><time>2026-04-08T17:50:59Z</time></trkpt><trkpt lat="46.01863058016938" lon="13.21690627831453"><ele>81.0</ele><time>2026-04-08T17:51:00Z</time></trkpt><trkpt lat="46.01843872813814" lon="13.217148414745981"><ele>81.0</ele><time>2026-04-08T17:51:01Z</time></trkpt><trkpt lat="46.01825665920986" lon="13.21739625592715"><ele>81.5</ele><time>2026-04-08T17:51:02Z</time></trkpt><trkpt lat="46.01808553531486" lon="13.217664860383595"><ele>82.0</ele><time>2026-04-08T17:51:03Z</time></trkpt><trkpt lat="46.017937351252925" lon="13.217953737291829"><ele>82.0</ele><time>2026-04-08T17:51:04Z</time></trkpt><trkpt lat="46.017796725640004" lon="13.218259161164264"><ele>82.0</ele><time>2026-04-08T17:51:05Z</time></trkpt><trkpt lat="46.01766199908881" lon="13.218565590181136"><ele>82.0</ele><time>2026-04-08T17:51:06Z</time></trkpt><trkpt lat="46.017532043444795" lon="13.218874005323624"><ele>82.0</ele><time>2026-04-08T17:51:07Z</time></trkpt><trkpt lat="46.01741862525365" lon="13.219193799905645"><ele>81.0</ele><time>2026-04-08T17:51:08Z</time></trkpt><trkpt lat="46.017323883242376" lon="13.219525202956989"><ele>80.0</ele><time>2026-04-08T17:51:09Z</time></trkpt><trkpt lat="46.017240822479316" lon="13.219859974621134"><ele>79.0</ele><time>2026-04-08T17:51:10Z</time></trkpt><trkpt lat="46.01715882691917" lon="13.220191425431542"><ele>78.0</ele><time>2026-04-08T17:51:11Z</time></trkpt><trkpt lat="46.01708086127459" lon="13.220523312457997"><ele>78.0</ele><time>2026-04-08T17:51:12Z</time></trkpt><trkpt lat="46.01700826513369" lon="13.22086035165272"><ele>78.0</ele><time>2026-04-08T17:51:13Z</time></trkpt><trkpt lat="46.01693522379297" lon="13.22120280694791"><ele>78.0</ele><time>2026-04-08T17:51:14Z</time></trkpt><trkpt lat="46.016859683844636" lon="13.221549429505144"><ele>78.0</ele><time>2026-04-08T17:51:15Z</time></trkpt><trkpt lat="46.016779898433185" lon="13.221893629745185"><ele>78.0</ele><time>2026-04-08T17:51:15.999Z</time></trkpt><trkpt lat="46.016700216317595" lon="13.222235152881286"><ele>78.0</ele><time>2026-04-08T17:51:16.999Z</time></trkpt><trkpt lat="46.01661645193329" lon="13.222566482799524"><ele>79.0</ele><time>2026-04-08T17:51:17.999Z</time></trkpt><trkpt lat="46.01652191443617" lon="13.2228903412575"><ele>80.0</ele><time>2026-04-08T17:51:18.999Z</time></trkpt><trkpt lat="46.01642228624832" lon="13.223201768854242"><ele>80.0</ele><time>2026-04-08T17:51:19.999Z</time></trkpt><trkpt lat="46.01631858431578" lon="13.223491812977013"><ele>80.0</ele><time>2026-04-08T17:51:20.999Z</time></trkpt><trkpt lat="46.01620831783032" lon="13.223757112463995"><ele>80.0</ele><time>2026-04-08T17:51:21.999Z</time></trkpt><trkpt lat="46.01609523140681" lon="13.223995772930635"><ele>80.0</ele><time>2026-04-08T17:51:22.999Z</time></trkpt><trkpt lat="46.01598530975754" lon="13.224210209940276"><ele>80.0</ele><time>2026-04-08T17:51:23.999Z</time></trkpt><trkpt lat="46.01587142336547" lon="13.224414087425044"><ele>80.0</ele><time>2026-04-08T17:51:24.999Z</time></trkpt><trkpt lat="46.015755204312775" lon="13.22459926719901"><ele>80.0</ele><time>2026-04-08T17:51:25.999Z</time></trkpt><trkpt lat="46.01564008946551" lon="13.22476859133686"><ele>80.0</ele><time>2026-04-08T17:51:26.999Z</time></trkpt><trkpt lat="46.01552525116799" lon="13.224923747294742"><ele>80.0</ele><time>2026-04-08T17:51:27.999Z</time></trkpt><trkpt lat="46.01540456362494" lon="13.225056695914368"><ele>80.0</ele><time>2026-04-08T17:51:28.999Z</time></trkpt><trkpt lat="46.01528618270991" lon="13.225173550938058"><ele>80.0</ele><time>2026-04-08T17:51:29.999Z</time></trkpt><trkpt lat="46.01517282168837" lon="13.225280332881391"><ele>80.0</ele><time>2026-04-08T17:51:30.999Z</time></trkpt><trkpt lat="46.01506772526508" lon="13.22537404838797"><ele>80.0</ele><time>2026-04-08T17:51:31.999Z</time></trkpt><trkpt lat="46.01496077800408" lon="13.225456992588452"><ele>79.5</ele><time>2026-04-08T17:51:32.999Z</time></trkpt><trkpt lat="46.0148493053753" lon="13.22553111675662"><ele>79.0</ele><time>2026-04-08T17:51:33.999Z</time></trkpt><trkpt lat="46.01473301470259" lon="13.225581794201242"><ele>78.5</ele><time>2026-04-08T17:51:34.999Z</time></trkpt><trkpt lat="46.01461371292601" lon="13.22560577720064"><ele>78.0</ele><time>2026-04-08T17:51:35.999Z</time></trkpt><trkpt lat="46.01448904362864" lon="13.225597008093668"><ele>78.0</ele><time>2026-04-08T17:51:36.999Z</time></trkpt><trkpt lat="46.01437021101046" lon="13.225540258701454"><ele>78.0</ele><time>2026-04-08T17:51:37.999Z</time></trkpt><trkpt lat="46.01426089279944" lon="13.225448935719227"><ele>78.0</ele><time>2026-04-08T17:51:38.999Z</time></trkpt><trkpt lat="46.01416926637031" lon="13.225337260707041"><ele>78.0</ele><time>2026-04-08T17:51:39.999Z</time></trkpt><trkpt lat="46.01409596369012" lon="13.225201925545896"><ele>77.75</ele><time>2026-04-08T17:51:40.999Z</time></trkpt><trkpt lat="46.014044088599384" lon="13.225044646835679"><ele>77.5</ele><time>2026-04-08T17:51:41.999Z</time></trkpt><trkpt lat="46.01401343377436" lon="13.224868217330906"><ele>77.25</ele><time>2026-04-08T17:51:42.999Z</time></trkpt><trkpt lat="46.01400774264554" lon="13.224683318122079"><ele>77.0</ele><time>2026-04-08T17:51:43.999Z</time></trkpt><trkpt lat="46.01403023882253" lon="13.22449782873604"><ele>77.0</ele><time>2026-04-08T17:51:44.999Z</time></trkpt><trkpt lat="46.014079211132405" lon="13.224329416660787"><ele>77.0</ele><time>2026-04-08T17:51:45.999Z</time></trkpt><trkpt lat="46.01414940151687" lon="13.22418083083773"><ele>77.0</ele><time>2026-04-08T17:51:46.999Z</time></trkpt><trkpt lat="46.01424043825075" lon="13.224055859152326"><ele>77.0</ele><time>2026-04-08T17:51:47.999Z</time></trkpt><trkpt lat="46.01434990301229" lon="13.223952955769489"><ele>77.5</ele><time>2026-04-08T17:51:48.999Z</time></trkpt><trkpt lat="46.01447698877433" lon="13.223892670507551"><ele>78.0</ele><time>2026-04-08T17:51:49.999Z</time></trkpt><trkpt lat="46.01461459861731" lon="13.22387367647307"><ele>78.5</ele><time>2026-04-08T17:51:50.999Z</time></trkpt><trkpt lat="46.014752710941046" lon="13.223899268133652"><ele>79.0</ele><time>2026-04-08T17:51:51.999Z</time></trkpt><trkpt lat="46.01488475096394" lon="13.22397423403156"><ele>79.5</ele><time>2026-04-08T17:51:52.999Z</time></trkpt><trkpt lat="46.01500719478088" lon="13.224078416302119"><ele>80.0</ele><time>2026-04-08T17:51:53.999Z</time></trkpt><trkpt lat="46.01511839018979" lon="13.224208939850767"><ele>80.5</ele><time>2026-04-08T17:51:54.999Z</time></trkpt><trkpt lat="46.01521658991164" lon="13.224358461022767"><ele>81.0</ele><time>2026-04-08T17:51:55.999Z</time></trkpt><trkpt lat="46.015308726415924" lon="13.224512834723393"><ele>81.0</ele><time>2026-04-08T17:51:56.999Z</time></trkpt><trkpt lat="46.01539426901461" lon="13.224676326057303"><ele>81.0</ele><time>2026-04-08T17:51:57.999Z</time></trkpt><trkpt lat="46.01547407530039" lon="13.22485343085239"><ele>81.0</ele><time>2026-04-08T17:51:58.999Z</time></trkpt><trkpt lat="46.01554852794819" lon="13.225037206252965"><ele>81.0</ele><time>2026-04-08T17:51:59.999Z</time></trkpt><trkpt lat="46.01562556137634" lon="13.225223236329654"><ele>81.0</ele><time>2026-04-08T17:52:00.999Z</time></trkpt><trkpt lat="46.015707992302126" lon="13.225413541252522"><ele>81.0</ele><time>2026-04-08T17:52:01.999Z</time></trkpt><trkpt lat="46.0157933917304" lon="13.225607654085206"><ele>81.0</ele><time>2026-04-08T17:52:02.999Z</time></trkpt><trkpt lat="46.015881441380685" lon="13.225808916504583"><ele>81.0</ele><time>2026-04-08T17:52:03.999Z</time></trkpt><trkpt lat="46.01596996818864" lon="13.226013516643821"><ele>81.0</ele><time>2026-04-08T17:52:04.999Z</time></trkpt><trkpt lat="46.01606032643163" lon="13.226221587158715"><ele>81.0</ele><time>2026-04-08T17:52:05.999Z</time></trkpt><trkpt lat="46.01614614112798" lon="13.226427299427368"><ele>81.0</ele><time>2026-04-08T17:52:06.999Z</time></trkpt><trkpt lat="46.01623259830412" lon="13.226633371921833"><ele>81.0</ele><time>2026-04-08T17:52:07.999Z</time></trkpt><trkpt lat="46.01631955666025" lon="13.226830538794541"><ele>81.0</ele><time>2026-04-08T17:52:08.999Z</time></trkpt><trkpt lat="46.01639888967101" lon="13.227022525373545"><ele>81.0</ele><time>2026-04-08T17:52:09.999Z</time></trkpt><trkpt lat="46.016475133527756" lon="13.227207412062592"><ele>81.0</ele><time>2026-04-08T17:52:10.999Z</time></trkpt><trkpt lat="46.0165484376054" lon="13.227384645064737"><ele>81.0</ele><time>2026-04-08T17:52:11.999Z</time></trkpt><trkpt lat="46.016620199196375" lon="13.227557445671588"><ele>81.0</ele><time>2026-04-08T17:52:12.999Z</time></trkpt><trkpt lat="46.01669033619021" lon="13.227733976475433"><ele>81.0</ele><time>2026-04-08T17:52:13.999Z</time></trkpt><trkpt lat="46.01675724023033" lon="13.22790395281656"><ele>81.0</ele><time>2026-04-08T17:52:14.999Z</time></trkpt><trkpt lat="46.01682479497982" lon="13.228072408967922"><ele>81.0</ele><time>2026-04-08T17:52:15.999Z</time></trkpt><trkpt lat="46.016894203416875" lon="13.228257017099022"><ele>81.0</ele><time>2026-04-08T17:52:16.999Z</time></trkpt><trkpt lat="46.01696942883197" lon="13.228464112503012"><ele>80.33333333333333</ele><time>2026-04-08T17:52:17.999Z</time></trkpt><trkpt lat="46.017052727093095" lon="13.228699215982347"><ele>79.66666666666666</ele><time>2026-04-08T17:52:18.999Z</time></trkpt><trkpt lat="46.0171264635006" lon="13.22892220619089"><ele>79.0</ele><time>2026-04-08T17:52:19.999Z</time></trkpt><trkpt lat="46.01719635157897" lon="13.229141854354975"><ele>78.66666666666666</ele><time>2026-04-08T17:52:20.999Z</time></trkpt><trkpt lat="46.0172638256587" lon="13.229368679573692"><ele>78.33333333333333</ele><time>2026-04-08T17:52:21.999Z</time></trkpt><trkpt lat="46.0173259550245" lon="13.229595359147499"><ele>78.0</ele><time>2026-04-08T17:52:22.999Z</time></trkpt><trkpt lat="46.017382577793995" lon="13.229824219209577"><ele>78.0</ele><time>2026-04-08T17:52:23.999Z</time></trkpt><trkpt lat="46.017433294712944" lon="13.230054193051025"><ele>78.0</ele><time>2026-04-08T17:52:24.999Z</time></trkpt><trkpt lat="46.01747735496255" lon="13.230271128707358"><ele>78.0</ele><time>2026-04-08T17:52:25.999Z</time></trkpt><trkpt lat="46.017517608807694" lon="13.23049410195841"><ele>78.0</ele><time>2026-04-08T17:52:26.999Z</time></trkpt><trkpt lat="46.017560943417266" lon="13.23074371178675"><ele>78.0</ele><time>2026-04-08T17:52:27.999Z</time></trkpt><trkpt lat="46.01760252886276" lon="13.231003925520993"><ele>78.0</ele><time>2026-04-08T17:52:28.999Z</time></trkpt><trkpt lat="46.01764160814274" lon="13.231264396934716"><ele>78.0</ele><time>2026-04-08T17:52:29.999Z</time></trkpt><trkpt lat="46.01768705024419" lon="13.231574862928339"><ele>78.0</ele><time>2026-04-08T17:52:30.999Z</time></trkpt><trkpt lat="46.01773064834642" lon="13.231944565762907"><ele>78.5</ele><time>2026-04-08T17:52:31.999Z</time></trkpt><trkpt lat="46.017771717226545" lon="13.232331804030649"><ele>79.0</ele><time>2026-04-08T17:52:32.999Z</time></trkpt><trkpt lat="46.01780416037164" lon="13.232708384439533"><ele>79.0</ele><time>2026-04-08T17:52:33.999Z</time></trkpt><trkpt lat="46.01781870143637" lon="13.233071083584406"><ele>79.0</ele><time>2026-04-08T17:52:34.999Z</time></trkpt><trkpt lat="46.0178188096855" lon="13.233453329149347"><ele>78.5</ele><time>2026-04-08T17:52:35.999Z</time></trkpt><trkpt lat="46.01781321958547" lon="13.233868286432514"><ele>78.0</ele><time>2026-04-08T17:52:36.999Z</time></trkpt><trkpt lat="46.017793688425115" lon="13.234328294683136"><ele>78.0</ele><time>2026-04-08T17:52:37.999Z</time></trkpt><trkpt lat="46.01775881076653" lon="13.234803225576332"><ele>78.0</ele><time>2026-04-08T17:52:38.999Z</time></trkpt><trkpt lat="46.017713557771124" lon="13.235270708210376"><ele>78.5</ele><time>2026-04-08T17:52:39.999Z</time></trkpt><trkpt lat="46.01765992246931" lon="13.23573075018962"><ele>79.0</ele><time>2026-04-08T17:52:40.999Z</time></trkpt><trkpt lat="46.01759182259195" lon="13.236182347294292"><ele>79.0</ele><time>2026-04-08T17:52:41.999Z</time></trkpt><trkpt lat="46.01750903519634" lon="13.236621550667047"><ele>79.0</ele><time>2026-04-08T17:52:42.999Z</time></trkpt><trkpt lat="46.017419627509234" lon="13.237058065506977"><ele>78.0</ele><time>2026-04-08T17:52:43.999Z</time></trkpt><trkpt lat="46.01732979138185" lon="13.237492863017039"><ele>77.0</ele><time>2026-04-08T17:52:44.999Z</time></trkpt><trkpt lat="46.01723863681424" lon="13.237933511160596"><ele>77.0</ele><time>2026-04-08T17:52:45.999Z</time></trkpt><trkpt lat="46.017150102724486" lon="13.238419074215404"><ele>77.0</ele><time>2026-04-08T17:52:46.999Z</time></trkpt><trkpt lat="46.01706053490054" lon="13.238913470713197"><ele>76.5</ele><time>2026-04-08T17:52:47.999Z</time></trkpt><trkpt lat="46.01696112270466" lon="13.23941671671956"><ele>76.0</ele><time>2026-04-08T17:52:48.999Z</time></trkpt><trkpt lat="46.01686558093469" lon="13.239927794784272"><ele>76.0</ele><time>2026-04-08T17:52:49.999Z</time></trkpt><trkpt lat="46.01676857919003" lon="13.240443190338059"><ele>76.0</ele><time>2026-04-08T17:52:50.999Z</time></trkpt><trkpt lat="46.016671106068436" lon="13.240958345560532"><ele>77.0</ele><time>2026-04-08T17:52:51.999Z</time></trkpt><trkpt lat="46.01657400243123" lon="13.241470439230334"><ele>78.0</ele><time>2026-04-08T17:52:52.999Z</time></trkpt><trkpt lat="46.01647819504308" lon="13.241979024305946"><ele>79.0</ele><time>2026-04-08T17:52:53.999Z</time></trkpt><trkpt lat="46.01638295360795" lon="13.242485503174564"><ele>80.0</ele><time>2026-04-08T17:52:54.999Z</time></trkpt><trkpt lat="46.016289549352585" lon="13.242981069133513"><ele>78.5</ele><time>2026-04-08T17:52:55.999Z</time></trkpt><trkpt lat="46.01619860726745" lon="13.243466606501055"><ele>77.0</ele><time>2026-04-08T17:52:56.999Z</time></trkpt><trkpt lat="46.01610825471588" lon="13.243950319495893"><ele>77.5</ele><time>2026-04-08T17:52:58Z</time></trkpt><trkpt lat="46.01602193851183" lon="13.24443286257718"><ele>78.0</ele><time>2026-04-08T17:52:59Z</time></trkpt><trkpt lat="46.015938175466886" lon="13.244910663496237"><ele>79.0</ele><time>2026-04-08T17:53:00Z</time></trkpt><trkpt lat="46.01585874155354" lon="13.245388848964016"><ele>80.0</ele><time>2026-04-08T17:53:01Z</time></trkpt><trkpt lat="46.015780804988516" lon="13.245871884264464"><ele>80.0</ele><time>2026-04-08T17:53:02Z</time></trkpt><trkpt lat="46.01570557741343" lon="13.246358287984915"><ele>80.0</ele><time>2026-04-08T17:53:03Z</time></trkpt><trkpt lat="46.01563453342252" lon="13.246845181057642"><ele>76.5</ele><time>2026-04-08T17:53:04Z</time></trkpt><trkpt lat="46.015570581448685" lon="13.247334452663477"><ele>73.0</ele><time>2026-04-08T17:53:05Z</time></trkpt><trkpt lat="46.015512396932714" lon="13.247826779133161"><ele>74.0</ele><time>2026-04-08T17:53:06Z</time></trkpt><trkpt lat="46.01546183123913" lon="13.248318881339463"><ele>75.0</ele><time>2026-04-08T17:53:07Z</time></trkpt><trkpt lat="46.01542127491982" lon="13.248812501097003"><ele>75.5</ele><time>2026-04-08T17:53:08Z</time></trkpt><trkpt lat="46.01539043004426" lon="13.249301093327725"><ele>76.0</ele><time>2026-04-08T17:53:09Z</time></trkpt><trkpt lat="46.01537103938171" lon="13.24978400398785"><ele>76.5</ele><time>2026-04-08T17:53:10Z</time></trkpt><trkpt lat="46.01535827740995" lon="13.250272662536966"><ele>77.0</ele><time>2026-04-08T17:53:11Z</time></trkpt><trkpt lat="46.01535461507146" lon="13.250758755052152"><ele>76.0</ele><time>2026-04-08T17:53:12Z</time></trkpt><trkpt lat="46.01536335504546" lon="13.251237098503907"><ele>75.0</ele><time>2026-04-08T17:53:13Z</time></trkpt><trkpt lat="46.01538000365874" lon="13.251697869058017"><ele>75.0</ele><time>2026-04-08T17:53:14Z</time></trkpt><trkpt lat="46.015415682171536" lon="13.25214158178928"><ele>75.0</ele><time>2026-04-08T17:53:15Z</time></trkpt><trkpt lat="46.01546160210092" lon="13.252588394869646"><ele>75.5</ele><time>2026-04-08T17:53:16Z</time></trkpt><trkpt lat="46.01551282905754" lon="13.253045304013444"><ele>76.0</ele><time>2026-04-08T17:53:17Z</time></trkpt><trkpt lat="46.01556604855522" lon="13.25349818974733"><ele>76.5</ele><time>2026-04-08T17:53:18Z</time></trkpt><trkpt lat="46.01562631773169" lon="13.253950167084108"><ele>77.0</ele><time>2026-04-08T17:53:18.999Z</time></trkpt><trkpt lat="46.0156939988427" lon="13.254395237642493"><ele>76.5</ele><time>2026-04-08T17:53:19.999Z</time></trkpt><trkpt lat="46.01576791181605" lon="13.254827008641053"><ele>76.0</ele><time>2026-04-08T17:53:20.999Z</time></trkpt><trkpt lat="46.0158451323409" lon="13.255245536042546"><ele>75.0</ele><time>2026-04-08T17:53:21.999Z</time></trkpt><trkpt lat="46.01592425021572" lon="13.25565519423569"><ele>74.0</ele><time>2026-04-08T17:53:22.999Z</time></trkpt><trkpt lat="46.01600920003501" lon="13.25605770009863"><ele>74.0</ele><time>2026-04-08T17:53:23.999Z</time></trkpt><trkpt lat="46.01610060740176" lon="13.256445139985997"><ele>74.0</ele><time>2026-04-08T17:53:24.999Z</time></trkpt><trkpt lat="46.01619875493576" lon="13.256824383796694"><ele>75.5</ele><time>2026-04-08T17:53:25.999Z</time></trkpt><trkpt lat="46.01630508277602" lon="13.257196873304572"><ele>77.0</ele><time>2026-04-08T17:53:26.999Z</time></trkpt><trkpt lat="46.01641529623678" lon="13.257564795877093"><ele>77.5</ele><time>2026-04-08T17:53:27.999Z</time></trkpt><trkpt lat="46.016530362011075" lon="13.257927491651174"><ele>78.0</ele><time>2026-04-08T17:53:28.999Z</time></trkpt><trkpt lat="46.01664730273167" lon="13.258288021831873"><ele>78.5</ele><time>2026-04-08T17:53:29.999Z</time></trkpt><trkpt lat="46.01676661044011" lon="13.258645118228518"><ele>79.0</ele><time>2026-04-08T17:53:30.999Z</time></trkpt><trkpt lat="46.016891368870276" lon="13.259000500316416"><ele>79.5</ele><time>2026-04-08T17:53:31.999Z</time></trkpt><trkpt lat="46.017017465809744" lon="13.259351187569484"><ele>80.0</ele><time>2026-04-08T17:53:32.999Z</time></trkpt><trkpt lat="46.01715063585016" lon="13.259698751351225"><ele>79.5</ele><time>2026-04-08T17:53:33.999Z</time></trkpt><trkpt lat="46.017288154363605" lon="13.260045194529663"><ele>79.0</ele><time>2026-04-08T17:53:34.999Z</time></trkpt><trkpt lat="46.017422549833235" lon="13.260401247641092"><ele>78.5</ele><time>2026-04-08T17:53:35.999Z</time></trkpt><trkpt lat="46.01755170299125" lon="13.26076010003213"><ele>78.0</ele><time>2026-04-08T17:53:36.999Z</time></trkpt><trkpt lat="46.01768726688764" lon="13.26111861156074"><ele>78.0</ele><time>2026-04-08T17:53:37.999Z</time></trkpt><trkpt lat="46.01782339209975" lon="13.261478714280583"><ele>78.0</ele><time>2026-04-08T17:53:38.999Z</time></trkpt><trkpt lat="46.017959753863536" lon="13.261841653510224"><ele>78.0</ele><time>2026-04-08T17:53:39.999Z</time></trkpt><trkpt lat="46.01809615798465" lon="13.26220812786276"><ele>78.0</ele><time>2026-04-08T17:53:40.999Z</time></trkpt><trkpt lat="46.018230258132924" lon="13.26257701488516"><ele>79.0</ele><time>2026-04-08T17:53:41.999Z</time></trkpt><trkpt lat="46.01836501098406" lon="13.262946268635782"><ele>80.0</ele><time>2026-04-08T17:53:42.999Z</time></trkpt><trkpt lat="46.018502098343745" lon="13.2633149771665"><ele>80.0</ele><time>2026-04-08T17:53:43.999Z</time></trkpt><trkpt lat="46.018635844765704" lon="13.263676677464861"><ele>80.0</ele><time>2026-04-08T17:53:44.999Z</time></trkpt><trkpt lat="46.018762016652914" lon="13.264019639834915"><ele>80.5</ele><time>2026-04-08T17:53:45.999Z</time></trkpt><trkpt lat="46.018878331811266" lon="13.264347118244048"><ele>81.0</ele><time>2026-04-08T17:53:46.999Z</time></trkpt><trkpt lat="46.018985502928324" lon="13.26467343324594"><ele>80.66666666666667</ele><time>2026-04-08T17:53:47.999Z</time></trkpt><trkpt lat="46.01907735384863" lon="13.2649802675555"><ele>80.33333333333334</ele><time>2026-04-08T17:53:48.999Z</time></trkpt><trkpt lat="46.019159366154824" lon="13.26526937438341"><ele>80.0</ele><time>2026-04-08T17:53:49.999Z</time></trkpt><trkpt lat="46.01923583826664" lon="13.265559416278425"><ele>79.66666666666667</ele><time>2026-04-08T17:53:50.999Z</time></trkpt><trkpt lat="46.019307158771014" lon="13.265848645492687"><ele>79.33333333333333</ele><time>2026-04-08T17:53:51.999Z</time></trkpt><trkpt lat="46.01937178108874" lon="13.266122057263683"><ele>79.0</ele><time>2026-04-08T17:53:52.999Z</time></trkpt><trkpt lat="46.01943024623433" lon="13.266383098171158"><ele>79.75</ele><time>2026-04-08T17:53:53.999Z</time></trkpt><trkpt lat="46.019480857799905" lon="13.266613362884092"><ele>80.5</ele><time>2026-04-08T17:53:54.999Z</time></trkpt><trkpt lat="46.019521606192335" lon="13.266806123377744"><ele>81.25</ele><time>2026-04-08T17:53:55.999Z</time></trkpt><trkpt lat="46.019536353661636" lon="13.266973746051995"><ele>82.0</ele><time>2026-04-08T17:53:56.999Z</time></trkpt><trkpt lat="46.01951792167733" lon="13.267113658459625"><ele>82.0</ele><time>2026-04-08T17:53:57.999Z</time></trkpt><trkpt lat="46.01947027939838" lon="13.267244074442027"><ele>82.0</ele><time>2026-04-08T17:53:58.999Z</time></trkpt><trkpt lat="46.01938601637227" lon="13.267399403078985"><ele>82.0</ele><time>2026-04-08T17:53:59.999Z</time></trkpt><trkpt lat="46.019279724376204" lon="13.267572247400768"><ele>82.0</ele><time>2026-04-08T17:54:00.999Z</time></trkpt><trkpt lat="46.01917150862404" lon="13.267763945394481"><ele>81.75</ele><time>2026-04-08T17:54:01.999Z</time></trkpt><trkpt lat="46.01910046438015" lon="13.267948740436704"><ele>81.5</ele><time>2026-04-08T17:54:02.999Z</time></trkpt><trkpt lat="46.019059345296135" lon="13.268148494446477"><ele>81.25</ele><time>2026-04-08T17:54:03.999Z</time></trkpt><trkpt lat="46.019044121456986" lon="13.268348481331286"><ele>81.0</ele><time>2026-04-08T17:54:04.999Z</time></trkpt><trkpt lat="46.0190195002976" lon="13.268540533955953"><ele>81.0</ele><time>2026-04-08T17:54:05.999Z</time></trkpt><trkpt lat="46.01895094198853" lon="13.268723953240382"><ele>81.0</ele><time>2026-04-08T17:54:06.999Z</time></trkpt><trkpt lat="46.01884224913999" lon="13.268876771779977"><ele>81.0</ele><time>2026-04-08T17:54:07.999Z</time></trkpt><trkpt lat="46.01869827384426" lon="13.268988006933782"><ele>81.0</ele><time>2026-04-08T17:54:08.999Z</time></trkpt><trkpt lat="46.01852452072309" lon="13.26905878390357"><ele>81.0</ele><time>2026-04-08T17:54:09.999Z</time></trkpt><trkpt lat="46.018334283211836" lon="13.269110046500362"><ele>81.0</ele><time>2026-04-08T17:54:10.999Z</time></trkpt><trkpt lat="46.01812765428833" lon="13.269167036166877"><ele>80.0</ele><time>2026-04-08T17:54:11.999Z</time></trkpt><trkpt lat="46.01791112885663" lon="13.269228120196845"><ele>79.0</ele><time>2026-04-08T17:54:12.999Z</time></trkpt><trkpt lat="46.01768371793931" lon="13.269291585416711"><ele>79.5</ele><time>2026-04-08T17:54:13.999Z</time></trkpt><trkpt lat="46.01745118075757" lon="13.269354248937763"><ele>80.0</ele><time>2026-04-08T17:54:14.999Z</time></trkpt><trkpt lat="46.01722328332586" lon="13.26941749955557"><ele>80.0</ele><time>2026-04-08T17:54:15.999Z</time></trkpt><trkpt lat="46.01699444313274" lon="13.269483615446003"><ele>80.0</ele><time>2026-04-08T17:54:16.999Z</time></trkpt><trkpt lat="46.01676571786629" lon="13.26954665284691"><ele>79.5</ele><time>2026-04-08T17:54:17.999Z</time></trkpt><trkpt lat="46.01653653332515" lon="13.269611337647966"><ele>79.0</ele><time>2026-04-08T17:54:18.999Z</time></trkpt><trkpt lat="46.016308516042535" lon="13.269676417507833"><ele>79.0</ele><time>2026-04-08T17:54:19.999Z</time></trkpt><trkpt lat="46.01608189902853" lon="13.269740439218634"><ele>79.0</ele><time>2026-04-08T17:54:20.999Z</time></trkpt><trkpt lat="46.015856438839016" lon="13.269803833392649"><ele>79.0</ele><time>2026-04-08T17:54:21.999Z</time></trkpt><trkpt lat="46.015634496978876" lon="13.269865872265388"><ele>79.0</ele><time>2026-04-08T17:54:22.999Z</time></trkpt><trkpt lat="46.01541427536461" lon="13.269926445811594"><ele>79.0</ele><time>2026-04-08T17:54:23.999Z</time></trkpt><trkpt lat="46.01519765464218" lon="13.269985480405365"><ele>79.0</ele><time>2026-04-08T17:54:24.999Z</time></trkpt><trkpt lat="46.01498686782299" lon="13.2700447040304"><ele>79.0</ele><time>2026-04-08T17:54:25.999Z</time></trkpt><trkpt lat="46.01477760339367" lon="13.270100539740056"><ele>78.5</ele><time>2026-04-08T17:54:26.999Z</time></trkpt><trkpt lat="46.014560665241845" lon="13.27016101657644"><ele>78.0</ele><time>2026-04-08T17:54:27.999Z</time></trkpt><trkpt lat="46.01433228913488" lon="13.270206997722712"><ele>77.5</ele><time>2026-04-08T17:54:28.999Z</time></trkpt><trkpt lat="46.014095575289026" lon="13.270271890153078"><ele>77.0</ele><time>2026-04-08T17:54:29.999Z</time></trkpt><trkpt lat="46.013872937051325" lon="13.270332192414644"><ele>77.0</ele><time>2026-04-08T17:54:30.999Z</time></trkpt><trkpt lat="46.013679967575484" lon="13.270395033170374"><ele>77.0</ele><time>2026-04-08T17:54:31.999Z</time></trkpt><trkpt lat="46.01351388155674" lon="13.270395244018673"><ele>77.0</ele><time>2026-04-08T17:54:32.999Z</time></trkpt><trkpt lat="46.01336271362196" lon="13.270343745842789"><ele>76.25</ele><time>2026-04-08T17:54:33.999Z</time></trkpt><trkpt lat="46.01322181840845" lon="13.270243546931374"><ele>75.5</ele><time>2026-04-08T17:54:34.999Z</time></trkpt><trkpt lat="46.01310095021238" lon="13.270120382815787"><ele>74.75</ele><time>2026-04-08T17:54:35.999Z</time></trkpt><trkpt lat="46.01297290230065" lon="13.270041124976117"><ele>74.0</ele><time>2026-04-08T17:54:36.999Z</time></trkpt><trkpt lat="46.012838815947106" lon="13.27000797908166"><ele>74.0</ele><time>2026-04-08T17:54:37.999Z</time></trkpt><trkpt lat="46.01270002529139" lon="13.270037075750263"><ele>74.0</ele><time>2026-04-08T17:54:38.999Z</time></trkpt><trkpt lat="46.01257541658293" lon="13.27013259349799"><ele>74.0</ele><time>2026-04-08T17:54:39.999Z</time></trkpt><trkpt lat="46.01246915015557" lon="13.270279468816762"><ele>74.0</ele><time>2026-04-08T17:54:40.999Z</time></trkpt><trkpt lat="46.01238826380001" lon="13.27044853040623"><ele>74.25</ele><time>2026-04-08T17:54:41.999Z</time></trkpt><trkpt lat="46.012380439608" lon="13.27066778267357"><ele>74.5</ele><time>2026-04-08T17:54:42.999Z</time></trkpt><trkpt lat="46.01241102499557" lon="13.27087641343306"><ele>74.75</ele><time>2026-04-08T17:54:43.999Z</time></trkpt><trkpt lat="46.01248232448748" lon="13.27106342711643"><ele>75.0</ele><time>2026-04-08T17:54:44.999Z</time></trkpt><trkpt lat="46.01259641804012" lon="13.271219615494326"><ele>75.0</ele><time>2026-04-08T17:54:45.999Z</time></trkpt><trkpt lat="46.01271811835225" lon="13.271393160782763"><ele>75.0</ele><time>2026-04-08T17:54:46.999Z</time></trkpt><trkpt lat="46.01281266560715" lon="13.271602242144764"><ele>75.0</ele><time>2026-04-08T17:54:47.999Z</time></trkpt><trkpt lat="46.01286372168248" lon="13.271847259489473"><ele>75.33333333333333</ele><time>2026-04-08T17:54:48.999Z</time></trkpt><trkpt lat="46.012870473511576" lon="13.272123350656504"><ele>75.66666666666666</ele><time>2026-04-08T17:54:49.999Z</time></trkpt><trkpt lat="46.01285737092932" lon="13.272460910805252"><ele>76.0</ele><time>2026-04-08T17:54:50.999Z</time></trkpt><trkpt lat="46.01284616392006" lon="13.272828758792517"><ele>76.5</ele><time>2026-04-08T17:54:51.999Z</time></trkpt><trkpt lat="46.01283301649978" lon="13.273179918066973"><ele>77.0</ele><time>2026-04-08T17:54:52.999Z</time></trkpt><trkpt lat="46.01282396408945" lon="13.27349556598401"><ele>77.0</ele><time>2026-04-08T17:54:53.999Z</time></trkpt><trkpt lat="46.01280442344929" lon="13.273784231257999"><ele>77.0</ele><time>2026-04-08T17:54:54.999Z</time></trkpt><trkpt lat="46.01275428691253" lon="13.274057814650071"><ele>77.0</ele><time>2026-04-08T17:54:55.999Z</time></trkpt><trkpt lat="46.01267214978136" lon="13.274320776088203"><ele>77.0</ele><time>2026-04-08T17:54:56.999Z</time></trkpt><trkpt lat="46.01255695915377" lon="13.27455670404002"><ele>77.0</ele><time>2026-04-08T17:54:57.999Z</time></trkpt><trkpt lat="46.012415259139026" lon="13.27475742509412"><ele>77.0</ele><time>2026-04-08T17:54:58.999Z</time></trkpt><trkpt lat="46.012248890814895" lon="13.2749304371442"><ele>76.66666666666667</ele><time>2026-04-08T17:54:59.999Z</time></trkpt><trkpt lat="46.01206367477147" lon="13.275095026782708"><ele>76.33333333333333</ele><time>2026-04-08T17:55:00.999Z</time></trkpt><trkpt lat="46.01186982282617" lon="13.27527242078578"><ele>76.0</ele><time>2026-04-08T17:55:01.999Z</time></trkpt><trkpt lat="46.01168073741302" lon="13.27545362908427"><ele>76.0</ele><time>2026-04-08T17:55:02.999Z</time></trkpt><trkpt lat="46.01149409340662" lon="13.275631483896353"><ele>76.0</ele><time>2026-04-08T17:55:04Z</time></trkpt><trkpt lat="46.011312223385794" lon="13.275805153418272"><ele>76.0</ele><time>2026-04-08T17:55:05Z</time></trkpt><trkpt lat="46.011135423390904" lon="13.275974919540865"><ele>76.0</ele><time>2026-04-08T17:55:06Z</time></trkpt><trkpt lat="46.010960209544045" lon="13.27614485706544"><ele>76.0</ele><time>2026-04-08T17:55:07Z</time></trkpt><trkpt lat="46.01078285278362" lon="13.276327895922712"><ele>76.0</ele><time>2026-04-08T17:55:08Z</time></trkpt><trkpt lat="46.010611726841645" lon="13.276524092328334"><ele>75.33333333333333</ele><time>2026-04-08T17:55:09Z</time></trkpt><trkpt lat="46.01045949634285" lon="13.276717411709171"><ele>74.66666666666667</ele><time>2026-04-08T17:55:10Z</time></trkpt><trkpt lat="46.01031312677752" lon="13.27691102995717"><ele>74.0</ele><time>2026-04-08T17:55:11Z</time></trkpt><trkpt lat="46.01016361110547" lon="13.27708607984937"><ele>74.0</ele><time>2026-04-08T17:55:12Z</time></trkpt><trkpt lat="46.01001011347708" lon="13.277233866038422"><ele>74.0</ele><time>2026-04-08T17:55:13Z</time></trkpt><trkpt lat="46.0098408287476" lon="13.277356481217321"><ele>74.0</ele><time>2026-04-08T17:55:14Z</time></trkpt><trkpt lat="46.00967027372739" lon="13.277468378651504"><ele>74.66666666666667</ele><time>2026-04-08T17:55:15Z</time></trkpt><trkpt lat="46.009507335192" lon="13.277569758120656"><ele>75.33333333333333</ele><time>2026-04-08T17:55:16Z</time></trkpt><trkpt lat="46.009341355602935" lon="13.277671963350764"><ele>76.0</ele><time>2026-04-08T17:55:17Z</time></trkpt><trkpt lat="46.00918623375224" lon="13.277770663704091"><ele>76.0</ele><time>2026-04-08T17:55:18Z</time></trkpt><trkpt lat="46.00905052329175" lon="13.277853299440197"><ele>76.0</ele><time>2026-04-08T17:55:19Z</time></trkpt><trkpt lat="46.00891943858552" lon="13.27793693318736"><ele>76.0</ele><time>2026-04-08T17:55:20Z</time></trkpt><trkpt lat="46.00879426156765" lon="13.278028823749468"><ele>76.0</ele><time>2026-04-08T17:55:21Z</time></trkpt><trkpt lat="46.00867922470432" lon="13.278139659805852"><ele>76.0</ele><time>2026-04-08T17:55:22Z</time></trkpt><trkpt lat="46.00857486971352" lon="13.27828021521277"><ele>76.0</ele><time>2026-04-08T17:55:22.999Z</time></trkpt><trkpt lat="46.00849188152828" lon="13.278470402067446"><ele>76.0</ele><time>2026-04-08T17:55:23.999Z</time></trkpt><trkpt lat="46.008431983959" lon="13.278684002529996"><ele>76.0</ele><time>2026-04-08T17:55:24.999Z</time></trkpt><trkpt lat="46.00838761309634" lon="13.278910487992368"><ele>76.0</ele><time>2026-04-08T17:55:25.999Z</time></trkpt><trkpt lat="46.008368309312196" lon="13.279156039415797"><ele>76.0</ele><time>2026-04-08T17:55:26.999Z</time></trkpt><trkpt lat="46.008362499704006" lon="13.27942333715035"><ele>75.0</ele><time>2026-04-08T17:55:27.999Z</time></trkpt><trkpt lat="46.00834275167567" lon="13.279704764042414"><ele>74.0</ele><time>2026-04-08T17:55:28.999Z</time></trkpt><trkpt lat="46.008309363261176" lon="13.279987458140596"><ele>73.0</ele><time>2026-04-08T17:55:29.999Z</time></trkpt><trkpt lat="46.00825606794065" lon="13.28026910987496"><ele>73.0</ele><time>2026-04-08T17:55:30.999Z</time></trkpt><trkpt lat="46.008177652268806" lon="13.280554783493411"><ele>73.0</ele><time>2026-04-08T17:55:31.999Z</time></trkpt><trkpt lat="46.00808280261669" lon="13.280840225410762"><ele>73.0</ele><time>2026-04-08T17:55:32.999Z</time></trkpt><trkpt lat="46.00796921667014" lon="13.281131766694674"><ele>73.5</ele><time>2026-04-08T17:55:33.999Z</time></trkpt><trkpt lat="46.00783676382753" lon="13.281447896516404"><ele>74.0</ele><time>2026-04-08T17:55:34.999Z</time></trkpt><trkpt lat="46.00767330527207" lon="13.28180872596262"><ele>73.0</ele><time>2026-04-08T17:55:35.999Z</time></trkpt><trkpt lat="46.00748663324242" lon="13.282255459591314"><ele>72.0</ele><time>2026-04-08T17:55:36.999Z</time></trkpt><trkpt lat="46.00727978992651" lon="13.282748389620634"><ele>71.5</ele><time>2026-04-08T17:55:37.999Z</time></trkpt><trkpt lat="46.00706603792252" lon="13.283256292876311"><ele>71.0</ele><time>2026-04-08T17:55:38.999Z</time></trkpt><trkpt lat="46.00688057938299" lon="13.28369746854422"><ele>70.5</ele><time>2026-04-08T17:55:39.999Z</time></trkpt><trkpt lat="46.00672063415106" lon="13.284123714099065"><ele>70.0</ele><time>2026-04-08T17:55:40.999Z</time></trkpt><trkpt lat="46.00652935471643" lon="13.284500606972447"><ele>69.5</ele><time>2026-04-08T17:55:41.999Z</time></trkpt><trkpt lat="46.006292440621145" lon="13.284816746362841"><ele>69.0</ele><time>2026-04-08T17:55:42.999Z</time></trkpt><trkpt lat="46.00604405872321" lon="13.28515330230072"><ele>69.5</ele><time>2026-04-08T17:55:43.999Z</time></trkpt><trkpt lat="46.005786327083506" lon="13.28552202232419"><ele>70.0</ele><time>2026-04-08T17:55:44.999Z</time></trkpt><trkpt lat="46.00551056261628" lon="13.285892159840408"><ele>70.0</ele><time>2026-04-08T17:55:45.999Z</time></trkpt><trkpt lat="46.005230791478375" lon="13.286275482858489"><ele>70.0</ele><time>2026-04-08T17:55:46.999Z</time></trkpt><trkpt lat="46.004942817955644" lon="13.286650055287947"><ele>69.0</ele><time>2026-04-08T17:55:47.999Z</time></trkpt><trkpt lat="46.00468168462672" lon="13.287077132594307"><ele>68.0</ele><time>2026-04-08T17:55:48.999Z</time></trkpt><trkpt lat="46.00441937115902" lon="13.287510235709336"><ele>68.0</ele><time>2026-04-08T17:55:49.999Z</time></trkpt><trkpt lat="46.004165663975066" lon="13.287945343820422"><ele>68.0</ele><time>2026-04-08T17:55:50.999Z</time></trkpt><trkpt lat="46.00391585502" lon="13.288362770174032"><ele>68.5</ele><time>2026-04-08T17:55:51.999Z</time></trkpt><trkpt lat="46.003670938307295" lon="13.288768581932645"><ele>69.0</ele><time>2026-04-08T17:55:52.999Z</time></trkpt><trkpt lat="46.003438821464734" lon="13.289162285598083"><ele>68.0</ele><time>2026-04-08T17:55:53.999Z</time></trkpt><trkpt lat="46.00322111953499" lon="13.289529790595152"><ele>67.0</ele><time>2026-04-08T17:55:54.999Z</time></trkpt><trkpt lat="46.00300618911445" lon="13.289889643251096"><ele>67.0</ele><time>2026-04-08T17:55:55.999Z</time></trkpt><trkpt lat="46.002794266788214" lon="13.290238508413989"><ele>67.0</ele><time>2026-04-08T17:55:56.999Z</time></trkpt><trkpt lat="46.0025805692168" lon="13.290568338382796"><ele>68.0</ele><time>2026-04-08T17:55:57.999Z</time></trkpt><trkpt lat="46.002347196064065" lon="13.290876879146849"><ele>69.0</ele><time>2026-04-08T17:55:58.999Z</time></trkpt><trkpt lat="46.0020843833078" lon="13.291182041821944"><ele>68.5</ele><time>2026-04-08T17:55:59.999Z</time></trkpt><trkpt lat="46.00181461565966" lon="13.291493708569057"><ele>68.0</ele><time>2026-04-08T17:56:00.999Z</time></trkpt><trkpt lat="46.00155821204092" lon="13.291784318606869"><ele>68.0</ele><time>2026-04-08T17:56:01.999Z</time></trkpt><trkpt lat="46.00131865930037" lon="13.292051159778385"><ele>68.0</ele><time>2026-04-08T17:56:02.999Z</time></trkpt><trkpt lat="46.00109859159754" lon="13.292298196184932"><ele>67.5</ele><time>2026-04-08T17:56:03.999Z</time></trkpt><trkpt lat="46.00090254159499" lon="13.292522066690006"><ele>67.0</ele><time>2026-04-08T17:56:04.999Z</time></trkpt><trkpt lat="46.00071856962891" lon="13.292752719320507"><ele>67.0</ele><time>2026-04-08T17:56:05.999Z</time></trkpt><trkpt lat="46.00056045512065" lon="13.292993019721976"><ele>67.0</ele><time>2026-04-08T17:56:06.999Z</time></trkpt><trkpt lat="46.00042475119518" lon="13.293257627743921"><ele>67.5</ele><time>2026-04-08T17:56:07.999Z</time></trkpt><trkpt lat="46.00031591160811" lon="13.293565235197145"><ele>68.0</ele><time>2026-04-08T17:56:08.999Z</time></trkpt><trkpt lat="46.000228983778506" lon="13.293920916364113"><ele>67.0</ele><time>2026-04-08T17:56:09.999Z</time></trkpt><trkpt lat="46.00015085807419" lon="13.294305528795526"><ele>66.0</ele><time>2026-04-08T17:56:10.999Z</time></trkpt><trkpt lat="46.00007082087049" lon="13.294698281201432"><ele>65.5</ele><time>2026-04-08T17:56:11.999Z</time></trkpt><trkpt lat="45.999984989353834" lon="13.295095359553896"><ele>65.0</ele><time>2026-04-08T17:56:12.999Z</time></trkpt><trkpt lat="45.99990011064974" lon="13.295491172583441"><ele>66.0</ele><time>2026-04-08T17:56:13.999Z</time></trkpt><trkpt lat="45.99981703774224" lon="13.29588204029963"><ele>67.0</ele><time>2026-04-08T17:56:14.999Z</time></trkpt><trkpt lat="45.99973532844997" lon="13.296268133989404"><ele>67.0</ele><time>2026-04-08T17:56:15.999Z</time></trkpt><trkpt lat="45.999658850616434" lon="13.296635836167436"><ele>67.0</ele><time>2026-04-08T17:56:16.999Z</time></trkpt><trkpt lat="45.999586576370206" lon="13.296977302430971"><ele>66.33333333333333</ele><time>2026-04-08T17:56:17.999Z</time></trkpt><trkpt lat="45.99951667977992" lon="13.29729125131419"><ele>65.66666666666667</ele><time>2026-04-08T17:56:18.999Z</time></trkpt><trkpt lat="45.99945018290339" lon="13.297579549426903"><ele>65.0</ele><time>2026-04-08T17:56:19.999Z</time></trkpt><trkpt lat="45.9993878692395" lon="13.29785463840824"><ele>65.66666666666667</ele><time>2026-04-08T17:56:20.999Z</time></trkpt><trkpt lat="45.999327357727736" lon="13.298121949178563"><ele>66.33333333333333</ele><time>2026-04-08T17:56:21.999Z</time></trkpt><trkpt lat="45.999268693575225" lon="13.298383312211547"><ele>67.0</ele><time>2026-04-08T17:56:22.999Z</time></trkpt><trkpt lat="45.99921180054637" lon="13.298629203335318"><ele>66.66666666666666</ele><time>2026-04-08T17:56:23.999Z</time></trkpt><trkpt lat="45.99916208256664" lon="13.298850456836421"><ele>66.33333333333333</ele><time>2026-04-08T17:56:24.999Z</time></trkpt><trkpt lat="45.99911310325815" lon="13.29906464158865"><ele>66.0</ele><time>2026-04-08T17:56:25.999Z</time></trkpt><trkpt lat="45.99906097193181" lon="13.299290207530149"><ele>66.33333333333333</ele><time>2026-04-08T17:56:26.999Z</time></trkpt><trkpt lat="45.99901367613872" lon="13.299512008223584"><ele>66.66666666666666</ele><time>2026-04-08T17:56:27.999Z</time></trkpt><trkpt lat="45.99896086582318" lon="13.29972139884631"><ele>67.0</ele><time>2026-04-08T17:56:28.999Z</time></trkpt><trkpt lat="45.99889422287958" lon="13.299918029142205"><ele>67.0</ele><time>2026-04-08T17:56:29.999Z</time></trkpt><trkpt lat="45.99880617757452" lon="13.3000977541718"><ele>67.0</ele><time>2026-04-08T17:56:30.999Z</time></trkpt><trkpt lat="45.99870298476103" lon="13.300271954763572"><ele>67.0</ele><time>2026-04-08T17:56:31.999Z</time></trkpt><trkpt lat="45.99860791857299" lon="13.300459594619124"><ele>67.66666666666666</ele><time>2026-04-08T17:56:32.999Z</time></trkpt><trkpt lat="45.998527822669246" lon="13.300667932614667"><ele>68.33333333333333</ele><time>2026-04-08T17:56:33.999Z</time></trkpt><trkpt lat="45.998469466665895" lon="13.30091134284717"><ele>69.0</ele><time>2026-04-08T17:56:34.999Z</time></trkpt><trkpt lat="45.998423228803446" lon="13.301171028284577"><ele>69.0</ele><time>2026-04-08T17:56:35.999Z</time></trkpt><trkpt lat="45.99837995538757" lon="13.301429006763483"><ele>69.0</ele><time>2026-04-08T17:56:36.999Z</time></trkpt><trkpt lat="45.998335772547655" lon="13.30168330186139"><ele>69.0</ele><time>2026-04-08T17:56:37.999Z</time></trkpt><trkpt lat="45.99829003718331" lon="13.30193247246931"><ele>68.66666666666667</ele><time>2026-04-08T17:56:38.999Z</time></trkpt><trkpt lat="45.99824379125139" lon="13.302178315487582"><ele>68.33333333333334</ele><time>2026-04-08T17:56:39.999Z</time></trkpt><trkpt lat="45.99819457119948" lon="13.302413963832109"><ele>68.0</ele><time>2026-04-08T17:56:40.999Z</time></trkpt><trkpt lat="45.99814629493933" lon="13.302624064796285"><ele>68.0</ele><time>2026-04-08T17:56:41.999Z</time></trkpt><trkpt lat="45.99810512503611" lon="13.302811749507903"><ele>68.0</ele><time>2026-04-08T17:56:42.999Z</time></trkpt><trkpt lat="45.99806806197823" lon="13.302974875835046"><ele>68.0</ele><time>2026-04-08T17:56:43.999Z</time></trkpt><trkpt lat="45.99802298149028" lon="13.303114432499628"><ele>68.0</ele><time>2026-04-08T17:56:44.999Z</time></trkpt><trkpt lat="45.99796431419293" lon="13.303228299253412"><ele>68.0</ele><time>2026-04-08T17:56:45.999Z</time></trkpt><trkpt lat="45.99788245305066" lon="13.303306497374"><ele>68.0</ele><time>2026-04-08T17:56:46.999Z</time></trkpt><trkpt lat="45.99777310338139" lon="13.303338072722747"><ele>68.0</ele><time>2026-04-08T17:56:47.999Z</time></trkpt><trkpt lat="45.997632052156945" lon="13.303323059627825"><ele>68.0</ele><time>2026-04-08T17:56:48.999Z</time></trkpt><trkpt lat="45.997455110997734" lon="13.303290885171407"><ele>67.33333333333334</ele><time>2026-04-08T17:56:49.999Z</time></trkpt><trkpt lat="45.997286110089576" lon="13.30323607029217"><ele>66.66666666666667</ele><time>2026-04-08T17:56:50.999Z</time></trkpt><trkpt lat="45.997133013783326" lon="13.3031495618994"><ele>66.0</ele><time>2026-04-08T17:56:51.999Z</time></trkpt><trkpt lat="45.99698824281576" lon="13.303017686141828"><ele>66.0</ele><time>2026-04-08T17:56:52.999Z</time></trkpt><trkpt lat="45.9968499837641" lon="13.302882000382107"><ele>66.0</ele><time>2026-04-08T17:56:53.999Z</time></trkpt><trkpt lat="45.99670416948469" lon="13.302788941865511"><ele>66.0</ele><time>2026-04-08T17:56:54.999Z</time></trkpt><trkpt lat="45.99656470855571" lon="13.302733284722313"><ele>66.6</ele><time>2026-04-08T17:56:55.999Z</time></trkpt><trkpt lat="45.9964355803976" lon="13.30270534697968"><ele>67.19999999999999</ele><time>2026-04-08T17:56:56.999Z</time></trkpt><trkpt lat="45.99631577737672" lon="13.30270216829446"><ele>67.80000000000001</ele><time>2026-04-08T17:56:57.999Z</time></trkpt><trkpt lat="45.996212618003476" lon="13.30271709234212"><ele>68.4</ele><time>2026-04-08T17:56:58.999Z</time></trkpt><trkpt lat="45.99612223192673" lon="13.302717970133266"><ele>69.0</ele><time>2026-04-08T17:56:59.999Z</time></trkpt><trkpt lat="45.99603950948056" lon="13.302695927398567"><ele>69.0</ele><time>2026-04-08T17:57:00.999Z</time></trkpt><trkpt lat="45.99596970449892" lon="13.30272481802016"><ele>69.0</ele><time>2026-04-08T17:57:01.999Z</time></trkpt><trkpt lat="45.995929259660755" lon="13.302806235592527"><ele>69.0</ele><time>2026-04-08T17:57:02.999Z</time></trkpt><trkpt lat="45.995901246118564" lon="13.302947183799917"><ele>69.0</ele><time>2026-04-08T17:57:03.999Z</time></trkpt><trkpt lat="45.99584574178759" lon="13.303117973516017"><ele>69.0</ele><time>2026-04-08T17:57:04.999Z</time></trkpt><trkpt lat="45.99580594707189" lon="13.30331480227259"><ele>68.0</ele><time>2026-04-08T17:57:05.999Z</time></trkpt><trkpt lat="45.995800565966334" lon="13.303552665317198"><ele>67.0</ele><time>2026-04-08T17:57:06.999Z</time></trkpt><trkpt lat="45.995807503828956" lon="13.303814093085645"><ele>66.0</ele><time>2026-04-08T17:57:07.999Z</time></trkpt><trkpt lat="45.99581673893799" lon="13.304092311109411"><ele>66.0</ele><time>2026-04-08T17:57:08.998Z</time></trkpt><trkpt lat="45.99581903790872" lon="13.304382102258613"><ele>66.0</ele><time>2026-04-08T17:57:10.001Z</time></trkpt><trkpt lat="45.99582673913032" lon="13.30462181911526"><ele>66.0</ele><time>2026-04-08T17:57:11.001Z</time></trkpt><trkpt lat="45.9958364518857" lon="13.304829099478695"><ele>66.2</ele><time>2026-04-08T17:57:12.001Z</time></trkpt><trkpt lat="45.995833415759535" lon="13.30499495742681"><ele>66.39999999999999</ele><time>2026-04-08T17:57:13Z</time></trkpt><trkpt lat="45.995823837385736" lon="13.305117109486389"><ele>66.6</ele><time>2026-04-08T17:57:14.001Z</time></trkpt><trkpt lat="45.99577604940691" lon="13.305201041779894"><ele>66.8</ele><time>2026-04-08T17:57:15.001Z</time></trkpt><trkpt lat="45.99569374316319" lon="13.305266898831707"><ele>67.0</ele><time>2026-04-08T17:57:16.001Z</time></trkpt><trkpt lat="45.995555824409024" lon="13.305275437849973"><ele>67.0</ele><time>2026-04-08T17:57:17.001Z</time></trkpt><trkpt lat="45.995392479511864" lon="13.305342932477927"><ele>67.0</ele><time>2026-04-08T17:57:18.001Z</time></trkpt><trkpt lat="45.995196957460685" lon="13.305401435721876"><ele>67.0</ele><time>2026-04-08T17:57:19.001Z</time></trkpt><trkpt lat="45.99500824010242" lon="13.305495322409874"><ele>67.0</ele><time>2026-04-08T17:57:20.001Z</time></trkpt><trkpt lat="45.99483889870055" lon="13.30561649645611"><ele>67.0</ele><time>2026-04-08T17:57:21.001Z</time></trkpt><trkpt lat="45.9946724677322" lon="13.305762790695791"><ele>67.0</ele><time>2026-04-08T17:57:22.001Z</time></trkpt><trkpt lat="45.99450981618384" lon="13.305928637540674"><ele>67.0</ele><time>2026-04-08T17:57:23.001Z</time></trkpt><trkpt lat="45.99435892950345" lon="13.3060530624242"><ele>67.0</ele><time>2026-04-08T17:57:24.001Z</time></trkpt><trkpt lat="45.99418707154663" lon="13.306160788161634"><ele>67.0</ele><time>2026-04-08T17:57:25.001Z</time></trkpt><trkpt lat="45.993985734626" lon="13.306271760870313"><ele>67.0</ele><time>2026-04-08T17:57:26.001Z</time></trkpt><trkpt lat="45.99377217750384" lon="13.306381283988282"><ele>67.0</ele><time>2026-04-08T17:57:27Z</time></trkpt><trkpt lat="45.99360633417691" lon="13.306505600610317"><ele>67.0</ele><time>2026-04-08T17:57:28Z</time></trkpt><trkpt lat="45.99345667343964" lon="13.306670092556361"><ele>67.0</ele><time>2026-04-08T17:57:29Z</time></trkpt><trkpt lat="45.99331378754339" lon="13.306841440691054"><ele>67.0</ele><time>2026-04-08T17:57:30Z</time></trkpt><trkpt lat="45.99317597935598" lon="13.306995117346903"><ele>67.0</ele><time>2026-04-08T17:57:31Z</time></trkpt><trkpt lat="45.99305213230128" lon="13.30711953850602"><ele>67.0</ele><time>2026-04-08T17:57:32Z</time></trkpt><trkpt lat="45.99292527037712" lon="13.307201498410747"><ele>67.0</ele><time>2026-04-08T17:57:33Z</time></trkpt><trkpt lat="45.99278420181753" lon="13.307230812595574"><ele>67.0</ele><time>2026-04-08T17:57:34Z</time></trkpt><trkpt lat="45.99262728168122" lon="13.307216735544507"><ele>67.0</ele><time>2026-04-08T17:57:35Z</time></trkpt><trkpt lat="45.992469255388556" lon="13.307203506784754"><ele>66.75</ele><time>2026-04-08T17:57:36Z</time></trkpt><trkpt lat="45.99231785282595" lon="13.307197548388942"><ele>66.5</ele><time>2026-04-08T17:57:37Z</time></trkpt><trkpt lat="45.99216855872063" lon="13.307201068150697"><ele>66.25</ele><time>2026-04-08T17:57:38Z</time></trkpt><trkpt lat="45.9920243076772" lon="13.307215084918475"><ele>66.0</ele><time>2026-04-08T17:57:39Z</time></trkpt><trkpt lat="45.991891996277985" lon="13.307242155549984"><ele>66.0</ele><time>2026-04-08T17:57:40Z</time></trkpt><trkpt lat="45.9917460405011" lon="13.307274285825898"><ele>66.0</ele><time>2026-04-08T17:57:41Z</time></trkpt><trkpt lat="45.991577869112014" lon="13.30737003031527"><ele>66.0</ele><time>2026-04-08T17:57:42Z</time></trkpt><trkpt lat="45.99139593047016" lon="13.307516505291973"><ele>65.0</ele><time>2026-04-08T17:57:43Z</time></trkpt><trkpt lat="45.99119541883828" lon="13.307702975669711"><ele>64.0</ele><time>2026-04-08T17:57:44Z</time></trkpt><trkpt lat="45.99098806862884" lon="13.307928902902098"><ele>63.0</ele><time>2026-04-08T17:57:45Z</time></trkpt><trkpt lat="45.99074287729323" lon="13.308136540452496"><ele>62.0</ele><time>2026-04-08T17:57:46Z</time></trkpt><trkpt lat="45.990484988274126" lon="13.308352580670542"><ele>62.0</ele><time>2026-04-08T17:57:47Z</time></trkpt><trkpt lat="45.99022177322347" lon="13.308565561838689"><ele>62.0</ele><time>2026-04-08T17:57:48Z</time></trkpt><trkpt lat="45.98995423651825" lon="13.308786772552413"><ele>62.0</ele><time>2026-04-08T17:57:49Z</time></trkpt><trkpt lat="45.989686382352474" lon="13.309012517819486"><ele>62.0</ele><time>2026-04-08T17:57:50Z</time></trkpt><trkpt lat="45.989415362852526" lon="13.309240660530605"><ele>62.0</ele><time>2026-04-08T17:57:51Z</time></trkpt><trkpt lat="45.989142233502314" lon="13.309470763387809"><ele>62.0</ele><time>2026-04-08T17:57:52Z</time></trkpt><trkpt lat="45.988866632341285" lon="13.309702890261116"><ele>61.5</ele><time>2026-04-08T17:57:53Z</time></trkpt><trkpt lat="45.988594216342115" lon="13.309936866144355"><ele>61.0</ele><time>2026-04-08T17:57:54Z</time></trkpt><trkpt lat="45.98832403229797" lon="13.310177670730921"><ele>61.0</ele><time>2026-04-08T17:57:55Z</time></trkpt><trkpt lat="45.98805734002934" lon="13.310424078070902"><ele>61.0</ele><time>2026-04-08T17:57:56Z</time></trkpt><trkpt lat="45.9877924347171" lon="13.310672052628059"><ele>62.5</ele><time>2026-04-08T17:57:57Z</time></trkpt><trkpt lat="45.98753044274197" lon="13.310918613953435"><ele>64.0</ele><time>2026-04-08T17:57:58Z</time></trkpt><trkpt lat="45.987270132871934" lon="13.311165453193352"><ele>63.5</ele><time>2026-04-08T17:57:59Z</time></trkpt><trkpt lat="45.98700997221556" lon="13.311411926320014"><ele>63.0</ele><time>2026-04-08T17:58:00Z</time></trkpt><trkpt lat="45.98675943014196" lon="13.311648438176423"><ele>62.0</ele><time>2026-04-08T17:58:01Z</time></trkpt><trkpt lat="45.98652666095036" lon="13.311866303643587"><ele>61.0</ele><time>2026-04-08T17:58:02Z</time></trkpt><trkpt lat="45.98630853508413" lon="13.31206976533172"><ele>62.0</ele><time>2026-04-08T17:58:03Z</time></trkpt><trkpt lat="45.98610567263503" lon="13.312254288170593"><ele>63.0</ele><time>2026-04-08T17:58:04Z</time></trkpt><trkpt lat="45.98591398160342" lon="13.312414782448348"><ele>62.66666666666667</ele><time>2026-04-08T17:58:05Z</time></trkpt><trkpt lat="45.98572204592584" lon="13.312549319859206"><ele>62.333333333333336</ele><time>2026-04-08T17:58:06Z</time></trkpt><trkpt lat="45.98552489155698" lon="13.312658171521054"><ele>62.0</ele><time>2026-04-08T17:58:07Z</time></trkpt><trkpt lat="45.98533599285841" lon="13.312752840260226"><ele>62.0</ele><time>2026-04-08T17:58:08Z</time></trkpt><trkpt lat="45.98515791581654" lon="13.312848998724883"><ele>62.0</ele><time>2026-04-08T17:58:09Z</time></trkpt><trkpt lat="45.98498873256989" lon="13.312947051497106"><ele>62.0</ele><time>2026-04-08T17:58:10Z</time></trkpt><trkpt lat="45.98483440619089" lon="13.313047826698094"><ele>61.333333333333336</ele><time>2026-04-08T17:58:11Z</time></trkpt><trkpt lat="45.98469248669506" lon="13.313157233221734"><ele>60.66666666666667</ele><time>2026-04-08T17:58:12Z</time></trkpt><trkpt lat="45.98455447082893" lon="13.313281174310804"><ele>60.0</ele><time>2026-04-08T17:58:13Z</time></trkpt><trkpt lat="45.98441962045356" lon="13.313417728266074"><ele>60.0</ele><time>2026-04-08T17:58:14Z</time></trkpt><trkpt lat="45.984290690630296" lon="13.313566540974556"><ele>60.0</ele><time>2026-04-08T17:58:15Z</time></trkpt><trkpt lat="45.98417631437615" lon="13.313722201692961"><ele>60.0</ele><time>2026-04-08T17:58:16Z</time></trkpt><trkpt lat="45.984076035113326" lon="13.313881647273949"><ele>60.33333333333333</ele><time>2026-04-08T17:58:17Z</time></trkpt><trkpt lat="45.983974398801344" lon="13.3140464315999"><ele>60.666666666666664</ele><time>2026-04-08T17:58:18Z</time></trkpt><trkpt lat="45.983870183033" lon="13.314207160337292"><ele>61.0</ele><time>2026-04-08T17:58:19Z</time></trkpt><trkpt lat="45.98375520262698" lon="13.31434591415673"><ele>61.0</ele><time>2026-04-08T17:58:20Z</time></trkpt><trkpt lat="45.983635209216786" lon="13.314471290778634"><ele>61.0</ele><time>2026-04-08T17:58:21Z</time></trkpt><trkpt lat="45.98351507842028" lon="13.31459503643667"><ele>61.0</ele><time>2026-04-08T17:58:22Z</time></trkpt><trkpt lat="45.98338162135584" lon="13.314693249294816"><ele>61.0</ele><time>2026-04-08T17:58:23Z</time></trkpt><trkpt lat="45.98324936842328" lon="13.31480460137178"><ele>60.33333333333333</ele><time>2026-04-08T17:58:24Z</time></trkpt><trkpt lat="45.9831134932338" lon="13.314919629243818"><ele>59.66666666666667</ele><time>2026-04-08T17:58:25Z</time></trkpt><trkpt lat="45.9829681208005" lon="13.315021085299389"><ele>59.0</ele><time>2026-04-08T17:58:26Z</time></trkpt><trkpt lat="45.982824617637526" lon="13.315138693127844"><ele>59.0</ele><time>2026-04-08T17:58:27Z</time></trkpt><trkpt lat="45.982678231614734" lon="13.315256986130874"><ele>59.0</ele><time>2026-04-08T17:58:28Z</time></trkpt><trkpt lat="45.98253036384877" lon="13.315366966410235"><ele>59.0</ele><time>2026-04-08T17:58:29Z</time></trkpt><trkpt lat="45.98238590346153" lon="13.315473403513662"><ele>59.0</ele><time>2026-04-08T17:58:30Z</time></trkpt><trkpt lat="45.982243767724626" lon="13.3155769029457"><ele>59.0</ele><time>2026-04-08T17:58:31Z</time></trkpt><trkpt lat="45.982100984981635" lon="13.31567847895833"><ele>59.0</ele><time>2026-04-08T17:58:32Z</time></trkpt><trkpt lat="45.98195563858466" lon="13.31577435758392"><ele>59.0</ele><time>2026-04-08T17:58:33Z</time></trkpt><trkpt lat="45.981806134520355" lon="13.315875122758932"><ele>59.0</ele><time>2026-04-08T17:58:34Z</time></trkpt><trkpt lat="45.98164888055149" lon="13.315984682228775"><ele>59.0</ele><time>2026-04-08T17:58:35Z</time></trkpt><trkpt lat="45.98146401367557" lon="13.316132855127767"><ele>59.0</ele><time>2026-04-08T17:58:36Z</time></trkpt><trkpt lat="45.98123686290052" lon="13.316301316966307"><ele>59.0</ele><time>2026-04-08T17:58:37Z</time></trkpt><trkpt lat="45.980987207713575" lon="13.316483961936555"><ele>59.0</ele><time>2026-04-08T17:58:38Z</time></trkpt><trkpt lat="45.98074242179771" lon="13.316684011033772"><ele>59.0</ele><time>2026-04-08T17:58:39Z</time></trkpt><trkpt lat="45.98050064043518" lon="13.316890215346891"><ele>59.0</ele><time>2026-04-08T17:58:40Z</time></trkpt><trkpt lat="45.98026391518674" lon="13.317082189598189"><ele>59.0</ele><time>2026-04-08T17:58:41Z</time></trkpt><trkpt lat="45.98003594467352" lon="13.317257396137395"><ele>59.0</ele><time>2026-04-08T17:58:42Z</time></trkpt><trkpt lat="45.97981381022114" lon="13.317426397604539"><ele>59.0</ele><time>2026-04-08T17:58:43Z</time></trkpt><trkpt lat="45.97960078552388" lon="13.317584018312825"><ele>59.0</ele><time>2026-04-08T17:58:44Z</time></trkpt><trkpt lat="45.97939340513164" lon="13.317718148350485"><ele>59.0</ele><time>2026-04-08T17:58:45Z</time></trkpt><trkpt lat="45.97918529462447" lon="13.31782441473508"><ele>59.0</ele><time>2026-04-08T17:58:46Z</time></trkpt><trkpt lat="45.97898519968887" lon="13.317930688692359"><ele>58.66666666666667</ele><time>2026-04-08T17:58:47Z</time></trkpt><trkpt lat="45.97879965900131" lon="13.318061192070884"><ele>58.33333333333333</ele><time>2026-04-08T17:58:48Z</time></trkpt><trkpt lat="45.978617037853475" lon="13.318216334731254"><ele>58.0</ele><time>2026-04-08T17:58:49Z</time></trkpt><trkpt lat="45.978441559790305" lon="13.318387116944706"><ele>58.33333333333333</ele><time>2026-04-08T17:58:50Z</time></trkpt><trkpt lat="45.978272790963814" lon="13.318567725373018"><ele>58.66666666666667</ele><time>2026-04-08T17:58:51Z</time></trkpt><trkpt lat="45.97810364695749" lon="13.318746138415305"><ele>59.0</ele><time>2026-04-08T17:58:52Z</time></trkpt><trkpt lat="45.97793057841627" lon="13.318914710151056"><ele>59.333333333333336</ele><time>2026-04-08T17:58:53Z</time></trkpt><trkpt lat="45.97775433763015" lon="13.319077210746965"><ele>59.66666666666667</ele><time>2026-04-08T17:58:54Z</time></trkpt><trkpt lat="45.97757525293531" lon="13.319233089981008"><ele>60.0</ele><time>2026-04-08T17:58:55Z</time></trkpt><trkpt lat="45.97738987274076" lon="13.319387583000946"><ele>59.33333333333333</ele><time>2026-04-08T17:58:56Z</time></trkpt><trkpt lat="45.977200490765924" lon="13.319539286474125"><ele>58.666666666666664</ele><time>2026-04-08T17:58:57Z</time></trkpt><trkpt lat="45.97701326318628" lon="13.31968048051811"><ele>58.0</ele><time>2026-04-08T17:58:58Z</time></trkpt><trkpt lat="45.97683232512173" lon="13.319807383402132"><ele>57.666666666666664</ele><time>2026-04-08T17:58:59Z</time></trkpt><trkpt lat="45.97665032614582" lon="13.319930493662309"><ele>57.33333333333333</ele><time>2026-04-08T17:59:00Z</time></trkpt><trkpt lat="45.97646988628849" lon="13.32005359561576"><ele>57.0</ele><time>2026-04-08T17:59:01Z</time></trkpt><trkpt lat="45.9762950901798" lon="13.320167402069822"><ele>57.0</ele><time>2026-04-08T17:59:02Z</time></trkpt><trkpt lat="45.9761252138131" lon="13.320266738388963"><ele>57.0</ele><time>2026-04-08T17:59:03Z</time></trkpt><trkpt lat="45.97596449410694" lon="13.320356483434718"><ele>57.0</ele><time>2026-04-08T17:59:04Z</time></trkpt><trkpt lat="45.97581482631264" lon="13.320433255358418"><ele>57.33333333333333</ele><time>2026-04-08T17:59:05Z</time></trkpt><trkpt lat="45.97566647797494" lon="13.32050917405031"><ele>57.666666666666664</ele><time>2026-04-08T17:59:06Z</time></trkpt><trkpt lat="45.97552000674891" lon="13.320585354628244"><ele>58.0</ele><time>2026-04-08T17:59:07Z</time></trkpt><trkpt lat="45.97538055592037" lon="13.320658026996062"><ele>58.2</ele><time>2026-04-08T17:59:08Z</time></trkpt><trkpt lat="45.97526013947561" lon="13.320724699681929"><ele>58.4</ele><time>2026-04-08T17:59:09Z</time></trkpt><trkpt lat="45.97515218103349" lon="13.320783397373368"><ele>58.60000000000001</ele><time>2026-04-08T17:59:10Z</time></trkpt><trkpt lat="45.97505590332736" lon="13.32082088335505"><ele>58.800000000000004</ele><time>2026-04-08T17:59:11Z</time></trkpt><trkpt lat="45.974966880040014" lon="13.320816771251797"><ele>59.0</ele><time>2026-04-08T17:59:11.999Z</time></trkpt><trkpt lat="45.97489009053418" lon="13.320783566022548"><ele>59.0</ele><time>2026-04-08T17:59:12.999Z</time></trkpt><trkpt lat="45.974818705405816" lon="13.320790939620712"><ele>59.00000000000001</ele><time>2026-04-08T17:59:13.999Z</time></trkpt><trkpt lat="45.974744358229906" lon="13.320817248697683"><ele>59.00000000000001</ele><time>2026-04-08T17:59:14.999Z</time></trkpt><trkpt lat="45.974719467232084" lon="13.320957295781367"><ele>59.0</ele><time>2026-04-08T17:59:16.001Z</time></trkpt><trkpt lat="45.97466115871708" lon="13.321117590627601"><ele>59.0</ele><time>2026-04-08T17:59:17.001Z</time></trkpt><trkpt lat="45.9745663018715" lon="13.321301544831668"><ele>58.75</ele><time>2026-04-08T17:59:18.001Z</time></trkpt><trkpt lat="45.97453547775865" lon="13.321510569182575"><ele>58.5</ele><time>2026-04-08T17:59:19.001Z</time></trkpt><trkpt lat="45.97449925904284" lon="13.321705758113879"><ele>58.25</ele><time>2026-04-08T17:59:20.001Z</time></trkpt><trkpt lat="45.97446398818721" lon="13.321915669871583"><ele>58.0</ele><time>2026-04-08T17:59:21.001Z</time></trkpt><trkpt lat="45.974438288360595" lon="13.322099518517499"><ele>58.0</ele><time>2026-04-08T17:59:22.001Z</time></trkpt><trkpt lat="45.974432471394344" lon="13.322276141415053"><ele>58.0</ele><time>2026-04-08T17:59:23.001Z</time></trkpt><trkpt lat="45.97445668080243" lon="13.322452276538765"><ele>58.0</ele><time>2026-04-08T17:59:24Z</time></trkpt><trkpt lat="45.97449600941221" lon="13.322630198098437"><ele>58.0</ele><time>2026-04-08T17:59:25.001Z</time></trkpt><trkpt lat="45.97454735725705" lon="13.322801281531877"><ele>58.0</ele><time>2026-04-08T17:59:26.001Z</time></trkpt><trkpt lat="45.974600088670826" lon="13.322974607655805"><ele>58.0</ele><time>2026-04-08T17:59:27Z</time></trkpt><trkpt lat="45.97465190411519" lon="13.323155869755407"><ele>58.0</ele><time>2026-04-08T17:59:28Z</time></trkpt><trkpt lat="45.974712465483236" lon="13.32334514355263"><ele>58.0</ele><time>2026-04-08T17:59:29.001Z</time></trkpt><trkpt lat="45.97477447925562" lon="13.323540178909376"><ele>58.0</ele><time>2026-04-08T17:59:30Z</time></trkpt><trkpt lat="45.97483586378922" lon="13.32373401953079"><ele>58.0</ele><time>2026-04-08T17:59:31Z</time></trkpt><trkpt lat="45.97489467742779" lon="13.323923484211445"><ele>58.0</ele><time>2026-04-08T17:59:32Z</time></trkpt><trkpt lat="45.974954948532094" lon="13.324111280848525"><ele>58.0</ele><time>2026-04-08T17:59:33Z</time></trkpt><trkpt lat="45.9749989823533" lon="13.324311234825757"><ele>57.666666666666664</ele><time>2026-04-08T17:59:34Z</time></trkpt><trkpt lat="45.975061459862204" lon="13.324509460490106"><ele>57.33333333333333</ele><time>2026-04-08T17:59:35Z</time></trkpt><trkpt lat="45.97513537252161" lon="13.32474454328869"><ele>57.0</ele><time>2026-04-08T17:59:36Z</time></trkpt><trkpt lat="45.97521337450189" lon="13.325012863095816"><ele>57.0</ele><time>2026-04-08T17:59:37Z</time></trkpt><trkpt lat="45.97528713778063" lon="13.32528766096345"><ele>57.0</ele><time>2026-04-08T17:59:38Z</time></trkpt><trkpt lat="45.97535933350603" lon="13.325565592132525"><ele>57.0</ele><time>2026-04-08T17:59:39Z</time></trkpt><trkpt lat="45.97543204698661" lon="13.325837186300715"><ele>57.0</ele><time>2026-04-08T17:59:40Z</time></trkpt><trkpt lat="45.975506775539024" lon="13.32610431412948"><ele>57.0</ele><time>2026-04-08T17:59:41Z</time></trkpt><trkpt lat="45.975582147951066" lon="13.32636384621222"><ele>57.0</ele><time>2026-04-08T17:59:42Z</time></trkpt><trkpt lat="45.97565500869548" lon="13.326615538584118"><ele>57.66666666666667</ele><time>2026-04-08T17:59:43Z</time></trkpt><trkpt lat="45.97572445394273" lon="13.326854144461555"><ele>58.333333333333336</ele><time>2026-04-08T17:59:44Z</time></trkpt><trkpt lat="45.97578327236817" lon="13.327059465006789"><ele>59.0</ele><time>2026-04-08T17:59:45Z</time></trkpt><trkpt lat="45.97583805426904" lon="13.327213640731513"><ele>59.2</ele><time>2026-04-08T17:59:46Z</time></trkpt><trkpt lat="45.97583812255704" lon="13.327355116515028"><ele>59.400000000000006</ele><time>2026-04-08T17:59:47Z</time></trkpt><trkpt lat="45.975809783113164" lon="13.327491703754974"><ele>59.6</ele><time>2026-04-08T17:59:48Z</time></trkpt><trkpt lat="45.97576412981584" lon="13.327644830064415"><ele>59.8</ele><time>2026-04-08T17:59:49Z</time></trkpt><trkpt lat="45.975683999181086" lon="13.327786007072946"><ele>60.0</ele><time>2026-04-08T17:59:50Z</time></trkpt><trkpt lat="45.975525401393604" lon="13.32782514235611"><ele>60.0</ele><time>2026-04-08T17:59:51Z</time></trkpt><trkpt lat="45.97541551270037" lon="13.327935437628444"><ele>60.0</ele><time>2026-04-08T17:59:52Z</time></trkpt><trkpt lat="45.97520328769322" lon="13.32789581476414"><ele>60.0</ele><time>2026-04-08T17:59:53Z</time></trkpt><trkpt lat="45.97503371842287" lon="13.327989492935584"><ele>59.0</ele><time>2026-04-08T17:59:54Z</time></trkpt><trkpt lat="45.974857904503054" lon="13.328104119037262"><ele>58.0</ele><time>2026-04-08T17:59:55Z</time></trkpt><trkpt lat="45.97467963718127" lon="13.32823133364958"><ele>57.0</ele><time>2026-04-08T17:59:56Z</time></trkpt><trkpt lat="45.974497869115616" lon="13.328351711969011"><ele>57.0</ele><time>2026-04-08T17:59:57Z</time></trkpt><trkpt lat="45.974322850921325" lon="13.328469244619784"><ele>57.0</ele><time>2026-04-08T17:59:58Z</time></trkpt><trkpt lat="45.97415208483309" lon="13.328584456281035"><ele>57.0</ele><time>2026-04-08T17:59:59Z</time></trkpt><trkpt lat="45.9739816831093" lon="13.328699907430712"><ele>56.66666666666667</ele><time>2026-04-08T18:00:00Z</time></trkpt><trkpt lat="45.97381297647647" lon="13.328817151868908"><ele>56.333333333333336</ele><time>2026-04-08T18:00:01Z</time></trkpt><trkpt lat="45.97364618146432" lon="13.328929902450318"><ele>56.0</ele><time>2026-04-08T18:00:02Z</time></trkpt><trkpt lat="45.97348353891053" lon="13.329039085439888"><ele>55.333333333333336</ele><time>2026-04-08T18:00:03Z</time></trkpt><trkpt lat="45.97332485879443" lon="13.329146385227654"><ele>54.66666666666667</ele><time>2026-04-08T18:00:04Z</time></trkpt><trkpt lat="45.97316574647937" lon="13.329255760793902"><ele>54.0</ele><time>2026-04-08T18:00:05Z</time></trkpt><trkpt lat="45.97300517152692" lon="13.329367252508408"><ele>54.0</ele><time>2026-04-08T18:00:06Z</time></trkpt><trkpt lat="45.97284419860057" lon="13.329481036783745"><ele>54.0</ele><time>2026-04-08T18:00:07Z</time></trkpt><trkpt lat="45.972682038138274" lon="13.329594542168207"><ele>54.0</ele><time>2026-04-08T18:00:08Z</time></trkpt><trkpt lat="45.97251780886541" lon="13.329707634531738"><ele>54.66666666666667</ele><time>2026-04-08T18:00:09Z</time></trkpt><trkpt lat="45.9723489051116" lon="13.329814268964334"><ele>55.333333333333336</ele><time>2026-04-08T18:00:10Z</time></trkpt><trkpt lat="45.97217680828801" lon="13.329930861173315"><ele>56.0</ele><time>2026-04-08T18:00:11Z</time></trkpt><trkpt lat="45.972001227293994" lon="13.330053538159016"><ele>56.0</ele><time>2026-04-08T18:00:12Z</time></trkpt><trkpt lat="45.971816234233245" lon="13.330176078044644"><ele>56.0</ele><time>2026-04-08T18:00:13Z</time></trkpt><trkpt lat="45.971623699777375" lon="13.330287387562233"><ele>56.0</ele><time>2026-04-08T18:00:14Z</time></trkpt><trkpt lat="45.971421241950594" lon="13.330382250716921"><ele>55.66666666666667</ele><time>2026-04-08T18:00:15Z</time></trkpt><trkpt lat="45.97120974496393" lon="13.33045604423569"><ele>55.33333333333333</ele><time>2026-04-08T18:00:16Z</time></trkpt><trkpt lat="45.97099048622547" lon="13.33051602527298"><ele>55.0</ele><time>2026-04-08T18:00:17Z</time></trkpt><trkpt lat="45.9707662419411" lon="13.330574334022149"><ele>54.5</ele><time>2026-04-08T18:00:18Z</time></trkpt><trkpt lat="45.97053540290762" lon="13.330635810340409"><ele>54.0</ele><time>2026-04-08T18:00:19Z</time></trkpt><trkpt lat="45.970300267023326" lon="13.330697191515329"><ele>54.0</ele><time>2026-04-08T18:00:20Z</time></trkpt><trkpt lat="45.97005647059213" lon="13.330760557724712"><ele>54.0</ele><time>2026-04-08T18:00:21Z</time></trkpt><trkpt lat="45.96980496664815" lon="13.330826683178994"><ele>53.5</ele><time>2026-04-08T18:00:22Z</time></trkpt><trkpt lat="45.969545647765756" lon="13.33089309380631"><ele>53.0</ele><time>2026-04-08T18:00:23Z</time></trkpt><trkpt lat="45.969279970833625" lon="13.330960066832711"><ele>53.0</ele><time>2026-04-08T18:00:24Z</time></trkpt><trkpt lat="45.9690130620951" lon="13.331031011706612"><ele>53.0</ele><time>2026-04-08T18:00:25Z</time></trkpt><trkpt lat="45.96874417019263" lon="13.331105482782348"><ele>53.0</ele><time>2026-04-08T18:00:26Z</time></trkpt><trkpt lat="45.968473675128266" lon="13.331178332927834"><ele>53.0</ele><time>2026-04-08T18:00:27Z</time></trkpt><trkpt lat="45.968204825210314" lon="13.33125074495009"><ele>54.0</ele><time>2026-04-08T18:00:28Z</time></trkpt><trkpt lat="45.96793942655649" lon="13.331320100350418"><ele>55.0</ele><time>2026-04-08T18:00:29Z</time></trkpt><trkpt lat="45.967679222660365" lon="13.33138719463482"><ele>53.5</ele><time>2026-04-08T18:00:30Z</time></trkpt><trkpt lat="45.96742297439603" lon="13.331452785400248"><ele>52.0</ele><time>2026-04-08T18:00:31Z</time></trkpt><trkpt lat="45.967171294782936" lon="13.331522480906308"><ele>52.0</ele><time>2026-04-08T18:00:32Z</time></trkpt><trkpt lat="45.966924444474486" lon="13.331595226824867"><ele>52.0</ele><time>2026-04-08T18:00:33Z</time></trkpt><trkpt lat="45.966681710735685" lon="13.331662545898949"><ele>51.5</ele><time>2026-04-08T18:00:34Z</time></trkpt><trkpt lat="45.96643732225919" lon="13.331695782708087"><ele>51.0</ele><time>2026-04-08T18:00:35Z</time></trkpt><trkpt lat="45.966202629922165" lon="13.331775517664603"><ele>51.0</ele><time>2026-04-08T18:00:36Z</time></trkpt><trkpt lat="45.965968521979114" lon="13.33185405620678"><ele>51.0</ele><time>2026-04-08T18:00:37Z</time></trkpt><trkpt lat="45.96573359653466" lon="13.331966327676223"><ele>51.0</ele><time>2026-04-08T18:00:38Z</time></trkpt><trkpt lat="45.96550148018353" lon="13.332103108320522"><ele>51.0</ele><time>2026-04-08T18:00:39Z</time></trkpt><trkpt lat="45.965269720678414" lon="13.332253089737526"><ele>51.0</ele><time>2026-04-08T18:00:40Z</time></trkpt><trkpt lat="45.96503442718061" lon="13.332405269643523"><ele>51.0</ele><time>2026-04-08T18:00:41Z</time></trkpt><trkpt lat="45.96479509980085" lon="13.332553340013515"><ele>51.5</ele><time>2026-04-08T18:00:42Z</time></trkpt><trkpt lat="45.9645536909459" lon="13.33270101017762"><ele>52.0</ele><time>2026-04-08T18:00:43Z</time></trkpt><trkpt lat="45.96431299446895" lon="13.332853350487792"><ele>50.5</ele><time>2026-04-08T18:00:44Z</time></trkpt><trkpt lat="45.964064693077255" lon="13.333008938670297"><ele>49.0</ele><time>2026-04-08T18:00:45Z</time></trkpt><trkpt lat="45.963800795762296" lon="13.333171150936927"><ele>49.0</ele><time>2026-04-08T18:00:46Z</time></trkpt><trkpt lat="45.963523656261316" lon="13.333345786528367"><ele>49.0</ele><time>2026-04-08T18:00:47Z</time></trkpt><trkpt lat="45.963240503123885" lon="13.33352841828162"><ele>49.0</ele><time>2026-04-08T18:00:48Z</time></trkpt><trkpt lat="45.96295907597758" lon="13.33370768910394"><ele>49.0</ele><time>2026-04-08T18:00:49Z</time></trkpt><trkpt lat="45.96267744251685" lon="13.333885523254164"><ele>48.0</ele><time>2026-04-08T18:00:50Z</time></trkpt><trkpt lat="45.9623996744876" lon="13.334060510856707"><ele>47.0</ele><time>2026-04-08T18:00:51Z</time></trkpt><trkpt lat="45.96212994748944" lon="13.334234519187428"><ele>47.0</ele><time>2026-04-08T18:00:52Z</time></trkpt><trkpt lat="45.961867402593455" lon="13.334399045948045"><ele>47.0</ele><time>2026-04-08T18:00:53Z</time></trkpt><trkpt lat="45.9616085446468" lon="13.334550975954544"><ele>47.0</ele><time>2026-04-08T18:00:54Z</time></trkpt><trkpt lat="45.96134868300054" lon="13.334685057186974"><ele>47.0</ele><time>2026-04-08T18:00:55Z</time></trkpt><trkpt lat="45.96107980870558" lon="13.334791632507132"><ele>48.0</ele><time>2026-04-08T18:00:56Z</time></trkpt><trkpt lat="45.960794717426225" lon="13.33488045767748"><ele>49.0</ele><time>2026-04-08T18:00:57Z</time></trkpt><trkpt lat="45.960488888902766" lon="13.334971317570348"><ele>49.0</ele><time>2026-04-08T18:00:58Z</time></trkpt><trkpt lat="45.96016770344614" lon="13.335068507792542"><ele>49.0</ele><time>2026-04-08T18:00:59Z</time></trkpt><trkpt lat="45.959822349841815" lon="13.335167973350945"><ele>47.5</ele><time>2026-04-08T18:01:00Z</time></trkpt><trkpt lat="45.95946057844144" lon="13.335271177570116"><ele>46.0</ele><time>2026-04-08T18:01:01Z</time></trkpt><trkpt lat="45.95912712919556" lon="13.33536558643766"><ele>45.5</ele><time>2026-04-08T18:01:02Z</time></trkpt><trkpt lat="45.95882594873212" lon="13.335456516932338"><ele>45.0</ele><time>2026-04-08T18:01:03Z</time></trkpt><trkpt lat="45.95854681432081" lon="13.33554882230784"><ele>46.0</ele><time>2026-04-08T18:01:04Z</time></trkpt><trkpt lat="45.95829302065814" lon="13.335659317695917"><ele>47.0</ele><time>2026-04-08T18:01:05Z</time></trkpt><trkpt lat="45.95805082595538" lon="13.3357894933037"><ele>47.0</ele><time>2026-04-08T18:01:06Z</time></trkpt><trkpt lat="45.95781575468297" lon="13.335930042662596"><ele>47.0</ele><time>2026-04-08T18:01:07Z</time></trkpt><trkpt lat="45.95758611351538" lon="13.336066302350948"><ele>47.5</ele><time>2026-04-08T18:01:08Z</time></trkpt><trkpt lat="45.95735965133413" lon="13.33620430209289"><ele>48.0</ele><time>2026-04-08T18:01:09Z</time></trkpt><trkpt lat="45.95713605153064" lon="13.336354466766485"><ele>48.0</ele><time>2026-04-08T18:01:10Z</time></trkpt><trkpt lat="45.95691788503921" lon="13.336516576192492"><ele>48.0</ele><time>2026-04-08T18:01:11Z</time></trkpt><trkpt lat="45.95670351613594" lon="13.336680889974676"><ele>47.5</ele><time>2026-04-08T18:01:12Z</time></trkpt><trkpt lat="45.95648776965224" lon="13.336839834975153"><ele>47.0</ele><time>2026-04-08T18:01:13Z</time></trkpt><trkpt lat="45.956269000867984" lon="13.336987875739323"><ele>47.0</ele><time>2026-04-08T18:01:13.999Z</time></trkpt><trkpt lat="45.95605018554028" lon="13.337137750687278"><ele>47.0</ele><time>2026-04-08T18:01:14.999Z</time></trkpt><trkpt lat="45.95583410000797" lon="13.337288174976068"><ele>47.0</ele><time>2026-04-08T18:01:15.999Z</time></trkpt><trkpt lat="45.95561830448311" lon="13.337436547475404"><ele>47.0</ele><time>2026-04-08T18:01:16.999Z</time></trkpt><trkpt lat="45.95540375399392" lon="13.337583043140473"><ele>47.0</ele><time>2026-04-08T18:01:17.999Z</time></trkpt><trkpt lat="45.955191612560334" lon="13.337732509822906"><ele>47.0</ele><time>2026-04-08T18:01:18.999Z</time></trkpt><trkpt lat="45.954980465378625" lon="13.33788282063191"><ele>46.5</ele><time>2026-04-08T18:01:19.999Z</time></trkpt><trkpt lat="45.954770577598126" lon="13.338028379388899"><ele>46.0</ele><time>2026-04-08T18:01:20.999Z</time></trkpt><trkpt lat="45.95456161914008" lon="13.338172567638248"><ele>45.5</ele><time>2026-04-08T18:01:22Z</time></trkpt><trkpt lat="45.95435231469496" lon="13.338317984675417"><ele>45.0</ele><time>2026-04-08T18:01:23Z</time></trkpt><trkpt lat="45.95414499361206" lon="13.338464993212032"><ele>45.666666666666664</ele><time>2026-04-08T18:01:24Z</time></trkpt><trkpt lat="45.953939714733856" lon="13.338607124724668"><ele>46.33333333333333</ele><time>2026-04-08T18:01:25Z</time></trkpt><trkpt lat="45.95375217080875" lon="13.338737528542385"><ele>47.0</ele><time>2026-04-08T18:01:26Z</time></trkpt><trkpt lat="45.95358018161758" lon="13.338855651182964"><ele>47.0</ele><time>2026-04-08T18:01:27Z</time></trkpt><trkpt lat="45.95341613387604" lon="13.338968930458291"><ele>47.0</ele><time>2026-04-08T18:01:28Z</time></trkpt><trkpt lat="45.9532497232026" lon="13.339080611627557"><ele>47.0</ele><time>2026-04-08T18:01:29Z</time></trkpt><trkpt lat="45.953082174925115" lon="13.339192641128163"><ele>47.0</ele><time>2026-04-08T18:01:30Z</time></trkpt><trkpt lat="45.95291387788167" lon="13.339310505111943"><ele>47.0</ele><time>2026-04-08T18:01:31Z</time></trkpt><trkpt lat="45.952746260510494" lon="13.33942903248911"><ele>47.0</ele><time>2026-04-08T18:01:32Z</time></trkpt><trkpt lat="45.95257563777559" lon="13.339543980099242"><ele>47.33333333333333</ele><time>2026-04-08T18:01:33Z</time></trkpt><trkpt lat="45.95240494954503" lon="13.339660839474696"><ele>47.666666666666664</ele><time>2026-04-08T18:01:34Z</time></trkpt><trkpt lat="45.95223412847641" lon="13.339780729554887"><ele>48.0</ele><time>2026-04-08T18:01:35Z</time></trkpt><trkpt lat="45.952063373981375" lon="13.339900582663601"><ele>47.333333333333336</ele><time>2026-04-08T18:01:36Z</time></trkpt><trkpt lat="45.95188997642521" lon="13.340018161641707"><ele>46.66666666666667</ele><time>2026-04-08T18:01:37Z</time></trkpt><trkpt lat="45.951712202492104" lon="13.340140149480074"><ele>46.0</ele><time>2026-04-08T18:01:38Z</time></trkpt><trkpt lat="45.951532890444554" lon="13.340266938222415"><ele>46.0</ele><time>2026-04-08T18:01:39Z</time></trkpt><trkpt lat="45.951353011373705" lon="13.34040090639487"><ele>46.0</ele><time>2026-04-08T18:01:40Z</time></trkpt><trkpt lat="45.95117156235844" lon="13.340541326677748"><ele>46.0</ele><time>2026-04-08T18:01:41Z</time></trkpt><trkpt lat="45.95099070020325" lon="13.340695843266198"><ele>46.0</ele><time>2026-04-08T18:01:42Z</time></trkpt><trkpt lat="45.95081428371859" lon="13.340864612003813"><ele>46.0</ele><time>2026-04-08T18:01:43Z</time></trkpt><trkpt lat="45.95063964213891" lon="13.341031406660248"><ele>46.0</ele><time>2026-04-08T18:01:44Z</time></trkpt><trkpt lat="45.950461862700095" lon="13.34120967505992"><ele>46.5</ele><time>2026-04-08T18:01:45Z</time></trkpt><trkpt lat="45.9502791481018" lon="13.341395804156889"><ele>47.0</ele><time>2026-04-08T18:01:46Z</time></trkpt><trkpt lat="45.95009241334019" lon="13.34158729486881"><ele>46.0</ele><time>2026-04-08T18:01:47Z</time></trkpt><trkpt lat="45.94990268930546" lon="13.341781252311764"><ele>45.0</ele><time>2026-04-08T18:01:48Z</time></trkpt><trkpt lat="45.94971869832767" lon="13.341977808202115"><ele>45.0</ele><time>2026-04-08T18:01:49Z</time></trkpt><trkpt lat="45.94953749479418" lon="13.34220029654024"><ele>45.0</ele><time>2026-04-08T18:01:50Z</time></trkpt><trkpt lat="45.949360893781375" lon="13.342440834020687"><ele>44.0</ele><time>2026-04-08T18:01:51Z</time></trkpt><trkpt lat="45.94918952932005" lon="13.34271383960875"><ele>43.0</ele><time>2026-04-08T18:01:52Z</time></trkpt><trkpt lat="45.94901599858812" lon="13.343022844764393"><ele>43.0</ele><time>2026-04-08T18:01:53Z</time></trkpt><trkpt lat="45.94883886692452" lon="13.343365310109006"><ele>43.0</ele><time>2026-04-08T18:01:54Z</time></trkpt><trkpt lat="45.94865361294836" lon="13.343728756832745"><ele>43.5</ele><time>2026-04-08T18:01:55Z</time></trkpt><trkpt lat="45.948459996672796" lon="13.344104981392599"><ele>44.0</ele><time>2026-04-08T18:01:56Z</time></trkpt><trkpt lat="45.94826226517917" lon="13.344486514667649"><ele>43.0</ele><time>2026-04-08T18:01:57Z</time></trkpt><trkpt lat="45.9480749051004" lon="13.344852368145505"><ele>42.0</ele><time>2026-04-08T18:01:58Z</time></trkpt><trkpt lat="45.94790707871125" lon="13.345181417751533"><ele>42.0</ele><time>2026-04-08T18:01:59Z</time></trkpt><trkpt lat="45.94774786890608" lon="13.345480022830111"><ele>42.0</ele><time>2026-04-08T18:02:00Z</time></trkpt><trkpt lat="45.94759310704526" lon="13.345754271011138"><ele>41.5</ele><time>2026-04-08T18:02:01Z</time></trkpt><trkpt lat="45.94742427396911" lon="13.345996036841305"><ele>41.0</ele><time>2026-04-08T18:02:02Z</time></trkpt><trkpt lat="45.94722995282527" lon="13.34620230433654"><ele>41.0</ele><time>2026-04-08T18:02:03Z</time></trkpt><trkpt lat="45.947015799306286" lon="13.346377524222348"><ele>41.0</ele><time>2026-04-08T18:02:04Z</time></trkpt><trkpt lat="45.94676724988374" lon="13.346492703951501"><ele>41.5</ele><time>2026-04-08T18:02:05Z</time></trkpt><trkpt lat="45.94649599062895" lon="13.346627198047818"><ele>42.0</ele><time>2026-04-08T18:02:06Z</time></trkpt><trkpt lat="45.94619781371096" lon="13.346770786501697"><ele>42.0</ele><time>2026-04-08T18:02:07Z</time></trkpt><trkpt lat="45.945889821303496" lon="13.346942181026904"><ele>42.0</ele><time>2026-04-08T18:02:08Z</time></trkpt><trkpt lat="45.945578907807935" lon="13.347090793919453"><ele>42.0</ele><time>2026-04-08T18:02:09Z</time></trkpt><trkpt lat="45.945292566042106" lon="13.347228078835895"><ele>42.0</ele><time>2026-04-08T18:02:10Z</time></trkpt><trkpt lat="45.94502944714756" lon="13.347354900011908"><ele>42.0</ele><time>2026-04-08T18:02:11Z</time></trkpt><trkpt lat="45.944772780572606" lon="13.347477173426007"><ele>42.0</ele><time>2026-04-08T18:02:12Z</time></trkpt><trkpt lat="45.944512075494124" lon="13.347599065841965"><ele>42.0</ele><time>2026-04-08T18:02:13Z</time></trkpt><trkpt lat="45.94424862377931" lon="13.347726188048117"><ele>42.0</ele><time>2026-04-08T18:02:14Z</time></trkpt><trkpt lat="45.94398349300484" lon="13.347856267621186"><ele>42.0</ele><time>2026-04-08T18:02:15Z</time></trkpt><trkpt lat="45.9437209682653" lon="13.347983545401139"><ele>42.0</ele><time>2026-04-08T18:02:16Z</time></trkpt><trkpt lat="45.94346698668279" lon="13.348108651652334"><ele>41.5</ele><time>2026-04-08T18:02:17Z</time></trkpt><trkpt lat="45.943227500153995" lon="13.348229289442097"><ele>41.0</ele><time>2026-04-08T18:02:18Z</time></trkpt><trkpt lat="45.94299712226398" lon="13.348343533959342"><ele>41.0</ele><time>2026-04-08T18:02:19Z</time></trkpt><trkpt lat="45.94278180367412" lon="13.348444625603552"><ele>41.0</ele><time>2026-04-08T18:02:20Z</time></trkpt><trkpt lat="45.94257958901443" lon="13.34854389811654"><ele>41.0</ele><time>2026-04-08T18:02:21Z</time></trkpt><trkpt lat="45.94239412876286" lon="13.348659418161574"><ele>41.0</ele><time>2026-04-08T18:02:22Z</time></trkpt><trkpt lat="45.94222424523595" lon="13.34880490617313"><ele>41.0</ele><time>2026-04-08T18:02:23Z</time></trkpt><trkpt lat="45.94207222576822" lon="13.348984733021073"><ele>41.0</ele><time>2026-04-08T18:02:24Z</time></trkpt><trkpt lat="45.94193245066342" lon="13.34919830324912"><ele>41.0</ele><time>2026-04-08T18:02:25Z</time></trkpt><trkpt lat="45.94181529640517" lon="13.349445751260117"><ele>41.0</ele><time>2026-04-08T18:02:26Z</time></trkpt><trkpt lat="45.94172136065404" lon="13.349728786305214"><ele>41.0</ele><time>2026-04-08T18:02:27Z</time></trkpt><trkpt lat="45.94165197460585" lon="13.350048973123506"><ele>40.5</ele><time>2026-04-08T18:02:28Z</time></trkpt><trkpt lat="45.941597638509975" lon="13.350407732621422"><ele>40.0</ele><time>2026-04-08T18:02:29Z</time></trkpt><trkpt lat="45.94153927914257" lon="13.350795924423025"><ele>40.0</ele><time>2026-04-08T18:02:30Z</time></trkpt><trkpt lat="45.94146661867255" lon="13.351222963807839"><ele>40.0</ele><time>2026-04-08T18:02:31Z</time></trkpt><trkpt lat="45.941384633492255" lon="13.351701243347138"><ele>40.0</ele><time>2026-04-08T18:02:32Z</time></trkpt><trkpt lat="45.941296840820065" lon="13.352215162952083"><ele>40.0</ele><time>2026-04-08T18:02:33Z</time></trkpt><trkpt lat="45.941211642607676" lon="13.352714165555446"><ele>39.5</ele><time>2026-04-08T18:02:34Z</time></trkpt><trkpt lat="45.94113494430714" lon="13.353170397456376"><ele>39.0</ele><time>2026-04-08T18:02:35Z</time></trkpt><trkpt lat="45.94105466551524" lon="13.353594367815147"><ele>39.0</ele><time>2026-04-08T18:02:36Z</time></trkpt><trkpt lat="45.940955881402694" lon="13.353994769116989"><ele>39.0</ele><time>2026-04-08T18:02:37Z</time></trkpt><trkpt lat="45.940829063818114" lon="13.354374370737728"><ele>38.5</ele><time>2026-04-08T18:02:38Z</time></trkpt><trkpt lat="45.940672066625204" lon="13.354753727241947"><ele>38.0</ele><time>2026-04-08T18:02:39Z</time></trkpt><trkpt lat="45.94049465123574" lon="13.355132144272636"><ele>38.0</ele><time>2026-04-08T18:02:40Z</time></trkpt><trkpt lat="45.94034971457711" lon="13.355471761471167"><ele>38.0</ele><time>2026-04-08T18:02:41Z</time></trkpt><trkpt lat="45.940223205200304" lon="13.355788150381672"><ele>38.5</ele><time>2026-04-08T18:02:42Z</time></trkpt><trkpt lat="45.940072654584355" lon="13.356038803796901"><ele>39.0</ele><time>2026-04-08T18:02:43Z</time></trkpt><trkpt lat="45.93988231748868" lon="13.356252017560896"><ele>39.0</ele><time>2026-04-08T18:02:44Z</time></trkpt><trkpt lat="45.939656123356556" lon="13.35648000578779"><ele>39.0</ele><time>2026-04-08T18:02:45Z</time></trkpt><trkpt lat="45.939426906274434" lon="13.35671989337054"><ele>39.0</ele><time>2026-04-08T18:02:46Z</time></trkpt><trkpt lat="45.9392156026359" lon="13.356965474106966"><ele>39.0</ele><time>2026-04-08T18:02:47Z</time></trkpt><trkpt lat="45.93903611547775" lon="13.357247070449338"><ele>38.5</ele><time>2026-04-08T18:02:48Z</time></trkpt><trkpt lat="45.93887499456591" lon="13.357567168031588"><ele>38.0</ele><time>2026-04-08T18:02:49Z</time></trkpt><trkpt lat="45.93875247420898" lon="13.357934682365064"><ele>38.5</ele><time>2026-04-08T18:02:50Z</time></trkpt><trkpt lat="45.93862254993528" lon="13.358337200305815"><ele>39.0</ele><time>2026-04-08T18:02:51Z</time></trkpt><trkpt lat="45.93846579522801" lon="13.358775602751363"><ele>39.0</ele><time>2026-04-08T18:02:52Z</time></trkpt><trkpt lat="45.93831228029304" lon="13.35925030488787"><ele>39.0</ele><time>2026-04-08T18:02:53Z</time></trkpt><trkpt lat="45.93816659919181" lon="13.359754070756514"><ele>39.0</ele><time>2026-04-08T18:02:54Z</time></trkpt><trkpt lat="45.937999174798755" lon="13.360221495215919"><ele>39.0</ele><time>2026-04-08T18:02:55Z</time></trkpt><trkpt lat="45.93788321565838" lon="13.360703838305279"><ele>38.5</ele><time>2026-04-08T18:02:56Z</time></trkpt><trkpt lat="45.93777546453444" lon="13.361181660275523"><ele>38.0</ele><time>2026-04-08T18:02:57Z</time></trkpt><trkpt lat="45.93768239548386" lon="13.361661052796544"><ele>38.0</ele><time>2026-04-08T18:02:58Z</time></trkpt><trkpt lat="45.93759691672249" lon="13.36212705326933"><ele>38.0</ele><time>2026-04-08T18:02:59Z</time></trkpt><trkpt lat="45.937515288660194" lon="13.36255269604077"><ele>38.0</ele><time>2026-04-08T18:03:00Z</time></trkpt><trkpt lat="45.93743838886644" lon="13.36293464478153"><ele>38.0</ele><time>2026-04-08T18:03:01Z</time></trkpt><trkpt lat="45.937367410771785" lon="13.363291402574509"><ele>38.0</ele><time>2026-04-08T18:03:02Z</time></trkpt><trkpt lat="45.937307454324696" lon="13.363605645983812"><ele>38.0</ele><time>2026-04-08T18:03:03Z</time></trkpt><trkpt lat="45.937239833188116" lon="13.363889693058484"><ele>38.0</ele><time>2026-04-08T18:03:04Z</time></trkpt><trkpt lat="45.9371498938873" lon="13.364133085561068"><ele>38.0</ele><time>2026-04-08T18:03:05Z</time></trkpt><trkpt lat="45.937026510518535" lon="13.364355357227927"><ele>38.0</ele><time>2026-04-08T18:03:06Z</time></trkpt><trkpt lat="45.936870619359134" lon="13.364549399548027"><ele>38.0</ele><time>2026-04-08T18:03:07Z</time></trkpt><trkpt lat="45.93668388946815" lon="13.364702770835258"><ele>38.0</ele><time>2026-04-08T18:03:08Z</time></trkpt><trkpt lat="45.93647274956799" lon="13.364806050358554"><ele>38.0</ele><time>2026-04-08T18:03:09Z</time></trkpt><trkpt lat="45.936233517667596" lon="13.364863961961966"><ele>38.0</ele><time>2026-04-08T18:03:10Z</time></trkpt><trkpt lat="45.93595586389037" lon="13.364904961444719"><ele>38.0</ele><time>2026-04-08T18:03:11Z</time></trkpt><trkpt lat="45.93562231894145" lon="13.364960407011328"><ele>37.5</ele><time>2026-04-08T18:03:12Z</time></trkpt><trkpt lat="45.935234596669716" lon="13.36502754845019"><ele>37.0</ele><time>2026-04-08T18:03:13Z</time></trkpt><trkpt lat="45.93480959232684" lon="13.365105901663657"><ele>37.0</ele><time>2026-04-08T18:03:14Z</time></trkpt><trkpt lat="45.9343670514221" lon="13.365183300343082"><ele>37.0</ele><time>2026-04-08T18:03:15Z</time></trkpt><trkpt lat="45.933975721096" lon="13.365256866351979"><ele>37.0</ele><time>2026-04-08T18:03:16Z</time></trkpt><trkpt lat="45.933607072994945" lon="13.365313730509792"><ele>37.0</ele><time>2026-04-08T18:03:17Z</time></trkpt><trkpt lat="45.93324833524825" lon="13.365372380410763"><ele>36.0</ele><time>2026-04-08T18:03:17.999Z</time></trkpt><trkpt lat="45.93290339440475" lon="13.365426979221466"><ele>35.0</ele><time>2026-04-08T18:03:18.999Z</time></trkpt><trkpt lat="45.93258184324792" lon="13.365486511615789"><ele>36.0</ele><time>2026-04-08T18:03:19.999Z</time></trkpt><trkpt lat="45.93227753741882" lon="13.365560663084048"><ele>37.0</ele><time>2026-04-08T18:03:20.999Z</time></trkpt><trkpt lat="45.93197837646127" lon="13.365658427442241"><ele>36.0</ele><time>2026-04-08T18:03:21.999Z</time></trkpt><trkpt lat="45.9316756052857" lon="13.365782765516654"><ele>35.0</ele><time>2026-04-08T18:03:22.999Z</time></trkpt><trkpt lat="45.931367201828266" lon="13.365924206079008"><ele>35.0</ele><time>2026-04-08T18:03:23.999Z</time></trkpt><trkpt lat="45.93104727677317" lon="13.366068583759526"><ele>35.0</ele><time>2026-04-08T18:03:24.999Z</time></trkpt><trkpt lat="45.930702311638235" lon="13.36621643401335"><ele>35.0</ele><time>2026-04-08T18:03:25.999Z</time></trkpt><trkpt lat="45.93035138672399" lon="13.366370848719871"><ele>35.0</ele><time>2026-04-08T18:03:26.999Z</time></trkpt><trkpt lat="45.93003112961237" lon="13.366511810502931"><ele>35.0</ele><time>2026-04-08T18:03:28Z</time></trkpt><trkpt lat="45.929710851206856" lon="13.366651674072873"><ele>35.0</ele><time>2026-04-08T18:03:29Z</time></trkpt><trkpt lat="45.92940281938049" lon="13.366786057051728"><ele>34.5</ele><time>2026-04-08T18:03:30Z</time></trkpt><trkpt lat="45.929110772657104" lon="13.36691467290268"><ele>34.0</ele><time>2026-04-08T18:03:31Z</time></trkpt><trkpt lat="45.928830123254286" lon="13.367037867709481"><ele>34.0</ele><time>2026-04-08T18:03:32Z</time></trkpt><trkpt lat="45.928559339148386" lon="13.367158052834702"><ele>34.0</ele><time>2026-04-08T18:03:33Z</time></trkpt><trkpt lat="45.928299677945816" lon="13.367282322827084"><ele>34.0</ele><time>2026-04-08T18:03:34Z</time></trkpt><trkpt lat="45.928054228271264" lon="13.367422324460929"><ele>34.0</ele><time>2026-04-08T18:03:35Z</time></trkpt><trkpt lat="45.927819348724974" lon="13.3675858664523"><ele>34.0</ele><time>2026-04-08T18:03:36Z</time></trkpt><trkpt lat="45.92759064267271" lon="13.367775019529597"><ele>34.0</ele><time>2026-04-08T18:03:37Z</time></trkpt><trkpt lat="45.92736667605219" lon="13.367979924753188"><ele>34.0</ele><time>2026-04-08T18:03:38Z</time></trkpt><trkpt lat="45.927144483842405" lon="13.368189333088353"><ele>34.0</ele><time>2026-04-08T18:03:39Z</time></trkpt><trkpt lat="45.92692252379728" lon="13.368397476632268"><ele>34.5</ele><time>2026-04-08T18:03:40Z</time></trkpt><trkpt lat="45.926699908725034" lon="13.368606614961303"><ele>35.0</ele><time>2026-04-08T18:03:41Z</time></trkpt><trkpt lat="45.92647973056413" lon="13.368816025602204"><ele>34.5</ele><time>2026-04-08T18:03:42Z</time></trkpt><trkpt lat="45.92625905073695" lon="13.369020199043176"><ele>34.0</ele><time>2026-04-08T18:03:43Z</time></trkpt><trkpt lat="45.926040314054056" lon="13.369219392417026"><ele>33.5</ele><time>2026-04-08T18:03:44Z</time></trkpt><trkpt lat="45.92582231425453" lon="13.369414832281928"><ele>33.0</ele><time>2026-04-08T18:03:45Z</time></trkpt><trkpt lat="45.92560221198959" lon="13.369606324046414"><ele>33.5</ele><time>2026-04-08T18:03:46Z</time></trkpt><trkpt lat="45.92538448099076" lon="13.369792480084271"><ele>34.0</ele><time>2026-04-08T18:03:47Z</time></trkpt><trkpt lat="45.92517120517707" lon="13.369978451152734"><ele>33.5</ele><time>2026-04-08T18:03:48Z</time></trkpt><trkpt lat="45.92496384930575" lon="13.370163368952309"><ele>33.0</ele><time>2026-04-08T18:03:49Z</time></trkpt><trkpt lat="45.92475775388395" lon="13.370342319746623"><ele>33.0</ele><time>2026-04-08T18:03:50Z</time></trkpt><trkpt lat="45.92455446994022" lon="13.37052294014896"><ele>33.0</ele><time>2026-04-08T18:03:51Z</time></trkpt><trkpt lat="45.924351349795515" lon="13.370706948967683"><ele>33.0</ele><time>2026-04-08T18:03:52Z</time></trkpt><trkpt lat="45.92414652405299" lon="13.370888048205057"><ele>33.0</ele><time>2026-04-08T18:03:53Z</time></trkpt><trkpt lat="45.92393801614211" lon="13.371068504487253"><ele>33.0</ele><time>2026-04-08T18:03:54Z</time></trkpt><trkpt lat="45.92372853406855" lon="13.3712534071439"><ele>33.0</ele><time>2026-04-08T18:03:55Z</time></trkpt><trkpt lat="45.92351747273005" lon="13.371442262477762"><ele>33.0</ele><time>2026-04-08T18:03:56Z</time></trkpt><trkpt lat="45.92330317517785" lon="13.371634144589537"><ele>33.0</ele><time>2026-04-08T18:03:57Z</time></trkpt><trkpt lat="45.923082922401136" lon="13.371824478771767"><ele>33.0</ele><time>2026-04-08T18:03:58Z</time></trkpt><trkpt lat="45.92286839325468" lon="13.372011232664715"><ele>33.0</ele><time>2026-04-08T18:03:59Z</time></trkpt><trkpt lat="45.922673990167056" lon="13.372185236664018"><ele>33.333333333333336</ele><time>2026-04-08T18:04:00Z</time></trkpt><trkpt lat="45.92249533603167" lon="13.372341837630184"><ele>33.66666666666667</ele><time>2026-04-08T18:04:01Z</time></trkpt><trkpt lat="45.92232832790461" lon="13.372485293382066"><ele>34.0</ele><time>2026-04-08T18:04:02Z</time></trkpt><trkpt lat="45.92216606010479" lon="13.372626280876181"><ele>34.0</ele><time>2026-04-08T18:04:03Z</time></trkpt><trkpt lat="45.92201742652253" lon="13.372758136248263"><ele>34.0</ele><time>2026-04-08T18:04:04Z</time></trkpt><trkpt lat="45.92188483842298" lon="13.372865768760962"><ele>34.0</ele><time>2026-04-08T18:04:05Z</time></trkpt><trkpt lat="45.921774329082055" lon="13.37293030909699"><ele>34.0</ele><time>2026-04-08T18:04:06Z</time></trkpt><trkpt lat="45.92166636038017" lon="13.372966618361362"><ele>34.0</ele><time>2026-04-08T18:04:07Z</time></trkpt><trkpt lat="45.921547678574484" lon="13.3729882975917"><ele>34.0</ele><time>2026-04-08T18:04:08Z</time></trkpt><trkpt lat="45.92143762829201" lon="13.373048965200452"><ele>34.0</ele><time>2026-04-08T18:04:09Z</time></trkpt><trkpt lat="45.92134053554813" lon="13.373143694061916"><ele>34.0</ele><time>2026-04-08T18:04:10Z</time></trkpt><trkpt lat="45.92125362596785" lon="13.37333589910551"><ele>33.333333333333336</ele><time>2026-04-08T18:04:11Z</time></trkpt><trkpt lat="45.92110598231998" lon="13.373522229580216"><ele>32.666666666666664</ele><time>2026-04-08T18:04:12Z</time></trkpt><trkpt lat="45.92091252075018" lon="13.373713329789927"><ele>32.0</ele><time>2026-04-08T18:04:13Z</time></trkpt><trkpt lat="45.9206880588009" lon="13.373908960137179"><ele>32.0</ele><time>2026-04-08T18:04:14Z</time></trkpt><trkpt lat="45.92044429194415" lon="13.374119536923756"><ele>32.0</ele><time>2026-04-08T18:04:15Z</time></trkpt><trkpt lat="45.920194555041135" lon="13.374356145954602"><ele>31.5</ele><time>2026-04-08T18:04:16Z</time></trkpt><trkpt lat="45.91994916071025" lon="13.374602700620024"><ele>31.0</ele><time>2026-04-08T18:04:17Z</time></trkpt><trkpt lat="45.91971547377977" lon="13.374845838107115"><ele>31.0</ele><time>2026-04-08T18:04:18Z</time></trkpt><trkpt lat="45.91950088709992" lon="13.375071707617275"><ele>31.0</ele><time>2026-04-08T18:04:19Z</time></trkpt><trkpt lat="45.919299164321735" lon="13.37527052218072"><ele>31.0</ele><time>2026-04-08T18:04:20Z</time></trkpt><trkpt lat="45.919095421891974" lon="13.375457027062739"><ele>31.0</ele><time>2026-04-08T18:04:21Z</time></trkpt><trkpt lat="45.91888579677631" lon="13.3756180334398"><ele>31.5</ele><time>2026-04-08T18:04:22Z</time></trkpt><trkpt lat="45.91866496135127" lon="13.375742121100327"><ele>32.0</ele><time>2026-04-08T18:04:23Z</time></trkpt><trkpt lat="45.91843585231093" lon="13.375826266924113"><ele>32.0</ele><time>2026-04-08T18:04:24Z</time></trkpt><trkpt lat="45.918204563991644" lon="13.375876350943821"><ele>32.0</ele><time>2026-04-08T18:04:25Z</time></trkpt><trkpt lat="45.91796887360671" lon="13.375915336475437"><ele>32.0</ele><time>2026-04-08T18:04:26Z</time></trkpt><trkpt lat="45.917732546338655" lon="13.375959939833574"><ele>32.0</ele><time>2026-04-08T18:04:27Z</time></trkpt><trkpt lat="45.917497997136806" lon="13.376005927394628"><ele>31.0</ele><time>2026-04-08T18:04:28Z</time></trkpt><trkpt lat="45.91726528857697" lon="13.376050390973123"><ele>30.0</ele><time>2026-04-08T18:04:29Z</time></trkpt><trkpt lat="45.91703287702092" lon="13.37609105172232"><ele>30.0</ele><time>2026-04-08T18:04:30Z</time></trkpt><trkpt lat="45.91680013487664" lon="13.37612406054187"><ele>30.0</ele><time>2026-04-08T18:04:31Z</time></trkpt><trkpt lat="45.91657340655242" lon="13.376147805822502"><ele>31.5</ele><time>2026-04-08T18:04:32Z</time></trkpt><trkpt lat="45.9163478396863" lon="13.376158186747842"><ele>33.0</ele><time>2026-04-08T18:04:33Z</time></trkpt><trkpt lat="45.91612330808873" lon="13.376160781943147"><ele>33.333333333333336</ele><time>2026-04-08T18:04:34Z</time></trkpt><trkpt lat="45.9159004731322" lon="13.376166936625381"><ele>33.66666666666667</ele><time>2026-04-08T18:04:35Z</time></trkpt><trkpt lat="45.91568042252542" lon="13.376151785579372"><ele>34.0</ele><time>2026-04-08T18:04:36Z</time></trkpt><trkpt lat="45.915462479101066" lon="13.37615259902784"><ele>34.0</ele><time>2026-04-08T18:04:37Z</time></trkpt><trkpt lat="45.91524819087035" lon="13.376246944966471"><ele>34.0</ele><time>2026-04-08T18:04:38Z</time></trkpt><trkpt lat="45.91503487566418" lon="13.37628450073779"><ele>34.0</ele><time>2026-04-08T18:04:39Z</time></trkpt><trkpt lat="45.91482415915772" lon="13.376319649917287"><ele>33.66666666666667</ele><time>2026-04-08T18:04:40Z</time></trkpt><trkpt lat="45.91461505861365" lon="13.37634906802541"><ele>33.333333333333336</ele><time>2026-04-08T18:04:41Z</time></trkpt><trkpt lat="45.9144102255768" lon="13.376385183361279"><ele>33.0</ele><time>2026-04-08T18:04:42Z</time></trkpt><trkpt lat="45.914206368811264" lon="13.376440281686298"><ele>33.0</ele><time>2026-04-08T18:04:43Z</time></trkpt><trkpt lat="45.91400984700614" lon="13.376510540345334"><ele>33.0</ele><time>2026-04-08T18:04:44Z</time></trkpt><trkpt lat="45.913819602676654" lon="13.376594793465333"><ele>33.0</ele><time>2026-04-08T18:04:45Z</time></trkpt><trkpt lat="45.91364223646323" lon="13.376672599850439"><ele>33.0</ele><time>2026-04-08T18:04:46Z</time></trkpt><trkpt lat="45.91346826058421" lon="13.376734006585611"><ele>33.0</ele><time>2026-04-08T18:04:47Z</time></trkpt><trkpt lat="45.913300312232984" lon="13.376784165758613"><ele>33.0</ele><time>2026-04-08T18:04:48Z</time></trkpt><trkpt lat="45.913140518321974" lon="13.376853456082422"><ele>33.0</ele><time>2026-04-08T18:04:49Z</time></trkpt><trkpt lat="45.912979694176876" lon="13.376963131043944"><ele>33.0</ele><time>2026-04-08T18:04:50Z</time></trkpt><trkpt lat="45.91281461331973" lon="13.37712321518289"><ele>33.0</ele><time>2026-04-08T18:04:51Z</time></trkpt><trkpt lat="45.91263069106862" lon="13.377314512145484"><ele>32.5</ele><time>2026-04-08T18:04:52Z</time></trkpt><trkpt lat="45.912420621854096" lon="13.377534167368848"><ele>32.0</ele><time>2026-04-08T18:04:53Z</time></trkpt><trkpt lat="45.91218073172274" lon="13.37778571583838"><ele>31.5</ele><time>2026-04-08T18:04:54Z</time></trkpt><trkpt lat="45.91194209634478" lon="13.378032758126693"><ele>31.0</ele><time>2026-04-08T18:04:55Z</time></trkpt><trkpt lat="45.911732797562095" lon="13.37823686532863"><ele>31.0</ele><time>2026-04-08T18:04:56Z</time></trkpt><trkpt lat="45.91152351713416" lon="13.378401918447736"><ele>31.0</ele><time>2026-04-08T18:04:57Z</time></trkpt><trkpt lat="45.91129595548553" lon="13.378534030635436"><ele>31.0</ele><time>2026-04-08T18:04:58Z</time></trkpt><trkpt lat="45.91104876546944" lon="13.37862923020016"><ele>31.0</ele><time>2026-04-08T18:04:59Z</time></trkpt><trkpt lat="45.91078515084071" lon="13.378676338897428"><ele>30.5</ele><time>2026-04-08T18:05:00Z</time></trkpt><trkpt lat="45.91050731318218" lon="13.37868284471127"><ele>30.0</ele><time>2026-04-08T18:05:01Z</time></trkpt><trkpt lat="45.91021107010015" lon="13.378655360194577"><ele>29.0</ele><time>2026-04-08T18:05:02Z</time></trkpt><trkpt lat="45.90989381371366" lon="13.378636344024368"><ele>28.0</ele><time>2026-04-08T18:05:03Z</time></trkpt><trkpt lat="45.90956174112388" lon="13.378632991949347"><ele>28.5</ele><time>2026-04-08T18:05:04Z</time></trkpt><trkpt lat="45.90923341150942" lon="13.37864954387658"><ele>29.0</ele><time>2026-04-08T18:05:05Z</time></trkpt><trkpt lat="45.90892109420235" lon="13.37868012431003"><ele>29.0</ele><time>2026-04-08T18:05:06Z</time></trkpt><trkpt lat="45.90862065228912" lon="13.378724253143766"><ele>29.0</ele><time>2026-04-08T18:05:07Z</time></trkpt><trkpt lat="45.908328606884936" lon="13.378787005092532"><ele>29.0</ele><time>2026-04-08T18:05:08Z</time></trkpt><trkpt lat="45.90804383434949" lon="13.378865085778813"><ele>29.0</ele><time>2026-04-08T18:05:09Z</time></trkpt><trkpt lat="45.907760400495725" lon="13.378971216445457"><ele>29.0</ele><time>2026-04-08T18:05:10Z</time></trkpt><trkpt lat="45.90745412661156" lon="13.379094045187564"><ele>29.0</ele><time>2026-04-08T18:05:11Z</time></trkpt><trkpt lat="45.90712029449244" lon="13.379218625242956"><ele>29.0</ele><time>2026-04-08T18:05:12Z</time></trkpt><trkpt lat="45.90678986101513" lon="13.379320582017492"><ele>29.0</ele><time>2026-04-08T18:05:13Z</time></trkpt><trkpt lat="45.9064624574288" lon="13.379383580488852"><ele>29.0</ele><time>2026-04-08T18:05:14Z</time></trkpt><trkpt lat="45.90613904407867" lon="13.379418489200281"><ele>29.0</ele><time>2026-04-08T18:05:15Z</time></trkpt><trkpt lat="45.90582316140387" lon="13.379449512129238"><ele>28.5</ele><time>2026-04-08T18:05:16Z</time></trkpt><trkpt lat="45.90551889260375" lon="13.379483115164076"><ele>28.0</ele><time>2026-04-08T18:05:17Z</time></trkpt><trkpt lat="45.905223777112255" lon="13.379519549295306"><ele>27.0</ele><time>2026-04-08T18:05:18Z</time></trkpt><trkpt lat="45.90493732482326" lon="13.379556301581035"><ele>26.0</ele><time>2026-04-08T18:05:18.999Z</time></trkpt><trkpt lat="45.9046591039729" lon="13.379597195770083"><ele>26.0</ele><time>2026-04-08T18:05:19.999Z</time></trkpt><trkpt lat="45.90438594222531" lon="13.37964558968511"><ele>26.0</ele><time>2026-04-08T18:05:20.999Z</time></trkpt><trkpt lat="45.90411932966413" lon="13.379700063389839"><ele>26.5</ele><time>2026-04-08T18:05:21.999Z</time></trkpt><trkpt lat="45.903860596202264" lon="13.379758140183933"><ele>27.0</ele><time>2026-04-08T18:05:22.999Z</time></trkpt><trkpt lat="45.90360473439452" lon="13.379812858891034"><ele>27.0</ele><time>2026-04-08T18:05:23.999Z</time></trkpt><trkpt lat="45.90335146112433" lon="13.379867959946425"><ele>27.0</ele><time>2026-04-08T18:05:24.999Z</time></trkpt><trkpt lat="45.90310440208094" lon="13.379923445398637"><ele>27.0</ele><time>2026-04-08T18:05:25.999Z</time></trkpt><trkpt lat="45.90286761717763" lon="13.37997711575081"><ele>27.0</ele><time>2026-04-08T18:05:26.999Z</time></trkpt><trkpt lat="45.90264781888258" lon="13.38002500116516"><ele>26.666666666666664</ele><time>2026-04-08T18:05:27.999Z</time></trkpt><trkpt lat="45.90243702389733" lon="13.380070304610701"><ele>26.333333333333332</ele><time>2026-04-08T18:05:28.999Z</time></trkpt><trkpt lat="45.902231346593275" lon="13.380114989061566"><ele>26.0</ele><time>2026-04-08T18:05:29.999Z</time></trkpt><trkpt lat="45.90203720292649" lon="13.380156680199342"><ele>26.0</ele><time>2026-04-08T18:05:30.999Z</time></trkpt><trkpt lat="45.90184282952966" lon="13.380196225679885"><ele>26.0</ele><time>2026-04-08T18:05:31.999Z</time></trkpt><trkpt lat="45.90163976674047" lon="13.380233399334479"><ele>26.0</ele><time>2026-04-08T18:05:32.999Z</time></trkpt><trkpt lat="45.90143175358905" lon="13.38026227525604"><ele>26.0</ele><time>2026-04-08T18:05:34Z</time></trkpt><trkpt lat="45.90122581822406" lon="13.380289170773926"><ele>26.0</ele><time>2026-04-08T18:05:35Z</time></trkpt><trkpt lat="45.90102024999566" lon="13.380316389103875"><ele>26.0</ele><time>2026-04-08T18:05:36Z</time></trkpt><trkpt lat="45.900817982185664" lon="13.38034043974481"><ele>26.0</ele><time>2026-04-08T18:05:37Z</time></trkpt><trkpt lat="45.90062033683689" lon="13.38036851456613"><ele>26.0</ele><time>2026-04-08T18:05:38Z</time></trkpt><trkpt lat="45.90042706874406" lon="13.380397316087215"><ele>26.0</ele><time>2026-04-08T18:05:39Z</time></trkpt><trkpt lat="45.90024615678415" lon="13.380422750087737"><ele>26.0</ele><time>2026-04-08T18:05:40Z</time></trkpt><trkpt lat="45.90008394853061" lon="13.380446445947328"><ele>26.0</ele><time>2026-04-08T18:05:41Z</time></trkpt><trkpt lat="45.89992791007839" lon="13.38047232170942"><ele>26.0</ele><time>2026-04-08T18:05:42Z</time></trkpt><trkpt lat="45.89977435910344" lon="13.380498596149668"><ele>26.0</ele><time>2026-04-08T18:05:43Z</time></trkpt><trkpt lat="45.89962284988819" lon="13.380529885227578"><ele>26.0</ele><time>2026-04-08T18:05:44Z</time></trkpt><trkpt lat="45.899470159531155" lon="13.380567772019859"><ele>26.0</ele><time>2026-04-08T18:05:45Z</time></trkpt><trkpt lat="45.8993176182465" lon="13.380605627124437"><ele>25.333333333333332</ele><time>2026-04-08T18:05:46Z</time></trkpt><trkpt lat="45.899165075625504" lon="13.380646119523607"><ele>24.666666666666664</ele><time>2026-04-08T18:05:47Z</time></trkpt><trkpt lat="45.89901181810275" lon="13.380692812125602"><ele>24.0</ele><time>2026-04-08T18:05:48Z</time></trkpt><trkpt lat="45.8988552232454" lon="13.380749721239516"><ele>24.0</ele><time>2026-04-08T18:05:49Z</time></trkpt><trkpt lat="45.89869553036787" lon="13.380811766594865"><ele>24.0</ele><time>2026-04-08T18:05:50Z</time></trkpt><trkpt lat="45.898534402371126" lon="13.380877200967298"><ele>24.0</ele><time>2026-04-08T18:05:51Z</time></trkpt><trkpt lat="45.89837612412963" lon="13.380939977937754"><ele>24.666666666666664</ele><time>2026-04-08T18:05:52Z</time></trkpt><trkpt lat="45.898220441875644" lon="13.380997644830293"><ele>25.333333333333332</ele><time>2026-04-08T18:05:53Z</time></trkpt><trkpt lat="45.89806064972637" lon="13.381059365591137"><ele>26.0</ele><time>2026-04-08T18:05:54Z</time></trkpt><trkpt lat="45.89789570478206" lon="13.381127547592593"><ele>26.0</ele><time>2026-04-08T18:05:55Z</time></trkpt><trkpt lat="45.897728093808674" lon="13.381191650871305"><ele>26.0</ele><time>2026-04-08T18:05:56Z</time></trkpt><trkpt lat="45.89756196529076" lon="13.381260999392637"><ele>26.0</ele><time>2026-04-08T18:05:57Z</time></trkpt><trkpt lat="45.89739347875462" lon="13.38133126948665"><ele>26.0</ele><time>2026-04-08T18:05:58Z</time></trkpt><trkpt lat="45.89722593148575" lon="13.381400061314896"><ele>26.0</ele><time>2026-04-08T18:05:59Z</time></trkpt><trkpt lat="45.89706113157966" lon="13.381471163079466"><ele>26.0</ele><time>2026-04-08T18:06:00Z</time></trkpt><trkpt lat="45.89689756557965" lon="13.381544570849423"><ele>26.0</ele><time>2026-04-08T18:06:01Z</time></trkpt><trkpt lat="45.89673595218791" lon="13.381614951715296"><ele>26.0</ele><time>2026-04-08T18:06:02Z</time></trkpt><trkpt lat="45.89657768507475" lon="13.381688579893266"><ele>26.0</ele><time>2026-04-08T18:06:03Z</time></trkpt><trkpt lat="45.896423655124025" lon="13.381761037567635"><ele>26.0</ele><time>2026-04-08T18:06:04Z</time></trkpt><trkpt lat="45.8962827722872" lon="13.3818258618351"><ele>26.0</ele><time>2026-04-08T18:06:05Z</time></trkpt><trkpt lat="45.89615720477399" lon="13.381885903954405"><ele>26.0</ele><time>2026-04-08T18:06:06Z</time></trkpt><trkpt lat="45.89604545232298" lon="13.381938871543388"><ele>26.0</ele><time>2026-04-08T18:06:07Z</time></trkpt><trkpt lat="45.895956488954106" lon="13.381978227152652"><ele>26.166666666666664</ele><time>2026-04-08T18:06:08Z</time></trkpt><trkpt lat="45.89588447344188" lon="13.382012077974666"><ele>26.333333333333332</ele><time>2026-04-08T18:06:09Z</time></trkpt><trkpt lat="45.89579995385573" lon="13.382036632870298"><ele>26.5</ele><time>2026-04-08T18:06:11Z</time></trkpt><trkpt lat="45.89578239026553" lon="13.38193080498885"><ele>26.666666666666664</ele><time>2026-04-08T18:06:14Z</time></trkpt><trkpt lat="45.895799122596536" lon="13.381828970425769"><ele>26.833333333333332</ele><time>2026-04-08T18:06:16Z</time></trkpt><trkpt lat="45.89582632247645" lon="13.381699783017211"><ele>27.0</ele><time>2026-04-08T18:06:18Z</time></trkpt><trkpt lat="45.89585345434728" lon="13.381571132828334"><ele>27.0</ele><time>2026-04-08T18:06:20Z</time></trkpt><trkpt lat="45.89587918240399" lon="13.381453048755311"><ele>27.0</ele><time>2026-04-08T18:06:22Z</time></trkpt><trkpt lat="45.895898035918194" lon="13.381365805040806"><ele>27.0</ele><time>2026-04-08T18:06:24Z</time></trkpt><trkpt lat="45.895972815506475" lon="13.381283523438322"><ele>27.0</ele><time>2026-04-08T18:06:27Z</time></trkpt><trkpt lat="45.89604777683793" lon="13.38125991165832"><ele>27.0</ele><time>2026-04-08T18:06:29Z</time></trkpt><trkpt lat="45.89613388763178" lon="13.381253596808229"><ele>27.0</ele><time>2026-04-08T18:06:32Z</time></trkpt><trkpt lat="45.896204120643965" lon="13.381228152222503"><ele>26.0</ele><time>2026-04-08T18:07:08Z</time></trkpt></trkseg></trk></gpx>